<?xml version='1.0' encoding='UTF-8'?><gpx version="1.1" creator="JPX - https://github.com/jenetics/jpx" xmlns="http://www.topografix.com/GPX/1/1"><trk><trkseg><trkpt lat="43.298830246912495" lon="10.871110868061562"><ele>364.0</ele><time>2026-03-27T11:06:01.999Z</time></trkpt><trkpt lat="43.29877454954773" lon="10.871070079158002"><ele>364.0</ele><time>2026-03-27T11:07:21.998Z</time></trkpt><trkpt lat="43.29872212884159" lon="10.870999350105752"><ele>364.0</ele><time>2026-03-27T11:08:14.999Z</time></trkpt><trkpt lat="43.298730355327436" lon="10.871121343673977"><ele>364.0</ele><time>2026-03-27T11:16:31Z</time></trkpt><trkpt lat="43.2987995880183" lon="10.871130739524608"><ele>364.0</ele><time>2026-03-27T11:16:49.999Z</time></trkpt><trkpt lat="43.298799933404915" lon="10.871234402800223"><ele>364.0</ele><time>2026-03-27T11:16:52.999Z</time></trkpt><trkpt lat="43.298741683362984" lon="10.871296234841447"><ele>364.0</ele><time>2026-03-27T11:16:53.999Z</time></trkpt><trkpt lat="43.29866605151654" lon="10.871345827308904"><ele>364.0</ele><time>2026-03-27T11:16:54.999Z</time></trkpt><trkpt lat="43.29860710142576" lon="10.87138919690792"><ele>364.0</ele><time>2026-03-27T11:16:55.999Z</time></trkpt><trkpt lat="43.298566325738015" lon="10.87146116542594"><ele>364.0</ele><time>2026-03-27T11:16:56.999Z</time></trkpt><trkpt lat="43.298536004094935" lon="10.871560335611434"><ele>364.0</ele><time>2026-03-27T11:16:57.999Z</time></trkpt><trkpt lat="43.29850400044417" lon="10.871687507792519"><ele>364.0</ele><time>2026-03-27T11:16:58.999Z</time></trkpt><trkpt lat="43.298436047342804" lon="10.871804882652752"><ele>364.0</ele><time>2026-03-27T11:16:59.999Z</time></trkpt><trkpt lat="43.29834613267668" lon="10.87191431042495"><ele>363.25</ele><time>2026-03-27T11:17:00.999Z</time></trkpt><trkpt lat="43.298258284779635" lon="10.87200836405005"><ele>362.5</ele><time>2026-03-27T11:17:01.999Z</time></trkpt><trkpt lat="43.29817527705596" lon="10.872114945513932"><ele>361.75</ele><time>2026-03-27T11:17:02.999Z</time></trkpt><trkpt lat="43.298095059874385" lon="10.872221555292441"><ele>361.0</ele><time>2026-03-27T11:17:03.999Z</time></trkpt><trkpt lat="43.29800855332699" lon="10.872333100585141"><ele>361.0</ele><time>2026-03-27T11:17:04.999Z</time></trkpt><trkpt lat="43.297927989703076" lon="10.872440861948755"><ele>361.0</ele><time>2026-03-27T11:17:05.999Z</time></trkpt><trkpt lat="43.29784449452165" lon="10.872539832719857"><ele>361.0</ele><time>2026-03-27T11:17:06.999Z</time></trkpt><trkpt lat="43.297748094887005" lon="10.872631848456406"><ele>361.0</ele><time>2026-03-27T11:17:07.999Z</time></trkpt><trkpt lat="43.29764463722756" lon="10.872726342438707"><ele>360.0</ele><time>2026-03-27T11:17:08.999Z</time></trkpt><trkpt lat="43.297545628988956" lon="10.872848342372487"><ele>359.0</ele><time>2026-03-27T11:17:09.999Z</time></trkpt><trkpt lat="43.29744615876365" lon="10.872968433014204"><ele>358.0</ele><time>2026-03-27T11:17:10.999Z</time></trkpt><trkpt lat="43.29733582628406" lon="10.873063586118985"><ele>357.0</ele><time>2026-03-27T11:17:11.999Z</time></trkpt><trkpt lat="43.297212079474605" lon="10.87315104792419"><ele>356.75</ele><time>2026-03-27T11:17:12.999Z</time></trkpt><trkpt lat="43.297081270555914" lon="10.87324968271263"><ele>356.5</ele><time>2026-03-27T11:17:13.999Z</time></trkpt><trkpt lat="43.296943025918154" lon="10.873330673277769"><ele>356.25</ele><time>2026-03-27T11:17:14.999Z</time></trkpt><trkpt lat="43.29682237539017" lon="10.873401407793065"><ele>356.0</ele><time>2026-03-27T11:17:15.999Z</time></trkpt><trkpt lat="43.29671331074474" lon="10.873459856888967"><ele>354.75</ele><time>2026-03-27T11:17:16.999Z</time></trkpt><trkpt lat="43.29660856723196" lon="10.873508353624818"><ele>353.5</ele><time>2026-03-27T11:17:17.999Z</time></trkpt><trkpt lat="43.29649322313172" lon="10.873554506845053"><ele>352.25</ele><time>2026-03-27T11:17:18.999Z</time></trkpt><trkpt lat="43.29636954849092" lon="10.873597657837836"><ele>351.0</ele><time>2026-03-27T11:17:19.999Z</time></trkpt><trkpt lat="43.296244429888354" lon="10.873640689634948"><ele>350.5</ele><time>2026-03-27T11:17:20.999Z</time></trkpt><trkpt lat="43.29612510137033" lon="10.87368114935742"><ele>350.0</ele><time>2026-03-27T11:17:21.999Z</time></trkpt><trkpt lat="43.29601220265345" lon="10.87370946787844"><ele>349.5</ele><time>2026-03-27T11:17:22.999Z</time></trkpt><trkpt lat="43.29589063166608" lon="10.873738337383598"><ele>349.0</ele><time>2026-03-27T11:17:23.999Z</time></trkpt><trkpt lat="43.295760073012374" lon="10.873768494997167"><ele>349.0</ele><time>2026-03-27T11:17:24.999Z</time></trkpt><trkpt lat="43.29561962995499" lon="10.87379494843536"><ele>349.0</ele><time>2026-03-27T11:17:25.999Z</time></trkpt><trkpt lat="43.295465662033884" lon="10.873825141592315"><ele>349.0</ele><time>2026-03-27T11:17:26.999Z</time></trkpt><trkpt lat="43.295308588918985" lon="10.873861209555033"><ele>347.5</ele><time>2026-03-27T11:17:27.999Z</time></trkpt><trkpt lat="43.295158226793646" lon="10.873897982381106"><ele>346.0</ele><time>2026-03-27T11:17:28.999Z</time></trkpt><trkpt lat="43.29502233943482" lon="10.873932413107868"><ele>344.5</ele><time>2026-03-27T11:17:29.999Z</time></trkpt><trkpt lat="43.2948770550051" lon="10.873961958522884"><ele>343.0</ele><time>2026-03-27T11:17:30.999Z</time></trkpt><trkpt lat="43.29472340808397" lon="10.873992572782013"><ele>340.66666666666663</ele><time>2026-03-27T11:17:31.999Z</time></trkpt><trkpt lat="43.2945681752341" lon="10.874028595056894"><ele>338.3333333333333</ele><time>2026-03-27T11:17:32.999Z</time></trkpt><trkpt lat="43.2944151050909" lon="10.874061876424433"><ele>336.0</ele><time>2026-03-27T11:17:33.999Z</time></trkpt><trkpt lat="43.294266399842776" lon="10.874096070478721"><ele>336.0</ele><time>2026-03-27T11:17:34.999Z</time></trkpt><trkpt lat="43.29412211554986" lon="10.874127715178014"><ele>336.0</ele><time>2026-03-27T11:17:35.999Z</time></trkpt><trkpt lat="43.29399717312892" lon="10.874163679294531"><ele>336.0</ele><time>2026-03-27T11:17:36.999Z</time></trkpt><trkpt lat="43.293892059524914" lon="10.874198810269196"><ele>336.0</ele><time>2026-03-27T11:17:37.999Z</time></trkpt><trkpt lat="43.293796838372366" lon="10.87423437625113"><ele>336.1666666666667</ele><time>2026-03-27T11:17:38.999Z</time></trkpt><trkpt lat="43.29370961094928" lon="10.874248583942569"><ele>336.3333333333333</ele><time>2026-03-27T11:17:39.999Z</time></trkpt><trkpt lat="43.293631407881584" lon="10.874215008217817"><ele>336.5</ele><time>2026-03-27T11:17:40.999Z</time></trkpt><trkpt lat="43.293569878871345" lon="10.874139816011105"><ele>336.66666666666663</ele><time>2026-03-27T11:17:41.999Z</time></trkpt><trkpt lat="43.29354893026591" lon="10.87403285453577"><ele>336.8333333333333</ele><time>2026-03-27T11:17:42.999Z</time></trkpt><trkpt lat="43.29357403984776" lon="10.87391814540683"><ele>337.0</ele><time>2026-03-27T11:17:43.999Z</time></trkpt><trkpt lat="43.29359980738731" lon="10.87381099628902"><ele>337.0</ele><time>2026-03-27T11:17:44.999Z</time></trkpt><trkpt lat="43.293749216070545" lon="10.87379439565923"><ele>337.0</ele><time>2026-03-27T11:17:45.999Z</time></trkpt><trkpt lat="43.293857512284774" lon="10.87372103925996"><ele>337.0</ele><time>2026-03-27T11:17:46.999Z</time></trkpt><trkpt lat="43.29397102513188" lon="10.873658201554246"><ele>337.0</ele><time>2026-03-27T11:17:47.999Z</time></trkpt><trkpt lat="43.29406072261226" lon="10.873592750735252"><ele>336.8</ele><time>2026-03-27T11:17:48.999Z</time></trkpt><trkpt lat="43.294155794034765" lon="10.873531394975416"><ele>336.6</ele><time>2026-03-27T11:17:49.999Z</time></trkpt><trkpt lat="43.29425307112411" lon="10.873471516225026"><ele>336.40000000000003</ele><time>2026-03-27T11:17:50.999Z</time></trkpt><trkpt lat="43.29432589048646" lon="10.873383107703193"><ele>336.20000000000005</ele><time>2026-03-27T11:17:51.999Z</time></trkpt><trkpt lat="43.294378374856116" lon="10.873296441969396"><ele>336.0</ele><time>2026-03-27T11:17:52.999Z</time></trkpt><trkpt lat="43.29441271168541" lon="10.873220536135387"><ele>337.0</ele><time>2026-03-27T11:17:53.999Z</time></trkpt><trkpt lat="43.29445108872667" lon="10.873124636770056"><ele>338.0</ele><time>2026-03-27T11:17:55.999Z</time></trkpt><trkpt lat="43.294383245095894" lon="10.873063346793971"><ele>339.0</ele><time>2026-03-27T11:17:59Z</time></trkpt><trkpt lat="43.294271556741386" lon="10.873080028044331"><ele>340.0</ele><time>2026-03-27T11:18:01Z</time></trkpt><trkpt lat="43.29420685086612" lon="10.873083981880773"><ele>341.0</ele><time>2026-03-27T11:18:02Z</time></trkpt><trkpt lat="43.29409359254383" lon="10.873092876799886"><ele>341.0</ele><time>2026-03-27T11:18:03Z</time></trkpt><trkpt lat="43.294006790129615" lon="10.873098268728265"><ele>341.0</ele><time>2026-03-27T11:18:04Z</time></trkpt><trkpt lat="43.29389990073678" lon="10.87310234789646"><ele>341.0</ele><time>2026-03-27T11:18:05Z</time></trkpt><trkpt lat="43.293784222926504" lon="10.873135275997793"><ele>341.0</ele><time>2026-03-27T11:18:06Z</time></trkpt><trkpt lat="43.29367063537422" lon="10.873166738401885"><ele>341.0</ele><time>2026-03-27T11:18:07Z</time></trkpt><trkpt lat="43.29354423000707" lon="10.873187935770158"><ele>341.33333333333337</ele><time>2026-03-27T11:18:08Z</time></trkpt><trkpt lat="43.29343820540678" lon="10.873222764439351"><ele>341.6666666666667</ele><time>2026-03-27T11:18:09Z</time></trkpt><trkpt lat="43.29334808191036" lon="10.873272308516123"><ele>342.0</ele><time>2026-03-27T11:18:10Z</time></trkpt><trkpt lat="43.29325594619234" lon="10.87327999696948"><ele>342.3333333333333</ele><time>2026-03-27T11:18:11Z</time></trkpt><trkpt lat="43.29317632083256" lon="10.873281257050053"><ele>342.66666666666663</ele><time>2026-03-27T11:18:12Z</time></trkpt><trkpt lat="43.29311035955825" lon="10.873280039272508"><ele>343.0</ele><time>2026-03-27T11:18:13Z</time></trkpt><trkpt lat="43.292996331499886" lon="10.873263197318597"><ele>343.2</ele><time>2026-03-27T11:18:14Z</time></trkpt><trkpt lat="43.29290093582033" lon="10.873261748406506"><ele>343.4</ele><time>2026-03-27T11:18:15Z</time></trkpt><trkpt lat="43.29280638751539" lon="10.873254461746551"><ele>343.59999999999997</ele><time>2026-03-27T11:18:16Z</time></trkpt><trkpt lat="43.29271684541137" lon="10.873254418102086"><ele>343.79999999999995</ele><time>2026-03-27T11:18:17Z</time></trkpt><trkpt lat="43.29263513648691" lon="10.873223840625071"><ele>344.0</ele><time>2026-03-27T11:18:18Z</time></trkpt><trkpt lat="43.292549321555576" lon="10.873198016592482"><ele>344.0</ele><time>2026-03-27T11:18:19Z</time></trkpt><trkpt lat="43.292463082151194" lon="10.873189821102654"><ele>344.0</ele><time>2026-03-27T11:18:20Z</time></trkpt><trkpt lat="43.29239056939803" lon="10.873148094740241"><ele>344.0</ele><time>2026-03-27T11:18:21Z</time></trkpt><trkpt lat="43.292313449711195" lon="10.873123390111259"><ele>344.0</ele><time>2026-03-27T11:18:22Z</time></trkpt><trkpt lat="43.29224894484692" lon="10.873118347747273"><ele>344.0</ele><time>2026-03-27T11:18:23Z</time></trkpt><trkpt lat="43.292272880521146" lon="10.872899229290374"><ele>344.0</ele><time>2026-03-27T11:18:26Z</time></trkpt><trkpt lat="43.29236040324202" lon="10.872767005539918"><ele>344.0</ele><time>2026-03-27T11:18:27Z</time></trkpt><trkpt lat="43.292450860261134" lon="10.872644284278485"><ele>344.0</ele><time>2026-03-27T11:18:28Z</time></trkpt><trkpt lat="43.29252790972835" lon="10.872546841270305"><ele>344.0</ele><time>2026-03-27T11:18:29Z</time></trkpt><trkpt lat="43.29260590269997" lon="10.872441989662471"><ele>344.5</ele><time>2026-03-27T11:18:30Z</time></trkpt><trkpt lat="43.292688256509514" lon="10.872328666918051"><ele>345.0</ele><time>2026-03-27T11:18:31Z</time></trkpt><trkpt lat="43.29278019072571" lon="10.872214071939963"><ele>345.5</ele><time>2026-03-27T11:18:32Z</time></trkpt><trkpt lat="43.29287411120694" lon="10.872102001787749"><ele>346.0</ele><time>2026-03-27T11:18:33Z</time></trkpt><trkpt lat="43.29298521601113" lon="10.871982758757472"><ele>346.75</ele><time>2026-03-27T11:18:34Z</time></trkpt><trkpt lat="43.29309030261736" lon="10.871867280353099"><ele>347.5</ele><time>2026-03-27T11:18:35Z</time></trkpt><trkpt lat="43.293194044932015" lon="10.871756412975701"><ele>348.25</ele><time>2026-03-27T11:18:36Z</time></trkpt><trkpt lat="43.293272996849275" lon="10.871649648658243"><ele>349.0</ele><time>2026-03-27T11:18:37Z</time></trkpt><trkpt lat="43.2933369542782" lon="10.871581071419532"><ele>349.3333333333333</ele><time>2026-03-27T11:18:38Z</time></trkpt><trkpt lat="43.293386615777536" lon="10.871510201083053"><ele>349.66666666666663</ele><time>2026-03-27T11:18:39Z</time></trkpt><trkpt lat="43.29345102975418" lon="10.871430816858263"><ele>350.0</ele><time>2026-03-27T11:18:40Z</time></trkpt><trkpt lat="43.293508039258136" lon="10.871367130753852"><ele>350.3333333333333</ele><time>2026-03-27T11:18:41Z</time></trkpt><trkpt lat="43.29356829080228" lon="10.871326462842195"><ele>350.6666666666667</ele><time>2026-03-27T11:18:45Z</time></trkpt><trkpt lat="43.29368941170277" lon="10.871406166517941"><ele>351.0</ele><time>2026-03-27T11:18:49.999Z</time></trkpt><trkpt lat="43.293740542534536" lon="10.871470073148227"><ele>351.0</ele><time>2026-03-27T11:18:51.999Z</time></trkpt><trkpt lat="43.29380915006577" lon="10.871527541869323"><ele>351.0</ele><time>2026-03-27T11:19:09.999Z</time></trkpt><trkpt lat="43.29394275376062" lon="10.871611999159283"><ele>351.0</ele><time>2026-03-27T11:19:11.999Z</time></trkpt><trkpt lat="43.29402967587427" lon="10.871654518083"><ele>351.0</ele><time>2026-03-27T11:19:12.999Z</time></trkpt><trkpt lat="43.294125441404766" lon="10.871686859400223"><ele>351.0</ele><time>2026-03-27T11:19:13.999Z</time></trkpt><trkpt lat="43.29421633978236" lon="10.871768083558727"><ele>351.5</ele><time>2026-03-27T11:19:14.999Z</time></trkpt><trkpt lat="43.294334111163046" lon="10.871762199104422"><ele>352.0</ele><time>2026-03-27T11:19:15.999Z</time></trkpt><trkpt lat="43.29445561452521" lon="10.871726408592169"><ele>352.5</ele><time>2026-03-27T11:19:16.999Z</time></trkpt><trkpt lat="43.29456085878409" lon="10.871623370362894"><ele>353.0</ele><time>2026-03-27T11:19:17.999Z</time></trkpt><trkpt lat="43.294654731209356" lon="10.871500009408004"><ele>353.0</ele><time>2026-03-27T11:19:18.999Z</time></trkpt><trkpt lat="43.29471198143304" lon="10.87133352456111"><ele>353.0</ele><time>2026-03-27T11:19:19.999Z</time></trkpt><trkpt lat="43.29474468416195" lon="10.87118303858264"><ele>353.0</ele><time>2026-03-27T11:19:20.999Z</time></trkpt><trkpt lat="43.29474380457788" lon="10.871008004045683"><ele>353.0</ele><time>2026-03-27T11:19:21.999Z</time></trkpt><trkpt lat="43.29472369661283" lon="10.870837210678895"><ele>353.4</ele><time>2026-03-27T11:19:22.999Z</time></trkpt><trkpt lat="43.29466061687994" lon="10.87069912722371"><ele>353.79999999999995</ele><time>2026-03-27T11:19:23.999Z</time></trkpt><trkpt lat="43.29459343564752" lon="10.870561306781166"><ele>354.2</ele><time>2026-03-27T11:19:24.999Z</time></trkpt><trkpt lat="43.29451439476788" lon="10.870481172229528"><ele>354.6</ele><time>2026-03-27T11:19:25.999Z</time></trkpt><trkpt lat="43.29444314468068" lon="10.870395512854806"><ele>355.0</ele><time>2026-03-27T11:19:26.999Z</time></trkpt><trkpt lat="43.29440386368606" lon="10.870309261788963"><ele>355.0</ele><time>2026-03-27T11:19:27.999Z</time></trkpt><trkpt lat="43.294396206967946" lon="10.870181972104456"><ele>355.0</ele><time>2026-03-27T11:19:28.999Z</time></trkpt><trkpt lat="43.29443097868321" lon="10.870064799506311"><ele>355.0</ele><time>2026-03-27T11:19:29.999Z</time></trkpt><trkpt lat="43.29453679662826" lon="10.870011018681899"><ele>355.0</ele><time>2026-03-27T11:19:30.999Z</time></trkpt><trkpt lat="43.29464117481457" lon="10.869905367720094"><ele>355.0</ele><time>2026-03-27T11:19:31.999Z</time></trkpt><trkpt lat="43.29473961584029" lon="10.869767966016164"><ele>356.66666666666663</ele><time>2026-03-27T11:19:32.999Z</time></trkpt><trkpt lat="43.294829997589055" lon="10.869611561368398"><ele>358.3333333333333</ele><time>2026-03-27T11:19:33.999Z</time></trkpt><trkpt lat="43.294921205964265" lon="10.869434147445117"><ele>360.0</ele><time>2026-03-27T11:19:34.999Z</time></trkpt><trkpt lat="43.295007429169694" lon="10.869231711024987"><ele>360.25</ele><time>2026-03-27T11:19:35.999Z</time></trkpt><trkpt lat="43.29510304689527" lon="10.86906950932304"><ele>360.5</ele><time>2026-03-27T11:19:36.999Z</time></trkpt><trkpt lat="43.2951900404482" lon="10.868910600288547"><ele>360.75</ele><time>2026-03-27T11:19:37.999Z</time></trkpt><trkpt lat="43.295268550884316" lon="10.868767756524624"><ele>361.0</ele><time>2026-03-27T11:19:38.999Z</time></trkpt><trkpt lat="43.29533061376492" lon="10.868652224657652"><ele>361.0</ele><time>2026-03-27T11:19:39.999Z</time></trkpt><trkpt lat="43.29537407971271" lon="10.868574516927223"><ele>361.0</ele><time>2026-03-27T11:19:40.999Z</time></trkpt><trkpt lat="43.295438234350605" lon="10.868482746288974"><ele>361.0</ele><time>2026-03-27T11:19:42.999Z</time></trkpt><trkpt lat="43.295525674050275" lon="10.86841237580309"><ele>361.0</ele><time>2026-03-27T11:19:44.999Z</time></trkpt><trkpt lat="43.29553434793167" lon="10.868292155207262"><ele>361.0</ele><time>2026-03-27T11:19:46.999Z</time></trkpt><trkpt lat="43.29545834252635" lon="10.868204855647816"><ele>361.4</ele><time>2026-03-27T11:19:47.999Z</time></trkpt><trkpt lat="43.29538418815588" lon="10.868142822000877"><ele>361.8</ele><time>2026-03-27T11:19:48.999Z</time></trkpt><trkpt lat="43.295338592999315" lon="10.868062568707376"><ele>362.2</ele><time>2026-03-27T11:19:49.999Z</time></trkpt><trkpt lat="43.295280082798335" lon="10.867952073067652"><ele>362.59999999999997</ele><time>2026-03-27T11:19:51.999Z</time></trkpt><trkpt lat="43.29537936731286" lon="10.867803071421374"><ele>363.0</ele><time>2026-03-27T11:19:52.999Z</time></trkpt><trkpt lat="43.29545388094622" lon="10.867670937498845"><ele>363.0</ele><time>2026-03-27T11:19:53.999Z</time></trkpt><trkpt lat="43.295522088748754" lon="10.867531438314717"><ele>363.0</ele><time>2026-03-27T11:19:54.999Z</time></trkpt><trkpt lat="43.29560822938861" lon="10.867389714671761"><ele>363.0</ele><time>2026-03-27T11:19:55.999Z</time></trkpt><trkpt lat="43.29569840151999" lon="10.867230626077527"><ele>363.0</ele><time>2026-03-27T11:19:56.999Z</time></trkpt><trkpt lat="43.29579897903815" lon="10.86705624416442"><ele>363.0</ele><time>2026-03-27T11:19:57.999Z</time></trkpt><trkpt lat="43.29589815275353" lon="10.866880004378041"><ele>363.0</ele><time>2026-03-27T11:19:58.999Z</time></trkpt><trkpt lat="43.295968506724414" lon="10.866749930590569"><ele>363.0</ele><time>2026-03-27T11:19:59.999Z</time></trkpt><trkpt lat="43.296030698234844" lon="10.866637458392576"><ele>363.0</ele><time>2026-03-27T11:20:00.999Z</time></trkpt><trkpt lat="43.2960927730012" lon="10.86650421041489"><ele>363.75</ele><time>2026-03-27T11:20:01.999Z</time></trkpt><trkpt lat="43.296153485242215" lon="10.866347156044544"><ele>364.5</ele><time>2026-03-27T11:20:03Z</time></trkpt><trkpt lat="43.29619994276555" lon="10.866175549477344"><ele>365.25</ele><time>2026-03-27T11:20:04Z</time></trkpt><trkpt lat="43.2962230205057" lon="10.866001290994259"><ele>366.0</ele><time>2026-03-27T11:20:05Z</time></trkpt><trkpt lat="43.29621616083901" lon="10.86580411203159"><ele>366.3333333333333</ele><time>2026-03-27T11:20:06Z</time></trkpt><trkpt lat="43.29619970579971" lon="10.865587650919249"><ele>366.66666666666663</ele><time>2026-03-27T11:20:07Z</time></trkpt><trkpt lat="43.29618977140627" lon="10.86537273002418"><ele>367.0</ele><time>2026-03-27T11:20:08Z</time></trkpt><trkpt lat="43.296176399709715" lon="10.86516368926306"><ele>366.75</ele><time>2026-03-27T11:20:09Z</time></trkpt><trkpt lat="43.29617448413803" lon="10.864972955156054"><ele>366.5</ele><time>2026-03-27T11:20:10Z</time></trkpt><trkpt lat="43.29618628426641" lon="10.86479804824062"><ele>366.25</ele><time>2026-03-27T11:20:11Z</time></trkpt><trkpt lat="43.29622970755854" lon="10.864631227005338"><ele>366.0</ele><time>2026-03-27T11:20:12Z</time></trkpt><trkpt lat="43.296279840431026" lon="10.864475072791366"><ele>366.0</ele><time>2026-03-27T11:20:13Z</time></trkpt><trkpt lat="43.296318536834" lon="10.864342747033348"><ele>366.0</ele><time>2026-03-27T11:20:14Z</time></trkpt><trkpt lat="43.29635493860406" lon="10.86420949592733"><ele>366.0</ele><time>2026-03-27T11:20:15Z</time></trkpt><trkpt lat="43.29638685597545" lon="10.864082214497229"><ele>366.0</ele><time>2026-03-27T11:20:16Z</time></trkpt><trkpt lat="43.29642533397867" lon="10.863956422067888"><ele>366.0</ele><time>2026-03-27T11:20:17Z</time></trkpt><trkpt lat="43.296474582099385" lon="10.863839481318928"><ele>367.75</ele><time>2026-03-27T11:20:18Z</time></trkpt><trkpt lat="43.29656672790319" lon="10.863764483765229"><ele>369.5</ele><time>2026-03-27T11:20:19Z</time></trkpt><trkpt lat="43.29668490701088" lon="10.863684883907691"><ele>371.25</ele><time>2026-03-27T11:20:20Z</time></trkpt><trkpt lat="43.29680521052461" lon="10.86357732972957"><ele>373.0</ele><time>2026-03-27T11:20:21Z</time></trkpt><trkpt lat="43.29693357874792" lon="10.863475316053597"><ele>374.0</ele><time>2026-03-27T11:20:22Z</time></trkpt><trkpt lat="43.297059957909624" lon="10.863331240098825"><ele>375.0</ele><time>2026-03-27T11:20:23Z</time></trkpt><trkpt lat="43.297171622246985" lon="10.8631775438089"><ele>376.0</ele><time>2026-03-27T11:20:24Z</time></trkpt><trkpt lat="43.297265097729785" lon="10.863016195143851"><ele>376.0</ele><time>2026-03-27T11:20:25Z</time></trkpt><trkpt lat="43.297341410125654" lon="10.86283767598174"><ele>376.0</ele><time>2026-03-27T11:20:26Z</time></trkpt><trkpt lat="43.297384778409594" lon="10.862660691993751"><ele>376.0</ele><time>2026-03-27T11:20:27Z</time></trkpt><trkpt lat="43.29739220368037" lon="10.862501444484057"><ele>376.0</ele><time>2026-03-27T11:20:28Z</time></trkpt><trkpt lat="43.29736803047453" lon="10.862349807058617"><ele>374.75</ele><time>2026-03-27T11:20:29Z</time></trkpt><trkpt lat="43.297321039348226" lon="10.862212290151145"><ele>373.5</ele><time>2026-03-27T11:20:30Z</time></trkpt><trkpt lat="43.297233398082795" lon="10.862097357285649"><ele>372.25</ele><time>2026-03-27T11:20:31Z</time></trkpt><trkpt lat="43.297099072397366" lon="10.86200514008319"><ele>371.0</ele><time>2026-03-27T11:20:32Z</time></trkpt><trkpt lat="43.296968417185106" lon="10.86192069553176"><ele>367.25</ele><time>2026-03-27T11:20:33Z</time></trkpt><trkpt lat="43.296854232103385" lon="10.861837325843833"><ele>363.5</ele><time>2026-03-27T11:20:34Z</time></trkpt><trkpt lat="43.29674992941215" lon="10.861747741646736"><ele>359.75</ele><time>2026-03-27T11:20:35Z</time></trkpt><trkpt lat="43.296675488243146" lon="10.861650410365327"><ele>356.0</ele><time>2026-03-27T11:20:36Z</time></trkpt><trkpt lat="43.296626807240166" lon="10.861518756633926"><ele>356.0</ele><time>2026-03-27T11:20:37Z</time></trkpt><trkpt lat="43.29660702032815" lon="10.861378882877652"><ele>356.0</ele><time>2026-03-27T11:20:38Z</time></trkpt><trkpt lat="43.296627663940825" lon="10.861214936231441"><ele>356.0</ele><time>2026-03-27T11:20:39Z</time></trkpt><trkpt lat="43.29665585961756" lon="10.861077529705316"><ele>356.0</ele><time>2026-03-27T11:20:40Z</time></trkpt><trkpt lat="43.29667510054508" lon="10.860950154234953"><ele>356.0</ele><time>2026-03-27T11:20:41Z</time></trkpt><trkpt lat="43.29669276676512" lon="10.860812265031912"><ele>356.20000000000005</ele><time>2026-03-27T11:20:42Z</time></trkpt><trkpt lat="43.29671003024497" lon="10.860661058530763"><ele>356.40000000000003</ele><time>2026-03-27T11:20:43Z</time></trkpt><trkpt lat="43.296734312805945" lon="10.860513380466992"><ele>356.6</ele><time>2026-03-27T11:20:44Z</time></trkpt><trkpt lat="43.29677336702693" lon="10.860393779751117"><ele>356.8</ele><time>2026-03-27T11:20:45Z</time></trkpt><trkpt lat="43.29682411599879" lon="10.860296748080117"><ele>357.0</ele><time>2026-03-27T11:20:46Z</time></trkpt><trkpt lat="43.29687045680024" lon="10.86018916208306"><ele>357.0</ele><time>2026-03-27T11:20:47Z</time></trkpt><trkpt lat="43.29695110071932" lon="10.860121865111097"><ele>357.0</ele><time>2026-03-27T11:20:47.999Z</time></trkpt><trkpt lat="43.296945588104414" lon="10.859939465428246"><ele>357.0</ele><time>2026-03-27T11:20:48.999Z</time></trkpt><trkpt lat="43.29697714978505" lon="10.859799496284815"><ele>357.0</ele><time>2026-03-27T11:20:49.999Z</time></trkpt><trkpt lat="43.29700824243394" lon="10.85966869935285"><ele>357.0</ele><time>2026-03-27T11:20:50.999Z</time></trkpt><trkpt lat="43.29706798585179" lon="10.859566934267832"><ele>356.0</ele><time>2026-03-27T11:20:51.999Z</time></trkpt><trkpt lat="43.29711849367388" lon="10.859458914266824"><ele>355.0</ele><time>2026-03-27T11:20:52.999Z</time></trkpt><trkpt lat="43.29717685149196" lon="10.85936981020476"><ele>354.0</ele><time>2026-03-27T11:20:53.999Z</time></trkpt><trkpt lat="43.297235811514724" lon="10.859302396964056"><ele>353.0</ele><time>2026-03-27T11:20:54.999Z</time></trkpt><trkpt lat="43.29730897518949" lon="10.859299184528368"><ele>352.0</ele><time>2026-03-27T11:20:55.999Z</time></trkpt><trkpt lat="43.297386474284146" lon="10.859371900576242"><ele>351.0</ele><time>2026-03-27T11:20:56.999Z</time></trkpt><trkpt lat="43.29747681298954" lon="10.859487825615194"><ele>353.3333333333333</ele><time>2026-03-27T11:20:57.999Z</time></trkpt><trkpt lat="43.29756999970929" lon="10.85957566247707"><ele>355.6666666666667</ele><time>2026-03-27T11:20:58.999Z</time></trkpt><trkpt lat="43.297624922384024" lon="10.859624396288748"><ele>358.0</ele><time>2026-03-27T11:20:59.999Z</time></trkpt><trkpt lat="43.29768795293419" lon="10.859654189074387"><ele>360.33333333333337</ele><time>2026-03-27T11:21:02.999Z</time></trkpt><trkpt lat="43.29775243297306" lon="10.859554842348432"><ele>362.6666666666667</ele><time>2026-03-27T11:21:05.999Z</time></trkpt><trkpt lat="43.29772891931029" lon="10.859415204372919"><ele>365.0</ele><time>2026-03-27T11:21:06.999Z</time></trkpt><trkpt lat="43.29769576810786" lon="10.859248722349463"><ele>365.0</ele><time>2026-03-27T11:21:07.999Z</time></trkpt><trkpt lat="43.2976833708982" lon="10.859059869412576"><ele>365.0</ele><time>2026-03-27T11:21:08.999Z</time></trkpt><trkpt lat="43.29763647996998" lon="10.858872281718083"><ele>365.0</ele><time>2026-03-27T11:21:09.999Z</time></trkpt><trkpt lat="43.29758875312339" lon="10.858703524432972"><ele>365.0</ele><time>2026-03-27T11:21:10.999Z</time></trkpt><trkpt lat="43.29754694939109" lon="10.858543000827337"><ele>362.5</ele><time>2026-03-27T11:21:11.999Z</time></trkpt><trkpt lat="43.297500667440396" lon="10.858382721629681"><ele>360.0</ele><time>2026-03-27T11:21:12.999Z</time></trkpt><trkpt lat="43.29744969553574" lon="10.858228450108873"><ele>357.5</ele><time>2026-03-27T11:21:13.999Z</time></trkpt><trkpt lat="43.29740184948133" lon="10.858059326425373"><ele>355.0</ele><time>2026-03-27T11:21:14.999Z</time></trkpt><trkpt lat="43.29735495664315" lon="10.857910023017839"><ele>355.0</ele><time>2026-03-27T11:21:15.999Z</time></trkpt><trkpt lat="43.297311309463936" lon="10.857749294627641"><ele>355.0</ele><time>2026-03-27T11:21:16.999Z</time></trkpt><trkpt lat="43.29725003515633" lon="10.857587760370992"><ele>355.0</ele><time>2026-03-27T11:21:17.999Z</time></trkpt><trkpt lat="43.29716260892115" lon="10.857450356692203"><ele>355.0</ele><time>2026-03-27T11:21:18.999Z</time></trkpt><trkpt lat="43.29704486396048" lon="10.857342202230106"><ele>350.75</ele><time>2026-03-27T11:21:19.999Z</time></trkpt><trkpt lat="43.296921920405445" lon="10.857246354200344"><ele>346.5</ele><time>2026-03-27T11:21:20.999Z</time></trkpt><trkpt lat="43.296809324332976" lon="10.857145805775394"><ele>342.25</ele><time>2026-03-27T11:21:21.999Z</time></trkpt><trkpt lat="43.29670783005529" lon="10.857036197946085"><ele>338.0</ele><time>2026-03-27T11:21:22.999Z</time></trkpt><trkpt lat="43.296615122833444" lon="10.856926130867356"><ele>338.0</ele><time>2026-03-27T11:21:23.999Z</time></trkpt><trkpt lat="43.29652981143349" lon="10.856815169975231"><ele>338.0</ele><time>2026-03-27T11:21:24.999Z</time></trkpt><trkpt lat="43.296474166490114" lon="10.856701075489575"><ele>338.0</ele><time>2026-03-27T11:21:25.999Z</time></trkpt><trkpt lat="43.2963996533368" lon="10.856600965559645"><ele>338.0</ele><time>2026-03-27T11:21:26.999Z</time></trkpt><trkpt lat="43.29635636052622" lon="10.856510352976313"><ele>338.0</ele><time>2026-03-27T11:21:27.999Z</time></trkpt><trkpt lat="43.29631573373707" lon="10.856429059238678"><ele>335.2</ele><time>2026-03-27T11:21:28.999Z</time></trkpt><trkpt lat="43.296276157113226" lon="10.856328546187756"><ele>332.4</ele><time>2026-03-27T11:21:29.999Z</time></trkpt><trkpt lat="43.296267014918264" lon="10.856186048269917"><ele>329.59999999999997</ele><time>2026-03-27T11:21:30.999Z</time></trkpt><trkpt lat="43.296148045700896" lon="10.856092004341145"><ele>326.79999999999995</ele><time>2026-03-27T11:21:31.999Z</time></trkpt><trkpt lat="43.296075235493625" lon="10.855989101258299"><ele>324.0</ele><time>2026-03-27T11:21:32.999Z</time></trkpt><trkpt lat="43.29601331769282" lon="10.855891559202197"><ele>323.1666666666667</ele><time>2026-03-27T11:21:33.999Z</time></trkpt><trkpt lat="43.29595948018912" lon="10.855798752851936"><ele>322.3333333333333</ele><time>2026-03-27T11:21:34.999Z</time></trkpt><trkpt lat="43.29590710437029" lon="10.85570548213808"><ele>321.5</ele><time>2026-03-27T11:21:35.999Z</time></trkpt><trkpt lat="43.29587061491608" lon="10.855607340081775"><ele>320.66666666666663</ele><time>2026-03-27T11:21:36.999Z</time></trkpt><trkpt lat="43.29581864360623" lon="10.85552418597655"><ele>319.8333333333333</ele><time>2026-03-27T11:21:37.999Z</time></trkpt><trkpt lat="43.295773024517096" lon="10.855442333265927"><ele>319.0</ele><time>2026-03-27T11:21:38.999Z</time></trkpt><trkpt lat="43.29573822870862" lon="10.855356570025915"><ele>319.0</ele><time>2026-03-27T11:21:39.999Z</time></trkpt><trkpt lat="43.295715152559126" lon="10.855245996718859"><ele>319.0</ele><time>2026-03-27T11:21:40.999Z</time></trkpt><trkpt lat="43.29575580569193" lon="10.855115563021693"><ele>319.0</ele><time>2026-03-27T11:21:41.999Z</time></trkpt><trkpt lat="43.29579078985441" lon="10.855008039740696"><ele>319.0</ele><time>2026-03-27T11:21:42.999Z</time></trkpt><trkpt lat="43.295807593513366" lon="10.854868281011479"><ele>319.0</ele><time>2026-03-27T11:21:43.999Z</time></trkpt><trkpt lat="43.29579331328911" lon="10.854729533783354"><ele>317.0</ele><time>2026-03-27T11:21:44.999Z</time></trkpt><trkpt lat="43.29576707692379" lon="10.854569006661137"><ele>315.0</ele><time>2026-03-27T11:21:45.999Z</time></trkpt><trkpt lat="43.29574242881287" lon="10.854413694120892"><ele>313.0</ele><time>2026-03-27T11:21:46.999Z</time></trkpt><trkpt lat="43.29569793946343" lon="10.854267108825226"><ele>311.0</ele><time>2026-03-27T11:21:47.999Z</time></trkpt><trkpt lat="43.29565993266299" lon="10.854123151832875"><ele>309.0</ele><time>2026-03-27T11:21:48.999Z</time></trkpt><trkpt lat="43.29562396134696" lon="10.85396824408466"><ele>307.0</ele><time>2026-03-27T11:21:49.999Z</time></trkpt><trkpt lat="43.29557230463135" lon="10.853820219315786"><ele>305.0</ele><time>2026-03-27T11:21:50.999Z</time></trkpt><trkpt lat="43.295537059469744" lon="10.85366378571243"><ele>303.0</ele><time>2026-03-27T11:21:51.999Z</time></trkpt><trkpt lat="43.29549802675359" lon="10.853510418954196"><ele>300.25</ele><time>2026-03-27T11:21:52.999Z</time></trkpt><trkpt lat="43.29546193462878" lon="10.853353803248753"><ele>297.5</ele><time>2026-03-27T11:21:53.999Z</time></trkpt><trkpt lat="43.29542276039438" lon="10.853198034181304"><ele>294.75</ele><time>2026-03-27T11:21:54.999Z</time></trkpt><trkpt lat="43.295366776369804" lon="10.853049680201773"><ele>292.0</ele><time>2026-03-27T11:21:55.999Z</time></trkpt><trkpt lat="43.29528411094305" lon="10.852919703597076"><ele>292.0</ele><time>2026-03-27T11:21:56.999Z</time></trkpt><trkpt lat="43.29516631919887" lon="10.85282881658001"><ele>292.0</ele><time>2026-03-27T11:21:57.999Z</time></trkpt><trkpt lat="43.29505667266531" lon="10.852715272770856"><ele>292.0</ele><time>2026-03-27T11:21:58.999Z</time></trkpt><trkpt lat="43.294940670094746" lon="10.852615229397077"><ele>292.0</ele><time>2026-03-27T11:21:59.999Z</time></trkpt><trkpt lat="43.294809038103125" lon="10.852515529147103"><ele>285.0</ele><time>2026-03-27T11:22:00.999Z</time></trkpt><trkpt lat="43.29468622100306" lon="10.85237354817438"><ele>278.0</ele><time>2026-03-27T11:22:01.999Z</time></trkpt><trkpt lat="43.294564794615845" lon="10.852238040380218"><ele>271.0</ele><time>2026-03-27T11:22:02.999Z</time></trkpt><trkpt lat="43.29443765864914" lon="10.852114449382036"><ele>271.0</ele><time>2026-03-27T11:22:03.999Z</time></trkpt><trkpt lat="43.294305039868945" lon="10.852009308609489"><ele>271.0</ele><time>2026-03-27T11:22:04.999Z</time></trkpt><trkpt lat="43.29417072443958" lon="10.851915338382689"><ele>271.0</ele><time>2026-03-27T11:22:05.999Z</time></trkpt><trkpt lat="43.29404359022885" lon="10.851811131259595"><ele>270.5</ele><time>2026-03-27T11:22:06.999Z</time></trkpt><trkpt lat="43.293943869625664" lon="10.85165351029014"><ele>270.0</ele><time>2026-03-27T11:22:07.999Z</time></trkpt><trkpt lat="43.29384508663159" lon="10.851498054227944"><ele>269.5</ele><time>2026-03-27T11:22:09Z</time></trkpt><trkpt lat="43.29374485952569" lon="10.85135813593883"><ele>269.0</ele><time>2026-03-27T11:22:10Z</time></trkpt><trkpt lat="43.293663647504765" lon="10.85120111325007"><ele>264.6666666666667</ele><time>2026-03-27T11:22:11Z</time></trkpt><trkpt lat="43.293590503786255" lon="10.851030860464226"><ele>260.3333333333333</ele><time>2026-03-27T11:22:12Z</time></trkpt><trkpt lat="43.29354755764061" lon="10.850825788528843"><ele>256.0</ele><time>2026-03-27T11:22:13Z</time></trkpt><trkpt lat="43.293509154508236" lon="10.850620607083185"><ele>255.66666666666666</ele><time>2026-03-27T11:22:14Z</time></trkpt><trkpt lat="43.29349024877106" lon="10.850410070191202"><ele>255.33333333333331</ele><time>2026-03-27T11:22:15Z</time></trkpt><trkpt lat="43.293461464169994" lon="10.850198588771386"><ele>255.0</ele><time>2026-03-27T11:22:16Z</time></trkpt><trkpt lat="43.29344575833999" lon="10.849980511622228"><ele>253.66666666666669</ele><time>2026-03-27T11:22:17Z</time></trkpt><trkpt lat="43.29338245581934" lon="10.84975478998333"><ele>252.33333333333334</ele><time>2026-03-27T11:22:18Z</time></trkpt><trkpt lat="43.29329799427716" lon="10.84952490881823"><ele>251.0</ele><time>2026-03-27T11:22:19Z</time></trkpt><trkpt lat="43.29323355256246" lon="10.849274486315386"><ele>250.33333333333334</ele><time>2026-03-27T11:22:20Z</time></trkpt><trkpt lat="43.293164480150594" lon="10.849059368895611"><ele>249.66666666666669</ele><time>2026-03-27T11:22:21Z</time></trkpt><trkpt lat="43.29307525016269" lon="10.848889336675951"><ele>249.0</ele><time>2026-03-27T11:22:22Z</time></trkpt><trkpt lat="43.29297890598652" lon="10.84873047913047"><ele>248.66666666666669</ele><time>2026-03-27T11:22:23Z</time></trkpt><trkpt lat="43.2928578372054" lon="10.84860323539005"><ele>248.33333333333334</ele><time>2026-03-27T11:22:24Z</time></trkpt><trkpt lat="43.292730388925705" lon="10.848465440390573"><ele>248.0</ele><time>2026-03-27T11:22:25Z</time></trkpt><trkpt lat="43.29259472795138" lon="10.848315297729638"><ele>248.0</ele><time>2026-03-27T11:22:26Z</time></trkpt><trkpt lat="43.29245164346706" lon="10.848151165119974"><ele>248.0</ele><time>2026-03-27T11:22:27Z</time></trkpt><trkpt lat="43.292304738305205" lon="10.847950821781966"><ele>248.0</ele><time>2026-03-27T11:22:28Z</time></trkpt><trkpt lat="43.29213759604648" lon="10.847759622920098"><ele>250.33333333333334</ele><time>2026-03-27T11:22:29Z</time></trkpt><trkpt lat="43.29196865835043" lon="10.847586519040094"><ele>252.66666666666669</ele><time>2026-03-27T11:22:30Z</time></trkpt><trkpt lat="43.29183061515672" lon="10.847420872309002"><ele>255.0</ele><time>2026-03-27T11:22:31Z</time></trkpt><trkpt lat="43.29169121659062" lon="10.847256108601034"><ele>255.0</ele><time>2026-03-27T11:22:32Z</time></trkpt><trkpt lat="43.291540731835525" lon="10.847082803461534"><ele>255.0</ele><time>2026-03-27T11:22:33Z</time></trkpt><trkpt lat="43.29139361040725" lon="10.846915913685136"><ele>255.0</ele><time>2026-03-27T11:22:34Z</time></trkpt><trkpt lat="43.29125269081791" lon="10.84675965335144"><ele>258.0</ele><time>2026-03-27T11:22:35Z</time></trkpt><trkpt lat="43.29111460724088" lon="10.84660621143125"><ele>261.0</ele><time>2026-03-27T11:22:36Z</time></trkpt><trkpt lat="43.290983770226134" lon="10.846448638353074"><ele>264.0</ele><time>2026-03-27T11:22:37Z</time></trkpt><trkpt lat="43.29088467911824" lon="10.846282034393663"><ele>264.0</ele><time>2026-03-27T11:22:38Z</time></trkpt><trkpt lat="43.29080221329541" lon="10.846121876102822"><ele>264.0</ele><time>2026-03-27T11:22:39Z</time></trkpt><trkpt lat="43.29074443986922" lon="10.845926955029567"><ele>264.0</ele><time>2026-03-27T11:22:40Z</time></trkpt><trkpt lat="43.29069175995395" lon="10.845697153349672"><ele>266.3333333333333</ele><time>2026-03-27T11:22:41Z</time></trkpt><trkpt lat="43.290632131067895" lon="10.845448578095821"><ele>268.66666666666663</ele><time>2026-03-27T11:22:42Z</time></trkpt><trkpt lat="43.290575441701094" lon="10.845213602724577"><ele>271.0</ele><time>2026-03-27T11:22:43Z</time></trkpt><trkpt lat="43.29050658889715" lon="10.84499901818867"><ele>275.5</ele><time>2026-03-27T11:22:44Z</time></trkpt><trkpt lat="43.29045609306798" lon="10.844789563493862"><ele>280.0</ele><time>2026-03-27T11:22:45Z</time></trkpt><trkpt lat="43.29040896020662" lon="10.844609447254502"><ele>284.5</ele><time>2026-03-27T11:22:46Z</time></trkpt><trkpt lat="43.29037121092997" lon="10.844452733309145"><ele>289.0</ele><time>2026-03-27T11:22:47Z</time></trkpt><trkpt lat="43.29033438780633" lon="10.844326379587025"><ele>288.0</ele><time>2026-03-27T11:22:48Z</time></trkpt><trkpt lat="43.29031459088738" lon="10.844229449846777"><ele>287.0</ele><time>2026-03-27T11:22:49Z</time></trkpt><trkpt lat="43.29022776489427" lon="10.844178741669872"><ele>286.0</ele><time>2026-03-27T11:22:51Z</time></trkpt><trkpt lat="43.290113235124835" lon="10.844138940469321"><ele>285.0</ele><time>2026-03-27T11:23:06.999Z</time></trkpt><trkpt lat="43.29009381790532" lon="10.843919963339607"><ele>284.0</ele><time>2026-03-27T11:23:07.999Z</time></trkpt><trkpt lat="43.28994084601379" lon="10.843971499869284"><ele>284.0</ele><time>2026-03-27T11:23:08.999Z</time></trkpt><trkpt lat="43.28983734915899" lon="10.84399196342164"><ele>284.0</ele><time>2026-03-27T11:23:09.999Z</time></trkpt><trkpt lat="43.28983598577992" lon="10.843498561830787"><ele>282.75</ele><time>2026-03-27T11:23:10.999Z</time></trkpt><trkpt lat="43.28974398520637" lon="10.843366380324818"><ele>281.5</ele><time>2026-03-27T11:23:11.999Z</time></trkpt><trkpt lat="43.289656085637965" lon="10.84323253048577"><ele>280.25</ele><time>2026-03-27T11:23:12.999Z</time></trkpt><trkpt lat="43.28958691759155" lon="10.843086655998233"><ele>279.0</ele><time>2026-03-27T11:23:13.999Z</time></trkpt><trkpt lat="43.28955461972162" lon="10.842926609959326"><ele>279.0</ele><time>2026-03-27T11:23:14.999Z</time></trkpt><trkpt lat="43.28953929694836" lon="10.84273763270478"><ele>279.0</ele><time>2026-03-27T11:23:15.999Z</time></trkpt><trkpt lat="43.289521456595686" lon="10.842538204533026"><ele>279.0</ele><time>2026-03-27T11:23:16.999Z</time></trkpt><trkpt lat="43.28948286432394" lon="10.84236040599372"><ele>279.0</ele><time>2026-03-27T11:23:17.999Z</time></trkpt><trkpt lat="43.28943312114833" lon="10.842214959741423"><ele>277.8</ele><time>2026-03-27T11:23:18.999Z</time></trkpt><trkpt lat="43.289380924854264" lon="10.842092175065995"><ele>276.59999999999997</ele><time>2026-03-27T11:23:19.999Z</time></trkpt><trkpt lat="43.28933179968762" lon="10.84195821425098"><ele>275.4</ele><time>2026-03-27T11:23:20.999Z</time></trkpt><trkpt lat="43.28928860511312" lon="10.841853946738535"><ele>274.2</ele><time>2026-03-27T11:23:21.999Z</time></trkpt><trkpt lat="43.289248993965614" lon="10.84174756065119"><ele>273.0</ele><time>2026-03-27T11:23:22.999Z</time></trkpt><trkpt lat="43.28922106514207" lon="10.84165690611056"><ele>271.6</ele><time>2026-03-27T11:23:23.999Z</time></trkpt><trkpt lat="43.28920647002578" lon="10.841564777514032"><ele>270.20000000000005</ele><time>2026-03-27T11:23:24.999Z</time></trkpt><trkpt lat="43.28920782178237" lon="10.841428613650733"><ele>268.8</ele><time>2026-03-27T11:23:25.999Z</time></trkpt><trkpt lat="43.289232489525894" lon="10.841269380852752"><ele>267.40000000000003</ele><time>2026-03-27T11:23:26.999Z</time></trkpt><trkpt lat="43.28923701360544" lon="10.841110967339626"><ele>266.0</ele><time>2026-03-27T11:23:27.999Z</time></trkpt><trkpt lat="43.2892094522308" lon="10.840951382789957"><ele>265.25</ele><time>2026-03-27T11:23:28.999Z</time></trkpt><trkpt lat="43.289175270232775" lon="10.84079405415978"><ele>264.5</ele><time>2026-03-27T11:23:29.999Z</time></trkpt><trkpt lat="43.28914093767152" lon="10.840639275640159"><ele>263.75</ele><time>2026-03-27T11:23:30.999Z</time></trkpt><trkpt lat="43.28911366002272" lon="10.840484645630859"><ele>263.0</ele><time>2026-03-27T11:23:31.999Z</time></trkpt><trkpt lat="43.289103613224846" lon="10.840327223260951"><ele>263.0</ele><time>2026-03-27T11:23:32.999Z</time></trkpt><trkpt lat="43.289100028575255" lon="10.840180212714571"><ele>263.0</ele><time>2026-03-27T11:23:33.999Z</time></trkpt><trkpt lat="43.28909597024194" lon="10.840042295660327"><ele>263.0</ele><time>2026-03-27T11:23:34.999Z</time></trkpt><trkpt lat="43.28910096997511" lon="10.839931816011857"><ele>263.0</ele><time>2026-03-27T11:23:35.999Z</time></trkpt><trkpt lat="43.289132238821345" lon="10.839846139093472"><ele>263.0</ele><time>2026-03-27T11:23:36.999Z</time></trkpt><trkpt lat="43.289198375777666" lon="10.839737232066192"><ele>261.8</ele><time>2026-03-27T11:23:37.999Z</time></trkpt><trkpt lat="43.2892657421425" lon="10.83959129749384"><ele>260.6</ele><time>2026-03-27T11:23:38.999Z</time></trkpt><trkpt lat="43.28930768818168" lon="10.83946127129821"><ele>259.4</ele><time>2026-03-27T11:23:39.999Z</time></trkpt><trkpt lat="43.28931425018043" lon="10.839358432056182"><ele>258.2</ele><time>2026-03-27T11:23:40.999Z</time></trkpt><trkpt lat="43.289302789717475" lon="10.839230514390673"><ele>257.0</ele><time>2026-03-27T11:23:41.999Z</time></trkpt><trkpt lat="43.28928130927975" lon="10.83906056299651"><ele>255.25</ele><time>2026-03-27T11:23:42.999Z</time></trkpt><trkpt lat="43.28927027136679" lon="10.838898107688147"><ele>253.5</ele><time>2026-03-27T11:23:43.999Z</time></trkpt><trkpt lat="43.28926889368543" lon="10.838722397923654"><ele>251.75</ele><time>2026-03-27T11:23:44.999Z</time></trkpt><trkpt lat="43.28925997043692" lon="10.838546955154879"><ele>250.0</ele><time>2026-03-27T11:23:45.999Z</time></trkpt><trkpt lat="43.289243774566295" lon="10.83837139734596"><ele>249.75</ele><time>2026-03-27T11:23:46.999Z</time></trkpt><trkpt lat="43.28920826200258" lon="10.838191026398794"><ele>249.5</ele><time>2026-03-27T11:23:47.999Z</time></trkpt><trkpt lat="43.28916124545139" lon="10.837981972667315"><ele>249.25</ele><time>2026-03-27T11:23:48.999Z</time></trkpt><trkpt lat="43.289122485067615" lon="10.837788720003076"><ele>249.0</ele><time>2026-03-27T11:23:49.999Z</time></trkpt><trkpt lat="43.28909316464722" lon="10.837623384476041"><ele>249.0</ele><time>2026-03-27T11:23:50.999Z</time></trkpt><trkpt lat="43.28905991421052" lon="10.837474891105511"><ele>248.99999999999997</ele><time>2026-03-27T11:23:51.999Z</time></trkpt><trkpt lat="43.28901358393167" lon="10.837347792075692"><ele>248.99999999999997</ele><time>2026-03-27T11:23:52.999Z</time></trkpt><trkpt lat="43.288952399437996" lon="10.837253031283625"><ele>249.0</ele><time>2026-03-27T11:23:53.999Z</time></trkpt><trkpt lat="43.28890191774873" lon="10.837194595970667"><ele>249.0</ele><time>2026-03-27T11:23:54.999Z</time></trkpt><trkpt lat="43.28883192246833" lon="10.837014751085738"><ele>246.79999999999998</ele><time>2026-03-27T11:23:56.999Z</time></trkpt><trkpt lat="43.28880563633504" lon="10.836864149647383"><ele>244.59999999999997</ele><time>2026-03-27T11:23:57.999Z</time></trkpt><trkpt lat="43.28878856440078" lon="10.836744212708597"><ele>242.4</ele><time>2026-03-27T11:23:58.999Z</time></trkpt><trkpt lat="43.28877443697483" lon="10.836623203508035"><ele>240.2</ele><time>2026-03-27T11:23:59.999Z</time></trkpt><trkpt lat="43.28876687287049" lon="10.836488884027967"><ele>238.0</ele><time>2026-03-27T11:24:00.999Z</time></trkpt><trkpt lat="43.288785910953514" lon="10.836374358553083"><ele>237.99999999999997</ele><time>2026-03-27T11:24:01.999Z</time></trkpt><trkpt lat="43.28882403727096" lon="10.836280969654979"><ele>238.0</ele><time>2026-03-27T11:24:02.999Z</time></trkpt><trkpt lat="43.288877936805335" lon="10.836197038923935"><ele>238.0</ele><time>2026-03-27T11:24:03.999Z</time></trkpt><trkpt lat="43.28894971058696" lon="10.836139258415152"><ele>238.0</ele><time>2026-03-27T11:24:04.999Z</time></trkpt><trkpt lat="43.28900571052782" lon="10.836091824367434"><ele>237.99999999999997</ele><time>2026-03-27T11:24:05.999Z</time></trkpt><trkpt lat="43.289059962443886" lon="10.836034301540659"><ele>238.0</ele><time>2026-03-27T11:24:06.999Z</time></trkpt><trkpt lat="43.289121747370764" lon="10.835969922084772"><ele>238.83333333333331</ele><time>2026-03-27T11:24:07.999Z</time></trkpt><trkpt lat="43.289191060375636" lon="10.83590349129939"><ele>239.66666666666666</ele><time>2026-03-27T11:24:08.999Z</time></trkpt><trkpt lat="43.2892529963766" lon="10.835840073415726"><ele>240.5</ele><time>2026-03-27T11:24:09.999Z</time></trkpt><trkpt lat="43.28932239210155" lon="10.835774969100244"><ele>241.33333333333331</ele><time>2026-03-27T11:24:10.999Z</time></trkpt><trkpt lat="43.28938418413488" lon="10.835706443375322"><ele>242.16666666666666</ele><time>2026-03-27T11:24:11.999Z</time></trkpt><trkpt lat="43.2894357945144" lon="10.835563898664248"><ele>243.0</ele><time>2026-03-27T11:24:13.999Z</time></trkpt><trkpt lat="43.289446520684926" lon="10.83545521327975"><ele>243.0</ele><time>2026-03-27T11:24:15Z</time></trkpt><trkpt lat="43.289472900135095" lon="10.835370733775147"><ele>243.0</ele><time>2026-03-27T11:24:16Z</time></trkpt><trkpt lat="43.28953409570871" lon="10.835289887859197"><ele>243.0</ele><time>2026-03-27T11:24:17Z</time></trkpt><trkpt lat="43.2895953176109" lon="10.835204047792256"><ele>243.0</ele><time>2026-03-27T11:24:18Z</time></trkpt><trkpt lat="43.28964210554165" lon="10.835143908830386"><ele>243.0</ele><time>2026-03-27T11:24:19Z</time></trkpt><trkpt lat="43.28972369108323" lon="10.835026775109133"><ele>243.0</ele><time>2026-03-27T11:24:21Z</time></trkpt><trkpt lat="43.2897467522846" lon="10.834924254649911"><ele>240.4</ele><time>2026-03-27T11:24:22Z</time></trkpt><trkpt lat="43.289762456267596" lon="10.83482652813472"><ele>237.8</ele><time>2026-03-27T11:24:23Z</time></trkpt><trkpt lat="43.289767003368915" lon="10.83467334603477"><ele>235.2</ele><time>2026-03-27T11:24:25Z</time></trkpt><trkpt lat="43.289777967345636" lon="10.834505693668202"><ele>232.6</ele><time>2026-03-27T11:24:27Z</time></trkpt><trkpt lat="43.28977942719332" lon="10.834371240405611"><ele>230.0</ele><time>2026-03-27T11:24:29Z</time></trkpt><trkpt lat="43.28980165482467" lon="10.834223293390773"><ele>229.00000000000003</ele><time>2026-03-27T11:24:31Z</time></trkpt><trkpt lat="43.28981110361008" lon="10.834125793201862"><ele>228.0</ele><time>2026-03-27T11:24:32Z</time></trkpt><trkpt lat="43.28979644735483" lon="10.834032537439674"><ele>227.0</ele><time>2026-03-27T11:24:33Z</time></trkpt><trkpt lat="43.28977223142853" lon="10.833920066773874"><ele>226.0</ele><time>2026-03-27T11:24:34Z</time></trkpt><trkpt lat="43.28974564724952" lon="10.8337926079053"><ele>225.00000000000003</ele><time>2026-03-27T11:24:35Z</time></trkpt><trkpt lat="43.28971997543577" lon="10.83367140814923"><ele>224.0</ele><time>2026-03-27T11:24:36Z</time></trkpt><trkpt lat="43.28969879479739" lon="10.833539604607726"><ele>220.83333333333334</ele><time>2026-03-27T11:24:37Z</time></trkpt><trkpt lat="43.28968175387179" lon="10.833414819461456"><ele>217.66666666666669</ele><time>2026-03-27T11:24:38Z</time></trkpt><trkpt lat="43.289664236812676" lon="10.83329825666979"><ele>214.5</ele><time>2026-03-27T11:24:39Z</time></trkpt><trkpt lat="43.28966867126406" lon="10.833186933985585"><ele>211.33333333333331</ele><time>2026-03-27T11:24:40Z</time></trkpt><trkpt lat="43.28969469168163" lon="10.833064713383845"><ele>208.16666666666666</ele><time>2026-03-27T11:24:41Z</time></trkpt><trkpt lat="43.289724762353664" lon="10.832941885527761"><ele>205.0</ele><time>2026-03-27T11:24:42Z</time></trkpt><trkpt lat="43.2897546659029" lon="10.83281067582388"><ele>205.49999999999997</ele><time>2026-03-27T11:24:43Z</time></trkpt><trkpt lat="43.28977997159207" lon="10.832676046114301"><ele>206.0</ele><time>2026-03-27T11:24:44Z</time></trkpt><trkpt lat="43.289799892585734" lon="10.832547318090375"><ele>206.5</ele><time>2026-03-27T11:24:45Z</time></trkpt><trkpt lat="43.28981328799745" lon="10.832453044026732"><ele>207.0</ele><time>2026-03-27T11:24:46Z</time></trkpt><trkpt lat="43.28979988225436" lon="10.832331078424739"><ele>207.49999999999997</ele><time>2026-03-27T11:24:48Z</time></trkpt><trkpt lat="43.28973657471007" lon="10.832290874409088"><ele>208.0</ele><time>2026-03-27T11:24:54Z</time></trkpt><trkpt lat="43.289662849144264" lon="10.83229481856164"><ele>207.49999999999997</ele><time>2026-03-27T11:24:57Z</time></trkpt><trkpt lat="43.28955869160625" lon="10.83226078452067"><ele>207.0</ele><time>2026-03-27T11:24:58Z</time></trkpt><trkpt lat="43.289500135453046" lon="10.832355629135916"><ele>206.5</ele><time>2026-03-27T11:25:00Z</time></trkpt><trkpt lat="43.289462799710094" lon="10.83245836486681"><ele>206.0</ele><time>2026-03-27T11:25:02Z</time></trkpt><trkpt lat="43.28942562036015" lon="10.832529150578786"><ele>205.49999999999997</ele><time>2026-03-27T11:25:03Z</time></trkpt><trkpt lat="43.28937845388993" lon="10.83261014772346"><ele>205.0</ele><time>2026-03-27T11:25:04Z</time></trkpt><trkpt lat="43.28927940511659" lon="10.832649584827035"><ele>203.33333333333331</ele><time>2026-03-27T11:25:06Z</time></trkpt><trkpt lat="43.28920469512901" lon="10.832545806879201"><ele>201.66666666666666</ele><time>2026-03-27T11:25:06.999Z</time></trkpt><trkpt lat="43.28918353278661" lon="10.832439928890073"><ele>200.0</ele><time>2026-03-27T11:25:07.999Z</time></trkpt><trkpt lat="43.28917477053819" lon="10.83234463293488"><ele>198.33333333333331</ele><time>2026-03-27T11:25:08.999Z</time></trkpt><trkpt lat="43.289198102531344" lon="10.832247295094414"><ele>196.66666666666666</ele><time>2026-03-27T11:25:09.999Z</time></trkpt><trkpt lat="43.289240685339266" lon="10.832125228264841"><ele>195.0</ele><time>2026-03-27T11:25:10.999Z</time></trkpt><trkpt lat="43.28928443659578" lon="10.832023395760913"><ele>195.0</ele><time>2026-03-27T11:25:11.999Z</time></trkpt><trkpt lat="43.289297069059494" lon="10.831925883794696"><ele>195.0</ele><time>2026-03-27T11:25:13.999Z</time></trkpt><trkpt lat="43.28921399390406" lon="10.831872795101233"><ele>195.0</ele><time>2026-03-27T11:25:15.999Z</time></trkpt><trkpt lat="43.289122346693915" lon="10.831921556790133"><ele>195.0</ele><time>2026-03-27T11:25:16.999Z</time></trkpt><trkpt lat="43.28906448906943" lon="10.831873899376594"><ele>195.0</ele><time>2026-03-27T11:25:17.999Z</time></trkpt><trkpt lat="43.28901291346271" lon="10.831804129626887"><ele>195.0</ele><time>2026-03-27T11:25:18.999Z</time></trkpt><trkpt lat="43.28890091797713" lon="10.831741568627729"><ele>190.83333333333334</ele><time>2026-03-27T11:25:19.999Z</time></trkpt><trkpt lat="43.28882777220736" lon="10.831688567840526"><ele>186.66666666666666</ele><time>2026-03-27T11:25:20.999Z</time></trkpt><trkpt lat="43.288760776759794" lon="10.831637753101713"><ele>182.5</ele><time>2026-03-27T11:25:21.999Z</time></trkpt><trkpt lat="43.28868241916202" lon="10.83156859593116"><ele>178.33333333333331</ele><time>2026-03-27T11:25:23.999Z</time></trkpt><trkpt lat="43.28859135918076" lon="10.831515769017717"><ele>174.16666666666666</ele><time>2026-03-27T11:25:25.999Z</time></trkpt><trkpt lat="43.28852113339914" lon="10.831431882158387"><ele>170.0</ele><time>2026-03-27T11:25:27.999Z</time></trkpt><trkpt lat="43.28849220802756" lon="10.831310073794402"><ele>170.0</ele><time>2026-03-27T11:25:28.999Z</time></trkpt><trkpt lat="43.28846788252874" lon="10.831192332098981"><ele>170.0</ele><time>2026-03-27T11:25:29.999Z</time></trkpt><trkpt lat="43.288451962253994" lon="10.831029679861436"><ele>170.0</ele><time>2026-03-27T11:25:31.999Z</time></trkpt><trkpt lat="43.28848072072744" lon="10.830871609341562"><ele>170.0</ele><time>2026-03-27T11:25:33.999Z</time></trkpt><trkpt lat="43.28847733611479" lon="10.83077836278513"><ele>170.0</ele><time>2026-03-27T11:25:34.999Z</time></trkpt><trkpt lat="43.28847671378616" lon="10.83067744802254"><ele>169.0</ele><time>2026-03-27T11:25:35.999Z</time></trkpt><trkpt lat="43.28848839036698" lon="10.830546700630892"><ele>168.0</ele><time>2026-03-27T11:25:37.999Z</time></trkpt><trkpt lat="43.288556455267454" lon="10.830464317549593"><ele>167.0</ele><time>2026-03-27T11:25:39.999Z</time></trkpt><trkpt lat="43.28862600772874" lon="10.83030860110036"><ele>166.0</ele><time>2026-03-27T11:25:41.999Z</time></trkpt><trkpt lat="43.28862191870628" lon="10.830206642550332"><ele>165.0</ele><time>2026-03-27T11:25:43.999Z</time></trkpt><trkpt lat="43.288610429279096" lon="10.830042700487867"><ele>163.2</ele><time>2026-03-27T11:25:45.999Z</time></trkpt><trkpt lat="43.288500509972934" lon="10.829928249902833"><ele>161.4</ele><time>2026-03-27T11:25:47.999Z</time></trkpt><trkpt lat="43.288431541920005" lon="10.829839605407873"><ele>159.6</ele><time>2026-03-27T11:25:49.999Z</time></trkpt><trkpt lat="43.28841858689241" lon="10.829754472548967"><ele>157.8</ele><time>2026-03-27T11:25:50.999Z</time></trkpt><trkpt lat="43.28842473914814" lon="10.829664715740925"><ele>156.0</ele><time>2026-03-27T11:25:51.999Z</time></trkpt><trkpt lat="43.288443752495176" lon="10.829536705375592"><ele>156.0</ele><time>2026-03-27T11:25:53.999Z</time></trkpt><trkpt lat="43.28836587939723" lon="10.829510072259083"><ele>156.0</ele><time>2026-03-27T11:25:54.999Z</time></trkpt><trkpt lat="43.288292126961046" lon="10.829540911646658"><ele>156.0</ele><time>2026-03-27T11:25:56.999Z</time></trkpt><trkpt lat="43.28821241526175" lon="10.829559766223285"><ele>156.0</ele><time>2026-03-27T11:25:58.999Z</time></trkpt><trkpt lat="43.28812053333529" lon="10.82952393347388"><ele>156.0</ele><time>2026-03-27T11:26:00.999Z</time></trkpt><trkpt lat="43.28806149617226" lon="10.829492184908133"><ele>156.0</ele><time>2026-03-27T11:26:03.999Z</time></trkpt><trkpt lat="43.28798970195747" lon="10.829519542929887"><ele>153.2857142857143</ele><time>2026-03-27T11:26:12.999Z</time></trkpt><trkpt lat="43.28791062411815" lon="10.829538227837661"><ele>150.57142857142856</ele><time>2026-03-27T11:26:16.999Z</time></trkpt><trkpt lat="43.28784682605359" lon="10.829532895623865"><ele>147.85714285714286</ele><time>2026-03-27T11:26:18.999Z</time></trkpt><trkpt lat="43.28777056906395" lon="10.829507800277536"><ele>145.14285714285717</ele><time>2026-03-27T11:26:23Z</time></trkpt><trkpt lat="43.287712876099576" lon="10.829436639738832"><ele>142.42857142857144</ele><time>2026-03-27T11:26:27Z</time></trkpt><trkpt lat="43.2876840886006" lon="10.829347175151968"><ele>139.71428571428572</ele><time>2026-03-27T11:26:30Z</time></trkpt><trkpt lat="43.28765954528667" lon="10.82925878603385"><ele>137.0</ele><time>2026-03-27T11:26:33Z</time></trkpt><trkpt lat="43.28760819994085" lon="10.82919240956258"><ele>136.16666666666666</ele><time>2026-03-27T11:26:37Z</time></trkpt><trkpt lat="43.287553184431" lon="10.829117616201067"><ele>135.33333333333331</ele><time>2026-03-27T11:26:40Z</time></trkpt><trkpt lat="43.287492003395485" lon="10.829032378101873"><ele>134.5</ele><time>2026-03-27T11:26:41Z</time></trkpt><trkpt lat="43.28744666474037" lon="10.82895912843268"><ele>133.66666666666666</ele><time>2026-03-27T11:26:42Z</time></trkpt><trkpt lat="43.287400615871746" lon="10.828873127946196"><ele>132.83333333333334</ele><time>2026-03-27T11:26:46Z</time></trkpt><trkpt lat="43.28737620433334" lon="10.82877150822231"><ele>132.0</ele><time>2026-03-27T11:27:06Z</time></trkpt><trkpt lat="43.28738645581453" lon="10.828594714513079"><ele>130.6</ele><time>2026-03-27T11:27:10Z</time></trkpt><trkpt lat="43.28741994695299" lon="10.828429871212622"><ele>129.2</ele><time>2026-03-27T11:27:11Z</time></trkpt><trkpt lat="43.287446417688095" lon="10.82827621179452"><ele>127.8</ele><time>2026-03-27T11:27:12Z</time></trkpt><trkpt lat="43.28745042632732" lon="10.828133345775484"><ele>126.4</ele><time>2026-03-27T11:27:13Z</time></trkpt><trkpt lat="43.28742510424812" lon="10.828001272414202"><ele>125.0</ele><time>2026-03-27T11:27:14Z</time></trkpt><trkpt lat="43.287415583282694" lon="10.827888258407526"><ele>125.0</ele><time>2026-03-27T11:27:14.999Z</time></trkpt><trkpt lat="43.2874115413845" lon="10.827758454407778"><ele>125.0</ele><time>2026-03-27T11:27:15.999Z</time></trkpt><trkpt lat="43.28740314577471" lon="10.82764955781629"><ele>125.0</ele><time>2026-03-27T11:27:16.999Z</time></trkpt><trkpt lat="43.28727323142011" lon="10.827555354995408"><ele>125.0</ele><time>2026-03-27T11:27:24.999Z</time></trkpt><trkpt lat="43.28721543306692" lon="10.827507104968335"><ele>125.0</ele><time>2026-03-27T11:27:27.999Z</time></trkpt><trkpt lat="43.287175770405106" lon="10.827394874842831"><ele>125.42857142857142</ele><time>2026-03-27T11:29:52.999Z</time></trkpt><trkpt lat="43.287191771763055" lon="10.827304091248577"><ele>125.85714285714286</ele><time>2026-03-27T11:30:22.999Z</time></trkpt><trkpt lat="43.287145293001835" lon="10.827386111121271"><ele>126.28571428571428</ele><time>2026-03-27T11:31:14Z</time></trkpt><trkpt lat="43.28707428098248" lon="10.827450401258806"><ele>126.71428571428571</ele><time>2026-03-27T11:31:17Z</time></trkpt><trkpt lat="43.28702028560058" lon="10.827499677026555"><ele>127.14285714285714</ele><time>2026-03-27T11:31:25Z</time></trkpt><trkpt lat="43.286946678502524" lon="10.827498215153081"><ele>127.57142857142857</ele><time>2026-03-27T11:33:16Z</time></trkpt><trkpt lat="43.286992881235115" lon="10.827417834266722"><ele>128.0</ele><time>2026-03-27T11:34:11.999Z</time></trkpt><trkpt lat="43.287001895009475" lon="10.827318865981296"><ele>128.0</ele><time>2026-03-27T11:34:15.999Z</time></trkpt><trkpt lat="43.28696032947282" lon="10.827222015983558"><ele>127.99999999999999</ele><time>2026-03-27T11:34:19.999Z</time></trkpt><trkpt lat="43.286912646735516" lon="10.827136111319957"><ele>128.0</ele><time>2026-03-27T11:34:27.999Z</time></trkpt><trkpt lat="43.286873104437085" lon="10.82706522774562"><ele>128.0</ele><time>2026-03-27T11:34:29.999Z</time></trkpt><trkpt lat="43.28678519117988" lon="10.827046571463"><ele>127.99999999999999</ele><time>2026-03-27T11:34:32.999Z</time></trkpt><trkpt lat="43.286719896584785" lon="10.827050704401708"><ele>128.0</ele><time>2026-03-27T11:34:39.999Z</time></trkpt><trkpt lat="43.28665299252302" lon="10.827059970455613"><ele>128.0</ele><time>2026-03-27T11:34:42.999Z</time></trkpt><trkpt lat="43.28658349194817" lon="10.827089548642645"><ele>127.99999999999999</ele><time>2026-03-27T11:34:48Z</time></trkpt><trkpt lat="43.28652013396112" lon="10.82710481247681"><ele>128.0</ele><time>2026-03-27T11:34:51Z</time></trkpt><trkpt lat="43.286447029924624" lon="10.827092432723855"><ele>128.0</ele><time>2026-03-27T11:34:55Z</time></trkpt><trkpt lat="43.28638037226977" lon="10.827056005164074"><ele>128.0</ele><time>2026-03-27T11:34:59Z</time></trkpt><trkpt lat="43.28630646684089" lon="10.82702866138292"><ele>127.99999999999999</ele><time>2026-03-27T11:35:03Z</time></trkpt><trkpt lat="43.286197588349836" lon="10.827004662338718"><ele>128.0</ele><time>2026-03-27T11:35:06Z</time></trkpt><trkpt lat="43.2861129510604" lon="10.826994182899117"><ele>128.66666666666666</ele><time>2026-03-27T11:35:07Z</time></trkpt><trkpt lat="43.28601481246588" lon="10.827027056435988"><ele>129.33333333333331</ele><time>2026-03-27T11:35:09Z</time></trkpt><trkpt lat="43.2859339679497" lon="10.82702664414783"><ele>130.0</ele><time>2026-03-27T11:35:11Z</time></trkpt><trkpt lat="43.28585578263038" lon="10.827029444967556"><ele>130.66666666666666</ele><time>2026-03-27T11:35:13Z</time></trkpt><trkpt lat="43.28578977011658" lon="10.827034927652836"><ele>131.33333333333334</ele><time>2026-03-27T11:35:15Z</time></trkpt><trkpt lat="43.28570967175225" lon="10.827054824640369"><ele>132.0</ele><time>2026-03-27T11:35:20Z</time></trkpt><trkpt lat="43.28564032562323" lon="10.827051328526254"><ele>132.33333333333334</ele><time>2026-03-27T11:35:22Z</time></trkpt><trkpt lat="43.28555556736569" lon="10.826972041677754"><ele>132.66666666666666</ele><time>2026-03-27T11:35:25Z</time></trkpt><trkpt lat="43.28546669243375" lon="10.826909640098762"><ele>133.0</ele><time>2026-03-27T11:35:27Z</time></trkpt><trkpt lat="43.2853952437431" lon="10.826880685775157"><ele>133.33333333333331</ele><time>2026-03-27T11:35:30Z</time></trkpt><trkpt lat="43.28533055585859" lon="10.82678200843326"><ele>133.66666666666666</ele><time>2026-03-27T11:35:33Z</time></trkpt><trkpt lat="43.28530239089653" lon="10.826686222366817"><ele>134.0</ele><time>2026-03-27T11:35:35Z</time></trkpt><trkpt lat="43.28526574553002" lon="10.826597880433926"><ele>134.0</ele><time>2026-03-27T11:35:38Z</time></trkpt><trkpt lat="43.285250880725044" lon="10.826493826338409"><ele>134.0</ele><time>2026-03-27T11:35:42Z</time></trkpt><trkpt lat="43.28523008518157" lon="10.826406895039772"><ele>134.0</ele><time>2026-03-27T11:35:45Z</time></trkpt><trkpt lat="43.2851934325618" lon="10.826309969327914"><ele>134.0</ele><time>2026-03-27T11:35:48Z</time></trkpt><trkpt lat="43.28518705362914" lon="10.826209792059304"><ele>134.0</ele><time>2026-03-27T11:35:51Z</time></trkpt><trkpt lat="43.28518525609442" lon="10.826103236449287"><ele>134.0</ele><time>2026-03-27T11:35:54.999Z</time></trkpt><trkpt lat="43.285168933642254" lon="10.826011700547163"><ele>134.0</ele><time>2026-03-27T11:35:57.999Z</time></trkpt><trkpt lat="43.285160453564586" lon="10.825923187422987"><ele>133.66666666666666</ele><time>2026-03-27T11:36:00.999Z</time></trkpt><trkpt lat="43.2851394704805" lon="10.825816988038758"><ele>133.33333333333331</ele><time>2026-03-27T11:36:02.999Z</time></trkpt><trkpt lat="43.28514668207364" lon="10.825716125648862"><ele>133.0</ele><time>2026-03-27T11:36:05.999Z</time></trkpt><trkpt lat="43.285186825628955" lon="10.825619342331827"><ele>132.66666666666666</ele><time>2026-03-27T11:36:08.999Z</time></trkpt><trkpt lat="43.285202160224806" lon="10.825511117840865"><ele>132.33333333333334</ele><time>2026-03-27T11:36:10.999Z</time></trkpt><trkpt lat="43.28517119587563" lon="10.825401529947943"><ele>132.0</ele><time>2026-03-27T11:36:12.999Z</time></trkpt><trkpt lat="43.28514204488493" lon="10.825298605488545"><ele>132.0</ele><time>2026-03-27T11:36:15.999Z</time></trkpt><trkpt lat="43.28510064291815" lon="10.825230282637502"><ele>132.0</ele><time>2026-03-27T11:36:17.999Z</time></trkpt><trkpt lat="43.2850545752125" lon="10.825171194207371"><ele>132.0</ele><time>2026-03-27T11:36:20.999Z</time></trkpt><trkpt lat="43.284990512758654" lon="10.82508754877251"><ele>132.0</ele><time>2026-03-27T11:36:36.999Z</time></trkpt><trkpt lat="43.28487340605613" lon="10.824945891619134"><ele>132.0</ele><time>2026-03-27T11:36:38.999Z</time></trkpt><trkpt lat="43.28482054722447" lon="10.824873322243768"><ele>132.0</ele><time>2026-03-27T11:36:39.999Z</time></trkpt><trkpt lat="43.28474214818831" lon="10.824756434214343"><ele>135.0</ele><time>2026-03-27T11:36:41.999Z</time></trkpt><trkpt lat="43.284688086644664" lon="10.824707032066824"><ele>138.0</ele><time>2026-03-27T11:36:42.999Z</time></trkpt><trkpt lat="43.28462647788605" lon="10.824636381557152"><ele>141.0</ele><time>2026-03-27T11:36:44.999Z</time></trkpt><trkpt lat="43.28455350859505" lon="10.824592643000093"><ele>144.0</ele><time>2026-03-27T11:36:52Z</time></trkpt><trkpt lat="43.28449613366157" lon="10.824507754396778"><ele>147.0</ele><time>2026-03-27T11:36:54Z</time></trkpt><trkpt lat="43.28441260607949" lon="10.824406910940734"><ele>150.0</ele><time>2026-03-27T11:36:56Z</time></trkpt><trkpt lat="43.28438462877895" lon="10.824328970687677"><ele>147.66666666666666</ele><time>2026-03-27T11:36:59Z</time></trkpt><trkpt lat="43.28432893115575" lon="10.824258668966884"><ele>145.33333333333334</ele><time>2026-03-27T11:37:09Z</time></trkpt><trkpt lat="43.284293633652766" lon="10.824165422885425"><ele>143.0</ele><time>2026-03-27T11:37:11Z</time></trkpt><trkpt lat="43.284248589805934" lon="10.824046683212288"><ele>140.66666666666669</ele><time>2026-03-27T11:37:13Z</time></trkpt><trkpt lat="43.28418295958437" lon="10.823998279384304"><ele>138.33333333333334</ele><time>2026-03-27T11:37:14Z</time></trkpt><trkpt lat="43.28411361215512" lon="10.823970305335498"><ele>136.0</ele><time>2026-03-27T11:37:15Z</time></trkpt><trkpt lat="43.28405188101133" lon="10.823890186992857"><ele>136.0</ele><time>2026-03-27T11:37:17Z</time></trkpt><trkpt lat="43.283981257089785" lon="10.82383422872572"><ele>136.0</ele><time>2026-03-27T11:37:18Z</time></trkpt><trkpt lat="43.28390833072255" lon="10.82376658973198"><ele>136.0</ele><time>2026-03-27T11:37:19Z</time></trkpt><trkpt lat="43.28384531642156" lon="10.823719915428725"><ele>136.0</ele><time>2026-03-27T11:37:20Z</time></trkpt><trkpt lat="43.283777287205716" lon="10.823674611655463"><ele>136.0</ele><time>2026-03-27T11:37:22Z</time></trkpt><trkpt lat="43.28370366007518" lon="10.823734899264812"><ele>136.0</ele><time>2026-03-27T11:37:26Z</time></trkpt><trkpt lat="43.283611834972724" lon="10.82371334995826"><ele>137.5</ele><time>2026-03-27T11:37:29Z</time></trkpt><trkpt lat="43.283527206260786" lon="10.823658580491982"><ele>139.0</ele><time>2026-03-27T11:37:31Z</time></trkpt><trkpt lat="43.283461373172216" lon="10.823632257611491"><ele>140.5</ele><time>2026-03-27T11:37:32Z</time></trkpt><trkpt lat="43.2833447065434" lon="10.823662293809502"><ele>142.0</ele><time>2026-03-27T11:37:34Z</time></trkpt><trkpt lat="43.28327835532341" lon="10.823686386446173"><ele>143.5</ele><time>2026-03-27T11:37:35Z</time></trkpt><trkpt lat="43.28320814003806" lon="10.823703720142348"><ele>145.0</ele><time>2026-03-27T11:37:36Z</time></trkpt><trkpt lat="43.28312486029527" lon="10.82371351389548"><ele>145.0</ele><time>2026-03-27T11:37:38Z</time></trkpt><trkpt lat="43.28307595418045" lon="10.823634631798695"><ele>145.0</ele><time>2026-03-27T11:37:41Z</time></trkpt><trkpt lat="43.28300860479023" lon="10.823626803990248"><ele>145.0</ele><time>2026-03-27T11:37:43Z</time></trkpt><trkpt lat="43.28290381753829" lon="10.82365553483797"><ele>145.0</ele><time>2026-03-27T11:37:45Z</time></trkpt><trkpt lat="43.282796563624196" lon="10.823638771641528"><ele>145.0</ele><time>2026-03-27T11:37:46.999Z</time></trkpt><trkpt lat="43.2826986402525" lon="10.823672798165058"><ele>145.0</ele><time>2026-03-27T11:37:48.999Z</time></trkpt><trkpt lat="43.28264125343579" lon="10.823734377950839"><ele>145.0</ele><time>2026-03-27T11:37:49.999Z</time></trkpt><trkpt lat="43.28257973858113" lon="10.823775959637986"><ele>145.0</ele><time>2026-03-27T11:37:50.999Z</time></trkpt><trkpt lat="43.282464751236475" lon="10.82383114613831"><ele>145.0</ele><time>2026-03-27T11:37:52.999Z</time></trkpt><trkpt lat="43.282358140214804" lon="10.823893486900094"><ele>145.0</ele><time>2026-03-27T11:37:54.999Z</time></trkpt><trkpt lat="43.28224505821536" lon="10.823899727393277"><ele>144.6</ele><time>2026-03-27T11:37:56.999Z</time></trkpt><trkpt lat="43.28214149862859" lon="10.823957017866286"><ele>144.2</ele><time>2026-03-27T11:37:58.999Z</time></trkpt><trkpt lat="43.282045788515866" lon="10.823956485932891"><ele>143.8</ele><time>2026-03-27T11:38:00.999Z</time></trkpt><trkpt lat="43.28196970821703" lon="10.823889863630532"><ele>143.4</ele><time>2026-03-27T11:38:02.999Z</time></trkpt><trkpt lat="43.281914997490155" lon="10.823827321132148"><ele>143.0</ele><time>2026-03-27T11:38:09.999Z</time></trkpt><trkpt lat="43.28192736170768" lon="10.82371125971366"><ele>143.0</ele><time>2026-03-27T11:38:13.999Z</time></trkpt><trkpt lat="43.28199949579481" lon="10.823655645829298"><ele>143.0</ele><time>2026-03-27T11:38:15.999Z</time></trkpt><trkpt lat="43.28204717543184" lon="10.823574176238346"><ele>143.0</ele><time>2026-03-27T11:38:18.999Z</time></trkpt><trkpt lat="43.28212689103007" lon="10.823521901515146"><ele>143.0</ele><time>2026-03-27T11:38:20.999Z</time></trkpt><trkpt lat="43.28212479155513" lon="10.82342873331491"><ele>143.0</ele><time>2026-03-27T11:38:24.999Z</time></trkpt><trkpt lat="43.28217384588938" lon="10.823369268612362"><ele>143.0</ele><time>2026-03-27T11:38:28.999Z</time></trkpt><trkpt lat="43.28220599044812" lon="10.82326651698354"><ele>142.5</ele><time>2026-03-27T11:38:51.999Z</time></trkpt><trkpt lat="43.282266286596254" lon="10.823230474399478"><ele>142.0</ele><time>2026-03-27T11:38:54.999Z</time></trkpt><trkpt lat="43.282205838776164" lon="10.823139100531517"><ele>141.5</ele><time>2026-03-27T11:39:17Z</time></trkpt><trkpt lat="43.28212742517392" lon="10.823132074348562"><ele>141.0</ele><time>2026-03-27T11:39:22Z</time></trkpt><trkpt lat="43.28205461820845" lon="10.82317647093613"><ele>140.5</ele><time>2026-03-27T11:40:37.999Z</time></trkpt><trkpt lat="43.28196059001642" lon="10.823233562308472"><ele>140.0</ele><time>2026-03-27T11:40:38.999Z</time></trkpt><trkpt lat="43.28190390129245" lon="10.82327444371775"><ele>140.6</ele><time>2026-03-27T11:40:39.999Z</time></trkpt><trkpt lat="43.28182894451228" lon="10.823328108128074"><ele>141.2</ele><time>2026-03-27T11:40:41.999Z</time></trkpt><trkpt lat="43.281750181913765" lon="10.823414227861756"><ele>141.8</ele><time>2026-03-27T11:40:44.999Z</time></trkpt><trkpt lat="43.28165360706949" lon="10.823488970711212"><ele>142.4</ele><time>2026-03-27T11:40:46.999Z</time></trkpt><trkpt lat="43.281531931883805" lon="10.82357066475035"><ele>143.0</ele><time>2026-03-27T11:40:48.999Z</time></trkpt><trkpt lat="43.28144040696564" lon="10.82361986431024"><ele>142.83333333333331</ele><time>2026-03-27T11:40:50.999Z</time></trkpt><trkpt lat="43.281384431870876" lon="10.823695831242382"><ele>142.66666666666666</ele><time>2026-03-27T11:40:53.999Z</time></trkpt><trkpt lat="43.28129886608358" lon="10.823753108051102"><ele>142.5</ele><time>2026-03-27T11:40:55.999Z</time></trkpt><trkpt lat="43.28118661994364" lon="10.82369822736254"><ele>142.33333333333334</ele><time>2026-03-27T11:40:57.999Z</time></trkpt><trkpt lat="43.2811207624687" lon="10.823688259516112"><ele>142.16666666666669</ele><time>2026-03-27T11:41:00.999Z</time></trkpt><trkpt lat="43.28112419787688" lon="10.823599221021906"><ele>142.0</ele><time>2026-03-27T11:41:03Z</time></trkpt><trkpt lat="43.28106995555101" lon="10.823504895027222"><ele>143.5</ele><time>2026-03-27T11:41:07Z</time></trkpt><trkpt lat="43.28101676459833" lon="10.823453097370718"><ele>145.0</ele><time>2026-03-27T11:41:09Z</time></trkpt><trkpt lat="43.28094607437953" lon="10.823438179749186"><ele>146.5</ele><time>2026-03-27T11:41:14Z</time></trkpt><trkpt lat="43.280935931999245" lon="10.82334312559221"><ele>148.0</ele><time>2026-03-27T11:41:28Z</time></trkpt><trkpt lat="43.280886787751044" lon="10.823213282076194"><ele>149.5</ele><time>2026-03-27T11:41:30Z</time></trkpt><trkpt lat="43.280842258851806" lon="10.823139448623909"><ele>151.0</ele><time>2026-03-27T11:41:31Z</time></trkpt><trkpt lat="43.28079128042433" lon="10.823029295886496"><ele>151.0</ele><time>2026-03-27T11:41:33Z</time></trkpt><trkpt lat="43.280750899823936" lon="10.822955410013812"><ele>151.0</ele><time>2026-03-27T11:41:35Z</time></trkpt><trkpt lat="43.28074049628815" lon="10.822830256885998"><ele>151.0</ele><time>2026-03-27T11:41:37Z</time></trkpt><trkpt lat="43.28072865879424" lon="10.82266878478052"><ele>151.0</ele><time>2026-03-27T11:41:39Z</time></trkpt><trkpt lat="43.2806804875143" lon="10.822608272948488"><ele>151.0</ele><time>2026-03-27T11:41:41Z</time></trkpt><trkpt lat="43.28062557650066" lon="10.822498048614772"><ele>151.0</ele><time>2026-03-27T11:41:43Z</time></trkpt><trkpt lat="43.28055599053467" lon="10.822376913786922"><ele>155.5</ele><time>2026-03-27T11:41:45Z</time></trkpt><trkpt lat="43.280484798688484" lon="10.822248792412806"><ele>160.0</ele><time>2026-03-27T11:41:47Z</time></trkpt><trkpt lat="43.28044474997593" lon="10.82212529864001"><ele>164.5</ele><time>2026-03-27T11:41:49Z</time></trkpt><trkpt lat="43.280412600523526" lon="10.822024592539966"><ele>169.0</ele><time>2026-03-27T11:41:51Z</time></trkpt><trkpt lat="43.28033550529612" lon="10.821678831270024"><ele>171.16666666666669</ele><time>2026-03-27T11:41:54Z</time></trkpt><trkpt lat="43.28032568470006" lon="10.821583178147373"><ele>173.33333333333334</ele><time>2026-03-27T11:41:55Z</time></trkpt><trkpt lat="43.28031483336663" lon="10.821481288461877"><ele>175.5</ele><time>2026-03-27T11:41:56Z</time></trkpt><trkpt lat="43.280321129731675" lon="10.821387573026987"><ele>177.66666666666666</ele><time>2026-03-27T11:42:10.999Z</time></trkpt><trkpt lat="43.28037304158669" lon="10.821242167909409"><ele>179.83333333333331</ele><time>2026-03-27T11:42:13.999Z</time></trkpt><trkpt lat="43.28039710909005" lon="10.82114355153922"><ele>182.0</ele><time>2026-03-27T11:42:14.999Z</time></trkpt><trkpt lat="43.28043462618281" lon="10.821031941321568"><ele>184.0</ele><time>2026-03-27T11:42:15.999Z</time></trkpt><trkpt lat="43.280476157216626" lon="10.82091176741783"><ele>186.0</ele><time>2026-03-27T11:42:16.999Z</time></trkpt><trkpt lat="43.28047393400443" lon="10.820790218387653"><ele>188.0</ele><time>2026-03-27T11:42:18.999Z</time></trkpt><trkpt lat="43.28049479060393" lon="10.820687771773962"><ele>190.0</ele><time>2026-03-27T11:42:20.999Z</time></trkpt><trkpt lat="43.28048303072336" lon="10.820550299775679"><ele>192.0</ele><time>2026-03-27T11:42:22.999Z</time></trkpt><trkpt lat="43.280542093292894" lon="10.820416645833618"><ele>192.0</ele><time>2026-03-27T11:42:24.999Z</time></trkpt><trkpt lat="43.280580471495554" lon="10.820277793752611"><ele>192.0</ele><time>2026-03-27T11:42:26.999Z</time></trkpt><trkpt lat="43.28059531979722" lon="10.820177609067159"><ele>192.0</ele><time>2026-03-27T11:42:28.999Z</time></trkpt><trkpt lat="43.28059401260889" lon="10.82004731370518"><ele>192.0</ele><time>2026-03-27T11:42:30.999Z</time></trkpt><trkpt lat="43.280639218839205" lon="10.819905112135652"><ele>192.0</ele><time>2026-03-27T11:42:32.999Z</time></trkpt><trkpt lat="43.28064655324545" lon="10.819783012909513"><ele>193.39999999999998</ele><time>2026-03-27T11:42:37.999Z</time></trkpt><trkpt lat="43.28062687083149" lon="10.819657413976396"><ele>194.79999999999998</ele><time>2026-03-27T11:42:39.999Z</time></trkpt><trkpt lat="43.280602232791296" lon="10.81949836484258"><ele>196.2</ele><time>2026-03-27T11:42:41.999Z</time></trkpt><trkpt lat="43.28057671553038" lon="10.819357453942137"><ele>197.6</ele><time>2026-03-27T11:42:42.999Z</time></trkpt><trkpt lat="43.28057384528866" lon="10.819183470283336"><ele>199.0</ele><time>2026-03-27T11:42:43.999Z</time></trkpt><trkpt lat="43.2805791437599" lon="10.819044175706939"><ele>200.39999999999998</ele><time>2026-03-27T11:42:44.999Z</time></trkpt><trkpt lat="43.280590969831806" lon="10.818906250109618"><ele>201.8</ele><time>2026-03-27T11:42:45.999Z</time></trkpt><trkpt lat="43.280594919247754" lon="10.818754365097897"><ele>203.2</ele><time>2026-03-27T11:42:46.999Z</time></trkpt><trkpt lat="43.280592372327376" lon="10.81861026662696"><ele>204.60000000000002</ele><time>2026-03-27T11:42:47.999Z</time></trkpt><trkpt lat="43.28058889388674" lon="10.818472553088332"><ele>206.0</ele><time>2026-03-27T11:42:48.999Z</time></trkpt><trkpt lat="43.28060083358428" lon="10.81830906861979"><ele>209.20000000000002</ele><time>2026-03-27T11:42:49.999Z</time></trkpt><trkpt lat="43.28062531827012" lon="10.818155963258032"><ele>212.4</ele><time>2026-03-27T11:42:50.999Z</time></trkpt><trkpt lat="43.28064204815472" lon="10.818030459455201"><ele>215.6</ele><time>2026-03-27T11:42:51.999Z</time></trkpt><trkpt lat="43.280642071589455" lon="10.81788503195411"><ele>218.8</ele><time>2026-03-27T11:42:53.999Z</time></trkpt><trkpt lat="43.28067177409932" lon="10.817759284668737"><ele>222.0</ele><time>2026-03-27T11:42:55.999Z</time></trkpt><trkpt lat="43.280747301828086" lon="10.817673989463774"><ele>224.8</ele><time>2026-03-27T11:42:57.999Z</time></trkpt><trkpt lat="43.280815076616975" lon="10.817627677510108"><ele>227.6</ele><time>2026-03-27T11:42:59.999Z</time></trkpt><trkpt lat="43.280888647924144" lon="10.81759715987267"><ele>230.40000000000003</ele><time>2026-03-27T11:43:02.999Z</time></trkpt><trkpt lat="43.2809888075369" lon="10.817568744875194"><ele>233.20000000000002</ele><time>2026-03-27T11:43:04.999Z</time></trkpt><trkpt lat="43.28111778557986" lon="10.817520295765872"><ele>236.0</ele><time>2026-03-27T11:43:06.999Z</time></trkpt><trkpt lat="43.28123346374344" lon="10.81755326839041"><ele>236.0</ele><time>2026-03-27T11:43:09Z</time></trkpt><trkpt lat="43.28133471095497" lon="10.817627088578135"><ele>236.00000000000003</ele><time>2026-03-27T11:43:11Z</time></trkpt><trkpt lat="43.28138375935037" lon="10.817708276165332"><ele>236.00000000000003</ele><time>2026-03-27T11:43:12Z</time></trkpt><trkpt lat="43.2814879929374" lon="10.817690057312271"><ele>236.0</ele><time>2026-03-27T11:43:14Z</time></trkpt><trkpt lat="43.28155614196968" lon="10.817637746496986"><ele>236.0</ele><time>2026-03-27T11:43:15Z</time></trkpt><trkpt lat="43.28163039988196" lon="10.81758423663904"><ele>236.66666666666669</ele><time>2026-03-27T11:43:16Z</time></trkpt><trkpt lat="43.281724607433205" lon="10.817589305455536"><ele>237.33333333333334</ele><time>2026-03-27T11:43:18Z</time></trkpt><trkpt lat="43.28182318795888" lon="10.81761930096528"><ele>238.0</ele><time>2026-03-27T11:43:20Z</time></trkpt><trkpt lat="43.28190369112154" lon="10.817637031414652"><ele>238.66666666666669</ele><time>2026-03-27T11:43:22Z</time></trkpt><trkpt lat="43.28196912363803" lon="10.817667737235652"><ele>239.33333333333334</ele><time>2026-03-27T11:43:24Z</time></trkpt><trkpt lat="43.28207014445226" lon="10.817691548988396"><ele>240.0</ele><time>2026-03-27T11:43:56.999Z</time></trkpt><trkpt lat="43.282139900659004" lon="10.81765843281851"><ele>242.4</ele><time>2026-03-27T11:43:57.999Z</time></trkpt><trkpt lat="43.282233388445846" lon="10.817636593173566"><ele>244.8</ele><time>2026-03-27T11:43:58.999Z</time></trkpt><trkpt lat="43.28231354564404" lon="10.817604370778826"><ele>247.2</ele><time>2026-03-27T11:43:59.999Z</time></trkpt><trkpt lat="43.282377577065894" lon="10.817497759625732"><ele>249.6</ele><time>2026-03-27T11:44:01.999Z</time></trkpt><trkpt lat="43.28236675496497" lon="10.817324029146986"><ele>252.0</ele><time>2026-03-27T11:44:03.999Z</time></trkpt><trkpt lat="43.2823339716225" lon="10.817145036124465"><ele>253.6</ele><time>2026-03-27T11:44:05.999Z</time></trkpt><trkpt lat="43.28234640034128" lon="10.8170426348683"><ele>255.2</ele><time>2026-03-27T11:44:07.999Z</time></trkpt><trkpt lat="43.282459618374546" lon="10.817002619444184"><ele>256.8</ele><time>2026-03-27T11:44:09.999Z</time></trkpt><trkpt lat="43.282558011594574" lon="10.816934095049158"><ele>258.4</ele><time>2026-03-27T11:44:10.999Z</time></trkpt><trkpt lat="43.28263854806434" lon="10.816863300701774"><ele>260.0</ele><time>2026-03-27T11:44:11.999Z</time></trkpt><trkpt lat="43.282709283922635" lon="10.81680627001229"><ele>262.2</ele><time>2026-03-27T11:44:12.999Z</time></trkpt><trkpt lat="43.282782895415544" lon="10.816740486315844"><ele>264.4</ele><time>2026-03-27T11:44:14.999Z</time></trkpt><trkpt lat="43.28286590189441" lon="10.816676962745932"><ele>266.6</ele><time>2026-03-27T11:44:17.999Z</time></trkpt><trkpt lat="43.28294941336398" lon="10.816601908889734"><ele>268.8</ele><time>2026-03-27T11:44:19.999Z</time></trkpt><trkpt lat="43.28304056378203" lon="10.816524495079069"><ele>271.0</ele><time>2026-03-27T11:44:21.999Z</time></trkpt><trkpt lat="43.28314343922564" lon="10.816460462189808"><ele>271.0</ele><time>2026-03-27T11:44:23.999Z</time></trkpt><trkpt lat="43.28321641966503" lon="10.816528062811773"><ele>271.0</ele><time>2026-03-27T11:44:25.999Z</time></trkpt><trkpt lat="43.28332263214738" lon="10.816547141995022"><ele>271.0</ele><time>2026-03-27T11:44:27.999Z</time></trkpt><trkpt lat="43.28337864760109" lon="10.816501953440506"><ele>271.0</ele><time>2026-03-27T11:44:28.999Z</time></trkpt><trkpt lat="43.283436628602075" lon="10.816453483170749"><ele>271.0</ele><time>2026-03-27T11:44:29.999Z</time></trkpt><trkpt lat="43.28349898661135" lon="10.816430208553465"><ele>271.0</ele><time>2026-03-27T11:44:31.999Z</time></trkpt><trkpt lat="43.2834596139592" lon="10.816308662166755"><ele>271.0</ele><time>2026-03-27T11:44:33.999Z</time></trkpt><trkpt lat="43.283400886727144" lon="10.816234330847017"><ele>271.0</ele><time>2026-03-27T11:44:34.999Z</time></trkpt><trkpt lat="43.28333610201809" lon="10.816132062514978"><ele>271.0</ele><time>2026-03-27T11:44:35.999Z</time></trkpt><trkpt lat="43.283337238111486" lon="10.815979247103161"><ele>271.0</ele><time>2026-03-27T11:44:36.999Z</time></trkpt><trkpt lat="43.28329297030106" lon="10.815844485435232"><ele>271.0</ele><time>2026-03-27T11:44:37.999Z</time></trkpt><trkpt lat="43.28324376039325" lon="10.815693624127476"><ele>272.6</ele><time>2026-03-27T11:44:38.999Z</time></trkpt><trkpt lat="43.283179526268555" lon="10.815573601079882"><ele>274.20000000000005</ele><time>2026-03-27T11:44:39.999Z</time></trkpt><trkpt lat="43.28315573285881" lon="10.815450094090544"><ele>275.79999999999995</ele><time>2026-03-27T11:44:40.999Z</time></trkpt><trkpt lat="43.28314682335361" lon="10.815359876404814"><ele>277.4</ele><time>2026-03-27T11:44:41.999Z</time></trkpt><trkpt lat="43.28317168867791" lon="10.81518644851411"><ele>279.0</ele><time>2026-03-27T11:44:43.999Z</time></trkpt><trkpt lat="43.28319381222048" lon="10.815076670803142"><ele>282.25</ele><time>2026-03-27T11:44:44.999Z</time></trkpt><trkpt lat="43.283264255792695" lon="10.814983851911965"><ele>285.5</ele><time>2026-03-27T11:44:45.999Z</time></trkpt><trkpt lat="43.28338227796485" lon="10.814889287316454"><ele>288.75</ele><time>2026-03-27T11:44:46.999Z</time></trkpt><trkpt lat="43.28350262244433" lon="10.814783383779353"><ele>292.0</ele><time>2026-03-27T11:44:47.999Z</time></trkpt><trkpt lat="43.283619251001014" lon="10.814669169417947"><ele>292.0</ele><time>2026-03-27T11:44:48.999Z</time></trkpt><trkpt lat="43.283735665905475" lon="10.814557685565795"><ele>292.0</ele><time>2026-03-27T11:44:49.999Z</time></trkpt><trkpt lat="43.28384917174115" lon="10.81444686112541"><ele>292.0</ele><time>2026-03-27T11:44:50.999Z</time></trkpt><trkpt lat="43.28396846779622" lon="10.814363318012694"><ele>292.0</ele><time>2026-03-27T11:44:51.999Z</time></trkpt><trkpt lat="43.284067119147906" lon="10.814297531940298"><ele>293.25</ele><time>2026-03-27T11:44:52.999Z</time></trkpt><trkpt lat="43.284162073625225" lon="10.814213232483484"><ele>294.5</ele><time>2026-03-27T11:44:53.999Z</time></trkpt><trkpt lat="43.28424083931297" lon="10.814086365694703"><ele>295.75</ele><time>2026-03-27T11:44:54.999Z</time></trkpt><trkpt lat="43.28430966530967" lon="10.813933489957355"><ele>297.0</ele><time>2026-03-27T11:44:55.999Z</time></trkpt><trkpt lat="43.28436522472937" lon="10.813782488026208"><ele>297.0</ele><time>2026-03-27T11:44:56.999Z</time></trkpt><trkpt lat="43.28440715693003" lon="10.813619713930958"><ele>297.0</ele><time>2026-03-27T11:44:57.999Z</time></trkpt><trkpt lat="43.284426013632014" lon="10.813443837369428"><ele>297.0</ele><time>2026-03-27T11:44:58.999Z</time></trkpt><trkpt lat="43.28442062851196" lon="10.813250311472439"><ele>297.0</ele><time>2026-03-27T11:44:59.999Z</time></trkpt><trkpt lat="43.28440011961162" lon="10.81308214008476"><ele>298.6666666666667</ele><time>2026-03-27T11:45:00.999Z</time></trkpt><trkpt lat="43.28439234150675" lon="10.812955966524363"><ele>300.3333333333333</ele><time>2026-03-27T11:45:01.999Z</time></trkpt><trkpt lat="43.284392711992616" lon="10.812840335747746"><ele>302.0</ele><time>2026-03-27T11:45:02.999Z</time></trkpt><trkpt lat="43.284403268409854" lon="10.812734750331021"><ele>303.66666666666663</ele><time>2026-03-27T11:45:03.999Z</time></trkpt><trkpt lat="43.28442990095365" lon="10.812638992511724"><ele>305.3333333333333</ele><time>2026-03-27T11:45:04.999Z</time></trkpt><trkpt lat="43.28446733868153" lon="10.81254429254068"><ele>307.0</ele><time>2026-03-27T11:45:05.999Z</time></trkpt><trkpt lat="43.28450914889476" lon="10.812454939537378"><ele>310.6</ele><time>2026-03-27T11:45:06.999Z</time></trkpt><trkpt lat="43.28455085810594" lon="10.812371166199075"><ele>314.2</ele><time>2026-03-27T11:45:07.999Z</time></trkpt><trkpt lat="43.28458125027087" lon="10.812265512138893"><ele>317.8</ele><time>2026-03-27T11:45:08.999Z</time></trkpt><trkpt lat="43.284612497987965" lon="10.812174723994213"><ele>321.4</ele><time>2026-03-27T11:45:09.999Z</time></trkpt><trkpt lat="43.28461055938164" lon="10.812014514331239"><ele>325.0</ele><time>2026-03-27T11:45:10.999Z</time></trkpt><trkpt lat="43.284634644200395" lon="10.811799739717017"><ele>319.5</ele><time>2026-03-27T11:45:11.999Z</time></trkpt><trkpt lat="43.28466277133398" lon="10.81159530455353"><ele>314.0</ele><time>2026-03-27T11:45:12.999Z</time></trkpt><trkpt lat="43.28471036708131" lon="10.811416066880065"><ele>308.5</ele><time>2026-03-27T11:45:14Z</time></trkpt><trkpt lat="43.28476942351898" lon="10.81122002817282"><ele>303.0</ele><time>2026-03-27T11:45:15Z</time></trkpt><trkpt lat="43.284813338911405" lon="10.811017879905474"><ele>306.5</ele><time>2026-03-27T11:45:16Z</time></trkpt><trkpt lat="43.28486241257732" lon="10.810836262778981"><ele>310.0</ele><time>2026-03-27T11:45:17Z</time></trkpt><trkpt lat="43.28494208694296" lon="10.810683054299972"><ele>313.5</ele><time>2026-03-27T11:45:18Z</time></trkpt><trkpt lat="43.2850300122336" lon="10.810544795415069"><ele>317.0</ele><time>2026-03-27T11:45:19Z</time></trkpt><trkpt lat="43.285099615393605" lon="10.810414985749937"><ele>317.0</ele><time>2026-03-27T11:45:20Z</time></trkpt><trkpt lat="43.285144325857836" lon="10.810258512939424"><ele>317.0</ele><time>2026-03-27T11:45:21Z</time></trkpt><trkpt lat="43.28518317423331" lon="10.810082560804956"><ele>317.0</ele><time>2026-03-27T11:45:22Z</time></trkpt><trkpt lat="43.285206919486164" lon="10.809915947951765"><ele>317.0</ele><time>2026-03-27T11:45:23Z</time></trkpt><trkpt lat="43.28521063374604" lon="10.809730238773735"><ele>322.0</ele><time>2026-03-27T11:45:24Z</time></trkpt><trkpt lat="43.28519130654006" lon="10.809523539411044"><ele>327.0</ele><time>2026-03-27T11:45:25Z</time></trkpt><trkpt lat="43.28515026978076" lon="10.80932505314581"><ele>332.0</ele><time>2026-03-27T11:45:26Z</time></trkpt><trkpt lat="43.28510252096311" lon="10.809120906927392"><ele>332.0</ele><time>2026-03-27T11:45:27Z</time></trkpt><trkpt lat="43.28503836196898" lon="10.808936979596616"><ele>332.0</ele><time>2026-03-27T11:45:28Z</time></trkpt><trkpt lat="43.284964751895664" lon="10.808772459205954"><ele>332.0</ele><time>2026-03-27T11:45:29Z</time></trkpt><trkpt lat="43.28488378831865" lon="10.80861938070385"><ele>332.0</ele><time>2026-03-27T11:45:30Z</time></trkpt><trkpt lat="43.28480510292788" lon="10.808481581838125"><ele>329.75</ele><time>2026-03-27T11:45:31Z</time></trkpt><trkpt lat="43.2847277812487" lon="10.808336059252838"><ele>327.5</ele><time>2026-03-27T11:45:32Z</time></trkpt><trkpt lat="43.28472099174029" lon="10.8081860594108"><ele>325.25</ele><time>2026-03-27T11:45:33Z</time></trkpt><trkpt lat="43.28475859001448" lon="10.808014533130983"><ele>323.0</ele><time>2026-03-27T11:45:34Z</time></trkpt><trkpt lat="43.28481746538709" lon="10.80783452198816"><ele>323.0</ele><time>2026-03-27T11:45:35Z</time></trkpt><trkpt lat="43.28487299575281" lon="10.8076736398345"><ele>323.0</ele><time>2026-03-27T11:45:36Z</time></trkpt><trkpt lat="43.284903857531035" lon="10.80749725769096"><ele>323.0</ele><time>2026-03-27T11:45:37Z</time></trkpt><trkpt lat="43.28491182283157" lon="10.807352920327462"><ele>323.0</ele><time>2026-03-27T11:45:38Z</time></trkpt><trkpt lat="43.284872187822565" lon="10.80717647307911"><ele>323.75</ele><time>2026-03-27T11:45:39Z</time></trkpt><trkpt lat="43.284832644715394" lon="10.806994121991009"><ele>324.5</ele><time>2026-03-27T11:45:40Z</time></trkpt><trkpt lat="43.28477301394259" lon="10.80679592650598"><ele>325.25</ele><time>2026-03-27T11:45:41Z</time></trkpt><trkpt lat="43.28472037677542" lon="10.806644711699729"><ele>326.0</ele><time>2026-03-27T11:45:42Z</time></trkpt><trkpt lat="43.28471714513162" lon="10.8064976569936"><ele>326.0</ele><time>2026-03-27T11:45:43Z</time></trkpt><trkpt lat="43.284744692715506" lon="10.806339202867628"><ele>326.0</ele><time>2026-03-27T11:45:44Z</time></trkpt><trkpt lat="43.284818286529855" lon="10.806161869745978"><ele>326.0</ele><time>2026-03-27T11:45:45Z</time></trkpt><trkpt lat="43.28486325547055" lon="10.806011644258051"><ele>326.0</ele><time>2026-03-27T11:45:46Z</time></trkpt><trkpt lat="43.28490321738428" lon="10.80581410352308"><ele>327.5</ele><time>2026-03-27T11:45:47Z</time></trkpt><trkpt lat="43.284887993435824" lon="10.8056246603528"><ele>329.0</ele><time>2026-03-27T11:45:48Z</time></trkpt><trkpt lat="43.284845169791424" lon="10.805450854786773"><ele>330.5</ele><time>2026-03-27T11:45:49Z</time></trkpt><trkpt lat="43.284820162727996" lon="10.805308673876707"><ele>332.0</ele><time>2026-03-27T11:45:50Z</time></trkpt><trkpt lat="43.28483605872404" lon="10.805204508069437"><ele>333.20000000000005</ele><time>2026-03-27T11:45:51Z</time></trkpt><trkpt lat="43.28485573972419" lon="10.805113816351403"><ele>334.4</ele><time>2026-03-27T11:45:53.999Z</time></trkpt><trkpt lat="43.28487457127555" lon="10.804935007648483"><ele>335.6</ele><time>2026-03-27T11:45:55.999Z</time></trkpt><trkpt lat="43.284893945860475" lon="10.804768485912005"><ele>336.79999999999995</ele><time>2026-03-27T11:45:57.999Z</time></trkpt><trkpt lat="43.284898600470484" lon="10.804655793111978"><ele>338.0</ele><time>2026-03-27T11:45:58.999Z</time></trkpt><trkpt lat="43.284928709375656" lon="10.804455261201388"><ele>339.2</ele><time>2026-03-27T11:45:59.999Z</time></trkpt><trkpt lat="43.28500827642663" lon="10.804300313909147"><ele>340.4</ele><time>2026-03-27T11:46:00.999Z</time></trkpt><trkpt lat="43.28506629621348" lon="10.804185574162258"><ele>341.59999999999997</ele><time>2026-03-27T11:46:01.999Z</time></trkpt><trkpt lat="43.285092545199056" lon="10.80409682751888"><ele>342.79999999999995</ele><time>2026-03-27T11:46:02.999Z</time></trkpt><trkpt lat="43.28513186000448" lon="10.803990538128263"><ele>344.0</ele><time>2026-03-27T11:46:03.999Z</time></trkpt><trkpt lat="43.2851671968643" lon="10.803792686235303"><ele>344.0</ele><time>2026-03-27T11:46:05.999Z</time></trkpt><trkpt lat="43.28519450378151" lon="10.8036746653778"><ele>344.0</ele><time>2026-03-27T11:46:06.999Z</time></trkpt><trkpt lat="43.285746789966296" lon="10.803442371879807"><ele>336.8</ele><time>2026-03-27T11:46:10.999Z</time></trkpt><trkpt lat="43.285819889152066" lon="10.803369076771812"><ele>329.59999999999997</ele><time>2026-03-27T11:46:11.999Z</time></trkpt><trkpt lat="43.28591045006985" lon="10.803297588735578"><ele>322.4</ele><time>2026-03-27T11:46:12.999Z</time></trkpt><trkpt lat="43.286019955398736" lon="10.803255237699782"><ele>315.2</ele><time>2026-03-27T11:46:13.999Z</time></trkpt><trkpt lat="43.286112111496784" lon="10.803240689993457"><ele>308.0</ele><time>2026-03-27T11:46:14.999Z</time></trkpt><trkpt lat="43.28618615836586" lon="10.803241338788503"><ele>308.0</ele><time>2026-03-27T11:46:15.999Z</time></trkpt><trkpt lat="43.286253145798014" lon="10.803260546763385"><ele>308.0</ele><time>2026-03-27T11:46:16.999Z</time></trkpt><trkpt lat="43.286304815252294" lon="10.803329511629602"><ele>308.0</ele><time>2026-03-27T11:46:17.999Z</time></trkpt><trkpt lat="43.286340330917305" lon="10.803444322798974"><ele>308.0</ele><time>2026-03-27T11:46:18.999Z</time></trkpt><trkpt lat="43.286378908166434" lon="10.803549135068513"><ele>308.0</ele><time>2026-03-27T11:46:19.999Z</time></trkpt><trkpt lat="43.28644496152587" lon="10.803671265530788"><ele>308.0</ele><time>2026-03-27T11:46:21.999Z</time></trkpt><trkpt lat="43.28651459851589" lon="10.803755883851286"><ele>303.1666666666667</ele><time>2026-03-27T11:46:23.999Z</time></trkpt><trkpt lat="43.28659559500644" lon="10.80380555994894"><ele>298.33333333333337</ele><time>2026-03-27T11:46:25.999Z</time></trkpt><trkpt lat="43.28668529219687" lon="10.803811496851834"><ele>293.5</ele><time>2026-03-27T11:46:27.999Z</time></trkpt><trkpt lat="43.28673337564806" lon="10.80375200887399"><ele>288.6666666666667</ele><time>2026-03-27T11:46:30.999Z</time></trkpt><trkpt lat="43.286784840915026" lon="10.803673080543101"><ele>283.8333333333333</ele><time>2026-03-27T11:46:31.999Z</time></trkpt><trkpt lat="43.286898412333336" lon="10.803627679481401"><ele>279.0</ele><time>2026-03-27T11:46:33.999Z</time></trkpt><trkpt lat="43.28697519258309" lon="10.803648244694386"><ele>279.0</ele><time>2026-03-27T11:46:34.999Z</time></trkpt><trkpt lat="43.28711770706257" lon="10.80366602207688"><ele>279.0</ele><time>2026-03-27T11:46:36.999Z</time></trkpt><trkpt lat="43.28718803633037" lon="10.803694244487488"><ele>279.0</ele><time>2026-03-27T11:46:37.999Z</time></trkpt><trkpt lat="43.287267587417126" lon="10.803696372420227"><ele>279.0</ele><time>2026-03-27T11:46:38.999Z</time></trkpt><trkpt lat="43.28735854107472" lon="10.803768038566712"><ele>279.0</ele><time>2026-03-27T11:46:40.999Z</time></trkpt><trkpt lat="43.2873679436236" lon="10.803858685576737"><ele>275.8</ele><time>2026-03-27T11:46:41.999Z</time></trkpt><trkpt lat="43.287347574039394" lon="10.803971435971041"><ele>272.59999999999997</ele><time>2026-03-27T11:46:43.999Z</time></trkpt><trkpt lat="43.2873169153807" lon="10.80407735923413"><ele>269.4</ele><time>2026-03-27T11:46:46.999Z</time></trkpt><trkpt lat="43.28735323798027" lon="10.804177153211555"><ele>266.2</ele><time>2026-03-27T11:46:48.999Z</time></trkpt><trkpt lat="43.28741898595718" lon="10.804269072434229"><ele>263.0</ele><time>2026-03-27T11:46:50.999Z</time></trkpt><trkpt lat="43.287521049204564" lon="10.804346517955713"><ele>261.2</ele><time>2026-03-27T11:46:52.999Z</time></trkpt><trkpt lat="43.287596629204785" lon="10.804394619103515"><ele>259.4</ele><time>2026-03-27T11:46:54.999Z</time></trkpt><trkpt lat="43.28768750759471" lon="10.804442958473881"><ele>257.59999999999997</ele><time>2026-03-27T11:46:56.999Z</time></trkpt><trkpt lat="43.28780741304362" lon="10.804479038516952"><ele>255.79999999999998</ele><time>2026-03-27T11:46:58.999Z</time></trkpt><trkpt lat="43.287885101904756" lon="10.804557284923023"><ele>254.0</ele><time>2026-03-27T11:47:00.999Z</time></trkpt><trkpt lat="43.287907499129275" lon="10.804667941631687"><ele>254.0</ele><time>2026-03-27T11:47:06.999Z</time></trkpt><trkpt lat="43.28792446668938" lon="10.804760954961562"><ele>254.0</ele><time>2026-03-27T11:47:10.999Z</time></trkpt><trkpt lat="43.287949957052085" lon="10.804852146153335"><ele>254.0</ele><time>2026-03-27T11:47:12.999Z</time></trkpt><trkpt lat="43.287989249874585" lon="10.804938597660216"><ele>254.0</ele><time>2026-03-27T11:47:15.999Z</time></trkpt><trkpt lat="43.288043062129994" lon="10.805003012487642"><ele>254.0</ele><time>2026-03-27T11:47:18.999Z</time></trkpt><trkpt lat="43.288106465502636" lon="10.80508507622021"><ele>254.0</ele><time>2026-03-27T11:47:21Z</time></trkpt><trkpt lat="43.288167899217726" lon="10.80513345811049"><ele>254.0</ele><time>2026-03-27T11:47:22Z</time></trkpt><trkpt lat="43.28823244350075" lon="10.805207151847961"><ele>250.2</ele><time>2026-03-27T11:47:24Z</time></trkpt><trkpt lat="43.288319046871486" lon="10.805154729380588"><ele>246.39999999999998</ele><time>2026-03-27T11:47:27Z</time></trkpt><trkpt lat="43.288410678820874" lon="10.805076654283697"><ele>242.6</ele><time>2026-03-27T11:47:29Z</time></trkpt><trkpt lat="43.28849834339368" lon="10.805130914522547"><ele>238.8</ele><time>2026-03-27T11:47:31Z</time></trkpt><trkpt lat="43.28849764294977" lon="10.805265757492805"><ele>235.0</ele><time>2026-03-27T11:47:33Z</time></trkpt><trkpt lat="43.288567910089505" lon="10.805325981250293"><ele>234.83333333333331</ele><time>2026-03-27T11:47:35Z</time></trkpt><trkpt lat="43.28865834872067" lon="10.80533861902112"><ele>234.66666666666666</ele><time>2026-03-27T11:47:38Z</time></trkpt><trkpt lat="43.288739283021606" lon="10.805321372477652"><ele>234.5</ele><time>2026-03-27T11:47:40Z</time></trkpt><trkpt lat="43.288803991142444" lon="10.8053370356103"><ele>234.33333333333331</ele><time>2026-03-27T11:47:42Z</time></trkpt><trkpt lat="43.288864437333245" lon="10.805363905874637"><ele>234.16666666666666</ele><time>2026-03-27T11:47:46Z</time></trkpt><trkpt lat="43.28894776590039" lon="10.805334798856556"><ele>234.0</ele><time>2026-03-27T11:47:49Z</time></trkpt><trkpt lat="43.28902425880068" lon="10.805313939683197"><ele>230.5</ele><time>2026-03-27T11:47:51Z</time></trkpt><trkpt lat="43.28910298390637" lon="10.805252315146884"><ele>227.0</ele><time>2026-03-27T11:47:53Z</time></trkpt><trkpt lat="43.289151070941955" lon="10.805174260918884"><ele>223.5</ele><time>2026-03-27T11:47:54Z</time></trkpt><trkpt lat="43.2891891878344" lon="10.805072302822184"><ele>220.0</ele><time>2026-03-27T11:47:55Z</time></trkpt><trkpt lat="43.28919638816295" lon="10.804973907727543"><ele>216.5</ele><time>2026-03-27T11:47:56Z</time></trkpt><trkpt lat="43.2892028041148" lon="10.80488619755498"><ele>213.0</ele><time>2026-03-27T11:47:57Z</time></trkpt><trkpt lat="43.289200172514455" lon="10.804737298263097"><ele>212.33333333333334</ele><time>2026-03-27T11:47:59Z</time></trkpt><trkpt lat="43.28926073001872" lon="10.804604390313983"><ele>211.66666666666669</ele><time>2026-03-27T11:48:01Z</time></trkpt><trkpt lat="43.289304275237896" lon="10.804531585148208"><ele>211.0</ele><time>2026-03-27T11:48:02Z</time></trkpt><trkpt lat="43.28935430237318" lon="10.804462440279838"><ele>210.33333333333334</ele><time>2026-03-27T11:48:03Z</time></trkpt><trkpt lat="43.28940189408536" lon="10.804377700168457"><ele>209.66666666666669</ele><time>2026-03-27T11:48:04Z</time></trkpt><trkpt lat="43.28944272740354" lon="10.804289482103409"><ele>209.0</ele><time>2026-03-27T11:48:05Z</time></trkpt><trkpt lat="43.289496833005856" lon="10.804140639980977"><ele>209.0</ele><time>2026-03-27T11:48:07Z</time></trkpt><trkpt lat="43.289534724127655" lon="10.804012690370913"><ele>209.0</ele><time>2026-03-27T11:48:09Z</time></trkpt><trkpt lat="43.28957846460886" lon="10.803879515028704"><ele>209.0</ele><time>2026-03-27T11:48:10.999Z</time></trkpt><trkpt lat="43.28966260377156" lon="10.803808215877208"><ele>209.0</ele><time>2026-03-27T11:48:12.999Z</time></trkpt><trkpt lat="43.28976339031648" lon="10.80370546103072"><ele>209.0</ele><time>2026-03-27T11:48:14.999Z</time></trkpt><trkpt lat="43.289789648491215" lon="10.803611448796806"><ele>204.0</ele><time>2026-03-27T11:48:16.999Z</time></trkpt><trkpt lat="43.28986482904514" lon="10.80349554390946"><ele>199.0</ele><time>2026-03-27T11:48:18.999Z</time></trkpt><trkpt lat="43.28991793614228" lon="10.803364247932313"><ele>194.0</ele><time>2026-03-27T11:48:19.999Z</time></trkpt><trkpt lat="43.28997361863329" lon="10.803299362839057"><ele>189.0</ele><time>2026-03-27T11:48:20.999Z</time></trkpt><trkpt lat="43.290026407826105" lon="10.803186076017084"><ele>184.0</ele><time>2026-03-27T11:48:22.999Z</time></trkpt><trkpt lat="43.290023882969784" lon="10.80305227142923"><ele>184.0</ele><time>2026-03-27T11:48:23.999Z</time></trkpt><trkpt lat="43.2899971343408" lon="10.802919724453563"><ele>184.0</ele><time>2026-03-27T11:48:24.999Z</time></trkpt><trkpt lat="43.289958225864446" lon="10.802767146378788"><ele>184.0</ele><time>2026-03-27T11:48:25.999Z</time></trkpt><trkpt lat="43.28993636012106" lon="10.802647967727582"><ele>184.0</ele><time>2026-03-27T11:48:26.999Z</time></trkpt><trkpt lat="43.289912506286555" lon="10.802553872960184"><ele>184.0</ele><time>2026-03-27T11:48:27.999Z</time></trkpt><trkpt lat="43.28987153084408" lon="10.80246796564459"><ele>182.79999999999998</ele><time>2026-03-27T11:48:29.999Z</time></trkpt><trkpt lat="43.28979472611761" lon="10.802401465582063"><ele>181.6</ele><time>2026-03-27T11:48:30.999Z</time></trkpt><trkpt lat="43.28969112840518" lon="10.802359709550112"><ele>180.4</ele><time>2026-03-27T11:48:31.999Z</time></trkpt><trkpt lat="43.289602344460896" lon="10.802304020481717"><ele>179.2</ele><time>2026-03-27T11:48:32.999Z</time></trkpt><trkpt lat="43.289514830769164" lon="10.802232681410066"><ele>178.0</ele><time>2026-03-27T11:48:33.999Z</time></trkpt><trkpt lat="43.289438777554935" lon="10.802140256716902"><ele>179.0</ele><time>2026-03-27T11:48:34.999Z</time></trkpt><trkpt lat="43.28934432817055" lon="10.80209865490878"><ele>180.0</ele><time>2026-03-27T11:48:35.999Z</time></trkpt><trkpt lat="43.289289880818906" lon="10.80204980192092"><ele>181.0</ele><time>2026-03-27T11:48:36.999Z</time></trkpt><trkpt lat="43.28920895276323" lon="10.801981080175887"><ele>182.0</ele><time>2026-03-27T11:48:37.999Z</time></trkpt><trkpt lat="43.28914680416207" lon="10.80188693019636"><ele>183.0</ele><time>2026-03-27T11:48:38.999Z</time></trkpt><trkpt lat="43.28909960348825" lon="10.801783978871578"><ele>184.0</ele><time>2026-03-27T11:48:39.999Z</time></trkpt><trkpt lat="43.28905977623695" lon="10.801686775232243"><ele>184.0</ele><time>2026-03-27T11:48:40.999Z</time></trkpt><trkpt lat="43.28903798191148" lon="10.801593227985549"><ele>184.0</ele><time>2026-03-27T11:48:41.999Z</time></trkpt><trkpt lat="43.28902839393328" lon="10.80148920277212"><ele>184.0</ele><time>2026-03-27T11:48:42.999Z</time></trkpt><trkpt lat="43.2890329659599" lon="10.801357669185467"><ele>184.0</ele><time>2026-03-27T11:48:43.999Z</time></trkpt><trkpt lat="43.289029100096094" lon="10.801261379629029"><ele>184.0</ele><time>2026-03-27T11:48:45.999Z</time></trkpt><trkpt lat="43.28892778535439" lon="10.801288234212942"><ele>184.0</ele><time>2026-03-27T11:48:47.999Z</time></trkpt><trkpt lat="43.288846946770924" lon="10.801312820365473"><ele>186.16666666666669</ele><time>2026-03-27T11:48:48.999Z</time></trkpt><trkpt lat="43.28877857373632" lon="10.801344068634364"><ele>188.33333333333334</ele><time>2026-03-27T11:48:49.999Z</time></trkpt><trkpt lat="43.288720718937455" lon="10.801396203271459"><ele>190.5</ele><time>2026-03-27T11:48:52.999Z</time></trkpt><trkpt lat="43.288622228027776" lon="10.801407177618136"><ele>192.66666666666669</ele><time>2026-03-27T11:48:55.999Z</time></trkpt><trkpt lat="43.288530097499226" lon="10.8014320167824"><ele>194.83333333333334</ele><time>2026-03-27T11:48:57.999Z</time></trkpt><trkpt lat="43.28846400189558" lon="10.801373022679636"><ele>197.0</ele><time>2026-03-27T11:48:58.999Z</time></trkpt><trkpt lat="43.28835942875394" lon="10.801288090606064"><ele>197.0</ele><time>2026-03-27T11:49:00.999Z</time></trkpt><trkpt lat="43.28831392445925" lon="10.801188961798982"><ele>197.0</ele><time>2026-03-27T11:49:01.999Z</time></trkpt><trkpt lat="43.28826365502475" lon="10.801061419889388"><ele>197.0</ele><time>2026-03-27T11:49:02.999Z</time></trkpt><trkpt lat="43.288212106225195" lon="10.800953620335811"><ele>197.0</ele><time>2026-03-27T11:49:03.999Z</time></trkpt><trkpt lat="43.28816063320285" lon="10.800863863440906"><ele>197.0</ele><time>2026-03-27T11:49:04.999Z</time></trkpt><trkpt lat="43.288143240246825" lon="10.800748328359715"><ele>196.16666666666669</ele><time>2026-03-27T11:49:05.999Z</time></trkpt><trkpt lat="43.28811438885184" lon="10.8006497260093"><ele>195.33333333333334</ele><time>2026-03-27T11:49:06.999Z</time></trkpt><trkpt lat="43.28804806286618" lon="10.800648464704407"><ele>194.5</ele><time>2026-03-27T11:49:12.999Z</time></trkpt><trkpt lat="43.28801740842016" lon="10.800559464889313"><ele>193.66666666666669</ele><time>2026-03-27T11:51:21.999Z</time></trkpt><trkpt lat="43.28796280490329" lon="10.800495300248407"><ele>192.83333333333334</ele><time>2026-03-27T11:52:00Z</time></trkpt><trkpt lat="43.28788707446788" lon="10.800382219142918"><ele>192.0</ele><time>2026-03-27T11:53:03.999Z</time></trkpt><trkpt lat="43.2878691876403" lon="10.800293495208702"><ele>192.0</ele><time>2026-03-27T11:53:04.999Z</time></trkpt><trkpt lat="43.28782987374339" lon="10.80019864770259"><ele>192.0</ele><time>2026-03-27T11:53:06.999Z</time></trkpt><trkpt lat="43.287776586406906" lon="10.800138200557264"><ele>192.0</ele><time>2026-03-27T11:53:07.999Z</time></trkpt><trkpt lat="43.287706739202754" lon="10.799992695240553"><ele>192.0</ele><time>2026-03-27T11:53:09.999Z</time></trkpt><trkpt lat="43.28765655660728" lon="10.799923912896066"><ele>192.0</ele><time>2026-03-27T11:53:10.999Z</time></trkpt><trkpt lat="43.287569329650296" lon="10.799853809552587"><ele>192.0</ele><time>2026-03-27T11:53:12.999Z</time></trkpt><trkpt lat="43.287513879271735" lon="10.799786987707257"><ele>192.33333333333334</ele><time>2026-03-27T11:53:34.999Z</time></trkpt><trkpt lat="43.287462424839994" lon="10.799704359810942"><ele>192.66666666666669</ele><time>2026-03-27T11:53:38Z</time></trkpt><trkpt lat="43.287407638582" lon="10.799635023047333"><ele>193.0</ele><time>2026-03-27T11:53:39Z</time></trkpt><trkpt lat="43.287352920821945" lon="10.79954598254764"><ele>193.33333333333334</ele><time>2026-03-27T11:53:40Z</time></trkpt><trkpt lat="43.28730048287611" lon="10.799434106280549"><ele>193.66666666666669</ele><time>2026-03-27T11:53:41Z</time></trkpt><trkpt lat="43.28725444647836" lon="10.799349503588628"><ele>194.0</ele><time>2026-03-27T11:53:42Z</time></trkpt><trkpt lat="43.28720144875149" lon="10.799271402252028"><ele>192.42857142857142</ele><time>2026-03-27T11:53:43Z</time></trkpt><trkpt lat="43.28713700830577" lon="10.799209014584214"><ele>190.85714285714286</ele><time>2026-03-27T11:53:44Z</time></trkpt><trkpt lat="43.28708211101677" lon="10.79916268674557"><ele>189.28571428571428</ele><time>2026-03-27T11:53:45Z</time></trkpt><trkpt lat="43.28699683421229" lon="10.799162566978696"><ele>187.71428571428572</ele><time>2026-03-27T11:53:47Z</time></trkpt><trkpt lat="43.28693097046831" lon="10.79917923601546"><ele>186.14285714285717</ele><time>2026-03-27T11:53:48Z</time></trkpt><trkpt lat="43.286857083430064" lon="10.799195922727039"><ele>184.57142857142858</ele><time>2026-03-27T11:53:49Z</time></trkpt><trkpt lat="43.28679356836205" lon="10.799170736581026"><ele>183.0</ele><time>2026-03-27T11:54:13Z</time></trkpt><trkpt lat="43.28671957895178" lon="10.799176458076003"><ele>183.0</ele><time>2026-03-27T11:55:38.999Z</time></trkpt><trkpt lat="43.286660741787955" lon="10.799145160127892"><ele>183.0</ele><time>2026-03-27T11:55:46Z</time></trkpt><trkpt lat="43.28659058527637" lon="10.799142672290342"><ele>183.0</ele><time>2026-03-27T11:57:59Z</time></trkpt><trkpt lat="43.286534110967445" lon="10.799090711749564"><ele>183.0</ele><time>2026-03-27T11:58:02Z</time></trkpt><trkpt lat="43.28649381897557" lon="10.799008972575505"><ele>183.0</ele><time>2026-03-27T11:58:04Z</time></trkpt><trkpt lat="43.28649285846602" lon="10.798878403305006"><ele>183.0</ele><time>2026-03-27T11:58:06Z</time></trkpt><trkpt lat="43.28647540229295" lon="10.798778341700082"><ele>183.0</ele><time>2026-03-27T11:58:07Z</time></trkpt><trkpt lat="43.28642843342781" lon="10.798712979967243"><ele>184.4</ele><time>2026-03-27T11:58:09Z</time></trkpt><trkpt lat="43.28634899240162" lon="10.798622788099179"><ele>185.8</ele><time>2026-03-27T11:58:16Z</time></trkpt><trkpt lat="43.28629243370604" lon="10.798551503020187"><ele>187.2</ele><time>2026-03-27T11:58:17Z</time></trkpt><trkpt lat="43.28619843129455" lon="10.798500396894887"><ele>188.6</ele><time>2026-03-27T11:58:18Z</time></trkpt><trkpt lat="43.286075792478755" lon="10.798490457133305"><ele>190.0</ele><time>2026-03-27T11:58:19Z</time></trkpt><trkpt lat="43.28593871314092" lon="10.798502117157623"><ele>190.0</ele><time>2026-03-27T11:58:20Z</time></trkpt><trkpt lat="43.28581979198215" lon="10.798509694454328"><ele>190.0</ele><time>2026-03-27T11:58:21Z</time></trkpt><trkpt lat="43.2857169710376" lon="10.798507846259009"><ele>190.0</ele><time>2026-03-27T11:58:22Z</time></trkpt><trkpt lat="43.28564776314653" lon="10.79850111442151"><ele>190.0</ele><time>2026-03-27T11:58:23Z</time></trkpt><trkpt lat="43.28555084790634" lon="10.798467523055171"><ele>190.0</ele><time>2026-03-27T11:58:25Z</time></trkpt><trkpt lat="43.28551257199534" lon="10.798328199043668"><ele>194.0</ele><time>2026-03-27T11:58:27Z</time></trkpt><trkpt lat="43.285514429743415" lon="10.798229710939259"><ele>198.0</ele><time>2026-03-27T11:58:28Z</time></trkpt><trkpt lat="43.28549632165288" lon="10.79807615947855"><ele>202.0</ele><time>2026-03-27T11:58:30Z</time></trkpt><trkpt lat="43.28543226147913" lon="10.797967994217261"><ele>206.0</ele><time>2026-03-27T11:58:32Z</time></trkpt><trkpt lat="43.285361791356365" lon="10.797956067871354"><ele>209.99999999999997</ele><time>2026-03-27T11:58:34Z</time></trkpt><trkpt lat="43.285327048035306" lon="10.798032558826206"><ele>214.0</ele><time>2026-03-27T11:58:35Z</time></trkpt><trkpt lat="43.28528260995302" lon="10.79811221380724"><ele>214.0</ele><time>2026-03-27T11:58:36Z</time></trkpt><trkpt lat="43.28524848325598" lon="10.798191480671834"><ele>213.99999999999997</ele><time>2026-03-27T11:58:37Z</time></trkpt><trkpt lat="43.28515555114389" lon="10.79828802441374"><ele>213.99999999999997</ele><time>2026-03-27T11:58:39Z</time></trkpt><trkpt lat="43.28507293541419" lon="10.798307703857503"><ele>214.0</ele><time>2026-03-27T11:58:40Z</time></trkpt><trkpt lat="43.28501118357753" lon="10.79833366569786"><ele>214.0</ele><time>2026-03-27T11:58:41Z</time></trkpt><trkpt lat="43.284923629864316" lon="10.798451884843457"><ele>214.0</ele><time>2026-03-27T11:58:43Z</time></trkpt><trkpt lat="43.284838694412485" lon="10.79842259256867"><ele>213.99999999999997</ele><time>2026-03-27T11:58:44Z</time></trkpt><trkpt lat="43.28475419333233" lon="10.79837585747135"><ele>213.99999999999997</ele><time>2026-03-27T11:58:45Z</time></trkpt><trkpt lat="43.28469246862569" lon="10.798349286400889"><ele>214.0</ele><time>2026-03-27T11:58:46Z</time></trkpt><trkpt lat="43.28457017943271" lon="10.798391111778406"><ele>214.0</ele><time>2026-03-27T11:58:48Z</time></trkpt><trkpt lat="43.284490057004916" lon="10.79842464238482"><ele>218.83333333333331</ele><time>2026-03-27T11:58:49Z</time></trkpt><trkpt lat="43.28441731888937" lon="10.798477904783992"><ele>223.66666666666666</ele><time>2026-03-27T11:58:50Z</time></trkpt><trkpt lat="43.284347620043995" lon="10.798514841495784"><ele>228.5</ele><time>2026-03-27T11:58:51Z</time></trkpt><trkpt lat="43.284285845646586" lon="10.798560006303706"><ele>233.33333333333331</ele><time>2026-03-27T11:58:52Z</time></trkpt><trkpt lat="43.28422802606265" lon="10.798699608614196"><ele>238.16666666666666</ele><time>2026-03-27T11:58:54Z</time></trkpt><trkpt lat="43.28414412401979" lon="10.798713978903695"><ele>243.0</ele><time>2026-03-27T11:58:55.999Z</time></trkpt><trkpt lat="43.284071531774366" lon="10.798671241848606"><ele>243.2</ele><time>2026-03-27T11:58:56.999Z</time></trkpt><trkpt lat="43.284001510141984" lon="10.798661105100395"><ele>243.4</ele><time>2026-03-27T11:58:57.999Z</time></trkpt><trkpt lat="43.28388516040255" lon="10.798618203138796"><ele>243.59999999999997</ele><time>2026-03-27T11:58:59.999Z</time></trkpt><trkpt lat="43.283760393423805" lon="10.798572872439399"><ele>243.79999999999998</ele><time>2026-03-27T11:59:01.999Z</time></trkpt><trkpt lat="43.28369250836082" lon="10.798496911608353"><ele>244.0</ele><time>2026-03-27T11:59:03.999Z</time></trkpt><trkpt lat="43.28371468171904" lon="10.79836591264283"><ele>248.39999999999998</ele><time>2026-03-27T11:59:05.999Z</time></trkpt><trkpt lat="43.28371906118823" lon="10.79821703068387"><ele>252.79999999999998</ele><time>2026-03-27T11:59:06.999Z</time></trkpt><trkpt lat="43.283741917026184" lon="10.798027575726195"><ele>257.20000000000005</ele><time>2026-03-27T11:59:07.999Z</time></trkpt><trkpt lat="43.28376881808766" lon="10.797905462131858"><ele>261.6</ele><time>2026-03-27T11:59:08.999Z</time></trkpt><trkpt lat="43.28379620493696" lon="10.797770178846873"><ele>266.0</ele><time>2026-03-27T11:59:09.999Z</time></trkpt><trkpt lat="43.283781295757194" lon="10.797658479176144"><ele>267.5</ele><time>2026-03-27T11:59:12.999Z</time></trkpt><trkpt lat="43.28370316286667" lon="10.797602809604028"><ele>269.0</ele><time>2026-03-27T11:59:15.999Z</time></trkpt><trkpt lat="43.28335857284988" lon="10.797329817698307"><ele>269.0</ele><time>2026-03-27T11:59:18.999Z</time></trkpt><trkpt lat="43.28327840626613" lon="10.797276551508853"><ele>269.0</ele><time>2026-03-27T11:59:19.999Z</time></trkpt><trkpt lat="43.283224024192954" lon="10.797146065582908"><ele>269.0</ele><time>2026-03-27T11:59:21.999Z</time></trkpt><trkpt lat="43.28329672709202" lon="10.796965394095665"><ele>269.0</ele><time>2026-03-27T11:59:23.999Z</time></trkpt><trkpt lat="43.28322233481856" lon="10.796851101238765"><ele>268.6666666666667</ele><time>2026-03-27T11:59:25.999Z</time></trkpt><trkpt lat="43.28315037115783" lon="10.796830446983936"><ele>268.33333333333337</ele><time>2026-03-27T11:59:26.999Z</time></trkpt><trkpt lat="43.28309067633739" lon="10.796776391214827"><ele>268.0</ele><time>2026-03-27T11:59:27.999Z</time></trkpt><trkpt lat="43.283032586278566" lon="10.79673531593944"><ele>267.6666666666667</ele><time>2026-03-27T11:59:28.999Z</time></trkpt><trkpt lat="43.282945462707" lon="10.796753838792968"><ele>267.3333333333333</ele><time>2026-03-27T11:59:29.999Z</time></trkpt><trkpt lat="43.28282322792134" lon="10.79678229681171"><ele>267.0</ele><time>2026-03-27T11:59:30.999Z</time></trkpt><trkpt lat="43.282741463307474" lon="10.796781188899105"><ele>269.6</ele><time>2026-03-27T11:59:31.999Z</time></trkpt><trkpt lat="43.28268080757218" lon="10.796728283691422"><ele>272.2</ele><time>2026-03-27T11:59:32.999Z</time></trkpt><trkpt lat="43.28261392381906" lon="10.79665629097923"><ele>274.8</ele><time>2026-03-27T11:59:33.999Z</time></trkpt><trkpt lat="43.282562397773894" lon="10.796560767016716"><ele>277.4</ele><time>2026-03-27T11:59:35.999Z</time></trkpt><trkpt lat="43.28246133697276" lon="10.796512680157445"><ele>280.0</ele><time>2026-03-27T11:59:36.999Z</time></trkpt><trkpt lat="43.28233894149038" lon="10.796429698179073"><ele>280.4</ele><time>2026-03-27T11:59:37.999Z</time></trkpt><trkpt lat="43.28225054430267" lon="10.796361901767808"><ele>280.8</ele><time>2026-03-27T11:59:38.999Z</time></trkpt><trkpt lat="43.28216151439897" lon="10.796303486840804"><ele>281.2</ele><time>2026-03-27T11:59:39.999Z</time></trkpt><trkpt lat="43.28210596950361" lon="10.796191446139778"><ele>281.6</ele><time>2026-03-27T11:59:40.999Z</time></trkpt><trkpt lat="43.282050334010485" lon="10.796080138008794"><ele>282.0</ele><time>2026-03-27T11:59:41.999Z</time></trkpt><trkpt lat="43.28201137657255" lon="10.79598221712944"><ele>282.0</ele><time>2026-03-27T11:59:42.999Z</time></trkpt><trkpt lat="43.28195277998056" lon="10.795908645916846"><ele>282.0</ele><time>2026-03-27T11:59:43.999Z</time></trkpt><trkpt lat="43.28189450063399" lon="10.795859624868234"><ele>282.0</ele><time>2026-03-27T11:59:44.999Z</time></trkpt><trkpt lat="43.28179039952089" lon="10.79583240960961"><ele>282.0</ele><time>2026-03-27T11:59:45.999Z</time></trkpt><trkpt lat="43.28171217052425" lon="10.795768204095962"><ele>282.0</ele><time>2026-03-27T11:59:46.999Z</time></trkpt><trkpt lat="43.2816565426625" lon="10.795666214039302"><ele>282.0</ele><time>2026-03-27T11:59:47.999Z</time></trkpt><trkpt lat="43.281593440315405" lon="10.795579616036225"><ele>282.0</ele><time>2026-03-27T11:59:48.999Z</time></trkpt><trkpt lat="43.28150217588368" lon="10.795532533521143"><ele>282.0</ele><time>2026-03-27T11:59:49.999Z</time></trkpt><trkpt lat="43.28139956481095" lon="10.795500227206777"><ele>282.0</ele><time>2026-03-27T11:59:50.999Z</time></trkpt><trkpt lat="43.2813016710922" lon="10.795482719173313"><ele>282.0</ele><time>2026-03-27T11:59:51.999Z</time></trkpt><trkpt lat="43.28118367462966" lon="10.795488938606633"><ele>282.0</ele><time>2026-03-27T11:59:52.999Z</time></trkpt><trkpt lat="43.28106883559121" lon="10.795492908399583"><ele>282.8</ele><time>2026-03-27T11:59:53.999Z</time></trkpt><trkpt lat="43.28098566469725" lon="10.795476636928015"><ele>283.6</ele><time>2026-03-27T11:59:54.999Z</time></trkpt><trkpt lat="43.28089758586813" lon="10.795444172402025"><ele>284.40000000000003</ele><time>2026-03-27T11:59:56Z</time></trkpt><trkpt lat="43.280827007906204" lon="10.795396318504183"><ele>285.2</ele><time>2026-03-27T11:59:57Z</time></trkpt><trkpt lat="43.28074480560451" lon="10.795346253367093"><ele>286.0</ele><time>2026-03-27T11:59:58Z</time></trkpt><trkpt lat="43.28063389578342" lon="10.795293514882996"><ele>286.8333333333333</ele><time>2026-03-27T12:00:00Z</time></trkpt><trkpt lat="43.28053828750478" lon="10.795339043200004"><ele>287.66666666666663</ele><time>2026-03-27T12:00:02Z</time></trkpt><trkpt lat="43.280477172564915" lon="10.795388828349218"><ele>288.5</ele><time>2026-03-27T12:00:03Z</time></trkpt><trkpt lat="43.28041459183574" lon="10.79541682431318"><ele>289.3333333333333</ele><time>2026-03-27T12:00:04Z</time></trkpt><trkpt lat="43.28033811413129" lon="10.795464513502768"><ele>290.1666666666667</ele><time>2026-03-27T12:00:05Z</time></trkpt><trkpt lat="43.280262460281115" lon="10.795490039902907"><ele>291.0</ele><time>2026-03-27T12:00:06Z</time></trkpt><trkpt lat="43.28017393605133" lon="10.795520777284151"><ele>291.0</ele><time>2026-03-27T12:00:08Z</time></trkpt><trkpt lat="43.28015034040036" lon="10.79542279632743"><ele>291.0</ele><time>2026-03-27T12:00:11Z</time></trkpt><trkpt lat="43.280102196323604" lon="10.795308357988278"><ele>291.0</ele><time>2026-03-27T12:00:15Z</time></trkpt><trkpt lat="43.28009339764951" lon="10.79520735109221"><ele>291.0</ele><time>2026-03-27T12:00:18Z</time></trkpt><trkpt lat="43.279962576852455" lon="10.794447629290591"><ele>290.40000000000003</ele><time>2026-03-27T12:00:21Z</time></trkpt><trkpt lat="43.27988628998377" lon="10.79434815690957"><ele>289.8</ele><time>2026-03-27T12:00:22Z</time></trkpt><trkpt lat="43.27984107975954" lon="10.794276956474445"><ele>289.20000000000005</ele><time>2026-03-27T12:00:23Z</time></trkpt><trkpt lat="43.279790948684166" lon="10.79419731244646"><ele>288.6</ele><time>2026-03-27T12:00:24Z</time></trkpt><trkpt lat="43.27961985676637" lon="10.794189824632092"><ele>288.0</ele><time>2026-03-27T12:00:26Z</time></trkpt><trkpt lat="43.27953728264424" lon="10.794249669153839"><ele>290.5</ele><time>2026-03-27T12:00:27Z</time></trkpt><trkpt lat="43.27944539354397" lon="10.794321302290006"><ele>293.0</ele><time>2026-03-27T12:00:28Z</time></trkpt><trkpt lat="43.279334196478025" lon="10.79443128046513"><ele>295.5</ele><time>2026-03-27T12:00:29Z</time></trkpt><trkpt lat="43.27921997316412" lon="10.794528334874217"><ele>298.0</ele><time>2026-03-27T12:00:30Z</time></trkpt><trkpt lat="43.27913251987973" lon="10.794564363948938"><ele>299.6</ele><time>2026-03-27T12:00:31Z</time></trkpt><trkpt lat="43.279055209222776" lon="10.794620501420729"><ele>301.20000000000005</ele><time>2026-03-27T12:00:32Z</time></trkpt><trkpt lat="43.27896274259695" lon="10.794725248097425"><ele>302.8</ele><time>2026-03-27T12:00:33Z</time></trkpt><trkpt lat="43.27883783860114" lon="10.794708577982195"><ele>304.40000000000003</ele><time>2026-03-27T12:00:34Z</time></trkpt><trkpt lat="43.27873632177267" lon="10.794778119505056"><ele>306.0</ele><time>2026-03-27T12:00:35Z</time></trkpt><trkpt lat="43.278621238442675" lon="10.794778708921656"><ele>306.0</ele><time>2026-03-27T12:00:36Z</time></trkpt><trkpt lat="43.27854992217769" lon="10.794781005538669"><ele>306.0</ele><time>2026-03-27T12:00:37Z</time></trkpt><trkpt lat="43.27848534561815" lon="10.794691268493596"><ele>306.0</ele><time>2026-03-27T12:00:38Z</time></trkpt><trkpt lat="43.27839637583885" lon="10.794672437219575"><ele>306.0</ele><time>2026-03-27T12:00:41Z</time></trkpt><trkpt lat="43.27833849065454" lon="10.794714933221968"><ele>306.0</ele><time>2026-03-27T12:00:42Z</time></trkpt><trkpt lat="43.27828893083447" lon="10.794771370383883"><ele>306.0</ele><time>2026-03-27T12:00:43Z</time></trkpt><trkpt lat="43.2782175741549" lon="10.794754402806365"><ele>306.0</ele><time>2026-03-27T12:00:46Z</time></trkpt><trkpt lat="43.27819521350936" lon="10.79465484344386"><ele>306.0</ele><time>2026-03-27T12:00:48Z</time></trkpt><trkpt lat="43.27825105103407" lon="10.794288243609717"><ele>306.0</ele><time>2026-03-27T12:00:50Z</time></trkpt><trkpt lat="43.278275851471854" lon="10.794187152090107"><ele>306.0</ele><time>2026-03-27T12:00:51Z</time></trkpt><trkpt lat="43.2782626144537" lon="10.794072583949086"><ele>305.0</ele><time>2026-03-27T12:00:52Z</time></trkpt><trkpt lat="43.278221164623375" lon="10.793933882225126"><ele>304.0</ele><time>2026-03-27T12:00:53Z</time></trkpt><trkpt lat="43.27824147841544" lon="10.793824615427154"><ele>303.0</ele><time>2026-03-27T12:00:54Z</time></trkpt><trkpt lat="43.27823376510364" lon="10.79372113446683"><ele>302.0</ele><time>2026-03-27T12:00:55Z</time></trkpt><trkpt lat="43.2782801326577" lon="10.793514187541582"><ele>301.0</ele><time>2026-03-27T12:00:57Z</time></trkpt><trkpt lat="43.27832866575609" lon="10.793405352045516"><ele>301.0</ele><time>2026-03-27T12:00:58Z</time></trkpt><trkpt lat="43.27837618915397" lon="10.793295502159978"><ele>301.0</ele><time>2026-03-27T12:00:59Z</time></trkpt><trkpt lat="43.278421870264644" lon="10.793188033602602"><ele>301.0</ele><time>2026-03-27T12:01:00Z</time></trkpt><trkpt lat="43.278473524125836" lon="10.793067202615926"><ele>301.0</ele><time>2026-03-27T12:01:01Z</time></trkpt><trkpt lat="43.278512370462195" lon="10.792944806246576"><ele>301.0</ele><time>2026-03-27T12:01:02Z</time></trkpt><trkpt lat="43.278563629575075" lon="10.792824546367006"><ele>301.0</ele><time>2026-03-27T12:01:03Z</time></trkpt><trkpt lat="43.278611389303705" lon="10.792700260377948"><ele>301.0</ele><time>2026-03-27T12:01:03.999Z</time></trkpt><trkpt lat="43.27865572054104" lon="10.792586549566446"><ele>301.0</ele><time>2026-03-27T12:01:04.999Z</time></trkpt><trkpt lat="43.27868064920751" lon="10.792480419638231"><ele>301.0</ele><time>2026-03-27T12:01:05.999Z</time></trkpt><trkpt lat="43.278740209383955" lon="10.792292510948458"><ele>301.0</ele><time>2026-03-27T12:01:07.999Z</time></trkpt><trkpt lat="43.278796997005784" lon="10.792174740647745"><ele>301.0</ele><time>2026-03-27T12:01:08.999Z</time></trkpt><trkpt lat="43.27888524557508" lon="10.792185155257002"><ele>301.0</ele><time>2026-03-27T12:01:09.999Z</time></trkpt><trkpt lat="43.27897904376163" lon="10.79213695083337"><ele>301.0</ele><time>2026-03-27T12:01:10.999Z</time></trkpt><trkpt lat="43.279046579723634" lon="10.792103655864754"><ele>301.0</ele><time>2026-03-27T12:01:11.999Z</time></trkpt><trkpt lat="43.27917263648279" lon="10.792096885897037"><ele>301.0</ele><time>2026-03-27T12:01:13.999Z</time></trkpt><trkpt lat="43.27924471461372" lon="10.792172482950647"><ele>301.0</ele><time>2026-03-27T12:01:14.999Z</time></trkpt><trkpt lat="43.27929618647596" lon="10.792286092633457"><ele>301.0</ele><time>2026-03-27T12:01:15.999Z</time></trkpt><trkpt lat="43.279341808729484" lon="10.792397671466043"><ele>301.0</ele><time>2026-03-27T12:01:16.999Z</time></trkpt><trkpt lat="43.279389573663565" lon="10.792488732283253"><ele>301.0</ele><time>2026-03-27T12:01:17.999Z</time></trkpt><trkpt lat="43.27951633172546" lon="10.792523855675888"><ele>301.0</ele><time>2026-03-27T12:01:19.999Z</time></trkpt><trkpt lat="43.27960041408962" lon="10.792523342705131"><ele>301.0</ele><time>2026-03-27T12:01:20.999Z</time></trkpt><trkpt lat="43.27967888693345" lon="10.79253753832799"><ele>301.0</ele><time>2026-03-27T12:01:21.999Z</time></trkpt><trkpt lat="43.279757534401526" lon="10.792589439113115"><ele>301.0</ele><time>2026-03-27T12:01:22.999Z</time></trkpt><trkpt lat="43.27980988633035" lon="10.792694086901392"><ele>301.0</ele><time>2026-03-27T12:01:23.999Z</time></trkpt><trkpt lat="43.27987312397802" lon="10.792799740317362"><ele>301.0</ele><time>2026-03-27T12:01:24.999Z</time></trkpt><trkpt lat="43.27990565386163" lon="10.792902041053265"><ele>301.0</ele><time>2026-03-27T12:01:25.999Z</time></trkpt><trkpt lat="43.279955662922944" lon="10.79301148656783"><ele>298.5</ele><time>2026-03-27T12:01:26.999Z</time></trkpt><trkpt lat="43.28000303552063" lon="10.793098647666074"><ele>296.0</ele><time>2026-03-27T12:01:27.999Z</time></trkpt><trkpt lat="43.280037846897336" lon="10.79317599539366"><ele>293.5</ele><time>2026-03-27T12:01:28.999Z</time></trkpt><trkpt lat="43.28006668965517" lon="10.793300267758852"><ele>291.0</ele><time>2026-03-27T12:01:30.999Z</time></trkpt><trkpt lat="43.2801896599936" lon="10.793262634534358"><ele>288.5</ele><time>2026-03-27T12:01:32.999Z</time></trkpt><trkpt lat="43.280225703069625" lon="10.793171702290609"><ele>286.0</ele><time>2026-03-27T12:01:33.999Z</time></trkpt><trkpt lat="43.2802206181526" lon="10.793044841797435"><ele>286.0</ele><time>2026-03-27T12:01:34.999Z</time></trkpt><trkpt lat="43.2802045214764" lon="10.79292437121489"><ele>286.0</ele><time>2026-03-27T12:01:35.999Z</time></trkpt><trkpt lat="43.280188641618906" lon="10.792811761737434"><ele>286.0</ele><time>2026-03-27T12:01:36.999Z</time></trkpt><trkpt lat="43.28019007663385" lon="10.792707514245794"><ele>286.0</ele><time>2026-03-27T12:01:37.999Z</time></trkpt><trkpt lat="43.28018981344653" lon="10.7925966511513"><ele>286.0</ele><time>2026-03-27T12:01:38.999Z</time></trkpt><trkpt lat="43.28019242886654" lon="10.792480437408623"><ele>286.0</ele><time>2026-03-27T12:01:39.999Z</time></trkpt><trkpt lat="43.28016280867631" lon="10.792376180827947"><ele>286.0</ele><time>2026-03-27T12:01:40.999Z</time></trkpt><trkpt lat="43.280114810212666" lon="10.792288921158484"><ele>286.0</ele><time>2026-03-27T12:01:41.999Z</time></trkpt><trkpt lat="43.28006925605161" lon="10.792197286243146"><ele>286.0</ele><time>2026-03-27T12:01:42.999Z</time></trkpt><trkpt lat="43.2800365153983" lon="10.792094148249003"><ele>286.0</ele><time>2026-03-27T12:01:43.999Z</time></trkpt><trkpt lat="43.28003429459808" lon="10.791928227910738"><ele>286.0</ele><time>2026-03-27T12:01:44.999Z</time></trkpt><trkpt lat="43.28005268497567" lon="10.791810213883224"><ele>285.0</ele><time>2026-03-27T12:01:45.999Z</time></trkpt><trkpt lat="43.28005242324947" lon="10.791662038577885"><ele>284.0</ele><time>2026-03-27T12:01:47.999Z</time></trkpt><trkpt lat="43.2800595390646" lon="10.791524768994627"><ele>283.0</ele><time>2026-03-27T12:01:49.999Z</time></trkpt><trkpt lat="43.28009913110976" lon="10.791418473692136"><ele>282.0</ele><time>2026-03-27T12:01:50.999Z</time></trkpt><trkpt lat="43.28017032231605" lon="10.79135618808435"><ele>281.0</ele><time>2026-03-27T12:01:51.999Z</time></trkpt><trkpt lat="43.28021101599466" lon="10.791280051774784"><ele>280.0</ele><time>2026-03-27T12:01:52.999Z</time></trkpt><trkpt lat="43.28021882735092" lon="10.791169954856539"><ele>280.0</ele><time>2026-03-27T12:01:53.999Z</time></trkpt><trkpt lat="43.280173156139064" lon="10.791068475410388"><ele>280.0</ele><time>2026-03-27T12:01:54.999Z</time></trkpt><trkpt lat="43.280132265133055" lon="10.790973083944465"><ele>280.0</ele><time>2026-03-27T12:01:55.999Z</time></trkpt><trkpt lat="43.2801063479847" lon="10.79088473613386"><ele>280.0</ele><time>2026-03-27T12:01:56.999Z</time></trkpt><trkpt lat="43.28001840948656" lon="10.790844864523892"><ele>280.0</ele><time>2026-03-27T12:01:58.999Z</time></trkpt><trkpt lat="43.279887569550986" lon="10.79089618972655"><ele>276.4</ele><time>2026-03-27T12:02:00.999Z</time></trkpt><trkpt lat="43.27982211331058" lon="10.790908716659793"><ele>272.8</ele><time>2026-03-27T12:02:02Z</time></trkpt><trkpt lat="43.27970548605103" lon="10.79083847855473"><ele>269.2</ele><time>2026-03-27T12:02:04Z</time></trkpt><trkpt lat="43.27962157108125" lon="10.790769044262943"><ele>265.6</ele><time>2026-03-27T12:02:05Z</time></trkpt><trkpt lat="43.27954598441977" lon="10.790715812436254"><ele>262.0</ele><time>2026-03-27T12:02:06Z</time></trkpt><trkpt lat="43.279474267189215" lon="10.790682201496633"><ele>261.5</ele><time>2026-03-27T12:02:07Z</time></trkpt><trkpt lat="43.27940785356193" lon="10.790653630690471"><ele>261.0</ele><time>2026-03-27T12:02:08Z</time></trkpt><trkpt lat="43.2793409708205" lon="10.790622301385683"><ele>260.5</ele><time>2026-03-27T12:02:09Z</time></trkpt><trkpt lat="43.27927478746712" lon="10.790593857865268"><ele>260.0</ele><time>2026-03-27T12:02:10Z</time></trkpt><trkpt lat="43.27920606657525" lon="10.79057900787058"><ele>259.5</ele><time>2026-03-27T12:02:12Z</time></trkpt><trkpt lat="43.279104127611646" lon="10.790502052871613"><ele>259.0</ele><time>2026-03-27T12:02:14Z</time></trkpt><trkpt lat="43.27903391903541" lon="10.790375404223958"><ele>259.0</ele><time>2026-03-27T12:02:16Z</time></trkpt><trkpt lat="43.27900400606671" lon="10.790229009373114"><ele>259.0</ele><time>2026-03-27T12:02:18Z</time></trkpt><trkpt lat="43.27905686755305" lon="10.790050430655452"><ele>259.0</ele><time>2026-03-27T12:02:20Z</time></trkpt><trkpt lat="43.27910335388668" lon="10.789969724603639"><ele>259.0</ele><time>2026-03-27T12:02:21Z</time></trkpt><trkpt lat="43.27915869574349" lon="10.789854314189734"><ele>259.0</ele><time>2026-03-27T12:02:23Z</time></trkpt><trkpt lat="43.279103157353525" lon="10.789728410368221"><ele>256.4</ele><time>2026-03-27T12:02:26Z</time></trkpt><trkpt lat="43.279023563642674" lon="10.789610167228709"><ele>253.79999999999998</ele><time>2026-03-27T12:02:28Z</time></trkpt><trkpt lat="43.278944210457226" lon="10.789530186238627"><ele>251.20000000000002</ele><time>2026-03-27T12:02:30Z</time></trkpt><trkpt lat="43.278854441512166" lon="10.789552151373508"><ele>248.60000000000002</ele><time>2026-03-27T12:02:34Z</time></trkpt><trkpt lat="43.278796166372956" lon="10.789459512417585"><ele>246.0</ele><time>2026-03-27T12:02:37Z</time></trkpt><trkpt lat="43.278794895959194" lon="10.78935021232566"><ele>243.33333333333334</ele><time>2026-03-27T12:02:41Z</time></trkpt><trkpt lat="43.27885631451003" lon="10.789291148377066"><ele>240.66666666666669</ele><time>2026-03-27T12:02:44Z</time></trkpt><trkpt lat="43.27889466859242" lon="10.78920896194961"><ele>238.0</ele><time>2026-03-27T12:02:46Z</time></trkpt><trkpt lat="43.27885152327025" lon="10.789087670531076"><ele>235.33333333333334</ele><time>2026-03-27T12:02:48Z</time></trkpt><trkpt lat="43.2788286971707" lon="10.788963394348933"><ele>232.66666666666669</ele><time>2026-03-27T12:02:50Z</time></trkpt><trkpt lat="43.27879680339122" lon="10.788836205061688"><ele>230.0</ele><time>2026-03-27T12:02:52Z</time></trkpt><trkpt lat="43.27878493269068" lon="10.78871533520996"><ele>230.0</ele><time>2026-03-27T12:02:54Z</time></trkpt><trkpt lat="43.27873190530136" lon="10.788546718366552"><ele>230.0</ele><time>2026-03-27T12:02:56Z</time></trkpt><trkpt lat="43.27866986018216" lon="10.788507699354229"><ele>230.0</ele><time>2026-03-27T12:02:57Z</time></trkpt><trkpt lat="43.27858239448957" lon="10.788433739013865"><ele>230.0</ele><time>2026-03-27T12:02:58.999Z</time></trkpt><trkpt lat="43.278534774467616" lon="10.788349491306798"><ele>230.0</ele><time>2026-03-27T12:03:00.999Z</time></trkpt><trkpt lat="43.27842112733444" lon="10.788237049255939"><ele>227.66666666666669</ele><time>2026-03-27T12:03:02.999Z</time></trkpt><trkpt lat="43.27835844011841" lon="10.788177005223025"><ele>225.33333333333334</ele><time>2026-03-27T12:03:03.999Z</time></trkpt><trkpt lat="43.278315804532184" lon="10.788106343415008"><ele>223.0</ele><time>2026-03-27T12:03:04.999Z</time></trkpt><trkpt lat="43.27827469155454" lon="10.787952806066798"><ele>220.66666666666669</ele><time>2026-03-27T12:03:06.999Z</time></trkpt><trkpt lat="43.27824572765897" lon="10.787866586478598"><ele>218.33333333333334</ele><time>2026-03-27T12:03:07.999Z</time></trkpt><trkpt lat="43.27816909121144" lon="10.787788577658707"><ele>216.0</ele><time>2026-03-27T12:03:08.999Z</time></trkpt><trkpt lat="43.27809567805271" lon="10.787658269752784"><ele>215.8</ele><time>2026-03-27T12:03:10.999Z</time></trkpt><trkpt lat="43.278028519132384" lon="10.787602703638001"><ele>215.60000000000002</ele><time>2026-03-27T12:03:11.999Z</time></trkpt><trkpt lat="43.27796736338426" lon="10.787553262945472"><ele>215.4</ele><time>2026-03-27T12:03:12.999Z</time></trkpt><trkpt lat="43.27791228403484" lon="10.787386811518651"><ele>215.2</ele><time>2026-03-27T12:03:14.999Z</time></trkpt><trkpt lat="43.27779859632877" lon="10.787330921307"><ele>215.0</ele><time>2026-03-27T12:03:16.999Z</time></trkpt><trkpt lat="43.27776476373048" lon="10.787211491801735"><ele>215.00000000000003</ele><time>2026-03-27T12:03:18.999Z</time></trkpt><trkpt lat="43.27782368256483" lon="10.787157589664922"><ele>215.0</ele><time>2026-03-27T12:03:19.999Z</time></trkpt><trkpt lat="43.27783341788844" lon="10.787026838994386"><ele>215.0</ele><time>2026-03-27T12:03:23.999Z</time></trkpt><trkpt lat="43.27785981405702" lon="10.786932127356183"><ele>215.0</ele><time>2026-03-27T12:03:25.999Z</time></trkpt><trkpt lat="43.27791405379897" lon="10.786831133136408"><ele>215.00000000000003</ele><time>2026-03-27T12:03:27.999Z</time></trkpt><trkpt lat="43.277980328257115" lon="10.78675636022757"><ele>215.0</ele><time>2026-03-27T12:03:33.999Z</time></trkpt><trkpt lat="43.27803117703811" lon="10.786691876564912"><ele>214.8</ele><time>2026-03-27T12:03:35.999Z</time></trkpt><trkpt lat="43.27810759374742" lon="10.786615279780479"><ele>214.6</ele><time>2026-03-27T12:03:37.999Z</time></trkpt><trkpt lat="43.27820826577721" lon="10.786495394096896"><ele>214.39999999999998</ele><time>2026-03-27T12:03:39.999Z</time></trkpt><trkpt lat="43.27823946359701" lon="10.786395364653618"><ele>214.2</ele><time>2026-03-27T12:03:41.999Z</time></trkpt><trkpt lat="43.2782309969862" lon="10.786283066238017"><ele>214.0</ele><time>2026-03-27T12:03:42.999Z</time></trkpt><trkpt lat="43.278269473437966" lon="10.786116954377125"><ele>214.0</ele><time>2026-03-27T12:03:44.999Z</time></trkpt><trkpt lat="43.278292988334044" lon="10.786029161035977"><ele>213.99999999999997</ele><time>2026-03-27T12:03:46.999Z</time></trkpt><trkpt lat="43.278220216318935" lon="10.785986670009379"><ele>213.99999999999997</ele><time>2026-03-27T12:03:49.999Z</time></trkpt><trkpt lat="43.27815881061836" lon="10.785833541345726"><ele>214.0</ele><time>2026-03-27T12:03:50.999Z</time></trkpt><trkpt lat="43.278076447100695" lon="10.785843719402203"><ele>214.0</ele><time>2026-03-27T12:03:51.999Z</time></trkpt><trkpt lat="43.277986342420185" lon="10.785875801820692"><ele>219.16666666666666</ele><time>2026-03-27T12:03:52.999Z</time></trkpt><trkpt lat="43.27791066062781" lon="10.785914659243332"><ele>224.33333333333331</ele><time>2026-03-27T12:03:53.999Z</time></trkpt><trkpt lat="43.27784482660728" lon="10.785947952282585"><ele>229.5</ele><time>2026-03-27T12:03:54.999Z</time></trkpt><trkpt lat="43.277759419500875" lon="10.785978151320112"><ele>234.66666666666669</ele><time>2026-03-27T12:03:56.999Z</time></trkpt><trkpt lat="43.27772567981229" lon="10.785845093762552"><ele>239.83333333333334</ele><time>2026-03-27T12:03:59.999Z</time></trkpt><trkpt lat="43.277734471958574" lon="10.785747802444462"><ele>245.0</ele><time>2026-03-27T12:04:00.999Z</time></trkpt><trkpt lat="43.27774235113841" lon="10.78559819237922"><ele>245.0</ele><time>2026-03-27T12:04:02.999Z</time></trkpt><trkpt lat="43.2777737202676" lon="10.785470082279327"><ele>245.0</ele><time>2026-03-27T12:04:04.999Z</time></trkpt><trkpt lat="43.277884142731835" lon="10.785363014343996"><ele>245.0</ele><time>2026-03-27T12:04:06.999Z</time></trkpt><trkpt lat="43.277943880492614" lon="10.785309797508722"><ele>245.0</ele><time>2026-03-27T12:04:08Z</time></trkpt><trkpt lat="43.277994394848776" lon="10.785245287138554"><ele>245.0</ele><time>2026-03-27T12:04:09Z</time></trkpt><trkpt lat="43.27805265577068" lon="10.785113469543514"><ele>245.00000000000003</ele><time>2026-03-27T12:04:11Z</time></trkpt><trkpt lat="43.2780301439025" lon="10.785202262471245"><ele>245.0</ele><time>2026-03-27T12:04:12Z</time></trkpt><trkpt lat="43.27809933449214" lon="10.785082955187251"><ele>245.0</ele><time>2026-03-27T12:04:50Z</time></trkpt><trkpt lat="43.27813022685887" lon="10.784998128122247"><ele>245.0</ele><time>2026-03-27T12:04:51Z</time></trkpt><trkpt lat="43.278171335411514" lon="10.78492460462417"><ele>245.00000000000003</ele><time>2026-03-27T12:04:52Z</time></trkpt><trkpt lat="43.2782348285139" lon="10.784893360404517"><ele>245.0</ele><time>2026-03-27T12:04:53Z</time></trkpt><trkpt lat="43.27831437720695" lon="10.784892013127676"><ele>248.66666666666669</ele><time>2026-03-27T12:04:54Z</time></trkpt><trkpt lat="43.27840046654892" lon="10.78486800002593"><ele>252.33333333333334</ele><time>2026-03-27T12:04:55Z</time></trkpt><trkpt lat="43.278490143179695" lon="10.78483186352512"><ele>256.0</ele><time>2026-03-27T12:04:56Z</time></trkpt><trkpt lat="43.27857654876625" lon="10.78479249019466"><ele>259.6666666666667</ele><time>2026-03-27T12:04:57Z</time></trkpt><trkpt lat="43.278649794299476" lon="10.784746642191594"><ele>263.3333333333333</ele><time>2026-03-27T12:04:58Z</time></trkpt><trkpt lat="43.27873976719744" lon="10.784708556889576"><ele>267.0</ele><time>2026-03-27T12:04:59Z</time></trkpt><trkpt lat="43.27882364019218" lon="10.784673406305949"><ele>267.0</ele><time>2026-03-27T12:05:00Z</time></trkpt><trkpt lat="43.278873066511686" lon="10.78460454761791"><ele>267.0</ele><time>2026-03-27T12:05:02Z</time></trkpt><trkpt lat="43.27881890035535" lon="10.784555643093974"><ele>267.0</ele><time>2026-03-27T12:05:05Z</time></trkpt><trkpt lat="43.27873337497309" lon="10.784537374989931"><ele>267.0</ele><time>2026-03-27T12:05:07Z</time></trkpt><trkpt lat="43.2786921244925" lon="10.784419962019667"><ele>267.0</ele><time>2026-03-27T12:05:09Z</time></trkpt><trkpt lat="43.27874348199454" lon="10.784347081515984"><ele>267.0</ele><time>2026-03-27T12:05:14Z</time></trkpt><trkpt lat="43.278823674099755" lon="10.784265109005995"><ele>270.3333333333333</ele><time>2026-03-27T12:05:16.999Z</time></trkpt><trkpt lat="43.27879335261691" lon="10.784183926764587"><ele>273.6666666666667</ele><time>2026-03-27T12:05:19.999Z</time></trkpt><trkpt lat="43.27876049172049" lon="10.784033879797308"><ele>277.0</ele><time>2026-03-27T12:05:23.999Z</time></trkpt><trkpt lat="43.27871188668358" lon="10.783927192744697"><ele>280.33333333333337</ele><time>2026-03-27T12:05:25.999Z</time></trkpt><trkpt lat="43.27869530482571" lon="10.783802771383344"><ele>283.6666666666667</ele><time>2026-03-27T12:05:27.999Z</time></trkpt><trkpt lat="43.278640230377924" lon="10.78373076522057"><ele>287.0</ele><time>2026-03-27T12:05:29.999Z</time></trkpt><trkpt lat="43.2786041847831" lon="10.78358805766476"><ele>293.0</ele><time>2026-03-27T12:05:30.999Z</time></trkpt><trkpt lat="43.27855184374345" lon="10.78301896645477"><ele>299.0</ele><time>2026-03-27T12:05:31.999Z</time></trkpt><trkpt lat="43.278556050721754" lon="10.78289602811115"><ele>299.0</ele><time>2026-03-27T12:05:32.999Z</time></trkpt><trkpt lat="43.278579707472254" lon="10.7827821713888"><ele>299.0</ele><time>2026-03-27T12:05:33.999Z</time></trkpt><trkpt lat="43.278608111895885" lon="10.782667770241886"><ele>299.0</ele><time>2026-03-27T12:05:34.999Z</time></trkpt><trkpt lat="43.27865599312392" lon="10.782604376095607"><ele>299.0</ele><time>2026-03-27T12:05:35.999Z</time></trkpt><trkpt lat="43.27868060140427" lon="10.782466121317213"><ele>299.0</ele><time>2026-03-27T12:05:37.999Z</time></trkpt><trkpt lat="43.27874369525957" lon="10.782376869220077"><ele>299.0</ele><time>2026-03-27T12:05:38.999Z</time></trkpt><trkpt lat="43.2788030250737" lon="10.782263625762193"><ele>301.1666666666667</ele><time>2026-03-27T12:05:39.999Z</time></trkpt><trkpt lat="43.278832902917884" lon="10.782186923776333"><ele>303.33333333333337</ele><time>2026-03-27T12:05:40.999Z</time></trkpt><trkpt lat="43.27885402410168" lon="10.782310251333264"><ele>305.5</ele><time>2026-03-27T12:06:02.999Z</time></trkpt><trkpt lat="43.278842958432335" lon="10.782450564387904"><ele>307.6666666666667</ele><time>2026-03-27T12:06:04.999Z</time></trkpt><trkpt lat="43.2788421668477" lon="10.782542846753211"><ele>309.8333333333333</ele><time>2026-03-27T12:06:06.999Z</time></trkpt><trkpt lat="43.2788704559395" lon="10.782637453614367"><ele>312.0</ele><time>2026-03-27T12:06:09.999Z</time></trkpt><trkpt lat="43.278941002975515" lon="10.782721818535956"><ele>313.3333333333333</ele><time>2026-03-27T12:06:11.999Z</time></trkpt><trkpt lat="43.27904036296052" lon="10.78278352925059"><ele>314.6666666666667</ele><time>2026-03-27T12:06:14Z</time></trkpt><trkpt lat="43.27911755386301" lon="10.782808048101943"><ele>316.0</ele><time>2026-03-27T12:06:16Z</time></trkpt><trkpt lat="43.27911837159021" lon="10.782719110850252"><ele>317.33333333333337</ele><time>2026-03-27T12:06:25Z</time></trkpt><trkpt lat="43.27920398030767" lon="10.782682583772509"><ele>318.6666666666667</ele><time>2026-03-27T12:06:29Z</time></trkpt><trkpt lat="43.27926714574862" lon="10.782649322619827"><ele>320.0</ele><time>2026-03-27T12:06:31Z</time></trkpt><trkpt lat="43.27932066236751" lon="10.782586953222447"><ele>323.0</ele><time>2026-03-27T12:06:33Z</time></trkpt><trkpt lat="43.279372684865855" lon="10.782497837227456"><ele>326.0</ele><time>2026-03-27T12:06:36Z</time></trkpt><trkpt lat="43.27941185459689" lon="10.782425313777404"><ele>329.0</ele><time>2026-03-27T12:06:40Z</time></trkpt><trkpt lat="43.27947120748772" lon="10.782346446348265"><ele>332.0</ele><time>2026-03-27T12:06:45Z</time></trkpt><trkpt lat="43.279550842882635" lon="10.782253178839575"><ele>335.0</ele><time>2026-03-27T12:06:46Z</time></trkpt><trkpt lat="43.27961372600372" lon="10.782141460183702"><ele>338.0</ele><time>2026-03-27T12:06:47Z</time></trkpt><trkpt lat="43.279658382056915" lon="10.782070292039974"><ele>338.0</ele><time>2026-03-27T12:06:48Z</time></trkpt><trkpt lat="43.279748407315765" lon="10.781942462924615"><ele>338.0</ele><time>2026-03-27T12:06:50Z</time></trkpt><trkpt lat="43.27981745344858" lon="10.781822978663397"><ele>338.0</ele><time>2026-03-27T12:06:52Z</time></trkpt><trkpt lat="43.27987984634214" lon="10.78169849318629"><ele>338.0</ele><time>2026-03-27T12:06:54Z</time></trkpt><trkpt lat="43.279892986198035" lon="10.781560719762386"><ele>339.0</ele><time>2026-03-27T12:06:56Z</time></trkpt><trkpt lat="43.279820282273114" lon="10.781398575929742"><ele>340.0</ele><time>2026-03-27T12:06:58Z</time></trkpt><trkpt lat="43.2798339421437" lon="10.781300803209135"><ele>341.0</ele><time>2026-03-27T12:06:59Z</time></trkpt><trkpt lat="43.27986448299609" lon="10.781224435680492"><ele>342.0</ele><time>2026-03-27T12:07:00Z</time></trkpt><trkpt lat="43.27997162067961" lon="10.781223719013207"><ele>343.0</ele><time>2026-03-27T12:07:02Z</time></trkpt><trkpt lat="43.27999495267914" lon="10.78130735551374"><ele>344.0</ele><time>2026-03-27T12:07:03Z</time></trkpt><trkpt lat="43.28004957767008" lon="10.781351654584624"><ele>344.0</ele><time>2026-03-27T12:07:07Z</time></trkpt><trkpt lat="43.280143679787656" lon="10.781294179199179"><ele>344.0</ele><time>2026-03-27T12:07:10Z</time></trkpt><trkpt lat="43.28021555545209" lon="10.781217096810792"><ele>344.0</ele><time>2026-03-27T12:07:13Z</time></trkpt><trkpt lat="43.28041956934933" lon="10.780954836550137"><ele>346.4</ele><time>2026-03-27T12:07:14Z</time></trkpt><trkpt lat="43.28049700184803" lon="10.780809609758402"><ele>348.79999999999995</ele><time>2026-03-27T12:07:15.999Z</time></trkpt><trkpt lat="43.280534617780695" lon="10.780711316947993"><ele>351.20000000000005</ele><time>2026-03-27T12:07:16.999Z</time></trkpt><trkpt lat="43.280516629143904" lon="10.78059399507972"><ele>353.6</ele><time>2026-03-27T12:07:18.999Z</time></trkpt><trkpt lat="43.2804569093704" lon="10.780488562617512"><ele>356.0</ele><time>2026-03-27T12:07:19.999Z</time></trkpt><trkpt lat="43.280392438177586" lon="10.780391701219058"><ele>356.0</ele><time>2026-03-27T12:07:20.999Z</time></trkpt><trkpt lat="43.280313026612504" lon="10.780371999627492"><ele>356.0</ele><time>2026-03-27T12:07:22.999Z</time></trkpt><trkpt lat="43.28023524830395" lon="10.780437933446509"><ele>356.0</ele><time>2026-03-27T12:07:25.999Z</time></trkpt><trkpt lat="43.28017755565521" lon="10.780501345704112"><ele>356.0</ele><time>2026-03-27T12:07:27.999Z</time></trkpt><trkpt lat="43.280103139783506" lon="10.780536901565638"><ele>356.0</ele><time>2026-03-27T12:07:30.999Z</time></trkpt><trkpt lat="43.280039425058526" lon="10.780531613880761"><ele>356.0</ele><time>2026-03-27T12:07:32.999Z</time></trkpt><trkpt lat="43.27996731945357" lon="10.780521596577199"><ele>356.0</ele><time>2026-03-27T12:10:39.999Z</time></trkpt><trkpt lat="43.27993479502405" lon="10.780648506746225"><ele>356.0</ele><time>2026-03-27T12:10:42.999Z</time></trkpt><trkpt lat="43.279924629611074" lon="10.780782390951611"><ele>356.0</ele><time>2026-03-27T12:10:44.999Z</time></trkpt><trkpt lat="43.27987110243929" lon="10.780911401502603"><ele>356.0</ele><time>2026-03-27T12:10:46.999Z</time></trkpt><trkpt lat="43.279790792081464" lon="10.781007640558503"><ele>356.0</ele><time>2026-03-27T12:10:48.999Z</time></trkpt><trkpt lat="43.27972634278385" lon="10.781013762863953"><ele>356.0</ele><time>2026-03-27T12:10:49.999Z</time></trkpt><trkpt lat="43.2796174568373" lon="10.780983263487375"><ele>356.0</ele><time>2026-03-27T12:10:51.999Z</time></trkpt><trkpt lat="43.27953210082351" lon="10.780863387897478"><ele>356.0</ele><time>2026-03-27T12:10:53.999Z</time></trkpt><trkpt lat="43.27938860880696" lon="10.780930591305454"><ele>356.0</ele><time>2026-03-27T12:10:55.999Z</time></trkpt><trkpt lat="43.279311364088905" lon="10.780966992344087"><ele>354.1666666666667</ele><time>2026-03-27T12:10:56.999Z</time></trkpt><trkpt lat="43.27924889778546" lon="10.781060652861104"><ele>352.33333333333337</ele><time>2026-03-27T12:10:58.999Z</time></trkpt><trkpt lat="43.27924384582108" lon="10.781153926378769"><ele>350.5</ele><time>2026-03-27T12:10:59.999Z</time></trkpt><trkpt lat="43.27924509925231" lon="10.781258645651558"><ele>348.6666666666667</ele><time>2026-03-27T12:11:00.999Z</time></trkpt><trkpt lat="43.27924559199875" lon="10.78136700879577"><ele>346.8333333333333</ele><time>2026-03-27T12:11:01.999Z</time></trkpt><trkpt lat="43.279246213019746" lon="10.781474113018552"><ele>345.0</ele><time>2026-03-27T12:11:02.999Z</time></trkpt><trkpt lat="43.27925871273315" lon="10.781578114198842"><ele>345.0</ele><time>2026-03-27T12:11:03.999Z</time></trkpt><trkpt lat="43.2792901299365" lon="10.781665728867353"><ele>345.0</ele><time>2026-03-27T12:11:04.999Z</time></trkpt><trkpt lat="43.27931857009302" lon="10.781757505948951"><ele>345.0</ele><time>2026-03-27T12:11:05.999Z</time></trkpt><trkpt lat="43.279283084971766" lon="10.78185913202838"><ele>345.0</ele><time>2026-03-27T12:11:07.999Z</time></trkpt><trkpt lat="43.27919058070436" lon="10.781828517330982"><ele>345.0</ele><time>2026-03-27T12:11:09.999Z</time></trkpt><trkpt lat="43.27911990698159" lon="10.781679907412155"><ele>345.0</ele><time>2026-03-27T12:11:11.999Z</time></trkpt><trkpt lat="43.279096826501544" lon="10.78156960499111"><ele>345.0</ele><time>2026-03-27T12:11:12.999Z</time></trkpt><trkpt lat="43.27905834266329" lon="10.781472591569374"><ele>345.0</ele><time>2026-03-27T12:11:13.999Z</time></trkpt><trkpt lat="43.2790039847347" lon="10.781414284166603"><ele>345.0</ele><time>2026-03-27T12:11:14.999Z</time></trkpt><trkpt lat="43.27892393619383" lon="10.78138512506618"><ele>345.0</ele><time>2026-03-27T12:11:15.999Z</time></trkpt><trkpt lat="43.27884541934187" lon="10.781381761986648"><ele>345.0</ele><time>2026-03-27T12:11:16.999Z</time></trkpt><trkpt lat="43.2787726475076" lon="10.78139300183428"><ele>342.0</ele><time>2026-03-27T12:11:17.999Z</time></trkpt><trkpt lat="43.27870756271844" lon="10.781389865632649"><ele>339.0</ele><time>2026-03-27T12:11:18.999Z</time></trkpt><trkpt lat="43.27864222157425" lon="10.781352857694259"><ele>336.0</ele><time>2026-03-27T12:11:19.999Z</time></trkpt><trkpt lat="43.27856109864333" lon="10.781323333323193"><ele>333.0</ele><time>2026-03-27T12:11:20.999Z</time></trkpt><trkpt lat="43.278485553645" lon="10.78128793017652"><ele>330.0</ele><time>2026-03-27T12:11:21.999Z</time></trkpt><trkpt lat="43.27842472940626" lon="10.781187386307957"><ele>327.0</ele><time>2026-03-27T12:11:22.999Z</time></trkpt><trkpt lat="43.27838404457007" lon="10.781081454107007"><ele>327.0</ele><time>2026-03-27T12:11:23.999Z</time></trkpt><trkpt lat="43.27831894558518" lon="10.78104211876798"><ele>327.0</ele><time>2026-03-27T12:11:24.999Z</time></trkpt><trkpt lat="43.27822719051806" lon="10.781001928351667"><ele>327.0</ele><time>2026-03-27T12:11:25.999Z</time></trkpt><trkpt lat="43.27817724962428" lon="10.78093813361528"><ele>327.0</ele><time>2026-03-27T12:11:26.999Z</time></trkpt><trkpt lat="43.27811190009414" lon="10.78092302439321"><ele>327.0</ele><time>2026-03-27T12:11:29.999Z</time></trkpt><trkpt lat="43.278072209238076" lon="10.781032757540205"><ele>327.0</ele><time>2026-03-27T12:11:31.999Z</time></trkpt><trkpt lat="43.27804034377552" lon="10.78115539192254"><ele>328.6</ele><time>2026-03-27T12:11:32.999Z</time></trkpt><trkpt lat="43.27793924554989" lon="10.781272261625892"><ele>330.20000000000005</ele><time>2026-03-27T12:11:34.999Z</time></trkpt><trkpt lat="43.27789948642857" lon="10.781340535990713"><ele>331.8</ele><time>2026-03-27T12:11:35.999Z</time></trkpt><trkpt lat="43.27773969467419" lon="10.781381091111681"><ele>333.4</ele><time>2026-03-27T12:11:37.999Z</time></trkpt><trkpt lat="43.27765671827561" lon="10.78140455084156"><ele>335.0</ele><time>2026-03-27T12:11:38.999Z</time></trkpt><trkpt lat="43.27754072084322" lon="10.781476035565353"><ele>335.0</ele><time>2026-03-27T12:11:40.999Z</time></trkpt><trkpt lat="43.27745122739287" lon="10.781465726234513"><ele>335.0</ele><time>2026-03-27T12:11:41.999Z</time></trkpt><trkpt lat="43.27732616248537" lon="10.7814730534931"><ele>335.0</ele><time>2026-03-27T12:11:43.999Z</time></trkpt><trkpt lat="43.277205721089516" lon="10.781534071683383"><ele>335.0</ele><time>2026-03-27T12:11:44.999Z</time></trkpt><trkpt lat="43.27713660328106" lon="10.781586717706197"><ele>335.0</ele><time>2026-03-27T12:11:45.999Z</time></trkpt><trkpt lat="43.2770641434613" lon="10.78161764946892"><ele>333.5</ele><time>2026-03-27T12:11:46.999Z</time></trkpt><trkpt lat="43.27698763231215" lon="10.7816182159462"><ele>332.0</ele><time>2026-03-27T12:11:47.999Z</time></trkpt><trkpt lat="43.27691561754899" lon="10.781505552656366"><ele>330.5</ele><time>2026-03-27T12:11:49.999Z</time></trkpt><trkpt lat="43.276864132908216" lon="10.781418248087423"><ele>329.0</ele><time>2026-03-27T12:11:50.999Z</time></trkpt><trkpt lat="43.276796678806456" lon="10.781331060850174"><ele>327.5</ele><time>2026-03-27T12:11:51.999Z</time></trkpt><trkpt lat="43.27671478437509" lon="10.78129075322761"><ele>326.0</ele><time>2026-03-27T12:11:53.999Z</time></trkpt><trkpt lat="43.276621401080114" lon="10.781279265488564"><ele>326.0</ele><time>2026-03-27T12:11:55.999Z</time></trkpt><trkpt lat="43.276550039212154" lon="10.781291358356043"><ele>326.0</ele><time>2026-03-27T12:11:58.999Z</time></trkpt><trkpt lat="43.27644532069843" lon="10.781313482399927"><ele>326.0</ele><time>2026-03-27T12:11:59.999Z</time></trkpt><trkpt lat="43.27634076645853" lon="10.781403112513594"><ele>326.0</ele><time>2026-03-27T12:12:01.999Z</time></trkpt><trkpt lat="43.276231898182075" lon="10.781446023456523"><ele>326.0</ele><time>2026-03-27T12:12:03.999Z</time></trkpt><trkpt lat="43.27616015717032" lon="10.781466960794706"><ele>322.2</ele><time>2026-03-27T12:12:05.999Z</time></trkpt><trkpt lat="43.27605835925406" lon="10.781444248571908"><ele>318.40000000000003</ele><time>2026-03-27T12:12:07.999Z</time></trkpt><trkpt lat="43.27596138102079" lon="10.781407645312369"><ele>314.6</ele><time>2026-03-27T12:12:09.999Z</time></trkpt><trkpt lat="43.275881447985476" lon="10.781288270429185"><ele>310.8</ele><time>2026-03-27T12:12:11.999Z</time></trkpt><trkpt lat="43.275853600773274" lon="10.781169258298158"><ele>307.0</ele><time>2026-03-27T12:12:13.999Z</time></trkpt><trkpt lat="43.27583926417629" lon="10.781070931536512"><ele>307.0</ele><time>2026-03-27T12:12:15.999Z</time></trkpt><trkpt lat="43.27575999820331" lon="10.781160836971374"><ele>307.0</ele><time>2026-03-27T12:12:17.999Z</time></trkpt><trkpt lat="43.27574094050919" lon="10.781018798830946"><ele>307.0</ele><time>2026-03-27T12:12:20.999Z</time></trkpt><trkpt lat="43.27563717580003" lon="10.780934554413154"><ele>307.0</ele><time>2026-03-27T12:12:22.999Z</time></trkpt><trkpt lat="43.27559036741149" lon="10.780860616021034"><ele>307.0</ele><time>2026-03-27T12:12:23.999Z</time></trkpt><trkpt lat="43.2755369345732" lon="10.78078764956759"><ele>304.66666666666663</ele><time>2026-03-27T12:12:24.999Z</time></trkpt><trkpt lat="43.27550307112445" lon="10.780708721873637"><ele>302.3333333333333</ele><time>2026-03-27T12:12:25.999Z</time></trkpt><trkpt lat="43.27549461899302" lon="10.780590630855075"><ele>300.0</ele><time>2026-03-27T12:12:27.999Z</time></trkpt><trkpt lat="43.27542610264044" lon="10.78055665894878"><ele>297.6666666666667</ele><time>2026-03-27T12:12:33Z</time></trkpt><trkpt lat="43.27535927260193" lon="10.780443070018286"><ele>295.33333333333337</ele><time>2026-03-27T12:12:35Z</time></trkpt><trkpt lat="43.2753398463478" lon="10.78032330611645"><ele>293.0</ele><time>2026-03-27T12:12:36Z</time></trkpt><trkpt lat="43.27534855250685" lon="10.780229332381458"><ele>295.5</ele><time>2026-03-27T12:12:37Z</time></trkpt><trkpt lat="43.275399778645365" lon="10.780131993210247"><ele>298.0</ele><time>2026-03-27T12:12:38Z</time></trkpt><trkpt lat="43.2754693569019" lon="10.78003793241192"><ele>300.5</ele><time>2026-03-27T12:12:39Z</time></trkpt><trkpt lat="43.27552217703966" lon="10.779983016693297"><ele>303.0</ele><time>2026-03-27T12:12:40Z</time></trkpt><trkpt lat="43.27553580628227" lon="10.779898045892391"><ele>305.5</ele><time>2026-03-27T12:12:41Z</time></trkpt><trkpt lat="43.27550193009167" lon="10.77982030761508"><ele>308.0</ele><time>2026-03-27T12:12:42Z</time></trkpt><trkpt lat="43.275340261314135" lon="10.779849588295686"><ele>308.0</ele><time>2026-03-27T12:12:43Z</time></trkpt><trkpt lat="43.27522298127495" lon="10.779799325150497"><ele>308.0</ele><time>2026-03-27T12:12:45Z</time></trkpt><trkpt lat="43.275141379234476" lon="10.779742387983601"><ele>308.0</ele><time>2026-03-27T12:12:46Z</time></trkpt><trkpt lat="43.27509223629076" lon="10.779672082902666"><ele>308.0</ele><time>2026-03-27T12:12:47Z</time></trkpt><trkpt lat="43.275062173620476" lon="10.779522602405496"><ele>308.0</ele><time>2026-03-27T12:12:49Z</time></trkpt><trkpt lat="43.2750240996573" lon="10.779437910465667"><ele>308.0</ele><time>2026-03-27T12:12:51Z</time></trkpt><trkpt lat="43.274956750544305" lon="10.77947490389769"><ele>308.0</ele><time>2026-03-27T12:12:52Z</time></trkpt><trkpt lat="43.274862780742055" lon="10.779492796796703"><ele>308.0</ele><time>2026-03-27T12:12:53Z</time></trkpt><trkpt lat="43.274771475157046" lon="10.779518337674256"><ele>308.0</ele><time>2026-03-27T12:12:54Z</time></trkpt><trkpt lat="43.27467226329021" lon="10.779591363806178"><ele>308.0</ele><time>2026-03-27T12:12:55Z</time></trkpt><trkpt lat="43.27457606191569" lon="10.779651441117064"><ele>309.4</ele><time>2026-03-27T12:12:56Z</time></trkpt><trkpt lat="43.27448237499461" lon="10.77968435263273"><ele>310.8</ele><time>2026-03-27T12:12:57Z</time></trkpt><trkpt lat="43.274368394713235" lon="10.77970263161328"><ele>312.2</ele><time>2026-03-27T12:12:58Z</time></trkpt><trkpt lat="43.2742648124527" lon="10.779750251089094"><ele>313.6</ele><time>2026-03-27T12:12:59Z</time></trkpt><trkpt lat="43.27415480720685" lon="10.77977438065113"><ele>315.0</ele><time>2026-03-27T12:13:00Z</time></trkpt><trkpt lat="43.274074694480284" lon="10.779824440891018"><ele>315.0</ele><time>2026-03-27T12:13:01Z</time></trkpt><trkpt lat="43.27400374453604" lon="10.779903211670407"><ele>315.0</ele><time>2026-03-27T12:13:02Z</time></trkpt><trkpt lat="43.27392498882931" lon="10.77996266304995"><ele>315.0</ele><time>2026-03-27T12:13:03Z</time></trkpt><trkpt lat="43.27384861695854" lon="10.779993941471412"><ele>315.0</ele><time>2026-03-27T12:13:04Z</time></trkpt><trkpt lat="43.273771723488636" lon="10.779957689921606"><ele>315.0</ele><time>2026-03-27T12:13:06Z</time></trkpt><trkpt lat="43.273720758837385" lon="10.779858151796502"><ele>315.0</ele><time>2026-03-27T12:13:08Z</time></trkpt><trkpt lat="43.2737211145903" lon="10.779685551945112"><ele>315.0</ele><time>2026-03-27T12:13:10Z</time></trkpt><trkpt lat="43.27384040394866" lon="10.779608385239646"><ele>315.0</ele><time>2026-03-27T12:13:12Z</time></trkpt><trkpt lat="43.27391055390219" lon="10.779560243926593"><ele>315.0</ele><time>2026-03-27T12:13:13Z</time></trkpt><trkpt lat="43.27397555887454" lon="10.779494711875003"><ele>315.0</ele><time>2026-03-27T12:13:14Z</time></trkpt><trkpt lat="43.27401847349213" lon="10.779418493122893"><ele>315.0</ele><time>2026-03-27T12:13:15Z</time></trkpt><trkpt lat="43.27406021956063" lon="10.779329335059106"><ele>315.0</ele><time>2026-03-27T12:13:16Z</time></trkpt><trkpt lat="43.27410728898162" lon="10.77922422416204"><ele>319.2</ele><time>2026-03-27T12:13:17Z</time></trkpt><trkpt lat="43.2741293240057" lon="10.779141352167667"><ele>323.4</ele><time>2026-03-27T12:13:18Z</time></trkpt><trkpt lat="43.274174660055095" lon="10.779034480406459"><ele>327.6</ele><time>2026-03-27T12:13:20Z</time></trkpt><trkpt lat="43.274274918060996" lon="10.778961037902437"><ele>331.8</ele><time>2026-03-27T12:13:22Z</time></trkpt><trkpt lat="43.27431739184107" lon="10.77884533020008"><ele>336.0</ele><time>2026-03-27T12:13:24Z</time></trkpt><trkpt lat="43.27438989704581" lon="10.778701134648621"><ele>336.0</ele><time>2026-03-27T12:13:26Z</time></trkpt><trkpt lat="43.27442560571851" lon="10.778617372737676"><ele>336.0</ele><time>2026-03-27T12:13:27Z</time></trkpt><trkpt lat="43.27449349502859" lon="10.778516276812827"><ele>336.0</ele><time>2026-03-27T12:13:28Z</time></trkpt><trkpt lat="43.27456016770595" lon="10.778418119337509"><ele>336.0</ele><time>2026-03-27T12:13:29Z</time></trkpt><trkpt lat="43.2746062389518" lon="10.77833618833575"><ele>336.0</ele><time>2026-03-27T12:13:30Z</time></trkpt><trkpt lat="43.274620237492954" lon="10.778245023051948"><ele>336.0</ele><time>2026-03-27T12:13:31Z</time></trkpt><trkpt lat="43.27462618370437" lon="10.778137602991439"><ele>338.8</ele><time>2026-03-27T12:13:32Z</time></trkpt><trkpt lat="43.27469190896866" lon="10.778012912907112"><ele>341.6</ele><time>2026-03-27T12:13:34Z</time></trkpt><trkpt lat="43.27480275218495" lon="10.777911250510035"><ele>344.4</ele><time>2026-03-27T12:13:36Z</time></trkpt><trkpt lat="43.27484590934435" lon="10.777801201045703"><ele>347.2</ele><time>2026-03-27T12:13:38Z</time></trkpt><trkpt lat="43.27490241103815" lon="10.77767307208707"><ele>350.0</ele><time>2026-03-27T12:13:40Z</time></trkpt><trkpt lat="43.2748927321053" lon="10.777513443696291"><ele>356.6</ele><time>2026-03-27T12:13:42Z</time></trkpt><trkpt lat="43.27484331166426" lon="10.777427210993059"><ele>363.2</ele><time>2026-03-27T12:13:43Z</time></trkpt><trkpt lat="43.274819261082094" lon="10.777311994035298"><ele>369.79999999999995</ele><time>2026-03-27T12:13:44.999Z</time></trkpt><trkpt lat="43.274873812656786" lon="10.777200798217002"><ele>376.4</ele><time>2026-03-27T12:13:46.999Z</time></trkpt><trkpt lat="43.27490324327875" lon="10.777051156222"><ele>383.0</ele><time>2026-03-27T12:13:48.999Z</time></trkpt><trkpt lat="43.274953556761815" lon="10.776972172981898"><ele>383.0</ele><time>2026-03-27T12:13:50.999Z</time></trkpt><trkpt lat="43.27506851597006" lon="10.777011770688784"><ele>383.0</ele><time>2026-03-27T12:13:52.999Z</time></trkpt><trkpt lat="43.27514152126467" lon="10.776938963733857"><ele>383.0</ele><time>2026-03-27T12:13:53.999Z</time></trkpt><trkpt lat="43.275223280554776" lon="10.776877668037926"><ele>383.0</ele><time>2026-03-27T12:13:54.999Z</time></trkpt><trkpt lat="43.2752847655198" lon="10.776840719034874"><ele>383.0</ele><time>2026-03-27T12:13:55.999Z</time></trkpt><trkpt lat="43.275347729317254" lon="10.776856146083578"><ele>383.0</ele><time>2026-03-27T12:13:56.999Z</time></trkpt><trkpt lat="43.27541015346166" lon="10.776867578801557"><ele>386.0</ele><time>2026-03-27T12:13:57.999Z</time></trkpt><trkpt lat="43.27546692910532" lon="10.77681798613876"><ele>389.0</ele><time>2026-03-27T12:13:58.999Z</time></trkpt><trkpt lat="43.27551583660275" lon="10.776762764495176"><ele>392.0</ele><time>2026-03-27T12:13:59.999Z</time></trkpt><trkpt lat="43.275548746981826" lon="10.776574761625"><ele>395.0</ele><time>2026-03-27T12:14:01.999Z</time></trkpt><trkpt lat="43.27555210227794" lon="10.776376249995424"><ele>398.0</ele><time>2026-03-27T12:14:03.999Z</time></trkpt><trkpt lat="43.27557225898848" lon="10.77625628807974"><ele>397.99999999999994</ele><time>2026-03-27T12:17:09Z</time></trkpt><trkpt lat="43.275534325937876" lon="10.776162511971737"><ele>398.0</ele><time>2026-03-27T12:17:10Z</time></trkpt><trkpt lat="43.27550390864156" lon="10.77608203966261"><ele>398.0</ele><time>2026-03-27T12:17:11Z</time></trkpt><trkpt lat="43.2755459281268" lon="10.775985256254797"><ele>398.0</ele><time>2026-03-27T12:17:37Z</time></trkpt><trkpt lat="43.2755194095375" lon="10.775849284386922"><ele>397.99999999999994</ele><time>2026-03-27T12:20:11.999Z</time></trkpt><trkpt lat="43.2755345307613" lon="10.775743404128031"><ele>398.0</ele><time>2026-03-27T12:20:12.999Z</time></trkpt><trkpt lat="43.27555649515512" lon="10.775654863306977"><ele>397.49999999999994</ele><time>2026-03-27T12:20:13.999Z</time></trkpt><trkpt lat="43.27558775903799" lon="10.775562359313792"><ele>397.0</ele><time>2026-03-27T12:20:14.999Z</time></trkpt><trkpt lat="43.27564178660257" lon="10.775473832986208"><ele>396.5</ele><time>2026-03-27T12:20:15.999Z</time></trkpt><trkpt lat="43.275703121976754" lon="10.775389880218112"><ele>396.0</ele><time>2026-03-27T12:20:16.999Z</time></trkpt><trkpt lat="43.27575213818583" lon="10.775325100817243"><ele>395.49999999999994</ele><time>2026-03-27T12:20:17.999Z</time></trkpt><trkpt lat="43.27577071988828" lon="10.775220879303049"><ele>395.0</ele><time>2026-03-27T12:20:18.999Z</time></trkpt><trkpt lat="43.27577276574135" lon="10.775103302640929"><ele>394.8333333333333</ele><time>2026-03-27T12:20:19.999Z</time></trkpt><trkpt lat="43.27577002643169" lon="10.775003358821392"><ele>394.66666666666663</ele><time>2026-03-27T12:20:20.999Z</time></trkpt><trkpt lat="43.275764877160235" lon="10.77491229600048"><ele>394.5</ele><time>2026-03-27T12:20:21.999Z</time></trkpt><trkpt lat="43.27572564428343" lon="10.774807725373128"><ele>394.33333333333337</ele><time>2026-03-27T12:20:23.999Z</time></trkpt><trkpt lat="43.275687354150435" lon="10.774708297298684"><ele>394.1666666666667</ele><time>2026-03-27T12:20:24.999Z</time></trkpt><trkpt lat="43.27563853415008" lon="10.774609947243798"><ele>394.0</ele><time>2026-03-27T12:20:25.999Z</time></trkpt><trkpt lat="43.27559422816294" lon="10.774524948708878"><ele>394.00000000000006</ele><time>2026-03-27T12:20:26.999Z</time></trkpt><trkpt lat="43.27554813916964" lon="10.77446120929594"><ele>394.0</ele><time>2026-03-27T12:20:27.999Z</time></trkpt><trkpt lat="43.27548070568904" lon="10.774411823127096"><ele>394.0</ele><time>2026-03-27T12:20:28.999Z</time></trkpt><trkpt lat="43.275427267932244" lon="10.774347497539527"><ele>394.0</ele><time>2026-03-27T12:20:29.999Z</time></trkpt><trkpt lat="43.27537207399601" lon="10.774272360056894"><ele>394.00000000000006</ele><time>2026-03-27T12:20:30.999Z</time></trkpt><trkpt lat="43.275307559260256" lon="10.774215709839368"><ele>394.0</ele><time>2026-03-27T12:20:31.999Z</time></trkpt><trkpt lat="43.27523131767724" lon="10.774150145504896"><ele>394.83333333333337</ele><time>2026-03-27T12:20:32.999Z</time></trkpt><trkpt lat="43.27514611242493" lon="10.774121160431005"><ele>395.6666666666667</ele><time>2026-03-27T12:20:33.999Z</time></trkpt><trkpt lat="43.27506531730044" lon="10.774082722998518"><ele>396.5</ele><time>2026-03-27T12:20:34.999Z</time></trkpt><trkpt lat="43.27495138057397" lon="10.774079201956818"><ele>397.33333333333337</ele><time>2026-03-27T12:20:36.999Z</time></trkpt><trkpt lat="43.27491915736682" lon="10.77415511019054"><ele>398.1666666666667</ele><time>2026-03-27T12:20:37.999Z</time></trkpt><trkpt lat="43.274871755448196" lon="10.774268457807224"><ele>399.0</ele><time>2026-03-27T12:20:39.999Z</time></trkpt><trkpt lat="43.274721908956565" lon="10.774241679999719"><ele>399.0</ele><time>2026-03-27T12:20:41.999Z</time></trkpt><trkpt lat="43.27459524994393" lon="10.774207448044095"><ele>399.0</ele><time>2026-03-27T12:20:42.999Z</time></trkpt><trkpt lat="43.274477407101415" lon="10.774205007388451"><ele>399.0</ele><time>2026-03-27T12:20:43.999Z</time></trkpt><trkpt lat="43.27436951150048" lon="10.774203750128384"><ele>399.0</ele><time>2026-03-27T12:20:44.999Z</time></trkpt><trkpt lat="43.27428708963755" lon="10.774191600880272"><ele>399.0</ele><time>2026-03-27T12:20:45.999Z</time></trkpt><trkpt lat="43.274220937162596" lon="10.774173911975728"><ele>399.0</ele><time>2026-03-27T12:20:46.999Z</time></trkpt><trkpt lat="43.27412598605917" lon="10.7740724109666"><ele>399.0</ele><time>2026-03-27T12:20:48.999Z</time></trkpt><trkpt lat="43.274083000174834" lon="10.774003397308265"><ele>399.0</ele><time>2026-03-27T12:20:49.999Z</time></trkpt><trkpt lat="43.274032792919634" lon="10.773931295220299"><ele>399.0</ele><time>2026-03-27T12:20:50.999Z</time></trkpt><trkpt lat="43.273957599022175" lon="10.773865491040427"><ele>399.0</ele><time>2026-03-27T12:20:51.999Z</time></trkpt><trkpt lat="43.27387520418982" lon="10.77380849591929"><ele>399.0</ele><time>2026-03-27T12:20:52.999Z</time></trkpt><trkpt lat="43.27381331597458" lon="10.773746230691904"><ele>399.3333333333333</ele><time>2026-03-27T12:20:53.999Z</time></trkpt><trkpt lat="43.2737511389825" lon="10.77370076462923"><ele>399.66666666666663</ele><time>2026-03-27T12:20:54.999Z</time></trkpt><trkpt lat="43.27370384199439" lon="10.77364013155974"><ele>400.0</ele><time>2026-03-27T12:20:55.999Z</time></trkpt><trkpt lat="43.27362291470623" lon="10.773588335257346"><ele>400.3333333333333</ele><time>2026-03-27T12:21:00Z</time></trkpt><trkpt lat="43.273548760111346" lon="10.773547598925338"><ele>400.66666666666663</ele><time>2026-03-27T12:21:02Z</time></trkpt><trkpt lat="43.273476867152624" lon="10.773495704841636"><ele>401.0</ele><time>2026-03-27T12:21:04Z</time></trkpt><trkpt lat="43.27328360289318" lon="10.773276096987901"><ele>401.0</ele><time>2026-03-27T12:21:06Z</time></trkpt><trkpt lat="43.273230380978646" lon="10.77319717988814"><ele>401.0</ele><time>2026-03-27T12:21:07Z</time></trkpt><trkpt lat="43.2731726608926" lon="10.773094044367493"><ele>401.0</ele><time>2026-03-27T12:21:08Z</time></trkpt><trkpt lat="43.27313417168181" lon="10.773009657101282"><ele>401.0</ele><time>2026-03-27T12:21:09Z</time></trkpt><trkpt lat="43.27304376688841" lon="10.77296292919866"><ele>401.0</ele><time>2026-03-27T12:21:10Z</time></trkpt><trkpt lat="43.27300509169092" lon="10.772802660657822"><ele>398.8</ele><time>2026-03-27T12:21:12Z</time></trkpt><trkpt lat="43.27296308106737" lon="10.772670961471361"><ele>396.6</ele><time>2026-03-27T12:21:14Z</time></trkpt><trkpt lat="43.272878938838126" lon="10.772742549948966"><ele>394.4</ele><time>2026-03-27T12:21:16Z</time></trkpt><trkpt lat="43.27274228648422" lon="10.772776251194864"><ele>392.2</ele><time>2026-03-27T12:21:18Z</time></trkpt><trkpt lat="43.272678170059336" lon="10.772790552207402"><ele>390.0</ele><time>2026-03-27T12:21:19Z</time></trkpt><trkpt lat="43.27257910051985" lon="10.772881551064057"><ele>388.1666666666667</ele><time>2026-03-27T12:21:21Z</time></trkpt><trkpt lat="43.272534527964694" lon="10.772958909774053"><ele>386.3333333333333</ele><time>2026-03-27T12:21:22Z</time></trkpt><trkpt lat="43.2724670112202" lon="10.773067704925703"><ele>384.5</ele><time>2026-03-27T12:21:24Z</time></trkpt><trkpt lat="43.2723941449538" lon="10.77307189358504"><ele>382.66666666666663</ele><time>2026-03-27T12:21:26Z</time></trkpt><trkpt lat="43.27231595424139" lon="10.77297386376464"><ele>380.8333333333333</ele><time>2026-03-27T12:21:28Z</time></trkpt><trkpt lat="43.27227950769062" lon="10.772892556867642"><ele>379.0</ele><time>2026-03-27T12:21:31Z</time></trkpt><trkpt lat="43.27226521834028" lon="10.772804467377245"><ele>366.0</ele><time>2026-03-27T12:21:33Z</time></trkpt><trkpt lat="43.272259686361636" lon="10.77268480851127"><ele>353.0</ele><time>2026-03-27T12:21:36Z</time></trkpt><trkpt lat="43.27208823408958" lon="10.772007067388536"><ele>353.0</ele><time>2026-03-27T12:21:37Z</time></trkpt><trkpt lat="43.272059306801765" lon="10.771923664915567"><ele>353.0</ele><time>2026-03-27T12:21:38Z</time></trkpt><trkpt lat="43.2720822136899" lon="10.771782051510085"><ele>353.0</ele><time>2026-03-27T12:21:39Z</time></trkpt><trkpt lat="43.27211850458747" lon="10.771666361330183"><ele>353.0</ele><time>2026-03-27T12:21:40Z</time></trkpt><trkpt lat="43.27215897508696" lon="10.771548628868771"><ele>353.0</ele><time>2026-03-27T12:21:41Z</time></trkpt><trkpt lat="43.272206180109116" lon="10.771322914747843"><ele>352.4</ele><time>2026-03-27T12:21:43Z</time></trkpt><trkpt lat="43.272270437058935" lon="10.771125577015837"><ele>351.79999999999995</ele><time>2026-03-27T12:21:45Z</time></trkpt><trkpt lat="43.27231483699446" lon="10.771020810332287"><ele>351.2</ele><time>2026-03-27T12:21:46Z</time></trkpt><trkpt lat="43.272352044194356" lon="10.770924027318994"><ele>350.6</ele><time>2026-03-27T12:21:47Z</time></trkpt><trkpt lat="43.27233765444366" lon="10.77077324663725"><ele>350.0</ele><time>2026-03-27T12:21:49Z</time></trkpt><trkpt lat="43.272353345824605" lon="10.77066388348179"><ele>351.33333333333337</ele><time>2026-03-27T12:21:50Z</time></trkpt><trkpt lat="43.27239958949506" lon="10.770575815156507"><ele>352.6666666666667</ele><time>2026-03-27T12:21:51Z</time></trkpt><trkpt lat="43.27246993745137" lon="10.770505565726467"><ele>354.0</ele><time>2026-03-27T12:21:52Z</time></trkpt><trkpt lat="43.27252946531036" lon="10.770410033330762"><ele>355.3333333333333</ele><time>2026-03-27T12:21:53Z</time></trkpt><trkpt lat="43.27258666538231" lon="10.770316448286641"><ele>356.66666666666663</ele><time>2026-03-27T12:21:54Z</time></trkpt><trkpt lat="43.272549123686204" lon="10.770212626582124"><ele>358.0</ele><time>2026-03-27T12:21:55Z</time></trkpt><trkpt lat="43.27259466927605" lon="10.770102530311902"><ele>358.0</ele><time>2026-03-27T12:21:56.999Z</time></trkpt><trkpt lat="43.272665144757795" lon="10.769965956364553"><ele>358.0</ele><time>2026-03-27T12:21:57.999Z</time></trkpt><trkpt lat="43.2727205007464" lon="10.769868870034268"><ele>358.0</ele><time>2026-03-27T12:21:58.999Z</time></trkpt><trkpt lat="43.27277369490401" lon="10.769723701897309"><ele>358.0</ele><time>2026-03-27T12:22:00.999Z</time></trkpt><trkpt lat="43.2727067393761" lon="10.769607923780146"><ele>358.0</ele><time>2026-03-27T12:22:02.999Z</time></trkpt><trkpt lat="43.27275390382791" lon="10.769432268867886"><ele>356.8333333333333</ele><time>2026-03-27T12:22:04.999Z</time></trkpt><trkpt lat="43.2727899581178" lon="10.769331066722952"><ele>355.66666666666663</ele><time>2026-03-27T12:22:05.999Z</time></trkpt><trkpt lat="43.27281909834297" lon="10.769249213997398"><ele>354.5</ele><time>2026-03-27T12:22:06.999Z</time></trkpt><trkpt lat="43.27281681130096" lon="10.769116207470748"><ele>353.3333333333333</ele><time>2026-03-27T12:22:08.999Z</time></trkpt><trkpt lat="43.272755280195874" lon="10.76907016667611"><ele>352.1666666666667</ele><time>2026-03-27T12:22:09.999Z</time></trkpt><trkpt lat="43.27268636613339" lon="10.769006999867269"><ele>351.0</ele><time>2026-03-27T12:22:10.999Z</time></trkpt><trkpt lat="43.27262069677554" lon="10.768938684514872"><ele>351.0</ele><time>2026-03-27T12:22:12.999Z</time></trkpt><trkpt lat="43.272636380787745" lon="10.768741126680027"><ele>351.0</ele><time>2026-03-27T12:22:14.999Z</time></trkpt><trkpt lat="43.27265949322388" lon="10.768627003050394"><ele>351.0</ele><time>2026-03-27T12:22:15.999Z</time></trkpt><trkpt lat="43.272691250893544" lon="10.768527862837457"><ele>351.0</ele><time>2026-03-27T12:22:16.999Z</time></trkpt><trkpt lat="43.27270787776761" lon="10.768376798532168"><ele>351.0</ele><time>2026-03-27T12:22:18.999Z</time></trkpt><trkpt lat="43.27273963651216" lon="10.768289936992137"><ele>352.3333333333333</ele><time>2026-03-27T12:22:20.999Z</time></trkpt><trkpt lat="43.27265500559483" lon="10.768318731993341"><ele>353.6666666666667</ele><time>2026-03-27T12:22:33.999Z</time></trkpt><trkpt lat="43.272587289807106" lon="10.768394103687054"><ele>355.0</ele><time>2026-03-27T12:22:34.999Z</time></trkpt><trkpt lat="43.272526649940474" lon="10.768365552743074"><ele>356.33333333333337</ele><time>2026-03-27T12:22:40.999Z</time></trkpt><trkpt lat="43.2724587947746" lon="10.768362088985734"><ele>357.6666666666667</ele><time>2026-03-27T12:23:00.999Z</time></trkpt><trkpt lat="43.27243166995138" lon="10.768243842167982"><ele>359.0</ele><time>2026-03-27T12:23:03Z</time></trkpt><trkpt lat="43.27246789258614" lon="10.7681166907768"><ele>359.0</ele><time>2026-03-27T12:23:05Z</time></trkpt><trkpt lat="43.27251694727165" lon="10.76802317415609"><ele>359.0</ele><time>2026-03-27T12:23:06Z</time></trkpt><trkpt lat="43.27259207869086" lon="10.76792278317353"><ele>359.0</ele><time>2026-03-27T12:23:07Z</time></trkpt><trkpt lat="43.272625729340696" lon="10.767848905589004"><ele>359.0</ele><time>2026-03-27T12:23:08Z</time></trkpt><trkpt lat="43.27255742114836" lon="10.767804352973679"><ele>359.0</ele><time>2026-03-27T12:23:10Z</time></trkpt><trkpt lat="43.27248004384438" lon="10.767781159506663"><ele>359.0</ele><time>2026-03-27T12:23:12Z</time></trkpt><trkpt lat="43.27243818760246" lon="10.767643307685644"><ele>364.5</ele><time>2026-03-27T12:23:14Z</time></trkpt><trkpt lat="43.27254975589075" lon="10.76751570367563"><ele>370.0</ele><time>2026-03-27T12:23:16Z</time></trkpt><trkpt lat="43.2726015575135" lon="10.76742125057038"><ele>375.5</ele><time>2026-03-27T12:23:17Z</time></trkpt><trkpt lat="43.27267080853929" lon="10.767297573770243"><ele>381.0</ele><time>2026-03-27T12:23:18Z</time></trkpt><trkpt lat="43.272752237537716" lon="10.767189615720095"><ele>381.0</ele><time>2026-03-27T12:23:19Z</time></trkpt><trkpt lat="43.27281032007842" lon="10.767127731458688"><ele>381.0</ele><time>2026-03-27T12:23:20Z</time></trkpt><trkpt lat="43.272951372636825" lon="10.767108330010636"><ele>381.0</ele><time>2026-03-27T12:23:22Z</time></trkpt><trkpt lat="43.27305772795703" lon="10.767125675116944"><ele>381.0</ele><time>2026-03-27T12:23:23Z</time></trkpt><trkpt lat="43.273147345237525" lon="10.76709459150946"><ele>381.0</ele><time>2026-03-27T12:23:24Z</time></trkpt><trkpt lat="43.273228508693606" lon="10.767027975634095"><ele>382.0</ele><time>2026-03-27T12:23:25Z</time></trkpt><trkpt lat="43.27329619687021" lon="10.76698130329625"><ele>383.0</ele><time>2026-03-27T12:23:26Z</time></trkpt><trkpt lat="43.27336961934231" lon="10.76694906052032"><ele>384.0</ele><time>2026-03-27T12:23:28Z</time></trkpt><trkpt lat="43.27331261154824" lon="10.766885789418877"><ele>385.0</ele><time>2026-03-27T12:23:30Z</time></trkpt><trkpt lat="43.27319939255655" lon="10.766807488043664"><ele>386.0</ele><time>2026-03-27T12:23:32Z</time></trkpt><trkpt lat="43.27314784031719" lon="10.766717439401233"><ele>387.0</ele><time>2026-03-27T12:23:33Z</time></trkpt><trkpt lat="43.273106462064504" lon="10.76663915497833"><ele>390.40000000000003</ele><time>2026-03-27T12:23:34Z</time></trkpt><trkpt lat="43.27299007593647" lon="10.766539275717149"><ele>393.8</ele><time>2026-03-27T12:23:36Z</time></trkpt><trkpt lat="43.272927693462556" lon="10.766483863564588"><ele>397.2</ele><time>2026-03-27T12:23:37Z</time></trkpt><trkpt lat="43.27284267378017" lon="10.766365887488975"><ele>400.6</ele><time>2026-03-27T12:23:39Z</time></trkpt><trkpt lat="43.27276896158512" lon="10.766301078892399"><ele>404.0</ele><time>2026-03-27T12:23:41Z</time></trkpt><trkpt lat="43.27272070432514" lon="10.766205066233958"><ele>403.99999999999994</ele><time>2026-03-27T12:24:36.999Z</time></trkpt><trkpt lat="43.27265656565057" lon="10.766255004653654"><ele>404.0</ele><time>2026-03-27T12:25:39Z</time></trkpt><trkpt lat="43.272583065180484" lon="10.766321750847702"><ele>404.0</ele><time>2026-03-27T12:25:40Z</time></trkpt><trkpt lat="43.27251605410934" lon="10.76641627374098"><ele>404.0</ele><time>2026-03-27T12:25:41Z</time></trkpt><trkpt lat="43.27245859301967" lon="10.766525653445292"><ele>403.99999999999994</ele><time>2026-03-27T12:25:42Z</time></trkpt><trkpt lat="43.272405429790474" lon="10.766585944573682"><ele>404.0</ele><time>2026-03-27T12:25:43Z</time></trkpt><trkpt lat="43.2723273389272" lon="10.766615227488161"><ele>403.79999999999995</ele><time>2026-03-27T12:25:44Z</time></trkpt><trkpt lat="43.27222454429451" lon="10.766601231008272"><ele>403.59999999999997</ele><time>2026-03-27T12:25:45Z</time></trkpt><trkpt lat="43.27210850023437" lon="10.766588983987694"><ele>403.4</ele><time>2026-03-27T12:25:46Z</time></trkpt><trkpt lat="43.27201099905499" lon="10.76657575856489"><ele>403.2</ele><time>2026-03-27T12:25:47Z</time></trkpt><trkpt lat="43.271919135418976" lon="10.766586691586472"><ele>403.0</ele><time>2026-03-27T12:25:48Z</time></trkpt><trkpt lat="43.27181557561647" lon="10.766641493526288"><ele>403.00000000000006</ele><time>2026-03-27T12:25:49Z</time></trkpt><trkpt lat="43.271739735794476" lon="10.76668451919542"><ele>403.0</ele><time>2026-03-27T12:25:50Z</time></trkpt><trkpt lat="43.27167070597814" lon="10.766698843050479"><ele>403.0</ele><time>2026-03-27T12:25:51Z</time></trkpt><trkpt lat="43.27160180355417" lon="10.766701357818087"><ele>403.0</ele><time>2026-03-27T12:25:52Z</time></trkpt><trkpt lat="43.271514706563174" lon="10.766775561065236"><ele>403.00000000000006</ele><time>2026-03-27T12:25:54Z</time></trkpt><trkpt lat="43.27154008375281" lon="10.766891495368538"><ele>403.0</ele><time>2026-03-27T12:25:56Z</time></trkpt><trkpt lat="43.27149258341514" lon="10.767004173782974"><ele>400.4</ele><time>2026-03-27T12:25:58Z</time></trkpt><trkpt lat="43.271412154897206" lon="10.767065111791881"><ele>397.79999999999995</ele><time>2026-03-27T12:25:59Z</time></trkpt><trkpt lat="43.27132589422016" lon="10.767111773805366"><ele>395.2</ele><time>2026-03-27T12:26:01Z</time></trkpt><trkpt lat="43.27129442474313" lon="10.767195618932389"><ele>392.6</ele><time>2026-03-27T12:26:05Z</time></trkpt><trkpt lat="43.27124956980547" lon="10.76733067597412"><ele>390.0</ele><time>2026-03-27T12:26:07Z</time></trkpt><trkpt lat="43.27117583856235" lon="10.767405922437367"><ele>390.0</ele><time>2026-03-27T12:26:08Z</time></trkpt><trkpt lat="43.271095888460394" lon="10.76746696956236"><ele>390.0</ele><time>2026-03-27T12:26:09Z</time></trkpt><trkpt lat="43.271006304432554" lon="10.767514283639162"><ele>390.0</ele><time>2026-03-27T12:26:10Z</time></trkpt><trkpt lat="43.27092044310018" lon="10.767546338010005"><ele>390.0</ele><time>2026-03-27T12:26:11Z</time></trkpt><trkpt lat="43.270851976629714" lon="10.767613958177998"><ele>390.0</ele><time>2026-03-27T12:26:13Z</time></trkpt><trkpt lat="43.270791552702384" lon="10.767719512157532"><ele>387.6</ele><time>2026-03-27T12:26:15Z</time></trkpt><trkpt lat="43.27070301635776" lon="10.767802204156027"><ele>385.2</ele><time>2026-03-27T12:26:17Z</time></trkpt><trkpt lat="43.270595311219225" lon="10.767874959540627"><ele>382.79999999999995</ele><time>2026-03-27T12:26:19Z</time></trkpt><trkpt lat="43.27053628060412" lon="10.767944872869156"><ele>380.4</ele><time>2026-03-27T12:26:22Z</time></trkpt><trkpt lat="43.27055795777256" lon="10.768056683573823"><ele>378.0</ele><time>2026-03-27T12:26:25Z</time></trkpt><trkpt lat="43.270631355924245" lon="10.768089336863317"><ele>378.0</ele><time>2026-03-27T12:26:27Z</time></trkpt><trkpt lat="43.27072412149212" lon="10.768342074032468"><ele>378.0</ele><time>2026-03-27T12:26:28Z</time></trkpt><trkpt lat="43.27080031800297" lon="10.768369791383476"><ele>378.0</ele><time>2026-03-27T12:26:29Z</time></trkpt><trkpt lat="43.270867843737896" lon="10.76839418157314"><ele>378.0</ele><time>2026-03-27T12:26:30Z</time></trkpt><trkpt lat="43.27094952375118" lon="10.76843659299928"><ele>378.0</ele><time>2026-03-27T12:26:32Z</time></trkpt><trkpt lat="43.270920799903735" lon="10.768562504837066"><ele>373.6666666666667</ele><time>2026-03-27T12:26:34.999Z</time></trkpt><trkpt lat="43.27084212493709" lon="10.76867118882566"><ele>369.3333333333333</ele><time>2026-03-27T12:26:35.999Z</time></trkpt><trkpt lat="43.27076103163461" lon="10.768746956123262"><ele>365.0</ele><time>2026-03-27T12:26:36.999Z</time></trkpt><trkpt lat="43.270697722212795" lon="10.768810453982775"><ele>360.66666666666663</ele><time>2026-03-27T12:26:37.999Z</time></trkpt><trkpt lat="43.27064201053652" lon="10.768876516826028"><ele>356.3333333333333</ele><time>2026-03-27T12:26:38.999Z</time></trkpt><trkpt lat="43.27058542831508" lon="10.768957008813128"><ele>352.0</ele><time>2026-03-27T12:26:40.999Z</time></trkpt><trkpt lat="43.270519217376155" lon="10.769041546950833"><ele>349.8</ele><time>2026-03-27T12:26:42.999Z</time></trkpt><trkpt lat="43.27043879032254" lon="10.769105552634189"><ele>347.6</ele><time>2026-03-27T12:26:44.999Z</time></trkpt><trkpt lat="43.27034717717336" lon="10.769122678766108"><ele>345.40000000000003</ele><time>2026-03-27T12:26:46.999Z</time></trkpt><trkpt lat="43.270279936482126" lon="10.769114008077285"><ele>343.20000000000005</ele><time>2026-03-27T12:26:49.999Z</time></trkpt><trkpt lat="43.270162275742145" lon="10.76903220369128"><ele>341.0</ele><time>2026-03-27T12:26:52.999Z</time></trkpt><trkpt lat="43.26999801788458" lon="10.769074323557039"><ele>341.0</ele><time>2026-03-27T12:26:53.999Z</time></trkpt><trkpt lat="43.26993189749259" lon="10.769009702558911"><ele>341.0</ele><time>2026-03-27T12:26:54.999Z</time></trkpt><trkpt lat="43.26986554116397" lon="10.768948730320103"><ele>341.0</ele><time>2026-03-27T12:26:55.999Z</time></trkpt><trkpt lat="43.269806920761894" lon="10.768908836079044"><ele>341.0</ele><time>2026-03-27T12:26:56.999Z</time></trkpt><trkpt lat="43.26972004703718" lon="10.768890326532578"><ele>341.0</ele><time>2026-03-27T12:26:58.999Z</time></trkpt><trkpt lat="43.26964775409886" lon="10.768797033254824"><ele>341.0</ele><time>2026-03-27T12:27:00.999Z</time></trkpt><trkpt lat="43.26964119941671" lon="10.768607656953927"><ele>335.83333333333337</ele><time>2026-03-27T12:27:02.999Z</time></trkpt><trkpt lat="43.26965690876076" lon="10.768453123386097"><ele>330.6666666666667</ele><time>2026-03-27T12:27:03.999Z</time></trkpt><trkpt lat="43.26966323050148" lon="10.76835277861477"><ele>325.5</ele><time>2026-03-27T12:27:04.999Z</time></trkpt><trkpt lat="43.26963292534729" lon="10.768268498515068"><ele>320.3333333333333</ele><time>2026-03-27T12:27:05.999Z</time></trkpt><trkpt lat="43.269581891544725" lon="10.768171183536658"><ele>315.16666666666663</ele><time>2026-03-27T12:27:06.999Z</time></trkpt><trkpt lat="43.269558136875" lon="10.768029601075638"><ele>310.0</ele><time>2026-03-27T12:27:07.999Z</time></trkpt><trkpt lat="43.269561177329415" lon="10.76792586897601"><ele>310.0</ele><time>2026-03-27T12:27:08.999Z</time></trkpt><trkpt lat="43.26957560749875" lon="10.767841397373576"><ele>310.0</ele><time>2026-03-27T12:27:09.999Z</time></trkpt><trkpt lat="43.26950582220336" lon="10.767751504620952"><ele>310.0</ele><time>2026-03-27T12:27:10.999Z</time></trkpt><trkpt lat="43.26948612604526" lon="10.767633144746195"><ele>310.0</ele><time>2026-03-27T12:27:11.999Z</time></trkpt><trkpt lat="43.26943273523001" lon="10.767568155136678"><ele>310.0</ele><time>2026-03-27T12:27:12.999Z</time></trkpt><trkpt lat="43.269401953008995" lon="10.767456259934077"><ele>310.0</ele><time>2026-03-27T12:27:14Z</time></trkpt><trkpt lat="43.269372325641946" lon="10.767327501934199"><ele>311.0</ele><time>2026-03-27T12:27:15Z</time></trkpt><trkpt lat="43.269329421176195" lon="10.767203220713212"><ele>312.0</ele><time>2026-03-27T12:27:16Z</time></trkpt><trkpt lat="43.26929449310539" lon="10.76711028657366"><ele>313.0</ele><time>2026-03-27T12:27:17Z</time></trkpt><trkpt lat="43.26924189049846" lon="10.767041777077303"><ele>314.0</ele><time>2026-03-27T12:27:18Z</time></trkpt><trkpt lat="43.26912182949497" lon="10.76704758427525"><ele>315.0</ele><time>2026-03-27T12:27:20Z</time></trkpt><trkpt lat="43.269060143985755" lon="10.767077649018665"><ele>316.0</ele><time>2026-03-27T12:27:21Z</time></trkpt><trkpt lat="43.26900502355073" lon="10.767143074550471"><ele>316.0</ele><time>2026-03-27T12:27:22Z</time></trkpt><trkpt lat="43.26895162854466" lon="10.767217554719755"><ele>316.0</ele><time>2026-03-27T12:27:23Z</time></trkpt><trkpt lat="43.268889501675105" lon="10.767258702759754"><ele>316.0</ele><time>2026-03-27T12:27:24Z</time></trkpt><trkpt lat="43.268807608884444" lon="10.767298840054059"><ele>316.0</ele><time>2026-03-27T12:27:25Z</time></trkpt><trkpt lat="43.268735007464464" lon="10.767334499356664"><ele>316.0</ele><time>2026-03-27T12:27:26Z</time></trkpt><trkpt lat="43.268663398797656" lon="10.767493907403349"><ele>316.0</ele><time>2026-03-27T12:27:28Z</time></trkpt><trkpt lat="43.26863356213065" lon="10.767586911044425"><ele>311.3333333333333</ele><time>2026-03-27T12:27:29Z</time></trkpt><trkpt lat="43.268609182132245" lon="10.767766624068146"><ele>306.66666666666663</ele><time>2026-03-27T12:27:31Z</time></trkpt><trkpt lat="43.26857555653741" lon="10.767851245385756"><ele>302.0</ele><time>2026-03-27T12:27:32Z</time></trkpt><trkpt lat="43.26850348245995" lon="10.767899302851852"><ele>297.3333333333333</ele><time>2026-03-27T12:27:34Z</time></trkpt><trkpt lat="43.268424553211084" lon="10.76788553065011"><ele>292.6666666666667</ele><time>2026-03-27T12:27:35Z</time></trkpt><trkpt lat="43.26834303946274" lon="10.767880268876574"><ele>288.0</ele><time>2026-03-27T12:27:36Z</time></trkpt><trkpt lat="43.26827756299037" lon="10.767774154580076"><ele>288.1666666666667</ele><time>2026-03-27T12:27:38Z</time></trkpt><trkpt lat="43.26826688707104" lon="10.767688604960746"><ele>288.3333333333333</ele><time>2026-03-27T12:27:39Z</time></trkpt><trkpt lat="43.268270044613736" lon="10.767572617264612"><ele>288.5</ele><time>2026-03-27T12:27:40Z</time></trkpt><trkpt lat="43.26825666368768" lon="10.767482644696026"><ele>288.66666666666663</ele><time>2026-03-27T12:27:41Z</time></trkpt><trkpt lat="43.26816265277992" lon="10.767472283375566"><ele>288.8333333333333</ele><time>2026-03-27T12:27:43Z</time></trkpt><trkpt lat="43.26811824357283" lon="10.767582431475873"><ele>289.0</ele><time>2026-03-27T12:27:45Z</time></trkpt><trkpt lat="43.26805153024546" lon="10.767633975592707"><ele>290.0</ele><time>2026-03-27T12:27:49Z</time></trkpt><trkpt lat="43.26804396305693" lon="10.767512773163796"><ele>291.0</ele><time>2026-03-27T12:27:52Z</time></trkpt><trkpt lat="43.26797024275236" lon="10.767464247500822"><ele>292.0</ele><time>2026-03-27T12:27:54Z</time></trkpt><trkpt lat="43.267853751670394" lon="10.767162704911378"><ele>293.0</ele><time>2026-03-27T12:27:56Z</time></trkpt><trkpt lat="43.26782338429953" lon="10.767042000400885"><ele>293.0</ele><time>2026-03-27T12:27:57Z</time></trkpt><trkpt lat="43.26778571892016" lon="10.766947845071583"><ele>293.0</ele><time>2026-03-27T12:27:58Z</time></trkpt><trkpt lat="43.26780675726061" lon="10.766812204711599"><ele>293.0</ele><time>2026-03-27T12:27:59Z</time></trkpt><trkpt lat="43.26779633213621" lon="10.766723087946305"><ele>293.0</ele><time>2026-03-27T12:28:00Z</time></trkpt><trkpt lat="43.26777633405063" lon="10.766624379795186"><ele>293.0</ele><time>2026-03-27T12:28:01Z</time></trkpt><trkpt lat="43.267800607956204" lon="10.766508568397903"><ele>293.0</ele><time>2026-03-27T12:28:03Z</time></trkpt><trkpt lat="43.26793924266404" lon="10.766495978249699"><ele>293.2</ele><time>2026-03-27T12:28:05Z</time></trkpt><trkpt lat="43.268002579342074" lon="10.766461649967686"><ele>293.4</ele><time>2026-03-27T12:28:06Z</time></trkpt><trkpt lat="43.268054253476286" lon="10.766372187912907"><ele>293.59999999999997</ele><time>2026-03-27T12:28:08Z</time></trkpt><trkpt lat="43.26808563374293" lon="10.766219934610552"><ele>293.8</ele><time>2026-03-27T12:28:10Z</time></trkpt><trkpt lat="43.268061528104745" lon="10.76601846937504"><ele>294.0</ele><time>2026-03-27T12:28:13Z</time></trkpt><trkpt lat="43.26799319139655" lon="10.765947053281144"><ele>297.59999999999997</ele><time>2026-03-27T12:28:14Z</time></trkpt><trkpt lat="43.267891413017395" lon="10.765869154058166"><ele>301.2</ele><time>2026-03-27T12:28:15Z</time></trkpt><trkpt lat="43.267809859779206" lon="10.765781572743604"><ele>304.79999999999995</ele><time>2026-03-27T12:28:16Z</time></trkpt><trkpt lat="43.26771225961891" lon="10.765686474658715"><ele>308.4</ele><time>2026-03-27T12:28:17Z</time></trkpt><trkpt lat="43.267634829513035" lon="10.765609737214218"><ele>312.0</ele><time>2026-03-27T12:28:18Z</time></trkpt><trkpt lat="43.26758754980688" lon="10.765513662348567"><ele>312.0</ele><time>2026-03-27T12:28:19Z</time></trkpt><trkpt lat="43.267534461908305" lon="10.765437828896713"><ele>312.0</ele><time>2026-03-27T12:28:20Z</time></trkpt><trkpt lat="43.26741687231348" lon="10.765439867432873"><ele>312.0</ele><time>2026-03-27T12:28:22Z</time></trkpt><trkpt lat="43.26731280616867" lon="10.765497830154533"><ele>312.0</ele><time>2026-03-27T12:28:23Z</time></trkpt><trkpt lat="43.267247822644805" lon="10.765518949930017"><ele>312.0</ele><time>2026-03-27T12:28:24Z</time></trkpt><trkpt lat="43.26718238117032" lon="10.76552317918076"><ele>312.0</ele><time>2026-03-27T12:28:25Z</time></trkpt><trkpt lat="43.267120186819184" lon="10.765478503215604"><ele>313.0</ele><time>2026-03-27T12:28:26Z</time></trkpt><trkpt lat="43.26701645590583" lon="10.765367694009624"><ele>314.0</ele><time>2026-03-27T12:28:27Z</time></trkpt><trkpt lat="43.26693486567235" lon="10.765314740164104"><ele>315.0</ele><time>2026-03-27T12:28:28Z</time></trkpt><trkpt lat="43.2668579249087" lon="10.765255032323347"><ele>316.0</ele><time>2026-03-27T12:28:29Z</time></trkpt><trkpt lat="43.26677650945126" lon="10.76518284660875"><ele>317.0</ele><time>2026-03-27T12:28:30Z</time></trkpt><trkpt lat="43.266706174111754" lon="10.76509885437117"><ele>317.0</ele><time>2026-03-27T12:28:31Z</time></trkpt><trkpt lat="43.26661597934921" lon="10.765065537636334"><ele>317.0</ele><time>2026-03-27T12:28:32Z</time></trkpt><trkpt lat="43.26652985048563" lon="10.76500833802596"><ele>317.0</ele><time>2026-03-27T12:28:33Z</time></trkpt><trkpt lat="43.26645778055055" lon="10.764952995278819"><ele>317.0</ele><time>2026-03-27T12:28:34Z</time></trkpt><trkpt lat="43.26639164576178" lon="10.764859058722495"><ele>317.0</ele><time>2026-03-27T12:28:35Z</time></trkpt><trkpt lat="43.26634339278853" lon="10.764775203998058"><ele>317.0</ele><time>2026-03-27T12:28:36Z</time></trkpt><trkpt lat="43.26633852466549" lon="10.764679289104164"><ele>315.0</ele><time>2026-03-27T12:29:02Z</time></trkpt><trkpt lat="43.26638014379631" lon="10.764596401184004"><ele>313.0</ele><time>2026-03-27T12:29:05Z</time></trkpt><trkpt lat="43.266399780665964" lon="10.764490476661956"><ele>311.0</ele><time>2026-03-27T12:29:06Z</time></trkpt><trkpt lat="43.26642215811589" lon="10.764378809082192"><ele>309.0</ele><time>2026-03-27T12:29:07Z</time></trkpt><trkpt lat="43.26646874638605" lon="10.764295589092999"><ele>307.0</ele><time>2026-03-27T12:29:07.999Z</time></trkpt><trkpt lat="43.26652826362288" lon="10.764240041857796"><ele>305.0</ele><time>2026-03-27T12:29:08.999Z</time></trkpt><trkpt lat="43.266605807023396" lon="10.764201941310494"><ele>309.8</ele><time>2026-03-27T12:29:09.999Z</time></trkpt><trkpt lat="43.26671929793913" lon="10.764194404271963"><ele>314.6</ele><time>2026-03-27T12:29:11.999Z</time></trkpt><trkpt lat="43.266785098108144" lon="10.764181339720528"><ele>319.4</ele><time>2026-03-27T12:29:12.999Z</time></trkpt><trkpt lat="43.26688644632975" lon="10.76412319030925"><ele>324.2</ele><time>2026-03-27T12:29:13.999Z</time></trkpt><trkpt lat="43.266981408959516" lon="10.764080105155612"><ele>329.0</ele><time>2026-03-27T12:29:14.999Z</time></trkpt><trkpt lat="43.26707074137779" lon="10.764060845948283"><ele>329.0</ele><time>2026-03-27T12:29:15.999Z</time></trkpt><trkpt lat="43.267162247934984" lon="10.764043081224502"><ele>329.0</ele><time>2026-03-27T12:29:16.999Z</time></trkpt><trkpt lat="43.26725696816027" lon="10.763986149676288"><ele>329.0</ele><time>2026-03-27T12:29:17.999Z</time></trkpt><trkpt lat="43.26735282162018" lon="10.763971075591371"><ele>329.0</ele><time>2026-03-27T12:29:18.999Z</time></trkpt><trkpt lat="43.26743223373181" lon="10.763966532637168"><ele>329.0</ele><time>2026-03-27T12:29:20Z</time></trkpt><trkpt lat="43.26750644827438" lon="10.763922753583117"><ele>333.2</ele><time>2026-03-27T12:29:21Z</time></trkpt><trkpt lat="43.26758026492602" lon="10.763840831863826"><ele>337.4</ele><time>2026-03-27T12:29:22Z</time></trkpt><trkpt lat="43.26764403736605" lon="10.763782960896195"><ele>341.6</ele><time>2026-03-27T12:29:23Z</time></trkpt><trkpt lat="43.26772676919875" lon="10.763767332859084"><ele>345.8</ele><time>2026-03-27T12:29:24Z</time></trkpt><trkpt lat="43.267788566929376" lon="10.763746412804123"><ele>350.0</ele><time>2026-03-27T12:29:25Z</time></trkpt><trkpt lat="43.26786079503921" lon="10.763562979767917"><ele>350.5</ele><time>2026-03-27T12:29:27Z</time></trkpt><trkpt lat="43.26790156794353" lon="10.763446847257581"><ele>351.0</ele><time>2026-03-27T12:29:28Z</time></trkpt><trkpt lat="43.267984866484944" lon="10.763401435058032"><ele>351.5</ele><time>2026-03-27T12:29:29Z</time></trkpt><trkpt lat="43.26806018520816" lon="10.7633439325046"><ele>352.0</ele><time>2026-03-27T12:29:30Z</time></trkpt><trkpt lat="43.26811553752058" lon="10.763288066839998"><ele>352.5</ele><time>2026-03-27T12:29:31Z</time></trkpt><trkpt lat="43.26821125456681" lon="10.763336584492212"><ele>353.0</ele><time>2026-03-27T12:29:33Z</time></trkpt><trkpt lat="43.26828669755588" lon="10.763438471994922"><ele>355.6666666666667</ele><time>2026-03-27T12:29:35Z</time></trkpt><trkpt lat="43.26839648297134" lon="10.763528299379335"><ele>358.33333333333337</ele><time>2026-03-27T12:29:37Z</time></trkpt><trkpt lat="43.26846406288361" lon="10.763551388621845"><ele>361.0</ele><time>2026-03-27T12:29:38Z</time></trkpt><trkpt lat="43.26854010839519" lon="10.763546583488353"><ele>363.6666666666667</ele><time>2026-03-27T12:29:39Z</time></trkpt><trkpt lat="43.26860913967803" lon="10.763508107397094"><ele>366.3333333333333</ele><time>2026-03-27T12:29:40Z</time></trkpt><trkpt lat="43.2687036241631" lon="10.763475747383987"><ele>369.0</ele><time>2026-03-27T12:29:41Z</time></trkpt><trkpt lat="43.26879652610748" lon="10.763447258570304"><ele>370.25</ele><time>2026-03-27T12:29:42Z</time></trkpt><trkpt lat="43.268914198865254" lon="10.7634779675161"><ele>371.5</ele><time>2026-03-27T12:29:44Z</time></trkpt><trkpt lat="43.26902094922945" lon="10.763510696062555"><ele>372.75</ele><time>2026-03-27T12:29:45Z</time></trkpt><trkpt lat="43.26914372388683" lon="10.763515134000924"><ele>374.0</ele><time>2026-03-27T12:29:46Z</time></trkpt><trkpt lat="43.26925328535861" lon="10.763545412818761"><ele>377.0</ele><time>2026-03-27T12:29:47Z</time></trkpt><trkpt lat="43.269351759344" lon="10.763552339547532"><ele>380.0</ele><time>2026-03-27T12:29:48Z</time></trkpt><trkpt lat="43.269433781584" lon="10.763531059793516"><ele>383.0</ele><time>2026-03-27T12:29:49Z</time></trkpt><trkpt lat="43.269516118386775" lon="10.763473612817313"><ele>386.0</ele><time>2026-03-27T12:29:50Z</time></trkpt><trkpt lat="43.2695998344958" lon="10.763428649358529"><ele>389.0</ele><time>2026-03-27T12:29:51Z</time></trkpt><trkpt lat="43.26969210230193" lon="10.763321828047825"><ele>390.79999999999995</ele><time>2026-03-27T12:29:53Z</time></trkpt><trkpt lat="43.26973651741879" lon="10.76322356905711"><ele>392.59999999999997</ele><time>2026-03-27T12:29:54Z</time></trkpt><trkpt lat="43.269799458708924" lon="10.763117470621063"><ele>394.4</ele><time>2026-03-27T12:29:55Z</time></trkpt><trkpt lat="43.269843983268395" lon="10.763031358642989"><ele>396.2</ele><time>2026-03-27T12:29:56Z</time></trkpt><trkpt lat="43.269832438718964" lon="10.762877286178615"><ele>398.0</ele><time>2026-03-27T12:29:58Z</time></trkpt><trkpt lat="43.26985618258062" lon="10.762725713188285"><ele>403.2</ele><time>2026-03-27T12:29:59Z</time></trkpt><trkpt lat="43.26987754156018" lon="10.762599665019478"><ele>408.4</ele><time>2026-03-27T12:30:00Z</time></trkpt><trkpt lat="43.269880437337" lon="10.762512332962961"><ele>413.59999999999997</ele><time>2026-03-27T12:30:01Z</time></trkpt><trkpt lat="43.270004078479786" lon="10.762483634442614"><ele>418.79999999999995</ele><time>2026-03-27T12:30:03Z</time></trkpt><trkpt lat="43.27012104492323" lon="10.762478483439116"><ele>424.0</ele><time>2026-03-27T12:30:04Z</time></trkpt><trkpt lat="43.27020547896481" lon="10.762449105138819"><ele>424.0</ele><time>2026-03-27T12:30:05Z</time></trkpt><trkpt lat="43.270299287765404" lon="10.76254379418512"><ele>424.0</ele><time>2026-03-27T12:30:07Z</time></trkpt><trkpt lat="43.270399794419454" lon="10.76261147504055"><ele>424.0</ele><time>2026-03-27T12:30:08Z</time></trkpt><trkpt lat="43.27050249778925" lon="10.76265022148565"><ele>424.0</ele><time>2026-03-27T12:30:09Z</time></trkpt><trkpt lat="43.270608768323676" lon="10.762684525811341"><ele>424.0</ele><time>2026-03-27T12:30:10Z</time></trkpt><trkpt lat="43.270694217842426" lon="10.762709464611543"><ele>421.6666666666667</ele><time>2026-03-27T12:30:11Z</time></trkpt><trkpt lat="43.27076398026298" lon="10.762748030304827"><ele>419.33333333333337</ele><time>2026-03-27T12:30:12Z</time></trkpt><trkpt lat="43.270836274772336" lon="10.762789495654676"><ele>417.0</ele><time>2026-03-27T12:30:13Z</time></trkpt><trkpt lat="43.270933202531786" lon="10.762834940428986"><ele>414.66666666666663</ele><time>2026-03-27T12:30:14Z</time></trkpt><trkpt lat="43.271013354198544" lon="10.762859357407127"><ele>412.3333333333333</ele><time>2026-03-27T12:30:15Z</time></trkpt><trkpt lat="43.271081063216236" lon="10.762862002255657"><ele>410.0</ele><time>2026-03-27T12:30:16Z</time></trkpt><trkpt lat="43.27118920859925" lon="10.76278738807683"><ele>410.0</ele><time>2026-03-27T12:30:18Z</time></trkpt><trkpt lat="43.27124914077814" lon="10.762699793859385"><ele>410.0</ele><time>2026-03-27T12:30:19Z</time></trkpt><trkpt lat="43.2713116411606" lon="10.762603149025749"><ele>410.0</ele><time>2026-03-27T12:30:20Z</time></trkpt><trkpt lat="43.271373647180525" lon="10.76256227180012"><ele>410.0</ele><time>2026-03-27T12:30:21Z</time></trkpt><trkpt lat="43.27144156321576" lon="10.762594799028246"><ele>410.0</ele><time>2026-03-27T12:30:22Z</time></trkpt><trkpt lat="43.27156448481358" lon="10.762643940795126"><ele>414.6</ele><time>2026-03-27T12:30:23Z</time></trkpt><trkpt lat="43.27166817972275" lon="10.762670442421326"><ele>419.2</ele><time>2026-03-27T12:30:24Z</time></trkpt><trkpt lat="43.27177447046598" lon="10.76266362745135"><ele>423.79999999999995</ele><time>2026-03-27T12:30:25Z</time></trkpt><trkpt lat="43.271881878028594" lon="10.762649075726214"><ele>428.4</ele><time>2026-03-27T12:30:26Z</time></trkpt><trkpt lat="43.27196167603521" lon="10.76262873582435"><ele>433.0</ele><time>2026-03-27T12:30:27Z</time></trkpt><trkpt lat="43.2720065168388" lon="10.762558186095633"><ele>433.00000000000006</ele><time>2026-03-27T12:30:29Z</time></trkpt><trkpt lat="43.271939617731526" lon="10.762447250203241"><ele>433.0</ele><time>2026-03-27T12:30:31Z</time></trkpt><trkpt lat="43.27189298069678" lon="10.762381878497818"><ele>433.0</ele><time>2026-03-27T12:30:33Z</time></trkpt><trkpt lat="43.27183424210306" lon="10.76224896542973"><ele>433.0</ele><time>2026-03-27T12:30:34Z</time></trkpt><trkpt lat="43.2717774638277" lon="10.762153794398811"><ele>433.00000000000006</ele><time>2026-03-27T12:30:35Z</time></trkpt><trkpt lat="43.27173296825777" lon="10.762087638590264"><ele>433.0</ele><time>2026-03-27T12:30:36Z</time></trkpt><trkpt lat="43.271675701470876" lon="10.76203663817918"><ele>433.00000000000006</ele><time>2026-03-27T12:30:37Z</time></trkpt><trkpt lat="43.27161194097787" lon="10.761992243331363"><ele>433.0</ele><time>2026-03-27T12:30:38Z</time></trkpt><trkpt lat="43.271548325855385" lon="10.761953669134908"><ele>433.0</ele><time>2026-03-27T12:30:39Z</time></trkpt><trkpt lat="43.27147305337077" lon="10.761915085580858"><ele>433.0</ele><time>2026-03-27T12:30:41Z</time></trkpt><trkpt lat="43.271415288866926" lon="10.761829064965593"><ele>433.00000000000006</ele><time>2026-03-27T12:32:23Z</time></trkpt><trkpt lat="43.27128056057255" lon="10.76178561176382"><ele>433.0</ele><time>2026-03-27T12:32:25Z</time></trkpt><trkpt lat="43.271186149048866" lon="10.76173881254386"><ele>438.59999999999997</ele><time>2026-03-27T12:32:26Z</time></trkpt><trkpt lat="43.271071012948006" lon="10.761685439113695"><ele>444.19999999999993</ele><time>2026-03-27T12:32:27Z</time></trkpt><trkpt lat="43.27099297030994" lon="10.761652683637749"><ele>449.8</ele><time>2026-03-27T12:32:28Z</time></trkpt><trkpt lat="43.27091822356407" lon="10.76162627932676"><ele>455.4</ele><time>2026-03-27T12:32:30Z</time></trkpt><trkpt lat="43.27083400207784" lon="10.761496271104143"><ele>461.0</ele><time>2026-03-27T12:32:32Z</time></trkpt><trkpt lat="43.270912953649955" lon="10.761241030789169"><ele>460.99999999999994</ele><time>2026-03-27T12:32:33Z</time></trkpt><trkpt lat="43.27084789489183" lon="10.76122884207705"><ele>461.0</ele><time>2026-03-27T12:32:35Z</time></trkpt><trkpt lat="43.27080840708535" lon="10.76115753920451"><ele>461.0</ele><time>2026-03-27T12:32:38Z</time></trkpt><trkpt lat="43.27091546670273" lon="10.761241710160103"><ele>461.0</ele><time>2026-03-27T12:34:22Z</time></trkpt><trkpt lat="43.27099996852749" lon="10.76128808494824"><ele>460.99999999999994</ele><time>2026-03-27T12:34:23Z</time></trkpt><trkpt lat="43.27109459012434" lon="10.76130667079134"><ele>461.0</ele><time>2026-03-27T12:34:24Z</time></trkpt><trkpt lat="43.271207123033" lon="10.76131353713388"><ele>461.0</ele><time>2026-03-27T12:34:25Z</time></trkpt><trkpt lat="43.2713194398635" lon="10.761311663259661"><ele>461.0</ele><time>2026-03-27T12:34:26Z</time></trkpt><trkpt lat="43.27142057812681" lon="10.761301641653006"><ele>461.0</ele><time>2026-03-27T12:34:27Z</time></trkpt><trkpt lat="43.27151356341243" lon="10.761274341623958"><ele>461.0</ele><time>2026-03-27T12:34:28Z</time></trkpt><trkpt lat="43.271596983990854" lon="10.76122606986741"><ele>461.0</ele><time>2026-03-27T12:34:29Z</time></trkpt><trkpt lat="43.271658223752006" lon="10.761155255061684"><ele>460.20000000000005</ele><time>2026-03-27T12:34:30Z</time></trkpt><trkpt lat="43.27169255618689" lon="10.761064308157188"><ele>459.40000000000003</ele><time>2026-03-27T12:34:31Z</time></trkpt><trkpt lat="43.271717690540285" lon="10.760942280615065"><ele>458.6</ele><time>2026-03-27T12:34:32Z</time></trkpt><trkpt lat="43.271742135528434" lon="10.760761640333872"><ele>457.8</ele><time>2026-03-27T12:34:33Z</time></trkpt><trkpt lat="43.27177455770228" lon="10.760600425510109"><ele>457.0</ele><time>2026-03-27T12:34:34Z</time></trkpt><trkpt lat="43.271809294192906" lon="10.760468839881801"><ele>460.00000000000006</ele><time>2026-03-27T12:34:35Z</time></trkpt><trkpt lat="43.271849295524206" lon="10.760363658429187"><ele>463.0</ele><time>2026-03-27T12:34:36Z</time></trkpt><trkpt lat="43.271908146630935" lon="10.760297783633483"><ele>466.0</ele><time>2026-03-27T12:34:37Z</time></trkpt><trkpt lat="43.27196508189837" lon="10.760212002012752"><ele>469.0</ele><time>2026-03-27T12:34:38Z</time></trkpt><trkpt lat="43.272039056280995" lon="10.760131284229395"><ele>472.00000000000006</ele><time>2026-03-27T12:34:39Z</time></trkpt><trkpt lat="43.27212053801238" lon="10.760089638925532"><ele>475.0</ele><time>2026-03-27T12:34:40Z</time></trkpt><trkpt lat="43.27219105615354" lon="10.760074264272298"><ele>476.6</ele><time>2026-03-27T12:34:41Z</time></trkpt><trkpt lat="43.27231669221103" lon="10.760064600777575"><ele>478.2</ele><time>2026-03-27T12:34:43Z</time></trkpt><trkpt lat="43.272398293166084" lon="10.760096543434143"><ele>479.79999999999995</ele><time>2026-03-27T12:34:44Z</time></trkpt><trkpt lat="43.27246539478037" lon="10.76012448231895"><ele>481.4</ele><time>2026-03-27T12:34:45Z</time></trkpt><trkpt lat="43.27254281440273" lon="10.760160610333209"><ele>483.0</ele><time>2026-03-27T12:34:46Z</time></trkpt><trkpt lat="43.27262935308548" lon="10.760185481703992"><ele>483.0</ele><time>2026-03-27T12:34:47Z</time></trkpt><trkpt lat="43.272722637475034" lon="10.760188354705893"><ele>482.99999999999994</ele><time>2026-03-27T12:34:48Z</time></trkpt><trkpt lat="43.27282378258836" lon="10.760163368721953"><ele>482.99999999999994</ele><time>2026-03-27T12:34:49Z</time></trkpt><trkpt lat="43.272923367371554" lon="10.76009686991904"><ele>483.0</ele><time>2026-03-27T12:34:50Z</time></trkpt><trkpt lat="43.27301592680073" lon="10.75999595265337"><ele>483.0</ele><time>2026-03-27T12:34:51Z</time></trkpt><trkpt lat="43.273116777415545" lon="10.759853135799409"><ele>485.0</ele><time>2026-03-27T12:34:52Z</time></trkpt><trkpt lat="43.273218180777725" lon="10.759724808273193"><ele>486.99999999999994</ele><time>2026-03-27T12:34:52.999Z</time></trkpt><trkpt lat="43.273301516805354" lon="10.759622483536244"><ele>488.99999999999994</ele><time>2026-03-27T12:34:53.999Z</time></trkpt><trkpt lat="43.27337128239477" lon="10.759524722272168"><ele>491.0</ele><time>2026-03-27T12:34:54.999Z</time></trkpt><trkpt lat="43.27343237790646" lon="10.75945859613843"><ele>493.0</ele><time>2026-03-27T12:34:55.999Z</time></trkpt><trkpt lat="43.2735009453589" lon="10.759370676576296"><ele>493.0</ele><time>2026-03-27T12:34:57.999Z</time></trkpt><trkpt lat="43.27347158691811" lon="10.759532776751081"><ele>492.99999999999994</ele><time>2026-03-27T12:35:01.999Z</time></trkpt><trkpt lat="43.27340966601951" lon="10.759593661252314"><ele>492.99999999999994</ele><time>2026-03-27T12:35:02.999Z</time></trkpt><trkpt lat="43.27334783531997" lon="10.75968775561139"><ele>493.0</ele><time>2026-03-27T12:35:03.999Z</time></trkpt><trkpt lat="43.273268030554185" lon="10.759776203933239"><ele>493.0</ele><time>2026-03-27T12:35:04.999Z</time></trkpt><trkpt lat="43.27321179224564" lon="10.759877573109286"><ele>493.0</ele><time>2026-03-27T12:35:05.999Z</time></trkpt><trkpt lat="43.27317910333792" lon="10.759985961469784"><ele>492.99999999999994</ele><time>2026-03-27T12:35:06.999Z</time></trkpt><trkpt lat="43.27317520673328" lon="10.76013183197625"><ele>492.99999999999994</ele><time>2026-03-27T12:35:07.999Z</time></trkpt><trkpt lat="43.27319681154234" lon="10.760282056075882"><ele>493.0</ele><time>2026-03-27T12:35:08.999Z</time></trkpt><trkpt lat="43.273225976145724" lon="10.760425963254848"><ele>493.0</ele><time>2026-03-27T12:35:09.999Z</time></trkpt><trkpt lat="43.273255332969754" lon="10.760555459804188"><ele>492.59999999999997</ele><time>2026-03-27T12:35:10.999Z</time></trkpt><trkpt lat="43.27329170230023" lon="10.760679824184228"><ele>492.19999999999993</ele><time>2026-03-27T12:35:11.999Z</time></trkpt><trkpt lat="43.27332613898137" lon="10.760809918120222"><ele>491.8</ele><time>2026-03-27T12:35:12.999Z</time></trkpt><trkpt lat="43.27336789928426" lon="10.76093315167692"><ele>491.4</ele><time>2026-03-27T12:35:13.999Z</time></trkpt><trkpt lat="43.273426459734516" lon="10.761040609356357"><ele>491.0</ele><time>2026-03-27T12:35:14.999Z</time></trkpt><trkpt lat="43.273494706990014" lon="10.761151284063077"><ele>488.20000000000005</ele><time>2026-03-27T12:35:15.999Z</time></trkpt><trkpt lat="43.27361095917131" lon="10.76120798806902"><ele>485.40000000000003</ele><time>2026-03-27T12:35:16.999Z</time></trkpt><trkpt lat="43.27370645559088" lon="10.761286227961305"><ele>482.6</ele><time>2026-03-27T12:35:17.999Z</time></trkpt><trkpt lat="43.27378396910215" lon="10.761365997370065"><ele>479.8</ele><time>2026-03-27T12:35:18.999Z</time></trkpt><trkpt lat="43.273823604568605" lon="10.761490738911148"><ele>477.0</ele><time>2026-03-27T12:35:19.999Z</time></trkpt><trkpt lat="43.27383572588313" lon="10.761601055741185"><ele>477.0</ele><time>2026-03-27T12:35:20.999Z</time></trkpt><trkpt lat="43.273841354516456" lon="10.761726923198808"><ele>477.0</ele><time>2026-03-27T12:35:21.999Z</time></trkpt><trkpt lat="43.27385271396185" lon="10.761838294728333"><ele>477.0</ele><time>2026-03-27T12:35:22.999Z</time></trkpt><trkpt lat="43.27387225204269" lon="10.761950541662033"><ele>477.0</ele><time>2026-03-27T12:35:23.999Z</time></trkpt><trkpt lat="43.273903854768236" lon="10.762060223728188"><ele>477.0</ele><time>2026-03-27T12:35:24.999Z</time></trkpt><trkpt lat="43.273943724736064" lon="10.762168259032485"><ele>477.0</ele><time>2026-03-27T12:35:25.999Z</time></trkpt><trkpt lat="43.274002709190455" lon="10.762262370560999"><ele>478.0</ele><time>2026-03-27T12:35:26.999Z</time></trkpt><trkpt lat="43.27408554127545" lon="10.762351171833247"><ele>479.00000000000006</ele><time>2026-03-27T12:35:27.999Z</time></trkpt><trkpt lat="43.27417543482344" lon="10.762433381994347"><ele>480.00000000000006</ele><time>2026-03-27T12:35:28.999Z</time></trkpt><trkpt lat="43.274267991086774" lon="10.762496568801316"><ele>481.0</ele><time>2026-03-27T12:35:29.999Z</time></trkpt><trkpt lat="43.27436288812252" lon="10.762533878962309"><ele>482.0</ele><time>2026-03-27T12:35:30.999Z</time></trkpt><trkpt lat="43.27445103708913" lon="10.762580655420109"><ele>482.0</ele><time>2026-03-27T12:35:31.999Z</time></trkpt><trkpt lat="43.274543958387824" lon="10.762586772424346"><ele>482.00000000000006</ele><time>2026-03-27T12:35:32.999Z</time></trkpt><trkpt lat="43.274625391350064" lon="10.762653717150247"><ele>482.00000000000006</ele><time>2026-03-27T12:35:33.999Z</time></trkpt><trkpt lat="43.274684384429776" lon="10.762770313543395"><ele>482.0</ele><time>2026-03-27T12:35:34.999Z</time></trkpt><trkpt lat="43.27477334112185" lon="10.762881078398411"><ele>482.0</ele><time>2026-03-27T12:35:35.999Z</time></trkpt><trkpt lat="43.27484950187189" lon="10.763025644078366"><ele>482.0</ele><time>2026-03-27T12:35:36.999Z</time></trkpt><trkpt lat="43.274893888098795" lon="10.763220060736035"><ele>482.0</ele><time>2026-03-27T12:35:38Z</time></trkpt><trkpt lat="43.27497562614803" lon="10.763398258281052"><ele>482.0</ele><time>2026-03-27T12:35:39Z</time></trkpt><trkpt lat="43.275078895310564" lon="10.763534885127369"><ele>482.0</ele><time>2026-03-27T12:35:40Z</time></trkpt><trkpt lat="43.275145414424735" lon="10.763708553218882"><ele>479.0</ele><time>2026-03-27T12:35:41Z</time></trkpt><trkpt lat="43.27520596738388" lon="10.763881869014181"><ele>476.0</ele><time>2026-03-27T12:35:42Z</time></trkpt><trkpt lat="43.27524900975526" lon="10.764037055476892"><ele>473.0</ele><time>2026-03-27T12:35:43Z</time></trkpt><trkpt lat="43.27529423779736" lon="10.764193992165929"><ele>470.0</ele><time>2026-03-27T12:35:44Z</time></trkpt><trkpt lat="43.275366781498576" lon="10.764347794551945"><ele>470.2</ele><time>2026-03-27T12:35:45Z</time></trkpt><trkpt lat="43.275444897346645" lon="10.764457878594964"><ele>470.4</ele><time>2026-03-27T12:35:46Z</time></trkpt><trkpt lat="43.27550139841403" lon="10.7645546691122"><ele>470.6</ele><time>2026-03-27T12:35:47Z</time></trkpt><trkpt lat="43.275542296028526" lon="10.764644889743572"><ele>470.8</ele><time>2026-03-27T12:35:48Z</time></trkpt><trkpt lat="43.27552120297933" lon="10.764768202265314"><ele>471.0</ele><time>2026-03-27T12:35:49Z</time></trkpt><trkpt lat="43.27547451180909" lon="10.7648646254446"><ele>471.0</ele><time>2026-03-27T12:35:50Z</time></trkpt><trkpt lat="43.27539715100353" lon="10.764891264412935"><ele>471.0</ele><time>2026-03-27T12:35:51Z</time></trkpt><trkpt lat="43.27528957437638" lon="10.764835659346305"><ele>471.0</ele><time>2026-03-27T12:35:53Z</time></trkpt><trkpt lat="43.27520377840615" lon="10.764829204196674"><ele>471.0</ele><time>2026-03-27T12:35:54Z</time></trkpt><trkpt lat="43.27511337077784" lon="10.764807945833393"><ele>471.0</ele><time>2026-03-27T12:35:55Z</time></trkpt><trkpt lat="43.275023329565116" lon="10.76482605522663"><ele>471.0</ele><time>2026-03-27T12:35:56Z</time></trkpt><trkpt lat="43.274939514658065" lon="10.76487841953015"><ele>471.0</ele><time>2026-03-27T12:35:57Z</time></trkpt><trkpt lat="43.27486245096739" lon="10.764959956595295"><ele>471.0</ele><time>2026-03-27T12:35:58Z</time></trkpt><trkpt lat="43.274817793941146" lon="10.765073324929148"><ele>471.0</ele><time>2026-03-27T12:35:59Z</time></trkpt><trkpt lat="43.27476724648213" lon="10.76518886931611"><ele>471.0</ele><time>2026-03-27T12:36:00Z</time></trkpt><trkpt lat="43.27474750405094" lon="10.765322498577593"><ele>470.5</ele><time>2026-03-27T12:36:01Z</time></trkpt><trkpt lat="43.27477189190009" lon="10.765471373195403"><ele>470.0</ele><time>2026-03-27T12:36:02Z</time></trkpt><trkpt lat="43.274825701506224" lon="10.765609214325112"><ele>469.5</ele><time>2026-03-27T12:36:03Z</time></trkpt><trkpt lat="43.274891533666455" lon="10.765734034942511"><ele>469.0</ele><time>2026-03-27T12:36:04Z</time></trkpt><trkpt lat="43.27500176013771" lon="10.765813077818175"><ele>469.0</ele><time>2026-03-27T12:36:05Z</time></trkpt><trkpt lat="43.27511834012925" lon="10.765878929801433"><ele>469.0</ele><time>2026-03-27T12:36:06Z</time></trkpt><trkpt lat="43.27523413808017" lon="10.765931736044498"><ele>469.0</ele><time>2026-03-27T12:36:07Z</time></trkpt><trkpt lat="43.275335061071424" lon="10.76600970733938"><ele>469.0</ele><time>2026-03-27T12:36:08Z</time></trkpt><trkpt lat="43.27541378314648" lon="10.76609663540556"><ele>466.2</ele><time>2026-03-27T12:36:09Z</time></trkpt><trkpt lat="43.275456690575794" lon="10.766189603446415"><ele>463.4</ele><time>2026-03-27T12:36:10Z</time></trkpt><trkpt lat="43.27545240721706" lon="10.766312216734795"><ele>460.6</ele><time>2026-03-27T12:36:11Z</time></trkpt><trkpt lat="43.27540905949715" lon="10.766427245521085"><ele>457.8</ele><time>2026-03-27T12:36:12Z</time></trkpt><trkpt lat="43.27536881353518" lon="10.766564853461444"><ele>455.0</ele><time>2026-03-27T12:36:13Z</time></trkpt><trkpt lat="43.27533662290104" lon="10.766685210014904"><ele>455.0</ele><time>2026-03-27T12:36:14Z</time></trkpt><trkpt lat="43.27532141414364" lon="10.766798285183638"><ele>455.0</ele><time>2026-03-27T12:36:15Z</time></trkpt><trkpt lat="43.27531791976332" lon="10.766927916170816"><ele>455.0</ele><time>2026-03-27T12:36:17Z</time></trkpt><trkpt lat="43.27532906858596" lon="10.76702534382301"><ele>455.0</ele><time>2026-03-27T12:36:20Z</time></trkpt><trkpt lat="43.27541165249064" lon="10.767098583899315"><ele>455.0</ele><time>2026-03-27T12:36:23Z</time></trkpt><trkpt lat="43.275522031601135" lon="10.767116394197776"><ele>456.75</ele><time>2026-03-27T12:36:25Z</time></trkpt><trkpt lat="43.275627783694034" lon="10.76712834963923"><ele>458.5</ele><time>2026-03-27T12:36:26Z</time></trkpt><trkpt lat="43.275725883640085" lon="10.767210477337274"><ele>460.25</ele><time>2026-03-27T12:36:27Z</time></trkpt><trkpt lat="43.275806286209125" lon="10.767335112876825"><ele>462.0</ele><time>2026-03-27T12:36:28Z</time></trkpt><trkpt lat="43.27587815133378" lon="10.767466510354033"><ele>462.0</ele><time>2026-03-27T12:36:29Z</time></trkpt><trkpt lat="43.275947697357225" lon="10.767601620760699"><ele>462.0</ele><time>2026-03-27T12:36:30Z</time></trkpt><trkpt lat="43.276003537206854" lon="10.767730708167948"><ele>462.0</ele><time>2026-03-27T12:36:31Z</time></trkpt><trkpt lat="43.27605415510432" lon="10.767890339629188"><ele>462.0</ele><time>2026-03-27T12:36:32Z</time></trkpt><trkpt lat="43.27609082173091" lon="10.768029539144955"><ele>459.40000000000003</ele><time>2026-03-27T12:36:33Z</time></trkpt><trkpt lat="43.27607306387891" lon="10.768199005879094"><ele>456.80000000000007</ele><time>2026-03-27T12:36:34Z</time></trkpt><trkpt lat="43.27608209925473" lon="10.768340006820738"><ele>454.2</ele><time>2026-03-27T12:36:35Z</time></trkpt><trkpt lat="43.27608175111377" lon="10.76848357660168"><ele>451.6</ele><time>2026-03-27T12:36:36Z</time></trkpt><trkpt lat="43.27608641035416" lon="10.768610977612056"><ele>449.0</ele><time>2026-03-27T12:36:37Z</time></trkpt><trkpt lat="43.27602433380661" lon="10.768723610489428"><ele>448.0</ele><time>2026-03-27T12:36:38Z</time></trkpt><trkpt lat="43.27596603791985" lon="10.76883486448117"><ele>447.0</ele><time>2026-03-27T12:36:39Z</time></trkpt><trkpt lat="43.27590827202465" lon="10.768973936592252"><ele>446.0</ele><time>2026-03-27T12:36:40Z</time></trkpt><trkpt lat="43.27582583009042" lon="10.769085827976967"><ele>445.0</ele><time>2026-03-27T12:36:41Z</time></trkpt><trkpt lat="43.27577419873813" lon="10.76922667607625"><ele>444.0</ele><time>2026-03-27T12:36:42Z</time></trkpt><trkpt lat="43.27572259089195" lon="10.769395653509894"><ele>444.0</ele><time>2026-03-27T12:36:43Z</time></trkpt><trkpt lat="43.27569270882678" lon="10.769571299133338"><ele>444.0</ele><time>2026-03-27T12:36:44Z</time></trkpt><trkpt lat="43.27565114367008" lon="10.769732650223595"><ele>444.0</ele><time>2026-03-27T12:36:45Z</time></trkpt><trkpt lat="43.27555679229391" lon="10.769910472045463"><ele>444.0</ele><time>2026-03-27T12:36:46Z</time></trkpt><trkpt lat="43.27548238638132" lon="10.770061356672647"><ele>447.4</ele><time>2026-03-27T12:36:47Z</time></trkpt><trkpt lat="43.27542724071917" lon="10.77021359695683"><ele>450.79999999999995</ele><time>2026-03-27T12:36:48Z</time></trkpt><trkpt lat="43.2754034415881" lon="10.77036171434753"><ele>454.20000000000005</ele><time>2026-03-27T12:36:49Z</time></trkpt><trkpt lat="43.27539045463757" lon="10.77049408779582"><ele>457.6</ele><time>2026-03-27T12:36:50Z</time></trkpt><trkpt lat="43.27540899821408" lon="10.770632658386656"><ele>461.0</ele><time>2026-03-27T12:36:51Z</time></trkpt><trkpt lat="43.27543943409062" lon="10.770794236611714"><ele>461.0</ele><time>2026-03-27T12:36:52Z</time></trkpt><trkpt lat="43.27545624927046" lon="10.770960207236909"><ele>461.0</ele><time>2026-03-27T12:36:53Z</time></trkpt><trkpt lat="43.27543397771279" lon="10.77117669224721"><ele>461.0</ele><time>2026-03-27T12:36:54Z</time></trkpt><trkpt lat="43.27541860343033" lon="10.771368073293342"><ele>461.0</ele><time>2026-03-27T12:36:55Z</time></trkpt><trkpt lat="43.27539824342079" lon="10.771554797959139"><ele>462.0</ele><time>2026-03-27T12:36:56Z</time></trkpt><trkpt lat="43.27538577596803" lon="10.771740275463756"><ele>463.0</ele><time>2026-03-27T12:36:57Z</time></trkpt><trkpt lat="43.27538321090613" lon="10.771906289269062"><ele>464.0</ele><time>2026-03-27T12:36:58Z</time></trkpt><trkpt lat="43.2754141188787" lon="10.772067240884992"><ele>465.0</ele><time>2026-03-27T12:36:59Z</time></trkpt><trkpt lat="43.27549749200239" lon="10.772212769792583"><ele>462.5</ele><time>2026-03-27T12:37:00Z</time></trkpt><trkpt lat="43.27560985450802" lon="10.772378309629662"><ele>460.0</ele><time>2026-03-27T12:37:01Z</time></trkpt><trkpt lat="43.27569975128617" lon="10.772529581802686"><ele>457.5</ele><time>2026-03-27T12:37:02Z</time></trkpt><trkpt lat="43.275762990282196" lon="10.772680712048377"><ele>455.0</ele><time>2026-03-27T12:37:03Z</time></trkpt><trkpt lat="43.27579968780067" lon="10.772822841200286"><ele>453.0</ele><time>2026-03-27T12:37:04Z</time></trkpt><trkpt lat="43.275825683890254" lon="10.772936458986946"><ele>451.0</ele><time>2026-03-27T12:37:05Z</time></trkpt><trkpt lat="43.275870959521626" lon="10.773023272254827"><ele>449.0</ele><time>2026-03-27T12:37:06Z</time></trkpt><trkpt lat="43.27595001268274" lon="10.77307590400782"><ele>447.0</ele><time>2026-03-27T12:37:07Z</time></trkpt><trkpt lat="43.27605506829305" lon="10.773086162580507"><ele>445.0</ele><time>2026-03-27T12:37:08Z</time></trkpt><trkpt lat="43.27617504774025" lon="10.773110436662067"><ele>445.0</ele><time>2026-03-27T12:37:09Z</time></trkpt><trkpt lat="43.2762686438805" lon="10.773191348603742"><ele>445.0</ele><time>2026-03-27T12:37:10Z</time></trkpt><trkpt lat="43.276327304080986" lon="10.773310902676167"><ele>445.0</ele><time>2026-03-27T12:37:11Z</time></trkpt><trkpt lat="43.27635203203242" lon="10.773450350701744"><ele>445.0</ele><time>2026-03-27T12:37:12Z</time></trkpt><trkpt lat="43.27637266687768" lon="10.773601321990519"><ele>445.0</ele><time>2026-03-27T12:37:13Z</time></trkpt><trkpt lat="43.27643329462724" lon="10.77371126026816"><ele>446.75</ele><time>2026-03-27T12:37:14Z</time></trkpt><trkpt lat="43.27652669803513" lon="10.773805512409632"><ele>448.5</ele><time>2026-03-27T12:37:15Z</time></trkpt><trkpt lat="43.27660809754596" lon="10.773904608889655"><ele>450.25</ele><time>2026-03-27T12:37:16Z</time></trkpt><trkpt lat="43.276655033621225" lon="10.774062994687423"><ele>452.0</ele><time>2026-03-27T12:37:17Z</time></trkpt><trkpt lat="43.27668443315268" lon="10.774242677318782"><ele>451.40000000000003</ele><time>2026-03-27T12:37:18Z</time></trkpt><trkpt lat="43.27672609366356" lon="10.774389453677697"><ele>450.80000000000007</ele><time>2026-03-27T12:37:19Z</time></trkpt><trkpt lat="43.27675782936969" lon="10.774505254471196"><ele>450.2</ele><time>2026-03-27T12:37:20Z</time></trkpt><trkpt lat="43.27674693647381" lon="10.774602950634574"><ele>449.6</ele><time>2026-03-27T12:37:21Z</time></trkpt><trkpt lat="43.276652378078204" lon="10.774661682418918"><ele>449.0</ele><time>2026-03-27T12:37:22Z</time></trkpt><trkpt lat="43.27656157875994" lon="10.774786204380021"><ele>449.0</ele><time>2026-03-27T12:37:23Z</time></trkpt><trkpt lat="43.276472155531906" lon="10.77488628154529"><ele>449.0</ele><time>2026-03-27T12:37:24Z</time></trkpt><trkpt lat="43.2764209987272" lon="10.774995125904757"><ele>449.0</ele><time>2026-03-27T12:37:25Z</time></trkpt><trkpt lat="43.27638714992122" lon="10.775103324760318"><ele>449.0</ele><time>2026-03-27T12:37:26Z</time></trkpt><trkpt lat="43.27637830682357" lon="10.775254564158237"><ele>449.0</ele><time>2026-03-27T12:37:27Z</time></trkpt><trkpt lat="43.27639354729868" lon="10.775416554113232"><ele>444.79999999999995</ele><time>2026-03-27T12:37:28Z</time></trkpt><trkpt lat="43.27639374921625" lon="10.775543872213529"><ele>440.59999999999997</ele><time>2026-03-27T12:37:29Z</time></trkpt><trkpt lat="43.27635702759645" lon="10.775660165067332"><ele>436.4</ele><time>2026-03-27T12:37:30Z</time></trkpt><trkpt lat="43.27628706767141" lon="10.775761819605933"><ele>432.2</ele><time>2026-03-27T12:37:31Z</time></trkpt><trkpt lat="43.27623154198119" lon="10.775868138010058"><ele>428.0</ele><time>2026-03-27T12:37:32Z</time></trkpt><trkpt lat="43.27619138975286" lon="10.775971532658877"><ele>427.59999999999997</ele><time>2026-03-27T12:37:33Z</time></trkpt><trkpt lat="43.2761730492067" lon="10.776087225993953"><ele>427.19999999999993</ele><time>2026-03-27T12:37:34Z</time></trkpt><trkpt lat="43.27622773255669" lon="10.776213045775362"><ele>426.8</ele><time>2026-03-27T12:37:35Z</time></trkpt><trkpt lat="43.276331389253826" lon="10.776309890643068"><ele>426.4</ele><time>2026-03-27T12:37:36Z</time></trkpt><trkpt lat="43.27642174405071" lon="10.776382963615982"><ele>426.0</ele><time>2026-03-27T12:37:37Z</time></trkpt><trkpt lat="43.27650873788344" lon="10.776440954316524"><ele>426.0</ele><time>2026-03-27T12:37:38Z</time></trkpt><trkpt lat="43.276621686230314" lon="10.776428825583796"><ele>426.0</ele><time>2026-03-27T12:37:38.999Z</time></trkpt><trkpt lat="43.27673281522664" lon="10.776339914833239"><ele>426.0</ele><time>2026-03-27T12:37:39.999Z</time></trkpt><trkpt lat="43.276845867843" lon="10.776290515168704"><ele>426.0</ele><time>2026-03-27T12:37:40.999Z</time></trkpt><trkpt lat="43.276934127458624" lon="10.776215036567315"><ele>426.0</ele><time>2026-03-27T12:37:41.999Z</time></trkpt><trkpt lat="43.277022283888655" lon="10.776180643245182"><ele>426.0</ele><time>2026-03-27T12:37:42.999Z</time></trkpt><trkpt lat="43.27710051531555" lon="10.77620906035939"><ele>426.0</ele><time>2026-03-27T12:37:44Z</time></trkpt><trkpt lat="43.277194253877404" lon="10.776298986388369"><ele>426.0</ele><time>2026-03-27T12:37:45Z</time></trkpt><trkpt lat="43.27728919884409" lon="10.776378439008496"><ele>426.0</ele><time>2026-03-27T12:37:46Z</time></trkpt><trkpt lat="43.27737899599561" lon="10.776368957023996"><ele>425.6</ele><time>2026-03-27T12:37:47Z</time></trkpt><trkpt lat="43.277476972267564" lon="10.776296385609596"><ele>425.20000000000005</ele><time>2026-03-27T12:37:48Z</time></trkpt><trkpt lat="43.277562335194965" lon="10.776201578321995"><ele>424.79999999999995</ele><time>2026-03-27T12:37:49Z</time></trkpt><trkpt lat="43.277634640694586" lon="10.77614960227072"><ele>424.4</ele><time>2026-03-27T12:37:50Z</time></trkpt><trkpt lat="43.277705659095936" lon="10.776179308832425"><ele>424.0</ele><time>2026-03-27T12:37:51Z</time></trkpt><trkpt lat="43.277754122642136" lon="10.776277906797327"><ele>424.0</ele><time>2026-03-27T12:37:52Z</time></trkpt><trkpt lat="43.27778777772038" lon="10.776414319480612"><ele>424.0</ele><time>2026-03-27T12:37:53Z</time></trkpt><trkpt lat="43.27780979753723" lon="10.776569315224194"><ele>424.0</ele><time>2026-03-27T12:37:54Z</time></trkpt><trkpt lat="43.2778558684387" lon="10.776742157763145"><ele>424.0</ele><time>2026-03-27T12:37:55Z</time></trkpt><trkpt lat="43.27792658848927" lon="10.776891748888879"><ele>422.83333333333337</ele><time>2026-03-27T12:37:56Z</time></trkpt><trkpt lat="43.277989709820076" lon="10.777003013718483"><ele>421.6666666666667</ele><time>2026-03-27T12:37:57Z</time></trkpt><trkpt lat="43.27800927292824" lon="10.777103025543319"><ele>420.5</ele><time>2026-03-27T12:37:58Z</time></trkpt><trkpt lat="43.278012586397224" lon="10.777189905330918"><ele>419.33333333333337</ele><time>2026-03-27T12:37:59Z</time></trkpt><trkpt lat="43.27804792791352" lon="10.777272140460934"><ele>418.1666666666667</ele><time>2026-03-27T12:38:00Z</time></trkpt><trkpt lat="43.278107658514855" lon="10.777314686565811"><ele>417.0</ele><time>2026-03-27T12:38:01Z</time></trkpt><trkpt lat="43.27817854096239" lon="10.777298803846556"><ele>417.0</ele><time>2026-03-27T12:38:02Z</time></trkpt><trkpt lat="43.278237426924605" lon="10.777227456447797"><ele>417.0</ele><time>2026-03-27T12:38:03Z</time></trkpt><trkpt lat="43.27828911174778" lon="10.77712655256096"><ele>417.0</ele><time>2026-03-27T12:38:04Z</time></trkpt><trkpt lat="43.27835430527545" lon="10.777008764383762"><ele>417.0</ele><time>2026-03-27T12:38:05Z</time></trkpt><trkpt lat="43.278469504395055" lon="10.776906283783568"><ele>417.0</ele><time>2026-03-27T12:38:06Z</time></trkpt><trkpt lat="43.27855070641117" lon="10.776848349050827"><ele>417.0</ele><time>2026-03-27T12:38:07Z</time></trkpt><trkpt lat="43.278635690888144" lon="10.776821083116658"><ele>417.0</ele><time>2026-03-27T12:38:08Z</time></trkpt><trkpt lat="43.278717973141546" lon="10.776890396586303"><ele>417.0</ele><time>2026-03-27T12:38:09Z</time></trkpt><trkpt lat="43.27877978623021" lon="10.776991696855044"><ele>417.0</ele><time>2026-03-27T12:38:10Z</time></trkpt><trkpt lat="43.27882914550771" lon="10.777103401523817"><ele>417.0</ele><time>2026-03-27T12:38:11Z</time></trkpt><trkpt lat="43.27891461529027" lon="10.777168103253956"><ele>417.75</ele><time>2026-03-27T12:38:12Z</time></trkpt><trkpt lat="43.27901323639467" lon="10.777179000961903"><ele>418.5</ele><time>2026-03-27T12:38:13Z</time></trkpt><trkpt lat="43.27912110517941" lon="10.77717302753836"><ele>419.25</ele><time>2026-03-27T12:38:14Z</time></trkpt><trkpt lat="43.279231147935434" lon="10.777150427426696"><ele>420.0</ele><time>2026-03-27T12:38:15Z</time></trkpt><trkpt lat="43.279356932817976" lon="10.777213436037764"><ele>420.0</ele><time>2026-03-27T12:38:16Z</time></trkpt><trkpt lat="43.27945650104134" lon="10.777289815350683"><ele>420.0</ele><time>2026-03-27T12:38:17Z</time></trkpt><trkpt lat="43.27954349767246" lon="10.77735328078681"><ele>420.0</ele><time>2026-03-27T12:38:18Z</time></trkpt><trkpt lat="43.2796182572232" lon="10.77745576575702"><ele>420.0</ele><time>2026-03-27T12:38:19Z</time></trkpt><trkpt lat="43.279686622814445" lon="10.777591641708556"><ele>420.0</ele><time>2026-03-27T12:38:20Z</time></trkpt><trkpt lat="43.27970932974373" lon="10.777733231371444"><ele>417.25</ele><time>2026-03-27T12:38:21Z</time></trkpt><trkpt lat="43.27979749467175" lon="10.77786557923888"><ele>414.5</ele><time>2026-03-27T12:38:22Z</time></trkpt><trkpt lat="43.27987739221288" lon="10.778004875386147"><ele>411.75</ele><time>2026-03-27T12:38:23Z</time></trkpt><trkpt lat="43.279951435796384" lon="10.778131408933476"><ele>409.0</ele><time>2026-03-27T12:38:24Z</time></trkpt><trkpt lat="43.280022160132596" lon="10.778250475573453"><ele>409.0</ele><time>2026-03-27T12:38:25Z</time></trkpt><trkpt lat="43.28007144530831" lon="10.778381117172161"><ele>409.0</ele><time>2026-03-27T12:38:26Z</time></trkpt><trkpt lat="43.28016805808243" lon="10.778471459377672"><ele>409.0</ele><time>2026-03-27T12:38:27Z</time></trkpt><trkpt lat="43.28028299381888" lon="10.778555960353186"><ele>409.0</ele><time>2026-03-27T12:38:28Z</time></trkpt><trkpt lat="43.28040915421571" lon="10.77862876219199"><ele>406.75</ele><time>2026-03-27T12:38:29Z</time></trkpt><trkpt lat="43.28051823843175" lon="10.778725292089756"><ele>404.5</ele><time>2026-03-27T12:38:30Z</time></trkpt><trkpt lat="43.280634123855094" lon="10.778801792864478"><ele>402.25</ele><time>2026-03-27T12:38:31Z</time></trkpt><trkpt lat="43.28074255414777" lon="10.778858652641045"><ele>400.0</ele><time>2026-03-27T12:38:32Z</time></trkpt><trkpt lat="43.28082419526007" lon="10.778943409635863"><ele>400.0</ele><time>2026-03-27T12:38:33Z</time></trkpt><trkpt lat="43.280871430496795" lon="10.779059107515398"><ele>400.0</ele><time>2026-03-27T12:38:34Z</time></trkpt><trkpt lat="43.28091207446751" lon="10.779194253304446"><ele>400.0</ele><time>2026-03-27T12:38:35Z</time></trkpt><trkpt lat="43.28094366526434" lon="10.77933582047429"><ele>400.0</ele><time>2026-03-27T12:38:36Z</time></trkpt><trkpt lat="43.280951116484175" lon="10.77947314560192"><ele>400.0</ele><time>2026-03-27T12:38:37Z</time></trkpt><trkpt lat="43.28098283917055" lon="10.779617358618712"><ele>398.2</ele><time>2026-03-27T12:38:38Z</time></trkpt><trkpt lat="43.28100920938776" lon="10.7797429521305"><ele>396.4</ele><time>2026-03-27T12:38:39Z</time></trkpt><trkpt lat="43.281046583803274" lon="10.779863800005021"><ele>394.6</ele><time>2026-03-27T12:38:40Z</time></trkpt><trkpt lat="43.28112969430533" lon="10.779967163456629"><ele>392.8</ele><time>2026-03-27T12:38:41Z</time></trkpt><trkpt lat="43.28123401761425" lon="10.780072980644997"><ele>391.0</ele><time>2026-03-27T12:38:42Z</time></trkpt><trkpt lat="43.28133337408623" lon="10.780215490145325"><ele>391.8</ele><time>2026-03-27T12:38:43Z</time></trkpt><trkpt lat="43.28142734546243" lon="10.7803334655283"><ele>392.6</ele><time>2026-03-27T12:38:44Z</time></trkpt><trkpt lat="43.28151317472137" lon="10.780443944248523"><ele>393.4</ele><time>2026-03-27T12:38:45Z</time></trkpt><trkpt lat="43.28159324743242" lon="10.780534521199572"><ele>394.2</ele><time>2026-03-27T12:38:46Z</time></trkpt><trkpt lat="43.281660552773126" lon="10.78061308247861"><ele>395.0</ele><time>2026-03-27T12:38:47Z</time></trkpt><trkpt lat="43.28171927992564" lon="10.78070594806386"><ele>394.99999999999994</ele><time>2026-03-27T12:38:48Z</time></trkpt><trkpt lat="43.28176363891854" lon="10.780815572232619"><ele>395.0</ele><time>2026-03-27T12:38:49Z</time></trkpt><trkpt lat="43.281808893573995" lon="10.780937573703794"><ele>395.0</ele><time>2026-03-27T12:38:50Z</time></trkpt><trkpt lat="43.28184121696684" lon="10.781040538369034"><ele>395.0</ele><time>2026-03-27T12:38:51Z</time></trkpt><trkpt lat="43.28186417504662" lon="10.781127672797057"><ele>394.99999999999994</ele><time>2026-03-27T12:38:52Z</time></trkpt><trkpt lat="43.28189675643511" lon="10.781205517571113"><ele>395.0</ele><time>2026-03-27T12:38:53Z</time></trkpt><trkpt lat="43.28192804933775" lon="10.78128629281915"><ele>394.66666666666663</ele><time>2026-03-27T12:38:54Z</time></trkpt><trkpt lat="43.28195208513326" lon="10.781384107430176"><ele>394.3333333333333</ele><time>2026-03-27T12:38:55Z</time></trkpt><trkpt lat="43.281967078148305" lon="10.781485416546888"><ele>394.0</ele><time>2026-03-27T12:38:56Z</time></trkpt><trkpt lat="43.281990196512005" lon="10.78158516829745"><ele>393.66666666666663</ele><time>2026-03-27T12:38:57Z</time></trkpt><trkpt lat="43.28201195041638" lon="10.781683787655203"><ele>393.3333333333333</ele><time>2026-03-27T12:38:58Z</time></trkpt><trkpt lat="43.282049301813274" lon="10.781776661947367"><ele>393.0</ele><time>2026-03-27T12:38:59Z</time></trkpt><trkpt lat="43.28209785463903" lon="10.781865483395295"><ele>392.2</ele><time>2026-03-27T12:39:00Z</time></trkpt><trkpt lat="43.28214465776033" lon="10.781933195720486"><ele>391.4</ele><time>2026-03-27T12:39:01Z</time></trkpt><trkpt lat="43.28219112487085" lon="10.782001313459466"><ele>390.59999999999997</ele><time>2026-03-27T12:39:54Z</time></trkpt><trkpt lat="43.2822885462097" lon="10.782150803959842"><ele>389.79999999999995</ele><time>2026-03-27T12:39:57Z</time></trkpt><trkpt lat="43.282361893642864" lon="10.782270882178436"><ele>389.0</ele><time>2026-03-27T12:39:58Z</time></trkpt><trkpt lat="43.282421224913605" lon="10.78237591476046"><ele>389.79999999999995</ele><time>2026-03-27T12:39:59Z</time></trkpt><trkpt lat="43.28245624424883" lon="10.782496367508092"><ele>390.59999999999997</ele><time>2026-03-27T12:40:00Z</time></trkpt><trkpt lat="43.28252402204328" lon="10.782580718770642"><ele>391.4</ele><time>2026-03-27T12:40:01Z</time></trkpt><trkpt lat="43.2825832602155" lon="10.782667213649107"><ele>392.2</ele><time>2026-03-27T12:40:02Z</time></trkpt><trkpt lat="43.28266290747256" lon="10.782719304062137"><ele>393.0</ele><time>2026-03-27T12:40:03Z</time></trkpt><trkpt lat="43.282778420474926" lon="10.78275434075512"><ele>393.0</ele><time>2026-03-27T12:40:04Z</time></trkpt><trkpt lat="43.28289500099257" lon="10.782768756388858"><ele>393.0</ele><time>2026-03-27T12:40:05Z</time></trkpt><trkpt lat="43.28302589704206" lon="10.782763449522053"><ele>393.0</ele><time>2026-03-27T12:40:06Z</time></trkpt><trkpt lat="43.283166972355374" lon="10.782787947038292"><ele>393.0</ele><time>2026-03-27T12:40:07Z</time></trkpt><trkpt lat="43.28329306700449" lon="10.782817662923442"><ele>393.25</ele><time>2026-03-27T12:40:08Z</time></trkpt><trkpt lat="43.283420519700854" lon="10.78286598937263"><ele>393.5</ele><time>2026-03-27T12:40:09Z</time></trkpt><trkpt lat="43.283546521445324" lon="10.782912088141996"><ele>393.75</ele><time>2026-03-27T12:40:10Z</time></trkpt><trkpt lat="43.283661456206175" lon="10.78295138028796"><ele>394.0</ele><time>2026-03-27T12:40:11Z</time></trkpt><trkpt lat="43.2837788845553" lon="10.783001423274518"><ele>394.0</ele><time>2026-03-27T12:40:12Z</time></trkpt><trkpt lat="43.283887645842285" lon="10.783056241864527"><ele>394.0</ele><time>2026-03-27T12:40:13Z</time></trkpt><trkpt lat="43.284000672006144" lon="10.783138174062344"><ele>394.0</ele><time>2026-03-27T12:40:14Z</time></trkpt><trkpt lat="43.284139250690814" lon="10.783216217694962"><ele>394.0</ele><time>2026-03-27T12:40:15Z</time></trkpt><trkpt lat="43.2842381222845" lon="10.783297456568159"><ele>396.0</ele><time>2026-03-27T12:40:16Z</time></trkpt><trkpt lat="43.284363739841055" lon="10.783373532696158"><ele>398.0</ele><time>2026-03-27T12:40:17Z</time></trkpt><trkpt lat="43.28446090399183" lon="10.783449492711695"><ele>400.0</ele><time>2026-03-27T12:40:18Z</time></trkpt><trkpt lat="43.284578712658266" lon="10.783524531981735"><ele>402.0</ele><time>2026-03-27T12:40:19Z</time></trkpt><trkpt lat="43.28469435294432" lon="10.783588560549333"><ele>404.8</ele><time>2026-03-27T12:40:20Z</time></trkpt><trkpt lat="43.284805400122785" lon="10.783653043220438"><ele>407.6</ele><time>2026-03-27T12:40:21Z</time></trkpt><trkpt lat="43.284904954247494" lon="10.783713443281231"><ele>410.40000000000003</ele><time>2026-03-27T12:40:22Z</time></trkpt><trkpt lat="43.28499197493517" lon="10.783768711963925"><ele>413.20000000000005</ele><time>2026-03-27T12:40:23Z</time></trkpt><trkpt lat="43.2850733679005" lon="10.783810668673512"><ele>416.0</ele><time>2026-03-27T12:40:24Z</time></trkpt><trkpt lat="43.28514475871037" lon="10.783851901183972"><ele>416.0</ele><time>2026-03-27T12:40:25Z</time></trkpt><trkpt lat="43.28521402077013" lon="10.78387521246918"><ele>416.0</ele><time>2026-03-27T12:40:26Z</time></trkpt><trkpt lat="43.28527214926673" lon="10.7839341409876"><ele>416.0</ele><time>2026-03-27T12:40:27Z</time></trkpt><trkpt lat="43.28542879411096" lon="10.783797955625822"><ele>416.0</ele><time>2026-03-27T12:40:29Z</time></trkpt><trkpt lat="43.285478133074804" lon="10.78371079363862"><ele>416.0</ele><time>2026-03-27T12:40:30Z</time></trkpt><trkpt lat="43.28553949662212" lon="10.783642851719186"><ele>417.8</ele><time>2026-03-27T12:40:31Z</time></trkpt><trkpt lat="43.28560899163685" lon="10.783585310790619"><ele>419.6</ele><time>2026-03-27T12:40:32Z</time></trkpt><trkpt lat="43.28568304654318" lon="10.783525914409212"><ele>421.4</ele><time>2026-03-27T12:40:33Z</time></trkpt><trkpt lat="43.28575837534167" lon="10.783456307702187"><ele>423.2</ele><time>2026-03-27T12:40:34Z</time></trkpt><trkpt lat="43.285862272658626" lon="10.78339309982363"><ele>425.0</ele><time>2026-03-27T12:40:35Z</time></trkpt><trkpt lat="43.28596898188873" lon="10.783340754165204"><ele>425.0</ele><time>2026-03-27T12:40:36Z</time></trkpt><trkpt lat="43.28606590877893" lon="10.783288913380082"><ele>425.0</ele><time>2026-03-27T12:40:37Z</time></trkpt><trkpt lat="43.286140051823935" lon="10.783225504933586"><ele>425.0</ele><time>2026-03-27T12:40:38Z</time></trkpt><trkpt lat="43.286184052717026" lon="10.783125535117128"><ele>425.0</ele><time>2026-03-27T12:40:39Z</time></trkpt><trkpt lat="43.28624446280146" lon="10.783095534061603"><ele>425.0</ele><time>2026-03-27T12:40:40Z</time></trkpt><trkpt lat="43.28629771659644" lon="10.783264592335751"><ele>424.99999999999994</ele><time>2026-03-27T12:40:42Z</time></trkpt><trkpt lat="43.28631187890768" lon="10.783361826079188"><ele>425.0</ele><time>2026-03-27T12:40:43Z</time></trkpt><trkpt lat="43.2863478098413" lon="10.783439080806918"><ele>425.0</ele><time>2026-03-27T12:40:44Z</time></trkpt><trkpt lat="43.28637595984299" lon="10.783524333531854"><ele>425.0</ele><time>2026-03-27T12:40:45Z</time></trkpt><trkpt lat="43.286395121740746" lon="10.783613184260838"><ele>424.99999999999994</ele><time>2026-03-27T12:40:46Z</time></trkpt><trkpt lat="43.28641984091169" lon="10.783695648044667"><ele>425.0</ele><time>2026-03-27T12:40:47Z</time></trkpt><trkpt lat="43.28653491499543" lon="10.783714364573063"><ele>430.0</ele><time>2026-03-27T12:40:48Z</time></trkpt><trkpt lat="43.28660245711462" lon="10.783753749927406"><ele>435.0</ele><time>2026-03-27T12:40:49Z</time></trkpt><trkpt lat="43.286659738699626" lon="10.783790752473466"><ele>440.0</ele><time>2026-03-27T12:40:50Z</time></trkpt><trkpt lat="43.28684198765587" lon="10.783934380329535"><ele>445.0</ele><time>2026-03-27T12:40:52Z</time></trkpt><trkpt lat="43.28694170293626" lon="10.78384900679611"><ele>445.0</ele><time>2026-03-27T12:40:54Z</time></trkpt><trkpt lat="43.28703608275438" lon="10.78380528069289"><ele>445.0</ele><time>2026-03-27T12:40:56Z</time></trkpt><trkpt lat="43.28713420613818" lon="10.783800183781379"><ele>445.0</ele><time>2026-03-27T12:40:58Z</time></trkpt><trkpt lat="43.28721780337021" lon="10.783846826018431"><ele>445.0</ele><time>2026-03-27T12:41:00Z</time></trkpt><trkpt lat="43.2872809390026" lon="10.783864516430047"><ele>445.0</ele><time>2026-03-27T12:41:01Z</time></trkpt><trkpt lat="43.28740758818517" lon="10.78389944883643"><ele>446.6666666666667</ele><time>2026-03-27T12:41:03Z</time></trkpt><trkpt lat="43.28749903643079" lon="10.783924174003285"><ele>448.33333333333337</ele><time>2026-03-27T12:41:05Z</time></trkpt><trkpt lat="43.28756467738353" lon="10.783941921533831"><ele>450.0</ele><time>2026-03-27T12:41:07Z</time></trkpt><trkpt lat="43.28782737517932" lon="10.783190457103299"><ele>446.6</ele><time>2026-03-27T12:41:11Z</time></trkpt><trkpt lat="43.28790698494389" lon="10.783128814581685"><ele>443.2</ele><time>2026-03-27T12:41:13Z</time></trkpt><trkpt lat="43.28803887269271" lon="10.783158256182446"><ele>439.79999999999995</ele><time>2026-03-27T12:41:15Z</time></trkpt><trkpt lat="43.28811734647262" lon="10.78318715071503"><ele>436.4</ele><time>2026-03-27T12:41:16Z</time></trkpt><trkpt lat="43.28818835095154" lon="10.783201267702564"><ele>433.0</ele><time>2026-03-27T12:41:17Z</time></trkpt><trkpt lat="43.28825212708876" lon="10.783265490363068"><ele>430.0</ele><time>2026-03-27T12:41:18Z</time></trkpt><trkpt lat="43.288328806266975" lon="10.783279616992031"><ele>426.99999999999994</ele><time>2026-03-27T12:41:19Z</time></trkpt><trkpt lat="43.28844476797671" lon="10.783262713496496"><ele>424.0</ele><time>2026-03-27T12:41:21Z</time></trkpt><trkpt lat="43.28851734440862" lon="10.783249419694863"><ele>421.0</ele><time>2026-03-27T12:41:23Z</time></trkpt><trkpt lat="43.28859146921681" lon="10.78316153539899"><ele>418.0</ele><time>2026-03-27T12:41:25Z</time></trkpt><trkpt lat="43.28867825889924" lon="10.783099475211014"><ele>418.0</ele><time>2026-03-27T12:41:27Z</time></trkpt><trkpt lat="43.2887738988278" lon="10.783080958905105"><ele>418.0</ele><time>2026-03-27T12:41:29Z</time></trkpt><trkpt lat="43.28885703626752" lon="10.782985788779667"><ele>418.0</ele><time>2026-03-27T12:41:31Z</time></trkpt><trkpt lat="43.28895810175157" lon="10.78284639222603"><ele>418.0</ele><time>2026-03-27T12:41:33Z</time></trkpt><trkpt lat="43.28900399172058" lon="10.78278092528143"><ele>418.0</ele><time>2026-03-27T12:41:34Z</time></trkpt><trkpt lat="43.28895938174928" lon="10.782586803401482"><ele>414.50000000000006</ele><time>2026-03-27T12:41:35Z</time></trkpt><trkpt lat="43.28895770204609" lon="10.782486876565066"><ele>411.0</ele><time>2026-03-27T12:41:36Z</time></trkpt><trkpt lat="43.288939014766605" lon="10.782338856673444"><ele>407.5</ele><time>2026-03-27T12:41:38Z</time></trkpt><trkpt lat="43.289006920043164" lon="10.78228843842889"><ele>404.0</ele><time>2026-03-27T12:41:41Z</time></trkpt><trkpt lat="43.28908486864347" lon="10.782307725095475"><ele>400.50000000000006</ele><time>2026-03-27T12:41:43Z</time></trkpt><trkpt lat="43.28916829486033" lon="10.782379768652232"><ele>397.0</ele><time>2026-03-27T12:41:45Z</time></trkpt><trkpt lat="43.28925683143758" lon="10.782404038803888"><ele>397.00000000000006</ele><time>2026-03-27T12:41:47Z</time></trkpt><trkpt lat="43.28933875078895" lon="10.782352719692462"><ele>397.0</ele><time>2026-03-27T12:41:49Z</time></trkpt><trkpt lat="43.28939935679241" lon="10.782252832773706"><ele>397.0</ele><time>2026-03-27T12:41:51Z</time></trkpt><trkpt lat="43.28943347904916" lon="10.782151199445032"><ele>397.0</ele><time>2026-03-27T12:41:52Z</time></trkpt><trkpt lat="43.28947952098721" lon="10.782056409817907"><ele>397.00000000000006</ele><time>2026-03-27T12:41:55Z</time></trkpt><trkpt lat="43.28951736284522" lon="10.781936816207798"><ele>397.0</ele><time>2026-03-27T12:41:57Z</time></trkpt><trkpt lat="43.28959582940667" lon="10.781832078356983"><ele>394.0</ele><time>2026-03-27T12:41:59Z</time></trkpt><trkpt lat="43.289545689333224" lon="10.78168605984317"><ele>391.0</ele><time>2026-03-27T12:42:01Z</time></trkpt><trkpt lat="43.28948208437911" lon="10.781560186306697"><ele>388.0</ele><time>2026-03-27T12:42:02Z</time></trkpt><trkpt lat="43.28945628153494" lon="10.78147319559131"><ele>385.0</ele><time>2026-03-27T12:42:03Z</time></trkpt><trkpt lat="43.289401734284155" lon="10.781319240570685"><ele>382.0</ele><time>2026-03-27T12:42:05Z</time></trkpt><trkpt lat="43.28930503435886" lon="10.781240449969921"><ele>382.0</ele><time>2026-03-27T12:42:07Z</time></trkpt><trkpt lat="43.28925702214463" lon="10.781182355693138"><ele>382.0</ele><time>2026-03-27T12:42:08Z</time></trkpt><trkpt lat="43.289166243819146" lon="10.781119336727157"><ele>382.0</ele><time>2026-03-27T12:42:10Z</time></trkpt><trkpt lat="43.28907092429075" lon="10.78107556078904"><ele>382.0</ele><time>2026-03-27T12:42:13Z</time></trkpt><trkpt lat="43.28899012038892" lon="10.781102776840578"><ele>382.0</ele><time>2026-03-27T12:42:16Z</time></trkpt><trkpt lat="43.28890222091866" lon="10.781055055958639"><ele>382.0</ele><time>2026-03-27T12:42:18Z</time></trkpt><trkpt lat="43.28884785208942" lon="10.780975509686789"><ele>377.16666666666663</ele><time>2026-03-27T12:42:20Z</time></trkpt><trkpt lat="43.28881169097916" lon="10.780875119250231"><ele>372.3333333333333</ele><time>2026-03-27T12:42:21Z</time></trkpt><trkpt lat="43.288772368025576" lon="10.780793599611078"><ele>367.5</ele><time>2026-03-27T12:42:22Z</time></trkpt><trkpt lat="43.28876988740581" lon="10.780667811915933"><ele>362.6666666666667</ele><time>2026-03-27T12:42:23Z</time></trkpt><trkpt lat="43.28876325706146" lon="10.780579117796986"><ele>357.83333333333337</ele><time>2026-03-27T12:42:24Z</time></trkpt><trkpt lat="43.28869356921056" lon="10.780479864848514"><ele>353.0</ele><time>2026-03-27T12:42:26Z</time></trkpt><trkpt lat="43.2886194096545" lon="10.780419777392412"><ele>353.0</ele><time>2026-03-27T12:42:31Z</time></trkpt><trkpt lat="43.288533353751816" lon="10.780371325372732"><ele>353.0</ele><time>2026-03-27T12:42:33Z</time></trkpt><trkpt lat="43.28847089978146" lon="10.780435220024424"><ele>353.0</ele><time>2026-03-27T12:42:36Z</time></trkpt><trkpt lat="43.288400858103245" lon="10.780480138809224"><ele>353.0</ele><time>2026-03-27T12:42:39Z</time></trkpt><trkpt lat="43.28835273637977" lon="10.780407296343565"><ele>353.0</ele><time>2026-03-27T12:42:42Z</time></trkpt><trkpt lat="43.2883123976623" lon="10.780266748909943"><ele>353.0</ele><time>2026-03-27T12:42:45Z</time></trkpt><trkpt lat="43.288290717706836" lon="10.780169335975028"><ele>350.0</ele><time>2026-03-27T12:42:46Z</time></trkpt><trkpt lat="43.2882838578375" lon="10.780038209885365"><ele>347.0</ele><time>2026-03-27T12:42:47Z</time></trkpt><trkpt lat="43.28826843300854" lon="10.779928102611986"><ele>344.0</ele><time>2026-03-27T12:42:48Z</time></trkpt><trkpt lat="43.28825132693253" lon="10.779808559226758"><ele>341.0</ele><time>2026-03-27T12:42:49Z</time></trkpt><trkpt lat="43.288264700664456" lon="10.779721132080125"><ele>338.0</ele><time>2026-03-27T12:42:50Z</time></trkpt><trkpt lat="43.288344640190445" lon="10.779687646464877"><ele>335.0</ele><time>2026-03-27T12:42:54Z</time></trkpt><trkpt lat="43.28839305082133" lon="10.779589787147163"><ele>335.0</ele><time>2026-03-27T12:42:56Z</time></trkpt><trkpt lat="43.28848134663937" lon="10.77951313730727"><ele>335.0</ele><time>2026-03-27T12:42:58Z</time></trkpt><trkpt lat="43.28866964739396" lon="10.779488109654276"><ele>335.0</ele><time>2026-03-27T12:43:00Z</time></trkpt><trkpt lat="43.28873550637711" lon="10.779408941679868"><ele>335.0</ele><time>2026-03-27T12:43:01Z</time></trkpt><trkpt lat="43.28883116221365" lon="10.779352375817679"><ele>330.4</ele><time>2026-03-27T12:43:02Z</time></trkpt><trkpt lat="43.28894797107615" lon="10.779217729762141"><ele>325.8</ele><time>2026-03-27T12:43:03Z</time></trkpt><trkpt lat="43.289004447809596" lon="10.779139742666201"><ele>321.2</ele><time>2026-03-27T12:43:04Z</time></trkpt><trkpt lat="43.28906680281507" lon="10.779061932129439"><ele>316.6</ele><time>2026-03-27T12:43:05Z</time></trkpt><trkpt lat="43.289175693369046" lon="10.77900233679064"><ele>312.0</ele><time>2026-03-27T12:43:07Z</time></trkpt><trkpt lat="43.28926416763088" lon="10.778970295662774"><ele>312.0</ele><time>2026-03-27T12:43:08Z</time></trkpt><trkpt lat="43.28933807493411" lon="10.77892637639953"><ele>312.0</ele><time>2026-03-27T12:43:09Z</time></trkpt><trkpt lat="43.289406239741744" lon="10.778915864306429"><ele>312.0</ele><time>2026-03-27T12:43:10Z</time></trkpt><trkpt lat="43.28949017707528" lon="10.778880650660934"><ele>312.0</ele><time>2026-03-27T12:43:11Z</time></trkpt><trkpt lat="43.28953963264948" lon="10.778807589631894"><ele>312.0</ele><time>2026-03-27T12:43:14Z</time></trkpt><trkpt lat="43.28961200095364" lon="10.778775303076925"><ele>312.0</ele><time>2026-03-27T12:43:18Z</time></trkpt><trkpt lat="43.289692931313525" lon="10.778776471110463"><ele>311.0</ele><time>2026-03-27T12:43:21Z</time></trkpt><trkpt lat="43.289768433404134" lon="10.778772015883607"><ele>310.0</ele><time>2026-03-27T12:43:24Z</time></trkpt><trkpt lat="43.28981965561274" lon="10.778933380411562"><ele>309.0</ele><time>2026-03-27T12:43:27Z</time></trkpt><trkpt lat="43.289853869691996" lon="10.77902288137103"><ele>308.0</ele><time>2026-03-27T12:43:28Z</time></trkpt><trkpt lat="43.290005323371055" lon="10.779250219550397"><ele>316.33333333333337</ele><time>2026-03-27T12:43:29Z</time></trkpt><trkpt lat="43.29013041482657" lon="10.779413878783592"><ele>324.6666666666667</ele><time>2026-03-27T12:43:30Z</time></trkpt><trkpt lat="43.29026900320847" lon="10.779547364943927"><ele>333.0</ele><time>2026-03-27T12:43:31Z</time></trkpt><trkpt lat="43.29042125632232" lon="10.779659428498444"><ele>333.0</ele><time>2026-03-27T12:43:32Z</time></trkpt><trkpt lat="43.29056357492681" lon="10.779771218979603"><ele>333.0</ele><time>2026-03-27T12:43:33Z</time></trkpt><trkpt lat="43.290786108200145" lon="10.779759447120744"><ele>333.0</ele><time>2026-03-27T12:43:34Z</time></trkpt><trkpt lat="43.29088544763183" lon="10.779883681228362"><ele>331.2</ele><time>2026-03-27T12:43:35Z</time></trkpt><trkpt lat="43.29098047430046" lon="10.779999407603079"><ele>329.4</ele><time>2026-03-27T12:43:36Z</time></trkpt><trkpt lat="43.29104804271132" lon="10.78010189916709"><ele>327.59999999999997</ele><time>2026-03-27T12:43:37Z</time></trkpt><trkpt lat="43.29112963780854" lon="10.780155676315466"><ele>325.79999999999995</ele><time>2026-03-27T12:43:38Z</time></trkpt><trkpt lat="43.291206692441484" lon="10.780232735158938"><ele>324.0</ele><time>2026-03-27T12:43:39Z</time></trkpt><trkpt lat="43.29129433547142" lon="10.780302957519897"><ele>324.0</ele><time>2026-03-27T12:43:40Z</time></trkpt><trkpt lat="43.29138888186227" lon="10.7803265281657"><ele>324.0</ele><time>2026-03-27T12:43:41Z</time></trkpt><trkpt lat="43.29149078317931" lon="10.780322824672238"><ele>324.0</ele><time>2026-03-27T12:43:42Z</time></trkpt><trkpt lat="43.29159584157167" lon="10.780281794063416"><ele>324.0</ele><time>2026-03-27T12:43:43Z</time></trkpt><trkpt lat="43.29168507545836" lon="10.78028023140753"><ele>324.0</ele><time>2026-03-27T12:43:44Z</time></trkpt><trkpt lat="43.29177809650523" lon="10.78029633845791"><ele>318.0</ele><time>2026-03-27T12:43:45Z</time></trkpt><trkpt lat="43.29186001292353" lon="10.780365802593504"><ele>312.0</ele><time>2026-03-27T12:43:46Z</time></trkpt><trkpt lat="43.29187998789554" lon="10.780517395845402"><ele>306.0</ele><time>2026-03-27T12:43:47Z</time></trkpt><trkpt lat="43.291915016671595" lon="10.780645010444095"><ele>300.0</ele><time>2026-03-27T12:43:48Z</time></trkpt><trkpt lat="43.29194862894424" lon="10.780805163802944"><ele>294.0</ele><time>2026-03-27T12:43:49Z</time></trkpt><trkpt lat="43.291955718894734" lon="10.780970529439088"><ele>295.0</ele><time>2026-03-27T12:43:50Z</time></trkpt><trkpt lat="43.29196366889886" lon="10.781144052337075"><ele>296.0</ele><time>2026-03-27T12:43:51Z</time></trkpt><trkpt lat="43.29199732369351" lon="10.781319974343141"><ele>297.0</ele><time>2026-03-27T12:43:52Z</time></trkpt><trkpt lat="43.29199788500707" lon="10.781466067518553"><ele>298.0</ele><time>2026-03-27T12:43:53Z</time></trkpt><trkpt lat="43.29201707202933" lon="10.781626807237968"><ele>298.0</ele><time>2026-03-27T12:43:54Z</time></trkpt><trkpt lat="43.29206983883176" lon="10.781770572164772"><ele>298.0</ele><time>2026-03-27T12:43:55Z</time></trkpt><trkpt lat="43.292129341976604" lon="10.781890403940851"><ele>298.0</ele><time>2026-03-27T12:43:56Z</time></trkpt><trkpt lat="43.29217738717689" lon="10.782045112307593"><ele>298.0</ele><time>2026-03-27T12:43:57Z</time></trkpt><trkpt lat="43.29219852098525" lon="10.782188986012818"><ele>298.75</ele><time>2026-03-27T12:43:58Z</time></trkpt><trkpt lat="43.29220685884279" lon="10.782322512138887"><ele>299.5</ele><time>2026-03-27T12:43:59Z</time></trkpt><trkpt lat="43.29212126598955" lon="10.782450302834295"><ele>300.25</ele><time>2026-03-27T12:44:00Z</time></trkpt><trkpt lat="43.292066442116216" lon="10.782627399740655"><ele>301.0</ele><time>2026-03-27T12:44:01Z</time></trkpt><trkpt lat="43.29200753289709" lon="10.782793303321279"><ele>301.8</ele><time>2026-03-27T12:44:02Z</time></trkpt><trkpt lat="43.29192572711056" lon="10.782934542853596"><ele>302.6</ele><time>2026-03-27T12:44:03Z</time></trkpt><trkpt lat="43.291888753591145" lon="10.783070622993149"><ele>303.4</ele><time>2026-03-27T12:44:04Z</time></trkpt><trkpt lat="43.29187770994429" lon="10.78319513144788"><ele>304.2</ele><time>2026-03-27T12:44:05Z</time></trkpt><trkpt lat="43.29190712884617" lon="10.783330484457784"><ele>305.0</ele><time>2026-03-27T12:44:06Z</time></trkpt><trkpt lat="43.29196036743323" lon="10.783495339820888"><ele>304.0</ele><time>2026-03-27T12:44:07Z</time></trkpt><trkpt lat="43.291986396273124" lon="10.783649155054032"><ele>303.0</ele><time>2026-03-27T12:44:08Z</time></trkpt><trkpt lat="43.29199514535153" lon="10.783776086668409"><ele>302.0</ele><time>2026-03-27T12:44:09Z</time></trkpt><trkpt lat="43.29201104376237" lon="10.783898443266873"><ele>301.0</ele><time>2026-03-27T12:44:10Z</time></trkpt><trkpt lat="43.2919898696954" lon="10.784031994938713"><ele>300.0</ele><time>2026-03-27T12:44:11Z</time></trkpt><trkpt lat="43.291920836692995" lon="10.784135669879959"><ele>300.0</ele><time>2026-03-27T12:44:12Z</time></trkpt><trkpt lat="43.29187797498988" lon="10.78424731590958"><ele>300.0</ele><time>2026-03-27T12:44:13Z</time></trkpt><trkpt lat="43.29185938145601" lon="10.784330584974235"><ele>300.0</ele><time>2026-03-27T12:44:14Z</time></trkpt><trkpt lat="43.291866234680064" lon="10.784431013878908"><ele>300.0</ele><time>2026-03-27T12:44:16Z</time></trkpt><trkpt lat="43.29178624075487" lon="10.784477212604504"><ele>300.0</ele><time>2026-03-27T12:44:19Z</time></trkpt><trkpt lat="43.29154014909691" lon="10.78448476994149"><ele>297.8</ele><time>2026-03-27T12:44:22Z</time></trkpt><trkpt lat="43.29143106498912" lon="10.784438791834726"><ele>295.6</ele><time>2026-03-27T12:44:23Z</time></trkpt><trkpt lat="43.291339420269416" lon="10.784388480523425"><ele>293.4</ele><time>2026-03-27T12:44:24Z</time></trkpt><trkpt lat="43.29126499994437" lon="10.784365198711837"><ele>291.2</ele><time>2026-03-27T12:44:25Z</time></trkpt><trkpt lat="43.29121204543676" lon="10.784425621253451"><ele>289.0</ele><time>2026-03-27T12:44:26Z</time></trkpt><trkpt lat="43.2911747391753" lon="10.784547209524765"><ele>292.66666666666663</ele><time>2026-03-27T12:44:27Z</time></trkpt><trkpt lat="43.29108976849149" lon="10.78464554682352"><ele>296.3333333333333</ele><time>2026-03-27T12:44:28Z</time></trkpt><trkpt lat="43.29101492896218" lon="10.78470070614407"><ele>300.0</ele><time>2026-03-27T12:44:29Z</time></trkpt><trkpt lat="43.29095678261784" lon="10.784797152322641"><ele>303.6666666666667</ele><time>2026-03-27T12:44:30Z</time></trkpt><trkpt lat="43.290899262345825" lon="10.784863590725157"><ele>307.33333333333337</ele><time>2026-03-27T12:44:31Z</time></trkpt><trkpt lat="43.29083111910417" lon="10.784918194708883"><ele>311.0</ele><time>2026-03-27T12:44:32Z</time></trkpt><trkpt lat="43.29076921444246" lon="10.784952344529959"><ele>311.0</ele><time>2026-03-27T12:44:33Z</time></trkpt><trkpt lat="43.29063252863621" lon="10.784971806016399"><ele>311.0</ele><time>2026-03-27T12:44:35Z</time></trkpt><trkpt lat="43.29057630124634" lon="10.785023336631179"><ele>311.0</ele><time>2026-03-27T12:44:36Z</time></trkpt><trkpt lat="43.29057967689093" lon="10.785178849347636"><ele>311.0</ele><time>2026-03-27T12:44:38Z</time></trkpt><trkpt lat="43.290543449166655" lon="10.785311699428576"><ele>311.0</ele><time>2026-03-27T12:44:40Z</time></trkpt><trkpt lat="43.29050440890139" lon="10.78540305034288"><ele>311.8</ele><time>2026-03-27T12:44:41Z</time></trkpt><trkpt lat="43.2904822721109" lon="10.785544263389623"><ele>312.6</ele><time>2026-03-27T12:44:43Z</time></trkpt><trkpt lat="43.29054628907694" lon="10.785646997908577"><ele>313.4</ele><time>2026-03-27T12:44:44Z</time></trkpt><trkpt lat="43.29063685300692" lon="10.785673000701559"><ele>314.2</ele><time>2026-03-27T12:44:45Z</time></trkpt><trkpt lat="43.29074444451694" lon="10.785676202852663"><ele>315.0</ele><time>2026-03-27T12:44:46Z</time></trkpt><trkpt lat="43.29085543278277" lon="10.785748634081735"><ele>315.0</ele><time>2026-03-27T12:44:47Z</time></trkpt><trkpt lat="43.29092709485242" lon="10.785782706797027"><ele>315.0</ele><time>2026-03-27T12:44:48Z</time></trkpt><trkpt lat="43.29100386241647" lon="10.785869125077484"><ele>315.0</ele><time>2026-03-27T12:44:50Z</time></trkpt><trkpt lat="43.29107510185916" lon="10.7859790147046"><ele>315.0</ele><time>2026-03-27T12:44:51Z</time></trkpt><trkpt lat="43.29111325944622" lon="10.786074794994773"><ele>315.0</ele><time>2026-03-27T12:44:52Z</time></trkpt><trkpt lat="43.29117433213345" lon="10.78615124136255"><ele>315.0</ele><time>2026-03-27T12:44:53Z</time></trkpt><trkpt lat="43.29122523697545" lon="10.786205676601236"><ele>321.5</ele><time>2026-03-27T12:44:54Z</time></trkpt><trkpt lat="43.29130863765223" lon="10.786262086550463"><ele>328.0</ele><time>2026-03-27T12:44:56Z</time></trkpt><trkpt lat="43.29131198367323" lon="10.786408423249842"><ele>334.5</ele><time>2026-03-27T12:44:59Z</time></trkpt><trkpt lat="43.2913662981063" lon="10.786593734032227"><ele>341.0</ele><time>2026-03-27T12:45:01Z</time></trkpt><trkpt lat="43.291398787711046" lon="10.786749847304636"><ele>335.8</ele><time>2026-03-27T12:45:02Z</time></trkpt><trkpt lat="43.29144451008225" lon="10.78690924160585"><ele>330.6</ele><time>2026-03-27T12:45:03Z</time></trkpt><trkpt lat="43.291463177886996" lon="10.787027768000806"><ele>325.4</ele><time>2026-03-27T12:45:04Z</time></trkpt><trkpt lat="43.29151753040691" lon="10.78714955104274"><ele>320.2</ele><time>2026-03-27T12:45:05Z</time></trkpt><trkpt lat="43.29158398459307" lon="10.78725571788055"><ele>315.0</ele><time>2026-03-27T12:45:06Z</time></trkpt><trkpt lat="43.291639723185924" lon="10.787385852902826"><ele>315.0</ele><time>2026-03-27T12:45:07Z</time></trkpt><trkpt lat="43.291677501665696" lon="10.78747362646815"><ele>315.0</ele><time>2026-03-27T12:45:08Z</time></trkpt><trkpt lat="43.29162830217017" lon="10.787568315014795"><ele>315.0</ele><time>2026-03-27T12:45:09Z</time></trkpt><trkpt lat="43.291590893411474" lon="10.787669310960107"><ele>315.0</ele><time>2026-03-27T12:45:11Z</time></trkpt><trkpt lat="43.2916031460814" lon="10.787755375052644"><ele>315.0</ele><time>2026-03-27T12:45:13Z</time></trkpt><trkpt lat="43.29160731088352" lon="10.787845530294579"><ele>315.0</ele><time>2026-03-27T12:45:15Z</time></trkpt><trkpt lat="43.29154404956999" lon="10.787946143618491"><ele>315.3333333333333</ele><time>2026-03-27T12:45:19Z</time></trkpt><trkpt lat="43.29160151527469" lon="10.7880436868096"><ele>315.6666666666667</ele><time>2026-03-27T12:45:23Z</time></trkpt><trkpt lat="43.291599947414944" lon="10.788140567785579"><ele>316.0</ele><time>2026-03-27T12:45:25Z</time></trkpt><trkpt lat="43.29159696723948" lon="10.788242601335968"><ele>316.33333333333337</ele><time>2026-03-27T12:45:27Z</time></trkpt><trkpt lat="43.29163784105986" lon="10.78835117128992"><ele>316.6666666666667</ele><time>2026-03-27T12:45:29Z</time></trkpt><trkpt lat="43.29164524256024" lon="10.788469719540545"><ele>317.0</ele><time>2026-03-27T12:45:32Z</time></trkpt><trkpt lat="43.29196592239257" lon="10.789275406350116"><ele>315.5</ele><time>2026-03-27T12:45:34Z</time></trkpt><trkpt lat="43.292003115812214" lon="10.789350017786097"><ele>314.0</ele><time>2026-03-27T12:45:35Z</time></trkpt><trkpt lat="43.29198853089247" lon="10.789439159566587"><ele>312.5</ele><time>2026-03-27T12:45:36Z</time></trkpt><trkpt lat="43.292031616358855" lon="10.789554687969268"><ele>311.0</ele><time>2026-03-27T12:45:38Z</time></trkpt><trkpt lat="43.2920844545459" lon="10.789614353987218"><ele>309.5</ele><time>2026-03-27T12:45:40Z</time></trkpt><trkpt lat="43.29213871130585" lon="10.789676580050946"><ele>308.0</ele><time>2026-03-27T12:45:42Z</time></trkpt><trkpt lat="43.292241293977966" lon="10.789755260729606"><ele>308.0</ele><time>2026-03-27T12:45:45Z</time></trkpt><trkpt lat="43.29222418314836" lon="10.789871320148157"><ele>308.0</ele><time>2026-03-27T12:45:48Z</time></trkpt><trkpt lat="43.29223863070867" lon="10.78999431830462"><ele>308.0</ele><time>2026-03-27T12:45:50Z</time></trkpt><trkpt lat="43.29225022455469" lon="10.7900850366072"><ele>308.0</ele><time>2026-03-27T12:45:52Z</time></trkpt><trkpt lat="43.29221445358483" lon="10.790192111799268"><ele>308.0</ele><time>2026-03-27T12:45:53Z</time></trkpt><trkpt lat="43.292189506114084" lon="10.790283549505288"><ele>308.0</ele><time>2026-03-27T12:45:54Z</time></trkpt><trkpt lat="43.292116887579766" lon="10.79037314590699"><ele>305.5</ele><time>2026-03-27T12:45:56Z</time></trkpt><trkpt lat="43.292115073050326" lon="10.790495221577526"><ele>303.0</ele><time>2026-03-27T12:46:00Z</time></trkpt><trkpt lat="43.29216232293056" lon="10.790553947706936"><ele>300.5</ele><time>2026-03-27T12:46:02Z</time></trkpt><trkpt lat="43.29222088205063" lon="10.790599845598"><ele>298.0</ele><time>2026-03-27T12:46:05Z</time></trkpt><trkpt lat="43.29220878876721" lon="10.790692297046126"><ele>295.5</ele><time>2026-03-27T12:46:07Z</time></trkpt><trkpt lat="43.29223898206204" lon="10.790799602758446"><ele>293.0</ele><time>2026-03-27T12:46:10Z</time></trkpt><trkpt lat="43.29226365361969" lon="10.791022972125514"><ele>286.1666666666667</ele><time>2026-03-27T12:46:12Z</time></trkpt><trkpt lat="43.29227327348549" lon="10.791148224862019"><ele>279.33333333333337</ele><time>2026-03-27T12:46:13Z</time></trkpt><trkpt lat="43.29226094018837" lon="10.791249463952534"><ele>272.5</ele><time>2026-03-27T12:46:14Z</time></trkpt><trkpt lat="43.29227888372155" lon="10.791351419570166"><ele>265.6666666666667</ele><time>2026-03-27T12:46:15Z</time></trkpt><trkpt lat="43.2922901934329" lon="10.791453105731811"><ele>258.8333333333333</ele><time>2026-03-27T12:46:16Z</time></trkpt><trkpt lat="43.29229271035182" lon="10.79154849609531"><ele>252.0</ele><time>2026-03-27T12:46:17Z</time></trkpt><trkpt lat="43.29229498248686" lon="10.791655528249427"><ele>252.0</ele><time>2026-03-27T12:46:18Z</time></trkpt><trkpt lat="43.29226823976641" lon="10.791779489481419"><ele>252.0</ele><time>2026-03-27T12:46:19Z</time></trkpt><trkpt lat="43.292226101459214" lon="10.79188721634555"><ele>252.0</ele><time>2026-03-27T12:46:20Z</time></trkpt><trkpt lat="43.29215045502165" lon="10.792002899671512"><ele>252.0</ele><time>2026-03-27T12:46:21Z</time></trkpt><trkpt lat="43.292102897968924" lon="10.79214920069536"><ele>252.0</ele><time>2026-03-27T12:46:22Z</time></trkpt><trkpt lat="43.29204322103943" lon="10.792266640842048"><ele>250.83333333333334</ele><time>2026-03-27T12:46:23Z</time></trkpt><trkpt lat="43.292005630282134" lon="10.792405063144493"><ele>249.66666666666669</ele><time>2026-03-27T12:46:24Z</time></trkpt><trkpt lat="43.29198662742812" lon="10.79252216966069"><ele>248.5</ele><time>2026-03-27T12:46:25Z</time></trkpt><trkpt lat="43.291969971585836" lon="10.79261798621542"><ele>247.33333333333334</ele><time>2026-03-27T12:46:26Z</time></trkpt><trkpt lat="43.29196152120311" lon="10.79270419635846"><ele>246.16666666666669</ele><time>2026-03-27T12:46:27Z</time></trkpt><trkpt lat="43.29195554683129" lon="10.792827321376313"><ele>245.0</ele><time>2026-03-27T12:46:29Z</time></trkpt><trkpt lat="43.29203969735787" lon="10.792870156157123"><ele>245.0</ele><time>2026-03-27T12:46:30Z</time></trkpt><trkpt lat="43.29208063576151" lon="10.792950368882897"><ele>245.0</ele><time>2026-03-27T12:46:31Z</time></trkpt><trkpt lat="43.29213522189505" lon="10.793029476838772"><ele>245.0</ele><time>2026-03-27T12:46:32Z</time></trkpt><trkpt lat="43.292218362674376" lon="10.793165068934806"><ele>245.0</ele><time>2026-03-27T12:46:34Z</time></trkpt><trkpt lat="43.292280014052714" lon="10.793267491196016"><ele>245.0</ele><time>2026-03-27T12:46:35Z</time></trkpt><trkpt lat="43.292354646876916" lon="10.793362169926374"><ele>245.33333333333334</ele><time>2026-03-27T12:46:36Z</time></trkpt><trkpt lat="43.292412814887484" lon="10.793469456221917"><ele>245.66666666666669</ele><time>2026-03-27T12:46:37Z</time></trkpt><trkpt lat="43.29245908361248" lon="10.793575637937735"><ele>246.0</ele><time>2026-03-27T12:46:38Z</time></trkpt><trkpt lat="43.29250254674721" lon="10.793678860284919"><ele>246.33333333333331</ele><time>2026-03-27T12:46:39Z</time></trkpt><trkpt lat="43.29254892574086" lon="10.793780975168808"><ele>246.66666666666666</ele><time>2026-03-27T12:46:40Z</time></trkpt><trkpt lat="43.29260787115562" lon="10.793867123211484"><ele>247.0</ele><time>2026-03-27T12:46:41Z</time></trkpt><trkpt lat="43.29268000489046" lon="10.793926319188499"><ele>246.0</ele><time>2026-03-27T12:46:42Z</time></trkpt><trkpt lat="43.292756090113755" lon="10.79398002322204"><ele>245.0</ele><time>2026-03-27T12:46:43Z</time></trkpt><trkpt lat="43.29274633314832" lon="10.794135628810766"><ele>244.0</ele><time>2026-03-27T12:46:45Z</time></trkpt><trkpt lat="43.29267062006483" lon="10.794180851067862"><ele>243.0</ele><time>2026-03-27T12:46:46Z</time></trkpt><trkpt lat="43.29255784127185" lon="10.794132103781767"><ele>242.0</ele><time>2026-03-27T12:46:47Z</time></trkpt><trkpt lat="43.292441083018254" lon="10.79414594272024"><ele>242.0</ele><time>2026-03-27T12:46:48Z</time></trkpt><trkpt lat="43.29234024387049" lon="10.794125781798796"><ele>242.0</ele><time>2026-03-27T12:46:49Z</time></trkpt><trkpt lat="43.29223470157378" lon="10.794109659058392"><ele>242.0</ele><time>2026-03-27T12:46:50Z</time></trkpt><trkpt lat="43.29212802447778" lon="10.794074008807405"><ele>242.0</ele><time>2026-03-27T12:46:51Z</time></trkpt><trkpt lat="43.29201525377265" lon="10.794008929252781"><ele>242.0</ele><time>2026-03-27T12:46:52Z</time></trkpt><trkpt lat="43.29191349260676" lon="10.79393591652625"><ele>240.25</ele><time>2026-03-27T12:46:53Z</time></trkpt><trkpt lat="43.29180571906484" lon="10.793859054450621"><ele>238.5</ele><time>2026-03-27T12:46:54Z</time></trkpt><trkpt lat="43.29169074092188" lon="10.793812136052603"><ele>236.75</ele><time>2026-03-27T12:46:55Z</time></trkpt><trkpt lat="43.29157354923573" lon="10.793781176626574"><ele>235.0</ele><time>2026-03-27T12:46:56Z</time></trkpt><trkpt lat="43.29148328174819" lon="10.793785570387863"><ele>235.0</ele><time>2026-03-27T12:46:57Z</time></trkpt><trkpt lat="43.29140825259565" lon="10.793885686612146"><ele>235.0</ele><time>2026-03-27T12:46:59Z</time></trkpt><trkpt lat="43.29141464235025" lon="10.793973345995571"><ele>235.0</ele><time>2026-03-27T12:47:00Z</time></trkpt><trkpt lat="43.291557924039594" lon="10.794082918375414"><ele>235.0</ele><time>2026-03-27T12:47:01Z</time></trkpt><trkpt lat="43.291674831462" lon="10.79415765100196"><ele>235.0</ele><time>2026-03-27T12:47:02Z</time></trkpt><trkpt lat="43.291734641947826" lon="10.7942987319215"><ele>235.0</ele><time>2026-03-27T12:47:03Z</time></trkpt><trkpt lat="43.29178906884423" lon="10.794458923984072"><ele>235.0</ele><time>2026-03-27T12:47:04Z</time></trkpt><trkpt lat="43.29186070088716" lon="10.79461049257121"><ele>235.0</ele><time>2026-03-27T12:47:05Z</time></trkpt><trkpt lat="43.29192774521761" lon="10.794749240965935"><ele>232.5</ele><time>2026-03-27T12:47:06Z</time></trkpt><trkpt lat="43.29203061115585" lon="10.794879815782908"><ele>230.0</ele><time>2026-03-27T12:47:07Z</time></trkpt><trkpt lat="43.29215926730125" lon="10.794980016512632"><ele>227.5</ele><time>2026-03-27T12:47:08Z</time></trkpt><trkpt lat="43.2922850535754" lon="10.795054011251164"><ele>225.0</ele><time>2026-03-27T12:47:09Z</time></trkpt><trkpt lat="43.2924048144106" lon="10.795133874494866"><ele>221.25</ele><time>2026-03-27T12:47:10Z</time></trkpt><trkpt lat="43.29251273994272" lon="10.795220348548344"><ele>217.5</ele><time>2026-03-27T12:47:11Z</time></trkpt><trkpt lat="43.292614928580896" lon="10.795312110126655"><ele>213.75</ele><time>2026-03-27T12:47:12Z</time></trkpt><trkpt lat="43.29271288381228" lon="10.795416206987563"><ele>210.0</ele><time>2026-03-27T12:47:13Z</time></trkpt><trkpt lat="43.29279148300525" lon="10.795539571098734"><ele>210.0</ele><time>2026-03-27T12:47:14Z</time></trkpt><trkpt lat="43.292861825984005" lon="10.795682651685341"><ele>210.0</ele><time>2026-03-27T12:47:15Z</time></trkpt><trkpt lat="43.292926371854556" lon="10.79581730181058"><ele>210.0</ele><time>2026-03-27T12:47:16Z</time></trkpt><trkpt lat="43.29299914985898" lon="10.795929452643401"><ele>210.0</ele><time>2026-03-27T12:47:17Z</time></trkpt><trkpt lat="43.29308029193156" lon="10.79602219472254"><ele>210.5</ele><time>2026-03-27T12:47:18Z</time></trkpt><trkpt lat="43.293172557966976" lon="10.796069122793337"><ele>211.0</ele><time>2026-03-27T12:47:19Z</time></trkpt><trkpt lat="43.2932840019015" lon="10.796068797658181"><ele>211.5</ele><time>2026-03-27T12:47:20Z</time></trkpt><trkpt lat="43.29340386696071" lon="10.796014303317465"><ele>212.0</ele><time>2026-03-27T12:47:21Z</time></trkpt><trkpt lat="43.29352301799764" lon="10.795928827991961"><ele>212.0</ele><time>2026-03-27T12:47:22Z</time></trkpt><trkpt lat="43.29360473053119" lon="10.795823098933171"><ele>212.0</ele><time>2026-03-27T12:47:23Z</time></trkpt><trkpt lat="43.29370474584524" lon="10.795751712435134"><ele>212.0</ele><time>2026-03-27T12:47:24Z</time></trkpt><trkpt lat="43.293802856394734" lon="10.795737595693128"><ele>212.0</ele><time>2026-03-27T12:47:25Z</time></trkpt><trkpt lat="43.293858347679205" lon="10.795843554051322"><ele>212.0</ele><time>2026-03-27T12:47:26Z</time></trkpt><trkpt lat="43.29390227816232" lon="10.79595748900088"><ele>209.0</ele><time>2026-03-27T12:47:27Z</time></trkpt><trkpt lat="43.29395644846306" lon="10.796107616933798"><ele>206.0</ele><time>2026-03-27T12:47:28Z</time></trkpt><trkpt lat="43.29403386905052" lon="10.79624276803436"><ele>203.0</ele><time>2026-03-27T12:47:29Z</time></trkpt><trkpt lat="43.294108337030714" lon="10.796377101813588"><ele>200.0</ele><time>2026-03-27T12:47:30Z</time></trkpt><trkpt lat="43.29419635352757" lon="10.79649001104765"><ele>200.0</ele><time>2026-03-27T12:47:31Z</time></trkpt><trkpt lat="43.29429668480809" lon="10.796586933017352"><ele>200.0</ele><time>2026-03-27T12:47:32Z</time></trkpt><trkpt lat="43.294405934646" lon="10.796655218349875"><ele>200.0</ele><time>2026-03-27T12:47:33Z</time></trkpt><trkpt lat="43.294520126835614" lon="10.796688473026967"><ele>200.0</ele><time>2026-03-27T12:47:34Z</time></trkpt><trkpt lat="43.29463575549689" lon="10.796685727168658"><ele>198.83333333333334</ele><time>2026-03-27T12:47:35Z</time></trkpt><trkpt lat="43.29475477125675" lon="10.796669317513441"><ele>197.66666666666669</ele><time>2026-03-27T12:47:36Z</time></trkpt><trkpt lat="43.29484324523716" lon="10.796659311553674"><ele>196.5</ele><time>2026-03-27T12:47:37Z</time></trkpt><trkpt lat="43.29494072699419" lon="10.796679433113182"><ele>195.33333333333331</ele><time>2026-03-27T12:47:38Z</time></trkpt><trkpt lat="43.29500145646229" lon="10.796717600591167"><ele>194.16666666666666</ele><time>2026-03-27T12:47:39Z</time></trkpt><trkpt lat="43.29506140600768" lon="10.796780563104633"><ele>193.0</ele><time>2026-03-27T12:47:47Z</time></trkpt><trkpt lat="43.29508198091411" lon="10.796909033365882"><ele>191.2</ele><time>2026-03-27T12:47:50Z</time></trkpt><trkpt lat="43.29513122628379" lon="10.797039569176986"><ele>189.4</ele><time>2026-03-27T12:47:52Z</time></trkpt><trkpt lat="43.29522566496855" lon="10.797135240613397"><ele>187.6</ele><time>2026-03-27T12:47:54Z</time></trkpt><trkpt lat="43.29532582308888" lon="10.797130846281537"><ele>185.79999999999998</ele><time>2026-03-27T12:47:56Z</time></trkpt><trkpt lat="43.29539148890748" lon="10.797139751015745"><ele>184.0</ele><time>2026-03-27T12:47:58Z</time></trkpt><trkpt lat="43.29547736047248" lon="10.797160954966108"><ele>184.0</ele><time>2026-03-27T12:50:09Z</time></trkpt><trkpt lat="43.29556285926338" lon="10.797175769267158"><ele>184.0</ele><time>2026-03-27T12:50:12Z</time></trkpt><trkpt lat="43.29568501181005" lon="10.797174365388365"><ele>184.0</ele><time>2026-03-27T12:50:14Z</time></trkpt><trkpt lat="43.29575991064137" lon="10.797183281243278"><ele>184.0</ele><time>2026-03-27T12:50:15Z</time></trkpt><trkpt lat="43.295848259891265" lon="10.797203920134542"><ele>184.0</ele><time>2026-03-27T12:50:16Z</time></trkpt><trkpt lat="43.29592955054216" lon="10.79723365434579"><ele>182.66666666666669</ele><time>2026-03-27T12:50:17Z</time></trkpt><trkpt lat="43.29599234895467" lon="10.797275996370322"><ele>181.33333333333334</ele><time>2026-03-27T12:50:18Z</time></trkpt><trkpt lat="43.2960367026093" lon="10.797344996655783"><ele>180.0</ele><time>2026-03-27T12:50:19Z</time></trkpt><trkpt lat="43.296046238303" lon="10.79744566314632"><ele>178.66666666666666</ele><time>2026-03-27T12:50:20Z</time></trkpt><trkpt lat="43.29603054297788" lon="10.797591472737983"><ele>177.33333333333331</ele><time>2026-03-27T12:50:21Z</time></trkpt><trkpt lat="43.2959986056505" lon="10.797745222615486"><ele>176.0</ele><time>2026-03-27T12:50:22Z</time></trkpt><trkpt lat="43.29601222109205" lon="10.797842584301929"><ele>174.60000000000002</ele><time>2026-03-27T12:50:23Z</time></trkpt><trkpt lat="43.29608984916592" lon="10.7979452002428"><ele>173.2</ele><time>2026-03-27T12:50:24Z</time></trkpt><trkpt lat="43.29617799038775" lon="10.798061178830828"><ele>171.8</ele><time>2026-03-27T12:50:25Z</time></trkpt><trkpt lat="43.296253716942545" lon="10.798212918003715"><ele>170.39999999999998</ele><time>2026-03-27T12:50:26Z</time></trkpt><trkpt lat="43.29632374644532" lon="10.798264429987734"><ele>169.0</ele><time>2026-03-27T12:50:27Z</time></trkpt><trkpt lat="43.296388973892284" lon="10.798278744755697"><ele>169.0</ele><time>2026-03-27T12:50:28Z</time></trkpt><trkpt lat="43.29645955940606" lon="10.79822496548832"><ele>169.0</ele><time>2026-03-27T12:50:30Z</time></trkpt><trkpt lat="43.296455887820244" lon="10.798112138912172"><ele>169.0</ele><time>2026-03-27T12:50:33Z</time></trkpt><trkpt lat="43.29642637625567" lon="10.798016902163312"><ele>169.0</ele><time>2026-03-27T12:50:34Z</time></trkpt><trkpt lat="43.29636191734385" lon="10.797911618779667"><ele>169.0</ele><time>2026-03-27T12:50:35Z</time></trkpt><trkpt lat="43.296289676858656" lon="10.797801068488916"><ele>169.0</ele><time>2026-03-27T12:50:36Z</time></trkpt><trkpt lat="43.2962565936015" lon="10.797717757263735"><ele>169.0</ele><time>2026-03-27T12:50:37Z</time></trkpt><trkpt lat="43.29638743582557" lon="10.797687423037498"><ele>169.0</ele><time>2026-03-27T12:50:39Z</time></trkpt><trkpt lat="43.29649771754499" lon="10.797747440002281"><ele>169.0</ele><time>2026-03-27T12:50:40Z</time></trkpt><trkpt lat="43.29661982753541" lon="10.797836600716412"><ele>169.0</ele><time>2026-03-27T12:50:41Z</time></trkpt><trkpt lat="43.29669273030263" lon="10.79792130317845"><ele>166.0</ele><time>2026-03-27T12:50:42Z</time></trkpt><trkpt lat="43.29672836206989" lon="10.797994907725665"><ele>163.0</ele><time>2026-03-27T12:50:43Z</time></trkpt><trkpt lat="43.296728857463705" lon="10.798096238671967"><ele>160.0</ele><time>2026-03-27T12:50:44Z</time></trkpt><trkpt lat="43.29671013179972" lon="10.798230856012442"><ele>157.0</ele><time>2026-03-27T12:50:45Z</time></trkpt><trkpt lat="43.29668704136922" lon="10.798378258966796"><ele>154.0</ele><time>2026-03-27T12:50:46Z</time></trkpt><trkpt lat="43.29666079656044" lon="10.798523830661528"><ele>154.66666666666669</ele><time>2026-03-27T12:50:47Z</time></trkpt><trkpt lat="43.2966326059172" lon="10.798632431777097"><ele>155.33333333333334</ele><time>2026-03-27T12:50:48Z</time></trkpt><trkpt lat="43.296601957990404" lon="10.798726849655246"><ele>156.0</ele><time>2026-03-27T12:50:49Z</time></trkpt><trkpt lat="43.29654938329462" lon="10.798787741289003"><ele>156.66666666666666</ele><time>2026-03-27T12:50:50Z</time></trkpt><trkpt lat="43.29647173363941" lon="10.798788666128647"><ele>157.33333333333331</ele><time>2026-03-27T12:50:51Z</time></trkpt><trkpt lat="43.296378636218336" lon="10.798787510503812"><ele>158.0</ele><time>2026-03-27T12:50:52Z</time></trkpt><trkpt lat="43.296270380617685" lon="10.798759384936167"><ele>158.0</ele><time>2026-03-27T12:50:53Z</time></trkpt><trkpt lat="43.29615866515747" lon="10.798689517146041"><ele>158.0</ele><time>2026-03-27T12:50:54Z</time></trkpt><trkpt lat="43.29607884023666" lon="10.798593172383042"><ele>158.0</ele><time>2026-03-27T12:50:55Z</time></trkpt><trkpt lat="43.2960221043531" lon="10.798541454683578"><ele>158.0</ele><time>2026-03-27T12:50:56Z</time></trkpt><trkpt lat="43.29595348893707" lon="10.798508793395554"><ele>158.0</ele><time>2026-03-27T12:50:58Z</time></trkpt><trkpt lat="43.29593500802255" lon="10.798360088424142"><ele>158.0</ele><time>2026-03-27T12:51:01Z</time></trkpt><trkpt lat="43.29589124548152" lon="10.79826895504495"><ele>158.0</ele><time>2026-03-27T12:51:02Z</time></trkpt><trkpt lat="43.29578489816626" lon="10.798259390026669"><ele>158.0</ele><time>2026-03-27T12:51:04Z</time></trkpt><trkpt lat="43.29574700618241" lon="10.79837933900207"><ele>158.0</ele><time>2026-03-27T12:51:07Z</time></trkpt><trkpt lat="43.29578455347539" lon="10.798454069514213"><ele>158.0</ele><time>2026-03-27T12:51:08Z</time></trkpt><trkpt lat="43.295857764781616" lon="10.79862574090846"><ele>158.0</ele><time>2026-03-27T12:51:09Z</time></trkpt><trkpt lat="43.295902843619004" lon="10.798774198571746"><ele>158.0</ele><time>2026-03-27T12:51:10Z</time></trkpt><trkpt lat="43.29591879130612" lon="10.798897956716226"><ele>158.0</ele><time>2026-03-27T12:51:11Z</time></trkpt><trkpt lat="43.295946540605755" lon="10.799009476002338"><ele>158.0</ele><time>2026-03-27T12:51:12Z</time></trkpt><trkpt lat="43.29599008508378" lon="10.79909193671689"><ele>158.0</ele><time>2026-03-27T12:51:13Z</time></trkpt><trkpt lat="43.296059599802796" lon="10.799152684828654"><ele>158.0</ele><time>2026-03-27T12:51:14Z</time></trkpt><trkpt lat="43.29614771348833" lon="10.7991645135538"><ele>158.0</ele><time>2026-03-27T12:51:15Z</time></trkpt><trkpt lat="43.29625696942498" lon="10.799172523396642"><ele>158.0</ele><time>2026-03-27T12:51:16Z</time></trkpt><trkpt lat="43.29634701919986" lon="10.799182082384142"><ele>158.0</ele><time>2026-03-27T12:51:17Z</time></trkpt><trkpt lat="43.29640988533054" lon="10.79922103654753"><ele>158.0</ele><time>2026-03-27T12:51:18Z</time></trkpt><trkpt lat="43.29645888461096" lon="10.79932035702071"><ele>158.0</ele><time>2026-03-27T12:51:20Z</time></trkpt><trkpt lat="43.29636037838328" lon="10.799430255244584"><ele>155.83333333333331</ele><time>2026-03-27T12:51:22Z</time></trkpt><trkpt lat="43.29626595344363" lon="10.799435074503146"><ele>153.66666666666666</ele><time>2026-03-27T12:51:23Z</time></trkpt><trkpt lat="43.29615807365581" lon="10.799409963753611"><ele>151.5</ele><time>2026-03-27T12:51:24Z</time></trkpt><trkpt lat="43.296078500008655" lon="10.79939481976609"><ele>149.33333333333334</ele><time>2026-03-27T12:51:25Z</time></trkpt><trkpt lat="43.29604076739292" lon="10.799469758455695"><ele>147.16666666666669</ele><time>2026-03-27T12:51:26Z</time></trkpt><trkpt lat="43.29603888322243" lon="10.79957558677603"><ele>145.0</ele><time>2026-03-27T12:51:27Z</time></trkpt><trkpt lat="43.296075242163575" lon="10.799700478699581"><ele>145.0</ele><time>2026-03-27T12:51:28Z</time></trkpt><trkpt lat="43.29612140509023" lon="10.799854154473847"><ele>145.0</ele><time>2026-03-27T12:51:29Z</time></trkpt><trkpt lat="43.29611552490779" lon="10.79999860100209"><ele>145.0</ele><time>2026-03-27T12:51:30Z</time></trkpt><trkpt lat="43.29606098502355" lon="10.800125293787216"><ele>145.0</ele><time>2026-03-27T12:51:31Z</time></trkpt><trkpt lat="43.29598116989931" lon="10.800234181969278"><ele>145.0</ele><time>2026-03-27T12:51:32Z</time></trkpt><trkpt lat="43.29593763917726" lon="10.800335430698125"><ele>142.85714285714286</ele><time>2026-03-27T12:51:33Z</time></trkpt><trkpt lat="43.29592680512894" lon="10.80042804125256"><ele>140.71428571428572</ele><time>2026-03-27T12:51:34Z</time></trkpt><trkpt lat="43.29594240379206" lon="10.80051857245492"><ele>138.57142857142858</ele><time>2026-03-27T12:51:35Z</time></trkpt><trkpt lat="43.295976265298385" lon="10.800592456901272"><ele>136.42857142857144</ele><time>2026-03-27T12:51:36Z</time></trkpt><trkpt lat="43.296020040078325" lon="10.80065661923975"><ele>134.28571428571428</ele><time>2026-03-27T12:51:37Z</time></trkpt><trkpt lat="43.296112015730436" lon="10.800635925134557"><ele>132.14285714285717</ele><time>2026-03-27T12:51:39Z</time></trkpt><trkpt lat="43.29616118175512" lon="10.800539615341254"><ele>130.0</ele><time>2026-03-27T12:51:40Z</time></trkpt><trkpt lat="43.2962341908821" lon="10.80040551627873"><ele>130.0</ele><time>2026-03-27T12:51:41Z</time></trkpt><trkpt lat="43.2963110668652" lon="10.800242815560283"><ele>130.0</ele><time>2026-03-27T12:51:42Z</time></trkpt><trkpt lat="43.296335789938816" lon="10.800062213404896"><ele>130.0</ele><time>2026-03-27T12:51:43Z</time></trkpt><trkpt lat="43.29634276334631" lon="10.799851911300753"><ele>130.0</ele><time>2026-03-27T12:51:44Z</time></trkpt><trkpt lat="43.29634964000257" lon="10.79970301082021"><ele>132.16666666666669</ele><time>2026-03-27T12:51:45Z</time></trkpt><trkpt lat="43.29639598026437" lon="10.799625103193547"><ele>134.33333333333334</ele><time>2026-03-27T12:51:46Z</time></trkpt><trkpt lat="43.296466011966245" lon="10.79959633626671"><ele>136.5</ele><time>2026-03-27T12:51:47Z</time></trkpt><trkpt lat="43.29653657800666" lon="10.79964040962615"><ele>138.66666666666666</ele><time>2026-03-27T12:51:48Z</time></trkpt><trkpt lat="43.29656562154777" lon="10.799730544111787"><ele>140.83333333333331</ele><time>2026-03-27T12:51:49Z</time></trkpt><trkpt lat="43.2965588042321" lon="10.79987260370114"><ele>143.0</ele><time>2026-03-27T12:51:50Z</time></trkpt><trkpt lat="43.296527360555295" lon="10.800040805720068"><ele>143.0</ele><time>2026-03-27T12:51:51Z</time></trkpt><trkpt lat="43.29650573323026" lon="10.800161456004322"><ele>143.0</ele><time>2026-03-27T12:51:52Z</time></trkpt><trkpt lat="43.2965673066214" lon="10.80029171222359"><ele>143.0</ele><time>2026-03-27T12:51:54Z</time></trkpt><trkpt lat="43.29666441806444" lon="10.800178242443295"><ele>143.0</ele><time>2026-03-27T12:51:56Z</time></trkpt><trkpt lat="43.29669257052894" lon="10.800026617798553"><ele>143.0</ele><time>2026-03-27T12:51:57Z</time></trkpt><trkpt lat="43.296717821467844" lon="10.79984163300247"><ele>143.0</ele><time>2026-03-27T12:51:58Z</time></trkpt><trkpt lat="43.296766227914986" lon="10.799712772660133"><ele>143.0</ele><time>2026-03-27T12:51:59Z</time></trkpt><trkpt lat="43.29682937551089" lon="10.79968493956281"><ele>143.0</ele><time>2026-03-27T12:52:00Z</time></trkpt><trkpt lat="43.29687307883107" lon="10.799852326543206"><ele>143.0</ele><time>2026-03-27T12:52:02Z</time></trkpt><trkpt lat="43.29684761832544" lon="10.799994979223953"><ele>143.0</ele><time>2026-03-27T12:52:03Z</time></trkpt><trkpt lat="43.296842740272695" lon="10.800105593124444"><ele>143.0</ele><time>2026-03-27T12:52:04Z</time></trkpt><trkpt lat="43.29690922082812" lon="10.800128467402283"><ele>143.0</ele><time>2026-03-27T12:52:06Z</time></trkpt><trkpt lat="43.29700696549082" lon="10.800052303014697"><ele>143.0</ele><time>2026-03-27T12:52:08Z</time></trkpt><trkpt lat="43.29707425379839" lon="10.800053849528517"><ele>143.0</ele><time>2026-03-27T12:52:09Z</time></trkpt><trkpt lat="43.29715873134308" lon="10.800136995068264"><ele>143.0</ele><time>2026-03-27T12:52:11Z</time></trkpt><trkpt lat="43.29714891635396" lon="10.80022375035221"><ele>143.0</ele><time>2026-03-27T12:52:12Z</time></trkpt><trkpt lat="43.297143895925586" lon="10.800310664492308"><ele>140.8</ele><time>2026-03-27T12:52:13Z</time></trkpt><trkpt lat="43.29721732431354" lon="10.800359836134588"><ele>138.60000000000002</ele><time>2026-03-27T12:52:15Z</time></trkpt><trkpt lat="43.297178585581904" lon="10.800539228882606"><ele>136.39999999999998</ele><time>2026-03-27T12:52:17Z</time></trkpt><trkpt lat="43.297151328828434" lon="10.800624707491819"><ele>134.2</ele><time>2026-03-27T12:52:18Z</time></trkpt><trkpt lat="43.29718779320861" lon="10.800746713000079"><ele>132.0</ele><time>2026-03-27T12:52:21Z</time></trkpt><trkpt lat="43.297226172451204" lon="10.800908906569493"><ele>132.0</ele><time>2026-03-27T12:52:23Z</time></trkpt><trkpt lat="43.297213213490885" lon="10.800995608245803"><ele>132.0</ele><time>2026-03-27T12:52:25Z</time></trkpt><trkpt lat="43.29713373727194" lon="10.801044680286784"><ele>132.0</ele><time>2026-03-27T12:52:27.001Z</time></trkpt><trkpt lat="43.297037536332965" lon="10.800988698027645"><ele>132.0</ele><time>2026-03-27T12:52:30.001Z</time></trkpt><trkpt lat="43.29698545881371" lon="10.800930350816545"><ele>132.0</ele><time>2026-03-27T12:52:31.001Z</time></trkpt><trkpt lat="43.29692524384379" lon="10.801059400365194"><ele>132.0</ele><time>2026-03-27T12:52:33.001Z</time></trkpt><trkpt lat="43.296928790282074" lon="10.80121657332283"><ele>129.0</ele><time>2026-03-27T12:52:34.001Z</time></trkpt><trkpt lat="43.29696388756665" lon="10.801397248697103"><ele>126.0</ele><time>2026-03-27T12:52:35.001Z</time></trkpt><trkpt lat="43.296951260326686" lon="10.801566694234703"><ele>123.0</ele><time>2026-03-27T12:52:36.001Z</time></trkpt><trkpt lat="43.29689946199957" lon="10.801704950175019"><ele>120.0</ele><time>2026-03-27T12:52:37Z</time></trkpt><trkpt lat="43.29683998802547" lon="10.80180462433594"><ele>120.0</ele><time>2026-03-27T12:52:38Z</time></trkpt><trkpt lat="43.29677159057756" lon="10.801847076433763"><ele>120.0</ele><time>2026-03-27T12:52:39Z</time></trkpt><trkpt lat="43.296679571605964" lon="10.801753515289777"><ele>120.0</ele><time>2026-03-27T12:52:41Z</time></trkpt><trkpt lat="43.29666093792694" lon="10.80164283166661"><ele>120.0</ele><time>2026-03-27T12:52:42Z</time></trkpt><trkpt lat="43.2966858573321" lon="10.801526547540362"><ele>120.0</ele><time>2026-03-27T12:52:43Z</time></trkpt><trkpt lat="43.29671470374994" lon="10.801343033417092"><ele>120.0</ele><time>2026-03-27T12:52:44Z</time></trkpt><trkpt lat="43.29674303545508" lon="10.80114040953817"><ele>120.0</ele><time>2026-03-27T12:52:45Z</time></trkpt><trkpt lat="43.29675859293046" lon="10.800943302605662"><ele>120.0</ele><time>2026-03-27T12:52:46Z</time></trkpt><trkpt lat="43.29676546228722" lon="10.800786050508947"><ele>120.0</ele><time>2026-03-27T12:52:47Z</time></trkpt><trkpt lat="43.296708625385705" lon="10.800687802026303"><ele>120.0</ele><time>2026-03-27T12:52:49Z</time></trkpt><trkpt lat="43.29664454100854" lon="10.800749353120704"><ele>120.0</ele><time>2026-03-27T12:52:50Z</time></trkpt><trkpt lat="43.296606358606304" lon="10.800883188255485"><ele>120.0</ele><time>2026-03-27T12:52:51Z</time></trkpt><trkpt lat="43.29658139436166" lon="10.801085614096172"><ele>120.0</ele><time>2026-03-27T12:52:52Z</time></trkpt><trkpt lat="43.29657132682671" lon="10.801301363318194"><ele>120.0</ele><time>2026-03-27T12:52:53Z</time></trkpt><trkpt lat="43.29656179645944" lon="10.801475363691452"><ele>120.0</ele><time>2026-03-27T12:52:54Z</time></trkpt><trkpt lat="43.29654561844814" lon="10.801608464478964"><ele>120.0</ele><time>2026-03-27T12:52:55Z</time></trkpt><trkpt lat="43.296514545693825" lon="10.801691686428779"><ele>120.0</ele><time>2026-03-27T12:52:56Z</time></trkpt><trkpt lat="43.29642091444107" lon="10.801702131863202"><ele>120.0</ele><time>2026-03-27T12:52:58Z</time></trkpt><trkpt lat="43.296364407307095" lon="10.801544107666018"><ele>120.0</ele><time>2026-03-27T12:53:00Z</time></trkpt><trkpt lat="43.29636345123442" lon="10.801380889543578"><ele>120.0</ele><time>2026-03-27T12:53:01Z</time></trkpt><trkpt lat="43.296375680228195" lon="10.801176146422408"><ele>120.0</ele><time>2026-03-27T12:53:02Z</time></trkpt><trkpt lat="43.29640205635256" lon="10.800963954432238"><ele>120.0</ele><time>2026-03-27T12:53:03Z</time></trkpt><trkpt lat="43.29642513340295" lon="10.800750847900668"><ele>120.0</ele><time>2026-03-27T12:53:04Z</time></trkpt><trkpt lat="43.296450679659756" lon="10.800581704292531"><ele>120.0</ele><time>2026-03-27T12:53:05Z</time></trkpt><trkpt lat="43.29636027301469" lon="10.800574109043358"><ele>120.0</ele><time>2026-03-27T12:53:08Z</time></trkpt><trkpt lat="43.29634615504797" lon="10.800680740002182"><ele>120.0</ele><time>2026-03-27T12:53:10Z</time></trkpt><trkpt lat="43.29621459526494" lon="10.801045702619623"><ele>120.0</ele><time>2026-03-27T12:53:11Z</time></trkpt><trkpt lat="43.296121113931925" lon="10.801107899692445"><ele>120.0</ele><time>2026-03-27T12:53:12Z</time></trkpt><trkpt lat="43.29604300490949" lon="10.801214355569677"><ele>120.0</ele><time>2026-03-27T12:53:13Z</time></trkpt><trkpt lat="43.295973631244415" lon="10.801323596585753"><ele>120.0</ele><time>2026-03-27T12:53:14Z</time></trkpt><trkpt lat="43.29591613378437" lon="10.801409044367992"><ele>120.0</ele><time>2026-03-27T12:53:15Z</time></trkpt><trkpt lat="43.295920363609795" lon="10.801499587757416"><ele>120.0</ele><time>2026-03-27T12:53:16Z</time></trkpt><trkpt lat="43.29596586315074" lon="10.801580929067443"><ele>120.0</ele><time>2026-03-27T12:53:17Z</time></trkpt><trkpt lat="43.29604775733914" lon="10.801627792548265"><ele>120.0</ele><time>2026-03-27T12:53:18Z</time></trkpt><trkpt lat="43.29613042145243" lon="10.801642383480857"><ele>120.0</ele><time>2026-03-27T12:53:19Z</time></trkpt><trkpt lat="43.29621069083374" lon="10.801702476713263"><ele>120.0</ele><time>2026-03-27T12:53:20Z</time></trkpt><trkpt lat="43.296235264322085" lon="10.80179266578124"><ele>120.0</ele><time>2026-03-27T12:53:21Z</time></trkpt><trkpt lat="43.296175982324534" lon="10.801870677149806"><ele>119.4</ele><time>2026-03-27T12:53:22Z</time></trkpt><trkpt lat="43.296054556732834" lon="10.801885493648417"><ele>118.8</ele><time>2026-03-27T12:53:24Z</time></trkpt><trkpt lat="43.29595641707563" lon="10.801843897374647"><ele>118.19999999999999</ele><time>2026-03-27T12:53:25Z</time></trkpt><trkpt lat="43.295880094368854" lon="10.801864236630035"><ele>117.6</ele><time>2026-03-27T12:53:26Z</time></trkpt><trkpt lat="43.29587969354293" lon="10.801983289842378"><ele>117.0</ele><time>2026-03-27T12:53:27Z</time></trkpt><trkpt lat="43.29586057560445" lon="10.802081108469357"><ele>117.0</ele><time>2026-03-27T12:53:28Z</time></trkpt><trkpt lat="43.29594406969488" lon="10.802172705205384"><ele>116.99999999999999</ele><time>2026-03-27T12:53:29Z</time></trkpt><trkpt lat="43.29602491857527" lon="10.802242937345916"><ele>116.99999999999999</ele><time>2026-03-27T12:53:30Z</time></trkpt><trkpt lat="43.29609970097762" lon="10.802268663831107"><ele>117.0</ele><time>2026-03-27T12:53:31Z</time></trkpt><trkpt lat="43.29622937254934" lon="10.802242292254773"><ele>117.0</ele><time>2026-03-27T12:53:32Z</time></trkpt><trkpt lat="43.29638232983314" lon="10.802120111096956"><ele>116.8</ele><time>2026-03-27T12:53:33Z</time></trkpt><trkpt lat="43.29650166884797" lon="10.80206713705005"><ele>116.6</ele><time>2026-03-27T12:53:34Z</time></trkpt><trkpt lat="43.29661027140638" lon="10.802063670296244"><ele>116.39999999999999</ele><time>2026-03-27T12:53:35Z</time></trkpt><trkpt lat="43.29668858484971" lon="10.802101332853876"><ele>116.19999999999999</ele><time>2026-03-27T12:53:36Z</time></trkpt><trkpt lat="43.296732128258355" lon="10.802165502145819"><ele>116.0</ele><time>2026-03-27T12:53:37Z</time></trkpt><trkpt lat="43.29668618706646" lon="10.80231175632304"><ele>116.0</ele><time>2026-03-27T12:53:39Z</time></trkpt><trkpt lat="43.296595064942" lon="10.8023374592235"><ele>116.0</ele><time>2026-03-27T12:53:40Z</time></trkpt><trkpt lat="43.29651117654989" lon="10.80233314972931"><ele>116.0</ele><time>2026-03-27T12:53:41Z</time></trkpt><trkpt lat="43.296532691185924" lon="10.802447690223365"><ele>116.0</ele><time>2026-03-27T12:53:43Z</time></trkpt><trkpt lat="43.296618565843474" lon="10.802494484671419"><ele>116.0</ele><time>2026-03-27T12:53:44Z</time></trkpt><trkpt lat="43.29673726159471" lon="10.80247088231319"><ele>116.0</ele><time>2026-03-27T12:53:45Z</time></trkpt><trkpt lat="43.29684700803052" lon="10.802414760283408"><ele>116.0</ele><time>2026-03-27T12:53:46Z</time></trkpt><trkpt lat="43.29692503319389" lon="10.802314908029906"><ele>116.0</ele><time>2026-03-27T12:53:47Z</time></trkpt><trkpt lat="43.29696183748322" lon="10.802165134656837"><ele>116.0</ele><time>2026-03-27T12:53:48Z</time></trkpt><trkpt lat="43.297013379071416" lon="10.801955484183091"><ele>116.6</ele><time>2026-03-27T12:53:49Z</time></trkpt><trkpt lat="43.2970938522533" lon="10.80177225311505"><ele>117.19999999999999</ele><time>2026-03-27T12:53:50Z</time></trkpt><trkpt lat="43.29717429356255" lon="10.801661353780048"><ele>117.80000000000001</ele><time>2026-03-27T12:53:51Z</time></trkpt><trkpt lat="43.297250992084294" lon="10.801628585595894"><ele>118.4</ele><time>2026-03-27T12:53:52Z</time></trkpt><trkpt lat="43.29731445154937" lon="10.801652626292006"><ele>119.0</ele><time>2026-03-27T12:53:53Z</time></trkpt><trkpt lat="43.297355585585166" lon="10.801732642089187"><ele>118.4</ele><time>2026-03-27T12:53:54Z</time></trkpt><trkpt lat="43.297360811945545" lon="10.801865431163119"><ele>117.80000000000001</ele><time>2026-03-27T12:53:55Z</time></trkpt><trkpt lat="43.297353425303" lon="10.80203657015477"><ele>117.19999999999999</ele><time>2026-03-27T12:53:56Z</time></trkpt><trkpt lat="43.29733896955594" lon="10.802172356902336"><ele>116.6</ele><time>2026-03-27T12:53:57Z</time></trkpt><trkpt lat="43.29728936572384" lon="10.802296877913145"><ele>116.0</ele><time>2026-03-27T12:53:58Z</time></trkpt><trkpt lat="43.29720144443406" lon="10.802387578937074"><ele>116.0</ele><time>2026-03-27T12:53:59Z</time></trkpt><trkpt lat="43.29710264677373" lon="10.802445292157454"><ele>116.0</ele><time>2026-03-27T12:54:00Z</time></trkpt><trkpt lat="43.297028071996564" lon="10.802532099840798"><ele>116.0</ele><time>2026-03-27T12:54:01Z</time></trkpt><trkpt lat="43.29700419086278" lon="10.802651985416155"><ele>116.0</ele><time>2026-03-27T12:54:02Z</time></trkpt><trkpt lat="43.29703552843299" lon="10.802765225951445"><ele>116.0</ele><time>2026-03-27T12:54:03Z</time></trkpt><trkpt lat="43.29710450733847" lon="10.802891067106184"><ele>115.8</ele><time>2026-03-27T12:54:04Z</time></trkpt><trkpt lat="43.29721326870999" lon="10.803034199914025"><ele>115.6</ele><time>2026-03-27T12:54:05Z</time></trkpt><trkpt lat="43.29731248597364" lon="10.803141216002274"><ele>115.4</ele><time>2026-03-27T12:54:06Z</time></trkpt><trkpt lat="43.29739041370871" lon="10.803192614493664"><ele>115.2</ele><time>2026-03-27T12:54:07Z</time></trkpt><trkpt lat="43.29746079797474" lon="10.803126222652168"><ele>115.0</ele><time>2026-03-27T12:54:09Z</time></trkpt><trkpt lat="43.29744569070674" lon="10.803029522598894"><ele>115.0</ele><time>2026-03-27T12:54:10Z</time></trkpt><trkpt lat="43.29737656879229" lon="10.802922140911786"><ele>115.0</ele><time>2026-03-27T12:54:11Z</time></trkpt><trkpt lat="43.297276111539944" lon="10.802820532774671"><ele>115.0</ele><time>2026-03-27T12:54:12Z</time></trkpt><trkpt lat="43.29723476866165" lon="10.802745998116707"><ele>115.0</ele><time>2026-03-27T12:54:13Z</time></trkpt><trkpt lat="43.297336890290836" lon="10.802699233383445"><ele>115.0</ele><time>2026-03-27T12:54:15Z</time></trkpt><trkpt lat="43.297378526140406" lon="10.802783866098508"><ele>114.6</ele><time>2026-03-27T12:54:16Z</time></trkpt><trkpt lat="43.297508337595524" lon="10.802909449260495"><ele>114.2</ele><time>2026-03-27T12:54:17Z</time></trkpt><trkpt lat="43.297592164854684" lon="10.803012645203962"><ele>113.80000000000001</ele><time>2026-03-27T12:54:18Z</time></trkpt><trkpt lat="43.29764373829607" lon="10.803108742813256"><ele>113.4</ele><time>2026-03-27T12:54:19Z</time></trkpt><trkpt lat="43.29765671614018" lon="10.80320261616877"><ele>113.0</ele><time>2026-03-27T12:54:20Z</time></trkpt><trkpt lat="43.297640634926054" lon="10.803326040571985"><ele>113.0</ele><time>2026-03-27T12:54:21Z</time></trkpt><trkpt lat="43.297621237669304" lon="10.803481830671277"><ele>113.00000000000001</ele><time>2026-03-27T12:54:22Z</time></trkpt><trkpt lat="43.2976245775131" lon="10.803622229143166"><ele>113.00000000000001</ele><time>2026-03-27T12:54:23Z</time></trkpt><trkpt lat="43.297629279576135" lon="10.803715585757717"><ele>113.0</ele><time>2026-03-27T12:54:24Z</time></trkpt><trkpt lat="43.29755874098701" lon="10.803750430163879"><ele>113.0</ele><time>2026-03-27T12:54:26Z</time></trkpt><trkpt lat="43.297532960797426" lon="10.803874237446058"><ele>112.80000000000001</ele><time>2026-03-27T12:54:29Z</time></trkpt><trkpt lat="43.297675936583396" lon="10.803951048366029"><ele>112.60000000000001</ele><time>2026-03-27T12:54:31Z</time></trkpt><trkpt lat="43.29779285969415" lon="10.804016491729053"><ele>112.39999999999999</ele><time>2026-03-27T12:54:32.001Z</time></trkpt><trkpt lat="43.297849371503155" lon="10.804099128321791"><ele>112.19999999999999</ele><time>2026-03-27T12:54:33.001Z</time></trkpt><trkpt lat="43.29785320953982" lon="10.804212431864022"><ele>112.0</ele><time>2026-03-27T12:54:34.001Z</time></trkpt><trkpt lat="43.29786196776853" lon="10.804318999252084"><ele>112.00000000000001</ele><time>2026-03-27T12:54:35.001Z</time></trkpt><trkpt lat="43.2979308500782" lon="10.804302458805434"><ele>112.0</ele><time>2026-03-27T12:54:37.001Z</time></trkpt><trkpt lat="43.29797578137843" lon="10.80421454574046"><ele>112.0</ele><time>2026-03-27T12:54:38.001Z</time></trkpt><trkpt lat="43.298029278057705" lon="10.80409807003204"><ele>112.0</ele><time>2026-03-27T12:54:39.001Z</time></trkpt><trkpt lat="43.29809544991698" lon="10.80404526303746"><ele>112.00000000000001</ele><time>2026-03-27T12:54:40.001Z</time></trkpt><trkpt lat="43.29815461431721" lon="10.804162897001428"><ele>112.0</ele><time>2026-03-27T12:54:42.001Z</time></trkpt><trkpt lat="43.298133134851774" lon="10.804271917384893"><ele>111.8</ele><time>2026-03-27T12:54:43.001Z</time></trkpt><trkpt lat="43.298137477547726" lon="10.804361154106257"><ele>111.6</ele><time>2026-03-27T12:54:44.001Z</time></trkpt><trkpt lat="43.298189415940755" lon="10.804444582995451"><ele>111.39999999999999</ele><time>2026-03-27T12:54:45.001Z</time></trkpt><trkpt lat="43.29828610218124" lon="10.804495790213759"><ele>111.19999999999999</ele><time>2026-03-27T12:54:46.001Z</time></trkpt><trkpt lat="43.298398323220844" lon="10.804512643987403"><ele>111.0</ele><time>2026-03-27T12:54:47.001Z</time></trkpt><trkpt lat="43.29847978809886" lon="10.804434733818853"><ele>111.0</ele><time>2026-03-27T12:54:49Z</time></trkpt><trkpt lat="43.29844819816966" lon="10.804357044755077"><ele>111.0</ele><time>2026-03-27T12:54:50Z</time></trkpt><trkpt lat="43.29836187855829" lon="10.804290782894823"><ele>111.0</ele><time>2026-03-27T12:54:51Z</time></trkpt><trkpt lat="43.29828238900289" lon="10.804215663889979"><ele>111.0</ele><time>2026-03-27T12:54:52Z</time></trkpt><trkpt lat="43.29825268669961" lon="10.804079269818988"><ele>111.0</ele><time>2026-03-27T12:54:53Z</time></trkpt><trkpt lat="43.298231821061016" lon="10.803902417222266"><ele>111.0</ele><time>2026-03-27T12:54:54Z</time></trkpt><trkpt lat="43.29820552395882" lon="10.803788910991896"><ele>111.0</ele><time>2026-03-27T12:54:55Z</time></trkpt><trkpt lat="43.29811981379936" lon="10.803750824941034"><ele>111.0</ele><time>2026-03-27T12:54:56Z</time></trkpt><trkpt lat="43.29801566224382" lon="10.80371333252305"><ele>111.0</ele><time>2026-03-27T12:54:57Z</time></trkpt><trkpt lat="43.29799169018438" lon="10.803607631150163"><ele>111.0</ele><time>2026-03-27T12:54:59Z</time></trkpt><trkpt lat="43.298057891315096" lon="10.803549502807348"><ele>111.0</ele><time>2026-03-27T12:55:00Z</time></trkpt><trkpt lat="43.29815468479742" lon="10.803504938139202"><ele>111.33333333333333</ele><time>2026-03-27T12:55:01Z</time></trkpt><trkpt lat="43.29820302304673" lon="10.803437403282535"><ele>111.66666666666666</ele><time>2026-03-27T12:55:02Z</time></trkpt><trkpt lat="43.29820032379056" lon="10.803339727688273"><ele>112.0</ele><time>2026-03-27T12:55:03Z</time></trkpt><trkpt lat="43.29815593373122" lon="10.803217350819352"><ele>112.33333333333333</ele><time>2026-03-27T12:55:04Z</time></trkpt><trkpt lat="43.29808387146406" lon="10.803129910750075"><ele>112.66666666666666</ele><time>2026-03-27T12:55:05Z</time></trkpt><trkpt lat="43.297997729351295" lon="10.803109097069951"><ele>113.0</ele><time>2026-03-27T12:55:06Z</time></trkpt><trkpt lat="43.297932148891775" lon="10.803167500491377"><ele>113.0</ele><time>2026-03-27T12:55:07Z</time></trkpt><trkpt lat="43.29789612587356" lon="10.803281107939664"><ele>113.00000000000001</ele><time>2026-03-27T12:55:08Z</time></trkpt><trkpt lat="43.29788021712347" lon="10.803415487856"><ele>113.00000000000001</ele><time>2026-03-27T12:55:09Z</time></trkpt><trkpt lat="43.297802000791066" lon="10.803424126304524"><ele>113.0</ele><time>2026-03-27T12:55:11Z</time></trkpt><trkpt lat="43.2977877387902" lon="10.803318277856455"><ele>113.0</ele><time>2026-03-27T12:55:12Z</time></trkpt><trkpt lat="43.29779111685087" lon="10.803161494101275"><ele>113.0</ele><time>2026-03-27T12:55:13Z</time></trkpt><trkpt lat="43.29778268297695" lon="10.80297712263743"><ele>113.0</ele><time>2026-03-27T12:55:14Z</time></trkpt><trkpt lat="43.297724025005955" lon="10.802799687256957"><ele>113.0</ele><time>2026-03-27T12:55:15Z</time></trkpt><trkpt lat="43.29762507174619" lon="10.802664072227412"><ele>113.0</ele><time>2026-03-27T12:55:16Z</time></trkpt><trkpt lat="43.29755211545219" lon="10.802504835661692"><ele>113.4</ele><time>2026-03-27T12:55:17Z</time></trkpt><trkpt lat="43.297514374596574" lon="10.802330560491821"><ele>113.80000000000001</ele><time>2026-03-27T12:55:18Z</time></trkpt><trkpt lat="43.297515853848516" lon="10.802195424894641"><ele>114.2</ele><time>2026-03-27T12:55:19Z</time></trkpt><trkpt lat="43.29755318293564" lon="10.802119726768764"><ele>114.6</ele><time>2026-03-27T12:55:20Z</time></trkpt><trkpt lat="43.29766598911924" lon="10.802146342368445"><ele>115.0</ele><time>2026-03-27T12:55:22Z</time></trkpt><trkpt lat="43.29771992312623" lon="10.80225145983298"><ele>115.0</ele><time>2026-03-27T12:55:23Z</time></trkpt><trkpt lat="43.29777942828676" lon="10.802429624436447"><ele>115.0</ele><time>2026-03-27T12:55:24Z</time></trkpt><trkpt lat="43.297829925697265" lon="10.802591478196085"><ele>115.0</ele><time>2026-03-27T12:55:25Z</time></trkpt><trkpt lat="43.29787849593688" lon="10.802718586807371"><ele>115.0</ele><time>2026-03-27T12:55:26Z</time></trkpt><trkpt lat="43.29793479868877" lon="10.802794627275977"><ele>115.00000000000001</ele><time>2026-03-27T12:55:27Z</time></trkpt><trkpt lat="43.29799991527991" lon="10.802827511998826"><ele>115.0</ele><time>2026-03-27T12:55:28Z</time></trkpt><trkpt lat="43.29806843849198" lon="10.80280758664792"><ele>115.0</ele><time>2026-03-27T12:55:29Z</time></trkpt><trkpt lat="43.29811667279951" lon="10.802720302495686"><ele>115.0</ele><time>2026-03-27T12:55:30Z</time></trkpt><trkpt lat="43.29810971699943" lon="10.802588740746645"><ele>115.00000000000001</ele><time>2026-03-27T12:55:31Z</time></trkpt><trkpt lat="43.29810172795094" lon="10.802423241684904"><ele>115.0</ele><time>2026-03-27T12:55:32Z</time></trkpt><trkpt lat="43.2980566758586" lon="10.802300053093143"><ele>115.0</ele><time>2026-03-27T12:55:33Z</time></trkpt><trkpt lat="43.29796555251619" lon="10.802150288590251"><ele>115.0</ele><time>2026-03-27T12:55:34Z</time></trkpt><trkpt lat="43.29787043764591" lon="10.80202023027219"><ele>115.0</ele><time>2026-03-27T12:55:35Z</time></trkpt><trkpt lat="43.29781882604264" lon="10.80194400579897"><ele>115.0</ele><time>2026-03-27T12:55:36Z</time></trkpt><trkpt lat="43.297893581100006" lon="10.801799987178681"><ele>115.0</ele><time>2026-03-27T12:55:38Z</time></trkpt><trkpt lat="43.2979716525678" lon="10.801807838696833"><ele>115.0</ele><time>2026-03-27T12:55:39Z</time></trkpt><trkpt lat="43.29807435281288" lon="10.801841267949225"><ele>115.0</ele><time>2026-03-27T12:55:40Z</time></trkpt><trkpt lat="43.29815425798997" lon="10.801735216134936"><ele>115.0</ele><time>2026-03-27T12:55:42Z</time></trkpt><trkpt lat="43.29811532608332" lon="10.801619132744756"><ele>115.0</ele><time>2026-03-27T12:55:43Z</time></trkpt><trkpt lat="43.29805230060771" lon="10.801515285360212"><ele>116.0</ele><time>2026-03-27T12:55:44Z</time></trkpt><trkpt lat="43.29795053393583" lon="10.801453628462912"><ele>117.0</ele><time>2026-03-27T12:55:45Z</time></trkpt><trkpt lat="43.29780132333427" lon="10.801405357064088"><ele>118.0</ele><time>2026-03-27T12:55:46Z</time></trkpt><trkpt lat="43.297692294570666" lon="10.801406968891195"><ele>119.0</ele><time>2026-03-27T12:55:47Z</time></trkpt><trkpt lat="43.297637224574736" lon="10.801555794506639"><ele>119.0</ele><time>2026-03-27T12:55:49Z</time></trkpt><trkpt lat="43.297645277478594" lon="10.801699158569404"><ele>119.0</ele><time>2026-03-27T12:55:50Z</time></trkpt><trkpt lat="43.297638559112315" lon="10.801796908807008"><ele>119.0</ele><time>2026-03-27T12:55:51Z</time></trkpt><trkpt lat="43.297535418138686" lon="10.80181904505403"><ele>119.0</ele><time>2026-03-27T12:55:53Z</time></trkpt><trkpt lat="43.29748610433858" lon="10.8017419691716"><ele>119.0</ele><time>2026-03-27T12:55:54Z</time></trkpt><trkpt lat="43.29745169008405" lon="10.801605738618107"><ele>119.0</ele><time>2026-03-27T12:55:55Z</time></trkpt><trkpt lat="43.29742682707519" lon="10.801445584950404"><ele>119.0</ele><time>2026-03-27T12:55:56Z</time></trkpt><trkpt lat="43.297431329787045" lon="10.801324061369048"><ele>119.0</ele><time>2026-03-27T12:55:57Z</time></trkpt><trkpt lat="43.29748243672601" lon="10.80116264335798"><ele>119.0</ele><time>2026-03-27T12:55:59Z</time></trkpt><trkpt lat="43.2974943273622" lon="10.801061292766782"><ele>119.0</ele><time>2026-03-27T12:56:01Z</time></trkpt><trkpt lat="43.29752729133111" lon="10.80095751153091"><ele>120.57142857142857</ele><time>2026-03-27T12:56:03Z</time></trkpt><trkpt lat="43.29758736340841" lon="10.800925104780042"><ele>122.14285714285714</ele><time>2026-03-27T12:56:05Z</time></trkpt><trkpt lat="43.29762168709193" lon="10.800829951959642"><ele>123.71428571428572</ele><time>2026-03-27T12:56:07Z</time></trkpt><trkpt lat="43.29756086361162" lon="10.80075323268088"><ele>125.28571428571429</ele><time>2026-03-27T12:56:10Z</time></trkpt><trkpt lat="43.29749676382728" lon="10.800728600320005"><ele>126.85714285714286</ele><time>2026-03-27T12:56:12Z</time></trkpt><trkpt lat="43.297530798606644" lon="10.800629953716006"><ele>128.42857142857144</ele><time>2026-03-27T12:56:15Z</time></trkpt><trkpt lat="43.29760064589053" lon="10.800624136746062"><ele>130.0</ele><time>2026-03-27T12:56:16Z</time></trkpt><trkpt lat="43.29769982467876" lon="10.80067138105404"><ele>130.0</ele><time>2026-03-27T12:56:18Z</time></trkpt><trkpt lat="43.29775117612076" lon="10.800835827970927"><ele>130.0</ele><time>2026-03-27T12:56:20Z</time></trkpt><trkpt lat="43.29777806375223" lon="10.800953838711344"><ele>130.0</ele><time>2026-03-27T12:56:21Z</time></trkpt><trkpt lat="43.29782774048549" lon="10.80105281321405"><ele>130.0</ele><time>2026-03-27T12:56:22Z</time></trkpt><trkpt lat="43.297908323363586" lon="10.801156470611883"><ele>130.0</ele><time>2026-03-27T12:56:23Z</time></trkpt><trkpt lat="43.29797780531091" lon="10.801224825632396"><ele>130.0</ele><time>2026-03-27T12:56:24Z</time></trkpt><trkpt lat="43.298048179803" lon="10.801259158746037"><ele>130.0</ele><time>2026-03-27T12:56:25Z</time></trkpt><trkpt lat="43.29812043281767" lon="10.801256156330457"><ele>130.0</ele><time>2026-03-27T12:56:26Z</time></trkpt><trkpt lat="43.298162043901634" lon="10.801140768147645"><ele>130.0</ele><time>2026-03-27T12:56:27.999Z</time></trkpt><trkpt lat="43.29816553343115" lon="10.801043818379853"><ele>130.0</ele><time>2026-03-27T12:56:28.999Z</time></trkpt><trkpt lat="43.298135809346405" lon="10.800944532013816"><ele>130.0</ele><time>2026-03-27T12:56:29.999Z</time></trkpt><trkpt lat="43.29806693879491" lon="10.800869900312867"><ele>130.0</ele><time>2026-03-27T12:56:30.999Z</time></trkpt><trkpt lat="43.29798113720972" lon="10.800776469464816"><ele>130.0</ele><time>2026-03-27T12:56:31.999Z</time></trkpt><trkpt lat="43.29789063078481" lon="10.800618601535612"><ele>130.0</ele><time>2026-03-27T12:56:32.999Z</time></trkpt><trkpt lat="43.29783630343665" lon="10.800440992459013"><ele>130.0</ele><time>2026-03-27T12:56:33.999Z</time></trkpt><trkpt lat="43.297834183696615" lon="10.800263394255786"><ele>130.5</ele><time>2026-03-27T12:56:34.999Z</time></trkpt><trkpt lat="43.29783003990648" lon="10.800096177064315"><ele>131.0</ele><time>2026-03-27T12:56:35.999Z</time></trkpt><trkpt lat="43.297807663063985" lon="10.799965753459436"><ele>131.5</ele><time>2026-03-27T12:56:36.999Z</time></trkpt><trkpt lat="43.297762431461386" lon="10.799876687116642"><ele>132.0</ele><time>2026-03-27T12:56:38.001Z</time></trkpt><trkpt lat="43.29769832431309" lon="10.799830373380688"><ele>132.5</ele><time>2026-03-27T12:56:39.001Z</time></trkpt><trkpt lat="43.297629509748155" lon="10.799841531869772"><ele>133.0</ele><time>2026-03-27T12:56:40.001Z</time></trkpt><trkpt lat="43.29756078288041" lon="10.799929849535387"><ele>133.0</ele><time>2026-03-27T12:56:41.001Z</time></trkpt><trkpt lat="43.297495611292604" lon="10.800040958661157"><ele>133.0</ele><time>2026-03-27T12:56:42.001Z</time></trkpt><trkpt lat="43.29738738631895" lon="10.799987970447978"><ele>133.0</ele><time>2026-03-27T12:56:44.001Z</time></trkpt><trkpt lat="43.29737254621077" lon="10.799886924010332"><ele>133.0</ele><time>2026-03-27T12:56:45.001Z</time></trkpt><trkpt lat="43.29741653875618" lon="10.799786517515836"><ele>133.0</ele><time>2026-03-27T12:56:46.001Z</time></trkpt><trkpt lat="43.29751500248745" lon="10.799703931114546"><ele>133.0</ele><time>2026-03-27T12:56:47.001Z</time></trkpt><trkpt lat="43.297602799381835" lon="10.79961617381888"><ele>133.0</ele><time>2026-03-27T12:56:48Z</time></trkpt><trkpt lat="43.297665601820455" lon="10.79951903590171"><ele>133.0</ele><time>2026-03-27T12:56:49Z</time></trkpt><trkpt lat="43.29770978582259" lon="10.79942979316729"><ele>133.0</ele><time>2026-03-27T12:56:50Z</time></trkpt><trkpt lat="43.29772108747046" lon="10.799307225745558"><ele>133.0</ele><time>2026-03-27T12:56:52Z</time></trkpt><trkpt lat="43.29760871241267" lon="10.799233842301183"><ele>133.0</ele><time>2026-03-27T12:56:54Z</time></trkpt><trkpt lat="43.297524454301524" lon="10.79925077379259"><ele>133.0</ele><time>2026-03-27T12:56:55Z</time></trkpt><trkpt lat="43.297459154879355" lon="10.799322790344963"><ele>133.0</ele><time>2026-03-27T12:56:56Z</time></trkpt><trkpt lat="43.297425433086865" lon="10.799432184278375"><ele>133.0</ele><time>2026-03-27T12:56:57Z</time></trkpt><trkpt lat="43.297389745367305" lon="10.799576829976171"><ele>133.0</ele><time>2026-03-27T12:56:58Z</time></trkpt><trkpt lat="43.2973406947999" lon="10.79969457548539"><ele>133.0</ele><time>2026-03-27T12:56:59Z</time></trkpt><trkpt lat="43.297275268203926" lon="10.799764136105242"><ele>133.0</ele><time>2026-03-27T12:57:00Z</time></trkpt><trkpt lat="43.29714699322091" lon="10.79973202663968"><ele>133.0</ele><time>2026-03-27T12:57:02Z</time></trkpt><trkpt lat="43.297074387472286" lon="10.799651880182557"><ele>133.0</ele><time>2026-03-27T12:57:03Z</time></trkpt><trkpt lat="43.29701525497285" lon="10.79952883849072"><ele>133.0</ele><time>2026-03-27T12:57:04Z</time></trkpt><trkpt lat="43.29697444185906" lon="10.799403188606046"><ele>134.66666666666669</ele><time>2026-03-27T12:57:05Z</time></trkpt><trkpt lat="43.2969228586602" lon="10.79928319302845"><ele>136.33333333333334</ele><time>2026-03-27T12:57:06Z</time></trkpt><trkpt lat="43.296854787553066" lon="10.799223249262656"><ele>138.0</ele><time>2026-03-27T12:57:07Z</time></trkpt><trkpt lat="43.29678913499288" lon="10.79922468057035"><ele>139.66666666666666</ele><time>2026-03-27T12:57:08Z</time></trkpt><trkpt lat="43.29673898527653" lon="10.799366561001925"><ele>141.33333333333331</ele><time>2026-03-27T12:57:10Z</time></trkpt><trkpt lat="43.296747487172624" lon="10.799460075827895"><ele>143.0</ele><time>2026-03-27T12:57:11Z</time></trkpt><trkpt lat="43.29668633870542" lon="10.799395616327635"><ele>144.5</ele><time>2026-03-27T12:57:14Z</time></trkpt><trkpt lat="43.296684721933005" lon="10.79929792572617"><ele>146.0</ele><time>2026-03-27T12:57:16Z</time></trkpt><trkpt lat="43.296685128383714" lon="10.799021318899765"><ele>147.5</ele><time>2026-03-27T12:57:17Z</time></trkpt><trkpt lat="43.296688126620346" lon="10.798929083518916"><ele>149.0</ele><time>2026-03-27T12:57:18Z</time></trkpt><trkpt lat="43.29678649629229" lon="10.799077255320627"><ele>149.0</ele><time>2026-03-27T12:57:20Z</time></trkpt><trkpt lat="43.29698212113827" lon="10.799126611440917"><ele>149.0</ele><time>2026-03-27T12:57:21Z</time></trkpt><trkpt lat="43.29713506354214" lon="10.799119783544207"><ele>149.0</ele><time>2026-03-27T12:57:23Z</time></trkpt><trkpt lat="43.297225330956074" lon="10.799100284609866"><ele>149.0</ele><time>2026-03-27T12:57:24Z</time></trkpt><trkpt lat="43.297286808637736" lon="10.79906672391541"><ele>149.0</ele><time>2026-03-27T12:57:25Z</time></trkpt><trkpt lat="43.297349527643924" lon="10.799022111740522"><ele>149.0</ele><time>2026-03-27T12:57:26Z</time></trkpt><trkpt lat="43.297391077465974" lon="10.798944404458672"><ele>149.0</ele><time>2026-03-27T12:57:27Z</time></trkpt><trkpt lat="43.297308425107566" lon="10.79885742340357"><ele>149.0</ele><time>2026-03-27T12:57:29Z</time></trkpt><trkpt lat="43.29720061258163" lon="10.798831306930639"><ele>149.0</ele><time>2026-03-27T12:57:32Z</time></trkpt><trkpt lat="43.29711839136312" lon="10.798883045037742"><ele>149.0</ele><time>2026-03-27T12:57:33Z</time></trkpt><trkpt lat="43.2970243191305" lon="10.798930345972646"><ele>149.0</ele><time>2026-03-27T12:57:34Z</time></trkpt><trkpt lat="43.296888627015925" lon="10.798913352878367"><ele>149.0</ele><time>2026-03-27T12:57:36Z</time></trkpt><trkpt lat="43.29684776807442" lon="10.798806327312633"><ele>149.0</ele><time>2026-03-27T12:57:37Z</time></trkpt><trkpt lat="43.29684146029701" lon="10.79865954247645"><ele>149.0</ele><time>2026-03-27T12:57:38Z</time></trkpt><trkpt lat="43.29689417775749" lon="10.798519932082366"><ele>149.0</ele><time>2026-03-27T12:57:39Z</time></trkpt><trkpt lat="43.296953678775445" lon="10.798451912815601"><ele>149.0</ele><time>2026-03-27T12:57:40Z</time></trkpt><trkpt lat="43.29704588020861" lon="10.798429124785331"><ele>149.0</ele><time>2026-03-27T12:57:41Z</time></trkpt><trkpt lat="43.29714253990285" lon="10.798469741095174"><ele>149.0</ele><time>2026-03-27T12:57:42Z</time></trkpt><trkpt lat="43.29719578361388" lon="10.798533487682846"><ele>149.0</ele><time>2026-03-27T12:57:43Z</time></trkpt><trkpt lat="43.297264986076634" lon="10.798510893767265"><ele>149.0</ele><time>2026-03-27T12:57:45Z</time></trkpt><trkpt lat="43.29734163783076" lon="10.79846513957806"><ele>149.0</ele><time>2026-03-27T12:57:46Z</time></trkpt><trkpt lat="43.29744878091158" lon="10.798436608779468"><ele>147.16666666666666</ele><time>2026-03-27T12:57:47Z</time></trkpt><trkpt lat="43.29753636962193" lon="10.798437439917713"><ele>145.33333333333331</ele><time>2026-03-27T12:57:48Z</time></trkpt><trkpt lat="43.29762712197893" lon="10.798390707223776"><ele>143.5</ele><time>2026-03-27T12:57:50Z</time></trkpt><trkpt lat="43.29761252548146" lon="10.798272937306846"><ele>141.66666666666666</ele><time>2026-03-27T12:57:52Z</time></trkpt><trkpt lat="43.29754575227129" lon="10.798251263581722"><ele>139.83333333333334</ele><time>2026-03-27T12:57:53Z</time></trkpt><trkpt lat="43.29745533825532" lon="10.798229113136825"><ele>138.0</ele><time>2026-03-27T12:57:54Z</time></trkpt><trkpt lat="43.29731653111277" lon="10.798218339061611"><ele>141.20000000000002</ele><time>2026-03-27T12:57:55Z</time></trkpt><trkpt lat="43.29717375346632" lon="10.798203989742342"><ele>144.4</ele><time>2026-03-27T12:57:56Z</time></trkpt><trkpt lat="43.29706457164091" lon="10.798166148593864"><ele>147.60000000000002</ele><time>2026-03-27T12:57:57Z</time></trkpt><trkpt lat="43.29698599889137" lon="10.798114632109945"><ele>150.8</ele><time>2026-03-27T12:57:58Z</time></trkpt><trkpt lat="43.29694203986951" lon="10.798033490717973"><ele>154.0</ele><time>2026-03-27T12:57:59Z</time></trkpt><trkpt lat="43.29692958789626" lon="10.797915829414775"><ele>154.0</ele><time>2026-03-27T12:58:00Z</time></trkpt><trkpt lat="43.29695186164701" lon="10.797761311569968"><ele>154.0</ele><time>2026-03-27T12:58:01Z</time></trkpt><trkpt lat="43.2969946966681" lon="10.797645250133804"><ele>154.0</ele><time>2026-03-27T12:58:02Z</time></trkpt><trkpt lat="43.29713955716304" lon="10.797607922619049"><ele>154.0</ele><time>2026-03-27T12:58:04Z</time></trkpt><trkpt lat="43.297220307860194" lon="10.797564711068308"><ele>154.0</ele><time>2026-03-27T12:58:06Z</time></trkpt><trkpt lat="43.29720524651342" lon="10.797460034614732"><ele>155.25</ele><time>2026-03-27T12:58:08Z</time></trkpt><trkpt lat="43.29706784184747" lon="10.797361151884797"><ele>156.5</ele><time>2026-03-27T12:58:10Z</time></trkpt><trkpt lat="43.29696389552564" lon="10.79728401754688"><ele>157.75</ele><time>2026-03-27T12:58:10.999Z</time></trkpt><trkpt lat="43.2968465879297" lon="10.797203018303785"><ele>159.0</ele><time>2026-03-27T12:58:11.999Z</time></trkpt><trkpt lat="43.29674477950574" lon="10.797160395295936"><ele>159.0</ele><time>2026-03-27T12:58:12.999Z</time></trkpt><trkpt lat="43.296666872553935" lon="10.797234368482318"><ele>159.0</ele><time>2026-03-27T12:58:14.999Z</time></trkpt><trkpt lat="43.29664728387495" lon="10.79735834660057"><ele>159.0</ele><time>2026-03-27T12:58:15.999Z</time></trkpt><trkpt lat="43.296612537553884" lon="10.797473729185796"><ele>159.0</ele><time>2026-03-27T12:58:16.999Z</time></trkpt><trkpt lat="43.29653531049425" lon="10.797550153781156"><ele>159.0</ele><time>2026-03-27T12:58:17.999Z</time></trkpt><trkpt lat="43.29646554751383" lon="10.79757913661921"><ele>159.0</ele><time>2026-03-27T12:58:18.999Z</time></trkpt><trkpt lat="43.2964028379055" lon="10.797549544343052"><ele>159.0</ele><time>2026-03-27T12:58:19.999Z</time></trkpt><trkpt lat="43.29632651361532" lon="10.797452388137701"><ele>159.0</ele><time>2026-03-27T12:58:20.999Z</time></trkpt><trkpt lat="43.29628143164348" lon="10.797243618778948"><ele>159.0</ele><time>2026-03-27T12:58:21.999Z</time></trkpt><trkpt lat="43.29630552852558" lon="10.79711966917683"><ele>159.0</ele><time>2026-03-27T12:58:22.999Z</time></trkpt><trkpt lat="43.29636090157261" lon="10.7970494402306"><ele>159.0</ele><time>2026-03-27T12:58:23.999Z</time></trkpt><trkpt lat="43.296452227984524" lon="10.797011299432658"><ele>159.0</ele><time>2026-03-27T12:58:24.999Z</time></trkpt><trkpt lat="43.29653197106604" lon="10.796983751081564"><ele>159.0</ele><time>2026-03-27T12:58:25.999Z</time></trkpt><trkpt lat="43.296560891101734" lon="10.796894473228315"><ele>159.0</ele><time>2026-03-27T12:58:27.999Z</time></trkpt><trkpt lat="43.29647757524629" lon="10.796803826373681"><ele>159.0</ele><time>2026-03-27T12:58:29.999Z</time></trkpt><trkpt lat="43.296417101455944" lon="10.796769850037364"><ele>159.0</ele><time>2026-03-27T12:58:30.999Z</time></trkpt><trkpt lat="43.29633443470415" lon="10.796747175354716"><ele>159.0</ele><time>2026-03-27T12:58:31.999Z</time></trkpt><trkpt lat="43.29623537705397" lon="10.796698769282136"><ele>164.5</ele><time>2026-03-27T12:58:32.999Z</time></trkpt><trkpt lat="43.29610645124544" lon="10.79662090610781"><ele>170.0</ele><time>2026-03-27T12:58:33.999Z</time></trkpt><trkpt lat="43.2959680771075" lon="10.796550914611117"><ele>175.5</ele><time>2026-03-27T12:58:34.999Z</time></trkpt><trkpt lat="43.29583384582864" lon="10.796492506085222"><ele>181.0</ele><time>2026-03-27T12:58:35.999Z</time></trkpt><trkpt lat="43.2957405180677" lon="10.796438122771196"><ele>181.0</ele><time>2026-03-27T12:58:36.999Z</time></trkpt><trkpt lat="43.29567059632549" lon="10.796425998897206"><ele>181.0</ele><time>2026-03-27T12:58:37.999Z</time></trkpt><trkpt lat="43.29563782440117" lon="10.796561209484002"><ele>181.0</ele><time>2026-03-27T12:58:39.999Z</time></trkpt><trkpt lat="43.29569948319268" lon="10.7966476127517"><ele>181.0</ele><time>2026-03-27T12:58:40.999Z</time></trkpt><trkpt lat="43.29580196394553" lon="10.796704347442326"><ele>181.0</ele><time>2026-03-27T12:58:41.999Z</time></trkpt><trkpt lat="43.29590202996844" lon="10.796736757989303"><ele>181.0</ele><time>2026-03-27T12:58:42.999Z</time></trkpt><trkpt lat="43.29597805125603" lon="10.796810823730608"><ele>181.0</ele><time>2026-03-27T12:58:45Z</time></trkpt><trkpt lat="43.29590792981346" lon="10.796889381476724"><ele>181.0</ele><time>2026-03-27T12:58:47Z</time></trkpt><trkpt lat="43.29583952733842" lon="10.796893840220646"><ele>181.0</ele><time>2026-03-27T12:58:48Z</time></trkpt><trkpt lat="43.29573064532296" lon="10.796921559681868"><ele>181.0</ele><time>2026-03-27T12:58:49Z</time></trkpt><trkpt lat="43.29562654246175" lon="10.796951200459056"><ele>181.5</ele><time>2026-03-27T12:58:50Z</time></trkpt><trkpt lat="43.29554992229118" lon="10.796958523021274"><ele>182.0</ele><time>2026-03-27T12:58:51Z</time></trkpt><trkpt lat="43.29546003364768" lon="10.796945580195949"><ele>182.5</ele><time>2026-03-27T12:58:52Z</time></trkpt><trkpt lat="43.29538098326458" lon="10.796928048382116"><ele>183.0</ele><time>2026-03-27T12:58:53Z</time></trkpt><trkpt lat="43.29527855068881" lon="10.796903236854856"><ele>183.5</ele><time>2026-03-27T12:58:55Z</time></trkpt><trkpt lat="43.29520696565281" lon="10.796880374350529"><ele>184.0</ele><time>2026-03-27T13:03:02Z</time></trkpt><trkpt lat="43.295156334692855" lon="10.796807003278325"><ele>185.5</ele><time>2026-03-27T13:03:04Z</time></trkpt><trkpt lat="43.2951803667155" lon="10.796715760671349"><ele>187.0</ele><time>2026-03-27T13:03:06Z</time></trkpt><trkpt lat="43.295243104093736" lon="10.796679684604136"><ele>188.5</ele><time>2026-03-27T13:03:07Z</time></trkpt><trkpt lat="43.29530924620714" lon="10.796655400208836"><ele>190.0</ele><time>2026-03-27T13:03:08Z</time></trkpt><trkpt lat="43.295382537442734" lon="10.796607515441394"><ele>191.49999999999997</ele><time>2026-03-27T13:03:09Z</time></trkpt><trkpt lat="43.2954282641016" lon="10.796529861217513"><ele>193.0</ele><time>2026-03-27T13:03:10Z</time></trkpt><trkpt lat="43.29548706791491" lon="10.796431170242558"><ele>193.0</ele><time>2026-03-27T13:03:11Z</time></trkpt><trkpt lat="43.29553549666616" lon="10.796321875936558"><ele>193.0</ele><time>2026-03-27T13:03:12Z</time></trkpt><trkpt lat="43.29556664484172" lon="10.79620220019547"><ele>193.0</ele><time>2026-03-27T13:03:13Z</time></trkpt><trkpt lat="43.295594893368694" lon="10.796081232591783"><ele>193.0</ele><time>2026-03-27T13:03:14Z</time></trkpt><trkpt lat="43.29566226071059" lon="10.796010013248095"><ele>193.0</ele><time>2026-03-27T13:03:15Z</time></trkpt><trkpt lat="43.29577155198712" lon="10.79600058675646"><ele>191.0</ele><time>2026-03-27T13:03:16Z</time></trkpt><trkpt lat="43.29589159054228" lon="10.796078622403416"><ele>189.0</ele><time>2026-03-27T13:03:17Z</time></trkpt><trkpt lat="43.29601291819673" lon="10.79605698946677"><ele>187.0</ele><time>2026-03-27T13:03:18Z</time></trkpt><trkpt lat="43.296128897311945" lon="10.795991552865969"><ele>185.0</ele><time>2026-03-27T13:03:19Z</time></trkpt><trkpt lat="43.296252357508884" lon="10.79592617376275"><ele>185.0</ele><time>2026-03-27T13:03:20Z</time></trkpt><trkpt lat="43.29636517984339" lon="10.795898323501492"><ele>185.0</ele><time>2026-03-27T13:03:21Z</time></trkpt><trkpt lat="43.296484598196145" lon="10.7959036726835"><ele>185.0</ele><time>2026-03-27T13:03:22Z</time></trkpt><trkpt lat="43.29659796940409" lon="10.795889625545362"><ele>185.0</ele><time>2026-03-27T13:03:23Z</time></trkpt><trkpt lat="43.296703109602866" lon="10.795822107661982"><ele>181.75</ele><time>2026-03-27T13:03:24Z</time></trkpt><trkpt lat="43.29677434304309" lon="10.795678994197178"><ele>178.5</ele><time>2026-03-27T13:03:25Z</time></trkpt><trkpt lat="43.29684250107636" lon="10.795529660256147"><ele>175.25</ele><time>2026-03-27T13:03:26Z</time></trkpt><trkpt lat="43.296875935904716" lon="10.795364502537913"><ele>172.0</ele><time>2026-03-27T13:03:27Z</time></trkpt><trkpt lat="43.29694391067182" lon="10.795244935785723"><ele>172.0</ele><time>2026-03-27T13:03:28Z</time></trkpt><trkpt lat="43.29706161080708" lon="10.795196368557967"><ele>172.0</ele><time>2026-03-27T13:03:29Z</time></trkpt><trkpt lat="43.29719924487012" lon="10.795256755877105"><ele>172.0</ele><time>2026-03-27T13:03:30Z</time></trkpt><trkpt lat="43.2973436587701" lon="10.795274012962452"><ele>172.0</ele><time>2026-03-27T13:03:31Z</time></trkpt><trkpt lat="43.29747796386248" lon="10.79532066925711"><ele>169.0</ele><time>2026-03-27T13:03:32Z</time></trkpt><trkpt lat="43.2976105933683" lon="10.795321511014617"><ele>166.0</ele><time>2026-03-27T13:03:33Z</time></trkpt><trkpt lat="43.29774010130092" lon="10.795308988708129"><ele>163.0</ele><time>2026-03-27T13:03:34Z</time></trkpt><trkpt lat="43.2978706682432" lon="10.795300879907197"><ele>160.0</ele><time>2026-03-27T13:03:35Z</time></trkpt><trkpt lat="43.29799684337012" lon="10.795296419484647"><ele>160.5</ele><time>2026-03-27T13:03:36Z</time></trkpt><trkpt lat="43.2981195779399" lon="10.79532642345026"><ele>161.0</ele><time>2026-03-27T13:03:37Z</time></trkpt><trkpt lat="43.29823152054848" lon="10.795420021110736"><ele>161.5</ele><time>2026-03-27T13:03:38Z</time></trkpt><trkpt lat="43.29829774431931" lon="10.79559209257278"><ele>162.0</ele><time>2026-03-27T13:03:39Z</time></trkpt><trkpt lat="43.29838129137542" lon="10.795762280302041"><ele>162.0</ele><time>2026-03-27T13:03:40Z</time></trkpt><trkpt lat="43.29842093055728" lon="10.795936985580088"><ele>162.0</ele><time>2026-03-27T13:03:41Z</time></trkpt><trkpt lat="43.29840758345984" lon="10.796106627974579"><ele>162.0</ele><time>2026-03-27T13:03:42Z</time></trkpt><trkpt lat="43.29839930546112" lon="10.79629791964259"><ele>162.0</ele><time>2026-03-27T13:03:43Z</time></trkpt><trkpt lat="43.29840951458854" lon="10.796490630237232"><ele>160.5</ele><time>2026-03-27T13:03:44Z</time></trkpt><trkpt lat="43.29840362735683" lon="10.796668883870895"><ele>159.0</ele><time>2026-03-27T13:03:45Z</time></trkpt><trkpt lat="43.29841119245614" lon="10.796828596012611"><ele>157.5</ele><time>2026-03-27T13:03:46Z</time></trkpt><trkpt lat="43.29843575745467" lon="10.796990862995525"><ele>156.0</ele><time>2026-03-27T13:03:47Z</time></trkpt><trkpt lat="43.29849544939413" lon="10.797151082615954"><ele>153.5</ele><time>2026-03-27T13:03:48Z</time></trkpt><trkpt lat="43.29858319353276" lon="10.797295241249735"><ele>151.0</ele><time>2026-03-27T13:03:49Z</time></trkpt><trkpt lat="43.29868492185751" lon="10.797441248077261"><ele>148.5</ele><time>2026-03-27T13:03:50Z</time></trkpt><trkpt lat="43.298781629751986" lon="10.797588503995025"><ele>146.0</ele><time>2026-03-27T13:03:51Z</time></trkpt><trkpt lat="43.298857644962816" lon="10.797738680077106"><ele>147.75</ele><time>2026-03-27T13:03:52Z</time></trkpt><trkpt lat="43.298884221789095" lon="10.797920468203493"><ele>149.5</ele><time>2026-03-27T13:03:53Z</time></trkpt><trkpt lat="43.298896092770576" lon="10.798108264643764"><ele>151.25</ele><time>2026-03-27T13:03:54Z</time></trkpt><trkpt lat="43.29895200900409" lon="10.79827627085495"><ele>153.0</ele><time>2026-03-27T13:03:55Z</time></trkpt><trkpt lat="43.29902315596103" lon="10.79845155018288"><ele>150.66666666666666</ele><time>2026-03-27T13:03:56Z</time></trkpt><trkpt lat="43.2991196928142" lon="10.79861012633871"><ele>148.33333333333331</ele><time>2026-03-27T13:03:57Z</time></trkpt><trkpt lat="43.29920746155447" lon="10.798777516561819"><ele>146.0</ele><time>2026-03-27T13:03:58Z</time></trkpt><trkpt lat="43.2992878940936" lon="10.79894991678409"><ele>146.0</ele><time>2026-03-27T13:03:59Z</time></trkpt><trkpt lat="43.2993500654443" lon="10.79910598750591"><ele>146.0</ele><time>2026-03-27T13:04:00Z</time></trkpt><trkpt lat="43.29941480002376" lon="10.799258369608449"><ele>146.0</ele><time>2026-03-27T13:04:01Z</time></trkpt><trkpt lat="43.29941317826966" lon="10.799438638991363"><ele>146.0</ele><time>2026-03-27T13:04:02Z</time></trkpt><trkpt lat="43.2994118485039" lon="10.79962392118416"><ele>144.8</ele><time>2026-03-27T13:04:03Z</time></trkpt><trkpt lat="43.29941439377095" lon="10.799803155511988"><ele>143.6</ele><time>2026-03-27T13:04:04Z</time></trkpt><trkpt lat="43.29944231120812" lon="10.799958426088747"><ele>142.4</ele><time>2026-03-27T13:04:05Z</time></trkpt><trkpt lat="43.29944918008472" lon="10.800073848783098"><ele>141.2</ele><time>2026-03-27T13:04:06Z</time></trkpt><trkpt lat="43.29945670468163" lon="10.80016449401565"><ele>140.0</ele><time>2026-03-27T13:04:07Z</time></trkpt><trkpt lat="43.29944863945454" lon="10.8003146995125"><ele>139.6</ele><time>2026-03-27T13:04:09Z</time></trkpt><trkpt lat="43.299400626251355" lon="10.800437549052972"><ele>139.2</ele><time>2026-03-27T13:04:11Z</time></trkpt><trkpt lat="43.29935769209193" lon="10.800506182143776"><ele>138.8</ele><time>2026-03-27T13:04:12Z</time></trkpt><trkpt lat="43.299305006285635" lon="10.80060659466206"><ele>138.4</ele><time>2026-03-27T13:04:14Z</time></trkpt><trkpt lat="43.29928867464697" lon="10.80074362485012"><ele>138.0</ele><time>2026-03-27T13:04:16Z</time></trkpt><trkpt lat="43.29928417855502" lon="10.800870638639168"><ele>138.0</ele><time>2026-03-27T13:04:18Z</time></trkpt><trkpt lat="43.29932860336015" lon="10.800969374350647"><ele>138.0</ele><time>2026-03-27T13:04:22.999Z</time></trkpt><trkpt lat="43.29937699888275" lon="10.801074012908144"><ele>138.0</ele><time>2026-03-27T13:04:24.999Z</time></trkpt><trkpt lat="43.29944266941927" lon="10.801151362510783"><ele>138.0</ele><time>2026-03-27T13:04:26.999Z</time></trkpt><trkpt lat="43.299517727225144" lon="10.80119640666039"><ele>138.0</ele><time>2026-03-27T13:04:28.999Z</time></trkpt><trkpt lat="43.29957003273117" lon="10.801271969446704"><ele>138.0</ele><time>2026-03-27T13:04:29.999Z</time></trkpt><trkpt lat="43.2996112325603" lon="10.80133890074797"><ele>134.0</ele><time>2026-03-27T13:04:30.999Z</time></trkpt><trkpt lat="43.29936826079014" lon="10.801851570047376"><ele>130.0</ele><time>2026-03-27T13:04:31.999Z</time></trkpt><trkpt lat="43.299356989394674" lon="10.801964205564186"><ele>130.00000000000003</ele><time>2026-03-27T13:04:32.999Z</time></trkpt><trkpt lat="43.29934909159715" lon="10.80207588062321"><ele>130.0</ele><time>2026-03-27T13:04:33.999Z</time></trkpt><trkpt lat="43.29936491982605" lon="10.802179620700942"><ele>130.0</ele><time>2026-03-27T13:04:34.999Z</time></trkpt><trkpt lat="43.299388420854406" lon="10.802277182371132"><ele>130.0</ele><time>2026-03-27T13:04:35.999Z</time></trkpt><trkpt lat="43.29936229967884" lon="10.802361714729642"><ele>130.0</ele><time>2026-03-27T13:04:38.999Z</time></trkpt><trkpt lat="43.29930824615294" lon="10.802421145567306"><ele>130.00000000000003</ele><time>2026-03-27T13:04:41.999Z</time></trkpt><trkpt lat="43.29931203467792" lon="10.802517262089133"><ele>130.0</ele><time>2026-03-27T13:04:44.999Z</time></trkpt><trkpt lat="43.29930306652511" lon="10.80261817589194"><ele>128.83333333333334</ele><time>2026-03-27T13:04:47.999Z</time></trkpt><trkpt lat="43.299255395383504" lon="10.802703084824943"><ele>127.66666666666667</ele><time>2026-03-27T13:04:58.999Z</time></trkpt><trkpt lat="43.29918765264966" lon="10.80268157287546"><ele>126.5</ele><time>2026-03-27T13:05:00.999Z</time></trkpt><trkpt lat="43.29910447307362" lon="10.802708384334942"><ele>125.33333333333334</ele><time>2026-03-27T13:05:03Z</time></trkpt><trkpt lat="43.299046744470985" lon="10.802847162514915"><ele>124.16666666666667</ele><time>2026-03-27T13:05:05Z</time></trkpt><trkpt lat="43.299027840455594" lon="10.802953312541336"><ele>123.0</ele><time>2026-03-27T13:05:06Z</time></trkpt><trkpt lat="43.29900731322474" lon="10.803060094433269"><ele>123.0</ele><time>2026-03-27T13:05:07Z</time></trkpt><trkpt lat="43.298979411766936" lon="10.8031819982707"><ele>123.00000000000001</ele><time>2026-03-27T13:05:08Z</time></trkpt><trkpt lat="43.29895365155972" lon="10.80331098652236"><ele>123.00000000000001</ele><time>2026-03-27T13:05:09Z</time></trkpt><trkpt lat="43.29892175315884" lon="10.803441166290552"><ele>123.0</ele><time>2026-03-27T13:05:10Z</time></trkpt><trkpt lat="43.298889609931365" lon="10.803618229408313"><ele>123.0</ele><time>2026-03-27T13:05:11Z</time></trkpt><trkpt lat="43.298859157352176" lon="10.803812434389934"><ele>119.0</ele><time>2026-03-27T13:05:12Z</time></trkpt><trkpt lat="43.29882352336024" lon="10.804018983008548"><ele>115.0</ele><time>2026-03-27T13:05:13Z</time></trkpt><trkpt lat="43.298778073723355" lon="10.804247267688135"><ele>111.0</ele><time>2026-03-27T13:05:14Z</time></trkpt><trkpt lat="43.29874596150726" lon="10.804429527040464"><ele>111.0</ele><time>2026-03-27T13:05:15Z</time></trkpt><trkpt lat="43.29871474193724" lon="10.804596057361055"><ele>111.0</ele><time>2026-03-27T13:05:16Z</time></trkpt><trkpt lat="43.298687696135055" lon="10.804747638471945"><ele>111.0</ele><time>2026-03-27T13:05:17Z</time></trkpt><trkpt lat="43.29866830460315" lon="10.80484018536401"><ele>111.0</ele><time>2026-03-27T13:05:18Z</time></trkpt><trkpt lat="43.29860955262311" lon="10.8049145666905"><ele>111.0</ele><time>2026-03-27T13:05:20Z</time></trkpt><trkpt lat="43.29854804079777" lon="10.804877919898425"><ele>111.0</ele><time>2026-03-27T13:05:22Z</time></trkpt><trkpt lat="43.29847731623667" lon="10.804813006276493"><ele>111.0</ele><time>2026-03-27T13:05:23Z</time></trkpt><trkpt lat="43.29841197247791" lon="10.804751433378177"><ele>111.0</ele><time>2026-03-27T13:05:24Z</time></trkpt><trkpt lat="43.298334207553694" lon="10.804705455148234"><ele>111.0</ele><time>2026-03-27T13:05:25Z</time></trkpt><trkpt lat="43.29825527877256" lon="10.804677537549942"><ele>111.0</ele><time>2026-03-27T13:05:26Z</time></trkpt><trkpt lat="43.29818608369717" lon="10.804642191102708"><ele>111.0</ele><time>2026-03-27T13:05:27Z</time></trkpt><trkpt lat="43.29805350016529" lon="10.804559908610255"><ele>111.25</ele><time>2026-03-27T13:05:29Z</time></trkpt><trkpt lat="43.2979344549848" lon="10.804496247622327"><ele>111.5</ele><time>2026-03-27T13:05:30Z</time></trkpt><trkpt lat="43.2978140637637" lon="10.804422684591287"><ele>111.75</ele><time>2026-03-27T13:05:31Z</time></trkpt><trkpt lat="43.2977027335558" lon="10.804347840925638"><ele>112.0</ele><time>2026-03-27T13:05:32Z</time></trkpt><trkpt lat="43.29759071573833" lon="10.804291728954084"><ele>112.0</ele><time>2026-03-27T13:05:33Z</time></trkpt><trkpt lat="43.29747323467298" lon="10.804238673040514"><ele>112.0</ele><time>2026-03-27T13:05:34Z</time></trkpt><trkpt lat="43.2973587463501" lon="10.804189967712045"><ele>112.0</ele><time>2026-03-27T13:05:35Z</time></trkpt><trkpt lat="43.29723958793832" lon="10.804111526882075"><ele>112.0</ele><time>2026-03-27T13:05:36Z</time></trkpt><trkpt lat="43.297112037361046" lon="10.804036144598813"><ele>113.0</ele><time>2026-03-27T13:05:37Z</time></trkpt><trkpt lat="43.29700189278288" lon="10.803947967249279"><ele>114.0</ele><time>2026-03-27T13:05:38Z</time></trkpt><trkpt lat="43.29688659721538" lon="10.803856231557571"><ele>115.0</ele><time>2026-03-27T13:05:39Z</time></trkpt><trkpt lat="43.296758895862965" lon="10.803809133124885"><ele>116.0</ele><time>2026-03-27T13:05:40Z</time></trkpt><trkpt lat="43.29664048102049" lon="10.803731217938449"><ele>116.0</ele><time>2026-03-27T13:05:41Z</time></trkpt><trkpt lat="43.29653243829654" lon="10.803662901269828"><ele>116.0</ele><time>2026-03-27T13:05:42Z</time></trkpt><trkpt lat="43.296426613962446" lon="10.803601100912996"><ele>116.0</ele><time>2026-03-27T13:05:43Z</time></trkpt><trkpt lat="43.29635143489968" lon="10.803573927728284"><ele>116.0</ele><time>2026-03-27T13:05:44Z</time></trkpt><trkpt lat="43.29628954843539" lon="10.803522977260307"><ele>116.0</ele><time>2026-03-27T13:05:45Z</time></trkpt><trkpt lat="43.29619859179094" lon="10.803484252673107"><ele>115.8</ele><time>2026-03-27T13:05:47Z</time></trkpt><trkpt lat="43.29612996677629" lon="10.803521703006524"><ele>115.6</ele><time>2026-03-27T13:05:48Z</time></trkpt><trkpt lat="43.296011900363766" lon="10.803524102644728"><ele>115.4</ele><time>2026-03-27T13:05:50Z</time></trkpt><trkpt lat="43.29590192201777" lon="10.803457822873092"><ele>115.2</ele><time>2026-03-27T13:05:51Z</time></trkpt><trkpt lat="43.29580521240744" lon="10.80340959799173"><ele>115.0</ele><time>2026-03-27T13:05:52Z</time></trkpt><trkpt lat="43.29572042774522" lon="10.803349628173486"><ele>115.33333333333334</ele><time>2026-03-27T13:05:53Z</time></trkpt><trkpt lat="43.29565249650435" lon="10.803289480517114"><ele>115.66666666666667</ele><time>2026-03-27T13:05:54Z</time></trkpt><trkpt lat="43.29559183241414" lon="10.803222662343419"><ele>116.0</ele><time>2026-03-27T13:05:55Z</time></trkpt><trkpt lat="43.295550637844386" lon="10.803133895706042"><ele>116.33333333333334</ele><time>2026-03-27T13:05:56Z</time></trkpt><trkpt lat="43.29547542601192" lon="10.8030356637564"><ele>116.66666666666667</ele><time>2026-03-27T13:05:57Z</time></trkpt><trkpt lat="43.29540808833091" lon="10.802962606951473"><ele>117.0</ele><time>2026-03-27T13:05:58Z</time></trkpt><trkpt lat="43.29533426764225" lon="10.802909651942892"><ele>117.39999999999999</ele><time>2026-03-27T13:05:59Z</time></trkpt><trkpt lat="43.295230488511336" lon="10.802883494057658"><ele>117.79999999999998</ele><time>2026-03-27T13:06:00Z</time></trkpt><trkpt lat="43.29510774270355" lon="10.802853642987968"><ele>118.2</ele><time>2026-03-27T13:06:01Z</time></trkpt><trkpt lat="43.29501095313439" lon="10.802806756853663"><ele>118.6</ele><time>2026-03-27T13:06:02Z</time></trkpt><trkpt lat="43.2949109798862" lon="10.802744686650113"><ele>119.0</ele><time>2026-03-27T13:06:03Z</time></trkpt><trkpt lat="43.29482274176347" lon="10.802678029674324"><ele>119.80000000000001</ele><time>2026-03-27T13:06:04Z</time></trkpt><trkpt lat="43.294729382641215" lon="10.802630385233343"><ele>120.60000000000001</ele><time>2026-03-27T13:06:04.999Z</time></trkpt><trkpt lat="43.294634679823666" lon="10.802589084186403"><ele>121.4</ele><time>2026-03-27T13:06:05.999Z</time></trkpt><trkpt lat="43.29452727044461" lon="10.802543907315705"><ele>122.2</ele><time>2026-03-27T13:06:06.999Z</time></trkpt><trkpt lat="43.29441190018813" lon="10.802471440540284"><ele>123.0</ele><time>2026-03-27T13:06:07.999Z</time></trkpt><trkpt lat="43.29432104141479" lon="10.802410070714341"><ele>123.0</ele><time>2026-03-27T13:06:08.999Z</time></trkpt><trkpt lat="43.294217848318894" lon="10.80235802417874"><ele>123.0</ele><time>2026-03-27T13:06:09.999Z</time></trkpt><trkpt lat="43.29411007769457" lon="10.80230541884195"><ele>123.0</ele><time>2026-03-27T13:06:10.999Z</time></trkpt><trkpt lat="43.294006451851004" lon="10.802249161403319"><ele>123.0</ele><time>2026-03-27T13:06:11.999Z</time></trkpt><trkpt lat="43.29390220060835" lon="10.802183119810335"><ele>123.80000000000001</ele><time>2026-03-27T13:06:12.999Z</time></trkpt><trkpt lat="43.29378662217967" lon="10.802133592743179"><ele>124.60000000000001</ele><time>2026-03-27T13:06:13.999Z</time></trkpt><trkpt lat="43.29368273253628" lon="10.802090778152376"><ele>125.39999999999999</ele><time>2026-03-27T13:06:14.999Z</time></trkpt><trkpt lat="43.29359920888278" lon="10.802047268073945"><ele>126.19999999999999</ele><time>2026-03-27T13:06:15.999Z</time></trkpt><trkpt lat="43.29352170854819" lon="10.801999910020998"><ele>127.0</ele><time>2026-03-27T13:06:16.999Z</time></trkpt><trkpt lat="43.293452936188125" lon="10.801943071238535"><ele>127.00000000000001</ele><time>2026-03-27T13:06:17.999Z</time></trkpt><trkpt lat="43.29339751180588" lon="10.801876095772007"><ele>127.0</ele><time>2026-03-27T13:06:18.999Z</time></trkpt><trkpt lat="43.29336502757813" lon="10.801797887983597"><ele>127.0</ele><time>2026-03-27T13:06:19.999Z</time></trkpt><trkpt lat="43.29331749412076" lon="10.801705631723433"><ele>127.0</ele><time>2026-03-27T13:06:21.999Z</time></trkpt><trkpt lat="43.2932469587302" lon="10.801712906780507"><ele>127.00000000000001</ele><time>2026-03-27T13:06:24.999Z</time></trkpt><trkpt lat="43.293168202524456" lon="10.801786110433769"><ele>127.0</ele><time>2026-03-27T13:06:27.999Z</time></trkpt><trkpt lat="43.29307453908577" lon="10.801813953496074"><ele>128.6</ele><time>2026-03-27T13:06:29.999Z</time></trkpt><trkpt lat="43.29302132599788" lon="10.801873596713083"><ele>130.2</ele><time>2026-03-27T13:06:31.999Z</time></trkpt><trkpt lat="43.29295450386712" lon="10.801989811649966"><ele>131.8</ele><time>2026-03-27T13:06:33.999Z</time></trkpt><trkpt lat="43.29284202390098" lon="10.801972640131387"><ele>133.4</ele><time>2026-03-27T13:06:35.999Z</time></trkpt><trkpt lat="43.292775682098416" lon="10.801956237533508"><ele>135.0</ele><time>2026-03-27T13:06:36.999Z</time></trkpt><trkpt lat="43.292654522333216" lon="10.801972294920512"><ele>135.0</ele><time>2026-03-27T13:06:38.999Z</time></trkpt><trkpt lat="43.29258140732191" lon="10.801989137957559"><ele>135.0</ele><time>2026-03-27T13:06:39.999Z</time></trkpt><trkpt lat="43.29249821907268" lon="10.802005313011325"><ele>135.0</ele><time>2026-03-27T13:06:40.999Z</time></trkpt><trkpt lat="43.29241081561667" lon="10.802045419365793"><ele>135.0</ele><time>2026-03-27T13:06:41.999Z</time></trkpt><trkpt lat="43.29230795668039" lon="10.802128093153742"><ele>135.0</ele><time>2026-03-27T13:06:42.999Z</time></trkpt><trkpt lat="43.29219528741382" lon="10.80221944884682"><ele>136.6</ele><time>2026-03-27T13:06:43.999Z</time></trkpt><trkpt lat="43.29208300082059" lon="10.802315545290215"><ele>138.2</ele><time>2026-03-27T13:06:44.999Z</time></trkpt><trkpt lat="43.29199366561486" lon="10.802401286111051"><ele>139.8</ele><time>2026-03-27T13:06:45.999Z</time></trkpt><trkpt lat="43.29193183242014" lon="10.80244430744306"><ele>141.4</ele><time>2026-03-27T13:06:46.999Z</time></trkpt><trkpt lat="43.29189706776735" lon="10.802557370661805"><ele>143.0</ele><time>2026-03-27T13:06:47.999Z</time></trkpt><trkpt lat="43.29185430384368" lon="10.802690682795987"><ele>145.25</ele><time>2026-03-27T13:06:48.999Z</time></trkpt><trkpt lat="43.29178277896866" lon="10.802832731867918"><ele>147.5</ele><time>2026-03-27T13:06:49.999Z</time></trkpt><trkpt lat="43.29170040979907" lon="10.802973360626895"><ele>149.75</ele><time>2026-03-27T13:06:50.999Z</time></trkpt><trkpt lat="43.29161265357969" lon="10.803114648616862"><ele>152.0</ele><time>2026-03-27T13:06:51.999Z</time></trkpt><trkpt lat="43.29152358438688" lon="10.803277813773095"><ele>152.0</ele><time>2026-03-27T13:06:52.999Z</time></trkpt><trkpt lat="43.29142893800055" lon="10.803453525558425"><ele>152.0</ele><time>2026-03-27T13:06:53.999Z</time></trkpt><trkpt lat="43.291357460086786" lon="10.80360336059851"><ele>152.0</ele><time>2026-03-27T13:06:54.999Z</time></trkpt><trkpt lat="43.29130834683571" lon="10.803757189952366"><ele>152.0</ele><time>2026-03-27T13:06:55.999Z</time></trkpt><trkpt lat="43.291264454522604" lon="10.803909919360839"><ele>155.83333333333331</ele><time>2026-03-27T13:06:56.999Z</time></trkpt><trkpt lat="43.29123192109187" lon="10.80403013269329"><ele>159.66666666666666</ele><time>2026-03-27T13:06:57.999Z</time></trkpt><trkpt lat="43.29121327112915" lon="10.804115486575643"><ele>163.5</ele><time>2026-03-27T13:06:58.999Z</time></trkpt><trkpt lat="43.29115649582766" lon="10.804193830208973"><ele>167.33333333333334</ele><time>2026-03-27T13:07:00.999Z</time></trkpt><trkpt lat="43.29103409490666" lon="10.804239935549981"><ele>171.16666666666669</ele><time>2026-03-27T13:07:02.999Z</time></trkpt><trkpt lat="43.29095373714369" lon="10.804261539494568"><ele>175.0</ele><time>2026-03-27T13:07:03.999Z</time></trkpt><trkpt lat="43.29088861798505" lon="10.804286441611662"><ele>175.0</ele><time>2026-03-27T13:07:04.999Z</time></trkpt><trkpt lat="43.290816491610954" lon="10.804312686206828"><ele>175.0</ele><time>2026-03-27T13:07:05.999Z</time></trkpt><trkpt lat="43.29072792319787" lon="10.804321132580839"><ele>175.0</ele><time>2026-03-27T13:07:06.999Z</time></trkpt><trkpt lat="43.29064700195723" lon="10.804331266888514"><ele>175.0</ele><time>2026-03-27T13:07:08Z</time></trkpt><trkpt lat="43.2905781893297" lon="10.804360947192643"><ele>175.0</ele><time>2026-03-27T13:07:09Z</time></trkpt><trkpt lat="43.290510317988144" lon="10.804412898934471"><ele>175.0</ele><time>2026-03-27T13:07:10Z</time></trkpt><trkpt lat="43.29045237087126" lon="10.80450379870677"><ele>178.4</ele><time>2026-03-27T13:07:11Z</time></trkpt><trkpt lat="43.29041111803765" lon="10.804591711473998"><ele>181.8</ele><time>2026-03-27T13:07:12Z</time></trkpt><trkpt lat="43.290365422588145" lon="10.80468885312319"><ele>185.2</ele><time>2026-03-27T13:07:14Z</time></trkpt><trkpt lat="43.29036038062005" lon="10.804861659737798"><ele>188.6</ele><time>2026-03-27T13:07:16Z</time></trkpt><trkpt lat="43.29034972482821" lon="10.804950650689847"><ele>192.0</ele><time>2026-03-27T13:07:17Z</time></trkpt><trkpt lat="43.29033101974972" lon="10.805096909241513"><ele>193.14285714285714</ele><time>2026-03-27T13:07:19Z</time></trkpt><trkpt lat="43.29031985168683" lon="10.805182536161889"><ele>194.28571428571428</ele><time>2026-03-27T13:07:20Z</time></trkpt><trkpt lat="43.290304432986446" lon="10.805267749537467"><ele>195.42857142857144</ele><time>2026-03-27T13:07:21Z</time></trkpt><trkpt lat="43.29028806159288" lon="10.805370907911362"><ele>196.57142857142856</ele><time>2026-03-27T13:07:22Z</time></trkpt><trkpt lat="43.2902802567128" lon="10.80547333256002"><ele>197.71428571428572</ele><time>2026-03-27T13:07:23Z</time></trkpt><trkpt lat="43.29028188176056" lon="10.80559125132089"><ele>198.85714285714286</ele><time>2026-03-27T13:07:24Z</time></trkpt><trkpt lat="43.29029173840863" lon="10.805696472703488"><ele>200.0</ele><time>2026-03-27T13:07:25Z</time></trkpt><trkpt lat="43.290318306204824" lon="10.805796318389666"><ele>200.00000000000003</ele><time>2026-03-27T13:07:26Z</time></trkpt><trkpt lat="43.290363168654245" lon="10.805870919711937"><ele>200.0</ele><time>2026-03-27T13:07:27Z</time></trkpt><trkpt lat="43.29042027364663" lon="10.805943282972269"><ele>200.0</ele><time>2026-03-27T13:07:28Z</time></trkpt><trkpt lat="43.29047810451967" lon="10.806012180877326"><ele>200.0</ele><time>2026-03-27T13:07:29Z</time></trkpt><trkpt lat="43.290521180648646" lon="10.806103390964306"><ele>200.00000000000003</ele><time>2026-03-27T13:07:30Z</time></trkpt><trkpt lat="43.29056326811582" lon="10.806224782969228"><ele>200.0</ele><time>2026-03-27T13:07:31Z</time></trkpt><trkpt lat="43.2906039659429" lon="10.806329320614177"><ele>200.00000000000003</ele><time>2026-03-27T13:07:32Z</time></trkpt><trkpt lat="43.29063365427371" lon="10.806424317702756"><ele>200.0</ele><time>2026-03-27T13:07:33Z</time></trkpt><trkpt lat="43.29065500199915" lon="10.806510432904831"><ele>200.0</ele><time>2026-03-27T13:07:34Z</time></trkpt><trkpt lat="43.29066335801074" lon="10.806612225851394"><ele>200.0</ele><time>2026-03-27T13:07:35Z</time></trkpt><trkpt lat="43.29064883495236" lon="10.80674891738299"><ele>200.00000000000003</ele><time>2026-03-27T13:07:36Z</time></trkpt><trkpt lat="43.29066592376022" lon="10.806929216325496"><ele>200.0</ele><time>2026-03-27T13:07:37Z</time></trkpt><trkpt lat="43.290675715122156" lon="10.80712522514299"><ele>200.0</ele><time>2026-03-27T13:07:38Z</time></trkpt><trkpt lat="43.290644496015894" lon="10.807324094004072"><ele>200.0</ele><time>2026-03-27T13:07:39Z</time></trkpt><trkpt lat="43.290610065857805" lon="10.80754001245384"><ele>200.0</ele><time>2026-03-27T13:07:40Z</time></trkpt><trkpt lat="43.290573816089896" lon="10.807752627648885"><ele>203.5</ele><time>2026-03-27T13:07:41Z</time></trkpt><trkpt lat="43.2905277631348" lon="10.807950402946513"><ele>207.0</ele><time>2026-03-27T13:07:42Z</time></trkpt><trkpt lat="43.29045515075768" lon="10.808114337430645"><ele>210.5</ele><time>2026-03-27T13:07:43Z</time></trkpt><trkpt lat="43.29036177071931" lon="10.808261214160526"><ele>214.0</ele><time>2026-03-27T13:07:44Z</time></trkpt><trkpt lat="43.290257705087356" lon="10.808372599034533"><ele>213.66666666666666</ele><time>2026-03-27T13:07:45Z</time></trkpt><trkpt lat="43.29015325300495" lon="10.808511465079288"><ele>213.33333333333331</ele><time>2026-03-27T13:07:46Z</time></trkpt><trkpt lat="43.29008648497603" lon="10.808707385493591"><ele>213.0</ele><time>2026-03-27T13:07:47Z</time></trkpt><trkpt lat="43.290029906379694" lon="10.808909708096042"><ele>213.0</ele><time>2026-03-27T13:07:48Z</time></trkpt><trkpt lat="43.290003460220106" lon="10.809111710104713"><ele>213.0</ele><time>2026-03-27T13:07:49Z</time></trkpt><trkpt lat="43.28997004272887" lon="10.809286480116429"><ele>213.0</ele><time>2026-03-27T13:07:50Z</time></trkpt><trkpt lat="43.289939458796496" lon="10.809419589517413"><ele>213.0</ele><time>2026-03-27T13:07:51Z</time></trkpt><trkpt lat="43.28988081853761" lon="10.809510507036142"><ele>212.0</ele><time>2026-03-27T13:07:52Z</time></trkpt><trkpt lat="43.28980094082983" lon="10.80955147188541"><ele>211.0</ele><time>2026-03-27T13:07:53Z</time></trkpt><trkpt lat="43.28970654252339" lon="10.809578811188784"><ele>210.0</ele><time>2026-03-27T13:07:54Z</time></trkpt><trkpt lat="43.28958545399875" lon="10.80968171684976"><ele>209.0</ele><time>2026-03-27T13:07:55Z</time></trkpt><trkpt lat="43.28949565090419" lon="10.809846872212137"><ele>213.5</ele><time>2026-03-27T13:07:56Z</time></trkpt><trkpt lat="43.28940645227693" lon="10.810004493421593"><ele>218.0</ele><time>2026-03-27T13:07:57Z</time></trkpt><trkpt lat="43.289333331146096" lon="10.810150827334022"><ele>222.5</ele><time>2026-03-27T13:07:58Z</time></trkpt><trkpt lat="43.28929076389592" lon="10.810302343606597"><ele>227.0</ele><time>2026-03-27T13:07:59Z</time></trkpt><trkpt lat="43.289312044571915" lon="10.81047789200623"><ele>227.0</ele><time>2026-03-27T13:08:00Z</time></trkpt><trkpt lat="43.28937211109242" lon="10.810608214426919"><ele>227.0</ele><time>2026-03-27T13:08:00.999Z</time></trkpt><trkpt lat="43.289377942310836" lon="10.810744707623318"><ele>227.0</ele><time>2026-03-27T13:08:01.999Z</time></trkpt><trkpt lat="43.28934430619483" lon="10.810885198519948"><ele>227.0</ele><time>2026-03-27T13:08:02.999Z</time></trkpt><trkpt lat="43.28928728301269" lon="10.811023085146543"><ele>227.0</ele><time>2026-03-27T13:08:03.999Z</time></trkpt><trkpt lat="43.28922568571444" lon="10.811187978836298"><ele>226.75</ele><time>2026-03-27T13:08:04.999Z</time></trkpt><trkpt lat="43.28915524028344" lon="10.811379200026549"><ele>226.5</ele><time>2026-03-27T13:08:05.999Z</time></trkpt><trkpt lat="43.28909121855852" lon="10.811552984283766"><ele>226.25</ele><time>2026-03-27T13:08:06.999Z</time></trkpt><trkpt lat="43.289037105768266" lon="10.811688794523072"><ele>226.0</ele><time>2026-03-27T13:08:07.999Z</time></trkpt><trkpt lat="43.288994403294076" lon="10.811773027168266"><ele>225.99999999999997</ele><time>2026-03-27T13:08:08.999Z</time></trkpt><trkpt lat="43.2889325841799" lon="10.81180750778675"><ele>226.0</ele><time>2026-03-27T13:08:10.999Z</time></trkpt><trkpt lat="43.28885953262138" lon="10.81187563998639"><ele>226.0</ele><time>2026-03-27T13:08:13.999Z</time></trkpt><trkpt lat="43.28878753088995" lon="10.811927460283504"><ele>226.0</ele><time>2026-03-27T13:08:15.999Z</time></trkpt><trkpt lat="43.28878803025912" lon="10.811782552388957"><ele>225.99999999999997</ele><time>2026-03-27T13:08:17.999Z</time></trkpt><trkpt lat="43.28884785139988" lon="10.811734407531185"><ele>226.0</ele><time>2026-03-27T13:08:18.999Z</time></trkpt><trkpt lat="43.28880273760303" lon="10.811971904381572"><ele>226.49999999999997</ele><time>2026-03-27T13:08:38.999Z</time></trkpt><trkpt lat="43.28878453829149" lon="10.812078968640256"><ele>227.0</ele><time>2026-03-27T13:08:50.999Z</time></trkpt><trkpt lat="43.288728824898705" lon="10.812129243924062"><ele>227.5</ele><time>2026-03-27T13:08:53.999Z</time></trkpt><trkpt lat="43.288657626728" lon="10.812114079052947"><ele>228.0</ele><time>2026-03-27T13:09:57Z</time></trkpt><trkpt lat="43.28859391094464" lon="10.81211845495112"><ele>228.49999999999997</ele><time>2026-03-27T13:09:58Z</time></trkpt><trkpt lat="43.28850775027872" lon="10.812129099958856"><ele>229.0</ele><time>2026-03-27T13:09:59Z</time></trkpt><trkpt lat="43.28837211131152" lon="10.812160918280172"><ele>229.0</ele><time>2026-03-27T13:10:00Z</time></trkpt><trkpt lat="43.28822771276895" lon="10.812198698920483"><ele>228.99999999999997</ele><time>2026-03-27T13:10:01Z</time></trkpt><trkpt lat="43.28810406596741" lon="10.812220957881298"><ele>228.99999999999997</ele><time>2026-03-27T13:10:02Z</time></trkpt><trkpt lat="43.28802600580531" lon="10.812250999796369"><ele>229.0</ele><time>2026-03-27T13:10:03Z</time></trkpt><trkpt lat="43.28797488413616" lon="10.81231898179913"><ele>229.0</ele><time>2026-03-27T13:10:04Z</time></trkpt><trkpt lat="43.287945388764314" lon="10.812410420904182"><ele>231.6</ele><time>2026-03-27T13:10:04.999Z</time></trkpt><trkpt lat="43.28794199708959" lon="10.812517354817825"><ele>234.2</ele><time>2026-03-27T13:10:05.999Z</time></trkpt><trkpt lat="43.28791672010322" lon="10.812647197893106"><ele>236.79999999999998</ele><time>2026-03-27T13:10:06.999Z</time></trkpt><trkpt lat="43.28786401802475" lon="10.81273510812781"><ele>239.39999999999998</ele><time>2026-03-27T13:10:07.999Z</time></trkpt><trkpt lat="43.28776785797285" lon="10.812798205447834"><ele>242.0</ele><time>2026-03-27T13:10:08.999Z</time></trkpt><trkpt lat="43.287650496856166" lon="10.812877528616909"><ele>242.25</ele><time>2026-03-27T13:10:09.999Z</time></trkpt><trkpt lat="43.28751304516077" lon="10.81296867868725"><ele>242.5</ele><time>2026-03-27T13:10:10.999Z</time></trkpt><trkpt lat="43.287381392454414" lon="10.813076685821999"><ele>242.75</ele><time>2026-03-27T13:10:11.999Z</time></trkpt><trkpt lat="43.28728418302285" lon="10.813182513644671"><ele>243.0</ele><time>2026-03-27T13:10:12.999Z</time></trkpt><trkpt lat="43.287205588715175" lon="10.813296429467742"><ele>245.4</ele><time>2026-03-27T13:10:13.999Z</time></trkpt><trkpt lat="43.287144988148945" lon="10.813401974358355"><ele>247.8</ele><time>2026-03-27T13:10:14.999Z</time></trkpt><trkpt lat="43.28709971481603" lon="10.813495136656968"><ele>250.2</ele><time>2026-03-27T13:10:15.999Z</time></trkpt><trkpt lat="43.287047052014145" lon="10.813569794382435"><ele>252.6</ele><time>2026-03-27T13:10:16.999Z</time></trkpt><trkpt lat="43.28687839629208" lon="10.813492445126188"><ele>255.0</ele><time>2026-03-27T13:10:17.999Z</time></trkpt><trkpt lat="43.28682324910715" lon="10.813563188356929"><ele>255.0</ele><time>2026-03-27T13:10:18.999Z</time></trkpt><trkpt lat="43.28676207197716" lon="10.813636600901207"><ele>255.0</ele><time>2026-03-27T13:10:19.999Z</time></trkpt><trkpt lat="43.286699145117424" lon="10.813708208247807"><ele>255.0</ele><time>2026-03-27T13:10:20.999Z</time></trkpt><trkpt lat="43.286625385833396" lon="10.813785754634434"><ele>255.0</ele><time>2026-03-27T13:10:21.999Z</time></trkpt><trkpt lat="43.28653803930902" lon="10.813861441957146"><ele>255.0</ele><time>2026-03-27T13:10:22.999Z</time></trkpt><trkpt lat="43.28646665232137" lon="10.8139245176371"><ele>255.0</ele><time>2026-03-27T13:10:23.999Z</time></trkpt><trkpt lat="43.28639019295801" lon="10.81399207514085"><ele>255.0</ele><time>2026-03-27T13:10:25.999Z</time></trkpt><trkpt lat="43.28646830428918" lon="10.81423853097771"><ele>255.0</ele><time>2026-03-27T13:10:26.999Z</time></trkpt><trkpt lat="43.28636811569771" lon="10.814374111907128"><ele>255.0</ele><time>2026-03-27T13:10:28.999Z</time></trkpt><trkpt lat="43.28632915276357" lon="10.814479194840304"><ele>255.0</ele><time>2026-03-27T13:10:29.999Z</time></trkpt><trkpt lat="43.28629121064702" lon="10.814591573443899"><ele>256.8333333333333</ele><time>2026-03-27T13:10:30.999Z</time></trkpt><trkpt lat="43.286259350606535" lon="10.814692160546693"><ele>258.6666666666667</ele><time>2026-03-27T13:10:31.999Z</time></trkpt><trkpt lat="43.286194059150986" lon="10.814827607564691"><ele>260.5</ele><time>2026-03-27T13:10:33.999Z</time></trkpt><trkpt lat="43.28615829878808" lon="10.81491043786185"><ele>262.33333333333337</ele><time>2026-03-27T13:10:34.999Z</time></trkpt><trkpt lat="43.28609673540059" lon="10.814953074291052"><ele>264.1666666666667</ele><time>2026-03-27T13:10:35.999Z</time></trkpt><trkpt lat="43.286025622783846" lon="10.814964375320477"><ele>266.0</ele><time>2026-03-27T13:10:36.999Z</time></trkpt><trkpt lat="43.28594300494937" lon="10.814982780757664"><ele>266.0</ele><time>2026-03-27T13:10:37.999Z</time></trkpt><trkpt lat="43.28586510908246" lon="10.815035455579617"><ele>266.0</ele><time>2026-03-27T13:10:38.999Z</time></trkpt><trkpt lat="43.2857986923561" lon="10.81509092540905"><ele>266.0</ele><time>2026-03-27T13:10:39.999Z</time></trkpt><trkpt lat="43.28573640897285" lon="10.815144608082695"><ele>266.0</ele><time>2026-03-27T13:10:40.999Z</time></trkpt><trkpt lat="43.28567585707627" lon="10.81519375791434"><ele>266.0</ele><time>2026-03-27T13:10:42.999Z</time></trkpt><trkpt lat="43.285702964369335" lon="10.815299549093567"><ele>266.0</ele><time>2026-03-27T13:10:45.999Z</time></trkpt><trkpt lat="43.28574880650747" lon="10.815471707112671"><ele>265.6666666666667</ele><time>2026-03-27T13:10:47.999Z</time></trkpt><trkpt lat="43.285781248560305" lon="10.815568876345885"><ele>265.33333333333337</ele><time>2026-03-27T13:10:48.999Z</time></trkpt><trkpt lat="43.285805880691406" lon="10.815650161057162"><ele>265.0</ele><time>2026-03-27T13:10:49.999Z</time></trkpt><trkpt lat="43.285792468671225" lon="10.815776217430805"><ele>264.6666666666667</ele><time>2026-03-27T13:10:51.999Z</time></trkpt><trkpt lat="43.2857399240145" lon="10.81582460331179"><ele>264.3333333333333</ele><time>2026-03-27T13:10:53.999Z</time></trkpt><trkpt lat="43.28566806993845" lon="10.815910749670842"><ele>264.0</ele><time>2026-03-27T13:10:54.999Z</time></trkpt><trkpt lat="43.285553377687876" lon="10.815997358237869"><ele>264.0</ele><time>2026-03-27T13:10:56.999Z</time></trkpt><trkpt lat="43.28554517581746" lon="10.816102102397902"><ele>264.0</ele><time>2026-03-27T13:12:05Z</time></trkpt><trkpt lat="43.285589690807726" lon="10.816192498731256"><ele>264.0</ele><time>2026-03-27T13:12:23.999Z</time></trkpt><trkpt lat="43.285668162810964" lon="10.816261217589307"><ele>264.0</ele><time>2026-03-27T13:12:26.999Z</time></trkpt><trkpt lat="43.28570994611552" lon="10.816334660323562"><ele>264.0</ele><time>2026-03-27T13:12:28.999Z</time></trkpt><trkpt lat="43.28574692345112" lon="10.816426525465987"><ele>264.0</ele><time>2026-03-27T13:12:30.999Z</time></trkpt><trkpt lat="43.285725588892724" lon="10.816559081381627"><ele>261.8333333333333</ele><time>2026-03-27T13:12:32.999Z</time></trkpt><trkpt lat="43.28576295705798" lon="10.816647616163374"><ele>259.6666666666667</ele><time>2026-03-27T13:12:34.999Z</time></trkpt><trkpt lat="43.28580761478646" lon="10.816725051894485"><ele>257.5</ele><time>2026-03-27T13:12:37.999Z</time></trkpt><trkpt lat="43.28585326509768" lon="10.816850203023396"><ele>255.33333333333334</ele><time>2026-03-27T13:12:39.999Z</time></trkpt><trkpt lat="43.28588687127591" lon="10.81696553137069"><ele>253.16666666666669</ele><time>2026-03-27T13:12:41.999Z</time></trkpt><trkpt lat="43.28589870128177" lon="10.8170562007578"><ele>251.0</ele><time>2026-03-27T13:12:43.999Z</time></trkpt><trkpt lat="43.285911301406244" lon="10.81715799222239"><ele>249.99999999999997</ele><time>2026-03-27T13:12:46.999Z</time></trkpt><trkpt lat="43.28592478789987" lon="10.817272072039342"><ele>249.0</ele><time>2026-03-27T13:12:50.999Z</time></trkpt><trkpt lat="43.285955223482226" lon="10.817370005520441"><ele>247.99999999999997</ele><time>2026-03-27T13:12:52.999Z</time></trkpt><trkpt lat="43.28591349596493" lon="10.817460544429448"><ele>246.99999999999997</ele><time>2026-03-27T13:12:55.999Z</time></trkpt><trkpt lat="43.285846058932286" lon="10.817495585329256"><ele>246.0</ele><time>2026-03-27T13:12:59.999Z</time></trkpt><trkpt lat="43.28577839699619" lon="10.817520475193273"><ele>244.99999999999997</ele><time>2026-03-27T13:13:03.999Z</time></trkpt><trkpt lat="43.285714586882115" lon="10.817516025040138"><ele>243.99999999999997</ele><time>2026-03-27T13:13:08.999Z</time></trkpt><trkpt lat="43.28564771781533" lon="10.817575309000734"><ele>243.4285714285714</ele><time>2026-03-27T13:13:12.999Z</time></trkpt><trkpt lat="43.285654835497866" lon="10.817671111791705"><ele>242.85714285714283</ele><time>2026-03-27T13:13:16.999Z</time></trkpt><trkpt lat="43.28559597468925" lon="10.81770222255234"><ele>242.28571428571428</ele><time>2026-03-27T13:13:19.999Z</time></trkpt><trkpt lat="43.28556017400021" lon="10.81781436282068"><ele>241.7142857142857</ele><time>2026-03-27T13:13:22.999Z</time></trkpt><trkpt lat="43.28554596600339" lon="10.817908006378872"><ele>241.1428571428571</ele><time>2026-03-27T13:13:27Z</time></trkpt><trkpt lat="43.285495351998854" lon="10.81800203216382"><ele>240.57142857142858</ele><time>2026-03-27T13:13:30Z</time></trkpt><trkpt lat="43.28544376030923" lon="10.818055437894888"><ele>240.0</ele><time>2026-03-27T13:13:34Z</time></trkpt><trkpt lat="43.28544769467147" lon="10.818152019519918"><ele>240.0</ele><time>2026-03-27T13:13:38Z</time></trkpt><trkpt lat="43.28545344348217" lon="10.818240703354407"><ele>240.0</ele><time>2026-03-27T13:13:41Z</time></trkpt><trkpt lat="43.285457363102815" lon="10.818327171768113"><ele>240.0</ele><time>2026-03-27T13:13:44Z</time></trkpt><trkpt lat="43.28541773629992" lon="10.818409893469612"><ele>240.0</ele><time>2026-03-27T13:13:48Z</time></trkpt><trkpt lat="43.285332823020674" lon="10.818446838222528"><ele>240.0</ele><time>2026-03-27T13:13:50Z</time></trkpt><trkpt lat="43.28526385358031" lon="10.8185074478102"><ele>240.0</ele><time>2026-03-27T13:13:54Z</time></trkpt><trkpt lat="43.285202823336945" lon="10.81856519265109"><ele>240.0</ele><time>2026-03-27T13:13:57Z</time></trkpt><trkpt lat="43.28512877571688" lon="10.818599238604223"><ele>239.5</ele><time>2026-03-27T13:14:00Z</time></trkpt><trkpt lat="43.28505623216651" lon="10.818655935049671"><ele>239.0</ele><time>2026-03-27T13:14:02Z</time></trkpt><trkpt lat="43.28497830570752" lon="10.818720858418184"><ele>238.5</ele><time>2026-03-27T13:14:17Z</time></trkpt><trkpt lat="43.2849093142318" lon="10.818776706011205"><ele>238.0</ele><time>2026-03-27T13:14:19Z</time></trkpt><trkpt lat="43.28482224166131" lon="10.818722180992422"><ele>237.5</ele><time>2026-03-27T13:14:21Z</time></trkpt><trkpt lat="43.28474217255751" lon="10.818723929774338"><ele>237.0</ele><time>2026-03-27T13:14:23Z</time></trkpt><trkpt lat="43.28468699765363" lon="10.81884757118552"><ele>236.66666666666666</ele><time>2026-03-27T13:14:26.999Z</time></trkpt><trkpt lat="43.28462846098431" lon="10.81890512259301"><ele>236.33333333333331</ele><time>2026-03-27T13:15:03.999Z</time></trkpt><trkpt lat="43.28454578860644" lon="10.818944636244751"><ele>236.0</ele><time>2026-03-27T13:15:07.999Z</time></trkpt><trkpt lat="43.28449373242991" lon="10.819000565500687"><ele>235.66666666666666</ele><time>2026-03-27T13:15:09.999Z</time></trkpt><trkpt lat="43.284454766193484" lon="10.81907142717934"><ele>235.33333333333331</ele><time>2026-03-27T13:15:11.999Z</time></trkpt><trkpt lat="43.284498472348105" lon="10.819198260635357"><ele>235.0</ele><time>2026-03-27T13:15:16.999Z</time></trkpt><trkpt lat="43.284557752407075" lon="10.819348147913134"><ele>233.99999999999997</ele><time>2026-03-27T13:15:18.999Z</time></trkpt><trkpt lat="43.28459792911754" lon="10.819454832580345"><ele>233.0</ele><time>2026-03-27T13:15:20.999Z</time></trkpt><trkpt lat="43.28463167816631" lon="10.819545179899404"><ele>232.0</ele><time>2026-03-27T13:15:22.999Z</time></trkpt><trkpt lat="43.28466564861783" lon="10.819633822024905"><ele>231.0</ele><time>2026-03-27T13:15:25.999Z</time></trkpt><trkpt lat="43.284698514988534" lon="10.819742333650144"><ele>229.99999999999997</ele><time>2026-03-27T13:15:27.999Z</time></trkpt><trkpt lat="43.284755618266395" lon="10.819887205215016"><ele>229.0</ele><time>2026-03-27T13:15:29.999Z</time></trkpt><trkpt lat="43.28483544673006" lon="10.820029865481498"><ele>226.25</ele><time>2026-03-27T13:15:32Z</time></trkpt><trkpt lat="43.28483016900558" lon="10.820193540164322"><ele>223.5</ele><time>2026-03-27T13:15:35Z</time></trkpt><trkpt lat="43.28487400931717" lon="10.820255613078709"><ele>220.75</ele><time>2026-03-27T13:15:37Z</time></trkpt><trkpt lat="43.28492133793151" lon="10.82037931178754"><ele>218.0</ele><time>2026-03-27T13:15:40Z</time></trkpt><trkpt lat="43.28505800178156" lon="10.820525005048165"><ele>218.0</ele><time>2026-03-27T13:15:42Z</time></trkpt><trkpt lat="43.28509065507201" lon="10.820599179715316"><ele>218.0</ele><time>2026-03-27T13:15:45Z</time></trkpt><trkpt lat="43.28514741589263" lon="10.820640126733755"><ele>218.0</ele><time>2026-03-27T13:16:07Z</time></trkpt><trkpt lat="43.285160113964224" lon="10.82073962491654"><ele>218.0</ele><time>2026-03-27T13:16:12Z</time></trkpt><trkpt lat="43.28517270683001" lon="10.820830355330447"><ele>218.0</ele><time>2026-03-27T13:16:16Z</time></trkpt><trkpt lat="43.28519013520127" lon="10.820915250081034"><ele>218.0</ele><time>2026-03-27T13:16:19Z</time></trkpt><trkpt lat="43.2851780205632" lon="10.821020676537534"><ele>218.0</ele><time>2026-03-27T13:16:23Z</time></trkpt><trkpt lat="43.28517797808076" lon="10.821113306895608"><ele>215.66666666666669</ele><time>2026-03-27T13:16:26Z</time></trkpt><trkpt lat="43.285179328666416" lon="10.821200537106307"><ele>213.33333333333334</ele><time>2026-03-27T13:16:27.999Z</time></trkpt><trkpt lat="43.28523200428129" lon="10.821302236651995"><ele>211.0</ele><time>2026-03-27T13:16:29.999Z</time></trkpt><trkpt lat="43.28530075049287" lon="10.821384396020658"><ele>208.66666666666669</ele><time>2026-03-27T13:16:31.999Z</time></trkpt><trkpt lat="43.28536386583188" lon="10.821455093054388"><ele>206.33333333333334</ele><time>2026-03-27T13:17:03.999Z</time></trkpt><trkpt lat="43.28542724890212" lon="10.821473062047835"><ele>204.0</ele><time>2026-03-27T13:17:04.999Z</time></trkpt><trkpt lat="43.285540629522664" lon="10.821570547353023"><ele>205.0</ele><time>2026-03-27T13:17:06.999Z</time></trkpt><trkpt lat="43.28562089228929" lon="10.821602997282984"><ele>206.0</ele><time>2026-03-27T13:17:07.999Z</time></trkpt><trkpt lat="43.285684352976965" lon="10.821614542214975"><ele>207.0</ele><time>2026-03-27T13:17:08.999Z</time></trkpt><trkpt lat="43.28575847612727" lon="10.821567227497571"><ele>208.0</ele><time>2026-03-27T13:17:10.999Z</time></trkpt><trkpt lat="43.28574431219154" lon="10.82144904906486"><ele>209.0</ele><time>2026-03-27T13:17:12.999Z</time></trkpt><trkpt lat="43.28580410003305" lon="10.82139954007839"><ele>210.0</ele><time>2026-03-27T13:17:15.999Z</time></trkpt><trkpt lat="43.28587043088736" lon="10.821434063091735"><ele>210.0</ele><time>2026-03-27T13:17:18.999Z</time></trkpt><trkpt lat="43.2859389040756" lon="10.821433359962302"><ele>210.0</ele><time>2026-03-27T13:17:20.999Z</time></trkpt><trkpt lat="43.28599254833708" lon="10.821365028410867"><ele>210.0</ele><time>2026-03-27T13:17:22.999Z</time></trkpt><trkpt lat="43.28604165656898" lon="10.821309183051484"><ele>210.0</ele><time>2026-03-27T13:17:24.999Z</time></trkpt><trkpt lat="43.28611571745972" lon="10.821291996271418"><ele>210.0</ele><time>2026-03-27T13:17:28.999Z</time></trkpt><trkpt lat="43.28619677531742" lon="10.821328233487503"><ele>210.0</ele><time>2026-03-27T13:17:30.999Z</time></trkpt><trkpt lat="43.28626923046373" lon="10.821373951979089"><ele>210.0</ele><time>2026-03-27T13:17:32.999Z</time></trkpt><trkpt lat="43.28631632246" lon="10.821453917668556"><ele>210.0</ele><time>2026-03-27T13:17:35.999Z</time></trkpt><trkpt lat="43.28639688276985" lon="10.821492889912907"><ele>210.0</ele><time>2026-03-27T13:17:39Z</time></trkpt><trkpt lat="43.28647150342816" lon="10.821467441742548"><ele>210.0</ele><time>2026-03-27T13:17:43Z</time></trkpt><trkpt lat="43.28654638981046" lon="10.821464425402409"><ele>210.0</ele><time>2026-03-27T13:17:47Z</time></trkpt><trkpt lat="43.28661513921742" lon="10.82151656073372"><ele>210.0</ele><time>2026-03-27T13:17:50Z</time></trkpt><trkpt lat="43.28669195220397" lon="10.821599096731644"><ele>210.0</ele><time>2026-03-27T13:17:53Z</time></trkpt><trkpt lat="43.28675035768174" lon="10.821656645940193"><ele>207.0</ele><time>2026-03-27T13:17:55Z</time></trkpt><trkpt lat="43.28680780062737" lon="10.821706046004138"><ele>204.0</ele><time>2026-03-27T13:17:57Z</time></trkpt><trkpt lat="43.28688538168985" lon="10.821749687595617"><ele>201.0</ele><time>2026-03-27T13:18:00Z</time></trkpt><trkpt lat="43.28695228857083" lon="10.821790521887324"><ele>198.0</ele><time>2026-03-27T13:18:02Z</time></trkpt><trkpt lat="43.28703754517965" lon="10.821773868543996"><ele>195.0</ele><time>2026-03-27T13:18:04Z</time></trkpt><trkpt lat="43.287118973298504" lon="10.821703361267334"><ele>192.0</ele><time>2026-03-27T13:18:06Z</time></trkpt><trkpt lat="43.287192024271484" lon="10.821691644959078"><ele>188.33333333333334</ele><time>2026-03-27T13:18:08Z</time></trkpt><trkpt lat="43.28726931165158" lon="10.821746092885478"><ele>184.66666666666666</ele><time>2026-03-27T13:18:10Z</time></trkpt><trkpt lat="43.287339941137574" lon="10.821780442150345"><ele>181.0</ele><time>2026-03-27T13:18:12Z</time></trkpt><trkpt lat="43.28734599704235" lon="10.821886472396663"><ele>177.33333333333331</ele><time>2026-03-27T13:18:17Z</time></trkpt><trkpt lat="43.28734580876326" lon="10.821981675785928"><ele>173.66666666666666</ele><time>2026-03-27T13:18:23Z</time></trkpt><trkpt lat="43.28732548123997" lon="10.822114134137296"><ele>170.0</ele><time>2026-03-27T13:18:27Z</time></trkpt><trkpt lat="43.28730922446851" lon="10.822199280449293"><ele>167.8</ele><time>2026-03-27T13:18:28Z</time></trkpt><trkpt lat="43.287252774576785" lon="10.822328972853839"><ele>165.6</ele><time>2026-03-27T13:18:30Z</time></trkpt><trkpt lat="43.287243205194365" lon="10.822475719836124"><ele>163.4</ele><time>2026-03-27T13:18:32Z</time></trkpt><trkpt lat="43.28725052613781" lon="10.822581181741302"><ele>161.2</ele><time>2026-03-27T13:18:34Z</time></trkpt><trkpt lat="43.28731366950008" lon="10.822724685869442"><ele>159.0</ele><time>2026-03-27T13:18:35.999Z</time></trkpt><trkpt lat="43.287362221874965" lon="10.8227840651333"><ele>159.0</ele><time>2026-03-27T13:18:36.999Z</time></trkpt><trkpt lat="43.28740658586708" lon="10.822917505217653"><ele>159.0</ele><time>2026-03-27T13:18:38.999Z</time></trkpt><trkpt lat="43.2874447960879" lon="10.823069052789922"><ele>159.0</ele><time>2026-03-27T13:18:40.999Z</time></trkpt><trkpt lat="43.28745227064194" lon="10.823163489277878"><ele>159.0</ele><time>2026-03-27T13:18:41.999Z</time></trkpt><trkpt lat="43.28743005407948" lon="10.823250738596503"><ele>159.0</ele><time>2026-03-27T13:18:42.999Z</time></trkpt><trkpt lat="43.287400257882055" lon="10.823330638638017"><ele>159.0</ele><time>2026-03-27T13:18:43.999Z</time></trkpt><trkpt lat="43.28737836248605" lon="10.823417155022524"><ele>158.0</ele><time>2026-03-27T13:18:44.999Z</time></trkpt><trkpt lat="43.28738120624545" lon="10.823586565508299"><ele>157.0</ele><time>2026-03-27T13:18:46.999Z</time></trkpt><trkpt lat="43.28737877106184" lon="10.823674525954619"><ele>156.0</ele><time>2026-03-27T13:18:47.999Z</time></trkpt><trkpt lat="43.28733400354195" lon="10.82374984224671"><ele>155.0</ele><time>2026-03-27T13:18:48.999Z</time></trkpt><trkpt lat="43.28727687744172" lon="10.82381238184717"><ele>154.0</ele><time>2026-03-27T13:18:49.999Z</time></trkpt><trkpt lat="43.287227021627864" lon="10.82388299507699"><ele>153.0</ele><time>2026-03-27T13:18:50.999Z</time></trkpt><trkpt lat="43.28718319027997" lon="10.82398430938802"><ele>153.0</ele><time>2026-03-27T13:18:51.999Z</time></trkpt><trkpt lat="43.28714205103161" lon="10.824067968734635"><ele>153.0</ele><time>2026-03-27T13:18:52.999Z</time></trkpt><trkpt lat="43.28711564417391" lon="10.824186213502212"><ele>153.0</ele><time>2026-03-27T13:18:53.999Z</time></trkpt><trkpt lat="43.287084070160965" lon="10.824270831409965"><ele>153.0</ele><time>2026-03-27T13:18:54.999Z</time></trkpt><trkpt lat="43.287043966712965" lon="10.82435940778387"><ele>153.0</ele><time>2026-03-27T13:18:55.999Z</time></trkpt><trkpt lat="43.287020731249555" lon="10.824504324672601"><ele>153.0</ele><time>2026-03-27T13:18:57.999Z</time></trkpt><trkpt lat="43.287068752841954" lon="10.824603497541046"><ele>151.6</ele><time>2026-03-27T13:18:59.999Z</time></trkpt><trkpt lat="43.28712937543395" lon="10.824648555402382"><ele>150.20000000000002</ele><time>2026-03-27T13:19:01.999Z</time></trkpt><trkpt lat="43.28720316210218" lon="10.824712566476975"><ele>148.8</ele><time>2026-03-27T13:19:03.999Z</time></trkpt><trkpt lat="43.287298191020156" lon="10.82477290837261"><ele>147.4</ele><time>2026-03-27T13:19:05.999Z</time></trkpt><trkpt lat="43.287376931981505" lon="10.8248189210723"><ele>146.0</ele><time>2026-03-27T13:19:07.999Z</time></trkpt><trkpt lat="43.287432041650504" lon="10.824984125349616"><ele>144.16666666666666</ele><time>2026-03-27T13:19:09.999Z</time></trkpt><trkpt lat="43.2874810050587" lon="10.825065092053528"><ele>142.33333333333331</ele><time>2026-03-27T13:19:10.999Z</time></trkpt><trkpt lat="43.28751525803914" lon="10.825153139283817"><ele>140.5</ele><time>2026-03-27T13:19:12.999Z</time></trkpt><trkpt lat="43.287589024595036" lon="10.825183075633745"><ele>138.66666666666666</ele><time>2026-03-27T13:20:11Z</time></trkpt><trkpt lat="43.287632063223604" lon="10.825272951803036"><ele>136.83333333333334</ele><time>2026-03-27T13:20:13Z</time></trkpt><trkpt lat="43.28767352566007" lon="10.825364208313196"><ele>135.0</ele><time>2026-03-27T13:20:14Z</time></trkpt><trkpt lat="43.287738289999446" lon="10.82545153755776"><ele>134.0</ele><time>2026-03-27T13:20:15Z</time></trkpt><trkpt lat="43.287805160694646" lon="10.825524773605474"><ele>133.0</ele><time>2026-03-27T13:20:16Z</time></trkpt><trkpt lat="43.287874569203574" lon="10.825604715253471"><ele>132.0</ele><time>2026-03-27T13:20:17Z</time></trkpt><trkpt lat="43.28793926772585" lon="10.825677828873012"><ele>131.0</ele><time>2026-03-27T13:20:18Z</time></trkpt><trkpt lat="43.28800051450902" lon="10.825737586438136"><ele>130.0</ele><time>2026-03-27T13:20:19Z</time></trkpt><trkpt lat="43.288061598738324" lon="10.825780328835084"><ele>129.0</ele><time>2026-03-27T13:20:20Z</time></trkpt><trkpt lat="43.288126535340666" lon="10.825818878913678"><ele>127.6</ele><time>2026-03-27T13:20:21Z</time></trkpt><trkpt lat="43.288207357210325" lon="10.82586662116101"><ele>126.2</ele><time>2026-03-27T13:20:22Z</time></trkpt><trkpt lat="43.28829711666736" lon="10.825909294022933"><ele>124.79999999999998</ele><time>2026-03-27T13:20:23Z</time></trkpt><trkpt lat="43.28838595324851" lon="10.82594788679346"><ele>123.39999999999999</ele><time>2026-03-27T13:20:24Z</time></trkpt><trkpt lat="43.28846855532697" lon="10.825991839514748"><ele>122.0</ele><time>2026-03-27T13:20:25Z</time></trkpt><trkpt lat="43.28855364282521" lon="10.82604700699503"><ele>121.83333333333333</ele><time>2026-03-27T13:20:26Z</time></trkpt><trkpt lat="43.28862347049217" lon="10.826123267404693"><ele>121.66666666666666</ele><time>2026-03-27T13:20:28Z</time></trkpt><trkpt lat="43.288631491680924" lon="10.826212452585953"><ele>121.5</ele><time>2026-03-27T13:20:50.999Z</time></trkpt><trkpt lat="43.28856083127615" lon="10.826187889875404"><ele>121.33333333333334</ele><time>2026-03-27T13:22:28Z</time></trkpt><trkpt lat="43.288497545256035" lon="10.826200102031118"><ele>121.16666666666667</ele><time>2026-03-27T13:22:32Z</time></trkpt><trkpt lat="43.2885030065323" lon="10.82633871236885"><ele>121.0</ele><time>2026-03-27T13:22:34Z</time></trkpt><trkpt lat="43.28854113286022" lon="10.82646797878533"><ele>121.00000000000001</ele><time>2026-03-27T13:22:35Z</time></trkpt><trkpt lat="43.288575366239385" lon="10.82657508913478"><ele>121.0</ele><time>2026-03-27T13:22:36Z</time></trkpt><trkpt lat="43.288611338649766" lon="10.826653159737297"><ele>121.0</ele><time>2026-03-27T13:22:37Z</time></trkpt><trkpt lat="43.288693845056684" lon="10.826664141563484"><ele>121.0</ele><time>2026-03-27T13:22:38Z</time></trkpt><trkpt lat="43.28874483641795" lon="10.82675050337837"><ele>121.00000000000001</ele><time>2026-03-27T13:22:40Z</time></trkpt><trkpt lat="43.288816507174545" lon="10.826814600867834"><ele>121.0</ele><time>2026-03-27T13:22:40.999Z</time></trkpt><trkpt lat="43.288939908720614" lon="10.826864227197847"><ele>122.00000000000001</ele><time>2026-03-27T13:22:42.999Z</time></trkpt><trkpt lat="43.28900386221758" lon="10.826906829758277"><ele>123.0</ele><time>2026-03-27T13:22:43.999Z</time></trkpt><trkpt lat="43.28908424830753" lon="10.82695795887419"><ele>124.0</ele><time>2026-03-27T13:22:46.999Z</time></trkpt><trkpt lat="43.289197949711834" lon="10.827045371181216"><ele>125.0</ele><time>2026-03-27T13:24:43.999Z</time></trkpt><trkpt lat="43.28926323394747" lon="10.82707945445036"><ele>126.00000000000001</ele><time>2026-03-27T13:24:44.999Z</time></trkpt><trkpt lat="43.2893458889724" lon="10.827049108109776"><ele>127.0</ele><time>2026-03-27T13:24:45.999Z</time></trkpt><trkpt lat="43.28944197027274" lon="10.826985461599763"><ele>127.0</ele><time>2026-03-27T13:24:46.999Z</time></trkpt><trkpt lat="43.28951420860158" lon="10.82691022655591"><ele>126.99999999999999</ele><time>2026-03-27T13:24:47.999Z</time></trkpt><trkpt lat="43.28958456551829" lon="10.826829850544122"><ele>126.99999999999999</ele><time>2026-03-27T13:24:48.999Z</time></trkpt><trkpt lat="43.28965089259327" lon="10.826734263255206"><ele>127.0</ele><time>2026-03-27T13:24:49.999Z</time></trkpt><trkpt lat="43.28971759112892" lon="10.826629087797514"><ele>127.0</ele><time>2026-03-27T13:24:50.999Z</time></trkpt><trkpt lat="43.2897819525877" lon="10.826541233202496"><ele>127.39999999999999</ele><time>2026-03-27T13:24:51.999Z</time></trkpt><trkpt lat="43.289858816109465" lon="10.82648182995639"><ele>127.79999999999998</ele><time>2026-03-27T13:24:52.999Z</time></trkpt><trkpt lat="43.289949402797504" lon="10.826432023291806"><ele>128.2</ele><time>2026-03-27T13:24:53.999Z</time></trkpt><trkpt lat="43.29002446725128" lon="10.826378429487313"><ele>128.6</ele><time>2026-03-27T13:24:54.999Z</time></trkpt><trkpt lat="43.290053067607914" lon="10.82627315715382"><ele>129.0</ele><time>2026-03-27T13:24:55.999Z</time></trkpt><trkpt lat="43.29006422965002" lon="10.826130313780977"><ele>129.0</ele><time>2026-03-27T13:24:57.999Z</time></trkpt><trkpt lat="43.29005006688987" lon="10.826045483646485"><ele>129.0</ele><time>2026-03-27T13:24:58.999Z</time></trkpt><trkpt lat="43.29004556283617" lon="10.82589114552501"><ele>129.0</ele><time>2026-03-27T13:24:59.999Z</time></trkpt><trkpt lat="43.29003143284771" lon="10.825719535558171"><ele>129.0</ele><time>2026-03-27T13:25:00.999Z</time></trkpt><trkpt lat="43.290014919356295" lon="10.825542487157913"><ele>129.0</ele><time>2026-03-27T13:25:01.999Z</time></trkpt><trkpt lat="43.289988898254094" lon="10.825397037715314"><ele>129.33333333333334</ele><time>2026-03-27T13:25:02.999Z</time></trkpt><trkpt lat="43.289940055496864" lon="10.825288567396646"><ele>129.66666666666666</ele><time>2026-03-27T13:25:03.999Z</time></trkpt><trkpt lat="43.289934576699096" lon="10.82519628373939"><ele>130.0</ele><time>2026-03-27T13:25:04.999Z</time></trkpt><trkpt lat="43.289971155141735" lon="10.82510632847137"><ele>130.33333333333331</ele><time>2026-03-27T13:25:05.999Z</time></trkpt><trkpt lat="43.29002514209209" lon="10.825050592046246"><ele>130.66666666666666</ele><time>2026-03-27T13:25:06.999Z</time></trkpt><trkpt lat="43.290090776738246" lon="10.825021775856593"><ele>131.0</ele><time>2026-03-27T13:25:07.999Z</time></trkpt><trkpt lat="43.29019313897517" lon="10.825034270994871"><ele>131.0</ele><time>2026-03-27T13:25:08.999Z</time></trkpt><trkpt lat="43.29031967273289" lon="10.825040119616679"><ele>131.0</ele><time>2026-03-27T13:25:09.999Z</time></trkpt><trkpt lat="43.29039782417084" lon="10.825072963703143"><ele>131.0</ele><time>2026-03-27T13:25:10.999Z</time></trkpt><trkpt lat="43.29038504515127" lon="10.825254146089593"><ele>131.0</ele><time>2026-03-27T13:25:12.999Z</time></trkpt><trkpt lat="43.29036722219628" lon="10.82536548322178"><ele>131.0</ele><time>2026-03-27T13:25:13.999Z</time></trkpt><trkpt lat="43.29038348247012" lon="10.825486240739908"><ele>131.4</ele><time>2026-03-27T13:25:14.999Z</time></trkpt><trkpt lat="43.29041574486127" lon="10.825636515603147"><ele>131.8</ele><time>2026-03-27T13:25:15.999Z</time></trkpt><trkpt lat="43.29046690456767" lon="10.825738847692882"><ele>132.20000000000002</ele><time>2026-03-27T13:25:16.999Z</time></trkpt><trkpt lat="43.29053153079955" lon="10.82583217130226"><ele>132.6</ele><time>2026-03-27T13:25:17.999Z</time></trkpt><trkpt lat="43.29061046252381" lon="10.82590082182193"><ele>133.0</ele><time>2026-03-27T13:25:18.999Z</time></trkpt><trkpt lat="43.29067763323826" lon="10.825939128663165"><ele>135.16666666666669</ele><time>2026-03-27T13:25:19.999Z</time></trkpt><trkpt lat="43.29074880967355" lon="10.8259364077925"><ele>137.33333333333334</ele><time>2026-03-27T13:25:20.999Z</time></trkpt><trkpt lat="43.290825897817435" lon="10.825904687339477"><ele>139.5</ele><time>2026-03-27T13:25:21.999Z</time></trkpt><trkpt lat="43.29092873893813" lon="10.825865582678546"><ele>141.66666666666666</ele><time>2026-03-27T13:25:22.999Z</time></trkpt><trkpt lat="43.29101556622599" lon="10.825867945293265"><ele>143.83333333333331</ele><time>2026-03-27T13:25:23.999Z</time></trkpt><trkpt lat="43.29107729186654" lon="10.825894981812732"><ele>146.0</ele><time>2026-03-27T13:25:24.999Z</time></trkpt><trkpt lat="43.29109495064482" lon="10.826011546415621"><ele>146.0</ele><time>2026-03-27T13:25:25.999Z</time></trkpt><trkpt lat="43.2911245725943" lon="10.826136089446948"><ele>146.0</ele><time>2026-03-27T13:25:26.999Z</time></trkpt><trkpt lat="43.2911872102013" lon="10.826238805343321"><ele>146.0</ele><time>2026-03-27T13:25:27.999Z</time></trkpt><trkpt lat="43.29126369962312" lon="10.826333871990728"><ele>146.0</ele><time>2026-03-27T13:25:28.999Z</time></trkpt><trkpt lat="43.291356713780026" lon="10.826363758046494"><ele>146.0</ele><time>2026-03-27T13:25:29.999Z</time></trkpt><trkpt lat="43.2914188316767" lon="10.826433329919201"><ele>149.0</ele><time>2026-03-27T13:25:30.999Z</time></trkpt><trkpt lat="43.29146202751516" lon="10.826499810917456"><ele>152.0</ele><time>2026-03-27T13:25:31.999Z</time></trkpt><trkpt lat="43.29144599683818" lon="10.826637432451891"><ele>155.0</ele><time>2026-03-27T13:25:32.999Z</time></trkpt><trkpt lat="43.29147984350381" lon="10.826720852698047"><ele>158.0</ele><time>2026-03-27T13:25:33.999Z</time></trkpt><trkpt lat="43.291549195411804" lon="10.826795270318845"><ele>161.0</ele><time>2026-03-27T13:25:34.999Z</time></trkpt><trkpt lat="43.29160932630514" lon="10.826902008881243"><ele>164.0</ele><time>2026-03-27T13:25:35.999Z</time></trkpt><trkpt lat="43.29165096593578" lon="10.827056795515531"><ele>164.0</ele><time>2026-03-27T13:25:36.999Z</time></trkpt><trkpt lat="43.29172296916296" lon="10.827186826734644"><ele>164.0</ele><time>2026-03-27T13:25:37.999Z</time></trkpt><trkpt lat="43.29176833190124" lon="10.827313813705512"><ele>164.0</ele><time>2026-03-27T13:25:38.999Z</time></trkpt><trkpt lat="43.29184663734511" lon="10.827464174002891"><ele>164.0</ele><time>2026-03-27T13:25:39.999Z</time></trkpt><trkpt lat="43.29190147679463" lon="10.827579213762466"><ele>164.0</ele><time>2026-03-27T13:25:40.999Z</time></trkpt><trkpt lat="43.29197502971361" lon="10.827685218034215"><ele>164.0</ele><time>2026-03-27T13:25:41.999Z</time></trkpt><trkpt lat="43.292032695936406" lon="10.827748803012447"><ele>164.0</ele><time>2026-03-27T13:25:42.999Z</time></trkpt><trkpt lat="43.29208307820477" lon="10.827682736842455"><ele>164.0</ele><time>2026-03-27T13:25:43.999Z</time></trkpt><trkpt lat="43.29214998583815" lon="10.827582779440162"><ele>164.0</ele><time>2026-03-27T13:25:44.999Z</time></trkpt><trkpt lat="43.29227340922132" lon="10.827495075387242"><ele>167.2</ele><time>2026-03-27T13:25:45.999Z</time></trkpt><trkpt lat="43.292375989659995" lon="10.82747480837346"><ele>170.39999999999998</ele><time>2026-03-27T13:25:46.999Z</time></trkpt><trkpt lat="43.292493697791706" lon="10.827462556739807"><ele>173.6</ele><time>2026-03-27T13:25:47.999Z</time></trkpt><trkpt lat="43.29259370717489" lon="10.82748702609067"><ele>176.8</ele><time>2026-03-27T13:25:48.999Z</time></trkpt><trkpt lat="43.292670160927706" lon="10.827501738556913"><ele>180.0</ele><time>2026-03-27T13:25:49.999Z</time></trkpt><trkpt lat="43.292734477355495" lon="10.827531131278363"><ele>180.0</ele><time>2026-03-27T13:25:50.999Z</time></trkpt><trkpt lat="43.29280635723451" lon="10.827637829561112"><ele>180.0</ele><time>2026-03-27T13:25:51.999Z</time></trkpt><trkpt lat="43.29290275071736" lon="10.827727019994182"><ele>180.0</ele><time>2026-03-27T13:25:52.999Z</time></trkpt><trkpt lat="43.29297966588768" lon="10.827847708725265"><ele>180.0</ele><time>2026-03-27T13:25:53.999Z</time></trkpt><trkpt lat="43.29307454141204" lon="10.827961178266458"><ele>180.83333333333334</ele><time>2026-03-27T13:25:54.999Z</time></trkpt><trkpt lat="43.2931527959709" lon="10.828026902492411"><ele>181.66666666666666</ele><time>2026-03-27T13:25:55.999Z</time></trkpt><trkpt lat="43.29322862630794" lon="10.828114452150515"><ele>182.5</ele><time>2026-03-27T13:25:56.999Z</time></trkpt><trkpt lat="43.29331215364438" lon="10.82819317868155"><ele>183.33333333333331</ele><time>2026-03-27T13:25:57.999Z</time></trkpt><trkpt lat="43.29337818713593" lon="10.828237223716483"><ele>184.16666666666666</ele><time>2026-03-27T13:25:58.999Z</time></trkpt><trkpt lat="43.29344782690642" lon="10.82829924150091"><ele>185.0</ele><time>2026-03-27T13:25:59.999Z</time></trkpt><trkpt lat="43.293506542090434" lon="10.828343619920474"><ele>185.0</ele><time>2026-03-27T13:26:00.999Z</time></trkpt><trkpt lat="43.293557052612826" lon="10.828459353665007"><ele>185.0</ele><time>2026-03-27T13:26:02.999Z</time></trkpt><trkpt lat="43.293544534161846" lon="10.828602647098007"><ele>185.0</ele><time>2026-03-27T13:26:04.999Z</time></trkpt><trkpt lat="43.29355342173592" lon="10.828688749371507"><ele>185.0</ele><time>2026-03-27T13:26:05.999Z</time></trkpt><trkpt lat="43.293613266433034" lon="10.828772992641666"><ele>185.0</ele><time>2026-03-27T13:26:06.999Z</time></trkpt><trkpt lat="43.29368792085425" lon="10.828848379489372"><ele>185.0</ele><time>2026-03-27T13:26:07.999Z</time></trkpt><trkpt lat="43.29376091114308" lon="10.828909609197572"><ele>184.2</ele><time>2026-03-27T13:26:08.999Z</time></trkpt><trkpt lat="43.293832943774945" lon="10.829010626618068"><ele>183.4</ele><time>2026-03-27T13:26:09.999Z</time></trkpt><trkpt lat="43.293908612735756" lon="10.829108654437135"><ele>182.60000000000002</ele><time>2026-03-27T13:26:10.999Z</time></trkpt><trkpt lat="43.29398209552396" lon="10.829197697072336"><ele>181.8</ele><time>2026-03-27T13:26:11.999Z</time></trkpt><trkpt lat="43.29408221115528" lon="10.829233985577371"><ele>181.0</ele><time>2026-03-27T13:26:12.999Z</time></trkpt><trkpt lat="43.29418908761645" lon="10.829219922465306"><ele>184.0</ele><time>2026-03-27T13:26:13.999Z</time></trkpt><trkpt lat="43.29429600116255" lon="10.82924579533811"><ele>187.0</ele><time>2026-03-27T13:26:14.999Z</time></trkpt><trkpt lat="43.29440111046539" lon="10.829313198205137"><ele>190.0</ele><time>2026-03-27T13:26:15.999Z</time></trkpt><trkpt lat="43.294492708465626" lon="10.829423261193922"><ele>193.0</ele><time>2026-03-27T13:26:16.999Z</time></trkpt><trkpt lat="43.2945806623159" lon="10.829568268880479"><ele>194.0</ele><time>2026-03-27T13:26:17.999Z</time></trkpt><trkpt lat="43.29462084453526" lon="10.829694833637648"><ele>195.0</ele><time>2026-03-27T13:26:18.999Z</time></trkpt><trkpt lat="43.29462775017921" lon="10.829842034064786"><ele>196.0</ele><time>2026-03-27T13:26:19.999Z</time></trkpt><trkpt lat="43.29463715912585" lon="10.830012743537823"><ele>197.0</ele><time>2026-03-27T13:26:20.999Z</time></trkpt><trkpt lat="43.29466501623663" lon="10.830195676692759"><ele>197.75</ele><time>2026-03-27T13:26:21.999Z</time></trkpt><trkpt lat="43.294678626733244" lon="10.830363501962252"><ele>198.5</ele><time>2026-03-27T13:26:22.999Z</time></trkpt><trkpt lat="43.29469865260619" lon="10.830505335335952"><ele>199.25</ele><time>2026-03-27T13:26:23.999Z</time></trkpt><trkpt lat="43.29475765155037" lon="10.830614179950139"><ele>200.0</ele><time>2026-03-27T13:26:24.999Z</time></trkpt><trkpt lat="43.29488911211095" lon="10.83067394506604"><ele>201.0</ele><time>2026-03-27T13:26:25.999Z</time></trkpt><trkpt lat="43.29499389513835" lon="10.830771839076142"><ele>202.0</ele><time>2026-03-27T13:26:26.999Z</time></trkpt><trkpt lat="43.2950371831932" lon="10.83092458936014"><ele>203.0</ele><time>2026-03-27T13:26:27.999Z</time></trkpt><trkpt lat="43.295067227555045" lon="10.83108521253721"><ele>204.0</ele><time>2026-03-27T13:26:28.999Z</time></trkpt><trkpt lat="43.295123988087575" lon="10.831231711950869"><ele>204.0</ele><time>2026-03-27T13:26:29.999Z</time></trkpt><trkpt lat="43.29518773632514" lon="10.831396376996844"><ele>204.0</ele><time>2026-03-27T13:26:30.999Z</time></trkpt><trkpt lat="43.29525448767567" lon="10.831564048781345"><ele>204.0</ele><time>2026-03-27T13:26:31.999Z</time></trkpt><trkpt lat="43.29531881603501" lon="10.831736758212728"><ele>204.0</ele><time>2026-03-27T13:26:32.999Z</time></trkpt><trkpt lat="43.29538278473354" lon="10.83190986508446"><ele>204.0</ele><time>2026-03-27T13:26:33.999Z</time></trkpt><trkpt lat="43.29541260578755" lon="10.832102667212556"><ele>204.0</ele><time>2026-03-27T13:26:34.999Z</time></trkpt><trkpt lat="43.29547923392056" lon="10.832264448986885"><ele>204.0</ele><time>2026-03-27T13:26:35.999Z</time></trkpt><trkpt lat="43.29555909529258" lon="10.832420577419914"><ele>204.0</ele><time>2026-03-27T13:26:36.999Z</time></trkpt><trkpt lat="43.29565894938932" lon="10.832570480598427"><ele>208.0</ele><time>2026-03-27T13:26:37.999Z</time></trkpt><trkpt lat="43.295769916369785" lon="10.832719891146558"><ele>212.0</ele><time>2026-03-27T13:26:38.999Z</time></trkpt><trkpt lat="43.29586089004886" lon="10.832860895210938"><ele>216.0</ele><time>2026-03-27T13:26:39.999Z</time></trkpt><trkpt lat="43.29594987488117" lon="10.832979835693408"><ele>220.0</ele><time>2026-03-27T13:26:40.999Z</time></trkpt><trkpt lat="43.29603914755206" lon="10.833136051482278"><ele>220.0</ele><time>2026-03-27T13:26:41.999Z</time></trkpt><trkpt lat="43.29612764349736" lon="10.833258244442026"><ele>220.0</ele><time>2026-03-27T13:26:42.999Z</time></trkpt><trkpt lat="43.29622292911829" lon="10.83332992819418"><ele>220.0</ele><time>2026-03-27T13:26:43.999Z</time></trkpt><trkpt lat="43.296328323854766" lon="10.833341651070235"><ele>220.0</ele><time>2026-03-27T13:26:44.999Z</time></trkpt><trkpt lat="43.29645111510145" lon="10.833320331229231"><ele>221.75</ele><time>2026-03-27T13:26:45.999Z</time></trkpt><trkpt lat="43.296581807417795" lon="10.833289504152965"><ele>223.5</ele><time>2026-03-27T13:26:46.999Z</time></trkpt><trkpt lat="43.29671107844943" lon="10.833298327568098"><ele>225.25</ele><time>2026-03-27T13:26:47.999Z</time></trkpt><trkpt lat="43.29687263643098" lon="10.833346015535117"><ele>227.0</ele><time>2026-03-27T13:26:48.999Z</time></trkpt><trkpt lat="43.297003675376544" lon="10.833401585960488"><ele>226.66666666666669</ele><time>2026-03-27T13:26:49.999Z</time></trkpt><trkpt lat="43.29715976049968" lon="10.833503642102318"><ele>226.33333333333331</ele><time>2026-03-27T13:26:50.999Z</time></trkpt><trkpt lat="43.29729225441376" lon="10.833592391323347"><ele>226.0</ele><time>2026-03-27T13:26:51.999Z</time></trkpt><trkpt lat="43.297425982626976" lon="10.833708428915722"><ele>228.75</ele><time>2026-03-27T13:26:52.999Z</time></trkpt><trkpt lat="43.29750707064818" lon="10.833850291494555"><ele>231.5</ele><time>2026-03-27T13:26:53.999Z</time></trkpt><trkpt lat="43.29754474361879" lon="10.83404246039457"><ele>234.25</ele><time>2026-03-27T13:26:54.999Z</time></trkpt><trkpt lat="43.2975866069859" lon="10.834232168667132"><ele>237.0</ele><time>2026-03-27T13:26:55.999Z</time></trkpt><trkpt lat="43.29766640044156" lon="10.834451439436354"><ele>237.0</ele><time>2026-03-27T13:26:56.999Z</time></trkpt><trkpt lat="43.29776378898398" lon="10.834612152812587"><ele>237.0</ele><time>2026-03-27T13:26:57.999Z</time></trkpt><trkpt lat="43.29788578810548" lon="10.834748488880734"><ele>237.0</ele><time>2026-03-27T13:26:58.999Z</time></trkpt><trkpt lat="43.2980285231789" lon="10.83485385970174"><ele>239.0</ele><time>2026-03-27T13:26:59.999Z</time></trkpt><trkpt lat="43.298156474900345" lon="10.834972291087677"><ele>241.0</ele><time>2026-03-27T13:27:00.999Z</time></trkpt><trkpt lat="43.29824045949584" lon="10.835179524355688"><ele>243.0</ele><time>2026-03-27T13:27:01.999Z</time></trkpt><trkpt lat="43.29833162111514" lon="10.835376976079099"><ele>245.0</ele><time>2026-03-27T13:27:02.999Z</time></trkpt><trkpt lat="43.29840769413314" lon="10.835578592250718"><ele>247.0</ele><time>2026-03-27T13:27:03.999Z</time></trkpt><trkpt lat="43.298487301728954" lon="10.835732140938758"><ele>249.0</ele><time>2026-03-27T13:27:04.999Z</time></trkpt><trkpt lat="43.29855344905147" lon="10.835901189465085"><ele>251.0</ele><time>2026-03-27T13:27:05.999Z</time></trkpt><trkpt lat="43.298571183046526" lon="10.836070641918054"><ele>253.0</ele><time>2026-03-27T13:27:06.999Z</time></trkpt><trkpt lat="43.29853824090686" lon="10.836214302651523"><ele>255.0</ele><time>2026-03-27T13:27:07.999Z</time></trkpt><trkpt lat="43.29845482284641" lon="10.836303330573607"><ele>257.0</ele><time>2026-03-27T13:27:08.999Z</time></trkpt><trkpt lat="43.29836635212456" lon="10.83644155867897"><ele>259.0</ele><time>2026-03-27T13:27:09.999Z</time></trkpt><trkpt lat="43.298302813034255" lon="10.83657397363495"><ele>259.0</ele><time>2026-03-27T13:27:10.999Z</time></trkpt><trkpt lat="43.29826573608558" lon="10.836702497455798"><ele>259.0</ele><time>2026-03-27T13:27:11.999Z</time></trkpt><trkpt lat="43.29832245498126" lon="10.836808395507878"><ele>259.0</ele><time>2026-03-27T13:27:12.999Z</time></trkpt><trkpt lat="43.29841777386772" lon="10.836865739223809"><ele>259.0</ele><time>2026-03-27T13:27:13.999Z</time></trkpt><trkpt lat="43.298526689630556" lon="10.836852886023662"><ele>259.0</ele><time>2026-03-27T13:27:14.999Z</time></trkpt><trkpt lat="43.29865394057176" lon="10.83682040707965"><ele>259.25</ele><time>2026-03-27T13:27:15.999Z</time></trkpt><trkpt lat="43.298789849354904" lon="10.836843960891036"><ele>259.5</ele><time>2026-03-27T13:27:16.999Z</time></trkpt><trkpt lat="43.29891248649019" lon="10.836893143090416"><ele>259.75</ele><time>2026-03-27T13:27:17.999Z</time></trkpt><trkpt lat="43.29901674683309" lon="10.836974319519122"><ele>260.0</ele><time>2026-03-27T13:27:18.999Z</time></trkpt><trkpt lat="43.29910245855419" lon="10.837066359638472"><ele>262.4</ele><time>2026-03-27T13:27:19.999Z</time></trkpt><trkpt lat="43.29917258517179" lon="10.837189869083756"><ele>264.8</ele><time>2026-03-27T13:27:20.999Z</time></trkpt><trkpt lat="43.29916994822164" lon="10.837294582439823"><ele>267.2</ele><time>2026-03-27T13:27:21.999Z</time></trkpt><trkpt lat="43.29912195368661" lon="10.837430885474419"><ele>269.6</ele><time>2026-03-27T13:27:22.999Z</time></trkpt><trkpt lat="43.29911930135032" lon="10.837590025358551"><ele>272.0</ele><time>2026-03-27T13:27:23.999Z</time></trkpt><trkpt lat="43.29915993341609" lon="10.8377137918235"><ele>272.5</ele><time>2026-03-27T13:27:24.999Z</time></trkpt><trkpt lat="43.29925164110678" lon="10.837790020599822"><ele>273.0</ele><time>2026-03-27T13:27:25.999Z</time></trkpt><trkpt lat="43.2994003675011" lon="10.83782362834509"><ele>273.5</ele><time>2026-03-27T13:27:26.999Z</time></trkpt><trkpt lat="43.29953020714002" lon="10.83786657448179"><ele>274.0</ele><time>2026-03-27T13:27:27.999Z</time></trkpt><trkpt lat="43.299651825667326" lon="10.83793518243898"><ele>274.0</ele><time>2026-03-27T13:27:28.999Z</time></trkpt><trkpt lat="43.29974326677151" lon="10.838023415161635"><ele>274.0</ele><time>2026-03-27T13:27:29.999Z</time></trkpt><trkpt lat="43.29979893581993" lon="10.838129983262869"><ele>274.0</ele><time>2026-03-27T13:27:30.999Z</time></trkpt><trkpt lat="43.29983185493329" lon="10.838269786509716"><ele>274.0</ele><time>2026-03-27T13:27:31.999Z</time></trkpt><trkpt lat="43.2998548006958" lon="10.838440014701991"><ele>274.0</ele><time>2026-03-27T13:27:32.999Z</time></trkpt><trkpt lat="43.29987238870885" lon="10.838619708079792"><ele>273.5</ele><time>2026-03-27T13:27:33.999Z</time></trkpt><trkpt lat="43.29989993360107" lon="10.838798134846302"><ele>273.0</ele><time>2026-03-27T13:27:34.999Z</time></trkpt><trkpt lat="43.29996266816789" lon="10.83897026487928"><ele>272.5</ele><time>2026-03-27T13:27:35.999Z</time></trkpt><trkpt lat="43.300029506749134" lon="10.839145112956666"><ele>272.0</ele><time>2026-03-27T13:27:36.999Z</time></trkpt><trkpt lat="43.30010114651177" lon="10.839311767470175"><ele>272.0</ele><time>2026-03-27T13:27:37.999Z</time></trkpt><trkpt lat="43.30017830435156" lon="10.83947288328067"><ele>272.0</ele><time>2026-03-27T13:27:38.999Z</time></trkpt><trkpt lat="43.300262436082406" lon="10.83963561962939"><ele>272.0</ele><time>2026-03-27T13:27:39.999Z</time></trkpt><trkpt lat="43.300348163839864" lon="10.839785768099759"><ele>272.0</ele><time>2026-03-27T13:27:40.999Z</time></trkpt><trkpt lat="43.30044778080736" lon="10.83992626296048"><ele>272.0</ele><time>2026-03-27T13:27:41.999Z</time></trkpt><trkpt lat="43.300552993142894" lon="10.840044503098802"><ele>272.0</ele><time>2026-03-27T13:27:42.999Z</time></trkpt><trkpt lat="43.30066858386802" lon="10.840155142757242"><ele>272.0</ele><time>2026-03-27T13:27:43.999Z</time></trkpt><trkpt lat="43.300773089779995" lon="10.840246605128538"><ele>272.0</ele><time>2026-03-27T13:27:44.999Z</time></trkpt><trkpt lat="43.30084652033529" lon="10.840331136106368"><ele>271.8</ele><time>2026-03-27T13:27:45.999Z</time></trkpt><trkpt lat="43.30090764409175" lon="10.840398579028017"><ele>271.6</ele><time>2026-03-27T13:27:46.999Z</time></trkpt><trkpt lat="43.30096051287812" lon="10.84046262529195"><ele>271.40000000000003</ele><time>2026-03-27T13:27:47.999Z</time></trkpt><trkpt lat="43.301040079776016" lon="10.840566505888676"><ele>271.2</ele><time>2026-03-27T13:27:49.999Z</time></trkpt><trkpt lat="43.301069875867135" lon="10.840789899145715"><ele>271.0</ele><time>2026-03-27T13:27:51.999Z</time></trkpt><trkpt lat="43.30110045122969" lon="10.840884647818143"><ele>271.0</ele><time>2026-03-27T13:27:52.999Z</time></trkpt><trkpt lat="43.301141664595185" lon="10.840956568777965"><ele>271.0</ele><time>2026-03-27T13:27:53.999Z</time></trkpt><trkpt lat="43.3011922329832" lon="10.841026070497401"><ele>271.0</ele><time>2026-03-27T13:27:54.999Z</time></trkpt><trkpt lat="43.30123192179466" lon="10.841101893899687"><ele>271.0</ele><time>2026-03-27T13:27:55.999Z</time></trkpt><trkpt lat="43.301263550006524" lon="10.841191360154063"><ele>271.0</ele><time>2026-03-27T13:27:56.999Z</time></trkpt><trkpt lat="43.30129568296747" lon="10.841273039469606"><ele>271.0</ele><time>2026-03-27T13:27:57.999Z</time></trkpt><trkpt lat="43.301330466355466" lon="10.841358020076036"><ele>271.0</ele><time>2026-03-27T13:27:58.999Z</time></trkpt><trkpt lat="43.3013960325704" lon="10.841440394031247"><ele>270.5</ele><time>2026-03-27T13:27:59.999Z</time></trkpt><trkpt lat="43.30144165591251" lon="10.841539343378747"><ele>270.0</ele><time>2026-03-27T13:28:00.999Z</time></trkpt><trkpt lat="43.30151323728165" lon="10.841686301436424"><ele>269.5</ele><time>2026-03-27T13:28:01.999Z</time></trkpt><trkpt lat="43.30158989891009" lon="10.841871460245311"><ele>269.0</ele><time>2026-03-27T13:28:02.999Z</time></trkpt><trkpt lat="43.30168726801412" lon="10.842042836071533"><ele>268.6666666666667</ele><time>2026-03-27T13:28:03.999Z</time></trkpt><trkpt lat="43.3018130172561" lon="10.84221279616326"><ele>268.3333333333333</ele><time>2026-03-27T13:28:04.999Z</time></trkpt><trkpt lat="43.301946121215686" lon="10.842365751611046"><ele>268.0</ele><time>2026-03-27T13:28:05.999Z</time></trkpt><trkpt lat="43.302097540043206" lon="10.84252825406762"><ele>270.3333333333333</ele><time>2026-03-27T13:28:06.999Z</time></trkpt><trkpt lat="43.30225002753324" lon="10.8426956737725"><ele>272.6666666666667</ele><time>2026-03-27T13:28:07.999Z</time></trkpt><trkpt lat="43.3023860815522" lon="10.842848234540892"><ele>275.0</ele><time>2026-03-27T13:28:08.999Z</time></trkpt><trkpt lat="43.302504401902546" lon="10.84297942587001"><ele>275.0</ele><time>2026-03-27T13:28:09.999Z</time></trkpt><trkpt lat="43.302623790698036" lon="10.843137914807867"><ele>275.0</ele><time>2026-03-27T13:28:10.999Z</time></trkpt><trkpt lat="43.30273854202335" lon="10.843327796835531"><ele>275.0</ele><time>2026-03-27T13:28:11.999Z</time></trkpt><trkpt lat="43.30280838919489" lon="10.84353293763018"><ele>276.6666666666667</ele><time>2026-03-27T13:28:12.999Z</time></trkpt><trkpt lat="43.302825745600096" lon="10.843746779533097"><ele>278.3333333333333</ele><time>2026-03-27T13:28:13.999Z</time></trkpt><trkpt lat="43.302808630478644" lon="10.843945790285542"><ele>280.0</ele><time>2026-03-27T13:28:14.999Z</time></trkpt><trkpt lat="43.30277194839641" lon="10.84414384907945"><ele>279.66666666666663</ele><time>2026-03-27T13:28:15.999Z</time></trkpt><trkpt lat="43.30269134123323" lon="10.84432785501904"><ele>279.3333333333333</ele><time>2026-03-27T13:28:16.999Z</time></trkpt><trkpt lat="43.302614026398345" lon="10.844552249018419"><ele>279.0</ele><time>2026-03-27T13:28:17.999Z</time></trkpt><trkpt lat="43.30257183500727" lon="10.844810778118276"><ele>279.0</ele><time>2026-03-27T13:28:18.999Z</time></trkpt><trkpt lat="43.30254952697573" lon="10.845062012520483"><ele>279.0</ele><time>2026-03-27T13:28:19.999Z</time></trkpt><trkpt lat="43.302549578728296" lon="10.845300675552467"><ele>279.0</ele><time>2026-03-27T13:28:20.999Z</time></trkpt><trkpt lat="43.302544405254984" lon="10.845493284843013"><ele>278.5</ele><time>2026-03-27T13:28:21.999Z</time></trkpt><trkpt lat="43.30255752519315" lon="10.845672300525628"><ele>278.0</ele><time>2026-03-27T13:28:22.999Z</time></trkpt><trkpt lat="43.30260699927112" lon="10.845869980536673"><ele>277.5</ele><time>2026-03-27T13:28:23.999Z</time></trkpt><trkpt lat="43.302710798311686" lon="10.846048691700068"><ele>277.0</ele><time>2026-03-27T13:28:24.999Z</time></trkpt><trkpt lat="43.30283820246584" lon="10.846267337114524"><ele>277.0</ele><time>2026-03-27T13:28:25.999Z</time></trkpt><trkpt lat="43.30296780621049" lon="10.846484731154503"><ele>277.0</ele><time>2026-03-27T13:28:26.999Z</time></trkpt><trkpt lat="43.303102006611404" lon="10.846759086996153"><ele>277.0</ele><time>2026-03-27T13:28:27.999Z</time></trkpt><trkpt lat="43.303237456263396" lon="10.847033446627332"><ele>277.0</ele><time>2026-03-27T13:28:28.999Z</time></trkpt><trkpt lat="43.3033479838423" lon="10.847299871950003"><ele>277.0</ele><time>2026-03-27T13:28:29.999Z</time></trkpt><trkpt lat="43.303453941163404" lon="10.847554382556245"><ele>277.0</ele><time>2026-03-27T13:28:30.999Z</time></trkpt><trkpt lat="43.30353560832157" lon="10.847797789650658"><ele>276.66666666666663</ele><time>2026-03-27T13:28:31.999Z</time></trkpt><trkpt lat="43.30358629601982" lon="10.848051584606"><ele>276.3333333333333</ele><time>2026-03-27T13:28:32.999Z</time></trkpt><trkpt lat="43.303624247905816" lon="10.848310056299773"><ele>276.0</ele><time>2026-03-27T13:28:33.999Z</time></trkpt><trkpt lat="43.303652640778495" lon="10.848594239907138"><ele>275.3333333333333</ele><time>2026-03-27T13:28:34.999Z</time></trkpt><trkpt lat="43.303672898724955" lon="10.848855520673853"><ele>274.66666666666663</ele><time>2026-03-27T13:28:35.999Z</time></trkpt><trkpt lat="43.30370609709298" lon="10.849080715176605"><ele>274.0</ele><time>2026-03-27T13:28:36.999Z</time></trkpt><trkpt lat="43.303723638102994" lon="10.849316587962516"><ele>274.0</ele><time>2026-03-27T13:28:37.999Z</time></trkpt><trkpt lat="43.3037238272494" lon="10.849538548230603"><ele>274.0</ele><time>2026-03-27T13:28:38.999Z</time></trkpt><trkpt lat="43.30373899540705" lon="10.849729374612146"><ele>274.0</ele><time>2026-03-27T13:28:39.999Z</time></trkpt><trkpt lat="43.3037684978885" lon="10.8498808047791"><ele>274.0</ele><time>2026-03-27T13:28:40.999Z</time></trkpt><trkpt lat="43.30377657773252" lon="10.850017540201014"><ele>274.8</ele><time>2026-03-27T13:28:41.999Z</time></trkpt><trkpt lat="43.30378347709723" lon="10.850135684778504"><ele>275.59999999999997</ele><time>2026-03-27T13:28:42.999Z</time></trkpt><trkpt lat="43.30384614678645" lon="10.8502809355541"><ele>276.4</ele><time>2026-03-27T13:28:44.999Z</time></trkpt><trkpt lat="43.303907693514475" lon="10.850352966698551"><ele>277.2</ele><time>2026-03-27T13:28:46.999Z</time></trkpt><trkpt lat="43.30393567308297" lon="10.85043625438498"><ele>278.0</ele><time>2026-03-27T13:28:49.999Z</time></trkpt><trkpt lat="43.30400251449645" lon="10.850599846005661"><ele>279.0</ele><time>2026-03-27T13:28:52.999Z</time></trkpt><trkpt lat="43.30404981443454" lon="10.850737098324734"><ele>280.0</ele><time>2026-03-27T13:28:53.999Z</time></trkpt><trkpt lat="43.30409819255081" lon="10.850891368451647"><ele>281.0</ele><time>2026-03-27T13:28:54.999Z</time></trkpt><trkpt lat="43.30413015177161" lon="10.851077908603681"><ele>282.0</ele><time>2026-03-27T13:28:55.999Z</time></trkpt><trkpt lat="43.3041243363217" lon="10.85125820779428"><ele>282.4</ele><time>2026-03-27T13:28:56.999Z</time></trkpt><trkpt lat="43.304107865012384" lon="10.851423534384988"><ele>282.79999999999995</ele><time>2026-03-27T13:28:57.999Z</time></trkpt><trkpt lat="43.30408571106338" lon="10.851580099444575"><ele>283.2</ele><time>2026-03-27T13:28:58.999Z</time></trkpt><trkpt lat="43.304075864363185" lon="10.851697520477465"><ele>283.59999999999997</ele><time>2026-03-27T13:28:59.999Z</time></trkpt><trkpt lat="43.30406630152644" lon="10.851797320106554"><ele>284.0</ele><time>2026-03-27T13:29:00.999Z</time></trkpt><trkpt lat="43.30406509027842" lon="10.851906965673209"><ele>284.0</ele><time>2026-03-27T13:29:01.999Z</time></trkpt><trkpt lat="43.30406345262887" lon="10.852015055976997"><ele>284.0</ele><time>2026-03-27T13:29:02.999Z</time></trkpt><trkpt lat="43.30404095454606" lon="10.85212219647205"><ele>284.0</ele><time>2026-03-27T13:29:03.999Z</time></trkpt><trkpt lat="43.30403356164002" lon="10.852251856599976"><ele>284.0</ele><time>2026-03-27T13:29:04.999Z</time></trkpt><trkpt lat="43.30402456110743" lon="10.852367864649507"><ele>284.0</ele><time>2026-03-27T13:29:05.999Z</time></trkpt><trkpt lat="43.30401486246365" lon="10.852491436903398"><ele>284.0</ele><time>2026-03-27T13:29:06.999Z</time></trkpt><trkpt lat="43.30400572577795" lon="10.852615883240762"><ele>283.59999999999997</ele><time>2026-03-27T13:29:07.999Z</time></trkpt><trkpt lat="43.303996172510985" lon="10.852740530830829"><ele>283.2</ele><time>2026-03-27T13:29:08.999Z</time></trkpt><trkpt lat="43.303979145960255" lon="10.852874448566991"><ele>282.79999999999995</ele><time>2026-03-27T13:29:09.999Z</time></trkpt><trkpt lat="43.303957200431036" lon="10.85299191615619"><ele>282.4</ele><time>2026-03-27T13:29:10.999Z</time></trkpt><trkpt lat="43.303923816624064" lon="10.853111283221903"><ele>282.0</ele><time>2026-03-27T13:29:11.999Z</time></trkpt><trkpt lat="43.303885396663006" lon="10.853229927553551"><ele>281.4</ele><time>2026-03-27T13:29:12.999Z</time></trkpt><trkpt lat="43.303838464259435" lon="10.853341785714905"><ele>280.79999999999995</ele><time>2026-03-27T13:29:13.999Z</time></trkpt><trkpt lat="43.30377531233391" lon="10.853469022348161"><ele>280.2</ele><time>2026-03-27T13:29:14.999Z</time></trkpt><trkpt lat="43.30370057404254" lon="10.853577741807761"><ele>279.59999999999997</ele><time>2026-03-27T13:29:15.999Z</time></trkpt><trkpt lat="43.30361859834883" lon="10.853683560221379"><ele>279.0</ele><time>2026-03-27T13:29:16.999Z</time></trkpt><trkpt lat="43.30354231589105" lon="10.85378070276848"><ele>279.0</ele><time>2026-03-27T13:29:17.999Z</time></trkpt><trkpt lat="43.30347869625836" lon="10.853880113991393"><ele>279.0</ele><time>2026-03-27T13:29:18.999Z</time></trkpt><trkpt lat="43.30346061190174" lon="10.854026032437812"><ele>279.0</ele><time>2026-03-27T13:29:19.999Z</time></trkpt><trkpt lat="43.303491378542276" lon="10.854185363615283"><ele>279.0</ele><time>2026-03-27T13:29:20.999Z</time></trkpt><trkpt lat="43.30349020684129" lon="10.854354364208929"><ele>279.0</ele><time>2026-03-27T13:29:21.999Z</time></trkpt><trkpt lat="43.30346228265884" lon="10.854539199805076"><ele>278.3333333333333</ele><time>2026-03-27T13:29:22.999Z</time></trkpt><trkpt lat="43.30342090276385" lon="10.854721236748656"><ele>277.66666666666663</ele><time>2026-03-27T13:29:23.999Z</time></trkpt><trkpt lat="43.30328170544317" lon="10.854853770202059"><ele>277.0</ele><time>2026-03-27T13:29:24.999Z</time></trkpt><trkpt lat="43.3031775661685" lon="10.855033194666"><ele>275.3333333333333</ele><time>2026-03-27T13:29:25.999Z</time></trkpt><trkpt lat="43.30306913701311" lon="10.855220581251304"><ele>273.6666666666667</ele><time>2026-03-27T13:29:26.999Z</time></trkpt><trkpt lat="43.302964084888146" lon="10.855400517980796"><ele>272.0</ele><time>2026-03-27T13:29:27.999Z</time></trkpt><trkpt lat="43.30285748802816" lon="10.85556995504408"><ele>272.0</ele><time>2026-03-27T13:29:28.999Z</time></trkpt><trkpt lat="43.30274560888411" lon="10.855713795574768"><ele>272.0</ele><time>2026-03-27T13:29:29.999Z</time></trkpt><trkpt lat="43.30262115713026" lon="10.855825167669463"><ele>272.0</ele><time>2026-03-27T13:29:30.999Z</time></trkpt><trkpt lat="43.30248872868429" lon="10.855890606814928"><ele>272.0</ele><time>2026-03-27T13:29:31.999Z</time></trkpt><trkpt lat="43.302321220447105" lon="10.855923128435807"><ele>273.6666666666667</ele><time>2026-03-27T13:29:32.999Z</time></trkpt><trkpt lat="43.30212805502533" lon="10.855915054549792"><ele>275.3333333333333</ele><time>2026-03-27T13:29:33.999Z</time></trkpt><trkpt lat="43.301944606221404" lon="10.855900543188804"><ele>277.0</ele><time>2026-03-27T13:29:34.999Z</time></trkpt><trkpt lat="43.30177439125635" lon="10.855899360499944"><ele>277.0</ele><time>2026-03-27T13:29:35.999Z</time></trkpt><trkpt lat="43.30162130678945" lon="10.855865108621213"><ele>277.0</ele><time>2026-03-27T13:29:36.999Z</time></trkpt><trkpt lat="43.30146509695836" lon="10.855805209120135"><ele>277.0</ele><time>2026-03-27T13:29:37.999Z</time></trkpt><trkpt lat="43.301312458452124" lon="10.855749901094784"><ele>279.3333333333333</ele><time>2026-03-27T13:29:38.999Z</time></trkpt><trkpt lat="43.30116674183265" lon="10.855743347132757"><ele>281.6666666666667</ele><time>2026-03-27T13:29:39.999Z</time></trkpt><trkpt lat="43.30102282602507" lon="10.855812216944706"><ele>284.0</ele><time>2026-03-27T13:29:40.999Z</time></trkpt><trkpt lat="43.300865763574784" lon="10.855928141989272"><ele>285.6666666666667</ele><time>2026-03-27T13:29:41.999Z</time></trkpt><trkpt lat="43.30070300051324" lon="10.856045107289845"><ele>287.3333333333333</ele><time>2026-03-27T13:29:42.999Z</time></trkpt><trkpt lat="43.30055849589151" lon="10.85616121178475"><ele>289.0</ele><time>2026-03-27T13:29:43.999Z</time></trkpt><trkpt lat="43.300428858782084" lon="10.856315209579552"><ele>292.3333333333333</ele><time>2026-03-27T13:29:44.999Z</time></trkpt><trkpt lat="43.300320717754005" lon="10.856473798417808"><ele>295.6666666666667</ele><time>2026-03-27T13:29:45.999Z</time></trkpt><trkpt lat="43.300239358307614" lon="10.856657380131427"><ele>299.0</ele><time>2026-03-27T13:29:46.999Z</time></trkpt><trkpt lat="43.30018006797881" lon="10.85686021353027"><ele>302.0</ele><time>2026-03-27T13:29:47.999Z</time></trkpt><trkpt lat="43.300161141845635" lon="10.857069175595287"><ele>305.0</ele><time>2026-03-27T13:29:48.999Z</time></trkpt><trkpt lat="43.300175030007935" lon="10.857313276484204"><ele>308.0</ele><time>2026-03-27T13:29:49.999Z</time></trkpt><trkpt lat="43.30021431393437" lon="10.857569987702853"><ele>308.6666666666667</ele><time>2026-03-27T13:29:50.999Z</time></trkpt><trkpt lat="43.30020614846049" lon="10.857829562368252"><ele>309.3333333333333</ele><time>2026-03-27T13:29:51.999Z</time></trkpt><trkpt lat="43.30015764385903" lon="10.858041570687941"><ele>310.0</ele><time>2026-03-27T13:29:52.999Z</time></trkpt><trkpt lat="43.30008065110687" lon="10.858241783815016"><ele>309.66666666666663</ele><time>2026-03-27T13:29:53.999Z</time></trkpt><trkpt lat="43.299984243382994" lon="10.858456807109171"><ele>309.3333333333333</ele><time>2026-03-27T13:29:54.999Z</time></trkpt><trkpt lat="43.29991311350334" lon="10.858679276754811"><ele>309.0</ele><time>2026-03-27T13:29:55.999Z</time></trkpt><trkpt lat="43.29988570755844" lon="10.858910389434008"><ele>309.0</ele><time>2026-03-27T13:29:56.999Z</time></trkpt><trkpt lat="43.2998876380183" lon="10.8591577867425"><ele>309.0</ele><time>2026-03-27T13:29:57.999Z</time></trkpt><trkpt lat="43.29991719800808" lon="10.859407637845177"><ele>309.0</ele><time>2026-03-27T13:29:58.999Z</time></trkpt><trkpt lat="43.299945218248375" lon="10.859641085217104"><ele>311.0</ele><time>2026-03-27T13:29:59.999Z</time></trkpt><trkpt lat="43.29996978885578" lon="10.859876517453344"><ele>313.0</ele><time>2026-03-27T13:30:00.999Z</time></trkpt><trkpt lat="43.30000144503139" lon="10.86010919582936"><ele>315.0</ele><time>2026-03-27T13:30:01.999Z</time></trkpt><trkpt lat="43.30004351922367" lon="10.860334640361959"><ele>319.0</ele><time>2026-03-27T13:30:02.999Z</time></trkpt><trkpt lat="43.30009110453858" lon="10.86054217704881"><ele>323.0</ele><time>2026-03-27T13:30:03.999Z</time></trkpt><trkpt lat="43.30016102984751" lon="10.860732029065732"><ele>327.0</ele><time>2026-03-27T13:30:04.999Z</time></trkpt><trkpt lat="43.30024679833044" lon="10.860919250727697"><ele>328.6666666666667</ele><time>2026-03-27T13:30:05.999Z</time></trkpt><trkpt lat="43.30033343799875" lon="10.861116675278195"><ele>330.33333333333337</ele><time>2026-03-27T13:30:06.999Z</time></trkpt><trkpt lat="43.3003435586429" lon="10.86132120467276"><ele>332.0</ele><time>2026-03-27T13:30:07.999Z</time></trkpt><trkpt lat="43.30033091409825" lon="10.861503609170216"><ele>332.0</ele><time>2026-03-27T13:30:08.999Z</time></trkpt><trkpt lat="43.300282883484385" lon="10.861687774010807"><ele>332.0</ele><time>2026-03-27T13:30:09.999Z</time></trkpt><trkpt lat="43.30021690397836" lon="10.86188561763286"><ele>332.0</ele><time>2026-03-27T13:30:10.999Z</time></trkpt><trkpt lat="43.30014198352735" lon="10.862109419376518"><ele>331.33333333333337</ele><time>2026-03-27T13:30:11.999Z</time></trkpt><trkpt lat="43.30006326639652" lon="10.862345803889655"><ele>330.6666666666667</ele><time>2026-03-27T13:30:12.999Z</time></trkpt><trkpt lat="43.29999143326533" lon="10.862594913054629"><ele>330.0</ele><time>2026-03-27T13:30:13.999Z</time></trkpt><trkpt lat="43.299960841707325" lon="10.862837188673257"><ele>330.0</ele><time>2026-03-27T13:30:14.999Z</time></trkpt><trkpt lat="43.299947750844545" lon="10.863074252682766"><ele>330.0</ele><time>2026-03-27T13:30:15.999Z</time></trkpt><trkpt lat="43.29996018933699" lon="10.86329694064563"><ele>330.0</ele><time>2026-03-27T13:30:16.999Z</time></trkpt><trkpt lat="43.29999048485861" lon="10.86350810624545"><ele>333.0</ele><time>2026-03-27T13:30:17.999Z</time></trkpt><trkpt lat="43.300046867292956" lon="10.863728002680377"><ele>336.0</ele><time>2026-03-27T13:30:18.999Z</time></trkpt><trkpt lat="43.300111578724916" lon="10.863937110080835"><ele>339.0</ele><time>2026-03-27T13:30:19.999Z</time></trkpt><trkpt lat="43.3001903156299" lon="10.864133478618804"><ele>342.3333333333333</ele><time>2026-03-27T13:30:20.999Z</time></trkpt><trkpt lat="43.30026287012834" lon="10.864338421209265"><ele>345.66666666666663</ele><time>2026-03-27T13:30:21.999Z</time></trkpt><trkpt lat="43.30032980754423" lon="10.864538952944821"><ele>349.0</ele><time>2026-03-27T13:30:22.999Z</time></trkpt><trkpt lat="43.300396422044805" lon="10.864725973295347"><ele>349.0</ele><time>2026-03-27T13:30:23.999Z</time></trkpt><trkpt lat="43.30046700734031" lon="10.864890133904888"><ele>349.0</ele><time>2026-03-27T13:30:24.999Z</time></trkpt><trkpt lat="43.300552613877784" lon="10.865036570298951"><ele>349.0</ele><time>2026-03-27T13:30:25.999Z</time></trkpt><trkpt lat="43.30065932996195" lon="10.86517690635448"><ele>349.0</ele><time>2026-03-27T13:30:26.999Z</time></trkpt><trkpt lat="43.30074436250562" lon="10.865308845708721"><ele>346.25</ele><time>2026-03-27T13:30:27.999Z</time></trkpt><trkpt lat="43.300763345442306" lon="10.865458058509422"><ele>343.5</ele><time>2026-03-27T13:30:28.999Z</time></trkpt><trkpt lat="43.30074233359079" lon="10.865617187947084"><ele>340.75</ele><time>2026-03-27T13:30:29.999Z</time></trkpt><trkpt lat="43.300729770076245" lon="10.865804108067612"><ele>338.0</ele><time>2026-03-27T13:30:30.999Z</time></trkpt><trkpt lat="43.30070314158759" lon="10.866007831175882"><ele>338.0</ele><time>2026-03-27T13:30:31.999Z</time></trkpt><trkpt lat="43.300677779893" lon="10.866218269383912"><ele>338.0</ele><time>2026-03-27T13:30:32.999Z</time></trkpt><trkpt lat="43.30065478915277" lon="10.866429077151578"><ele>338.0</ele><time>2026-03-27T13:30:33.999Z</time></trkpt><trkpt lat="43.30063635869586" lon="10.866636549243502"><ele>339.33333333333337</ele><time>2026-03-27T13:30:34.999Z</time></trkpt><trkpt lat="43.30062692254705" lon="10.866843826743388"><ele>340.6666666666667</ele><time>2026-03-27T13:30:35.999Z</time></trkpt><trkpt lat="43.30062297772764" lon="10.86705183203517"><ele>342.0</ele><time>2026-03-27T13:30:36.999Z</time></trkpt><trkpt lat="43.30062863416593" lon="10.867256127996631"><ele>342.0</ele><time>2026-03-27T13:30:37.999Z</time></trkpt><trkpt lat="43.30062170752752" lon="10.867465832929495"><ele>342.0</ele><time>2026-03-27T13:30:38.999Z</time></trkpt><trkpt lat="43.3006099317494" lon="10.867691262859369"><ele>342.0</ele><time>2026-03-27T13:30:39.999Z</time></trkpt><trkpt lat="43.30056759917634" lon="10.867930822870907"><ele>345.3333333333333</ele><time>2026-03-27T13:30:40.999Z</time></trkpt><trkpt lat="43.30051944733072" lon="10.868158061080567"><ele>348.66666666666663</ele><time>2026-03-27T13:30:41.999Z</time></trkpt><trkpt lat="43.30045885329776" lon="10.868376750319607"><ele>352.0</ele><time>2026-03-27T13:30:42.999Z</time></trkpt><trkpt lat="43.30038799656158" lon="10.86857575025889"><ele>352.0</ele><time>2026-03-27T13:30:43.999Z</time></trkpt><trkpt lat="43.30030861730077" lon="10.868757432665333"><ele>352.0</ele><time>2026-03-27T13:30:44.999Z</time></trkpt><trkpt lat="43.30022040420781" lon="10.868927130229036"><ele>352.0</ele><time>2026-03-27T13:30:45.999Z</time></trkpt><trkpt lat="43.300123927714424" lon="10.869102772889516"><ele>353.25</ele><time>2026-03-27T13:30:47Z</time></trkpt><trkpt lat="43.300026252882816" lon="10.869278081267804"><ele>354.5</ele><time>2026-03-27T13:30:48Z</time></trkpt><trkpt lat="43.29993921046773" lon="10.869427812343192"><ele>355.75</ele><time>2026-03-27T13:30:49Z</time></trkpt><trkpt lat="43.29985489732705" lon="10.869571998504131"><ele>357.0</ele><time>2026-03-27T13:30:50Z</time></trkpt><trkpt lat="43.29977119114808" lon="10.869720134393193"><ele>358.75</ele><time>2026-03-27T13:30:51Z</time></trkpt><trkpt lat="43.29969421125237" lon="10.869857208942737"><ele>360.5</ele><time>2026-03-27T13:30:52Z</time></trkpt><trkpt lat="43.2996192050207" lon="10.869990279021373"><ele>362.25</ele><time>2026-03-27T13:30:53Z</time></trkpt><trkpt lat="43.299549729914254" lon="10.870112030461"><ele>364.0</ele><time>2026-03-27T13:30:54Z</time></trkpt><trkpt lat="43.299482302077294" lon="10.870229950671254"><ele>364.0</ele><time>2026-03-27T13:30:55Z</time></trkpt><trkpt lat="43.29941551233552" lon="10.870346754945599"><ele>364.0</ele><time>2026-03-27T13:30:56Z</time></trkpt><trkpt lat="43.29935547232936" lon="10.870451754985982"><ele>364.0</ele><time>2026-03-27T13:30:57Z</time></trkpt><trkpt lat="43.29930472168839" lon="10.87054050959027"><ele>364.0</ele><time>2026-03-27T13:30:58Z</time></trkpt><trkpt lat="43.299256565440864" lon="10.87062291004174"><ele>364.0</ele><time>2026-03-27T13:30:59Z</time></trkpt><trkpt lat="43.299208271426124" lon="10.870704538710187"><ele>364.0</ele><time>2026-03-27T13:31:00Z</time></trkpt><trkpt lat="43.29915451013067" lon="10.870795407808057"><ele>364.0</ele><time>2026-03-27T13:31:01Z</time></trkpt><trkpt lat="43.299098052660014" lon="10.870881885214645"><ele>364.0</ele><time>2026-03-27T13:31:02Z</time></trkpt><trkpt lat="43.2990505579044" lon="10.870949185951655"><ele>364.0</ele><time>2026-03-27T13:31:03Z</time></trkpt><trkpt lat="43.29900582829614" lon="10.87101232685179"><ele>364.0</ele><time>2026-03-27T13:31:04Z</time></trkpt><trkpt lat="43.298918243738754" lon="10.871135529077982"><ele>364.0</ele><time>2026-03-27T13:31:06Z</time></trkpt><trkpt lat="43.29887424954405" lon="10.871197414046938"><ele>364.0</ele><time>2026-03-27T13:31:07Z</time></trkpt><trkpt lat="43.298822602222515" lon="10.87126877725104"><ele>364.0</ele><time>2026-03-27T13:31:08Z</time></trkpt><trkpt lat="43.29877798866065" lon="10.871333770810637"><ele>364.0</ele><time>2026-03-27T13:31:09Z</time></trkpt><trkpt lat="43.298702576093305" lon="10.871340347892737"><ele>364.0</ele><time>2026-03-27T13:31:10Z</time></trkpt><trkpt lat="43.298636303628626" lon="10.871417335443619"><ele>364.0</ele><time>2026-03-27T13:31:11Z</time></trkpt><trkpt lat="43.2985685326534" lon="10.871516433239496"><ele>364.0</ele><time>2026-03-27T13:31:12Z</time></trkpt><trkpt lat="43.298524077107466" lon="10.871685428139255"><ele>362.75</ele><time>2026-03-27T13:31:13Z</time></trkpt><trkpt lat="43.298475056934016" lon="10.871850395012618"><ele>361.5</ele><time>2026-03-27T13:31:14Z</time></trkpt><trkpt lat="43.298352645580614" lon="10.871915508972371"><ele>360.25</ele><time>2026-03-27T13:31:15Z</time></trkpt><trkpt lat="43.29825804849603" lon="10.872035930295361"><ele>359.0</ele><time>2026-03-27T13:31:16Z</time></trkpt><trkpt lat="43.298176729172525" lon="10.87213913091056"><ele>359.0</ele><time>2026-03-27T13:31:17Z</time></trkpt><trkpt lat="43.29809775780818" lon="10.87223935318959"><ele>359.0</ele><time>2026-03-27T13:31:18Z</time></trkpt><trkpt lat="43.29801262048556" lon="10.872347400776356"><ele>359.0</ele><time>2026-03-27T13:31:19Z</time></trkpt><trkpt lat="43.29792675693667" lon="10.872456369977614"><ele>359.0</ele><time>2026-03-27T13:31:20Z</time></trkpt><trkpt lat="43.297836346979786" lon="10.87256552439363"><ele>358.5</ele><time>2026-03-27T13:31:21Z</time></trkpt><trkpt lat="43.29774026122108" lon="10.87267919113924"><ele>358.0</ele><time>2026-03-27T13:31:22Z</time></trkpt><trkpt lat="43.29763999541434" lon="10.872791062682152"><ele>357.5</ele><time>2026-03-27T13:31:23Z</time></trkpt><trkpt lat="43.29753733212913" lon="10.872897442397216"><ele>357.0</ele><time>2026-03-27T13:31:24Z</time></trkpt><trkpt lat="43.297434516770316" lon="10.872998272598835"><ele>357.0</ele><time>2026-03-27T13:31:25Z</time></trkpt><trkpt lat="43.297336040388124" lon="10.873086143714099"><ele>357.0</ele><time>2026-03-27T13:31:26Z</time></trkpt><trkpt lat="43.29723050087875" lon="10.873168838715245"><ele>357.0</ele><time>2026-03-27T13:31:27Z</time></trkpt><trkpt lat="43.29711858308323" lon="10.873252394313283"><ele>357.0</ele><time>2026-03-27T13:31:28Z</time></trkpt><trkpt lat="43.296993871863386" lon="10.873339810945938"><ele>356.75</ele><time>2026-03-27T13:31:29Z</time></trkpt><trkpt lat="43.296877815648116" lon="10.873411674882105"><ele>356.5</ele><time>2026-03-27T13:31:30Z</time></trkpt><trkpt lat="43.29676880871606" lon="10.87346789252978"><ele>356.25</ele><time>2026-03-27T13:31:31Z</time></trkpt><trkpt lat="43.29666509552088" lon="10.873518187404445"><ele>356.0</ele><time>2026-03-27T13:31:32Z</time></trkpt><trkpt lat="43.29657007908016" lon="10.873580773110767"><ele>354.75</ele><time>2026-03-27T13:31:33Z</time></trkpt><trkpt lat="43.29646465438416" lon="10.873620886575132"><ele>353.5</ele><time>2026-03-27T13:31:34Z</time></trkpt><trkpt lat="43.296344344702035" lon="10.873664979602278"><ele>352.25</ele><time>2026-03-27T13:31:35Z</time></trkpt><trkpt lat="43.29622726475459" lon="10.873708424581864"><ele>351.0</ele><time>2026-03-27T13:31:36Z</time></trkpt><trkpt lat="43.29611951731426" lon="10.873742875464718"><ele>350.6</ele><time>2026-03-27T13:31:37Z</time></trkpt><trkpt lat="43.29603155913002" lon="10.873765426029493"><ele>350.20000000000005</ele><time>2026-03-27T13:31:38Z</time></trkpt><trkpt lat="43.295948451281134" lon="10.873781030521366"><ele>349.79999999999995</ele><time>2026-03-27T13:31:39Z</time></trkpt><trkpt lat="43.29585622818104" lon="10.87379135079423"><ele>349.4</ele><time>2026-03-27T13:31:40Z</time></trkpt><trkpt lat="43.29575884393353" lon="10.873768897624137"><ele>349.0</ele><time>2026-03-27T13:31:41Z</time></trkpt><trkpt lat="43.295661037910556" lon="10.873811549414707"><ele>347.79999999999995</ele><time>2026-03-27T13:31:42Z</time></trkpt><trkpt lat="43.29556282882" lon="10.873839558159696"><ele>346.59999999999997</ele><time>2026-03-27T13:31:43Z</time></trkpt><trkpt lat="43.295460685108054" lon="10.873845219348093"><ele>345.4</ele><time>2026-03-27T13:31:44Z</time></trkpt><trkpt lat="43.29535782787983" lon="10.873865291281447"><ele>344.2</ele><time>2026-03-27T13:31:45Z</time></trkpt><trkpt lat="43.29525822127386" lon="10.873884728949387"><ele>343.0</ele><time>2026-03-27T13:31:46Z</time></trkpt><trkpt lat="43.29515232032333" lon="10.873906796538675"><ele>343.0</ele><time>2026-03-27T13:31:47Z</time></trkpt><trkpt lat="43.29503643262957" lon="10.873932813096369"><ele>343.0</ele><time>2026-03-27T13:31:48Z</time></trkpt><trkpt lat="43.294912929569165" lon="10.873981386347616"><ele>343.0</ele><time>2026-03-27T13:31:49Z</time></trkpt><trkpt lat="43.29478796761972" lon="10.874004207959045"><ele>343.0</ele><time>2026-03-27T13:31:50Z</time></trkpt><trkpt lat="43.294661434307685" lon="10.874032720339837"><ele>341.25</ele><time>2026-03-27T13:31:51Z</time></trkpt><trkpt lat="43.29453333351385" lon="10.874061707033523"><ele>339.5</ele><time>2026-03-27T13:31:52Z</time></trkpt><trkpt lat="43.2944021328278" lon="10.874088693454803"><ele>337.75</ele><time>2026-03-27T13:31:53Z</time></trkpt><trkpt lat="43.29426926037743" lon="10.874114245857918"><ele>336.0</ele><time>2026-03-27T13:31:54Z</time></trkpt><trkpt lat="43.29414049124879" lon="10.874140956773914"><ele>336.0</ele><time>2026-03-27T13:31:55Z</time></trkpt><trkpt lat="43.29401255680721" lon="10.8741780305917"><ele>336.0</ele><time>2026-03-27T13:31:56Z</time></trkpt><trkpt lat="43.2938973407637" lon="10.874220981550636"><ele>336.0</ele><time>2026-03-27T13:31:57Z</time></trkpt><trkpt lat="43.29379593727066" lon="10.874244912015914"><ele>336.0</ele><time>2026-03-27T13:31:58Z</time></trkpt><trkpt lat="43.293731128273066" lon="10.874272963668211"><ele>336.0</ele><time>2026-03-27T13:31:59Z</time></trkpt><trkpt lat="43.29365159962926" lon="10.874259986989294"><ele>336.20000000000005</ele><time>2026-03-27T13:32:00Z</time></trkpt><trkpt lat="43.29358563570014" lon="10.874186617918467"><ele>336.40000000000003</ele><time>2026-03-27T13:32:01Z</time></trkpt><trkpt lat="43.29355389749929" lon="10.874075420677963"><ele>336.6</ele><time>2026-03-27T13:32:02Z</time></trkpt><trkpt lat="43.293571234441025" lon="10.87396008569308"><ele>336.8</ele><time>2026-03-27T13:32:03Z</time></trkpt><trkpt lat="43.29359448966818" lon="10.873846992458294"><ele>337.0</ele><time>2026-03-27T13:32:04Z</time></trkpt><trkpt lat="43.29372183808729" lon="10.87381257636194"><ele>337.0</ele><time>2026-03-27T13:32:05Z</time></trkpt><trkpt lat="43.29379396236872" lon="10.873744737772993"><ele>337.0</ele><time>2026-03-27T13:32:06Z</time></trkpt><trkpt lat="43.293895121545845" lon="10.873712962519592"><ele>337.0</ele><time>2026-03-27T13:32:07Z</time></trkpt><trkpt lat="43.29396586640942" lon="10.873676733183716"><ele>337.0</ele><time>2026-03-27T13:32:08Z</time></trkpt><trkpt lat="43.29404552315458" lon="10.873636971717291"><ele>337.0</ele><time>2026-03-27T13:32:09Z</time></trkpt><trkpt lat="43.294127143128776" lon="10.873571241818354"><ele>337.0</ele><time>2026-03-27T13:32:09.999Z</time></trkpt><trkpt lat="43.29420691257416" lon="10.873509425616437"><ele>337.8</ele><time>2026-03-27T13:32:10.999Z</time></trkpt><trkpt lat="43.294292242119894" lon="10.87343135248291"><ele>338.6</ele><time>2026-03-27T13:32:11.999Z</time></trkpt><trkpt lat="43.294359007838835" lon="10.873327989417552"><ele>339.40000000000003</ele><time>2026-03-27T13:32:12.999Z</time></trkpt><trkpt lat="43.29440182015017" lon="10.873221446836677"><ele>340.20000000000005</ele><time>2026-03-27T13:32:13.999Z</time></trkpt><trkpt lat="43.29445212188337" lon="10.873128117670936"><ele>341.0</ele><time>2026-03-27T13:32:15.999Z</time></trkpt><trkpt lat="43.294361069209025" lon="10.873077131521834"><ele>341.0</ele><time>2026-03-27T13:32:18.999Z</time></trkpt><trkpt lat="43.29424006693172" lon="10.873081373943336"><ele>341.0</ele><time>2026-03-27T13:32:21Z</time></trkpt><trkpt lat="43.29414858284087" lon="10.873088558786852"><ele>341.0</ele><time>2026-03-27T13:32:22Z</time></trkpt><trkpt lat="43.294051992199584" lon="10.873096144689063"><ele>341.0</ele><time>2026-03-27T13:32:23Z</time></trkpt><trkpt lat="43.29394560064359" lon="10.873100604610288"><ele>341.0</ele><time>2026-03-27T13:32:24Z</time></trkpt><trkpt lat="43.29383930631696" lon="10.87312334490288"><ele>341.5</ele><time>2026-03-27T13:32:25Z</time></trkpt><trkpt lat="43.293723858342624" lon="10.873142810989073"><ele>342.0</ele><time>2026-03-27T13:32:26Z</time></trkpt><trkpt lat="43.293605431725986" lon="10.873187981317537"><ele>342.5</ele><time>2026-03-27T13:32:27Z</time></trkpt><trkpt lat="43.29349228966562" lon="10.873204814717043"><ele>343.0</ele><time>2026-03-27T13:32:28Z</time></trkpt><trkpt lat="43.29338796233793" lon="10.873239259901968"><ele>343.0</ele><time>2026-03-27T13:32:29Z</time></trkpt><trkpt lat="43.29329291507141" lon="10.873279842538471"><ele>343.0</ele><time>2026-03-27T13:32:30Z</time></trkpt><trkpt lat="43.293200011196944" lon="10.873273361474784"><ele>343.0</ele><time>2026-03-27T13:32:31Z</time></trkpt><trkpt lat="43.293114675690205" lon="10.873272011658099"><ele>343.0</ele><time>2026-03-27T13:32:32Z</time></trkpt><trkpt lat="43.293018044717904" lon="10.87327282244133"><ele>343.0</ele><time>2026-03-27T13:32:33Z</time></trkpt><trkpt lat="43.29291185008035" lon="10.873263441893068"><ele>343.2</ele><time>2026-03-27T13:32:34Z</time></trkpt><trkpt lat="43.29281488402908" lon="10.87324762663675"><ele>343.4</ele><time>2026-03-27T13:32:35Z</time></trkpt><trkpt lat="43.29271384106243" lon="10.873229094318443"><ele>343.59999999999997</ele><time>2026-03-27T13:32:36Z</time></trkpt><trkpt lat="43.29262107256133" lon="10.87320553950615"><ele>343.79999999999995</ele><time>2026-03-27T13:32:37Z</time></trkpt><trkpt lat="43.292524137899846" lon="10.873181444724848"><ele>344.0</ele><time>2026-03-27T13:32:38Z</time></trkpt><trkpt lat="43.29243220063378" lon="10.873158730053941"><ele>344.0</ele><time>2026-03-27T13:32:39Z</time></trkpt><trkpt lat="43.29235364507072" lon="10.87314637858068"><ele>344.0</ele><time>2026-03-27T13:32:40Z</time></trkpt><trkpt lat="43.29225634079743" lon="10.873098779947984"><ele>344.0</ele><time>2026-03-27T13:32:42Z</time></trkpt><trkpt lat="43.29230147854034" lon="10.872889010178488"><ele>344.0</ele><time>2026-03-27T13:32:45Z</time></trkpt><trkpt lat="43.29237715779031" lon="10.872788634812057"><ele>344.0</ele><time>2026-03-27T13:32:46Z</time></trkpt><trkpt lat="43.29246264239145" lon="10.872684013235553"><ele>344.4</ele><time>2026-03-27T13:32:47Z</time></trkpt><trkpt lat="43.29253336682275" lon="10.87258320777154"><ele>344.79999999999995</ele><time>2026-03-27T13:32:48Z</time></trkpt><trkpt lat="43.2926047725821" lon="10.872499189741143"><ele>345.20000000000005</ele><time>2026-03-27T13:32:49Z</time></trkpt><trkpt lat="43.29267795741702" lon="10.87241237030503"><ele>345.6</ele><time>2026-03-27T13:32:50Z</time></trkpt><trkpt lat="43.292749186371815" lon="10.872320511199986"><ele>346.0</ele><time>2026-03-27T13:32:51Z</time></trkpt><trkpt lat="43.29281791953496" lon="10.872249014490947"><ele>346.0</ele><time>2026-03-27T13:32:52Z</time></trkpt><trkpt lat="43.292880931330686" lon="10.872162628588965"><ele>346.0</ele><time>2026-03-27T13:32:53Z</time></trkpt><trkpt lat="43.29294987138369" lon="10.872096381537391"><ele>346.0</ele><time>2026-03-27T13:32:54Z</time></trkpt><trkpt lat="43.29301641294597" lon="10.87201005397609"><ele>346.0</ele><time>2026-03-27T13:32:55Z</time></trkpt><trkpt lat="43.2930854669542" lon="10.87191721857413"><ele>346.0</ele><time>2026-03-27T13:32:56Z</time></trkpt><trkpt lat="43.293156224963354" lon="10.871834184195253"><ele>347.0</ele><time>2026-03-27T13:32:57Z</time></trkpt><trkpt lat="43.293232208397164" lon="10.871746489882312"><ele>348.0</ele><time>2026-03-27T13:32:58Z</time></trkpt><trkpt lat="43.29330614776277" lon="10.871662043556762"><ele>349.0</ele><time>2026-03-27T13:32:59Z</time></trkpt><trkpt lat="43.29337869286317" lon="10.871581864847403"><ele>350.0</ele><time>2026-03-27T13:33:00Z</time></trkpt><trkpt lat="43.293448072728964" lon="10.871497185719093"><ele>351.0</ele><time>2026-03-27T13:33:01Z</time></trkpt><trkpt lat="43.293508620760555" lon="10.871409754701403"><ele>351.0</ele><time>2026-03-27T13:33:02Z</time></trkpt><trkpt lat="43.29357976484589" lon="10.871349534093728"><ele>351.0</ele><time>2026-03-27T13:33:03Z</time></trkpt><trkpt lat="43.29362250513689" lon="10.87127717275935"><ele>351.0</ele><time>2026-03-27T13:33:04Z</time></trkpt><trkpt lat="43.29376783196589" lon="10.871488078764374"><ele>351.0</ele><time>2026-03-27T13:33:06Z</time></trkpt><trkpt lat="43.29385704406867" lon="10.87159820897478"><ele>351.4</ele><time>2026-03-27T13:33:07Z</time></trkpt><trkpt lat="43.293941724428606" lon="10.87168991212908"><ele>351.8</ele><time>2026-03-27T13:33:08Z</time></trkpt><trkpt lat="43.294032262054095" lon="10.871755724986151"><ele>352.2</ele><time>2026-03-27T13:33:09Z</time></trkpt><trkpt lat="43.29411833656205" lon="10.871793280718613"><ele>352.59999999999997</ele><time>2026-03-27T13:33:10Z</time></trkpt><trkpt lat="43.29420473074851" lon="10.871817863591343"><ele>353.0</ele><time>2026-03-27T13:33:11Z</time></trkpt><trkpt lat="43.29430213587824" lon="10.8717918917276"><ele>353.0</ele><time>2026-03-27T13:33:12Z</time></trkpt><trkpt lat="43.29439814898996" lon="10.871766672885911"><ele>353.0</ele><time>2026-03-27T13:33:13Z</time></trkpt><trkpt lat="43.29450230376243" lon="10.871753660161799"><ele>353.0</ele><time>2026-03-27T13:33:14Z</time></trkpt><trkpt lat="43.29457347500276" lon="10.871638984750433"><ele>353.0</ele><time>2026-03-27T13:33:15Z</time></trkpt><trkpt lat="43.294649640755374" lon="10.87153862100847"><ele>353.0</ele><time>2026-03-27T13:33:16Z</time></trkpt><trkpt lat="43.29470302689809" lon="10.871415828170102"><ele>353.0</ele><time>2026-03-27T13:33:17Z</time></trkpt><trkpt lat="43.29474240930467" lon="10.871282490684646"><ele>353.0</ele><time>2026-03-27T13:33:18Z</time></trkpt><trkpt lat="43.29476519784874" lon="10.871135634900513"><ele>353.0</ele><time>2026-03-27T13:33:19Z</time></trkpt><trkpt lat="43.2947720711963" lon="10.870984881001833"><ele>353.0</ele><time>2026-03-27T13:33:20Z</time></trkpt><trkpt lat="43.29473613244635" lon="10.87083760704807"><ele>353.0</ele><time>2026-03-27T13:33:21Z</time></trkpt><trkpt lat="43.2946934244421" lon="10.870709802944381"><ele>353.4</ele><time>2026-03-27T13:33:22Z</time></trkpt><trkpt lat="43.29462598132983" lon="10.870604315833114"><ele>353.79999999999995</ele><time>2026-03-27T13:33:23Z</time></trkpt><trkpt lat="43.294554084663" lon="10.870514988750154"><ele>354.2</ele><time>2026-03-27T13:33:24Z</time></trkpt><trkpt lat="43.2944811150166" lon="10.870420654468111"><ele>354.6</ele><time>2026-03-27T13:33:25Z</time></trkpt><trkpt lat="43.29443816420892" lon="10.870295247533237"><ele>355.0</ele><time>2026-03-27T13:33:26Z</time></trkpt><trkpt lat="43.29444391013345" lon="10.870150486758858"><ele>355.5</ele><time>2026-03-27T13:33:27Z</time></trkpt><trkpt lat="43.29450703116254" lon="10.870027204111757"><ele>356.0</ele><time>2026-03-27T13:33:28Z</time></trkpt><trkpt lat="43.294618768619266" lon="10.869962052077637"><ele>356.5</ele><time>2026-03-27T13:33:29Z</time></trkpt><trkpt lat="43.2947135201874" lon="10.869844476662356"><ele>357.0</ele><time>2026-03-27T13:33:30Z</time></trkpt><trkpt lat="43.294791886675" lon="10.869714674123097"><ele>357.75</ele><time>2026-03-27T13:33:31Z</time></trkpt><trkpt lat="43.29487036434604" lon="10.869572191273935"><ele>358.5</ele><time>2026-03-27T13:33:32Z</time></trkpt><trkpt lat="43.294946479310404" lon="10.869424267306787"><ele>359.25</ele><time>2026-03-27T13:33:33Z</time></trkpt><trkpt lat="43.29501871596143" lon="10.869281729993325"><ele>360.0</ele><time>2026-03-27T13:33:34Z</time></trkpt><trkpt lat="43.29509296589561" lon="10.869136741584661"><ele>360.25</ele><time>2026-03-27T13:33:35Z</time></trkpt><trkpt lat="43.29516819924104" lon="10.868991234365337"><ele>360.5</ele><time>2026-03-27T13:33:36Z</time></trkpt><trkpt lat="43.2952390613226" lon="10.868855322265514"><ele>360.75</ele><time>2026-03-27T13:33:37Z</time></trkpt><trkpt lat="43.29530368013663" lon="10.86873514382219"><ele>361.0</ele><time>2026-03-27T13:33:38Z</time></trkpt><trkpt lat="43.295358063041384" lon="10.868634002513767"><ele>361.0</ele><time>2026-03-27T13:33:39Z</time></trkpt><trkpt lat="43.295400686896976" lon="10.868554730704453"><ele>361.0</ele><time>2026-03-27T13:33:40Z</time></trkpt><trkpt lat="43.29544781098833" lon="10.868476136653237"><ele>361.0</ele><time>2026-03-27T13:33:41Z</time></trkpt><trkpt lat="43.29550963326603" lon="10.868413166071203"><ele>361.0</ele><time>2026-03-27T13:33:42Z</time></trkpt><trkpt lat="43.29555136143101" lon="10.868304515193396"><ele>361.0</ele><time>2026-03-27T13:33:44Z</time></trkpt><trkpt lat="43.29549871466489" lon="10.868236642940907"><ele>361.0</ele><time>2026-03-27T13:33:45Z</time></trkpt><trkpt lat="43.295394336166304" lon="10.868165827127473"><ele>361.4</ele><time>2026-03-27T13:33:46Z</time></trkpt><trkpt lat="43.29533717736962" lon="10.868060668387118"><ele>361.8</ele><time>2026-03-27T13:33:47Z</time></trkpt><trkpt lat="43.295264004515865" lon="10.867975426814079"><ele>362.2</ele><time>2026-03-27T13:33:48Z</time></trkpt><trkpt lat="43.29519906098097" lon="10.867864626570654"><ele>362.59999999999997</ele><time>2026-03-27T13:33:49Z</time></trkpt><trkpt lat="43.29513568849114" lon="10.867745611477671"><ele>363.0</ele><time>2026-03-27T13:33:50Z</time></trkpt><trkpt lat="43.29508124684678" lon="10.867615098842677"><ele>362.25</ele><time>2026-03-27T13:33:51Z</time></trkpt><trkpt lat="43.295035754636075" lon="10.867473394369359"><ele>361.5</ele><time>2026-03-27T13:33:52Z</time></trkpt><trkpt lat="43.294995699183815" lon="10.867315470185774"><ele>360.75</ele><time>2026-03-27T13:33:53Z</time></trkpt><trkpt lat="43.294974321245164" lon="10.867175531164545"><ele>360.0</ele><time>2026-03-27T13:33:54Z</time></trkpt><trkpt lat="43.294948233947224" lon="10.86699216842542"><ele>360.0</ele><time>2026-03-27T13:33:55Z</time></trkpt><trkpt lat="43.29493259959202" lon="10.866811196959883"><ele>360.0</ele><time>2026-03-27T13:33:56Z</time></trkpt><trkpt lat="43.29491105345857" lon="10.866635515461734"><ele>360.0</ele><time>2026-03-27T13:33:57Z</time></trkpt><trkpt lat="43.29487628149615" lon="10.866484929362208"><ele>360.0</ele><time>2026-03-27T13:33:58Z</time></trkpt><trkpt lat="43.294827130459474" lon="10.866331041382294"><ele>359.75</ele><time>2026-03-27T13:33:59Z</time></trkpt><trkpt lat="43.2947693227592" lon="10.866186941698754"><ele>359.5</ele><time>2026-03-27T13:34:00Z</time></trkpt><trkpt lat="43.294709510471" lon="10.866037948857201"><ele>359.25</ele><time>2026-03-27T13:34:01Z</time></trkpt><trkpt lat="43.29463482838945" lon="10.865888987034452"><ele>359.0</ele><time>2026-03-27T13:34:02Z</time></trkpt><trkpt lat="43.29454257874017" lon="10.865757858725761"><ele>357.25</ele><time>2026-03-27T13:34:03Z</time></trkpt><trkpt lat="43.29443199064477" lon="10.8656292101356"><ele>355.5</ele><time>2026-03-27T13:34:04Z</time></trkpt><trkpt lat="43.29431142041929" lon="10.86551748640604"><ele>353.75</ele><time>2026-03-27T13:34:05Z</time></trkpt><trkpt lat="43.294204802051205" lon="10.865400954437716"><ele>352.0</ele><time>2026-03-27T13:34:06Z</time></trkpt><trkpt lat="43.2941101081189" lon="10.865270821619868"><ele>352.0</ele><time>2026-03-27T13:34:07Z</time></trkpt><trkpt lat="43.29401647682083" lon="10.865149208962412"><ele>352.0</ele><time>2026-03-27T13:34:08Z</time></trkpt><trkpt lat="43.29390395544516" lon="10.865041821048326"><ele>352.0</ele><time>2026-03-27T13:34:09Z</time></trkpt><trkpt lat="43.293783337263356" lon="10.864956822510438"><ele>352.0</ele><time>2026-03-27T13:34:10Z</time></trkpt><trkpt lat="43.293643750010055" lon="10.864895572412758"><ele>350.0</ele><time>2026-03-27T13:34:11Z</time></trkpt><trkpt lat="43.29350258567108" lon="10.864819085603507"><ele>348.0</ele><time>2026-03-27T13:34:12Z</time></trkpt><trkpt lat="43.29336012360083" lon="10.864788275706507"><ele>346.0</ele><time>2026-03-27T13:34:13Z</time></trkpt><trkpt lat="43.293225275181356" lon="10.864717565193876"><ele>344.0</ele><time>2026-03-27T13:34:14Z</time></trkpt><trkpt lat="43.293089623604466" lon="10.864646651985838"><ele>343.0</ele><time>2026-03-27T13:34:15Z</time></trkpt><trkpt lat="43.29295095399797" lon="10.864565750608845"><ele>342.0</ele><time>2026-03-27T13:34:16Z</time></trkpt><trkpt lat="43.29281152301055" lon="10.86447708160897"><ele>341.0</ele><time>2026-03-27T13:34:17Z</time></trkpt><trkpt lat="43.29268178822201" lon="10.864387639904805"><ele>340.0</ele><time>2026-03-27T13:34:18Z</time></trkpt><trkpt lat="43.29255027237938" lon="10.86432210348424"><ele>339.66666666666663</ele><time>2026-03-27T13:34:19Z</time></trkpt><trkpt lat="43.292405159460934" lon="10.86426691563966"><ele>339.3333333333333</ele><time>2026-03-27T13:34:20Z</time></trkpt><trkpt lat="43.292254182973764" lon="10.864227455952635"><ele>339.0</ele><time>2026-03-27T13:34:21Z</time></trkpt><trkpt lat="43.292109462344776" lon="10.864167198568891"><ele>339.0</ele><time>2026-03-27T13:34:22Z</time></trkpt><trkpt lat="43.29197106196562" lon="10.864133886523504"><ele>339.0</ele><time>2026-03-27T13:34:23Z</time></trkpt><trkpt lat="43.29182411043461" lon="10.864103684239117"><ele>339.0</ele><time>2026-03-27T13:34:24Z</time></trkpt><trkpt lat="43.29167385397603" lon="10.864073632936217"><ele>339.0</ele><time>2026-03-27T13:34:25Z</time></trkpt><trkpt lat="43.29152997817397" lon="10.864045244863421"><ele>338.5</ele><time>2026-03-27T13:34:26.001Z</time></trkpt><trkpt lat="43.291385474697904" lon="10.864016898530133"><ele>338.0</ele><time>2026-03-27T13:34:27.001Z</time></trkpt><trkpt lat="43.291242555768356" lon="10.86398886304037"><ele>337.5</ele><time>2026-03-27T13:34:28.001Z</time></trkpt><trkpt lat="43.29109423421207" lon="10.863958866595853"><ele>337.0</ele><time>2026-03-27T13:34:29.001Z</time></trkpt><trkpt lat="43.29094988989254" lon="10.863926368928208"><ele>337.0</ele><time>2026-03-27T13:34:30.001Z</time></trkpt><trkpt lat="43.2908010455535" lon="10.863890581541026"><ele>337.0</ele><time>2026-03-27T13:34:31.001Z</time></trkpt><trkpt lat="43.29064369750061" lon="10.863851274997229"><ele>337.0</ele><time>2026-03-27T13:34:32.001Z</time></trkpt><trkpt lat="43.290486540089674" lon="10.863808531737511"><ele>337.20000000000005</ele><time>2026-03-27T13:34:33.001Z</time></trkpt><trkpt lat="43.290353149785936" lon="10.863759786165689"><ele>337.4</ele><time>2026-03-27T13:34:34.001Z</time></trkpt><trkpt lat="43.29024586308609" lon="10.863717492176711"><ele>337.6</ele><time>2026-03-27T13:34:35.001Z</time></trkpt><trkpt lat="43.29017045204315" lon="10.863698565092543"><ele>337.79999999999995</ele><time>2026-03-27T13:34:36.001Z</time></trkpt><trkpt lat="43.29015419226784" lon="10.863586885188509"><ele>338.0</ele><time>2026-03-27T13:34:37.001Z</time></trkpt><trkpt lat="43.29009851549556" lon="10.8634568748422"><ele>337.75</ele><time>2026-03-27T13:34:38.001Z</time></trkpt><trkpt lat="43.29006471750041" lon="10.863301480626857"><ele>337.5</ele><time>2026-03-27T13:34:39.001Z</time></trkpt><trkpt lat="43.29001768667451" lon="10.863134922357844"><ele>337.25</ele><time>2026-03-27T13:34:40.001Z</time></trkpt><trkpt lat="43.28996344150645" lon="10.862964681470748"><ele>337.0</ele><time>2026-03-27T13:34:41.001Z</time></trkpt><trkpt lat="43.28990561529131" lon="10.862786355638772"><ele>336.0</ele><time>2026-03-27T13:34:42.001Z</time></trkpt><trkpt lat="43.28985129512754" lon="10.862612624765"><ele>335.0</ele><time>2026-03-27T13:34:43.001Z</time></trkpt><trkpt lat="43.289798553143626" lon="10.862438946640586"><ele>334.0</ele><time>2026-03-27T13:34:44.001Z</time></trkpt><trkpt lat="43.28975358471772" lon="10.862268888584575"><ele>333.0</ele><time>2026-03-27T13:34:45.001Z</time></trkpt><trkpt lat="43.28971070914987" lon="10.862111670005078"><ele>333.0</ele><time>2026-03-27T13:34:46.001Z</time></trkpt><trkpt lat="43.28966766982767" lon="10.861938842350487"><ele>333.0</ele><time>2026-03-27T13:34:47.001Z</time></trkpt><trkpt lat="43.28961474793944" lon="10.861769868881332"><ele>333.0</ele><time>2026-03-27T13:34:48.001Z</time></trkpt><trkpt lat="43.28958338956204" lon="10.861626379433888"><ele>333.0</ele><time>2026-03-27T13:34:49.001Z</time></trkpt><trkpt lat="43.2895153554576" lon="10.861449788975504"><ele>330.0</ele><time>2026-03-27T13:34:50.001Z</time></trkpt><trkpt lat="43.28946491232619" lon="10.861286411887095"><ele>327.0</ele><time>2026-03-27T13:34:51.001Z</time></trkpt><trkpt lat="43.28942049731214" lon="10.86113802561062"><ele>324.0</ele><time>2026-03-27T13:34:52.001Z</time></trkpt><trkpt lat="43.289373837206625" lon="10.860964684973284"><ele>321.0</ele><time>2026-03-27T13:34:53.001Z</time></trkpt><trkpt lat="43.28932809823455" lon="10.860807565455419"><ele>318.8</ele><time>2026-03-27T13:34:54.001Z</time></trkpt><trkpt lat="43.28928522939104" lon="10.860662740107255"><ele>316.6</ele><time>2026-03-27T13:34:55.001Z</time></trkpt><trkpt lat="43.289241982659846" lon="10.8605272989179"><ele>314.4</ele><time>2026-03-27T13:34:56Z</time></trkpt><trkpt lat="43.289217898850374" lon="10.8604003840067"><ele>312.2</ele><time>2026-03-27T13:34:57Z</time></trkpt><trkpt lat="43.289234850834646" lon="10.860264995433639"><ele>310.0</ele><time>2026-03-27T13:34:58Z</time></trkpt><trkpt lat="43.28920811762302" lon="10.860147524594828"><ele>308.66666666666663</ele><time>2026-03-27T13:34:59Z</time></trkpt><trkpt lat="43.289185581404745" lon="10.860043429925009"><ele>307.3333333333333</ele><time>2026-03-27T13:35:00Z</time></trkpt><trkpt lat="43.28912013080066" lon="10.859939556233586"><ele>306.0</ele><time>2026-03-27T13:35:02Z</time></trkpt><trkpt lat="43.28905122293107" lon="10.859958444089587"><ele>304.6666666666667</ele><time>2026-03-27T13:35:03Z</time></trkpt><trkpt lat="43.2889661958882" lon="10.85997304561092"><ele>303.33333333333337</ele><time>2026-03-27T13:35:04Z</time></trkpt><trkpt lat="43.288865603621666" lon="10.860007062452143"><ele>302.0</ele><time>2026-03-27T13:35:05Z</time></trkpt><trkpt lat="43.28874628805477" lon="10.860034713346773"><ele>300.75</ele><time>2026-03-27T13:35:06Z</time></trkpt><trkpt lat="43.28863673770842" lon="10.860060233090602"><ele>299.5</ele><time>2026-03-27T13:35:07Z</time></trkpt><trkpt lat="43.288526650058465" lon="10.860149387087048"><ele>298.25</ele><time>2026-03-27T13:35:08Z</time></trkpt><trkpt lat="43.288416480101134" lon="10.860190938275437"><ele>297.0</ele><time>2026-03-27T13:35:09Z</time></trkpt><trkpt lat="43.28830576892792" lon="10.860196861998556"><ele>297.0</ele><time>2026-03-27T13:35:10Z</time></trkpt><trkpt lat="43.28821619007701" lon="10.860142625786644"><ele>297.0</ele><time>2026-03-27T13:35:11Z</time></trkpt><trkpt lat="43.28811192617151" lon="10.860062762709507"><ele>297.0</ele><time>2026-03-27T13:35:12Z</time></trkpt><trkpt lat="43.28798484337217" lon="10.859981901583753"><ele>297.0</ele><time>2026-03-27T13:35:13Z</time></trkpt><trkpt lat="43.28787234929516" lon="10.859910369075799"><ele>295.5</ele><time>2026-03-27T13:35:14Z</time></trkpt><trkpt lat="43.28774072163273" lon="10.859838247934757"><ele>294.0</ele><time>2026-03-27T13:35:15Z</time></trkpt><trkpt lat="43.28761032140229" lon="10.859762600666334"><ele>292.5</ele><time>2026-03-27T13:35:16Z</time></trkpt><trkpt lat="43.28747246625101" lon="10.859692987967236"><ele>291.0</ele><time>2026-03-27T13:35:17Z</time></trkpt><trkpt lat="43.28733222519013" lon="10.859617994781404"><ele>289.75</ele><time>2026-03-27T13:35:18Z</time></trkpt><trkpt lat="43.28718578442562" lon="10.859538389399669"><ele>288.5</ele><time>2026-03-27T13:35:19Z</time></trkpt><trkpt lat="43.287054495901955" lon="10.85946130365909"><ele>287.25</ele><time>2026-03-27T13:35:20Z</time></trkpt><trkpt lat="43.28692540811107" lon="10.859389202904904"><ele>286.0</ele><time>2026-03-27T13:35:21Z</time></trkpt><trkpt lat="43.28680308313681" lon="10.85931943893859"><ele>286.25</ele><time>2026-03-27T13:35:22Z</time></trkpt><trkpt lat="43.28668002307462" lon="10.85924572973395"><ele>286.5</ele><time>2026-03-27T13:35:23Z</time></trkpt><trkpt lat="43.286566382798206" lon="10.859179724218256"><ele>286.75</ele><time>2026-03-27T13:35:24Z</time></trkpt><trkpt lat="43.28646793219404" lon="10.859123406746724"><ele>287.0</ele><time>2026-03-27T13:35:25Z</time></trkpt><trkpt lat="43.28636706743707" lon="10.859084975456987"><ele>287.0</ele><time>2026-03-27T13:35:26Z</time></trkpt><trkpt lat="43.28626203630358" lon="10.859068973057408"><ele>287.0</ele><time>2026-03-27T13:35:27Z</time></trkpt><trkpt lat="43.286145924848725" lon="10.859073649553286"><ele>287.0</ele><time>2026-03-27T13:35:28Z</time></trkpt><trkpt lat="43.286021950432435" lon="10.859092671907527"><ele>287.0</ele><time>2026-03-27T13:35:29Z</time></trkpt><trkpt lat="43.285900016163595" lon="10.859129504611323"><ele>287.0</ele><time>2026-03-27T13:35:30Z</time></trkpt><trkpt lat="43.28578931547833" lon="10.85919946060209"><ele>287.0</ele><time>2026-03-27T13:35:31Z</time></trkpt><trkpt lat="43.28568961271161" lon="10.859296138550098"><ele>287.0</ele><time>2026-03-27T13:35:32Z</time></trkpt><trkpt lat="43.28558887727055" lon="10.859396428379297"><ele>287.0</ele><time>2026-03-27T13:35:33Z</time></trkpt><trkpt lat="43.28549776709102" lon="10.85947958661225"><ele>285.33333333333337</ele><time>2026-03-27T13:35:34Z</time></trkpt><trkpt lat="43.28540919906192" lon="10.859539636445268"><ele>283.6666666666667</ele><time>2026-03-27T13:35:35Z</time></trkpt><trkpt lat="43.285332462743014" lon="10.859563999623411"><ele>282.0</ele><time>2026-03-27T13:35:36Z</time></trkpt><trkpt lat="43.28527043632813" lon="10.859548403617076"><ele>280.3333333333333</ele><time>2026-03-27T13:35:37Z</time></trkpt><trkpt lat="43.28521570589104" lon="10.85949339735002"><ele>278.66666666666663</ele><time>2026-03-27T13:35:38Z</time></trkpt><trkpt lat="43.28517200439448" lon="10.859386477683495"><ele>277.0</ele><time>2026-03-27T13:35:39Z</time></trkpt><trkpt lat="43.28512812588023" lon="10.85921505825811"><ele>277.0</ele><time>2026-03-27T13:35:40Z</time></trkpt><trkpt lat="43.28508272529325" lon="10.859017400603008"><ele>277.0</ele><time>2026-03-27T13:35:41Z</time></trkpt><trkpt lat="43.285040645690444" lon="10.85885576920404"><ele>277.0</ele><time>2026-03-27T13:35:42Z</time></trkpt><trkpt lat="43.28500765435286" lon="10.8587540020438"><ele>277.0</ele><time>2026-03-27T13:35:43Z</time></trkpt><trkpt lat="43.284962498121594" lon="10.858659374532841"><ele>277.0</ele><time>2026-03-27T13:35:45Z</time></trkpt><trkpt lat="43.28486291853874" lon="10.858652857053581"><ele>277.0</ele><time>2026-03-27T13:35:47Z</time></trkpt><trkpt lat="43.284774513625756" lon="10.858638987116343"><ele>277.0</ele><time>2026-03-27T13:35:48Z</time></trkpt><trkpt lat="43.28469515557916" lon="10.858635926980451"><ele>277.0</ele><time>2026-03-27T13:35:49Z</time></trkpt><trkpt lat="43.28460093157657" lon="10.858753231860657"><ele>277.0</ele><time>2026-03-27T13:35:51Z</time></trkpt><trkpt lat="43.28456216877702" lon="10.858847749826678"><ele>277.0</ele><time>2026-03-27T13:35:52Z</time></trkpt><trkpt lat="43.28450674181143" lon="10.858914933619738"><ele>277.0</ele><time>2026-03-27T13:35:53Z</time></trkpt><trkpt lat="43.2844219427113" lon="10.858944803648317"><ele>274.5</ele><time>2026-03-27T13:35:54Z</time></trkpt><trkpt lat="43.284333805212846" lon="10.858967013186463"><ele>272.0</ele><time>2026-03-27T13:35:55Z</time></trkpt><trkpt lat="43.284255009743774" lon="10.858990706205889"><ele>269.5</ele><time>2026-03-27T13:35:56Z</time></trkpt><trkpt lat="43.28419108458148" lon="10.858957183003286"><ele>267.0</ele><time>2026-03-27T13:35:57Z</time></trkpt><trkpt lat="43.28413253173251" lon="10.858864635527985"><ele>264.5</ele><time>2026-03-27T13:35:58Z</time></trkpt><trkpt lat="43.28408178522891" lon="10.858758155163942"><ele>262.0</ele><time>2026-03-27T13:35:59Z</time></trkpt><trkpt lat="43.28402981133298" lon="10.858671224777762"><ele>262.0</ele><time>2026-03-27T13:36:00Z</time></trkpt><trkpt lat="43.2839664313972" lon="10.8585695195859"><ele>262.0</ele><time>2026-03-27T13:36:01Z</time></trkpt><trkpt lat="43.28391939252182" lon="10.858488136590678"><ele>262.0</ele><time>2026-03-27T13:36:02Z</time></trkpt><trkpt lat="43.283884862212155" lon="10.858382844125643"><ele>262.0</ele><time>2026-03-27T13:36:03Z</time></trkpt><trkpt lat="43.28384028585992" lon="10.858275897237283"><ele>262.0</ele><time>2026-03-27T13:36:04Z</time></trkpt><trkpt lat="43.283794510138435" lon="10.858173762367967"><ele>262.0</ele><time>2026-03-27T13:36:05Z</time></trkpt><trkpt lat="43.28375431026504" lon="10.858067845911048"><ele>259.4</ele><time>2026-03-27T13:36:06Z</time></trkpt><trkpt lat="43.28369853450558" lon="10.85790279561234"><ele>256.79999999999995</ele><time>2026-03-27T13:36:08Z</time></trkpt><trkpt lat="43.28365967283769" lon="10.857791679319947"><ele>254.2</ele><time>2026-03-27T13:36:09Z</time></trkpt><trkpt lat="43.283632104622534" lon="10.857647815332296"><ele>251.6</ele><time>2026-03-27T13:36:10Z</time></trkpt><trkpt lat="43.28359813093073" lon="10.85752107718594"><ele>249.0</ele><time>2026-03-27T13:36:11Z</time></trkpt><trkpt lat="43.283549640385374" lon="10.857423460267938"><ele>247.33333333333334</ele><time>2026-03-27T13:36:12Z</time></trkpt><trkpt lat="43.283499151047174" lon="10.857339199304558"><ele>245.66666666666669</ele><time>2026-03-27T13:36:13Z</time></trkpt><trkpt lat="43.28345007446589" lon="10.857247021347554"><ele>244.0</ele><time>2026-03-27T13:36:14Z</time></trkpt><trkpt lat="43.28340489433248" lon="10.857161041301554"><ele>242.33333333333334</ele><time>2026-03-27T13:36:15Z</time></trkpt><trkpt lat="43.28336883360405" lon="10.857063898065512"><ele>240.66666666666669</ele><time>2026-03-27T13:36:16Z</time></trkpt><trkpt lat="43.28331653019883" lon="10.856972572484507"><ele>239.0</ele><time>2026-03-27T13:36:17Z</time></trkpt><trkpt lat="43.28328196624611" lon="10.856871242997402"><ele>239.00000000000003</ele><time>2026-03-27T13:36:18Z</time></trkpt><trkpt lat="43.283238974478365" lon="10.856795721602163"><ele>239.0</ele><time>2026-03-27T13:36:19Z</time></trkpt><trkpt lat="43.28320553045091" lon="10.856710624491265"><ele>239.0</ele><time>2026-03-27T13:36:20Z</time></trkpt><trkpt lat="43.28316329410456" lon="10.856619124876529"><ele>239.0</ele><time>2026-03-27T13:36:21Z</time></trkpt><trkpt lat="43.28311678858981" lon="10.85653527804076"><ele>239.00000000000003</ele><time>2026-03-27T13:36:22Z</time></trkpt><trkpt lat="43.28306411812528" lon="10.85641606094514"><ele>239.0</ele><time>2026-03-27T13:36:23Z</time></trkpt><trkpt lat="43.283030483360776" lon="10.85629051444878"><ele>234.66666666666669</ele><time>2026-03-27T13:36:24Z</time></trkpt><trkpt lat="43.283024792809684" lon="10.856174295055519"><ele>230.33333333333334</ele><time>2026-03-27T13:36:25Z</time></trkpt><trkpt lat="43.28302797630685" lon="10.856059683834232"><ele>226.0</ele><time>2026-03-27T13:36:26Z</time></trkpt><trkpt lat="43.28302242082866" lon="10.85596092376244"><ele>221.66666666666669</ele><time>2026-03-27T13:36:27Z</time></trkpt><trkpt lat="43.28301698217997" lon="10.855868025285059"><ele>217.33333333333334</ele><time>2026-03-27T13:36:28Z</time></trkpt><trkpt lat="43.283007743648334" lon="10.855728592307527"><ele>213.0</ele><time>2026-03-27T13:36:30Z</time></trkpt><trkpt lat="43.28296771024145" lon="10.85556051652191"><ele>212.33333333333334</ele><time>2026-03-27T13:36:32.001Z</time></trkpt><trkpt lat="43.282951683255206" lon="10.855452151925718"><ele>211.66666666666669</ele><time>2026-03-27T13:36:33.001Z</time></trkpt><trkpt lat="43.28293007855393" lon="10.855352533505052"><ele>211.0</ele><time>2026-03-27T13:36:34.001Z</time></trkpt><trkpt lat="43.282911079784064" lon="10.85524711081892"><ele>210.33333333333334</ele><time>2026-03-27T13:36:35.001Z</time></trkpt><trkpt lat="43.28285023752377" lon="10.855170085076121"><ele>209.66666666666669</ele><time>2026-03-27T13:36:36.001Z</time></trkpt><trkpt lat="43.282767723759456" lon="10.855130464895236"><ele>209.0</ele><time>2026-03-27T13:36:37.001Z</time></trkpt><trkpt lat="43.28267264777038" lon="10.855121447552476"><ele>208.16666666666669</ele><time>2026-03-27T13:36:38.001Z</time></trkpt><trkpt lat="43.282588848865515" lon="10.85510444003688"><ele>207.33333333333334</ele><time>2026-03-27T13:36:39.001Z</time></trkpt><trkpt lat="43.28253121874043" lon="10.855054454664694"><ele>206.5</ele><time>2026-03-27T13:36:40.001Z</time></trkpt><trkpt lat="43.28245850764186" lon="10.854980690180199"><ele>205.66666666666669</ele><time>2026-03-27T13:36:41.001Z</time></trkpt><trkpt lat="43.28237853614465" lon="10.854909240381765"><ele>204.83333333333334</ele><time>2026-03-27T13:36:42.001Z</time></trkpt><trkpt lat="43.282308990924605" lon="10.854855622533364"><ele>204.0</ele><time>2026-03-27T13:36:43.001Z</time></trkpt><trkpt lat="43.28224433988126" lon="10.854805878501386"><ele>201.5</ele><time>2026-03-27T13:36:44.001Z</time></trkpt><trkpt lat="43.28217642020829" lon="10.854731125918356"><ele>199.0</ele><time>2026-03-27T13:36:45.001Z</time></trkpt><trkpt lat="43.282104053419474" lon="10.854655887481574"><ele>196.5</ele><time>2026-03-27T13:36:46.001Z</time></trkpt><trkpt lat="43.28202824990838" lon="10.854575610674853"><ele>194.0</ele><time>2026-03-27T13:36:47.001Z</time></trkpt><trkpt lat="43.28196138685987" lon="10.854508985435812"><ele>191.5</ele><time>2026-03-27T13:36:48.001Z</time></trkpt><trkpt lat="43.28188549860562" lon="10.854452000149301"><ele>189.0</ele><time>2026-03-27T13:36:49.001Z</time></trkpt><trkpt lat="43.28181856248986" lon="10.854404956010795"><ele>189.0</ele><time>2026-03-27T13:36:50.001Z</time></trkpt><trkpt lat="43.281765988729916" lon="10.854336913309336"><ele>189.0</ele><time>2026-03-27T13:36:51.001Z</time></trkpt><trkpt lat="43.28170644257676" lon="10.854255916840753"><ele>189.0</ele><time>2026-03-27T13:36:52.001Z</time></trkpt><trkpt lat="43.28165492861348" lon="10.854159000996166"><ele>189.0</ele><time>2026-03-27T13:36:53.001Z</time></trkpt><trkpt lat="43.28159645100674" lon="10.854067135057448"><ele>189.0</ele><time>2026-03-27T13:36:54.001Z</time></trkpt><trkpt lat="43.28152921688365" lon="10.853997214852084"><ele>189.0</ele><time>2026-03-27T13:36:55.001Z</time></trkpt><trkpt lat="43.28146481982374" lon="10.853922639026868"><ele>185.83333333333334</ele><time>2026-03-27T13:36:56.001Z</time></trkpt><trkpt lat="43.28141859159736" lon="10.85384202998927"><ele>182.66666666666666</ele><time>2026-03-27T13:36:57.001Z</time></trkpt><trkpt lat="43.281388113948715" lon="10.853759512550404"><ele>179.5</ele><time>2026-03-27T13:36:58.001Z</time></trkpt><trkpt lat="43.28138008230205" lon="10.853672639220068"><ele>176.33333333333331</ele><time>2026-03-27T13:36:59.001Z</time></trkpt><trkpt lat="43.28138325530074" lon="10.853562571921962"><ele>173.16666666666666</ele><time>2026-03-27T13:37:00Z</time></trkpt><trkpt lat="43.28136522126159" lon="10.853475134394786"><ele>170.0</ele><time>2026-03-27T13:37:01Z</time></trkpt><trkpt lat="43.28126820755286" lon="10.853376872419288"><ele>169.66666666666666</ele><time>2026-03-27T13:37:03Z</time></trkpt><trkpt lat="43.28119584180662" lon="10.853357574154273"><ele>169.33333333333331</ele><time>2026-03-27T13:37:04Z</time></trkpt><trkpt lat="43.28113407368296" lon="10.85333750208557"><ele>169.0</ele><time>2026-03-27T13:37:05Z</time></trkpt><trkpt lat="43.28104095405029" lon="10.853273171585263"><ele>168.66666666666666</ele><time>2026-03-27T13:37:06Z</time></trkpt><trkpt lat="43.28098902829923" lon="10.853171717434964"><ele>168.33333333333334</ele><time>2026-03-27T13:37:07Z</time></trkpt><trkpt lat="43.28090756490148" lon="10.853065426534918"><ele>168.0</ele><time>2026-03-27T13:37:08Z</time></trkpt><trkpt lat="43.28081482555743" lon="10.852973898678599"><ele>168.0</ele><time>2026-03-27T13:37:09Z</time></trkpt><trkpt lat="43.280722784171374" lon="10.852906230158402"><ele>168.0</ele><time>2026-03-27T13:37:10Z</time></trkpt><trkpt lat="43.280650169128485" lon="10.852850635392432"><ele>168.0</ele><time>2026-03-27T13:37:11Z</time></trkpt><trkpt lat="43.280587688283745" lon="10.85278027328338"><ele>168.0</ele><time>2026-03-27T13:37:12Z</time></trkpt><trkpt lat="43.280528429601134" lon="10.852722551289942"><ele>168.0</ele><time>2026-03-27T13:37:13Z</time></trkpt><trkpt lat="43.280482262065526" lon="10.852628893484427"><ele>168.0</ele><time>2026-03-27T13:37:15Z</time></trkpt><trkpt lat="43.280423724544846" lon="10.85256195633645"><ele>168.83333333333334</ele><time>2026-03-27T13:37:18Z</time></trkpt><trkpt lat="43.28035933001441" lon="10.852574320581052"><ele>169.66666666666666</ele><time>2026-03-27T13:37:26Z</time></trkpt><trkpt lat="43.28029269810513" lon="10.852648621405347"><ele>170.5</ele><time>2026-03-27T13:37:30Z</time></trkpt><trkpt lat="43.28025268537025" lon="10.852721594520228"><ele>171.33333333333331</ele><time>2026-03-27T13:37:32Z</time></trkpt><trkpt lat="43.28027154513595" lon="10.85281659937484"><ele>172.16666666666666</ele><time>2026-03-27T13:37:35Z</time></trkpt><trkpt lat="43.28032394194911" lon="10.85292609956458"><ele>173.0</ele><time>2026-03-27T13:37:43Z</time></trkpt><trkpt lat="43.2804598330857" lon="10.853076819628276"><ele>173.16666666666666</ele><time>2026-03-27T13:37:46Z</time></trkpt><trkpt lat="43.2805365651495" lon="10.853156693610286"><ele>173.33333333333331</ele><time>2026-03-27T13:37:47Z</time></trkpt><trkpt lat="43.28061795160519" lon="10.853211763525689"><ele>173.5</ele><time>2026-03-27T13:37:48Z</time></trkpt><trkpt lat="43.28068808612525" lon="10.853261656463683"><ele>173.66666666666666</ele><time>2026-03-27T13:37:49Z</time></trkpt><trkpt lat="43.28076106917407" lon="10.853277048330252"><ele>173.83333333333334</ele><time>2026-03-27T13:37:51Z</time></trkpt><trkpt lat="43.28082312509705" lon="10.853333016653362"><ele>174.0</ele><time>2026-03-27T13:37:53Z</time></trkpt><trkpt lat="43.28080493075687" lon="10.8534186257213"><ele>174.0</ele><time>2026-03-27T13:37:55Z</time></trkpt><trkpt lat="43.2807519073992" lon="10.853468280238749"><ele>174.0</ele><time>2026-03-27T13:37:57Z</time></trkpt><trkpt lat="43.28066571573737" lon="10.853573821048363"><ele>174.0</ele><time>2026-03-27T13:37:59Z</time></trkpt><trkpt lat="43.28061130510239" lon="10.853661124685049"><ele>174.0</ele><time>2026-03-27T13:38:00Z</time></trkpt><trkpt lat="43.280586983236915" lon="10.85378521191123"><ele>174.0</ele><time>2026-03-27T13:38:01Z</time></trkpt><trkpt lat="43.28059182593308" lon="10.853873402082252"><ele>174.0</ele><time>2026-03-27T13:38:02Z</time></trkpt><trkpt lat="43.280518360341375" lon="10.853832358077078"><ele>174.0</ele><time>2026-03-27T13:38:03Z</time></trkpt><trkpt lat="43.28062004042533" lon="10.853932449284292"><ele>174.0</ele><time>2026-03-27T13:38:05Z</time></trkpt><trkpt lat="43.28061338326226" lon="10.854046775215062"><ele>174.0</ele><time>2026-03-27T13:38:10Z</time></trkpt><trkpt lat="43.2805119903464" lon="10.854095251425562"><ele>174.0</ele><time>2026-03-27T13:38:22Z</time></trkpt><trkpt lat="43.28043482968428" lon="10.854097460477613"><ele>174.0</ele><time>2026-03-27T13:38:23Z</time></trkpt><trkpt lat="43.28034787269491" lon="10.854124879266987"><ele>174.0</ele><time>2026-03-27T13:38:25Z</time></trkpt><trkpt lat="43.280319137335" lon="10.854215198531502"><ele>174.0</ele><time>2026-03-27T13:38:27Z</time></trkpt><trkpt lat="43.28023791995004" lon="10.854375642214803"><ele>174.0</ele><time>2026-03-27T13:38:29Z</time></trkpt><trkpt lat="43.280184406257334" lon="10.854455528128975"><ele>174.0</ele><time>2026-03-27T13:38:30Z</time></trkpt><trkpt lat="43.28013263712033" lon="10.854550697903"><ele>174.0</ele><time>2026-03-27T13:38:31Z</time></trkpt><trkpt lat="43.280087956652125" lon="10.85463365872695"><ele>173.5</ele><time>2026-03-27T13:38:32Z</time></trkpt><trkpt lat="43.280018680489704" lon="10.85473153940076"><ele>173.0</ele><time>2026-03-27T13:38:34Z</time></trkpt><trkpt lat="43.27997728738882" lon="10.854867366589016"><ele>172.5</ele><time>2026-03-27T13:38:36Z</time></trkpt><trkpt lat="43.279952739868314" lon="10.854955015791258"><ele>172.0</ele><time>2026-03-27T13:38:37Z</time></trkpt><trkpt lat="43.27988736551342" lon="10.855056155954108"><ele>171.5</ele><time>2026-03-27T13:38:39.001Z</time></trkpt><trkpt lat="43.279820936724725" lon="10.855103646950214"><ele>171.0</ele><time>2026-03-27T13:38:43.001Z</time></trkpt><trkpt lat="43.27976395419013" lon="10.855177353003397"><ele>172.8</ele><time>2026-03-27T13:38:47.001Z</time></trkpt><trkpt lat="43.27973613289336" lon="10.855298586961887"><ele>174.60000000000002</ele><time>2026-03-27T13:38:49.001Z</time></trkpt><trkpt lat="43.27971417197823" lon="10.855474022567245"><ele>176.4</ele><time>2026-03-27T13:38:51.001Z</time></trkpt><trkpt lat="43.2796687089468" lon="10.855620569089634"><ele>178.2</ele><time>2026-03-27T13:38:52.001Z</time></trkpt><trkpt lat="43.279647884580704" lon="10.855709548110044"><ele>180.0</ele><time>2026-03-27T13:38:53.001Z</time></trkpt><trkpt lat="43.27955541353841" lon="10.855702938021794"><ele>180.0</ele><time>2026-03-27T13:38:56.001Z</time></trkpt><trkpt lat="43.27949298596476" lon="10.855640710581733"><ele>180.0</ele><time>2026-03-27T13:38:57.001Z</time></trkpt><trkpt lat="43.2794242937081" lon="10.855606097327488"><ele>180.0</ele><time>2026-03-27T13:38:58Z</time></trkpt><trkpt lat="43.27932561310021" lon="10.85564597814982"><ele>180.0</ele><time>2026-03-27T13:39:00Z</time></trkpt><trkpt lat="43.279288670516294" lon="10.85577100219637"><ele>180.0</ele><time>2026-03-27T13:39:02Z</time></trkpt><trkpt lat="43.27927698169726" lon="10.855887653968574"><ele>180.0</ele><time>2026-03-27T13:39:04Z</time></trkpt><trkpt lat="43.279220815761335" lon="10.855952556947045"><ele>180.83333333333334</ele><time>2026-03-27T13:39:06Z</time></trkpt><trkpt lat="43.27917325520006" lon="10.856036822242972"><ele>181.66666666666666</ele><time>2026-03-27T13:39:08Z</time></trkpt><trkpt lat="43.279087599397656" lon="10.856094430646015"><ele>182.5</ele><time>2026-03-27T13:39:10Z</time></trkpt><trkpt lat="43.27902144298664" lon="10.856165967774569"><ele>183.33333333333331</ele><time>2026-03-27T13:39:12Z</time></trkpt><trkpt lat="43.279023695978374" lon="10.85629513054023"><ele>184.16666666666666</ele><time>2026-03-27T13:39:14Z</time></trkpt><trkpt lat="43.27899611089177" lon="10.85639281082204"><ele>185.0</ele><time>2026-03-27T13:39:16Z</time></trkpt><trkpt lat="43.27894219356791" lon="10.856443025896441"><ele>187.0</ele><time>2026-03-27T13:39:18Z</time></trkpt><trkpt lat="43.27885119989423" lon="10.856512083030685"><ele>189.0</ele><time>2026-03-27T13:39:20Z</time></trkpt><trkpt lat="43.27876700881091" lon="10.856505332367792"><ele>191.0</ele><time>2026-03-27T13:39:24Z</time></trkpt><trkpt lat="43.278702245458526" lon="10.856462762450876"><ele>193.0</ele><time>2026-03-27T13:39:26Z</time></trkpt><trkpt lat="43.27863798515229" lon="10.856447636320565"><ele>195.00000000000003</ele><time>2026-03-27T13:39:28Z</time></trkpt><trkpt lat="43.278573678372624" lon="10.856422176499697"><ele>197.0</ele><time>2026-03-27T13:39:31Z</time></trkpt><trkpt lat="43.27846905705331" lon="10.85637739831009"><ele>197.00000000000003</ele><time>2026-03-27T13:39:38Z</time></trkpt><trkpt lat="43.27844316465921" lon="10.856288370317026"><ele>197.0</ele><time>2026-03-27T13:39:40Z</time></trkpt><trkpt lat="43.27838288104912" lon="10.856227876076423"><ele>197.0</ele><time>2026-03-27T13:39:43Z</time></trkpt><trkpt lat="43.27830596648526" lon="10.856182336384736"><ele>197.0</ele><time>2026-03-27T13:39:58Z</time></trkpt><trkpt lat="43.27823329428265" lon="10.856171959670972"><ele>197.00000000000003</ele><time>2026-03-27T13:40:00Z</time></trkpt><trkpt lat="43.27814138288191" lon="10.856214605597314"><ele>197.0</ele><time>2026-03-27T13:40:03Z</time></trkpt><trkpt lat="43.27806312603996" lon="10.856238603275722"><ele>198.16666666666669</ele><time>2026-03-27T13:40:07Z</time></trkpt><trkpt lat="43.27800775961126" lon="10.856285975254293"><ele>199.33333333333334</ele><time>2026-03-27T13:40:09Z</time></trkpt><trkpt lat="43.27792169048328" lon="10.856259304639996"><ele>200.5</ele><time>2026-03-27T13:40:11Z</time></trkpt><trkpt lat="43.27785155139367" lon="10.856307331994104"><ele>201.66666666666669</ele><time>2026-03-27T13:40:27.999Z</time></trkpt><trkpt lat="43.277778195507985" lon="10.856346037348443"><ele>202.83333333333334</ele><time>2026-03-27T13:40:30.999Z</time></trkpt><trkpt lat="43.2777610986943" lon="10.85646532618729"><ele>204.0</ele><time>2026-03-27T13:40:33.999Z</time></trkpt><trkpt lat="43.277741119452614" lon="10.856562683298607"><ele>204.0</ele><time>2026-03-27T13:40:35.999Z</time></trkpt><trkpt lat="43.277719517585794" lon="10.856647941997725"><ele>204.0</ele><time>2026-03-27T13:40:37.999Z</time></trkpt><trkpt lat="43.277655460423105" lon="10.85659284448584"><ele>204.0</ele><time>2026-03-27T13:40:39.999Z</time></trkpt><trkpt lat="43.277580030297464" lon="10.85655855843939"><ele>204.0</ele><time>2026-03-27T13:40:41.999Z</time></trkpt><trkpt lat="43.27749003872318" lon="10.856512864004884"><ele>204.0</ele><time>2026-03-27T13:40:44.001Z</time></trkpt><trkpt lat="43.27743025814717" lon="10.856484118552446"><ele>204.0</ele><time>2026-03-27T13:40:45.001Z</time></trkpt><trkpt lat="43.27731955940576" lon="10.856484504951135"><ele>204.79999999999998</ele><time>2026-03-27T13:40:47.001Z</time></trkpt><trkpt lat="43.27723147677385" lon="10.85646667859757"><ele>205.6</ele><time>2026-03-27T13:40:49.001Z</time></trkpt><trkpt lat="43.277158756932415" lon="10.8564649622788"><ele>206.4</ele><time>2026-03-27T13:40:52.001Z</time></trkpt><trkpt lat="43.277106731391285" lon="10.856542926300982"><ele>207.2</ele><time>2026-03-27T13:40:55Z</time></trkpt><trkpt lat="43.27708251388033" lon="10.856656570894943"><ele>208.0</ele><time>2026-03-27T13:40:58Z</time></trkpt><trkpt lat="43.27700607899223" lon="10.856860132427288"><ele>210.4</ele><time>2026-03-27T13:41:00Z</time></trkpt><trkpt lat="43.27697928461871" lon="10.85698160050918"><ele>212.8</ele><time>2026-03-27T13:41:01Z</time></trkpt><trkpt lat="43.27695957300823" lon="10.857093638317808"><ele>215.2</ele><time>2026-03-27T13:41:02Z</time></trkpt><trkpt lat="43.27694215012975" lon="10.857202339122534"><ele>217.6</ele><time>2026-03-27T13:41:03Z</time></trkpt><trkpt lat="43.276864024203725" lon="10.85731006654764"><ele>220.0</ele><time>2026-03-27T13:41:05Z</time></trkpt><trkpt lat="43.276793880005165" lon="10.857373405999299"><ele>219.99999999999997</ele><time>2026-03-27T13:41:06Z</time></trkpt><trkpt lat="43.276741048441366" lon="10.85744736624723"><ele>220.0</ele><time>2026-03-27T13:41:07Z</time></trkpt><trkpt lat="43.276700475668804" lon="10.857525951947045"><ele>220.0</ele><time>2026-03-27T13:41:08Z</time></trkpt><trkpt lat="43.27667721615092" lon="10.857645361109487"><ele>220.0</ele><time>2026-03-27T13:41:09Z</time></trkpt><trkpt lat="43.276643330174466" lon="10.85775445392385"><ele>219.99999999999997</ele><time>2026-03-27T13:41:10Z</time></trkpt><trkpt lat="43.27658870869772" lon="10.857830072747328"><ele>220.0</ele><time>2026-03-27T13:41:11Z</time></trkpt><trkpt lat="43.276533208036305" lon="10.857924174665532"><ele>221.66666666666666</ele><time>2026-03-27T13:41:12Z</time></trkpt><trkpt lat="43.27648258620574" lon="10.858032756327729"><ele>223.33333333333331</ele><time>2026-03-27T13:41:13Z</time></trkpt><trkpt lat="43.276444481685445" lon="10.858111797176983"><ele>225.0</ele><time>2026-03-27T13:41:14Z</time></trkpt><trkpt lat="43.276310173613645" lon="10.858182022936026"><ele>226.66666666666669</ele><time>2026-03-27T13:41:16Z</time></trkpt><trkpt lat="43.27624159882711" lon="10.858222308221933"><ele>228.33333333333334</ele><time>2026-03-27T13:41:17Z</time></trkpt><trkpt lat="43.276176787280725" lon="10.858220769846453"><ele>230.0</ele><time>2026-03-27T13:41:18Z</time></trkpt><trkpt lat="43.27610669893155" lon="10.85814932809598"><ele>232.33333333333334</ele><time>2026-03-27T13:41:19Z</time></trkpt><trkpt lat="43.27602737148503" lon="10.858052867074555"><ele>234.66666666666669</ele><time>2026-03-27T13:41:20Z</time></trkpt><trkpt lat="43.27595694499928" lon="10.857976701818021"><ele>237.0</ele><time>2026-03-27T13:41:21Z</time></trkpt><trkpt lat="43.27588701308204" lon="10.857931683855952"><ele>239.33333333333331</ele><time>2026-03-27T13:41:22Z</time></trkpt><trkpt lat="43.275809526479584" lon="10.857887712699986"><ele>241.66666666666666</ele><time>2026-03-27T13:41:23Z</time></trkpt><trkpt lat="43.275733827319314" lon="10.857838370135674"><ele>244.0</ele><time>2026-03-27T13:41:24Z</time></trkpt><trkpt lat="43.27562887743308" lon="10.85781538863782"><ele>244.83333333333331</ele><time>2026-03-27T13:41:26Z</time></trkpt><trkpt lat="43.275565233065784" lon="10.857773152781101"><ele>245.66666666666666</ele><time>2026-03-27T13:41:27Z</time></trkpt><trkpt lat="43.27549296735212" lon="10.857730730715327"><ele>246.5</ele><time>2026-03-27T13:41:28Z</time></trkpt><trkpt lat="43.27542324422596" lon="10.857712165337436"><ele>247.33333333333331</ele><time>2026-03-27T13:41:29Z</time></trkpt><trkpt lat="43.27533343783249" lon="10.857696120654337"><ele>248.16666666666666</ele><time>2026-03-27T13:41:30Z</time></trkpt><trkpt lat="43.27524025389216" lon="10.857649382669363"><ele>249.0</ele><time>2026-03-27T13:41:31Z</time></trkpt><trkpt lat="43.27518204850795" lon="10.857600477657549"><ele>249.2</ele><time>2026-03-27T13:41:32Z</time></trkpt><trkpt lat="43.275125456940145" lon="10.857542025770389"><ele>249.39999999999998</ele><time>2026-03-27T13:41:33Z</time></trkpt><trkpt lat="43.27508779811566" lon="10.857471467636598"><ele>249.6</ele><time>2026-03-27T13:41:34Z</time></trkpt><trkpt lat="43.27496303500569" lon="10.857471366338052"><ele>249.8</ele><time>2026-03-27T13:41:36Z</time></trkpt><trkpt lat="43.27486598462674" lon="10.857484323047737"><ele>250.0</ele><time>2026-03-27T13:41:37Z</time></trkpt><trkpt lat="43.27474904246855" lon="10.857488754666617"><ele>253.0</ele><time>2026-03-27T13:41:38Z</time></trkpt><trkpt lat="43.2746254972307" lon="10.857475978358371"><ele>256.0</ele><time>2026-03-27T13:41:39Z</time></trkpt><trkpt lat="43.274532343020844" lon="10.857430420081"><ele>259.0</ele><time>2026-03-27T13:41:40Z</time></trkpt><trkpt lat="43.27445152524844" lon="10.857427800133252"><ele>262.0</ele><time>2026-03-27T13:41:41Z</time></trkpt><trkpt lat="43.27439440745631" lon="10.857484292139269"><ele>265.0</ele><time>2026-03-27T13:41:42Z</time></trkpt><trkpt lat="43.27434846125257" lon="10.857570455875686"><ele>265.2</ele><time>2026-03-27T13:41:43Z</time></trkpt><trkpt lat="43.274247697419874" lon="10.85770320323499"><ele>265.4</ele><time>2026-03-27T13:41:45Z</time></trkpt><trkpt lat="43.27414098922207" lon="10.85774195601006"><ele>265.6</ele><time>2026-03-27T13:41:46Z</time></trkpt><trkpt lat="43.27405781914968" lon="10.857794038634927"><ele>265.8</ele><time>2026-03-27T13:41:47Z</time></trkpt><trkpt lat="43.27398205788747" lon="10.857843152853539"><ele>266.0</ele><time>2026-03-27T13:41:48Z</time></trkpt><trkpt lat="43.273903710519484" lon="10.857845940562335"><ele>266.0</ele><time>2026-03-27T13:41:49Z</time></trkpt><trkpt lat="43.27382399423745" lon="10.857811778984825"><ele>266.0</ele><time>2026-03-27T13:41:50Z</time></trkpt><trkpt lat="43.27380445513989" lon="10.85770137863251"><ele>266.0</ele><time>2026-03-27T13:41:51Z</time></trkpt><trkpt lat="43.27379068819259" lon="10.857585899718964"><ele>266.0</ele><time>2026-03-27T13:41:52Z</time></trkpt><trkpt lat="43.27378716320692" lon="10.85747034941308"><ele>266.0</ele><time>2026-03-27T13:41:53Z</time></trkpt><trkpt lat="43.27375901142865" lon="10.857357013839101"><ele>266.0</ele><time>2026-03-27T13:41:54Z</time></trkpt><trkpt lat="43.27367644843599" lon="10.857246666590557"><ele>266.6</ele><time>2026-03-27T13:41:56Z</time></trkpt><trkpt lat="43.27358288175754" lon="10.857236546559735"><ele>267.20000000000005</ele><time>2026-03-27T13:41:57Z</time></trkpt><trkpt lat="43.27348082783492" lon="10.857236696189041"><ele>267.79999999999995</ele><time>2026-03-27T13:41:58Z</time></trkpt><trkpt lat="43.27340170808016" lon="10.857199518494818"><ele>268.4</ele><time>2026-03-27T13:41:59Z</time></trkpt><trkpt lat="43.273311282454046" lon="10.857130536469064"><ele>269.0</ele><time>2026-03-27T13:42:00Z</time></trkpt><trkpt lat="43.27324861139173" lon="10.857081986110757"><ele>269.0</ele><time>2026-03-27T13:42:00.999Z</time></trkpt><trkpt lat="43.27323243302002" lon="10.856996034582806"><ele>269.0</ele><time>2026-03-27T13:42:02.999Z</time></trkpt><trkpt lat="43.27321034239641" lon="10.856879156523098"><ele>269.0</ele><time>2026-03-27T13:42:05.999Z</time></trkpt><trkpt lat="43.27313933253999" lon="10.85682505537392"><ele>269.0</ele><time>2026-03-27T13:42:08.999Z</time></trkpt><trkpt lat="43.273063747491506" lon="10.856798915540294"><ele>269.0</ele><time>2026-03-27T13:42:10.999Z</time></trkpt><trkpt lat="43.27268622208992" lon="10.856682964046982"><ele>271.8</ele><time>2026-03-27T13:42:13.999Z</time></trkpt><trkpt lat="43.27256658722102" lon="10.856712513313383"><ele>274.59999999999997</ele><time>2026-03-27T13:42:14.999Z</time></trkpt><trkpt lat="43.272445030973486" lon="10.856726941843423"><ele>277.4</ele><time>2026-03-27T13:42:16.999Z</time></trkpt><trkpt lat="43.27237736037074" lon="10.856698920882343"><ele>280.2</ele><time>2026-03-27T13:42:17.999Z</time></trkpt><trkpt lat="43.27230083293985" lon="10.85665625459782"><ele>283.0</ele><time>2026-03-27T13:42:19.999Z</time></trkpt><trkpt lat="43.27224649426744" lon="10.856517586467138"><ele>284.66666666666663</ele><time>2026-03-27T13:42:21.999Z</time></trkpt><trkpt lat="43.272189999117515" lon="10.856445152848156"><ele>286.3333333333333</ele><time>2026-03-27T13:42:22.999Z</time></trkpt><trkpt lat="43.27211383179844" lon="10.856428933190953"><ele>288.0</ele><time>2026-03-27T13:42:23.999Z</time></trkpt><trkpt lat="43.27205023507242" lon="10.85645419329624"><ele>289.6666666666667</ele><time>2026-03-27T13:42:24.999Z</time></trkpt><trkpt lat="43.27195541229013" lon="10.856428711011322"><ele>291.33333333333337</ele><time>2026-03-27T13:42:25.999Z</time></trkpt><trkpt lat="43.271864558760655" lon="10.85637470452228"><ele>293.0</ele><time>2026-03-27T13:42:26.999Z</time></trkpt><trkpt lat="43.27173136878134" lon="10.856331537357052"><ele>293.0</ele><time>2026-03-27T13:42:27.999Z</time></trkpt><trkpt lat="43.271615847292" lon="10.856269233479502"><ele>293.0</ele><time>2026-03-27T13:42:28.999Z</time></trkpt><trkpt lat="43.27152987064881" lon="10.856206517533957"><ele>293.0</ele><time>2026-03-27T13:42:29.999Z</time></trkpt><trkpt lat="43.27142896421165" lon="10.856174030140517"><ele>293.0</ele><time>2026-03-27T13:42:30.999Z</time></trkpt><trkpt lat="43.27135345336696" lon="10.85616510194585"><ele>293.0</ele><time>2026-03-27T13:42:31.999Z</time></trkpt><trkpt lat="43.27129282376532" lon="10.856231733789926"><ele>295.5</ele><time>2026-03-27T13:42:33.999Z</time></trkpt><trkpt lat="43.27125243426844" lon="10.85631796020712"><ele>298.0</ele><time>2026-03-27T13:42:34.999Z</time></trkpt><trkpt lat="43.27118298505359" lon="10.856373172183382"><ele>300.5</ele><time>2026-03-27T13:42:35.999Z</time></trkpt><trkpt lat="43.271098174928404" lon="10.856444998325005"><ele>303.0</ele><time>2026-03-27T13:42:36.999Z</time></trkpt><trkpt lat="43.271044168549025" lon="10.856523265321535"><ele>305.5</ele><time>2026-03-27T13:42:37.999Z</time></trkpt><trkpt lat="43.27098980248629" lon="10.856608563310987"><ele>308.0</ele><time>2026-03-27T13:42:38.999Z</time></trkpt><trkpt lat="43.27094568492303" lon="10.856671012832244"><ele>308.0</ele><time>2026-03-27T13:42:39.999Z</time></trkpt><trkpt lat="43.27089787103759" lon="10.856728382299666"><ele>308.0</ele><time>2026-03-27T13:42:40.999Z</time></trkpt><trkpt lat="43.270782160173034" lon="10.856771769751667"><ele>308.0</ele><time>2026-03-27T13:42:42.999Z</time></trkpt><trkpt lat="43.27070772869014" lon="10.856752504557173"><ele>308.0</ele><time>2026-03-27T13:42:43.999Z</time></trkpt><trkpt lat="43.27062725678243" lon="10.856742817542697"><ele>308.0</ele><time>2026-03-27T13:42:44.999Z</time></trkpt><trkpt lat="43.270553219134996" lon="10.85675901471406"><ele>308.0</ele><time>2026-03-27T13:42:45.999Z</time></trkpt><trkpt lat="43.27047140118584" lon="10.856817792735336"><ele>310.6</ele><time>2026-03-27T13:42:46.999Z</time></trkpt><trkpt lat="43.2703820826795" lon="10.856885804392746"><ele>313.20000000000005</ele><time>2026-03-27T13:42:47.999Z</time></trkpt><trkpt lat="43.270307803862096" lon="10.856956513319403"><ele>315.8</ele><time>2026-03-27T13:42:48.999Z</time></trkpt><trkpt lat="43.27022541193548" lon="10.856974460263462"><ele>318.40000000000003</ele><time>2026-03-27T13:42:51Z</time></trkpt><trkpt lat="43.27011762884321" lon="10.856918483594072"><ele>321.0</ele><time>2026-03-27T13:42:53Z</time></trkpt><trkpt lat="43.26999644755982" lon="10.856918963379494"><ele>321.0</ele><time>2026-03-27T13:42:55Z</time></trkpt><trkpt lat="43.26989867410472" lon="10.856930769117302"><ele>321.0</ele><time>2026-03-27T13:42:56Z</time></trkpt><trkpt lat="43.26980728996801" lon="10.856902983235157"><ele>321.0</ele><time>2026-03-27T13:42:57Z</time></trkpt><trkpt lat="43.269717409243015" lon="10.856902214605402"><ele>321.0</ele><time>2026-03-27T13:42:58Z</time></trkpt><trkpt lat="43.269649209913986" lon="10.856908938625626"><ele>321.0</ele><time>2026-03-27T13:42:59Z</time></trkpt><trkpt lat="43.26958296457835" lon="10.856936119948944"><ele>321.0</ele><time>2026-03-27T13:43:00Z</time></trkpt><trkpt lat="43.269456032131046" lon="10.856954389731856"><ele>323.8333333333333</ele><time>2026-03-27T13:43:02Z</time></trkpt><trkpt lat="43.269362726055945" lon="10.85694860379353"><ele>326.6666666666667</ele><time>2026-03-27T13:43:04Z</time></trkpt><trkpt lat="43.26932738993628" lon="10.857023312231949"><ele>329.5</ele><time>2026-03-27T13:43:28Z</time></trkpt><trkpt lat="43.2692334580121" lon="10.857079548017177"><ele>332.33333333333337</ele><time>2026-03-27T13:43:30Z</time></trkpt><trkpt lat="43.26916158855368" lon="10.857078227928774"><ele>335.1666666666667</ele><time>2026-03-27T13:43:31Z</time></trkpt><trkpt lat="43.26909905767225" lon="10.857033977094051"><ele>338.0</ele><time>2026-03-27T13:43:32Z</time></trkpt><trkpt lat="43.26904065750152" lon="10.856994608760745"><ele>341.0</ele><time>2026-03-27T13:43:33Z</time></trkpt><trkpt lat="43.26890028708014" lon="10.856950532471558"><ele>344.0</ele><time>2026-03-27T13:43:35Z</time></trkpt><trkpt lat="43.268805435405774" lon="10.856903881602559"><ele>347.0</ele><time>2026-03-27T13:43:36Z</time></trkpt><trkpt lat="43.268698391708234" lon="10.85684408648887"><ele>350.0</ele><time>2026-03-27T13:43:37Z</time></trkpt><trkpt lat="43.26863189424486" lon="10.856771955259802"><ele>353.0</ele><time>2026-03-27T13:43:38Z</time></trkpt><trkpt lat="43.26854606255681" lon="10.856762564661315"><ele>353.4</ele><time>2026-03-27T13:43:40Z</time></trkpt><trkpt lat="43.26852261190126" lon="10.856920447753444"><ele>353.79999999999995</ele><time>2026-03-27T13:43:42Z</time></trkpt><trkpt lat="43.268516077570276" lon="10.857056516663405"><ele>354.2</ele><time>2026-03-27T13:43:43Z</time></trkpt><trkpt lat="43.26847567704584" lon="10.85718526090154"><ele>354.6</ele><time>2026-03-27T13:43:44Z</time></trkpt><trkpt lat="43.268430903240386" lon="10.85727152485498"><ele>355.0</ele><time>2026-03-27T13:43:45Z</time></trkpt><trkpt lat="43.26836785325492" lon="10.857286478696944"><ele>355.0</ele><time>2026-03-27T13:43:47Z</time></trkpt><trkpt lat="43.26826470894716" lon="10.857321311117978"><ele>355.0</ele><time>2026-03-27T13:43:49Z</time></trkpt><trkpt lat="43.26819826149594" lon="10.857351433061737"><ele>355.0</ele><time>2026-03-27T13:43:50Z</time></trkpt><trkpt lat="43.26812099854466" lon="10.857378681634158"><ele>355.0</ele><time>2026-03-27T13:43:50.999Z</time></trkpt><trkpt lat="43.26804077616651" lon="10.857393348560688"><ele>355.0</ele><time>2026-03-27T13:43:51.999Z</time></trkpt><trkpt lat="43.26797536165103" lon="10.857382198231576"><ele>355.0</ele><time>2026-03-27T13:43:52.999Z</time></trkpt><trkpt lat="43.267904494229754" lon="10.857364176844069"><ele>357.8</ele><time>2026-03-27T13:43:54.999Z</time></trkpt><trkpt lat="43.267827160152535" lon="10.857381690001482"><ele>360.6</ele><time>2026-03-27T13:44:01.999Z</time></trkpt><trkpt lat="43.26774803315946" lon="10.857385480534314"><ele>363.4</ele><time>2026-03-27T13:44:04.999Z</time></trkpt><trkpt lat="43.2676424957435" lon="10.85741129967581"><ele>366.2</ele><time>2026-03-27T13:44:06.999Z</time></trkpt><trkpt lat="43.26748324198039" lon="10.857482163466573"><ele>369.0</ele><time>2026-03-27T13:44:08.999Z</time></trkpt><trkpt lat="43.26738328069211" lon="10.857558725221885"><ele>369.0</ele><time>2026-03-27T13:44:09.999Z</time></trkpt><trkpt lat="43.26728796293965" lon="10.857597657767254"><ele>369.0</ele><time>2026-03-27T13:44:10.999Z</time></trkpt><trkpt lat="43.267217039317934" lon="10.85763110353134"><ele>369.0</ele><time>2026-03-27T13:44:11.999Z</time></trkpt><trkpt lat="43.267140754307675" lon="10.857712892210833"><ele>369.0</ele><time>2026-03-27T13:44:12.999Z</time></trkpt><trkpt lat="43.267069050758174" lon="10.857810727910104"><ele>369.0</ele><time>2026-03-27T13:44:13.999Z</time></trkpt><trkpt lat="43.26698349523263" lon="10.857895057582633"><ele>370.0</ele><time>2026-03-27T13:44:14.999Z</time></trkpt><trkpt lat="43.26685417878483" lon="10.857978090003114"><ele>371.0</ele><time>2026-03-27T13:44:15.999Z</time></trkpt><trkpt lat="43.2667537886516" lon="10.858057523688215"><ele>372.0</ele><time>2026-03-27T13:44:16.999Z</time></trkpt><trkpt lat="43.26665437295011" lon="10.858100678111654"><ele>373.0</ele><time>2026-03-27T13:44:17.999Z</time></trkpt><trkpt lat="43.26654772536826" lon="10.85816226731912"><ele>373.0</ele><time>2026-03-27T13:44:18.999Z</time></trkpt><trkpt lat="43.2664568900533" lon="10.858203609884239"><ele>373.0</ele><time>2026-03-27T13:44:19.999Z</time></trkpt><trkpt lat="43.26637120187448" lon="10.858240151971826"><ele>373.0</ele><time>2026-03-27T13:44:20.999Z</time></trkpt><trkpt lat="43.26630569342181" lon="10.858261941839388"><ele>373.0</ele><time>2026-03-27T13:44:21.999Z</time></trkpt><trkpt lat="43.2662468259932" lon="10.858295631198333"><ele>373.0</ele><time>2026-03-27T13:44:23.999Z</time></trkpt><trkpt lat="43.266227453204046" lon="10.8583839528551"><ele>373.0</ele><time>2026-03-27T13:44:24.999Z</time></trkpt><trkpt lat="43.26621686686581" lon="10.858514268502883"><ele>373.79999999999995</ele><time>2026-03-27T13:44:25.999Z</time></trkpt><trkpt lat="43.26618459191592" lon="10.858673269698555"><ele>374.6</ele><time>2026-03-27T13:44:26.999Z</time></trkpt><trkpt lat="43.2661484099676" lon="10.858805256185043"><ele>375.4</ele><time>2026-03-27T13:44:27.999Z</time></trkpt><trkpt lat="43.266117526074176" lon="10.858932524887344"><ele>376.20000000000005</ele><time>2026-03-27T13:44:28.999Z</time></trkpt><trkpt lat="43.26607110703632" lon="10.859040746778449"><ele>377.0</ele><time>2026-03-27T13:44:29.999Z</time></trkpt><trkpt lat="43.26600992866963" lon="10.859130960334712"><ele>377.0</ele><time>2026-03-27T13:44:30.999Z</time></trkpt><trkpt lat="43.265942910458364" lon="10.859211188743204"><ele>377.0</ele><time>2026-03-27T13:44:31.999Z</time></trkpt><trkpt lat="43.265876390575905" lon="10.85929987602178"><ele>377.0</ele><time>2026-03-27T13:44:32.999Z</time></trkpt><trkpt lat="43.26586870779139" lon="10.85945985198108"><ele>377.0</ele><time>2026-03-27T13:44:33.999Z</time></trkpt><trkpt lat="43.26593720521865" lon="10.859619532910987"><ele>377.0</ele><time>2026-03-27T13:44:34.999Z</time></trkpt><trkpt lat="43.26599443260885" lon="10.859789438328207"><ele>379.5</ele><time>2026-03-27T13:44:35.999Z</time></trkpt><trkpt lat="43.26607408254869" lon="10.859943480134579"><ele>382.0</ele><time>2026-03-27T13:44:36.999Z</time></trkpt><trkpt lat="43.266169606109216" lon="10.860082096047789"><ele>384.5</ele><time>2026-03-27T13:44:37.999Z</time></trkpt><trkpt lat="43.26622954059805" lon="10.860225141052078"><ele>387.0</ele><time>2026-03-27T13:44:38.999Z</time></trkpt><trkpt lat="43.26632340357202" lon="10.860357164667999"><ele>389.0</ele><time>2026-03-27T13:44:39.999Z</time></trkpt><trkpt lat="43.266394101196035" lon="10.860471621542025"><ele>391.0</ele><time>2026-03-27T13:44:40.999Z</time></trkpt><trkpt lat="43.26648205877673" lon="10.860581459039187"><ele>393.0</ele><time>2026-03-27T13:44:41.999Z</time></trkpt><trkpt lat="43.2665466730947" lon="10.860673197569263"><ele>395.0</ele><time>2026-03-27T13:44:42.999Z</time></trkpt><trkpt lat="43.26661610524058" lon="10.860764842926962"><ele>397.0</ele><time>2026-03-27T13:44:43.999Z</time></trkpt><trkpt lat="43.266682027142814" lon="10.860841554856655"><ele>391.40000000000003</ele><time>2026-03-27T13:44:44.999Z</time></trkpt><trkpt lat="43.2667668504683" lon="10.860879508906853"><ele>385.8</ele><time>2026-03-27T13:44:45.999Z</time></trkpt><trkpt lat="43.26684280692856" lon="10.860926037383303"><ele>380.2</ele><time>2026-03-27T13:44:46.999Z</time></trkpt><trkpt lat="43.26688058343292" lon="10.861008138911433"><ele>374.6</ele><time>2026-03-27T13:44:47.999Z</time></trkpt><trkpt lat="43.266881131385055" lon="10.861141443278832"><ele>369.0</ele><time>2026-03-27T13:44:48.999Z</time></trkpt><trkpt lat="43.26691295373686" lon="10.86128606235843"><ele>368.6</ele><time>2026-03-27T13:44:49.999Z</time></trkpt><trkpt lat="43.26694001766658" lon="10.861425560710195"><ele>368.2</ele><time>2026-03-27T13:44:50.999Z</time></trkpt><trkpt lat="43.26698853303469" lon="10.861557259542462"><ele>367.8</ele><time>2026-03-27T13:44:51.999Z</time></trkpt><trkpt lat="43.26706258571799" lon="10.861664801394793"><ele>367.40000000000003</ele><time>2026-03-27T13:44:52.999Z</time></trkpt><trkpt lat="43.267143833123264" lon="10.861747473630466"><ele>367.0</ele><time>2026-03-27T13:44:53.999Z</time></trkpt><trkpt lat="43.267281732861335" lon="10.861770086878852"><ele>364.0</ele><time>2026-03-27T13:44:54.999Z</time></trkpt><trkpt lat="43.267335673780224" lon="10.861855746538783"><ele>361.0</ele><time>2026-03-27T13:44:56Z</time></trkpt><trkpt lat="43.267388539868946" lon="10.86192709802502"><ele>358.0</ele><time>2026-03-27T13:44:57Z</time></trkpt><trkpt lat="43.267431321159236" lon="10.862032985208442"><ele>355.0</ele><time>2026-03-27T13:44:58Z</time></trkpt><trkpt lat="43.26742603044565" lon="10.862141748108888"><ele>352.0</ele><time>2026-03-27T13:44:59Z</time></trkpt><trkpt lat="43.26739929738539" lon="10.862292177240917"><ele>349.0</ele><time>2026-03-27T13:45:01Z</time></trkpt><trkpt lat="43.26729327348946" lon="10.862337255044807"><ele>350.0</ele><time>2026-03-27T13:45:02Z</time></trkpt><trkpt lat="43.267210839068376" lon="10.862459427893427"><ele>351.0</ele><time>2026-03-27T13:45:03Z</time></trkpt><trkpt lat="43.26712650432998" lon="10.862559692489079"><ele>352.0</ele><time>2026-03-27T13:45:04Z</time></trkpt><trkpt lat="43.266985917188755" lon="10.862671314559908"><ele>353.0</ele><time>2026-03-27T13:45:05Z</time></trkpt><trkpt lat="43.266853321087694" lon="10.8627748378635"><ele>353.0</ele><time>2026-03-27T13:45:06Z</time></trkpt><trkpt lat="43.266742868310125" lon="10.862911581959013"><ele>353.0</ele><time>2026-03-27T13:45:07Z</time></trkpt><trkpt lat="43.26662811901107" lon="10.86300246173232"><ele>353.0</ele><time>2026-03-27T13:45:08Z</time></trkpt><trkpt lat="43.26650616380313" lon="10.863117959797714"><ele>353.0</ele><time>2026-03-27T13:45:09Z</time></trkpt><trkpt lat="43.26638513141847" lon="10.863223532750025"><ele>355.25</ele><time>2026-03-27T13:45:10Z</time></trkpt><trkpt lat="43.26627054646891" lon="10.8633289520549"><ele>357.5</ele><time>2026-03-27T13:45:11Z</time></trkpt><trkpt lat="43.266163046997214" lon="10.863459118187821"><ele>359.75</ele><time>2026-03-27T13:45:12Z</time></trkpt><trkpt lat="43.26606375537773" lon="10.863572575720115"><ele>362.0</ele><time>2026-03-27T13:45:13Z</time></trkpt><trkpt lat="43.265954026965574" lon="10.863700416166544"><ele>362.0</ele><time>2026-03-27T13:45:14Z</time></trkpt><trkpt lat="43.26586376904323" lon="10.863840120614661"><ele>362.0</ele><time>2026-03-27T13:45:15Z</time></trkpt><trkpt lat="43.265783382354726" lon="10.863942701127975"><ele>362.0</ele><time>2026-03-27T13:45:16Z</time></trkpt><trkpt lat="43.26570042581908" lon="10.864050007471105"><ele>362.0</ele><time>2026-03-27T13:45:17Z</time></trkpt><trkpt lat="43.265639571185694" lon="10.86413822903661"><ele>362.0</ele><time>2026-03-27T13:45:18Z</time></trkpt><trkpt lat="43.26558037146769" lon="10.86424620709047"><ele>364.25</ele><time>2026-03-27T13:45:19Z</time></trkpt><trkpt lat="43.26549898031003" lon="10.864397066781455"><ele>366.5</ele><time>2026-03-27T13:45:20Z</time></trkpt><trkpt lat="43.26541746305472" lon="10.864534319483683"><ele>368.75</ele><time>2026-03-27T13:45:21Z</time></trkpt><trkpt lat="43.265339581136345" lon="10.864664679588753"><ele>371.0</ele><time>2026-03-27T13:45:22Z</time></trkpt><trkpt lat="43.265254102454186" lon="10.864810155379322"><ele>371.0</ele><time>2026-03-27T13:45:23Z</time></trkpt><trkpt lat="43.265167118548085" lon="10.86496644743392"><ele>371.0</ele><time>2026-03-27T13:45:24Z</time></trkpt><trkpt lat="43.26509027516369" lon="10.865115391287372"><ele>371.0</ele><time>2026-03-27T13:45:25Z</time></trkpt><trkpt lat="43.2650204869333" lon="10.865250660281873"><ele>371.0</ele><time>2026-03-27T13:45:26Z</time></trkpt><trkpt lat="43.26496067928722" lon="10.865372353339977"><ele>371.20000000000005</ele><time>2026-03-27T13:45:27Z</time></trkpt><trkpt lat="43.2649239408278" lon="10.865470686897673"><ele>371.40000000000003</ele><time>2026-03-27T13:45:28Z</time></trkpt><trkpt lat="43.26491390830337" lon="10.865590762113474"><ele>371.6</ele><time>2026-03-27T13:45:29Z</time></trkpt><trkpt lat="43.26491280520873" lon="10.865761976666008"><ele>371.8</ele><time>2026-03-27T13:45:30Z</time></trkpt><trkpt lat="43.26490415113644" lon="10.865909018894502"><ele>372.0</ele><time>2026-03-27T13:45:31Z</time></trkpt><trkpt lat="43.26489376903924" lon="10.86607021154696"><ele>372.75</ele><time>2026-03-27T13:45:32Z</time></trkpt><trkpt lat="43.264876974539256" lon="10.866237663792392"><ele>373.5</ele><time>2026-03-27T13:45:33Z</time></trkpt><trkpt lat="43.26485955185191" lon="10.866406180037984"><ele>374.25</ele><time>2026-03-27T13:45:34Z</time></trkpt><trkpt lat="43.264843842921955" lon="10.866559105483526"><ele>375.0</ele><time>2026-03-27T13:45:35Z</time></trkpt><trkpt lat="43.26483584762398" lon="10.866710878979355"><ele>376.75</ele><time>2026-03-27T13:45:36Z</time></trkpt><trkpt lat="43.26484499999563" lon="10.866842425019259"><ele>378.5</ele><time>2026-03-27T13:45:37Z</time></trkpt><trkpt lat="43.26490617334932" lon="10.866997195644375"><ele>380.25</ele><time>2026-03-27T13:45:38Z</time></trkpt><trkpt lat="43.26495416495501" lon="10.867161576327478"><ele>382.0</ele><time>2026-03-27T13:45:39Z</time></trkpt><trkpt lat="43.265013766267884" lon="10.867310220289111"><ele>382.0</ele><time>2026-03-27T13:45:39.999Z</time></trkpt><trkpt lat="43.26505160408585" lon="10.867436897791942"><ele>382.0</ele><time>2026-03-27T13:45:40.999Z</time></trkpt><trkpt lat="43.26509822809573" lon="10.867572189268435"><ele>382.0</ele><time>2026-03-27T13:45:41.999Z</time></trkpt><trkpt lat="43.26514956228644" lon="10.867716050947433"><ele>382.0</ele><time>2026-03-27T13:45:42.999Z</time></trkpt><trkpt lat="43.26519791017468" lon="10.867854444966598"><ele>382.0</ele><time>2026-03-27T13:45:43.999Z</time></trkpt><trkpt lat="43.265261800847874" lon="10.86797612050951"><ele>382.5</ele><time>2026-03-27T13:45:44.999Z</time></trkpt><trkpt lat="43.26534926305645" lon="10.868081839532234"><ele>383.0</ele><time>2026-03-27T13:45:45.999Z</time></trkpt><trkpt lat="43.26544636432808" lon="10.868167726482264"><ele>383.5</ele><time>2026-03-27T13:45:46.999Z</time></trkpt><trkpt lat="43.26555591553614" lon="10.868180630250126"><ele>384.0</ele><time>2026-03-27T13:45:47.999Z</time></trkpt><trkpt lat="43.265663916943126" lon="10.868179818429724"><ele>384.0</ele><time>2026-03-27T13:45:48.999Z</time></trkpt><trkpt lat="43.26578208322079" lon="10.868181165246087"><ele>384.0</ele><time>2026-03-27T13:45:49.999Z</time></trkpt><trkpt lat="43.2659007460529" lon="10.868141957323498"><ele>384.0</ele><time>2026-03-27T13:45:50.999Z</time></trkpt><trkpt lat="43.265984263095795" lon="10.868138171364816"><ele>384.0</ele><time>2026-03-27T13:45:51.999Z</time></trkpt><trkpt lat="43.266075428796796" lon="10.868218455363309"><ele>384.0</ele><time>2026-03-27T13:45:53.999Z</time></trkpt><trkpt lat="43.266085284647794" lon="10.868305617271924"><ele>384.0</ele><time>2026-03-27T13:45:54.999Z</time></trkpt><trkpt lat="43.26605708760561" lon="10.868394755057146"><ele>384.0</ele><time>2026-03-27T13:45:55.999Z</time></trkpt><trkpt lat="43.26598036028435" lon="10.86841170801239"><ele>384.0</ele><time>2026-03-27T13:45:56.999Z</time></trkpt><trkpt lat="43.26590664725279" lon="10.868399190702473"><ele>384.0</ele><time>2026-03-27T13:45:57.999Z</time></trkpt><trkpt lat="43.2658144300197" lon="10.868451342185573"><ele>384.0</ele><time>2026-03-27T13:45:58.999Z</time></trkpt><trkpt lat="43.26570152504273" lon="10.868526002872125"><ele>384.0</ele><time>2026-03-27T13:45:59.999Z</time></trkpt><trkpt lat="43.265610010128405" lon="10.868629545609986"><ele>388.5</ele><time>2026-03-27T13:46:00.999Z</time></trkpt><trkpt lat="43.26554178354368" lon="10.86874813804377"><ele>393.0</ele><time>2026-03-27T13:46:01.999Z</time></trkpt><trkpt lat="43.265470658329185" lon="10.868895410842532"><ele>397.5</ele><time>2026-03-27T13:46:02.999Z</time></trkpt><trkpt lat="43.26540525281552" lon="10.869059820489605"><ele>402.0</ele><time>2026-03-27T13:46:03.999Z</time></trkpt><trkpt lat="43.26532836469264" lon="10.869192320710763"><ele>402.0</ele><time>2026-03-27T13:46:04.999Z</time></trkpt><trkpt lat="43.26526064059213" lon="10.869304284917357"><ele>402.0</ele><time>2026-03-27T13:46:05.999Z</time></trkpt><trkpt lat="43.2652069925133" lon="10.869373097491817"><ele>402.0</ele><time>2026-03-27T13:46:06.999Z</time></trkpt><trkpt lat="43.26514373082441" lon="10.869380938035302"><ele>402.0</ele><time>2026-03-27T13:46:07.999Z</time></trkpt><trkpt lat="43.26505388868864" lon="10.869350729112401"><ele>402.0</ele><time>2026-03-27T13:46:08.999Z</time></trkpt><trkpt lat="43.26497295871371" lon="10.869286928893072"><ele>402.0</ele><time>2026-03-27T13:46:09.999Z</time></trkpt><trkpt lat="43.26489882492586" lon="10.869208233211468"><ele>402.0</ele><time>2026-03-27T13:46:10.999Z</time></trkpt><trkpt lat="43.26479836954069" lon="10.869087930607101"><ele>402.0</ele><time>2026-03-27T13:46:13.999Z</time></trkpt><trkpt lat="43.26471765597899" lon="10.869119572284246"><ele>402.0</ele><time>2026-03-27T13:46:15.999Z</time></trkpt><trkpt lat="43.264601974265396" lon="10.869126246891724"><ele>402.0</ele><time>2026-03-27T13:46:17.999Z</time></trkpt><trkpt lat="43.264598910288626" lon="10.869619742641788"><ele>401.1666666666667</ele><time>2026-03-27T13:46:18.999Z</time></trkpt><trkpt lat="43.26456157708912" lon="10.86969030076779"><ele>400.33333333333337</ele><time>2026-03-27T13:46:19.999Z</time></trkpt><trkpt lat="43.264505196792726" lon="10.86981042882083"><ele>399.5</ele><time>2026-03-27T13:46:21.999Z</time></trkpt><trkpt lat="43.26445040670438" lon="10.869895314135483"><ele>398.6666666666667</ele><time>2026-03-27T13:46:23.999Z</time></trkpt><trkpt lat="43.2643692580115" lon="10.869962093743894"><ele>397.83333333333337</ele><time>2026-03-27T13:46:25.999Z</time></trkpt><trkpt lat="43.264313726371164" lon="10.870030967478293"><ele>397.0</ele><time>2026-03-27T13:46:27.999Z</time></trkpt><trkpt lat="43.26425920107651" lon="10.870084992847937"><ele>398.1666666666667</ele><time>2026-03-27T13:46:29.999Z</time></trkpt><trkpt lat="43.26419245375869" lon="10.870144801624942"><ele>399.33333333333337</ele><time>2026-03-27T13:46:31.999Z</time></trkpt><trkpt lat="43.26414397278097" lon="10.870214058307234"><ele>400.5</ele><time>2026-03-27T13:46:33.999Z</time></trkpt><trkpt lat="43.26407731097844" lon="10.870256604409608"><ele>401.66666666666663</ele><time>2026-03-27T13:46:36.999Z</time></trkpt><trkpt lat="43.263995536664765" lon="10.870317218323276"><ele>402.8333333333333</ele><time>2026-03-27T13:46:39.999Z</time></trkpt><trkpt lat="43.263909715768214" lon="10.870351299200074"><ele>404.0</ele><time>2026-03-27T13:46:41.999Z</time></trkpt><trkpt lat="43.26381774495884" lon="10.870461552812337"><ele>399.2</ele><time>2026-03-27T13:46:43.999Z</time></trkpt><trkpt lat="43.263738394581026" lon="10.870588603159705"><ele>394.4</ele><time>2026-03-27T13:46:45.999Z</time></trkpt><trkpt lat="43.26372381460496" lon="10.870688677220931"><ele>389.6</ele><time>2026-03-27T13:46:46.999Z</time></trkpt><trkpt lat="43.26368875008392" lon="10.870795344959015"><ele>384.8</ele><time>2026-03-27T13:46:47.999Z</time></trkpt><trkpt lat="43.26365088597981" lon="10.870949537744385"><ele>380.0</ele><time>2026-03-27T13:46:49.999Z</time></trkpt><trkpt lat="43.26360039088641" lon="10.871081627958345"><ele>380.0</ele><time>2026-03-27T13:46:51.999Z</time></trkpt><trkpt lat="43.26353837371106" lon="10.871177920480784"><ele>380.0</ele><time>2026-03-27T13:46:53.999Z</time></trkpt><trkpt lat="43.26347543630568" lon="10.87127634474793"><ele>380.0</ele><time>2026-03-27T13:46:55.999Z</time></trkpt><trkpt lat="43.26341225292085" lon="10.871397713357087"><ele>380.0</ele><time>2026-03-27T13:46:58.999Z</time></trkpt><trkpt lat="43.26339183438358" lon="10.871510276147418"><ele>380.0</ele><time>2026-03-27T13:47:02Z</time></trkpt><trkpt lat="43.263329937392314" lon="10.87161449119037"><ele>380.0</ele><time>2026-03-27T13:47:04Z</time></trkpt><trkpt lat="43.263319438456" lon="10.87173573104847"><ele>380.0</ele><time>2026-03-27T13:47:08Z</time></trkpt><trkpt lat="43.26330322344659" lon="10.871829519157764"><ele>380.0</ele><time>2026-03-27T13:47:10Z</time></trkpt><trkpt lat="43.26327991809662" lon="10.871953155952898"><ele>380.0</ele><time>2026-03-27T13:47:11Z</time></trkpt><trkpt lat="43.263238065192496" lon="10.872097152806795"><ele>380.0</ele><time>2026-03-27T13:47:12Z</time></trkpt><trkpt lat="43.26319995123382" lon="10.87223874664093"><ele>380.6</ele><time>2026-03-27T13:47:13Z</time></trkpt><trkpt lat="43.2631653204528" lon="10.87236970546563"><ele>381.2</ele><time>2026-03-27T13:47:14Z</time></trkpt><trkpt lat="43.26316672958769" lon="10.872495423554604"><ele>381.79999999999995</ele><time>2026-03-27T13:47:15Z</time></trkpt><trkpt lat="43.26311014488927" lon="10.872651666367245"><ele>382.4</ele><time>2026-03-27T13:47:16Z</time></trkpt><trkpt lat="43.26305534369217" lon="10.872762527706428"><ele>383.0</ele><time>2026-03-27T13:47:17Z</time></trkpt><trkpt lat="43.263011284323575" lon="10.87284398586959"><ele>377.1666666666667</ele><time>2026-03-27T13:47:18Z</time></trkpt><trkpt lat="43.26301531573907" lon="10.872990287373687"><ele>371.33333333333337</ele><time>2026-03-27T13:47:20Z</time></trkpt><trkpt lat="43.26299662484559" lon="10.873094714687783"><ele>365.5</ele><time>2026-03-27T13:47:21Z</time></trkpt><trkpt lat="43.262993839937295" lon="10.873192347759703"><ele>359.6666666666667</ele><time>2026-03-27T13:47:22Z</time></trkpt><trkpt lat="43.26300071078575" lon="10.87330302982486"><ele>353.8333333333333</ele><time>2026-03-27T13:47:23Z</time></trkpt><trkpt lat="43.263000965501234" lon="10.873400241956203"><ele>348.0</ele><time>2026-03-27T13:47:24Z</time></trkpt><trkpt lat="43.26302128542845" lon="10.873603928911804"><ele>347.0</ele><time>2026-03-27T13:47:26Z</time></trkpt><trkpt lat="43.26302005345324" lon="10.873742270139962"><ele>346.0</ele><time>2026-03-27T13:47:28Z</time></trkpt><trkpt lat="43.26296619379887" lon="10.873839397707837"><ele>345.0</ele><time>2026-03-27T13:47:30Z</time></trkpt><trkpt lat="43.26292147985916" lon="10.8739755604313"><ele>344.0</ele><time>2026-03-27T13:47:32Z</time></trkpt><trkpt lat="43.262939269469314" lon="10.87407650612028"><ele>343.0</ele><time>2026-03-27T13:47:33Z</time></trkpt><trkpt lat="43.262952397623074" lon="10.87418006154285"><ele>342.66666666666663</ele><time>2026-03-27T13:47:34Z</time></trkpt><trkpt lat="43.26295376946756" lon="10.874280872961952"><ele>342.3333333333333</ele><time>2026-03-27T13:47:35Z</time></trkpt><trkpt lat="43.262962481109746" lon="10.874396417602735"><ele>342.0</ele><time>2026-03-27T13:47:36Z</time></trkpt><trkpt lat="43.26301903868439" lon="10.874501454152494"><ele>341.6666666666667</ele><time>2026-03-27T13:47:37Z</time></trkpt><trkpt lat="43.26302732965233" lon="10.874596670611785"><ele>341.33333333333337</ele><time>2026-03-27T13:47:38Z</time></trkpt><trkpt lat="43.26302726117952" lon="10.874700503559133"><ele>341.0</ele><time>2026-03-27T13:47:39Z</time></trkpt><trkpt lat="43.26301628194604" lon="10.874818498738291"><ele>341.0</ele><time>2026-03-27T13:47:40Z</time></trkpt><trkpt lat="43.26301121812308" lon="10.874981187946247"><ele>341.0</ele><time>2026-03-27T13:47:42Z</time></trkpt><trkpt lat="43.26298711359851" lon="10.87509463836153"><ele>341.0</ele><time>2026-03-27T13:47:44Z</time></trkpt><trkpt lat="43.26300110108988" lon="10.875230710040377"><ele>341.0</ele><time>2026-03-27T13:47:46Z</time></trkpt><trkpt lat="43.26301488444751" lon="10.875391787379078"><ele>341.0</ele><time>2026-03-27T13:47:48Z</time></trkpt><trkpt lat="43.26307501041106" lon="10.875450441643304"><ele>341.0</ele><time>2026-03-27T13:47:50.999Z</time></trkpt><trkpt lat="43.26310313117156" lon="10.875539696892154"><ele>341.0</ele><time>2026-03-27T13:47:52.999Z</time></trkpt><trkpt lat="43.26313289803819" lon="10.875640959485725"><ele>341.0</ele><time>2026-03-27T13:47:55.999Z</time></trkpt><trkpt lat="43.263134029910844" lon="10.875746172354855"><ele>341.0</ele><time>2026-03-27T13:47:58.999Z</time></trkpt><trkpt lat="43.26314694227072" lon="10.875851537200397"><ele>341.0</ele><time>2026-03-27T13:48:01.999Z</time></trkpt><trkpt lat="43.263187771192456" lon="10.875929256689215"><ele>341.0</ele><time>2026-03-27T13:48:04.999Z</time></trkpt><trkpt lat="43.263225396156514" lon="10.876018117537672"><ele>341.0</ele><time>2026-03-27T13:48:07.999Z</time></trkpt><trkpt lat="43.263268076190904" lon="10.87608443842906"><ele>339.0</ele><time>2026-03-27T13:48:10.999Z</time></trkpt><trkpt lat="43.263299707921654" lon="10.87618136467818"><ele>337.0</ele><time>2026-03-27T13:48:13.999Z</time></trkpt><trkpt lat="43.263324373798035" lon="10.876290477846679"><ele>335.0</ele><time>2026-03-27T13:48:17.999Z</time></trkpt><trkpt lat="43.26328150102065" lon="10.876392496085307"><ele>333.0</ele><time>2026-03-27T13:48:22.999Z</time></trkpt><trkpt lat="43.263308582672224" lon="10.876471435923284"><ele>331.0</ele><time>2026-03-27T13:48:23.999Z</time></trkpt><trkpt lat="43.26340031265741" lon="10.876467817185386"><ele>329.0</ele><time>2026-03-27T13:48:25.999Z</time></trkpt><trkpt lat="43.26342630608849" lon="10.876566325625312"><ele>329.0</ele><time>2026-03-27T13:48:29.999Z</time></trkpt><trkpt lat="43.26344952913843" lon="10.876651362359764"><ele>329.0</ele><time>2026-03-27T13:48:32.999Z</time></trkpt><trkpt lat="43.26349928128353" lon="10.876734952116959"><ele>329.0</ele><time>2026-03-27T13:49:43Z</time></trkpt><trkpt lat="43.26356164069575" lon="10.876818140221138"><ele>329.0</ele><time>2026-03-27T13:49:45Z</time></trkpt><trkpt lat="43.26361051060658" lon="10.876879527210196"><ele>329.0</ele><time>2026-03-27T13:49:47Z</time></trkpt><trkpt lat="43.26365417782756" lon="10.87695900981068"><ele>329.0</ele><time>2026-03-27T13:49:52Z</time></trkpt><trkpt lat="43.26369437701539" lon="10.877051538156609"><ele>329.0</ele><time>2026-03-27T13:49:54Z</time></trkpt><trkpt lat="43.26376284513512" lon="10.877138586009421"><ele>329.33333333333337</ele><time>2026-03-27T13:49:59Z</time></trkpt><trkpt lat="43.2636689312252" lon="10.877194411803208"><ele>329.6666666666667</ele><time>2026-03-27T13:50:10Z</time></trkpt><trkpt lat="43.263601952365214" lon="10.8772201739952"><ele>330.0</ele><time>2026-03-27T13:50:11Z</time></trkpt><trkpt lat="43.26353526012789" lon="10.877253953059704"><ele>330.3333333333333</ele><time>2026-03-27T13:50:12Z</time></trkpt><trkpt lat="43.263438238815176" lon="10.877234759880622"><ele>330.66666666666663</ele><time>2026-03-27T13:50:13.999Z</time></trkpt><trkpt lat="43.263368910717645" lon="10.87720089827713"><ele>331.0</ele><time>2026-03-27T13:50:14.999Z</time></trkpt><trkpt lat="43.26328289776898" lon="10.877206524177895"><ele>331.0</ele><time>2026-03-27T13:50:16.999Z</time></trkpt><trkpt lat="43.26319157588026" lon="10.87724559542273"><ele>331.0</ele><time>2026-03-27T13:50:18.999Z</time></trkpt><trkpt lat="43.263161983330484" lon="10.877341204083782"><ele>331.0</ele><time>2026-03-27T13:50:21.999Z</time></trkpt><trkpt lat="43.263095090923336" lon="10.87745046645353"><ele>331.0</ele><time>2026-03-27T13:50:24.999Z</time></trkpt><trkpt lat="43.26297003788822" lon="10.877484432060823"><ele>331.0</ele><time>2026-03-27T13:50:26.999Z</time></trkpt><trkpt lat="43.26290540145179" lon="10.87751193954996"><ele>333.5</ele><time>2026-03-27T13:50:27.999Z</time></trkpt><trkpt lat="43.26284485985893" lon="10.87754504928442"><ele>336.0</ele><time>2026-03-27T13:50:29.999Z</time></trkpt><trkpt lat="43.26279707968934" lon="10.87748490916954"><ele>338.5</ele><time>2026-03-27T13:50:31.999Z</time></trkpt><trkpt lat="43.26271449188961" lon="10.877389458182948"><ele>341.0</ele><time>2026-03-27T13:50:33.999Z</time></trkpt><trkpt lat="43.26265650784104" lon="10.877306203366304"><ele>343.5</ele><time>2026-03-27T13:50:34.999Z</time></trkpt><trkpt lat="43.26257444847287" lon="10.87727155359254"><ele>346.0</ele><time>2026-03-27T13:50:35.999Z</time></trkpt><trkpt lat="43.26250200996663" lon="10.877269074367792"><ele>346.0</ele><time>2026-03-27T13:50:36.999Z</time></trkpt><trkpt lat="43.26240000639598" lon="10.877176272686764"><ele>346.0</ele><time>2026-03-27T13:50:38.999Z</time></trkpt><trkpt lat="43.26232778509949" lon="10.877122783248291"><ele>346.0</ele><time>2026-03-27T13:50:39.999Z</time></trkpt><trkpt lat="43.26226042158954" lon="10.87712125487091"><ele>346.0</ele><time>2026-03-27T13:50:40.999Z</time></trkpt><trkpt lat="43.26220252846396" lon="10.877082792274894"><ele>346.0</ele><time>2026-03-27T13:50:41.999Z</time></trkpt><trkpt lat="43.26213576943254" lon="10.877070851143166"><ele>346.0</ele><time>2026-03-27T13:50:42.999Z</time></trkpt><trkpt lat="43.262064272524945" lon="10.877042306113246"><ele>347.5</ele><time>2026-03-27T13:50:43.999Z</time></trkpt><trkpt lat="43.26196696062069" lon="10.877000905458317"><ele>349.0</ele><time>2026-03-27T13:50:45.999Z</time></trkpt><trkpt lat="43.261885842183595" lon="10.87704590829135"><ele>350.5</ele><time>2026-03-27T13:50:47.999Z</time></trkpt><trkpt lat="43.2617802872988" lon="10.877051969699359"><ele>352.0</ele><time>2026-03-27T13:50:49.999Z</time></trkpt><trkpt lat="43.26170656017373" lon="10.877025238326853"><ele>353.5</ele><time>2026-03-27T13:50:50.999Z</time></trkpt><trkpt lat="43.26163819442797" lon="10.877024267848379"><ele>355.0</ele><time>2026-03-27T13:50:51.999Z</time></trkpt><trkpt lat="43.261529865054705" lon="10.876975695009603"><ele>355.0</ele><time>2026-03-27T13:50:53.999Z</time></trkpt><trkpt lat="43.261479198682984" lon="10.876839270942456"><ele>355.0</ele><time>2026-03-27T13:50:55.999Z</time></trkpt><trkpt lat="43.26141653605289" lon="10.876755403309067"><ele>355.0</ele><time>2026-03-27T13:50:57.999Z</time></trkpt><trkpt lat="43.26134211239453" lon="10.876811694431666"><ele>355.0</ele><time>2026-03-27T13:51:16Z</time></trkpt><trkpt lat="43.26132588450543" lon="10.876946078678726"><ele>355.0</ele><time>2026-03-27T13:51:18Z</time></trkpt><trkpt lat="43.26130950369272" lon="10.877062019472397"><ele>355.6</ele><time>2026-03-27T13:51:20Z</time></trkpt><trkpt lat="43.26133894892504" lon="10.877212120514859"><ele>356.2</ele><time>2026-03-27T13:51:22Z</time></trkpt><trkpt lat="43.2613313961678" lon="10.877343401423555"><ele>356.79999999999995</ele><time>2026-03-27T13:51:24Z</time></trkpt><trkpt lat="43.26125476112713" lon="10.877401874448458"><ele>357.4</ele><time>2026-03-27T13:51:26Z</time></trkpt><trkpt lat="43.26118880543405" lon="10.877485208405117"><ele>358.0</ele><time>2026-03-27T13:51:28Z</time></trkpt><trkpt lat="43.26124277809618" lon="10.877645907431427"><ele>356.3333333333333</ele><time>2026-03-27T13:51:30Z</time></trkpt><trkpt lat="43.26127781366095" lon="10.877770673385488"><ele>354.66666666666663</ele><time>2026-03-27T13:51:32Z</time></trkpt><trkpt lat="43.26123963051265" lon="10.877890510277043"><ele>353.0</ele><time>2026-03-27T13:51:34Z</time></trkpt><trkpt lat="43.261214144095895" lon="10.87797810948664"><ele>351.3333333333333</ele><time>2026-03-27T13:51:35Z</time></trkpt><trkpt lat="43.26117066940105" lon="10.878099074577293"><ele>349.6666666666667</ele><time>2026-03-27T13:51:37Z</time></trkpt><trkpt lat="43.26110860725778" lon="10.878163153416802"><ele>348.0</ele><time>2026-03-27T13:51:39Z</time></trkpt><trkpt lat="43.26102070577038" lon="10.878196491218937"><ele>348.0</ele><time>2026-03-27T13:51:42Z</time></trkpt><trkpt lat="43.260936746721825" lon="10.878247453924388"><ele>348.0</ele><time>2026-03-27T13:51:44Z</time></trkpt><trkpt lat="43.26082623014616" lon="10.87830726282723"><ele>348.0</ele><time>2026-03-27T13:51:46Z</time></trkpt><trkpt lat="43.260740176723935" lon="10.878284133231382"><ele>348.0</ele><time>2026-03-27T13:51:48Z</time></trkpt><trkpt lat="43.26066776441657" lon="10.878262819659264"><ele>348.0</ele><time>2026-03-27T13:51:50Z</time></trkpt><trkpt lat="43.260602393346645" lon="10.87830210309368"><ele>348.0</ele><time>2026-03-27T13:51:52Z</time></trkpt><trkpt lat="43.260533801633706" lon="10.878343207851028"><ele>349.42857142857144</ele><time>2026-03-27T13:52:00Z</time></trkpt><trkpt lat="43.2605492042605" lon="10.878429276274986"><ele>350.8571428571429</ele><time>2026-03-27T13:52:10Z</time></trkpt><trkpt lat="43.26061309650944" lon="10.878474860516596"><ele>352.28571428571433</ele><time>2026-03-27T13:52:19.999Z</time></trkpt><trkpt lat="43.2606978472345" lon="10.878541668011"><ele>353.7142857142857</ele><time>2026-03-27T13:52:41.999Z</time></trkpt><trkpt lat="43.260745442726815" lon="10.878623423170652"><ele>355.14285714285717</ele><time>2026-03-27T13:52:44.999Z</time></trkpt><trkpt lat="43.26076940394947" lon="10.87870720813146"><ele>356.5714285714286</ele><time>2026-03-27T13:52:49.999Z</time></trkpt><trkpt lat="43.2607917178374" lon="10.878789540847526"><ele>358.0</ele><time>2026-03-27T13:53:10.999Z</time></trkpt><trkpt lat="43.2608379529011" lon="10.878851759640439"><ele>358.28571428571433</ele><time>2026-03-27T13:53:43Z</time></trkpt><trkpt lat="43.260889364854116" lon="10.878909806078628"><ele>358.57142857142856</ele><time>2026-03-27T13:54:05Z</time></trkpt><trkpt lat="43.26095130867955" lon="10.878975807584936"><ele>358.8571428571429</ele><time>2026-03-27T13:54:51.999Z</time></trkpt><trkpt lat="43.26099696993107" lon="10.879039912729537"><ele>359.14285714285717</ele><time>2026-03-27T13:55:45Z</time></trkpt><trkpt lat="43.26102734671326" lon="10.879119690107476"><ele>359.42857142857144</ele><time>2026-03-27T13:56:00Z</time></trkpt><trkpt lat="43.26108837945958" lon="10.87922050056445"><ele>359.7142857142857</ele><time>2026-03-27T13:56:04Z</time></trkpt><trkpt lat="43.261142980257056" lon="10.879271173385257"><ele>360.0</ele><time>2026-03-27T13:58:44.999Z</time></trkpt><trkpt lat="43.261228541412706" lon="10.879363824942851"><ele>361.57142857142856</ele><time>2026-03-27T13:58:47.999Z</time></trkpt><trkpt lat="43.26127383821109" lon="10.879432377180473"><ele>363.14285714285717</ele><time>2026-03-27T13:58:48.999Z</time></trkpt><trkpt lat="43.261291411421276" lon="10.879518323612025"><ele>364.7142857142857</ele><time>2026-03-27T13:58:49.999Z</time></trkpt><trkpt lat="43.26130490211314" lon="10.879645442344227"><ele>366.2857142857143</ele><time>2026-03-27T13:58:51.999Z</time></trkpt><trkpt lat="43.26135136298088" lon="10.879705683116944"><ele>367.8571428571429</ele><time>2026-03-27T13:58:53.999Z</time></trkpt><trkpt lat="43.26137002212543" lon="10.87983340758389"><ele>369.42857142857144</ele><time>2026-03-27T13:58:55.999Z</time></trkpt><trkpt lat="43.261379223578736" lon="10.879919401448197"><ele>371.0</ele><time>2026-03-27T13:58:56.999Z</time></trkpt><trkpt lat="43.26136599779933" lon="10.880063311333663"><ele>371.0</ele><time>2026-03-27T13:58:58.999Z</time></trkpt><trkpt lat="43.261300256903354" lon="10.880192772691776"><ele>371.0</ele><time>2026-03-27T13:59:00.999Z</time></trkpt><trkpt lat="43.261231533064816" lon="10.880233725830976"><ele>371.0</ele><time>2026-03-27T13:59:01.999Z</time></trkpt><trkpt lat="43.26114843531122" lon="10.880297053142316"><ele>371.0</ele><time>2026-03-27T13:59:02.999Z</time></trkpt><trkpt lat="43.261075956056075" lon="10.88036592271418"><ele>371.0</ele><time>2026-03-27T13:59:03.999Z</time></trkpt><trkpt lat="43.2610328535025" lon="10.880450336527119"><ele>371.0</ele><time>2026-03-27T13:59:04.999Z</time></trkpt><trkpt lat="43.26095813034426" lon="10.880558391793619"><ele>371.0</ele><time>2026-03-27T13:59:06.999Z</time></trkpt><trkpt lat="43.260916511812525" lon="10.88062331143646"><ele>371.0</ele><time>2026-03-27T13:59:07.999Z</time></trkpt><trkpt lat="43.260864612685594" lon="10.880700878955633"><ele>371.0</ele><time>2026-03-27T13:59:08.999Z</time></trkpt><trkpt lat="43.260795159096" lon="10.880755049295475"><ele>371.0</ele><time>2026-03-27T13:59:10.999Z</time></trkpt><trkpt lat="43.26072213390082" lon="10.880767554712456"><ele>371.0</ele><time>2026-03-27T13:59:21.999Z</time></trkpt><trkpt lat="43.26071228794142" lon="10.880680139003134"><ele>371.0</ele><time>2026-03-27T13:59:24.999Z</time></trkpt><trkpt lat="43.260732015297606" lon="10.880560313052536"><ele>371.0</ele><time>2026-03-27T13:59:45Z</time></trkpt><trkpt lat="43.26072081858738" lon="10.880441534549274"><ele>371.0</ele><time>2026-03-27T13:59:46Z</time></trkpt><trkpt lat="43.260706384151675" lon="10.880319878470594"><ele>371.0</ele><time>2026-03-27T13:59:47Z</time></trkpt><trkpt lat="43.26071607461733" lon="10.88021563764522"><ele>371.0</ele><time>2026-03-27T13:59:48Z</time></trkpt><trkpt lat="43.26075008957915" lon="10.880118957143416"><ele>371.0</ele><time>2026-03-27T13:59:49Z</time></trkpt><trkpt lat="43.26079393722859" lon="10.8800387913565"><ele>371.0</ele><time>2026-03-27T13:59:50Z</time></trkpt><trkpt lat="43.26086430723663" lon="10.879978374515177"><ele>371.0</ele><time>2026-03-27T13:59:51Z</time></trkpt><trkpt lat="43.26092304465336" lon="10.879837130266987"><ele>371.0</ele><time>2026-03-27T13:59:53Z</time></trkpt><trkpt lat="43.260833501220155" lon="10.87970737185408"><ele>371.0</ele><time>2026-03-27T13:59:55Z</time></trkpt><trkpt lat="43.26076166357274" lon="10.879624475614843"><ele>371.0</ele><time>2026-03-27T13:59:56Z</time></trkpt><trkpt lat="43.26069221564263" lon="10.879542446796759"><ele>371.0</ele><time>2026-03-27T13:59:57Z</time></trkpt><trkpt lat="43.260702299517725" lon="10.879634127678209"><ele>371.0</ele><time>2026-03-27T14:00:16Z</time></trkpt><trkpt lat="43.26063713172028" lon="10.879653139855709"><ele>374.4</ele><time>2026-03-27T14:00:18Z</time></trkpt><trkpt lat="43.2605555731005" lon="10.879666782829037"><ele>377.8</ele><time>2026-03-27T14:00:20Z</time></trkpt><trkpt lat="43.26043582388859" lon="10.879725530047004"><ele>381.2</ele><time>2026-03-27T14:00:22Z</time></trkpt><trkpt lat="43.26033255598615" lon="10.879786275514135"><ele>384.59999999999997</ele><time>2026-03-27T14:00:24Z</time></trkpt><trkpt lat="43.260285512728906" lon="10.87968230737558"><ele>388.0</ele><time>2026-03-27T14:00:26Z</time></trkpt><trkpt lat="43.26022131719464" lon="10.879620816423142"><ele>388.0</ele><time>2026-03-27T14:00:28Z</time></trkpt><trkpt lat="43.260163996057216" lon="10.879675959253856"><ele>388.0</ele><time>2026-03-27T14:00:31Z</time></trkpt><trkpt lat="43.260089215419086" lon="10.87969564919162"><ele>388.0</ele><time>2026-03-27T14:00:32Z</time></trkpt><trkpt lat="43.26001108525977" lon="10.879588070950824"><ele>388.0</ele><time>2026-03-27T14:00:33.999Z</time></trkpt><trkpt lat="43.25996227813443" lon="10.879465668581556"><ele>388.0</ele><time>2026-03-27T14:00:34.999Z</time></trkpt><trkpt lat="43.25991445849638" lon="10.879325835080358"><ele>386.83333333333337</ele><time>2026-03-27T14:00:35.999Z</time></trkpt><trkpt lat="43.25984645605698" lon="10.879225560558783"><ele>385.6666666666667</ele><time>2026-03-27T14:00:36.999Z</time></trkpt><trkpt lat="43.259778914814234" lon="10.879140048408953"><ele>384.5</ele><time>2026-03-27T14:00:37.999Z</time></trkpt><trkpt lat="43.259719146810504" lon="10.87907132683263"><ele>383.33333333333337</ele><time>2026-03-27T14:00:38.999Z</time></trkpt><trkpt lat="43.25964594173586" lon="10.879059297437996"><ele>382.1666666666667</ele><time>2026-03-27T14:00:40.999Z</time></trkpt><trkpt lat="43.25962236636334" lon="10.87917887720391"><ele>381.0</ele><time>2026-03-27T14:00:42.999Z</time></trkpt><trkpt lat="43.25967783666176" lon="10.879278052600169"><ele>382.75</ele><time>2026-03-27T14:00:43.999Z</time></trkpt><trkpt lat="43.259748745612" lon="10.879371687677907"><ele>384.5</ele><time>2026-03-27T14:00:44.999Z</time></trkpt><trkpt lat="43.259835926581665" lon="10.879492138536241"><ele>386.25</ele><time>2026-03-27T14:00:45.999Z</time></trkpt><trkpt lat="43.25989649750292" lon="10.879667805315878"><ele>388.0</ele><time>2026-03-27T14:00:46.999Z</time></trkpt><trkpt lat="43.25993370232377" lon="10.879849838684592"><ele>388.0</ele><time>2026-03-27T14:00:47.999Z</time></trkpt><trkpt lat="43.259909540005154" lon="10.880059355246527"><ele>388.0</ele><time>2026-03-27T14:00:48.999Z</time></trkpt><trkpt lat="43.25981119440678" lon="10.88031019393317"><ele>388.0</ele><time>2026-03-27T14:00:49.999Z</time></trkpt><trkpt lat="43.25981161375886" lon="10.880563995060857"><ele>387.33333333333337</ele><time>2026-03-27T14:00:50.999Z</time></trkpt><trkpt lat="43.2598514168906" lon="10.880792261223634"><ele>386.66666666666663</ele><time>2026-03-27T14:00:51.999Z</time></trkpt><trkpt lat="43.25990981975027" lon="10.88098493911376"><ele>386.0</ele><time>2026-03-27T14:00:52.999Z</time></trkpt><trkpt lat="43.2599580672462" lon="10.881190970647863"><ele>386.0</ele><time>2026-03-27T14:00:53.999Z</time></trkpt><trkpt lat="43.26002491160492" lon="10.881366978583833"><ele>386.0</ele><time>2026-03-27T14:00:54.999Z</time></trkpt><trkpt lat="43.26008631490523" lon="10.881547102817114"><ele>386.0</ele><time>2026-03-27T14:00:55.999Z</time></trkpt><trkpt lat="43.2600918364857" lon="10.881692169801664"><ele>386.0</ele><time>2026-03-27T14:00:56.999Z</time></trkpt><trkpt lat="43.26011285946715" lon="10.881862478105198"><ele>384.8</ele><time>2026-03-27T14:00:57.999Z</time></trkpt><trkpt lat="43.260126551036436" lon="10.881994353312045"><ele>383.6</ele><time>2026-03-27T14:00:58.999Z</time></trkpt><trkpt lat="43.26012736973246" lon="10.882098653353994"><ele>382.4</ele><time>2026-03-27T14:00:59.999Z</time></trkpt><trkpt lat="43.26014676625748" lon="10.882182071311467"><ele>381.2</ele><time>2026-03-27T14:01:01.999Z</time></trkpt><trkpt lat="43.25996702665519" lon="10.882320152282691"><ele>380.0</ele><time>2026-03-27T14:01:03.999Z</time></trkpt><trkpt lat="43.26002279641633" lon="10.882439284017703"><ele>380.0</ele><time>2026-03-27T14:01:05.999Z</time></trkpt><trkpt lat="43.26007498698014" lon="10.882509538576125"><ele>380.0</ele><time>2026-03-27T14:01:06.999Z</time></trkpt><trkpt lat="43.2601198335395" lon="10.8826080736743"><ele>380.0</ele><time>2026-03-27T14:01:07.999Z</time></trkpt><trkpt lat="43.26016378968404" lon="10.88270926607249"><ele>380.0</ele><time>2026-03-27T14:01:08.999Z</time></trkpt><trkpt lat="43.260203133797155" lon="10.882782493543452"><ele>380.0</ele><time>2026-03-27T14:01:09.999Z</time></trkpt><trkpt lat="43.26025444442823" lon="10.882870409490428"><ele>380.0</ele><time>2026-03-27T14:01:11.999Z</time></trkpt><trkpt lat="43.260157405701015" lon="10.882923223929541"><ele>379.8</ele><time>2026-03-27T14:01:14.999Z</time></trkpt><trkpt lat="43.26002863362647" lon="10.882957878388389"><ele>379.6</ele><time>2026-03-27T14:01:16.999Z</time></trkpt><trkpt lat="43.25995438745614" lon="10.88297637554131"><ele>379.4</ele><time>2026-03-27T14:01:17.999Z</time></trkpt><trkpt lat="43.25988657739287" lon="10.882989006964555"><ele>379.2</ele><time>2026-03-27T14:01:18.999Z</time></trkpt><trkpt lat="43.25980996571266" lon="10.883023292546543"><ele>379.0</ele><time>2026-03-27T14:01:19.999Z</time></trkpt><trkpt lat="43.25971215528101" lon="10.883027476610872"><ele>379.0</ele><time>2026-03-27T14:01:20.999Z</time></trkpt><trkpt lat="43.25960023700711" lon="10.883048331029352"><ele>379.0</ele><time>2026-03-27T14:01:21.999Z</time></trkpt><trkpt lat="43.25953381664579" lon="10.883057676156689"><ele>379.0</ele><time>2026-03-27T14:01:22.999Z</time></trkpt><trkpt lat="43.25947552195876" lon="10.883097063174542"><ele>379.0</ele><time>2026-03-27T14:01:23.999Z</time></trkpt><trkpt lat="43.259411738257135" lon="10.883171706470167"><ele>379.0</ele><time>2026-03-27T14:01:25.999Z</time></trkpt><trkpt lat="43.25927374781084" lon="10.88321535479124"><ele>379.0</ele><time>2026-03-27T14:01:27.999Z</time></trkpt><trkpt lat="43.25920781355224" lon="10.883265724671"><ele>379.0</ele><time>2026-03-27T14:01:28.999Z</time></trkpt><trkpt lat="43.25908492227929" lon="10.88323774794593"><ele>379.0</ele><time>2026-03-27T14:01:30.999Z</time></trkpt><trkpt lat="43.259031776719944" lon="10.883187553065355"><ele>379.0</ele><time>2026-03-27T14:01:31.999Z</time></trkpt><trkpt lat="43.25896813559306" lon="10.883213865162201"><ele>379.0</ele><time>2026-03-27T14:01:33.999Z</time></trkpt><trkpt lat="43.25890056629986" lon="10.883301094574012"><ele>379.0</ele><time>2026-03-27T14:01:35.999Z</time></trkpt><trkpt lat="43.258808005151835" lon="10.883374067531902"><ele>380.5</ele><time>2026-03-27T14:01:37.999Z</time></trkpt><trkpt lat="43.25871844653254" lon="10.88335698400122"><ele>382.0</ele><time>2026-03-27T14:01:39.999Z</time></trkpt><trkpt lat="43.25860752377718" lon="10.883352371185198"><ele>383.5</ele><time>2026-03-27T14:01:41.999Z</time></trkpt><trkpt lat="43.25853305604729" lon="10.883374969650268"><ele>385.0</ele><time>2026-03-27T14:01:44Z</time></trkpt><trkpt lat="43.25845887303013" lon="10.883380833393174"><ele>386.50000000000006</ele><time>2026-03-27T14:01:45Z</time></trkpt><trkpt lat="43.25839259916502" lon="10.883385512050753"><ele>388.0</ele><time>2026-03-27T14:01:46Z</time></trkpt><trkpt lat="43.25832858449335" lon="10.883402026576944"><ele>388.0</ele><time>2026-03-27T14:01:47Z</time></trkpt><trkpt lat="43.25821925070742" lon="10.883335551170404"><ele>388.0</ele><time>2026-03-27T14:01:49Z</time></trkpt><trkpt lat="43.25812045334999" lon="10.88336253415247"><ele>388.0</ele><time>2026-03-27T14:01:51Z</time></trkpt><trkpt lat="43.25800425127873" lon="10.883369821627287"><ele>388.0</ele><time>2026-03-27T14:01:53Z</time></trkpt><trkpt lat="43.25793773623229" lon="10.883357712454169"><ele>388.0</ele><time>2026-03-27T14:01:54Z</time></trkpt><trkpt lat="43.2578739814094" lon="10.88337549874009"><ele>389.5</ele><time>2026-03-27T14:01:55Z</time></trkpt><trkpt lat="43.2577493100912" lon="10.883406722480911"><ele>391.0</ele><time>2026-03-27T14:01:57Z</time></trkpt><trkpt lat="43.25764186377333" lon="10.883411481821883"><ele>392.5</ele><time>2026-03-27T14:01:59Z</time></trkpt><trkpt lat="43.25753616114632" lon="10.883432374436753"><ele>394.0</ele><time>2026-03-27T14:02:01Z</time></trkpt><trkpt lat="43.25741911954462" lon="10.883436019461461"><ele>394.50000000000006</ele><time>2026-03-27T14:02:03Z</time></trkpt><trkpt lat="43.257344902474955" lon="10.883447159043458"><ele>395.0</ele><time>2026-03-27T14:02:04Z</time></trkpt><trkpt lat="43.25723180066918" lon="10.883455493384796"><ele>395.5</ele><time>2026-03-27T14:02:06Z</time></trkpt><trkpt lat="43.25715653556805" lon="10.883429854607808"><ele>396.0</ele><time>2026-03-27T14:02:08Z</time></trkpt><trkpt lat="43.25704704165971" lon="10.88340447509903"><ele>396.50000000000006</ele><time>2026-03-27T14:02:10Z</time></trkpt><trkpt lat="43.25698995130248" lon="10.883350758553146"><ele>397.0</ele><time>2026-03-27T14:02:11Z</time></trkpt><trkpt lat="43.25692939836634" lon="10.883303107529844"><ele>397.0</ele><time>2026-03-27T14:02:12Z</time></trkpt><trkpt lat="43.25687538338985" lon="10.883213917159344"><ele>397.0</ele><time>2026-03-27T14:02:14Z</time></trkpt><trkpt lat="43.256820122657814" lon="10.88315347051189"><ele>397.0</ele><time>2026-03-27T14:02:15Z</time></trkpt><trkpt lat="43.256765346057776" lon="10.88309748217479"><ele>397.0</ele><time>2026-03-27T14:02:16Z</time></trkpt><trkpt lat="43.25671625091017" lon="10.883040199830678"><ele>397.0</ele><time>2026-03-27T14:02:17Z</time></trkpt><trkpt lat="43.2566498045249" lon="10.883027794511333"><ele>397.0</ele><time>2026-03-27T14:02:20Z</time></trkpt><trkpt lat="43.256610961539906" lon="10.883116431041147"><ele>397.0</ele><time>2026-03-27T14:02:23Z</time></trkpt><trkpt lat="43.25661781465395" lon="10.883275997699505"><ele>397.0</ele><time>2026-03-27T14:02:25Z</time></trkpt><trkpt lat="43.25660998093547" lon="10.883373489960194"><ele>397.0</ele><time>2026-03-27T14:02:25.999Z</time></trkpt><trkpt lat="43.25660119157179" lon="10.883525518742351"><ele>397.0</ele><time>2026-03-27T14:02:27.999Z</time></trkpt><trkpt lat="43.256556488081124" lon="10.883635778566374"><ele>397.0</ele><time>2026-03-27T14:02:31.999Z</time></trkpt><trkpt lat="43.256584979166334" lon="10.883815414995869"><ele>397.0</ele><time>2026-03-27T14:02:34.999Z</time></trkpt><trkpt lat="43.25660868524329" lon="10.8839308519087"><ele>394.8</ele><time>2026-03-27T14:02:35.999Z</time></trkpt><trkpt lat="43.25662019271843" lon="10.884030066644668"><ele>392.6</ele><time>2026-03-27T14:02:36.999Z</time></trkpt><trkpt lat="43.25664496176029" lon="10.884123175085323"><ele>390.40000000000003</ele><time>2026-03-27T14:02:37.999Z</time></trkpt><trkpt lat="43.2567304034703" lon="10.884218770072938"><ele>388.20000000000005</ele><time>2026-03-27T14:02:39.999Z</time></trkpt><trkpt lat="43.256820244936996" lon="10.884308082406049"><ele>386.0</ele><time>2026-03-27T14:02:41.999Z</time></trkpt><trkpt lat="43.25694405969585" lon="10.884309886387456"><ele>382.66666666666663</ele><time>2026-03-27T14:02:43.999Z</time></trkpt><trkpt lat="43.25702044235901" lon="10.88438589410766"><ele>379.3333333333333</ele><time>2026-03-27T14:02:45.999Z</time></trkpt><trkpt lat="43.25709820905122" lon="10.88448759662534"><ele>376.0</ele><time>2026-03-27T14:02:47.999Z</time></trkpt><trkpt lat="43.25716978207822" lon="10.88452169984687"><ele>372.66666666666663</ele><time>2026-03-27T14:02:49.999Z</time></trkpt><trkpt lat="43.25724872055301" lon="10.884539939334227"><ele>369.3333333333333</ele><time>2026-03-27T14:02:51.999Z</time></trkpt><trkpt lat="43.25729547270578" lon="10.884635143457631"><ele>366.0</ele><time>2026-03-27T14:02:54.999Z</time></trkpt><trkpt lat="43.25739641696626" lon="10.88472464556427"><ele>366.0</ele><time>2026-03-27T14:02:56.999Z</time></trkpt><trkpt lat="43.257449949117465" lon="10.884778326567043"><ele>366.0</ele><time>2026-03-27T14:02:57.999Z</time></trkpt><trkpt lat="43.25751065657618" lon="10.884861522041042"><ele>366.0</ele><time>2026-03-27T14:02:59.999Z</time></trkpt><trkpt lat="43.25756181078412" lon="10.88492784637639"><ele>366.0</ele><time>2026-03-27T14:03:01.999Z</time></trkpt><trkpt lat="43.257635746537375" lon="10.884936804705957"><ele>366.0</ele><time>2026-03-27T14:03:03.999Z</time></trkpt><trkpt lat="43.25771778563475" lon="10.884907820069145"><ele>366.0</ele><time>2026-03-27T14:03:08.999Z</time></trkpt><trkpt lat="43.25777721519184" lon="10.884950792794127"><ele>366.0</ele><time>2026-03-27T14:03:09.999Z</time></trkpt><trkpt lat="43.257843597966364" lon="10.884970456814926"><ele>366.0</ele><time>2026-03-27T14:03:13.999Z</time></trkpt><trkpt lat="43.257890116748655" lon="10.884888955512753"><ele>366.0</ele><time>2026-03-27T14:03:17.999Z</time></trkpt><trkpt lat="43.25794603951973" lon="10.884940465324739"><ele>366.0</ele><time>2026-03-27T14:03:41.998Z</time></trkpt><trkpt lat="43.25804688645583" lon="10.884909115022603"><ele>366.0</ele><time>2026-03-27T14:04:09Z</time></trkpt><trkpt lat="43.25799459131733" lon="10.884837825887363"><ele>366.0</ele><time>2026-03-27T14:04:23Z</time></trkpt><trkpt lat="43.258112785668565" lon="10.884850927034824"><ele>366.0</ele><time>2026-03-27T14:06:15Z</time></trkpt><trkpt lat="43.25819729504028" lon="10.8848230438523"><ele>363.57142857142856</ele><time>2026-03-27T14:06:20Z</time></trkpt><trkpt lat="43.2582766567897" lon="10.884799086637143"><ele>361.14285714285717</ele><time>2026-03-27T14:06:23Z</time></trkpt><trkpt lat="43.2583526061716" lon="10.884784505658116"><ele>358.71428571428567</ele><time>2026-03-27T14:06:25Z</time></trkpt><trkpt lat="43.25842305565144" lon="10.884785734425522"><ele>356.2857142857143</ele><time>2026-03-27T14:06:30Z</time></trkpt><trkpt lat="43.25847907539128" lon="10.88482541877358"><ele>353.85714285714283</ele><time>2026-03-27T14:06:36Z</time></trkpt><trkpt lat="43.25851973312006" lon="10.884916481255384"><ele>351.4285714285714</ele><time>2026-03-27T14:06:43.999Z</time></trkpt><trkpt lat="43.258500672449856" lon="10.885021074795791"><ele>349.0</ele><time>2026-03-27T14:06:47.999Z</time></trkpt><trkpt lat="43.258409359587816" lon="10.88507348639908"><ele>345.99999999999994</ele><time>2026-03-27T14:06:50.999Z</time></trkpt><trkpt lat="43.2583600865615" lon="10.885127323898194"><ele>343.0</ele><time>2026-03-27T14:06:52.999Z</time></trkpt><trkpt lat="43.25833792155956" lon="10.885209774856447"><ele>340.0</ele><time>2026-03-27T14:06:55.999Z</time></trkpt><trkpt lat="43.258375057951284" lon="10.885285549750474"><ele>337.0</ele><time>2026-03-27T14:06:57.999Z</time></trkpt><trkpt lat="43.25842069539547" lon="10.885356244830941"><ele>334.0</ele><time>2026-03-27T14:07:01.999Z</time></trkpt><trkpt lat="43.25840233674387" lon="10.885452071950125"><ele>330.99999999999994</ele><time>2026-03-27T14:07:04.999Z</time></trkpt><trkpt lat="43.25837141645536" lon="10.885556786667438"><ele>328.0</ele><time>2026-03-27T14:07:19.999Z</time></trkpt><trkpt lat="43.258353359600676" lon="10.885689552076148"><ele>328.0</ele><time>2026-03-27T14:07:21.999Z</time></trkpt><trkpt lat="43.258317986273596" lon="10.885818628101845"><ele>328.0</ele><time>2026-03-27T14:07:23.999Z</time></trkpt><trkpt lat="43.258363231144045" lon="10.885890315763444"><ele>328.0</ele><time>2026-03-27T14:07:30.999Z</time></trkpt><trkpt lat="43.258449042184004" lon="10.88586592708798"><ele>328.0</ele><time>2026-03-27T14:07:34.999Z</time></trkpt><trkpt lat="43.25854835356308" lon="10.885794528555397"><ele>328.0</ele><time>2026-03-27T14:07:36.999Z</time></trkpt><trkpt lat="43.25862119204245" lon="10.885695146560712"><ele>328.0</ele><time>2026-03-27T14:07:38.999Z</time></trkpt><trkpt lat="43.258698714920044" lon="10.885675362090266"><ele>328.0</ele><time>2026-03-27T14:07:40.999Z</time></trkpt><trkpt lat="43.25872501574028" lon="10.885754304567069"><ele>328.0</ele><time>2026-03-27T14:07:42.999Z</time></trkpt><trkpt lat="43.25874677293558" lon="10.885842970058215"><ele>328.0</ele><time>2026-03-27T14:07:44.999Z</time></trkpt><trkpt lat="43.25874415945908" lon="10.885931068460055"><ele>328.0</ele><time>2026-03-27T14:07:45.999Z</time></trkpt><trkpt lat="43.25879664254091" lon="10.886002858196688"><ele>328.0</ele><time>2026-03-27T14:07:47.999Z</time></trkpt><trkpt lat="43.2589031058596" lon="10.885943823918486"><ele>323.0</ele><time>2026-03-27T14:07:50.999Z</time></trkpt><trkpt lat="43.258998066029285" lon="10.885951102961858"><ele>318.0</ele><time>2026-03-27T14:07:53.999Z</time></trkpt><trkpt lat="43.25903232719342" lon="10.886068185839688"><ele>313.0</ele><time>2026-03-27T14:07:55.999Z</time></trkpt><trkpt lat="43.25901519503458" lon="10.88619889042319"><ele>308.0</ele><time>2026-03-27T14:07:58.999Z</time></trkpt><trkpt lat="43.258980244828244" lon="10.886329258790894"><ele>303.0</ele><time>2026-03-27T14:08:00.998Z</time></trkpt><trkpt lat="43.25892381064673" lon="10.886424140291087"><ele>303.0</ele><time>2026-03-27T14:08:03Z</time></trkpt><trkpt lat="43.25890056083078" lon="10.886508617696565"><ele>303.0</ele><time>2026-03-27T14:08:05Z</time></trkpt><trkpt lat="43.258866988724535" lon="10.886582343357592"><ele>303.0</ele><time>2026-03-27T14:08:12Z</time></trkpt><trkpt lat="43.258879495751614" lon="10.886679018478642"><ele>303.0</ele><time>2026-03-27T14:08:32Z</time></trkpt><trkpt lat="43.25893501881262" lon="10.886741529645834"><ele>303.0</ele><time>2026-03-27T14:08:42Z</time></trkpt><trkpt lat="43.25893095097719" lon="10.88683166439189"><ele>303.0</ele><time>2026-03-27T14:08:56Z</time></trkpt><trkpt lat="43.25892012114808" lon="10.886917581694563"><ele>303.0</ele><time>2026-03-27T14:09:14.999Z</time></trkpt><trkpt lat="43.25894053223066" lon="10.887009704016979"><ele>300.1666666666667</ele><time>2026-03-27T14:09:16.999Z</time></trkpt><trkpt lat="43.25898742517361" lon="10.887115307727273"><ele>297.3333333333333</ele><time>2026-03-27T14:09:18.999Z</time></trkpt><trkpt lat="43.25902550255214" lon="10.887190652643353"><ele>294.5</ele><time>2026-03-27T14:09:19.999Z</time></trkpt><trkpt lat="43.25910772385108" lon="10.887243939160882"><ele>291.66666666666663</ele><time>2026-03-27T14:09:21.999Z</time></trkpt><trkpt lat="43.259197594881286" lon="10.88724260194559"><ele>288.8333333333333</ele><time>2026-03-27T14:09:22.999Z</time></trkpt><trkpt lat="43.25926403002261" lon="10.88732991171881"><ele>286.0</ele><time>2026-03-27T14:09:23.999Z</time></trkpt><trkpt lat="43.259335363346764" lon="10.88741559215908"><ele>286.0</ele><time>2026-03-27T14:09:24.999Z</time></trkpt><trkpt lat="43.25941441894183" lon="10.887499268973079"><ele>286.0</ele><time>2026-03-27T14:09:26.999Z</time></trkpt><trkpt lat="43.25956005001003" lon="10.887517572133312"><ele>286.0</ele><time>2026-03-27T14:09:28.999Z</time></trkpt><trkpt lat="43.259653131904834" lon="10.88750437633521"><ele>286.0</ele><time>2026-03-27T14:09:29.999Z</time></trkpt><trkpt lat="43.25971878322429" lon="10.887481601256074"><ele>286.0</ele><time>2026-03-27T14:09:30.999Z</time></trkpt><trkpt lat="43.259822766308034" lon="10.887436369157665"><ele>285.6</ele><time>2026-03-27T14:09:32.999Z</time></trkpt><trkpt lat="43.259830905011064" lon="10.88757737806753"><ele>285.20000000000005</ele><time>2026-03-27T14:09:34.999Z</time></trkpt><trkpt lat="43.259837937806154" lon="10.887679311702712"><ele>284.79999999999995</ele><time>2026-03-27T14:09:35.999Z</time></trkpt><trkpt lat="43.25985188945691" lon="10.887817443308467"><ele>284.4</ele><time>2026-03-27T14:09:36.999Z</time></trkpt><trkpt lat="43.259918218954965" lon="10.887929698101376"><ele>284.0</ele><time>2026-03-27T14:09:38.999Z</time></trkpt><trkpt lat="43.25999873863705" lon="10.887904490873657"><ele>284.0</ele><time>2026-03-27T14:09:39.999Z</time></trkpt><trkpt lat="43.26007963364776" lon="10.887934931469529"><ele>284.0</ele><time>2026-03-27T14:09:40.999Z</time></trkpt><trkpt lat="43.26023489536003" lon="10.887962762465637"><ele>284.0</ele><time>2026-03-27T14:09:41.999Z</time></trkpt><trkpt lat="43.26032090295282" lon="10.887968416357745"><ele>284.0</ele><time>2026-03-27T14:09:42.999Z</time></trkpt><trkpt lat="43.26041193297955" lon="10.887949704275558"><ele>284.0</ele><time>2026-03-27T14:09:43.999Z</time></trkpt><trkpt lat="43.26049452988659" lon="10.887971643641993"><ele>284.0</ele><time>2026-03-27T14:09:44.999Z</time></trkpt><trkpt lat="43.2605950004675" lon="10.888007234937046"><ele>284.0</ele><time>2026-03-27T14:09:45.999Z</time></trkpt><trkpt lat="43.26069321069705" lon="10.88804147991972"><ele>284.0</ele><time>2026-03-27T14:09:46.999Z</time></trkpt><trkpt lat="43.26079586536712" lon="10.888104293125947"><ele>284.0</ele><time>2026-03-27T14:09:47.999Z</time></trkpt><trkpt lat="43.260903174645584" lon="10.88817941042113"><ele>284.0</ele><time>2026-03-27T14:09:48.999Z</time></trkpt><trkpt lat="43.261010006651816" lon="10.888233589429236"><ele>283.8</ele><time>2026-03-27T14:09:49.999Z</time></trkpt><trkpt lat="43.26109369047902" lon="10.88833315255926"><ele>283.59999999999997</ele><time>2026-03-27T14:09:50.999Z</time></trkpt><trkpt lat="43.2611802948454" lon="10.888411472410509"><ele>283.4</ele><time>2026-03-27T14:09:51.999Z</time></trkpt><trkpt lat="43.26124507897585" lon="10.888445591286759"><ele>283.2</ele><time>2026-03-27T14:09:52.999Z</time></trkpt><trkpt lat="43.261310472692614" lon="10.888455069905856"><ele>283.0</ele><time>2026-03-27T14:09:53.999Z</time></trkpt><trkpt lat="43.26147527643014" lon="10.888401214257764"><ele>286.8333333333333</ele><time>2026-03-27T14:09:55.999Z</time></trkpt><trkpt lat="43.261585368603356" lon="10.8883237800398"><ele>290.66666666666663</ele><time>2026-03-27T14:09:56.999Z</time></trkpt><trkpt lat="43.26167263654621" lon="10.888264242903764"><ele>294.5</ele><time>2026-03-27T14:09:57.999Z</time></trkpt><trkpt lat="43.261736366392206" lon="10.88824830110258"><ele>298.3333333333333</ele><time>2026-03-27T14:09:58.999Z</time></trkpt><trkpt lat="43.26179945793246" lon="10.888233595764369"><ele>302.1666666666667</ele><time>2026-03-27T14:10:00.999Z</time></trkpt><trkpt lat="43.26184694748367" lon="10.8881710427486"><ele>306.0</ele><time>2026-03-27T14:10:02.999Z</time></trkpt><trkpt lat="43.26190709340363" lon="10.888135763869922"><ele>306.0</ele><time>2026-03-27T14:10:03.999Z</time></trkpt><trkpt lat="43.26197200446898" lon="10.888106258692856"><ele>306.0</ele><time>2026-03-27T14:10:04.999Z</time></trkpt><trkpt lat="43.26202989514829" lon="10.88805845748473"><ele>306.0</ele><time>2026-03-27T14:10:05.999Z</time></trkpt><trkpt lat="43.262104976356504" lon="10.88801102591855"><ele>306.0</ele><time>2026-03-27T14:10:06.999Z</time></trkpt><trkpt lat="43.26220718920267" lon="10.887934571393878"><ele>306.0</ele><time>2026-03-27T14:10:08Z</time></trkpt><trkpt lat="43.262324108105894" lon="10.887885708195125"><ele>305.2</ele><time>2026-03-27T14:10:09Z</time></trkpt><trkpt lat="43.26240299723735" lon="10.887803419188444"><ele>304.40000000000003</ele><time>2026-03-27T14:10:10Z</time></trkpt><trkpt lat="43.26247639864773" lon="10.887718084663948"><ele>303.6</ele><time>2026-03-27T14:10:11Z</time></trkpt><trkpt lat="43.2625815654646" lon="10.887610780994516"><ele>302.8</ele><time>2026-03-27T14:10:12Z</time></trkpt><trkpt lat="43.26260722756052" lon="10.887529197395306"><ele>302.0</ele><time>2026-03-27T14:10:13Z</time></trkpt><trkpt lat="43.262676220736836" lon="10.887471865343755"><ele>304.6666666666667</ele><time>2026-03-27T14:10:15Z</time></trkpt><trkpt lat="43.26273898883639" lon="10.887412685693128"><ele>307.33333333333337</ele><time>2026-03-27T14:10:17Z</time></trkpt><trkpt lat="43.26277904210954" lon="10.887337750839773"><ele>310.0</ele><time>2026-03-27T14:10:18Z</time></trkpt><trkpt lat="43.26281638952328" lon="10.887164038713998"><ele>312.6666666666667</ele><time>2026-03-27T14:10:19Z</time></trkpt><trkpt lat="43.26284551487683" lon="10.887073356307717"><ele>315.3333333333333</ele><time>2026-03-27T14:10:20Z</time></trkpt><trkpt lat="43.26289174309774" lon="10.886991355900971"><ele>318.0</ele><time>2026-03-27T14:10:21Z</time></trkpt><trkpt lat="43.26294148442781" lon="10.886884449746221"><ele>318.0</ele><time>2026-03-27T14:10:22Z</time></trkpt><trkpt lat="43.262990097773404" lon="10.886764127700113"><ele>318.0</ele><time>2026-03-27T14:10:23Z</time></trkpt><trkpt lat="43.2630417802142" lon="10.886659701679891"><ele>318.0</ele><time>2026-03-27T14:10:24Z</time></trkpt><trkpt lat="43.26312945557469" lon="10.886586163022915"><ele>318.0</ele><time>2026-03-27T14:10:25Z</time></trkpt><trkpt lat="43.26320835482333" lon="10.886530757015734"><ele>318.0</ele><time>2026-03-27T14:10:26Z</time></trkpt><trkpt lat="43.26328278310463" lon="10.886477352043043"><ele>320.6</ele><time>2026-03-27T14:10:27Z</time></trkpt><trkpt lat="43.263387219960855" lon="10.886436889324491"><ele>323.20000000000005</ele><time>2026-03-27T14:10:28Z</time></trkpt><trkpt lat="43.263469865718086" lon="10.886409940340164"><ele>325.8</ele><time>2026-03-27T14:10:29Z</time></trkpt><trkpt lat="43.263606562850114" lon="10.886399072312807"><ele>328.40000000000003</ele><time>2026-03-27T14:10:30Z</time></trkpt><trkpt lat="43.263720320772386" lon="10.886394984509582"><ele>331.0</ele><time>2026-03-27T14:10:31Z</time></trkpt><trkpt lat="43.26379360340718" lon="10.886401304913651"><ele>331.0</ele><time>2026-03-27T14:10:32Z</time></trkpt><trkpt lat="43.263854427195604" lon="10.886356630749342"><ele>331.0</ele><time>2026-03-27T14:10:33Z</time></trkpt><trkpt lat="43.26391017712881" lon="10.886271994093049"><ele>331.0</ele><time>2026-03-27T14:10:34Z</time></trkpt><trkpt lat="43.26396743078722" lon="10.886178040755643"><ele>331.0</ele><time>2026-03-27T14:10:35Z</time></trkpt><trkpt lat="43.2640059611494" lon="10.886049643082076"><ele>331.0</ele><time>2026-03-27T14:10:36Z</time></trkpt><trkpt lat="43.26397747413358" lon="10.885887799026085"><ele>333.8</ele><time>2026-03-27T14:10:37Z</time></trkpt><trkpt lat="43.26399790636996" lon="10.885759286296235"><ele>336.6</ele><time>2026-03-27T14:10:38Z</time></trkpt><trkpt lat="43.26401871033189" lon="10.885648298492649"><ele>339.4</ele><time>2026-03-27T14:10:39Z</time></trkpt><trkpt lat="43.26404908136311" lon="10.88555267840127"><ele>342.2</ele><time>2026-03-27T14:10:40Z</time></trkpt><trkpt lat="43.264093930781904" lon="10.885482188147812"><ele>345.0</ele><time>2026-03-27T14:10:41Z</time></trkpt><trkpt lat="43.26423974843728" lon="10.885386603278999"><ele>345.0</ele><time>2026-03-27T14:10:42Z</time></trkpt><trkpt lat="43.26437531305968" lon="10.885321387549483"><ele>345.0</ele><time>2026-03-27T14:10:43Z</time></trkpt><trkpt lat="43.264498595070314" lon="10.885321850943946"><ele>345.0</ele><time>2026-03-27T14:10:44Z</time></trkpt><trkpt lat="43.264578574293274" lon="10.885346341458963"><ele>345.0</ele><time>2026-03-27T14:10:45Z</time></trkpt><trkpt lat="43.26465195168434" lon="10.885340193850416"><ele>345.0</ele><time>2026-03-27T14:10:46Z</time></trkpt><trkpt lat="43.26472135416396" lon="10.885250932065047"><ele>345.0</ele><time>2026-03-27T14:10:48Z</time></trkpt><trkpt lat="43.26467380430883" lon="10.885182316759904"><ele>345.0</ele><time>2026-03-27T14:10:50Z</time></trkpt><trkpt lat="43.26460919386703" lon="10.885131902824375"><ele>345.0</ele><time>2026-03-27T14:12:06.999Z</time></trkpt><trkpt lat="43.26455439004776" lon="10.885066502867565"><ele>345.0</ele><time>2026-03-27T14:12:08.999Z</time></trkpt><trkpt lat="43.26457587378142" lon="10.884975106452947"><ele>345.0</ele><time>2026-03-27T14:12:30Z</time></trkpt><trkpt lat="43.264511967132066" lon="10.884871579417291"><ele>345.0</ele><time>2026-03-27T14:12:32Z</time></trkpt><trkpt lat="43.26447959581013" lon="10.88475939768167"><ele>346.5</ele><time>2026-03-27T14:12:33Z</time></trkpt><trkpt lat="43.264491126880586" lon="10.884654476731573"><ele>348.0</ele><time>2026-03-27T14:12:34Z</time></trkpt><trkpt lat="43.264480990763246" lon="10.884520887912297"><ele>349.5</ele><time>2026-03-27T14:12:36Z</time></trkpt><trkpt lat="43.26442048014281" lon="10.884468247817269"><ele>351.0</ele><time>2026-03-27T14:12:38Z</time></trkpt><trkpt lat="43.26435202101455" lon="10.884430449544633"><ele>352.5</ele><time>2026-03-27T14:12:40Z</time></trkpt><trkpt lat="43.26426209336117" lon="10.884415635311415"><ele>354.0</ele><time>2026-03-27T14:12:43Z</time></trkpt><trkpt lat="43.264189132600755" lon="10.884431244564205"><ele>354.0</ele><time>2026-03-27T14:12:45Z</time></trkpt><trkpt lat="43.26410216279621" lon="10.884459824851243"><ele>354.0</ele><time>2026-03-27T14:12:47Z</time></trkpt><trkpt lat="43.264032420419845" lon="10.884488156279678"><ele>354.0</ele><time>2026-03-27T14:12:49Z</time></trkpt><trkpt lat="43.26395261659428" lon="10.884476271310636"><ele>354.0</ele><time>2026-03-27T14:13:24.999Z</time></trkpt><trkpt lat="43.263876181606655" lon="10.884440950285159"><ele>354.0</ele><time>2026-03-27T14:13:26.999Z</time></trkpt><trkpt lat="43.2638008563089" lon="10.88441426238137"><ele>354.0</ele><time>2026-03-27T14:21:31Z</time></trkpt><trkpt lat="43.26374885636561" lon="10.88448018311595"><ele>355.6</ele><time>2026-03-27T14:21:32Z</time></trkpt><trkpt lat="43.263709039183155" lon="10.884569632867326"><ele>357.2</ele><time>2026-03-27T14:21:33Z</time></trkpt><trkpt lat="43.2636534206139" lon="10.88465082463656"><ele>358.8</ele><time>2026-03-27T14:21:34Z</time></trkpt><trkpt lat="43.26354454503361" lon="10.884776351891169"><ele>360.40000000000003</ele><time>2026-03-27T14:21:36Z</time></trkpt><trkpt lat="43.26346172908506" lon="10.884833988517212"><ele>362.0</ele><time>2026-03-27T14:21:37Z</time></trkpt><trkpt lat="43.263377319801236" lon="10.884904634264837"><ele>362.0</ele><time>2026-03-27T14:21:38Z</time></trkpt><trkpt lat="43.263290685600644" lon="10.884991508506385"><ele>362.0</ele><time>2026-03-27T14:21:39Z</time></trkpt><trkpt lat="43.263203402450124" lon="10.885091403024093"><ele>362.0</ele><time>2026-03-27T14:21:40Z</time></trkpt><trkpt lat="43.26311858631725" lon="10.88519925684228"><ele>362.0</ele><time>2026-03-27T14:21:41Z</time></trkpt><trkpt lat="43.26305537583088" lon="10.885301939258751"><ele>362.0</ele><time>2026-03-27T14:21:42Z</time></trkpt><trkpt lat="43.26301380291461" lon="10.885388697013674"><ele>362.1666666666667</ele><time>2026-03-27T14:21:43Z</time></trkpt><trkpt lat="43.26296343410846" lon="10.885446483013215"><ele>362.33333333333337</ele><time>2026-03-27T14:21:44Z</time></trkpt><trkpt lat="43.26286910054639" lon="10.885479762231782"><ele>362.5</ele><time>2026-03-27T14:21:46Z</time></trkpt><trkpt lat="43.26279797016797" lon="10.885451453825807"><ele>362.6666666666667</ele><time>2026-03-27T14:21:48Z</time></trkpt><trkpt lat="43.262697959420606" lon="10.885436697462275"><ele>362.8333333333333</ele><time>2026-03-27T14:21:58.999Z</time></trkpt><trkpt lat="43.26259355501403" lon="10.885462848476093"><ele>363.0</ele><time>2026-03-27T14:22:00.999Z</time></trkpt><trkpt lat="43.26252539841553" lon="10.885431576937881"><ele>363.0</ele><time>2026-03-27T14:22:03.999Z</time></trkpt><trkpt lat="43.26247820623005" lon="10.885372100512342"><ele>363.0</ele><time>2026-03-27T14:22:33.999Z</time></trkpt><trkpt lat="43.26247184156695" lon="10.885284350180212"><ele>363.0</ele><time>2026-03-27T14:22:35.999Z</time></trkpt><trkpt lat="43.26245298142931" lon="10.885177833111975"><ele>363.0</ele><time>2026-03-27T14:23:06Z</time></trkpt><trkpt lat="43.26242869875572" lon="10.885077069133436"><ele>363.0</ele><time>2026-03-27T14:23:08Z</time></trkpt><trkpt lat="43.26236891640961" lon="10.885002636540966"><ele>363.0</ele><time>2026-03-27T14:23:22Z</time></trkpt><trkpt lat="43.26232692582735" lon="10.884886290754459"><ele>363.0</ele><time>2026-03-27T14:23:24Z</time></trkpt><trkpt lat="43.26223746041301" lon="10.88486582573203"><ele>363.0</ele><time>2026-03-27T14:23:33Z</time></trkpt><trkpt lat="43.26224752724529" lon="10.884986348415348"><ele>363.0</ele><time>2026-03-27T14:23:36Z</time></trkpt><trkpt lat="43.262287274483256" lon="10.885055568007694"><ele>363.0</ele><time>2026-03-27T14:23:37Z</time></trkpt><trkpt lat="43.262349147674485" lon="10.885115975288986"><ele>363.0</ele><time>2026-03-27T14:23:39Z</time></trkpt><trkpt lat="43.26240501555198" lon="10.885185579059785"><ele>363.0</ele><time>2026-03-27T14:23:41Z</time></trkpt><trkpt lat="43.26245907484271" lon="10.885248046601047"><ele>363.0</ele><time>2026-03-27T14:23:43Z</time></trkpt><trkpt lat="43.26244227432771" lon="10.885347457973644"><ele>363.0</ele><time>2026-03-27T14:24:50Z</time></trkpt><trkpt lat="43.26237489973161" lon="10.885381072987697"><ele>363.0</ele><time>2026-03-27T14:24:53Z</time></trkpt><trkpt lat="43.262333974070174" lon="10.885295654012216"><ele>363.0</ele><time>2026-03-27T14:24:55Z</time></trkpt><trkpt lat="43.262263839718514" lon="10.88517601700038"><ele>363.0</ele><time>2026-03-27T14:24:57Z</time></trkpt><trkpt lat="43.2621883987618" lon="10.885106265121706"><ele>363.0</ele><time>2026-03-27T14:24:59Z</time></trkpt><trkpt lat="43.26212208421825" lon="10.88508192351141"><ele>366.5</ele><time>2026-03-27T14:25:01Z</time></trkpt><trkpt lat="43.262054032192815" lon="10.885014099895411"><ele>370.0</ele><time>2026-03-27T14:25:03Z</time></trkpt><trkpt lat="43.262006981299905" lon="10.884907178769524"><ele>373.5</ele><time>2026-03-27T14:25:05Z</time></trkpt><trkpt lat="43.26201284730044" lon="10.884753062631749"><ele>377.0</ele><time>2026-03-27T14:25:07Z</time></trkpt><trkpt lat="43.262026848951784" lon="10.88466313360197"><ele>380.5</ele><time>2026-03-27T14:25:08Z</time></trkpt><trkpt lat="43.26205362856223" lon="10.884581074784842"><ele>384.0</ele><time>2026-03-27T14:25:09Z</time></trkpt><trkpt lat="43.26212057805016" lon="10.884455887482485"><ele>384.0</ele><time>2026-03-27T14:25:11Z</time></trkpt><trkpt lat="43.26214256247322" lon="10.884374265718924"><ele>384.0</ele><time>2026-03-27T14:25:12Z</time></trkpt><trkpt lat="43.26219611078231" lon="10.884250676535833"><ele>384.0</ele><time>2026-03-27T14:25:14Z</time></trkpt><trkpt lat="43.26226406368024" lon="10.884166153529746"><ele>384.0</ele><time>2026-03-27T14:25:16Z</time></trkpt><trkpt lat="43.26234371411686" lon="10.88409062622875"><ele>384.0</ele><time>2026-03-27T14:25:18Z</time></trkpt><trkpt lat="43.262378685801934" lon="10.883992395502872"><ele>384.0</ele><time>2026-03-27T14:25:21Z</time></trkpt><trkpt lat="43.26241514000637" lon="10.883908949484212"><ele>387.6666666666667</ele><time>2026-03-27T14:25:23Z</time></trkpt><trkpt lat="43.26248967940204" lon="10.883844050500763"><ele>391.33333333333337</ele><time>2026-03-27T14:25:26Z</time></trkpt><trkpt lat="43.26254373791436" lon="10.883719240729457"><ele>395.0</ele><time>2026-03-27T14:25:29Z</time></trkpt><trkpt lat="43.26253934108053" lon="10.883595164779585"><ele>398.6666666666667</ele><time>2026-03-27T14:25:31Z</time></trkpt><trkpt lat="43.262613914391096" lon="10.883516900945153"><ele>402.33333333333337</ele><time>2026-03-27T14:25:34Z</time></trkpt><trkpt lat="43.262669115838406" lon="10.883464491993509"><ele>406.0</ele><time>2026-03-27T14:25:35Z</time></trkpt><trkpt lat="43.26271922364638" lon="10.88340924789296"><ele>408.00000000000006</ele><time>2026-03-27T14:25:36Z</time></trkpt><trkpt lat="43.262782523299954" lon="10.883355402394326"><ele>410.0</ele><time>2026-03-27T14:25:40Z</time></trkpt><trkpt lat="43.26275198157736" lon="10.883205110078382"><ele>412.0</ele><time>2026-03-27T14:25:43Z</time></trkpt><trkpt lat="43.26273562427214" lon="10.88311927304916"><ele>414.0</ele><time>2026-03-27T14:25:44Z</time></trkpt><trkpt lat="43.262736055121216" lon="10.883021448334505"><ele>416.00000000000006</ele><time>2026-03-27T14:25:45Z</time></trkpt><trkpt lat="43.26277682418038" lon="10.882943893350532"><ele>418.0</ele><time>2026-03-27T14:25:46Z</time></trkpt><trkpt lat="43.26283151325374" lon="10.882896356892736"><ele>418.00000000000006</ele><time>2026-03-27T14:25:47Z</time></trkpt><trkpt lat="43.26288865592659" lon="10.882855772011082"><ele>418.0</ele><time>2026-03-27T14:25:49Z</time></trkpt><trkpt lat="43.26295783674126" lon="10.882838015865078"><ele>418.0</ele><time>2026-03-27T14:25:52Z</time></trkpt><trkpt lat="43.26300905175226" lon="10.882717021801882"><ele>418.0</ele><time>2026-03-27T14:25:56Z</time></trkpt><trkpt lat="43.26306454360311" lon="10.882640336693537"><ele>418.00000000000006</ele><time>2026-03-27T14:25:57.999Z</time></trkpt><trkpt lat="43.263131099628914" lon="10.88261737818444"><ele>418.0</ele><time>2026-03-27T14:25:59.999Z</time></trkpt><trkpt lat="43.26320456307417" lon="10.882572899472667"><ele>416.33333333333337</ele><time>2026-03-27T14:26:04.999Z</time></trkpt><trkpt lat="43.26328181977576" lon="10.882547611031262"><ele>414.6666666666667</ele><time>2026-03-27T14:26:07.999Z</time></trkpt><trkpt lat="43.26334633652718" lon="10.882558826938595"><ele>413.0</ele><time>2026-03-27T14:26:10.999Z</time></trkpt><trkpt lat="43.263442610703535" lon="10.88261466065847"><ele>411.33333333333337</ele><time>2026-03-27T14:26:13.999Z</time></trkpt><trkpt lat="43.26349698220632" lon="10.882658429967446"><ele>409.6666666666667</ele><time>2026-03-27T14:26:16.999Z</time></trkpt><trkpt lat="43.26353752891959" lon="10.882571158546122"><ele>408.0</ele><time>2026-03-27T14:26:20.999Z</time></trkpt><trkpt lat="43.26354628445368" lon="10.882457284011247"><ele>408.0</ele><time>2026-03-27T14:26:22.999Z</time></trkpt><trkpt lat="43.26361723545485" lon="10.882310325177778"><ele>408.0</ele><time>2026-03-27T14:26:24.999Z</time></trkpt><trkpt lat="43.26367366051344" lon="10.882251617452294"><ele>408.0</ele><time>2026-03-27T14:26:25.999Z</time></trkpt><trkpt lat="43.26374940281383" lon="10.882248414887467"><ele>408.0</ele><time>2026-03-27T14:26:26.999Z</time></trkpt><trkpt lat="43.26380961661623" lon="10.88228837300617"><ele>408.0</ele><time>2026-03-27T14:26:27.999Z</time></trkpt><trkpt lat="43.26384963234398" lon="10.882375478915751"><ele>408.0</ele><time>2026-03-27T14:26:29.999Z</time></trkpt><trkpt lat="43.26388109637881" lon="10.882465372419784"><ele>406.0</ele><time>2026-03-27T14:26:34.999Z</time></trkpt><trkpt lat="43.26395711020035" lon="10.882497955022012"><ele>404.0</ele><time>2026-03-27T14:26:42.999Z</time></trkpt><trkpt lat="43.26403647446884" lon="10.882493695133945"><ele>402.0</ele><time>2026-03-27T14:26:51.999Z</time></trkpt><trkpt lat="43.26409671991437" lon="10.882446737599016"><ele>400.0</ele><time>2026-03-27T14:26:57Z</time></trkpt><trkpt lat="43.26417216473416" lon="10.882441295273122"><ele>398.0</ele><time>2026-03-27T14:27:04Z</time></trkpt><trkpt lat="43.2642656707925" lon="10.88248462661392"><ele>396.0</ele><time>2026-03-27T14:27:07Z</time></trkpt><trkpt lat="43.26431365087993" lon="10.882573425973192"><ele>393.6666666666667</ele><time>2026-03-27T14:27:09Z</time></trkpt><trkpt lat="43.26436529171041" lon="10.882664378785591"><ele>391.3333333333333</ele><time>2026-03-27T14:27:12Z</time></trkpt><trkpt lat="43.26439255259486" lon="10.882745454445525"><ele>389.0</ele><time>2026-03-27T14:27:14Z</time></trkpt><trkpt lat="43.26442465632116" lon="10.88282102071119"><ele>386.66666666666663</ele><time>2026-03-27T14:27:17Z</time></trkpt><trkpt lat="43.26440808236106" lon="10.882939720713216"><ele>384.3333333333333</ele><time>2026-03-27T14:27:21Z</time></trkpt><trkpt lat="43.26434195032526" lon="10.883016303947212"><ele>382.0</ele><time>2026-03-27T14:27:22Z</time></trkpt><trkpt lat="43.264286032035955" lon="10.88311002660947"><ele>382.0</ele><time>2026-03-27T14:27:23Z</time></trkpt><trkpt lat="43.26418909998793" lon="10.883231277483969"><ele>382.0</ele><time>2026-03-27T14:27:25Z</time></trkpt><trkpt lat="43.26411578198822" lon="10.883302728783825"><ele>382.0</ele><time>2026-03-27T14:27:26Z</time></trkpt><trkpt lat="43.26404364733375" lon="10.883389854338134"><ele>382.0</ele><time>2026-03-27T14:27:27Z</time></trkpt><trkpt lat="43.26396556652535" lon="10.883453519064604"><ele>382.0</ele><time>2026-03-27T14:27:28Z</time></trkpt><trkpt lat="43.26388930480374" lon="10.883481977172247"><ele>381.6</ele><time>2026-03-27T14:27:29Z</time></trkpt><trkpt lat="43.263800683356514" lon="10.883480273574365"><ele>381.20000000000005</ele><time>2026-03-27T14:27:30Z</time></trkpt><trkpt lat="43.26368752031284" lon="10.883491513351357"><ele>380.8</ele><time>2026-03-27T14:27:31Z</time></trkpt><trkpt lat="43.26359741979924" lon="10.883503853760635"><ele>380.4</ele><time>2026-03-27T14:27:32Z</time></trkpt><trkpt lat="43.26350505916146" lon="10.88354570180442"><ele>380.0</ele><time>2026-03-27T14:27:33Z</time></trkpt><trkpt lat="43.26343366506238" lon="10.88358403557741"><ele>380.0</ele><time>2026-03-27T14:27:34Z</time></trkpt><trkpt lat="43.26336516833025" lon="10.88365283606122"><ele>380.0</ele><time>2026-03-27T14:27:36Z</time></trkpt><trkpt lat="43.26343861108867" lon="10.883540395597606"><ele>380.0</ele><time>2026-03-27T14:29:00.999Z</time></trkpt><trkpt lat="43.2635121848421" lon="10.883522252736157"><ele>380.0</ele><time>2026-03-27T14:29:03Z</time></trkpt><trkpt lat="43.26359035188926" lon="10.883495371806537"><ele>380.0</ele><time>2026-03-27T14:29:05Z</time></trkpt><trkpt lat="43.2636550040119" lon="10.88348437970631"><ele>380.0</ele><time>2026-03-27T14:29:06Z</time></trkpt><trkpt lat="43.26375349619626" lon="10.88348090140523"><ele>380.4</ele><time>2026-03-27T14:29:08Z</time></trkpt><trkpt lat="43.263837596577574" lon="10.883415584739732"><ele>380.8</ele><time>2026-03-27T14:29:10Z</time></trkpt><trkpt lat="43.26392876791513" lon="10.883394764074973"><ele>381.20000000000005</ele><time>2026-03-27T14:29:13Z</time></trkpt><trkpt lat="43.26400248635202" lon="10.883369148623167"><ele>381.6</ele><time>2026-03-27T14:29:17Z</time></trkpt><trkpt lat="43.26411902278187" lon="10.88327146148405"><ele>382.0</ele><time>2026-03-27T14:29:19Z</time></trkpt><trkpt lat="43.26418835234162" lon="10.883209996796628"><ele>382.0</ele><time>2026-03-27T14:29:20Z</time></trkpt><trkpt lat="43.264243441877056" lon="10.88313831146999"><ele>382.0</ele><time>2026-03-27T14:29:21Z</time></trkpt><trkpt lat="43.26429729920144" lon="10.883079094087778"><ele>382.0</ele><time>2026-03-27T14:29:22Z</time></trkpt><trkpt lat="43.26436675050063" lon="10.88300745997776"><ele>382.0</ele><time>2026-03-27T14:29:23Z</time></trkpt><trkpt lat="43.26442048720914" lon="10.882926217726638"><ele>382.0</ele><time>2026-03-27T14:29:24Z</time></trkpt><trkpt lat="43.264465327126175" lon="10.882827937798243"><ele>382.0</ele><time>2026-03-27T14:29:27Z</time></trkpt><trkpt lat="43.26455647655459" lon="10.882766935900891"><ele>382.0</ele><time>2026-03-27T14:29:37Z</time></trkpt><trkpt lat="43.264673685307685" lon="10.882781966311203"><ele>382.0</ele><time>2026-03-27T14:29:38Z</time></trkpt><trkpt lat="43.26476632740432" lon="10.882821421916049"><ele>382.0</ele><time>2026-03-27T14:29:39Z</time></trkpt><trkpt lat="43.264841188109614" lon="10.882885759378814"><ele>382.0</ele><time>2026-03-27T14:29:40Z</time></trkpt><trkpt lat="43.26490539285443" lon="10.882978955135297"><ele>382.0</ele><time>2026-03-27T14:29:41Z</time></trkpt><trkpt lat="43.26498113404302" lon="10.88306519066163"><ele>381.3333333333333</ele><time>2026-03-27T14:29:42Z</time></trkpt><trkpt lat="43.265061426541514" lon="10.883152836868941"><ele>380.66666666666663</ele><time>2026-03-27T14:29:43Z</time></trkpt><trkpt lat="43.26513992654533" lon="10.883232484286099"><ele>380.0</ele><time>2026-03-27T14:29:44Z</time></trkpt><trkpt lat="43.26519730515624" lon="10.883306715792846"><ele>379.3333333333333</ele><time>2026-03-27T14:29:45Z</time></trkpt><trkpt lat="43.26525130418216" lon="10.883366132584811"><ele>378.6666666666667</ele><time>2026-03-27T14:29:46Z</time></trkpt><trkpt lat="43.26530969664264" lon="10.883463315227026"><ele>378.0</ele><time>2026-03-27T14:29:48Z</time></trkpt><trkpt lat="43.265359364077305" lon="10.88352934822743"><ele>376.1666666666667</ele><time>2026-03-27T14:30:03.999Z</time></trkpt><trkpt lat="43.26538582522809" lon="10.883613060361627"><ele>374.3333333333333</ele><time>2026-03-27T14:31:47Z</time></trkpt><trkpt lat="43.26535308759736" lon="10.883761256083389"><ele>372.5</ele><time>2026-03-27T14:31:49Z</time></trkpt><trkpt lat="43.265294254339146" lon="10.88383966158374"><ele>370.66666666666663</ele><time>2026-03-27T14:31:50Z</time></trkpt><trkpt lat="43.265209917601425" lon="10.883900040044775"><ele>368.8333333333333</ele><time>2026-03-27T14:31:51Z</time></trkpt><trkpt lat="43.26513163161011" lon="10.883940988401895"><ele>367.0</ele><time>2026-03-27T14:31:52Z</time></trkpt><trkpt lat="43.26504445589169" lon="10.883994298083305"><ele>367.0</ele><time>2026-03-27T14:31:53Z</time></trkpt><trkpt lat="43.26497308524771" lon="10.884053598382506"><ele>367.0</ele><time>2026-03-27T14:31:54Z</time></trkpt><trkpt lat="43.26491329649029" lon="10.884109211801658"><ele>367.0</ele><time>2026-03-27T14:31:55Z</time></trkpt><trkpt lat="43.26483526715824" lon="10.884162049942042"><ele>367.0</ele><time>2026-03-27T14:31:56Z</time></trkpt><trkpt lat="43.26475197251395" lon="10.88420253154448"><ele>367.0</ele><time>2026-03-27T14:31:57Z</time></trkpt><trkpt lat="43.264672715802035" lon="10.884243427849533"><ele>367.0</ele><time>2026-03-27T14:31:58Z</time></trkpt><trkpt lat="43.26458743350894" lon="10.884282000681104"><ele>364.8333333333333</ele><time>2026-03-27T14:31:59Z</time></trkpt><trkpt lat="43.264511840707264" lon="10.884327449368964"><ele>362.66666666666663</ele><time>2026-03-27T14:32:00Z</time></trkpt><trkpt lat="43.26443569196391" lon="10.884372520720309"><ele>360.5</ele><time>2026-03-27T14:32:01Z</time></trkpt><trkpt lat="43.26435675744845" lon="10.884404321290734"><ele>358.3333333333333</ele><time>2026-03-27T14:32:02Z</time></trkpt><trkpt lat="43.264279368205415" lon="10.88441252335721"><ele>356.1666666666667</ele><time>2026-03-27T14:32:02.999Z</time></trkpt><trkpt lat="43.264207867668844" lon="10.884418487479639"><ele>354.0</ele><time>2026-03-27T14:32:03.999Z</time></trkpt><trkpt lat="43.26414084549288" lon="10.884423982686128"><ele>354.0</ele><time>2026-03-27T14:32:04.999Z</time></trkpt><trkpt lat="43.26404737126206" lon="10.884469400400665"><ele>354.0</ele><time>2026-03-27T14:32:06.999Z</time></trkpt><trkpt lat="43.26396865708776" lon="10.884474109176036"><ele>354.0</ele><time>2026-03-27T14:32:08.999Z</time></trkpt><trkpt lat="43.26390681167706" lon="10.884432036506883"><ele>354.0</ele><time>2026-03-27T14:32:10.999Z</time></trkpt><trkpt lat="43.26384452101217" lon="10.884392836124288"><ele>354.0</ele><time>2026-03-27T14:32:14.999Z</time></trkpt><trkpt lat="43.263923731141155" lon="10.884348781118078"><ele>354.0</ele><time>2026-03-27T14:34:44.999Z</time></trkpt><trkpt lat="43.26387361255858" lon="10.884422513932932"><ele>354.0</ele><time>2026-03-27T14:34:50.999Z</time></trkpt><trkpt lat="43.2639782388916" lon="10.884521758583558"><ele>354.0</ele><time>2026-03-27T14:34:52.999Z</time></trkpt><trkpt lat="43.2640589303675" lon="10.884501725085737"><ele>354.0</ele><time>2026-03-27T14:34:53.999Z</time></trkpt><trkpt lat="43.264145941277654" lon="10.884455900632332"><ele>354.0</ele><time>2026-03-27T14:34:54.999Z</time></trkpt><trkpt lat="43.264245032817804" lon="10.884414593074974"><ele>354.0</ele><time>2026-03-27T14:34:55.999Z</time></trkpt><trkpt lat="43.264325674980476" lon="10.884400751039054"><ele>354.0</ele><time>2026-03-27T14:34:56.999Z</time></trkpt><trkpt lat="43.26444333315415" lon="10.884359083329212"><ele>354.0</ele><time>2026-03-27T14:34:57.999Z</time></trkpt><trkpt lat="43.264552559606386" lon="10.88431135899322"><ele>354.0</ele><time>2026-03-27T14:34:58.999Z</time></trkpt><trkpt lat="43.264652305835746" lon="10.884248363420395"><ele>354.0</ele><time>2026-03-27T14:34:59.999Z</time></trkpt><trkpt lat="43.26473801946959" lon="10.884191641427906"><ele>354.0</ele><time>2026-03-27T14:35:00.999Z</time></trkpt><trkpt lat="43.26481005409082" lon="10.88415126433482"><ele>356.1666666666667</ele><time>2026-03-27T14:35:01.999Z</time></trkpt><trkpt lat="43.26488455947804" lon="10.88411089780301"><ele>358.3333333333333</ele><time>2026-03-27T14:35:02.999Z</time></trkpt><trkpt lat="43.26496115669397" lon="10.884089336237578"><ele>360.5</ele><time>2026-03-27T14:35:03.999Z</time></trkpt><trkpt lat="43.26501862947408" lon="10.884021524091613"><ele>362.66666666666663</ele><time>2026-03-27T14:35:04.999Z</time></trkpt><trkpt lat="43.26507509116082" lon="10.883951127538543"><ele>364.8333333333333</ele><time>2026-03-27T14:35:05.999Z</time></trkpt><trkpt lat="43.26513629781232" lon="10.883894065506597"><ele>367.0</ele><time>2026-03-27T14:35:06.999Z</time></trkpt><trkpt lat="43.26520361278187" lon="10.883872008283022"><ele>367.0</ele><time>2026-03-27T14:35:07.999Z</time></trkpt><trkpt lat="43.26530141522818" lon="10.883834676500259"><ele>367.0</ele><time>2026-03-27T14:35:08.999Z</time></trkpt><trkpt lat="43.265377846181494" lon="10.883749189501096"><ele>367.0</ele><time>2026-03-27T14:35:09.999Z</time></trkpt><trkpt lat="43.26543481004329" lon="10.883668131213543"><ele>367.0</ele><time>2026-03-27T14:35:10.999Z</time></trkpt><trkpt lat="43.2654806683977" lon="10.883595966438195"><ele>367.0</ele><time>2026-03-27T14:35:11.999Z</time></trkpt><trkpt lat="43.26553135191128" lon="10.883523516006393"><ele>367.0</ele><time>2026-03-27T14:35:12.999Z</time></trkpt><trkpt lat="43.265580032537954" lon="10.883457056651524"><ele>366.16666666666663</ele><time>2026-03-27T14:35:13.999Z</time></trkpt><trkpt lat="43.265629502225025" lon="10.88338873699426"><ele>365.3333333333333</ele><time>2026-03-27T14:35:14.999Z</time></trkpt><trkpt lat="43.26567598722997" lon="10.88331110195582"><ele>364.5</ele><time>2026-03-27T14:35:15.999Z</time></trkpt><trkpt lat="43.26572091955181" lon="10.883232785966445"><ele>363.6666666666667</ele><time>2026-03-27T14:35:16.999Z</time></trkpt><trkpt lat="43.265787919491416" lon="10.883145168368369"><ele>362.83333333333337</ele><time>2026-03-27T14:35:17.999Z</time></trkpt><trkpt lat="43.26585043725599" lon="10.883049396140906"><ele>362.0</ele><time>2026-03-27T14:35:18.999Z</time></trkpt><trkpt lat="43.265914479695944" lon="10.882941668554661"><ele>362.0</ele><time>2026-03-27T14:35:20Z</time></trkpt><trkpt lat="43.265974460663124" lon="10.882844603303127"><ele>362.0</ele><time>2026-03-27T14:35:21Z</time></trkpt><trkpt lat="43.266016153173496" lon="10.882743992834593"><ele>362.0</ele><time>2026-03-27T14:35:22Z</time></trkpt><trkpt lat="43.2660481409847" lon="10.88263793933597"><ele>362.0</ele><time>2026-03-27T14:35:23Z</time></trkpt><trkpt lat="43.266068190330735" lon="10.882538808164309"><ele>362.0</ele><time>2026-03-27T14:35:24Z</time></trkpt><trkpt lat="43.26610005851542" lon="10.882432779602757"><ele>362.0</ele><time>2026-03-27T14:35:25Z</time></trkpt><trkpt lat="43.26615587256228" lon="10.882358205039864"><ele>363.33333333333337</ele><time>2026-03-27T14:35:26Z</time></trkpt><trkpt lat="43.266200394610166" lon="10.882283529865608"><ele>364.6666666666667</ele><time>2026-03-27T14:35:27Z</time></trkpt><trkpt lat="43.26624531236682" lon="10.882192334202866"><ele>366.0</ele><time>2026-03-27T14:35:28Z</time></trkpt><trkpt lat="43.26630689680759" lon="10.882120505012413"><ele>367.3333333333333</ele><time>2026-03-27T14:35:29Z</time></trkpt><trkpt lat="43.26636949298676" lon="10.882053045758889"><ele>368.66666666666663</ele><time>2026-03-27T14:35:30Z</time></trkpt><trkpt lat="43.26643847041277" lon="10.882010626298925"><ele>370.0</ele><time>2026-03-27T14:35:31Z</time></trkpt><trkpt lat="43.26651691391138" lon="10.88198319167708"><ele>369.5</ele><time>2026-03-27T14:35:32Z</time></trkpt><trkpt lat="43.266600399546505" lon="10.881935312751438"><ele>369.0</ele><time>2026-03-27T14:35:33Z</time></trkpt><trkpt lat="43.26666313151433" lon="10.88187683031885"><ele>368.5</ele><time>2026-03-27T14:35:34Z</time></trkpt><trkpt lat="43.26673623275625" lon="10.881787634111996"><ele>368.0</ele><time>2026-03-27T14:35:35Z</time></trkpt><trkpt lat="43.26679572428431" lon="10.881711886316127"><ele>367.5</ele><time>2026-03-27T14:35:36Z</time></trkpt><trkpt lat="43.26686403442148" lon="10.881614168378713"><ele>367.0</ele><time>2026-03-27T14:35:37Z</time></trkpt><trkpt lat="43.26694049060313" lon="10.881553936290299"><ele>367.0</ele><time>2026-03-27T14:35:38Z</time></trkpt><trkpt lat="43.26699841962766" lon="10.881479281393428"><ele>367.0</ele><time>2026-03-27T14:35:39Z</time></trkpt><trkpt lat="43.26705950222984" lon="10.881410161933204"><ele>367.0</ele><time>2026-03-27T14:35:40Z</time></trkpt><trkpt lat="43.26715449270287" lon="10.88136129825005"><ele>367.0</ele><time>2026-03-27T14:35:41Z</time></trkpt><trkpt lat="43.26724724149651" lon="10.881299961013694"><ele>367.0</ele><time>2026-03-27T14:35:43Z</time></trkpt><trkpt lat="43.26731627697354" lon="10.881259328714414"><ele>367.0</ele><time>2026-03-27T14:35:45Z</time></trkpt><trkpt lat="43.26739506073376" lon="10.881157558964103"><ele>364.66666666666663</ele><time>2026-03-27T14:35:47Z</time></trkpt><trkpt lat="43.26745922321437" lon="10.881004464641874"><ele>362.3333333333333</ele><time>2026-03-27T14:35:49Z</time></trkpt><trkpt lat="43.26748696663563" lon="10.880904796753951"><ele>360.0</ele><time>2026-03-27T14:35:50Z</time></trkpt><trkpt lat="43.26751980037287" lon="10.880823642769657"><ele>357.6666666666667</ele><time>2026-03-27T14:35:51Z</time></trkpt><trkpt lat="43.26756756278496" lon="10.880763489407768"><ele>355.33333333333337</ele><time>2026-03-27T14:35:52Z</time></trkpt><trkpt lat="43.26763037440147" lon="10.88069720824209"><ele>353.0</ele><time>2026-03-27T14:35:53Z</time></trkpt><trkpt lat="43.2676877359516" lon="10.880613671521958"><ele>353.0</ele><time>2026-03-27T14:35:54Z</time></trkpt><trkpt lat="43.26774082169279" lon="10.880505676751556"><ele>353.0</ele><time>2026-03-27T14:35:55Z</time></trkpt><trkpt lat="43.267778746633255" lon="10.880383382085625"><ele>353.0</ele><time>2026-03-27T14:35:56Z</time></trkpt><trkpt lat="43.267810708563765" lon="10.88025901086884"><ele>353.0</ele><time>2026-03-27T14:35:57Z</time></trkpt><trkpt lat="43.267844356043426" lon="10.880144426784609"><ele>353.0</ele><time>2026-03-27T14:35:58Z</time></trkpt><trkpt lat="43.267880324456605" lon="10.88006094085051"><ele>353.0</ele><time>2026-03-27T14:35:59Z</time></trkpt><trkpt lat="43.267912224842426" lon="10.879953160758497"><ele>353.83333333333337</ele><time>2026-03-27T14:36:00Z</time></trkpt><trkpt lat="43.26792803807544" lon="10.879841759464291"><ele>354.6666666666667</ele><time>2026-03-27T14:36:01Z</time></trkpt><trkpt lat="43.2679513964455" lon="10.87973838012183"><ele>355.5</ele><time>2026-03-27T14:36:02Z</time></trkpt><trkpt lat="43.267986242829814" lon="10.879644660206804"><ele>356.3333333333333</ele><time>2026-03-27T14:36:03Z</time></trkpt><trkpt lat="43.2680039764687" lon="10.879556875744498"><ele>357.16666666666663</ele><time>2026-03-27T14:36:04Z</time></trkpt><trkpt lat="43.26797469676456" lon="10.879426287631139"><ele>358.0</ele><time>2026-03-27T14:36:06Z</time></trkpt><trkpt lat="43.267931186325626" lon="10.879318111364173"><ele>358.0</ele><time>2026-03-27T14:36:08Z</time></trkpt><trkpt lat="43.26793968337083" lon="10.879227188258731"><ele>358.0</ele><time>2026-03-27T14:36:10.999Z</time></trkpt><trkpt lat="43.26803149034486" lon="10.879214020807497"><ele>358.0</ele><time>2026-03-27T14:36:13.999Z</time></trkpt><trkpt lat="43.2680900811866" lon="10.879291491132648"><ele>358.0</ele><time>2026-03-27T14:36:14.999Z</time></trkpt><trkpt lat="43.26815805568028" lon="10.879401380837699"><ele>358.0</ele><time>2026-03-27T14:36:15.999Z</time></trkpt><trkpt lat="43.26823055031426" lon="10.879520305390487"><ele>353.25</ele><time>2026-03-27T14:36:16.999Z</time></trkpt><trkpt lat="43.26828606551709" lon="10.879649809827807"><ele>348.5</ele><time>2026-03-27T14:36:17.999Z</time></trkpt><trkpt lat="43.26830419429741" lon="10.87978188826189"><ele>343.75</ele><time>2026-03-27T14:36:18.999Z</time></trkpt><trkpt lat="43.268278166961785" lon="10.879918085024906"><ele>339.0</ele><time>2026-03-27T14:36:19.999Z</time></trkpt><trkpt lat="43.268196924745304" lon="10.88007467243757"><ele>337.75</ele><time>2026-03-27T14:36:20.999Z</time></trkpt><trkpt lat="43.26815201047699" lon="10.880236678691709"><ele>336.5</ele><time>2026-03-27T14:36:21.999Z</time></trkpt><trkpt lat="43.268112905522116" lon="10.880387069938935"><ele>335.25</ele><time>2026-03-27T14:36:22.999Z</time></trkpt><trkpt lat="43.268078616768626" lon="10.88054848364336"><ele>334.0</ele><time>2026-03-27T14:36:23.999Z</time></trkpt><trkpt lat="43.268057625768186" lon="10.880673279957037"><ele>333.2</ele><time>2026-03-27T14:36:24.999Z</time></trkpt><trkpt lat="43.26804137798888" lon="10.88078748049306"><ele>332.4</ele><time>2026-03-27T14:36:25.999Z</time></trkpt><trkpt lat="43.26802683978128" lon="10.880894784264655"><ele>331.6</ele><time>2026-03-27T14:36:26.999Z</time></trkpt><trkpt lat="43.268012375052045" lon="10.880982797660996"><ele>330.8</ele><time>2026-03-27T14:36:27.999Z</time></trkpt><trkpt lat="43.26797780240455" lon="10.881126054223289"><ele>330.0</ele><time>2026-03-27T14:36:29.999Z</time></trkpt><trkpt lat="43.26813995975951" lon="10.881233725412073"><ele>330.0</ele><time>2026-03-27T14:36:32.999Z</time></trkpt><trkpt lat="43.26823870026082" lon="10.881275276521327"><ele>330.0</ele><time>2026-03-27T14:36:34.999Z</time></trkpt><trkpt lat="43.268321231863325" lon="10.880937324673885"><ele>330.0</ele><time>2026-03-27T14:36:36.999Z</time></trkpt><trkpt lat="43.26834342871547" lon="10.880842452937722"><ele>330.0</ele><time>2026-03-27T14:36:37.999Z</time></trkpt><trkpt lat="43.26839342408741" lon="10.880695911567457"><ele>330.6666666666667</ele><time>2026-03-27T14:36:39.999Z</time></trkpt><trkpt lat="43.2684357161055" lon="10.880628234620538"><ele>331.3333333333333</ele><time>2026-03-27T14:36:40.999Z</time></trkpt><trkpt lat="43.26849648758797" lon="10.880597552539202"><ele>332.0</ele><time>2026-03-27T14:36:41.999Z</time></trkpt><trkpt lat="43.268573234125206" lon="10.880613035893948"><ele>332.66666666666663</ele><time>2026-03-27T14:36:42.999Z</time></trkpt><trkpt lat="43.26866857235193" lon="10.880645382583745"><ele>333.3333333333333</ele><time>2026-03-27T14:36:43.999Z</time></trkpt><trkpt lat="43.268763213549875" lon="10.880665550605807"><ele>334.0</ele><time>2026-03-27T14:36:44.999Z</time></trkpt><trkpt lat="43.268863850682486" lon="10.88069330994254"><ele>331.79999999999995</ele><time>2026-03-27T14:36:45.999Z</time></trkpt><trkpt lat="43.268949921846044" lon="10.880739864358773"><ele>329.59999999999997</ele><time>2026-03-27T14:36:46.999Z</time></trkpt><trkpt lat="43.26902709263546" lon="10.880780940421323"><ele>327.4</ele><time>2026-03-27T14:36:47.999Z</time></trkpt><trkpt lat="43.26911172817104" lon="10.88080803936831"><ele>325.2</ele><time>2026-03-27T14:36:48.999Z</time></trkpt><trkpt lat="43.2692023826674" lon="10.880840740867177"><ele>323.0</ele><time>2026-03-27T14:36:49.999Z</time></trkpt><trkpt lat="43.26929894585754" lon="10.880850268663814"><ele>323.0</ele><time>2026-03-27T14:36:50.999Z</time></trkpt><trkpt lat="43.269394951499024" lon="10.880840977867761"><ele>323.0</ele><time>2026-03-27T14:36:51.999Z</time></trkpt><trkpt lat="43.269486084941924" lon="10.88082944000257"><ele>323.0</ele><time>2026-03-27T14:36:52.999Z</time></trkpt><trkpt lat="43.26958525152617" lon="10.880821730202369"><ele>323.0</ele><time>2026-03-27T14:36:53.999Z</time></trkpt><trkpt lat="43.26968281410693" lon="10.880790144895498"><ele>323.0</ele><time>2026-03-27T14:36:54.999Z</time></trkpt><trkpt lat="43.26978000614235" lon="10.880736990224987"><ele>320.59999999999997</ele><time>2026-03-27T14:36:55.999Z</time></trkpt><trkpt lat="43.269879390803936" lon="10.880691756216128"><ele>318.2</ele><time>2026-03-27T14:36:56.999Z</time></trkpt><trkpt lat="43.26998008338554" lon="10.880649831259035"><ele>315.8</ele><time>2026-03-27T14:36:57.999Z</time></trkpt><trkpt lat="43.27008735375877" lon="10.880604994867225"><ele>313.4</ele><time>2026-03-27T14:36:58.999Z</time></trkpt><trkpt lat="43.27020060294166" lon="10.880558136278461"><ele>311.0</ele><time>2026-03-27T14:36:59.999Z</time></trkpt><trkpt lat="43.2703163105994" lon="10.880508234936544"><ele>311.0</ele><time>2026-03-27T14:37:00.999Z</time></trkpt><trkpt lat="43.27043058772593" lon="10.880460940858145"><ele>311.0</ele><time>2026-03-27T14:37:01.999Z</time></trkpt><trkpt lat="43.270554655338074" lon="10.880417581289322"><ele>311.0</ele><time>2026-03-27T14:37:02.999Z</time></trkpt><trkpt lat="43.2706676920639" lon="10.88036226091304"><ele>311.0</ele><time>2026-03-27T14:37:03.999Z</time></trkpt><trkpt lat="43.270789210041414" lon="10.88029999020105"><ele>308.5</ele><time>2026-03-27T14:37:04.999Z</time></trkpt><trkpt lat="43.27091810136987" lon="10.880234066192106"><ele>306.0</ele><time>2026-03-27T14:37:05.999Z</time></trkpt><trkpt lat="43.27104208290694" lon="10.8801746601455"><ele>303.5</ele><time>2026-03-27T14:37:06.999Z</time></trkpt><trkpt lat="43.271161355240956" lon="10.880113406399023"><ele>301.0</ele><time>2026-03-27T14:37:07.999Z</time></trkpt><trkpt lat="43.271273421413866" lon="10.880061369228496"><ele>301.0</ele><time>2026-03-27T14:37:08.999Z</time></trkpt><trkpt lat="43.27138241919164" lon="10.880010589165316"><ele>301.0</ele><time>2026-03-27T14:37:09.999Z</time></trkpt><trkpt lat="43.271484678099476" lon="10.879963253752567"><ele>301.0</ele><time>2026-03-27T14:37:10.999Z</time></trkpt><trkpt lat="43.27157900016299" lon="10.879907125693478"><ele>301.0</ele><time>2026-03-27T14:37:11.999Z</time></trkpt><trkpt lat="43.27165648120872" lon="10.879857756477666"><ele>301.0</ele><time>2026-03-27T14:37:12.999Z</time></trkpt><trkpt lat="43.27172532703824" lon="10.879807208045728"><ele>298.6</ele><time>2026-03-27T14:37:13.999Z</time></trkpt><trkpt lat="43.27179602449864" lon="10.879702202320898"><ele>296.20000000000005</ele><time>2026-03-27T14:37:15.999Z</time></trkpt><trkpt lat="43.271865027152984" lon="10.879664548201252"><ele>293.79999999999995</ele><time>2026-03-27T14:37:16.999Z</time></trkpt><trkpt lat="43.27196609702134" lon="10.879609091372727"><ele>291.4</ele><time>2026-03-27T14:37:17.999Z</time></trkpt><trkpt lat="43.27208183714648" lon="10.87954870589304"><ele>289.0</ele><time>2026-03-27T14:37:18.999Z</time></trkpt><trkpt lat="43.27218510812676" lon="10.879497372819316"><ele>287.0</ele><time>2026-03-27T14:37:19.999Z</time></trkpt><trkpt lat="43.272286103141326" lon="10.879442536712721"><ele>285.0</ele><time>2026-03-27T14:37:20.999Z</time></trkpt><trkpt lat="43.27238799236968" lon="10.879393588498056"><ele>283.0</ele><time>2026-03-27T14:37:21.999Z</time></trkpt><trkpt lat="43.27250543154453" lon="10.879336764993882"><ele>281.0</ele><time>2026-03-27T14:37:22.999Z</time></trkpt><trkpt lat="43.27261818397925" lon="10.879275609229586"><ele>281.40000000000003</ele><time>2026-03-27T14:37:23.999Z</time></trkpt><trkpt lat="43.272732931218584" lon="10.87921614298586"><ele>281.8</ele><time>2026-03-27T14:37:24.999Z</time></trkpt><trkpt lat="43.27283385704543" lon="10.879169857808394"><ele>282.20000000000005</ele><time>2026-03-27T14:37:26Z</time></trkpt><trkpt lat="43.27293031378538" lon="10.87911244518353"><ele>282.6</ele><time>2026-03-27T14:37:27Z</time></trkpt><trkpt lat="43.273020484003425" lon="10.879058759702746"><ele>283.0</ele><time>2026-03-27T14:37:28Z</time></trkpt><trkpt lat="43.27310957206013" lon="10.879026351288713"><ele>283.0</ele><time>2026-03-27T14:37:29Z</time></trkpt><trkpt lat="43.27324166720991" lon="10.87897189163045"><ele>283.0</ele><time>2026-03-27T14:37:31Z</time></trkpt><trkpt lat="43.27330862711858" lon="10.878934636257245"><ele>283.0</ele><time>2026-03-27T14:37:32Z</time></trkpt><trkpt lat="43.27338818254995" lon="10.87889435895482"><ele>283.0</ele><time>2026-03-27T14:37:33Z</time></trkpt><trkpt lat="43.27346174446425" lon="10.878856118554776"><ele>283.0</ele><time>2026-03-27T14:37:34Z</time></trkpt><trkpt lat="43.2735385479097" lon="10.878808920925412"><ele>283.0</ele><time>2026-03-27T14:37:35Z</time></trkpt><trkpt lat="43.273612974156784" lon="10.878760279570509"><ele>283.0</ele><time>2026-03-27T14:37:36Z</time></trkpt><trkpt lat="43.27368770676627" lon="10.878708406510336"><ele>283.0</ele><time>2026-03-27T14:37:37Z</time></trkpt><trkpt lat="43.273758620778395" lon="10.878668318100274"><ele>283.0</ele><time>2026-03-27T14:37:38Z</time></trkpt><trkpt lat="43.27384138420863" lon="10.878625603591631"><ele>283.0</ele><time>2026-03-27T14:37:39Z</time></trkpt><trkpt lat="43.27392275714372" lon="10.878592779299456"><ele>283.0</ele><time>2026-03-27T14:37:40Z</time></trkpt><trkpt lat="43.27400447485332" lon="10.87856093062789"><ele>281.4</ele><time>2026-03-27T14:37:41Z</time></trkpt><trkpt lat="43.274091518823205" lon="10.878524856300185"><ele>279.8</ele><time>2026-03-27T14:37:42Z</time></trkpt><trkpt lat="43.27418423187867" lon="10.878484691519759"><ele>278.2</ele><time>2026-03-27T14:37:43Z</time></trkpt><trkpt lat="43.2742681503139" lon="10.878451066932715"><ele>276.6</ele><time>2026-03-27T14:37:44Z</time></trkpt><trkpt lat="43.274352279746736" lon="10.878398978797524"><ele>275.0</ele><time>2026-03-27T14:37:45Z</time></trkpt><trkpt lat="43.27444568899625" lon="10.878341800094216"><ele>274.8</ele><time>2026-03-27T14:37:46Z</time></trkpt><trkpt lat="43.27454353625601" lon="10.878295614415585"><ele>274.6</ele><time>2026-03-27T14:37:47Z</time></trkpt><trkpt lat="43.27465298421598" lon="10.878252286797798"><ele>274.4</ele><time>2026-03-27T14:37:48Z</time></trkpt><trkpt lat="43.27475372852808" lon="10.878212928792918"><ele>274.2</ele><time>2026-03-27T14:37:49Z</time></trkpt><trkpt lat="43.27484893814461" lon="10.878173163238454"><ele>274.0</ele><time>2026-03-27T14:37:50Z</time></trkpt><trkpt lat="43.27493758034922" lon="10.878132554349811"><ele>273.4</ele><time>2026-03-27T14:37:51Z</time></trkpt><trkpt lat="43.27500432427785" lon="10.878077124628351"><ele>272.79999999999995</ele><time>2026-03-27T14:37:52Z</time></trkpt><trkpt lat="43.2750886393234" lon="10.877973109122086"><ele>272.20000000000005</ele><time>2026-03-27T14:37:53Z</time></trkpt><trkpt lat="43.275163997454584" lon="10.87787891358407"><ele>271.6</ele><time>2026-03-27T14:37:54Z</time></trkpt><trkpt lat="43.27523794593881" lon="10.877785358206602"><ele>271.0</ele><time>2026-03-27T14:37:55Z</time></trkpt><trkpt lat="43.27530301769279" lon="10.877694528630142"><ele>270.2</ele><time>2026-03-27T14:37:56Z</time></trkpt><trkpt lat="43.27536616285551" lon="10.87759693273652"><ele>269.40000000000003</ele><time>2026-03-27T14:37:57Z</time></trkpt><trkpt lat="43.27542780928207" lon="10.877505631134715"><ele>268.6</ele><time>2026-03-27T14:37:58Z</time></trkpt><trkpt lat="43.27550262515691" lon="10.877397770389015"><ele>267.8</ele><time>2026-03-27T14:37:59Z</time></trkpt><trkpt lat="43.27556994240937" lon="10.877299043661255"><ele>267.0</ele><time>2026-03-27T14:38:00Z</time></trkpt><trkpt lat="43.27563296384167" lon="10.877194479177943"><ele>266.1666666666667</ele><time>2026-03-27T14:38:01Z</time></trkpt><trkpt lat="43.27568814770412" lon="10.877104076337542"><ele>265.3333333333333</ele><time>2026-03-27T14:38:02Z</time></trkpt><trkpt lat="43.27573850498926" lon="10.877005529441387"><ele>264.5</ele><time>2026-03-27T14:38:03Z</time></trkpt><trkpt lat="43.2757756798952" lon="10.876903798922372"><ele>263.66666666666663</ele><time>2026-03-27T14:38:04Z</time></trkpt><trkpt lat="43.27581183833475" lon="10.87682320251273"><ele>262.8333333333333</ele><time>2026-03-27T14:38:05Z</time></trkpt><trkpt lat="43.275866149630374" lon="10.876749598061497"><ele>262.0</ele><time>2026-03-27T14:38:06Z</time></trkpt><trkpt lat="43.275943448551054" lon="10.876696947995569"><ele>261.5</ele><time>2026-03-27T14:38:07Z</time></trkpt><trkpt lat="43.27602755223906" lon="10.8766543282925"><ele>261.0</ele><time>2026-03-27T14:38:08Z</time></trkpt><trkpt lat="43.276092247292134" lon="10.876626673888538"><ele>260.5</ele><time>2026-03-27T14:38:09Z</time></trkpt><trkpt lat="43.276176307430376" lon="10.876625876802558"><ele>260.0</ele><time>2026-03-27T14:38:11Z</time></trkpt><trkpt lat="43.27625641259895" lon="10.876619099923309"><ele>259.5</ele><time>2026-03-27T14:38:13Z</time></trkpt><trkpt lat="43.27633916611519" lon="10.876555228274379"><ele>259.0</ele><time>2026-03-27T14:38:15Z</time></trkpt><trkpt lat="43.27643251661313" lon="10.87649823217867"><ele>257.3333333333333</ele><time>2026-03-27T14:38:16.999Z</time></trkpt><trkpt lat="43.27652089138697" lon="10.876403013893851"><ele>255.66666666666666</ele><time>2026-03-27T14:38:19.999Z</time></trkpt><trkpt lat="43.276532112264924" lon="10.876277884811977"><ele>254.0</ele><time>2026-03-27T14:38:22.999Z</time></trkpt><trkpt lat="43.27654108849442" lon="10.876172443335529"><ele>252.33333333333331</ele><time>2026-03-27T14:38:23.999Z</time></trkpt><trkpt lat="43.276526551241275" lon="10.876077894825691"><ele>250.66666666666666</ele><time>2026-03-27T14:38:25.999Z</time></trkpt><trkpt lat="43.27652122667169" lon="10.875944622709357"><ele>249.0</ele><time>2026-03-27T14:38:27.999Z</time></trkpt><trkpt lat="43.27654064889274" lon="10.875834526388633"><ele>248.2</ele><time>2026-03-27T14:38:29.999Z</time></trkpt><trkpt lat="43.27652832578176" lon="10.875691583652827"><ele>247.39999999999998</ele><time>2026-03-27T14:38:31.999Z</time></trkpt><trkpt lat="43.2764484627197" lon="10.875567507237745"><ele>246.6</ele><time>2026-03-27T14:38:33.999Z</time></trkpt><trkpt lat="43.27639069405183" lon="10.87548189247465"><ele>245.8</ele><time>2026-03-27T14:38:35.999Z</time></trkpt><trkpt lat="43.27634337955439" lon="10.875394326947072"><ele>245.0</ele><time>2026-03-27T14:38:37.999Z</time></trkpt><trkpt lat="43.27631420364732" lon="10.87525764241237"><ele>245.00000000000003</ele><time>2026-03-27T14:38:39.999Z</time></trkpt><trkpt lat="43.27632780329719" lon="10.875133203720695"><ele>245.0</ele><time>2026-03-27T14:38:41.999Z</time></trkpt><trkpt lat="43.27641779551894" lon="10.875155761119284"><ele>245.0</ele><time>2026-03-27T14:38:43.999Z</time></trkpt><trkpt lat="43.27649598483907" lon="10.875116830996681"><ele>245.0</ele><time>2026-03-27T14:38:45.999Z</time></trkpt><trkpt lat="43.27657480185086" lon="10.875058620792096"><ele>245.00000000000003</ele><time>2026-03-27T14:38:48.999Z</time></trkpt><trkpt lat="43.27662765206714" lon="10.875007047197357"><ele>245.0</ele><time>2026-03-27T14:38:51.999Z</time></trkpt><trkpt lat="43.27669292734324" lon="10.874967513900957"><ele>241.83333333333334</ele><time>2026-03-27T14:38:55.999Z</time></trkpt><trkpt lat="43.276750072611186" lon="10.874918926454457"><ele>238.66666666666669</ele><time>2026-03-27T14:38:58.999Z</time></trkpt><trkpt lat="43.276822007996" lon="10.87485904070742"><ele>235.5</ele><time>2026-03-27T14:39:01.999Z</time></trkpt><trkpt lat="43.27688309128168" lon="10.87480278182393"><ele>232.33333333333331</ele><time>2026-03-27T14:39:03.999Z</time></trkpt><trkpt lat="43.27694064412005" lon="10.874742892259235"><ele>229.16666666666666</ele><time>2026-03-27T14:39:05.999Z</time></trkpt><trkpt lat="43.27704108560225" lon="10.87471886616027"><ele>226.0</ele><time>2026-03-27T14:39:07.999Z</time></trkpt><trkpt lat="43.277114289334655" lon="10.874722127822677"><ele>225.99999999999997</ele><time>2026-03-27T14:39:09.999Z</time></trkpt><trkpt lat="43.27722175838068" lon="10.874746789545405"><ele>226.0</ele><time>2026-03-27T14:39:11.999Z</time></trkpt><trkpt lat="43.277303500622544" lon="10.874767993012583"><ele>226.0</ele><time>2026-03-27T14:39:15.999Z</time></trkpt><trkpt lat="43.277368034450504" lon="10.87478645802146"><ele>226.0</ele><time>2026-03-27T14:39:18.999Z</time></trkpt><trkpt lat="43.27742357226131" lon="10.8747262793407"><ele>225.99999999999997</ele><time>2026-03-27T14:39:20.999Z</time></trkpt><trkpt lat="43.27746921992472" lon="10.87466048509922"><ele>226.0</ele><time>2026-03-27T14:39:22.999Z</time></trkpt><trkpt lat="43.27754394312871" lon="10.874685182050733"><ele>223.99999999999997</ele><time>2026-03-27T14:39:24.999Z</time></trkpt><trkpt lat="43.27760380127512" lon="10.874634672973572"><ele>222.0</ele><time>2026-03-27T14:39:26.999Z</time></trkpt><trkpt lat="43.27766361397183" lon="10.874548864876594"><ele>220.0</ele><time>2026-03-27T14:39:29.999Z</time></trkpt><trkpt lat="43.27770853792804" lon="10.874458468793911"><ele>218.0</ele><time>2026-03-27T14:39:33Z</time></trkpt><trkpt lat="43.277746481007924" lon="10.874371042861192"><ele>215.99999999999997</ele><time>2026-03-27T14:39:36Z</time></trkpt><trkpt lat="43.27778813169816" lon="10.874303941831114"><ele>214.0</ele><time>2026-03-27T14:39:39Z</time></trkpt><trkpt lat="43.27787362828262" lon="10.874283959815635"><ele>213.2</ele><time>2026-03-27T14:39:44Z</time></trkpt><trkpt lat="43.27793671270202" lon="10.874208661702736"><ele>212.39999999999998</ele><time>2026-03-27T14:39:46Z</time></trkpt><trkpt lat="43.277915924161384" lon="10.874042127303897"><ele>211.6</ele><time>2026-03-27T14:39:48Z</time></trkpt><trkpt lat="43.2778805309247" lon="10.873937574096473"><ele>210.8</ele><time>2026-03-27T14:39:49Z</time></trkpt><trkpt lat="43.27783056112614" lon="10.873871029556694"><ele>210.0</ele><time>2026-03-27T14:39:51Z</time></trkpt><trkpt lat="43.2777200783977" lon="10.873880241446006"><ele>210.0</ele><time>2026-03-27T14:39:53Z</time></trkpt><trkpt lat="43.27763979374302" lon="10.873898499753075"><ele>210.0</ele><time>2026-03-27T14:39:56Z</time></trkpt><trkpt lat="43.27756457975055" lon="10.873961656717475"><ele>210.0</ele><time>2026-03-27T14:40:00Z</time></trkpt><trkpt lat="43.27750565874121" lon="10.874047945719067"><ele>210.0</ele><time>2026-03-27T14:40:03Z</time></trkpt><trkpt lat="43.27746958624605" lon="10.874120893121928"><ele>210.0</ele><time>2026-03-27T14:40:05Z</time></trkpt><trkpt lat="43.277384228105106" lon="10.87418594377903"><ele>210.0</ele><time>2026-03-27T14:40:07Z</time></trkpt><trkpt lat="43.27733162509126" lon="10.874084544894634"><ele>210.0</ele><time>2026-03-27T14:40:10Z</time></trkpt><trkpt lat="43.27732723076753" lon="10.873974465765782"><ele>210.0</ele><time>2026-03-27T14:40:13Z</time></trkpt><trkpt lat="43.27730603666802" lon="10.873884455590701"><ele>210.0</ele><time>2026-03-27T14:41:18.999Z</time></trkpt><trkpt lat="43.27727755548162" lon="10.873797695858643"><ele>210.0</ele><time>2026-03-27T14:41:20.999Z</time></trkpt><trkpt lat="43.27721330504531" lon="10.873737272928937"><ele>210.0</ele><time>2026-03-27T14:41:24.999Z</time></trkpt><trkpt lat="43.27714174118504" lon="10.87370718850277"><ele>210.0</ele><time>2026-03-27T14:41:27.999Z</time></trkpt><trkpt lat="43.27708901788069" lon="10.873657706075935"><ele>210.0</ele><time>2026-03-27T14:41:29.999Z</time></trkpt><trkpt lat="43.27700172319526" lon="10.873597284702981"><ele>211.16666666666666</ele><time>2026-03-27T14:41:31.999Z</time></trkpt><trkpt lat="43.27691547215406" lon="10.873540233305345"><ele>212.33333333333331</ele><time>2026-03-27T14:41:33.999Z</time></trkpt><trkpt lat="43.27684848773847" lon="10.873469450242204"><ele>213.5</ele><time>2026-03-27T14:41:34.999Z</time></trkpt><trkpt lat="43.27679247404743" lon="10.873420659048469"><ele>214.66666666666666</ele><time>2026-03-27T14:41:35.999Z</time></trkpt><trkpt lat="43.27683357283733" lon="10.873345870789185"><ele>215.83333333333331</ele><time>2026-03-27T14:41:40Z</time></trkpt><trkpt lat="43.27687488766162" lon="10.873263196766906"><ele>217.0</ele><time>2026-03-27T14:41:45Z</time></trkpt><trkpt lat="43.276833909377935" lon="10.873172299092973"><ele>220.2</ele><time>2026-03-27T14:41:48Z</time></trkpt><trkpt lat="43.27680172585971" lon="10.873073413981587"><ele>223.39999999999998</ele><time>2026-03-27T14:41:56Z</time></trkpt><trkpt lat="43.27670330931131" lon="10.873106228272208"><ele>226.60000000000002</ele><time>2026-03-27T14:41:59Z</time></trkpt><trkpt lat="43.27658813826512" lon="10.873148250637746"><ele>229.8</ele><time>2026-03-27T14:42:02Z</time></trkpt><trkpt lat="43.27649981424944" lon="10.873127015222606"><ele>233.0</ele><time>2026-03-27T14:42:06Z</time></trkpt><trkpt lat="43.276375153830756" lon="10.873189546227733"><ele>233.0</ele><time>2026-03-27T14:42:08Z</time></trkpt><trkpt lat="43.27630154244102" lon="10.873186681914763"><ele>233.0</ele><time>2026-03-27T14:42:09Z</time></trkpt><trkpt lat="43.27622098491423" lon="10.873153657070658"><ele>233.0</ele><time>2026-03-27T14:42:11Z</time></trkpt><trkpt lat="43.276165575595826" lon="10.873103785025867"><ele>233.0</ele><time>2026-03-27T14:42:13Z</time></trkpt><trkpt lat="43.27612612795927" lon="10.873024403397373"><ele>233.0</ele><time>2026-03-27T14:42:15Z</time></trkpt><trkpt lat="43.27610507220029" lon="10.872909855019648"><ele>233.0</ele><time>2026-03-27T14:42:18Z</time></trkpt><trkpt lat="43.27613637304324" lon="10.872831517144064"><ele>233.0</ele><time>2026-03-27T14:42:20Z</time></trkpt><trkpt lat="43.27611247658704" lon="10.872700424694525"><ele>236.8</ele><time>2026-03-27T14:42:22Z</time></trkpt><trkpt lat="43.276093096582066" lon="10.872579960007005"><ele>240.60000000000002</ele><time>2026-03-27T14:42:25Z</time></trkpt><trkpt lat="43.27604691003257" lon="10.872424062102846"><ele>244.39999999999998</ele><time>2026-03-27T14:42:27Z</time></trkpt><trkpt lat="43.27601567329282" lon="10.872345266109752"><ele>248.2</ele><time>2026-03-27T14:42:27.999Z</time></trkpt><trkpt lat="43.27594004802349" lon="10.87219236514156"><ele>252.0</ele><time>2026-03-27T14:42:29.999Z</time></trkpt><trkpt lat="43.27588708455128" lon="10.872097861467468"><ele>252.0</ele><time>2026-03-27T14:42:30.999Z</time></trkpt><trkpt lat="43.27586261198768" lon="10.87200664387163"><ele>252.0</ele><time>2026-03-27T14:42:31.999Z</time></trkpt><trkpt lat="43.275851550987944" lon="10.871875575610131"><ele>252.0</ele><time>2026-03-27T14:42:33.999Z</time></trkpt><trkpt lat="43.27576256719665" lon="10.871788652613741"><ele>252.0</ele><time>2026-03-27T14:42:35.999Z</time></trkpt><trkpt lat="43.275697924113295" lon="10.871691081404421"><ele>252.0</ele><time>2026-03-27T14:42:36.999Z</time></trkpt><trkpt lat="43.27560543858489" lon="10.871583213444655"><ele>255.33333333333334</ele><time>2026-03-27T14:42:38.999Z</time></trkpt><trkpt lat="43.27554199273287" lon="10.871556759419454"><ele>258.6666666666667</ele><time>2026-03-27T14:42:39.999Z</time></trkpt><trkpt lat="43.2754681691576" lon="10.871542556627913"><ele>262.0</ele><time>2026-03-27T14:42:40.999Z</time></trkpt><trkpt lat="43.275376486775336" lon="10.871555616134415"><ele>265.33333333333337</ele><time>2026-03-27T14:42:42.999Z</time></trkpt><trkpt lat="43.27531618930771" lon="10.871600401257105"><ele>268.6666666666667</ele><time>2026-03-27T14:42:45.999Z</time></trkpt><trkpt lat="43.27524591417836" lon="10.871623293652108"><ele>272.0</ele><time>2026-03-27T14:42:47.999Z</time></trkpt><trkpt lat="43.275132937123736" lon="10.871606827739996"><ele>272.0</ele><time>2026-03-27T14:42:49.999Z</time></trkpt><trkpt lat="43.27504738504405" lon="10.871622741588642"><ele>272.0</ele><time>2026-03-27T14:42:50.999Z</time></trkpt><trkpt lat="43.274950010620955" lon="10.871600473375253"><ele>272.0</ele><time>2026-03-27T14:42:51.999Z</time></trkpt><trkpt lat="43.274877220917276" lon="10.871579333402252"><ele>272.0</ele><time>2026-03-27T14:42:52.999Z</time></trkpt><trkpt lat="43.27483814748655" lon="10.87150751004915"><ele>272.0</ele><time>2026-03-27T14:42:53.999Z</time></trkpt><trkpt lat="43.27480281094282" lon="10.87140155006269"><ele>272.0</ele><time>2026-03-27T14:42:55.999Z</time></trkpt><trkpt lat="43.27473021555186" lon="10.871453455894123"><ele>271.6666666666667</ele><time>2026-03-27T14:42:58.999Z</time></trkpt><trkpt lat="43.27464633734631" lon="10.871495570917705"><ele>271.33333333333337</ele><time>2026-03-27T14:43:00.999Z</time></trkpt><trkpt lat="43.274578091052696" lon="10.87141832205974"><ele>271.0</ele><time>2026-03-27T14:43:03.999Z</time></trkpt><trkpt lat="43.27456832586379" lon="10.871331930420194"><ele>270.6666666666667</ele><time>2026-03-27T14:43:05.999Z</time></trkpt><trkpt lat="43.2745175859038" lon="10.87125745958162"><ele>270.3333333333333</ele><time>2026-03-27T14:43:08.999Z</time></trkpt><trkpt lat="43.27448478349777" lon="10.871180190954687"><ele>270.0</ele><time>2026-03-27T14:43:10.999Z</time></trkpt><trkpt lat="43.27440259961096" lon="10.871051982760756"><ele>270.0</ele><time>2026-03-27T14:43:12.999Z</time></trkpt><trkpt lat="43.274328976508095" lon="10.87098741483578"><ele>270.0</ele><time>2026-03-27T14:43:13.999Z</time></trkpt><trkpt lat="43.274278179786045" lon="10.87093405564976"><ele>270.0</ele><time>2026-03-27T14:43:14.999Z</time></trkpt><trkpt lat="43.27422744899467" lon="10.870870953516132"><ele>270.0</ele><time>2026-03-27T14:43:29.999Z</time></trkpt><trkpt lat="43.27417536552374" lon="10.870697352075455"><ele>270.0</ele><time>2026-03-27T14:43:31.999Z</time></trkpt><trkpt lat="43.27416130657285" lon="10.870519812195791"><ele>271.8</ele><time>2026-03-27T14:43:32.999Z</time></trkpt><trkpt lat="43.274148255372545" lon="10.870332547309571"><ele>273.6</ele><time>2026-03-27T14:43:33.999Z</time></trkpt><trkpt lat="43.27412487898531" lon="10.870211424866483"><ele>275.4</ele><time>2026-03-27T14:43:34.999Z</time></trkpt><trkpt lat="43.27407379612094" lon="10.870103787296703"><ele>277.2</ele><time>2026-03-27T14:43:35.999Z</time></trkpt><trkpt lat="43.27400528486349" lon="10.869995303960422"><ele>279.0</ele><time>2026-03-27T14:43:36.999Z</time></trkpt><trkpt lat="43.27389980752775" lon="10.869864244556153"><ele>282.59999999999997</ele><time>2026-03-27T14:43:37.999Z</time></trkpt><trkpt lat="43.27380336796987" lon="10.86971685101748"><ele>286.2</ele><time>2026-03-27T14:43:38.999Z</time></trkpt><trkpt lat="43.273727891348926" lon="10.869628807474632"><ele>289.79999999999995</ele><time>2026-03-27T14:43:39.999Z</time></trkpt><trkpt lat="43.27364620043216" lon="10.869674061517818"><ele>293.4</ele><time>2026-03-27T14:43:42.999Z</time></trkpt><trkpt lat="43.27360045140365" lon="10.86976226683256"><ele>297.0</ele><time>2026-03-27T14:43:44Z</time></trkpt><trkpt lat="43.27354396908745" lon="10.869886782117113"><ele>297.0</ele><time>2026-03-27T14:43:45Z</time></trkpt><trkpt lat="43.27346585520192" lon="10.870033705305332"><ele>297.0</ele><time>2026-03-27T14:43:46Z</time></trkpt><trkpt lat="43.27337207175865" lon="10.870188882987716"><ele>297.0</ele><time>2026-03-27T14:43:47Z</time></trkpt><trkpt lat="43.27327434067409" lon="10.870321004390041"><ele>297.0</ele><time>2026-03-27T14:43:48Z</time></trkpt><trkpt lat="43.27320236734876" lon="10.870419827892643"><ele>296.4</ele><time>2026-03-27T14:43:49Z</time></trkpt><trkpt lat="43.27312471441198" lon="10.87047762701326"><ele>295.79999999999995</ele><time>2026-03-27T14:43:50Z</time></trkpt><trkpt lat="43.27303441925111" lon="10.87048525275893"><ele>295.2</ele><time>2026-03-27T14:43:51Z</time></trkpt><trkpt lat="43.272957496630326" lon="10.870442078363393"><ele>294.59999999999997</ele><time>2026-03-27T14:43:52Z</time></trkpt><trkpt lat="43.27289683065845" lon="10.870366351957186"><ele>294.0</ele><time>2026-03-27T14:43:53Z</time></trkpt><trkpt lat="43.272841515569596" lon="10.870242008716358"><ele>294.0</ele><time>2026-03-27T14:43:54Z</time></trkpt><trkpt lat="43.27281444912638" lon="10.870120178576874"><ele>294.0</ele><time>2026-03-27T14:43:55Z</time></trkpt><trkpt lat="43.27278987119766" lon="10.87002170245432"><ele>294.0</ele><time>2026-03-27T14:43:56Z</time></trkpt><trkpt lat="43.272731251129876" lon="10.869921108134585"><ele>294.0</ele><time>2026-03-27T14:43:57Z</time></trkpt><trkpt lat="43.272643465963704" lon="10.869834527063482"><ele>294.0</ele><time>2026-03-27T14:43:58Z</time></trkpt><trkpt lat="43.27253835767763" lon="10.869772945776887"><ele>299.3333333333333</ele><time>2026-03-27T14:43:59Z</time></trkpt><trkpt lat="43.272396942875254" lon="10.86971591994396"><ele>304.66666666666663</ele><time>2026-03-27T14:44:00Z</time></trkpt><trkpt lat="43.272243379103784" lon="10.869638388869642"><ele>310.0</ele><time>2026-03-27T14:44:01Z</time></trkpt><trkpt lat="43.2720882669319" lon="10.869547225572251"><ele>311.66666666666663</ele><time>2026-03-27T14:44:02Z</time></trkpt><trkpt lat="43.27194396743425" lon="10.86944119918666"><ele>313.3333333333333</ele><time>2026-03-27T14:44:03Z</time></trkpt><trkpt lat="43.27180007353199" lon="10.869326581841035"><ele>315.0</ele><time>2026-03-27T14:44:04Z</time></trkpt><trkpt lat="43.271683390970615" lon="10.869228254119658"><ele>316.8</ele><time>2026-03-27T14:44:05Z</time></trkpt><trkpt lat="43.271575222855425" lon="10.869142686116236"><ele>318.6</ele><time>2026-03-27T14:44:06Z</time></trkpt><trkpt lat="43.271503116050056" lon="10.869067307992212"><ele>320.4</ele><time>2026-03-27T14:44:07Z</time></trkpt><trkpt lat="43.271432786577634" lon="10.868945175196258"><ele>322.2</ele><time>2026-03-27T14:44:08Z</time></trkpt><trkpt lat="43.2713876724467" lon="10.86879612644009"><ele>324.0</ele><time>2026-03-27T14:44:09Z</time></trkpt><trkpt lat="43.27133503921837" lon="10.868665865288722"><ele>327.25</ele><time>2026-03-27T14:44:10Z</time></trkpt><trkpt lat="43.271233249544586" lon="10.86856983940768"><ele>330.5</ele><time>2026-03-27T14:44:11Z</time></trkpt><trkpt lat="43.27109136321835" lon="10.868498969406701"><ele>333.75</ele><time>2026-03-27T14:44:12Z</time></trkpt><trkpt lat="43.27094593741141" lon="10.868436300114565"><ele>337.0</ele><time>2026-03-27T14:44:13Z</time></trkpt><trkpt lat="43.270823727577756" lon="10.868320125360716"><ele>337.0</ele><time>2026-03-27T14:44:14Z</time></trkpt><trkpt lat="43.270723006000416" lon="10.868193800594847"><ele>337.0</ele><time>2026-03-27T14:44:15Z</time></trkpt><trkpt lat="43.27061210305932" lon="10.868120539411416"><ele>337.0</ele><time>2026-03-27T14:44:16Z</time></trkpt><trkpt lat="43.27047315221759" lon="10.868057658969681"><ele>337.0</ele><time>2026-03-27T14:44:17Z</time></trkpt><trkpt lat="43.270320400947675" lon="10.868009489182043"><ele>341.0</ele><time>2026-03-27T14:44:18Z</time></trkpt><trkpt lat="43.27019112087147" lon="10.867995763895529"><ele>345.0</ele><time>2026-03-27T14:44:19Z</time></trkpt><trkpt lat="43.270098451486774" lon="10.867974660689649"><ele>349.0</ele><time>2026-03-27T14:44:20Z</time></trkpt><trkpt lat="43.269988427823456" lon="10.86790989389767"><ele>353.0</ele><time>2026-03-27T14:44:21Z</time></trkpt><trkpt lat="43.269886998895274" lon="10.867813237012719"><ele>352.75</ele><time>2026-03-27T14:44:22Z</time></trkpt><trkpt lat="43.26977420515856" lon="10.867698955879238"><ele>352.5</ele><time>2026-03-27T14:44:23Z</time></trkpt><trkpt lat="43.26967330219384" lon="10.86761855840364"><ele>352.25</ele><time>2026-03-27T14:44:24Z</time></trkpt><trkpt lat="43.26958550313484" lon="10.86754157628643"><ele>352.0</ele><time>2026-03-27T14:44:25Z</time></trkpt><trkpt lat="43.26950962043483" lon="10.867432518849526"><ele>352.0</ele><time>2026-03-27T14:44:26Z</time></trkpt><trkpt lat="43.2694444706145" lon="10.867289114807777"><ele>352.0</ele><time>2026-03-27T14:44:27Z</time></trkpt><trkpt lat="43.26935938030409" lon="10.867174936729445"><ele>352.0</ele><time>2026-03-27T14:44:28Z</time></trkpt><trkpt lat="43.26925345595079" lon="10.867100266363801"><ele>352.0</ele><time>2026-03-27T14:44:29Z</time></trkpt><trkpt lat="43.26914831500609" lon="10.867086798304058"><ele>352.0</ele><time>2026-03-27T14:44:30Z</time></trkpt><trkpt lat="43.26906813438975" lon="10.86711647794571"><ele>352.0</ele><time>2026-03-27T14:44:31Z</time></trkpt><trkpt lat="43.26899763960998" lon="10.86720198290311"><ele>352.0</ele><time>2026-03-27T14:44:32Z</time></trkpt><trkpt lat="43.26893662954202" lon="10.867329645214598"><ele>352.0</ele><time>2026-03-27T14:44:33Z</time></trkpt><trkpt lat="43.26888049944275" lon="10.8674024569799"><ele>352.0</ele><time>2026-03-27T14:44:34Z</time></trkpt><trkpt lat="43.268799226396176" lon="10.867438078363888"><ele>355.0</ele><time>2026-03-27T14:44:35Z</time></trkpt><trkpt lat="43.268700650075246" lon="10.867425176865378"><ele>358.0</ele><time>2026-03-27T14:44:36Z</time></trkpt><trkpt lat="43.26858027934478" lon="10.867371882108634"><ele>361.0</ele><time>2026-03-27T14:44:37Z</time></trkpt><trkpt lat="43.268448046869665" lon="10.867240528735683"><ele>364.0</ele><time>2026-03-27T14:44:38Z</time></trkpt><trkpt lat="43.26832951279174" lon="10.867102323915654"><ele>364.0</ele><time>2026-03-27T14:44:38.999Z</time></trkpt><trkpt lat="43.268195725116165" lon="10.867026246338126"><ele>364.0</ele><time>2026-03-27T14:44:39.999Z</time></trkpt><trkpt lat="43.268044032124976" lon="10.866988804141831"><ele>364.0</ele><time>2026-03-27T14:44:40.999Z</time></trkpt><trkpt lat="43.26789467135663" lon="10.866978491708434"><ele>364.0</ele><time>2026-03-27T14:44:41.999Z</time></trkpt><trkpt lat="43.26776603298205" lon="10.866953915452228"><ele>362.4</ele><time>2026-03-27T14:44:42.999Z</time></trkpt><trkpt lat="43.26765019298098" lon="10.866897641963309"><ele>360.79999999999995</ele><time>2026-03-27T14:44:43.999Z</time></trkpt><trkpt lat="43.26754313311503" lon="10.866814673903361"><ele>359.20000000000005</ele><time>2026-03-27T14:44:44.999Z</time></trkpt><trkpt lat="43.26744639008971" lon="10.86673415671569"><ele>357.6</ele><time>2026-03-27T14:44:45.999Z</time></trkpt><trkpt lat="43.267363813317935" lon="10.866726421846089"><ele>356.0</ele><time>2026-03-27T14:44:46.999Z</time></trkpt><trkpt lat="43.26727216992958" lon="10.866767781428193"><ele>361.25</ele><time>2026-03-27T14:44:47.999Z</time></trkpt><trkpt lat="43.26715791976368" lon="10.86684742212193"><ele>366.5</ele><time>2026-03-27T14:44:48.999Z</time></trkpt><trkpt lat="43.26703787576774" lon="10.866933000580344"><ele>371.75</ele><time>2026-03-27T14:44:49.999Z</time></trkpt><trkpt lat="43.26690746203923" lon="10.86694002792311"><ele>377.0</ele><time>2026-03-27T14:44:50.999Z</time></trkpt><trkpt lat="43.26679055323344" lon="10.866966193872646"><ele>377.0</ele><time>2026-03-27T14:44:51.999Z</time></trkpt><trkpt lat="43.26669266988762" lon="10.86701369988512"><ele>377.0</ele><time>2026-03-27T14:44:52.999Z</time></trkpt><trkpt lat="43.26659787101271" lon="10.86710803649024"><ele>377.0</ele><time>2026-03-27T14:44:53.999Z</time></trkpt><trkpt lat="43.266534716983166" lon="10.867231456790488"><ele>377.0</ele><time>2026-03-27T14:44:54.999Z</time></trkpt><trkpt lat="43.266442883042465" lon="10.867338705984576"><ele>378.75</ele><time>2026-03-27T14:44:55.999Z</time></trkpt><trkpt lat="43.26636887428715" lon="10.867432240509547"><ele>380.5</ele><time>2026-03-27T14:44:56.999Z</time></trkpt><trkpt lat="43.26633636069851" lon="10.867551238808522"><ele>382.25</ele><time>2026-03-27T14:44:57.999Z</time></trkpt><trkpt lat="43.26631725307919" lon="10.867722494583932"><ele>384.0</ele><time>2026-03-27T14:44:58.999Z</time></trkpt><trkpt lat="43.26628367106402" lon="10.867913870784674"><ele>384.0</ele><time>2026-03-27T14:44:59.999Z</time></trkpt><trkpt lat="43.266233776093124" lon="10.868044510796214"><ele>384.0</ele><time>2026-03-27T14:45:00.999Z</time></trkpt><trkpt lat="43.266160957946866" lon="10.868108758934039"><ele>384.0</ele><time>2026-03-27T14:45:01.999Z</time></trkpt><trkpt lat="43.26610295035384" lon="10.86815036683285"><ele>384.0</ele><time>2026-03-27T14:45:02.999Z</time></trkpt><trkpt lat="43.26607222532704" lon="10.868244074479433"><ele>384.0</ele><time>2026-03-27T14:45:04.999Z</time></trkpt><trkpt lat="43.26604919529386" lon="10.868325990607593"><ele>384.0</ele><time>2026-03-27T14:45:07.999Z</time></trkpt><trkpt lat="43.26595392698407" lon="10.868419460139927"><ele>387.6</ele><time>2026-03-27T14:45:09.999Z</time></trkpt><trkpt lat="43.26585976541297" lon="10.868468155019174"><ele>391.2</ele><time>2026-03-27T14:45:10.999Z</time></trkpt><trkpt lat="43.26575436048402" lon="10.868508276696186"><ele>394.8</ele><time>2026-03-27T14:45:11.999Z</time></trkpt><trkpt lat="43.26567576370017" lon="10.868580470642721"><ele>398.40000000000003</ele><time>2026-03-27T14:45:12.999Z</time></trkpt><trkpt lat="43.265596688368376" lon="10.868689731239758"><ele>402.0</ele><time>2026-03-27T14:45:13.999Z</time></trkpt><trkpt lat="43.265510853512" lon="10.868833220196516"><ele>402.0</ele><time>2026-03-27T14:45:14.999Z</time></trkpt><trkpt lat="43.26543233306399" lon="10.86900581416368"><ele>402.0</ele><time>2026-03-27T14:45:15.999Z</time></trkpt><trkpt lat="43.26537316656555" lon="10.869163044797013"><ele>402.0</ele><time>2026-03-27T14:45:16.999Z</time></trkpt><trkpt lat="43.26533883296531" lon="10.869301293928158"><ele>402.0</ele><time>2026-03-27T14:45:17.999Z</time></trkpt><trkpt lat="43.26526187019023" lon="10.869402966366872"><ele>402.0</ele><time>2026-03-27T14:45:18.999Z</time></trkpt><trkpt lat="43.26518120386786" lon="10.869431452496638"><ele>402.0</ele><time>2026-03-27T14:45:19.999Z</time></trkpt><trkpt lat="43.26507787052562" lon="10.869414316130742"><ele>402.0</ele><time>2026-03-27T14:45:20.999Z</time></trkpt><trkpt lat="43.264978414903084" lon="10.869376180000714"><ele>402.0</ele><time>2026-03-27T14:45:21.999Z</time></trkpt><trkpt lat="43.26489352449521" lon="10.869268924755094"><ele>402.0</ele><time>2026-03-27T14:45:22.999Z</time></trkpt><trkpt lat="43.26482666198974" lon="10.869190345912976"><ele>402.0</ele><time>2026-03-27T14:45:23.999Z</time></trkpt><trkpt lat="43.26475522423659" lon="10.869162396451578"><ele>402.0</ele><time>2026-03-27T14:45:25.999Z</time></trkpt><trkpt lat="43.26480080047918" lon="10.869259704953175"><ele>402.0</ele><time>2026-03-27T14:47:47.999Z</time></trkpt><trkpt lat="43.264723943256136" lon="10.869423881456608"><ele>402.0</ele><time>2026-03-27T14:47:49.999Z</time></trkpt><trkpt lat="43.26464946897239" lon="10.869490322230858"><ele>402.0</ele><time>2026-03-27T14:47:50.999Z</time></trkpt><trkpt lat="43.26458258131252" lon="10.869566471945436"><ele>401.0</ele><time>2026-03-27T14:47:51.999Z</time></trkpt><trkpt lat="43.26452094080142" lon="10.869670189239605"><ele>400.0</ele><time>2026-03-27T14:47:53.999Z</time></trkpt><trkpt lat="43.264477800445526" lon="10.869772537518987"><ele>399.0</ele><time>2026-03-27T14:47:55.998Z</time></trkpt><trkpt lat="43.26439533768988" lon="10.869884488572618"><ele>398.0</ele><time>2026-03-27T14:47:57.998Z</time></trkpt><trkpt lat="43.26431200728244" lon="10.869966703118827"><ele>397.0</ele><time>2026-03-27T14:47:59.998Z</time></trkpt><trkpt lat="43.26426390552812" lon="10.870025015094996"><ele>397.00000000000006</ele><time>2026-03-27T14:48:03.998Z</time></trkpt><trkpt lat="43.264196864989565" lon="10.870084334431487"><ele>397.0</ele><time>2026-03-27T14:48:06.999Z</time></trkpt><trkpt lat="43.264133691430075" lon="10.870114505291518"><ele>397.0</ele><time>2026-03-27T14:48:45.999Z</time></trkpt><trkpt lat="43.264192609591184" lon="10.870062112065604"><ele>397.0</ele><time>2026-03-27T14:48:55.999Z</time></trkpt><trkpt lat="43.26427367844627" lon="10.869990653898524"><ele>397.00000000000006</ele><time>2026-03-27T14:48:59.999Z</time></trkpt><trkpt lat="43.26435540123497" lon="10.869929394286219"><ele>397.0</ele><time>2026-03-27T14:49:01.999Z</time></trkpt><trkpt lat="43.26444472927632" lon="10.869834559062651"><ele>397.0</ele><time>2026-03-27T14:49:03.999Z</time></trkpt><trkpt lat="43.264513460362394" lon="10.869678260800386"><ele>397.0</ele><time>2026-03-27T14:49:05.999Z</time></trkpt><trkpt lat="43.26458943477735" lon="10.869558759430737"><ele>397.0</ele><time>2026-03-27T14:49:07.999Z</time></trkpt><trkpt lat="43.26466892084166" lon="10.869466206495801"><ele>397.0</ele><time>2026-03-27T14:49:09.999Z</time></trkpt><trkpt lat="43.26472475048579" lon="10.869407054867366"><ele>397.0</ele><time>2026-03-27T14:49:10.999Z</time></trkpt><trkpt lat="43.26477793142342" lon="10.869350873897629"><ele>398.0</ele><time>2026-03-27T14:49:11.999Z</time></trkpt><trkpt lat="43.264817452956606" lon="10.869230734313204"><ele>399.0</ele><time>2026-03-27T14:49:13.999Z</time></trkpt><trkpt lat="43.264776496517456" lon="10.869131423199825"><ele>400.0</ele><time>2026-03-27T14:49:56.998Z</time></trkpt><trkpt lat="43.2647049566028" lon="10.86912557422616"><ele>401.0</ele><time>2026-03-27T14:49:57.998Z</time></trkpt><trkpt lat="43.264593866113316" lon="10.869146104910866"><ele>402.0</ele><time>2026-03-27T14:49:58.998Z</time></trkpt><trkpt lat="43.264501553525875" lon="10.869147778594742"><ele>403.20000000000005</ele><time>2026-03-27T14:49:59.998Z</time></trkpt><trkpt lat="43.264404253918016" lon="10.869089572797515"><ele>404.4</ele><time>2026-03-27T14:50:00.999Z</time></trkpt><trkpt lat="43.26429610206496" lon="10.869052321263984"><ele>405.6</ele><time>2026-03-27T14:50:01.999Z</time></trkpt><trkpt lat="43.26418843931825" lon="10.868982658012278"><ele>406.79999999999995</ele><time>2026-03-27T14:50:02.999Z</time></trkpt><trkpt lat="43.264112823453715" lon="10.868897563945781"><ele>408.0</ele><time>2026-03-27T14:50:03.999Z</time></trkpt><trkpt lat="43.26405722702972" lon="10.868805044542983"><ele>408.0</ele><time>2026-03-27T14:50:04.999Z</time></trkpt><trkpt lat="43.26398587120933" lon="10.868707139022883"><ele>408.0</ele><time>2026-03-27T14:50:05.999Z</time></trkpt><trkpt lat="43.26388356431214" lon="10.868588675910551"><ele>408.0</ele><time>2026-03-27T14:50:06.999Z</time></trkpt><trkpt lat="43.263777109556905" lon="10.868480149412143"><ele>408.0</ele><time>2026-03-27T14:50:07.999Z</time></trkpt><trkpt lat="43.26368110318014" lon="10.868386102827161"><ele>409.5</ele><time>2026-03-27T14:50:08.999Z</time></trkpt><trkpt lat="43.263565274907" lon="10.868329114055017"><ele>411.0</ele><time>2026-03-27T14:50:09.999Z</time></trkpt><trkpt lat="43.26346065338805" lon="10.868250847571801"><ele>412.5</ele><time>2026-03-27T14:50:10.999Z</time></trkpt><trkpt lat="43.26337304472928" lon="10.868130338256016"><ele>414.0</ele><time>2026-03-27T14:50:11.999Z</time></trkpt><trkpt lat="43.26328124612392" lon="10.868015490639236"><ele>414.0</ele><time>2026-03-27T14:50:12.999Z</time></trkpt><trkpt lat="43.26319049085498" lon="10.86790921010981"><ele>414.0</ele><time>2026-03-27T14:50:13.999Z</time></trkpt><trkpt lat="43.2630887005206" lon="10.86787390251059"><ele>414.0</ele><time>2026-03-27T14:50:14.999Z</time></trkpt><trkpt lat="43.262988339779795" lon="10.86782469863095"><ele>414.0</ele><time>2026-03-27T14:50:16Z</time></trkpt><trkpt lat="43.26294337566887" lon="10.867722347327613"><ele>414.0</ele><time>2026-03-27T14:50:17Z</time></trkpt><trkpt lat="43.26287927696981" lon="10.867601979325688"><ele>416.0</ele><time>2026-03-27T14:50:18Z</time></trkpt><trkpt lat="43.26279799667388" lon="10.867468855112872"><ele>418.0</ele><time>2026-03-27T14:50:19Z</time></trkpt><trkpt lat="43.26273326423395" lon="10.867339451740122"><ele>420.0</ele><time>2026-03-27T14:50:20Z</time></trkpt><trkpt lat="43.26264927858464" lon="10.867223556747202"><ele>422.0</ele><time>2026-03-27T14:50:21Z</time></trkpt><trkpt lat="43.26254254196006" lon="10.867136141001712"><ele>422.0</ele><time>2026-03-27T14:50:22Z</time></trkpt><trkpt lat="43.26241835519272" lon="10.867078040721776"><ele>422.0</ele><time>2026-03-27T14:50:23Z</time></trkpt><trkpt lat="43.26229028108431" lon="10.867023802450113"><ele>422.0</ele><time>2026-03-27T14:50:24Z</time></trkpt><trkpt lat="43.26217876993496" lon="10.86698456712208"><ele>422.0</ele><time>2026-03-27T14:50:25Z</time></trkpt><trkpt lat="43.26207422236462" lon="10.866968956751052"><ele>421.6</ele><time>2026-03-27T14:50:26Z</time></trkpt><trkpt lat="43.26198607493244" lon="10.866962965273919"><ele>421.20000000000005</ele><time>2026-03-27T14:50:27Z</time></trkpt><trkpt lat="43.261906806453005" lon="10.86704528220854"><ele>420.8</ele><time>2026-03-27T14:50:28Z</time></trkpt><trkpt lat="43.26182022953143" lon="10.867143236717968"><ele>420.4</ele><time>2026-03-27T14:50:29Z</time></trkpt><trkpt lat="43.26170899390667" lon="10.867237132210239"><ele>420.0</ele><time>2026-03-27T14:50:30Z</time></trkpt><trkpt lat="43.26160825274969" lon="10.867337905191283"><ele>420.0</ele><time>2026-03-27T14:50:31Z</time></trkpt><trkpt lat="43.261503209531305" lon="10.867443753513855"><ele>420.0</ele><time>2026-03-27T14:50:32Z</time></trkpt><trkpt lat="43.261406568149184" lon="10.867551627393828"><ele>420.0</ele><time>2026-03-27T14:50:33Z</time></trkpt><trkpt lat="43.26130994453226" lon="10.867635642647944"><ele>420.0</ele><time>2026-03-27T14:50:34Z</time></trkpt><trkpt lat="43.26121859550101" lon="10.867711101343595"><ele>417.0</ele><time>2026-03-27T14:50:35Z</time></trkpt><trkpt lat="43.261117093920525" lon="10.86777214367098"><ele>414.0</ele><time>2026-03-27T14:50:36Z</time></trkpt><trkpt lat="43.26099309345643" lon="10.867778031657343"><ele>411.0</ele><time>2026-03-27T14:50:37Z</time></trkpt><trkpt lat="43.26085438475219" lon="10.86781676169629"><ele>408.0</ele><time>2026-03-27T14:50:37.999Z</time></trkpt><trkpt lat="43.2607008158169" lon="10.867827134146172"><ele>408.75</ele><time>2026-03-27T14:50:38.999Z</time></trkpt><trkpt lat="43.26055743336137" lon="10.867827912950935"><ele>409.5</ele><time>2026-03-27T14:50:39.999Z</time></trkpt><trkpt lat="43.26042772976802" lon="10.867854940764897"><ele>410.25</ele><time>2026-03-27T14:50:40.999Z</time></trkpt><trkpt lat="43.26029288935383" lon="10.867865580618869"><ele>411.0</ele><time>2026-03-27T14:50:41.999Z</time></trkpt><trkpt lat="43.2601669689463" lon="10.86784006742788"><ele>411.0</ele><time>2026-03-27T14:50:42.999Z</time></trkpt><trkpt lat="43.260050644836554" lon="10.867878263213735"><ele>411.0</ele><time>2026-03-27T14:50:43.999Z</time></trkpt><trkpt lat="43.25993393098075" lon="10.867935850327322"><ele>411.0</ele><time>2026-03-27T14:50:44.999Z</time></trkpt><trkpt lat="43.25983658540067" lon="10.86803868406675"><ele>411.0</ele><time>2026-03-27T14:50:45.999Z</time></trkpt><trkpt lat="43.259731345790534" lon="10.868133497660972"><ele>415.0</ele><time>2026-03-27T14:50:46.999Z</time></trkpt><trkpt lat="43.25963149126907" lon="10.868259940315193"><ele>419.0</ele><time>2026-03-27T14:50:47.999Z</time></trkpt><trkpt lat="43.25951741455815" lon="10.868391022174709"><ele>423.0</ele><time>2026-03-27T14:50:48.999Z</time></trkpt><trkpt lat="43.25941924733836" lon="10.868525923814992"><ele>427.0</ele><time>2026-03-27T14:50:49.999Z</time></trkpt><trkpt lat="43.25931223304745" lon="10.868646320425125"><ele>427.0</ele><time>2026-03-27T14:50:50.999Z</time></trkpt><trkpt lat="43.259212005742235" lon="10.868756904046016"><ele>427.0</ele><time>2026-03-27T14:50:51.999Z</time></trkpt><trkpt lat="43.2590768909862" lon="10.86881212332971"><ele>427.0</ele><time>2026-03-27T14:50:52.999Z</time></trkpt><trkpt lat="43.25895113100587" lon="10.868857980434766"><ele>427.0</ele><time>2026-03-27T14:50:53.999Z</time></trkpt><trkpt lat="43.25882879721616" lon="10.868903431155099"><ele>429.20000000000005</ele><time>2026-03-27T14:50:54.999Z</time></trkpt><trkpt lat="43.25874443035706" lon="10.868961708917448"><ele>431.40000000000003</ele><time>2026-03-27T14:50:55.999Z</time></trkpt><trkpt lat="43.258676213219886" lon="10.86906997457327"><ele>433.59999999999997</ele><time>2026-03-27T14:50:56.999Z</time></trkpt><trkpt lat="43.25864723552942" lon="10.869208426223075"><ele>435.79999999999995</ele><time>2026-03-27T14:50:57.999Z</time></trkpt><trkpt lat="43.25864861749924" lon="10.869366125863781"><ele>438.0</ele><time>2026-03-27T14:50:58.999Z</time></trkpt><trkpt lat="43.2586544766055" lon="10.869516163239853"><ele>438.0</ele><time>2026-03-27T14:50:59.999Z</time></trkpt><trkpt lat="43.25862171996566" lon="10.869590315069809"><ele>438.0</ele><time>2026-03-27T14:51:00.999Z</time></trkpt><trkpt lat="43.25850519359203" lon="10.869610967078625"><ele>438.0</ele><time>2026-03-27T14:51:02.999Z</time></trkpt><trkpt lat="43.258467674980075" lon="10.86949697899372"><ele>438.0</ele><time>2026-03-27T14:51:03.999Z</time></trkpt><trkpt lat="43.25841560520887" lon="10.869423241923982"><ele>438.0</ele><time>2026-03-27T14:51:04.999Z</time></trkpt><trkpt lat="43.258349443891085" lon="10.86933177987525"><ele>438.0</ele><time>2026-03-27T14:51:05.999Z</time></trkpt><trkpt lat="43.25830800821861" lon="10.869238610187853"><ele>437.79999999999995</ele><time>2026-03-27T14:51:06.999Z</time></trkpt><trkpt lat="43.25828100413887" lon="10.86911463875992"><ele>437.59999999999997</ele><time>2026-03-27T14:51:08.999Z</time></trkpt><trkpt lat="43.25822759072" lon="10.869065607527848"><ele>437.40000000000003</ele><time>2026-03-27T14:51:39.999Z</time></trkpt><trkpt lat="43.25821592761186" lon="10.868978354515564"><ele>437.20000000000005</ele><time>2026-03-27T14:51:41.999Z</time></trkpt><trkpt lat="43.25815814872036" lon="10.868820114498703"><ele>437.0</ele><time>2026-03-27T14:51:43.999Z</time></trkpt><trkpt lat="43.258116353237206" lon="10.868679622034191"><ele>437.0</ele><time>2026-03-27T14:51:44.999Z</time></trkpt><trkpt lat="43.258103078941566" lon="10.868513336336658"><ele>437.0</ele><time>2026-03-27T14:51:45.999Z</time></trkpt><trkpt lat="43.25806290479037" lon="10.868359181027078"><ele>437.0</ele><time>2026-03-27T14:51:46.999Z</time></trkpt><trkpt lat="43.25799501285902" lon="10.868216615950962"><ele>437.0</ele><time>2026-03-27T14:51:47.999Z</time></trkpt><trkpt lat="43.257934728426896" lon="10.86808241725764"><ele>440.75</ele><time>2026-03-27T14:51:48.999Z</time></trkpt><trkpt lat="43.25785957052813" lon="10.867971907541534"><ele>444.5</ele><time>2026-03-27T14:51:49.999Z</time></trkpt><trkpt lat="43.25775846495018" lon="10.867908715448522"><ele>448.25</ele><time>2026-03-27T14:51:50.999Z</time></trkpt><trkpt lat="43.25764449646682" lon="10.8678583528823"><ele>452.0</ele><time>2026-03-27T14:51:51.999Z</time></trkpt><trkpt lat="43.25753041239523" lon="10.86781889283049"><ele>452.0</ele><time>2026-03-27T14:51:52.999Z</time></trkpt><trkpt lat="43.25742885901066" lon="10.867729704936878"><ele>452.0</ele><time>2026-03-27T14:51:53.999Z</time></trkpt><trkpt lat="43.257364359128495" lon="10.867600952273206"><ele>452.0</ele><time>2026-03-27T14:51:54.999Z</time></trkpt><trkpt lat="43.25730795530144" lon="10.867472260211551"><ele>452.0</ele><time>2026-03-27T14:51:55.999Z</time></trkpt><trkpt lat="43.257248772180354" lon="10.867343781416597"><ele>454.5</ele><time>2026-03-27T14:51:56.999Z</time></trkpt><trkpt lat="43.25716111924149" lon="10.867266499921296"><ele>457.0</ele><time>2026-03-27T14:51:57.999Z</time></trkpt><trkpt lat="43.257048072779085" lon="10.867191016844712"><ele>459.5</ele><time>2026-03-27T14:51:58.999Z</time></trkpt><trkpt lat="43.25690591351983" lon="10.86714712139516"><ele>462.0</ele><time>2026-03-27T14:51:59.999Z</time></trkpt><trkpt lat="43.25676566681781" lon="10.86710601104987"><ele>462.0</ele><time>2026-03-27T14:52:00.999Z</time></trkpt><trkpt lat="43.25661567250059" lon="10.867054095020771"><ele>462.0</ele><time>2026-03-27T14:52:01.999Z</time></trkpt><trkpt lat="43.25646368871763" lon="10.867010659433403"><ele>462.0</ele><time>2026-03-27T14:52:02.999Z</time></trkpt><trkpt lat="43.25630663729177" lon="10.866923887280352"><ele>463.25</ele><time>2026-03-27T14:52:03.999Z</time></trkpt><trkpt lat="43.256162333930035" lon="10.866857165208136"><ele>464.5</ele><time>2026-03-27T14:52:04.999Z</time></trkpt><trkpt lat="43.25603341941477" lon="10.866801640559846"><ele>465.75</ele><time>2026-03-27T14:52:05.999Z</time></trkpt><trkpt lat="43.25592113639589" lon="10.866762551289108"><ele>467.0</ele><time>2026-03-27T14:52:07Z</time></trkpt><trkpt lat="43.255809618059104" lon="10.866724443013775"><ele>470.5</ele><time>2026-03-27T14:52:08Z</time></trkpt><trkpt lat="43.25568978709776" lon="10.866727431739056"><ele>474.0</ele><time>2026-03-27T14:52:09Z</time></trkpt><trkpt lat="43.255572967441545" lon="10.86678323094013"><ele>477.5</ele><time>2026-03-27T14:52:10Z</time></trkpt><trkpt lat="43.25544170792775" lon="10.866911933134455"><ele>481.0</ele><time>2026-03-27T14:52:11Z</time></trkpt><trkpt lat="43.25530926573971" lon="10.867027586365019"><ele>483.0</ele><time>2026-03-27T14:52:12Z</time></trkpt><trkpt lat="43.25518040733827" lon="10.867142186141056"><ele>485.0</ele><time>2026-03-27T14:52:13Z</time></trkpt><trkpt lat="43.25503528507581" lon="10.867252707332776"><ele>487.0</ele><time>2026-03-27T14:52:14Z</time></trkpt><trkpt lat="43.25490522971788" lon="10.867371129246921"><ele>488.6</ele><time>2026-03-27T14:52:15Z</time></trkpt><trkpt lat="43.254781517262565" lon="10.867482661335467"><ele>490.20000000000005</ele><time>2026-03-27T14:52:16Z</time></trkpt><trkpt lat="43.2546741653375" lon="10.867544804307963"><ele>491.8</ele><time>2026-03-27T14:52:17Z</time></trkpt><trkpt lat="43.254590774603976" lon="10.867559467017593"><ele>493.4</ele><time>2026-03-27T14:52:18Z</time></trkpt><trkpt lat="43.254523929610365" lon="10.867546838764229"><ele>495.0</ele><time>2026-03-27T14:52:19Z</time></trkpt><trkpt lat="43.254456319364145" lon="10.867420538616015"><ele>495.0</ele><time>2026-03-27T14:52:21Z</time></trkpt><trkpt lat="43.25443170611714" lon="10.867327395346134"><ele>495.0</ele><time>2026-03-27T14:52:22Z</time></trkpt><trkpt lat="43.254380605204" lon="10.867231170245644"><ele>495.0</ele><time>2026-03-27T14:52:23Z</time></trkpt><trkpt lat="43.254308354162916" lon="10.867122316834228"><ele>495.0</ele><time>2026-03-27T14:52:24Z</time></trkpt><trkpt lat="43.25420820000325" lon="10.867043181577529"><ele>495.0</ele><time>2026-03-27T14:52:25Z</time></trkpt><trkpt lat="43.254108273739696" lon="10.866962738657106"><ele>495.0</ele><time>2026-03-27T14:52:26Z</time></trkpt><trkpt lat="43.253980860614654" lon="10.866898958803684"><ele>495.0</ele><time>2026-03-27T14:52:27Z</time></trkpt><trkpt lat="43.25386724197961" lon="10.866865827109246"><ele>495.0</ele><time>2026-03-27T14:52:28Z</time></trkpt><trkpt lat="43.2537735627625" lon="10.86684215692911"><ele>495.0</ele><time>2026-03-27T14:52:29Z</time></trkpt><trkpt lat="43.25368352701063" lon="10.866752745100047"><ele>497.5</ele><time>2026-03-27T14:52:30Z</time></trkpt><trkpt lat="43.25357555473526" lon="10.866647922135542"><ele>500.0</ele><time>2026-03-27T14:52:31Z</time></trkpt><trkpt lat="43.25347270657506" lon="10.866515004500188"><ele>502.5</ele><time>2026-03-27T14:52:32Z</time></trkpt><trkpt lat="43.25338892316872" lon="10.866378443779583"><ele>505.0</ele><time>2026-03-27T14:52:33Z</time></trkpt><trkpt lat="43.25331562420027" lon="10.866285740217073"><ele>505.00000000000006</ele><time>2026-03-27T14:52:34Z</time></trkpt><trkpt lat="43.253247165856294" lon="10.866219038740434"><ele>505.0</ele><time>2026-03-27T14:52:35Z</time></trkpt><trkpt lat="43.25320313203652" lon="10.866144808353996"><ele>505.0</ele><time>2026-03-27T14:52:37Z</time></trkpt><trkpt lat="43.25311829260419" lon="10.866069663500985"><ele>505.0</ele><time>2026-03-27T14:53:39.999Z</time></trkpt><trkpt lat="43.25304576931851" lon="10.866052056808773"><ele>505.00000000000006</ele><time>2026-03-27T14:53:40.999Z</time></trkpt><trkpt lat="43.25293770889255" lon="10.866045088936982"><ele>505.0</ele><time>2026-03-27T14:53:41.999Z</time></trkpt><trkpt lat="43.25282355128161" lon="10.866020751850442"><ele>506.0</ele><time>2026-03-27T14:53:42.999Z</time></trkpt><trkpt lat="43.25271581397963" lon="10.866018645984976"><ele>507.0</ele><time>2026-03-27T14:53:43.999Z</time></trkpt><trkpt lat="43.25262590988157" lon="10.866058543678454"><ele>508.0</ele><time>2026-03-27T14:53:44.999Z</time></trkpt><trkpt lat="43.25256072688591" lon="10.866171061581527"><ele>509.0</ele><time>2026-03-27T14:53:45.999Z</time></trkpt><trkpt lat="43.25251717900772" lon="10.86634456063261"><ele>510.0</ele><time>2026-03-27T14:53:46.999Z</time></trkpt><trkpt lat="43.25248057835067" lon="10.866526714986287"><ele>510.0</ele><time>2026-03-27T14:53:47.999Z</time></trkpt><trkpt lat="43.25241521546511" lon="10.866713685240741"><ele>510.0</ele><time>2026-03-27T14:53:48.999Z</time></trkpt><trkpt lat="43.252323762337156" lon="10.866862546171644"><ele>510.0</ele><time>2026-03-27T14:53:49.999Z</time></trkpt><trkpt lat="43.25220799218463" lon="10.86695514605268"><ele>510.0</ele><time>2026-03-27T14:53:50.999Z</time></trkpt><trkpt lat="43.25210921591604" lon="10.867035954658201"><ele>507.5</ele><time>2026-03-27T14:53:51.999Z</time></trkpt><trkpt lat="43.252010273493966" lon="10.866944191078392"><ele>505.0</ele><time>2026-03-27T14:53:52.999Z</time></trkpt><trkpt lat="43.25189941814349" lon="10.866913901262642"><ele>502.5</ele><time>2026-03-27T14:53:53.999Z</time></trkpt><trkpt lat="43.251759052292066" lon="10.866875811259385"><ele>500.0</ele><time>2026-03-27T14:53:54.999Z</time></trkpt><trkpt lat="43.25155318613511" lon="10.866835510325846"><ele>500.75</ele><time>2026-03-27T14:53:55.999Z</time></trkpt><trkpt lat="43.25139966534262" lon="10.866812514891837"><ele>501.5</ele><time>2026-03-27T14:53:56.999Z</time></trkpt><trkpt lat="43.25126859872362" lon="10.866766076949842"><ele>502.25</ele><time>2026-03-27T14:53:57.999Z</time></trkpt><trkpt lat="43.251146646645225" lon="10.866767830079866"><ele>503.0</ele><time>2026-03-27T14:53:58.999Z</time></trkpt><trkpt lat="43.251035789281" lon="10.86678778449275"><ele>503.0</ele><time>2026-03-27T14:53:59.999Z</time></trkpt><trkpt lat="43.25092861184751" lon="10.866800511130643"><ele>503.0</ele><time>2026-03-27T14:54:00.999Z</time></trkpt><trkpt lat="43.25084651928431" lon="10.866942914448632"><ele>503.0</ele><time>2026-03-27T14:54:01.999Z</time></trkpt><trkpt lat="43.25079336953613" lon="10.867113435765672"><ele>503.0</ele><time>2026-03-27T14:54:02.999Z</time></trkpt><trkpt lat="43.25075135954662" lon="10.867318145869397"><ele>503.0</ele><time>2026-03-27T14:54:03.999Z</time></trkpt><trkpt lat="43.25067730956694" lon="10.86752718577568"><ele>503.0</ele><time>2026-03-27T14:54:04.999Z</time></trkpt><trkpt lat="43.25062966212644" lon="10.867754619182504"><ele>503.0</ele><time>2026-03-27T14:54:05.999Z</time></trkpt><trkpt lat="43.25056035354201" lon="10.867992110985808"><ele>502.3333333333333</ele><time>2026-03-27T14:54:06.999Z</time></trkpt><trkpt lat="43.250492234558315" lon="10.868228997413555"><ele>501.66666666666663</ele><time>2026-03-27T14:54:07.999Z</time></trkpt><trkpt lat="43.25042399248113" lon="10.868466618826412"><ele>501.0</ele><time>2026-03-27T14:54:08.999Z</time></trkpt><trkpt lat="43.25035663996577" lon="10.868707887893464"><ele>501.0</ele><time>2026-03-27T14:54:09.999Z</time></trkpt><trkpt lat="43.250292751204405" lon="10.86894182296838"><ele>501.0</ele><time>2026-03-27T14:54:10.999Z</time></trkpt><trkpt lat="43.250228869121784" lon="10.869160907648565"><ele>501.0</ele><time>2026-03-27T14:54:11.999Z</time></trkpt><trkpt lat="43.25016468323323" lon="10.869385437138265"><ele>500.66666666666663</ele><time>2026-03-27T14:54:13Z</time></trkpt><trkpt lat="43.25010537995168" lon="10.86960517251568"><ele>500.3333333333333</ele><time>2026-03-27T14:54:14Z</time></trkpt><trkpt lat="43.250046621742335" lon="10.869804096535963"><ele>500.0</ele><time>2026-03-27T14:54:15Z</time></trkpt><trkpt lat="43.24999718376845" lon="10.869992208416758"><ele>500.25</ele><time>2026-03-27T14:54:16Z</time></trkpt><trkpt lat="43.24996567332787" lon="10.870157075816554"><ele>500.5</ele><time>2026-03-27T14:54:17Z</time></trkpt><trkpt lat="43.24996417220439" lon="10.87032011974152"><ele>500.75</ele><time>2026-03-27T14:54:18Z</time></trkpt><trkpt lat="43.250018718701256" lon="10.870498802919604"><ele>501.0</ele><time>2026-03-27T14:54:19Z</time></trkpt><trkpt lat="43.250105268409285" lon="10.870682038931589"><ele>501.0</ele><time>2026-03-27T14:54:20Z</time></trkpt><trkpt lat="43.25018155988762" lon="10.870889679438761"><ele>501.0</ele><time>2026-03-27T14:54:21Z</time></trkpt><trkpt lat="43.25028173289476" lon="10.871088271130326"><ele>501.0</ele><time>2026-03-27T14:54:22Z</time></trkpt><trkpt lat="43.2503975975526" lon="10.871250979254896"><ele>501.75</ele><time>2026-03-27T14:54:23Z</time></trkpt><trkpt lat="43.250480865829964" lon="10.871403386908966"><ele>502.5</ele><time>2026-03-27T14:54:24Z</time></trkpt><trkpt lat="43.25052195107367" lon="10.871538981252437"><ele>503.25</ele><time>2026-03-27T14:54:25Z</time></trkpt><trkpt lat="43.250515667652905" lon="10.871726480047457"><ele>504.0</ele><time>2026-03-27T14:54:26Z</time></trkpt><trkpt lat="43.25055557278817" lon="10.871928730558626"><ele>504.0</ele><time>2026-03-27T14:54:27Z</time></trkpt><trkpt lat="43.250616113232375" lon="10.872112862105135"><ele>504.0</ele><time>2026-03-27T14:54:28Z</time></trkpt><trkpt lat="43.25069469032168" lon="10.872270456197622"><ele>504.0</ele><time>2026-03-27T14:54:29Z</time></trkpt><trkpt lat="43.25080572923427" lon="10.872399503911915"><ele>504.0</ele><time>2026-03-27T14:54:30Z</time></trkpt><trkpt lat="43.25090470114681" lon="10.872488965696276"><ele>499.4</ele><time>2026-03-27T14:54:31Z</time></trkpt><trkpt lat="43.25096297020492" lon="10.872585517493357"><ele>494.79999999999995</ele><time>2026-03-27T14:54:32Z</time></trkpt><trkpt lat="43.25097168846459" lon="10.872687322859168"><ele>490.20000000000005</ele><time>2026-03-27T14:54:33Z</time></trkpt><trkpt lat="43.25093722861456" lon="10.872817292585225"><ele>485.6</ele><time>2026-03-27T14:54:34Z</time></trkpt><trkpt lat="43.25085584946303" lon="10.872965044241905"><ele>481.0</ele><time>2026-03-27T14:54:35Z</time></trkpt><trkpt lat="43.250800352053815" lon="10.873132171023935"><ele>480.20000000000005</ele><time>2026-03-27T14:54:36Z</time></trkpt><trkpt lat="43.25079301849622" lon="10.873314170467733"><ele>479.40000000000003</ele><time>2026-03-27T14:54:37Z</time></trkpt><trkpt lat="43.25081047250728" lon="10.873475036853382"><ele>478.6</ele><time>2026-03-27T14:54:38Z</time></trkpt><trkpt lat="43.250862534123144" lon="10.873594790522885"><ele>477.8</ele><time>2026-03-27T14:54:39Z</time></trkpt><trkpt lat="43.250910308033006" lon="10.87368202111981"><ele>477.0</ele><time>2026-03-27T14:54:40Z</time></trkpt><trkpt lat="43.25094071391947" lon="10.87377474635112"><ele>476.40000000000003</ele><time>2026-03-27T14:54:42Z</time></trkpt><trkpt lat="43.25103482416703" lon="10.873871265868821"><ele>475.80000000000007</ele><time>2026-03-27T14:54:45Z</time></trkpt><trkpt lat="43.25107870585674" lon="10.87397360335195"><ele>475.2</ele><time>2026-03-27T14:54:46Z</time></trkpt><trkpt lat="43.25112375912346" lon="10.87410570264049"><ele>474.6</ele><time>2026-03-27T14:54:47Z</time></trkpt><trkpt lat="43.25114353233011" lon="10.874268868938078"><ele>474.0</ele><time>2026-03-27T14:54:48Z</time></trkpt><trkpt lat="43.251131952977666" lon="10.874440070099027"><ele>473.75</ele><time>2026-03-27T14:54:49Z</time></trkpt><trkpt lat="43.25109516647598" lon="10.874601012669501"><ele>473.5</ele><time>2026-03-27T14:54:50Z</time></trkpt><trkpt lat="43.25108365679191" lon="10.87476197846787"><ele>473.25</ele><time>2026-03-27T14:54:51Z</time></trkpt><trkpt lat="43.25111399879785" lon="10.874921263371846"><ele>473.0</ele><time>2026-03-27T14:54:52Z</time></trkpt><trkpt lat="43.25120013635249" lon="10.875055113040716"><ele>471.3333333333333</ele><time>2026-03-27T14:54:53Z</time></trkpt><trkpt lat="43.25132257301455" lon="10.875178391707328"><ele>469.66666666666663</ele><time>2026-03-27T14:54:54Z</time></trkpt><trkpt lat="43.251471765797234" lon="10.875273419732999"><ele>468.0</ele><time>2026-03-27T14:54:55Z</time></trkpt><trkpt lat="43.25162394986392" lon="10.875361658631798"><ele>462.0</ele><time>2026-03-27T14:54:56Z</time></trkpt><trkpt lat="43.25177673176988" lon="10.875442095906195"><ele>456.0</ele><time>2026-03-27T14:54:57Z</time></trkpt><trkpt lat="43.25200337199756" lon="10.875688289910181"><ele>456.0</ele><time>2026-03-27T14:54:59Z</time></trkpt><trkpt lat="43.252081640742134" lon="10.875810655998409"><ele>456.0</ele><time>2026-03-27T14:55:00Z</time></trkpt><trkpt lat="43.25214110742659" lon="10.87597550164032"><ele>456.0</ele><time>2026-03-27T14:55:01Z</time></trkpt><trkpt lat="43.252184456182114" lon="10.876186920614263"><ele>456.0</ele><time>2026-03-27T14:55:02Z</time></trkpt><trkpt lat="43.25223665303695" lon="10.876403425935926"><ele>458.0</ele><time>2026-03-27T14:55:03Z</time></trkpt><trkpt lat="43.25226787824386" lon="10.876611928087318"><ele>460.0</ele><time>2026-03-27T14:55:04Z</time></trkpt><trkpt lat="43.2523143564836" lon="10.876794738726549"><ele>462.0</ele><time>2026-03-27T14:55:05Z</time></trkpt><trkpt lat="43.25238696663945" lon="10.876936168946411"><ele>464.0</ele><time>2026-03-27T14:55:06Z</time></trkpt><trkpt lat="43.252470264968174" lon="10.877041972323074"><ele>457.75</ele><time>2026-03-27T14:55:07Z</time></trkpt><trkpt lat="43.25254445818948" lon="10.877138106815917"><ele>451.5</ele><time>2026-03-27T14:55:08Z</time></trkpt><trkpt lat="43.25259219964285" lon="10.877267382886549"><ele>445.25</ele><time>2026-03-27T14:55:09Z</time></trkpt><trkpt lat="43.2525954452027" lon="10.877429657700041"><ele>439.0</ele><time>2026-03-27T14:55:10Z</time></trkpt><trkpt lat="43.25257188654372" lon="10.877612768088934"><ele>437.79999999999995</ele><time>2026-03-27T14:55:11Z</time></trkpt><trkpt lat="43.25256203622083" lon="10.877783986141777"><ele>436.59999999999997</ele><time>2026-03-27T14:55:12Z</time></trkpt><trkpt lat="43.25256608076642" lon="10.877932890026996"><ele>435.4</ele><time>2026-03-27T14:55:13Z</time></trkpt><trkpt lat="43.2525760658537" lon="10.878034214109176"><ele>434.2</ele><time>2026-03-27T14:55:14Z</time></trkpt><trkpt lat="43.25261746447645" lon="10.878120993214502"><ele>433.0</ele><time>2026-03-27T14:55:16Z</time></trkpt><trkpt lat="43.2527489165415" lon="10.87806017547769"><ele>433.0</ele><time>2026-03-27T14:55:18Z</time></trkpt><trkpt lat="43.25283685495085" lon="10.878009072987702"><ele>432.99999999999994</ele><time>2026-03-27T14:55:19Z</time></trkpt><trkpt lat="43.25291034604188" lon="10.877944796649587"><ele>432.99999999999994</ele><time>2026-03-27T14:55:20Z</time></trkpt><trkpt lat="43.252977342644655" lon="10.877872658330034"><ele>433.0</ele><time>2026-03-27T14:55:21Z</time></trkpt><trkpt lat="43.253067802005134" lon="10.877863533089037"><ele>433.0</ele><time>2026-03-27T14:55:22Z</time></trkpt><trkpt lat="43.25316130714666" lon="10.877897951074667"><ele>432.75</ele><time>2026-03-27T14:55:23Z</time></trkpt><trkpt lat="43.25325574138256" lon="10.878000608783617"><ele>432.5</ele><time>2026-03-27T14:55:24Z</time></trkpt><trkpt lat="43.25339936374579" lon="10.878046148801022"><ele>432.25</ele><time>2026-03-27T14:55:25Z</time></trkpt><trkpt lat="43.2535378129068" lon="10.878141666352363"><ele>432.0</ele><time>2026-03-27T14:55:26Z</time></trkpt><trkpt lat="43.25366939438052" lon="10.878234307454061"><ele>432.0</ele><time>2026-03-27T14:55:27Z</time></trkpt><trkpt lat="43.25381974150022" lon="10.878302463774306"><ele>432.0</ele><time>2026-03-27T14:55:28Z</time></trkpt><trkpt lat="43.25398700292654" lon="10.878321565035963"><ele>432.0</ele><time>2026-03-27T14:55:29Z</time></trkpt><trkpt lat="43.25415845671626" lon="10.878296293972232"><ele>431.0</ele><time>2026-03-27T14:55:30Z</time></trkpt><trkpt lat="43.254330165881576" lon="10.87822807151457"><ele>430.0</ele><time>2026-03-27T14:55:31Z</time></trkpt><trkpt lat="43.254512806052" lon="10.878141351770218"><ele>429.0</ele><time>2026-03-27T14:55:32Z</time></trkpt><trkpt lat="43.25469956224899" lon="10.878071648964982"><ele>429.33333333333337</ele><time>2026-03-27T14:55:33Z</time></trkpt><trkpt lat="43.25488402157775" lon="10.87801163480804"><ele>429.6666666666667</ele><time>2026-03-27T14:55:34Z</time></trkpt><trkpt lat="43.255057951889846" lon="10.877964466213307"><ele>430.0</ele><time>2026-03-27T14:55:35Z</time></trkpt><trkpt lat="43.25522586774099" lon="10.877948420355132"><ele>430.0</ele><time>2026-03-27T14:55:36Z</time></trkpt><trkpt lat="43.255383940570844" lon="10.877915273071643"><ele>430.0</ele><time>2026-03-27T14:55:37Z</time></trkpt><trkpt lat="43.255538741748786" lon="10.877818640805105"><ele>430.0</ele><time>2026-03-27T14:55:38Z</time></trkpt><trkpt lat="43.25567748858036" lon="10.877674028652992"><ele>425.6666666666667</ele><time>2026-03-27T14:55:39Z</time></trkpt><trkpt lat="43.25579932678028" lon="10.877502093802036"><ele>421.33333333333337</ele><time>2026-03-27T14:55:40Z</time></trkpt><trkpt lat="43.2559364773015" lon="10.877367788190554"><ele>417.0</ele><time>2026-03-27T14:55:41Z</time></trkpt><trkpt lat="43.25608875748866" lon="10.877284317873688"><ele>417.0</ele><time>2026-03-27T14:55:42Z</time></trkpt><trkpt lat="43.25626637164234" lon="10.877258588193122"><ele>417.0</ele><time>2026-03-27T14:55:43Z</time></trkpt><trkpt lat="43.25644262084357" lon="10.877260125611764"><ele>417.0</ele><time>2026-03-27T14:55:44Z</time></trkpt><trkpt lat="43.25660998154357" lon="10.877261790495242"><ele>418.66666666666663</ele><time>2026-03-27T14:55:45Z</time></trkpt><trkpt lat="43.256764467026386" lon="10.877270415070987"><ele>420.3333333333333</ele><time>2026-03-27T14:55:46Z</time></trkpt><trkpt lat="43.256914789493386" lon="10.8773024515439"><ele>422.0</ele><time>2026-03-27T14:55:47Z</time></trkpt><trkpt lat="43.25706748144802" lon="10.877380286744893"><ele>422.0</ele><time>2026-03-27T14:55:48Z</time></trkpt><trkpt lat="43.25720858160608" lon="10.877503216562658"><ele>422.0</ele><time>2026-03-27T14:55:48.999Z</time></trkpt><trkpt lat="43.25733830422369" lon="10.877658152587536"><ele>422.0</ele><time>2026-03-27T14:55:49.999Z</time></trkpt><trkpt lat="43.25748493703704" lon="10.877792585679327"><ele>424.0</ele><time>2026-03-27T14:55:50.999Z</time></trkpt><trkpt lat="43.25765288379926" lon="10.877875616934064"><ele>426.0</ele><time>2026-03-27T14:55:51.999Z</time></trkpt><trkpt lat="43.257833071438135" lon="10.877902172920672"><ele>428.0</ele><time>2026-03-27T14:55:52.999Z</time></trkpt><trkpt lat="43.25801781004652" lon="10.87788999335676"><ele>424.3333333333333</ele><time>2026-03-27T14:55:53.999Z</time></trkpt><trkpt lat="43.25818737841241" lon="10.877879370976359"><ele>420.66666666666663</ele><time>2026-03-27T14:55:54.999Z</time></trkpt><trkpt lat="43.25834207708386" lon="10.877901334944205"><ele>417.0</ele><time>2026-03-27T14:55:55.999Z</time></trkpt><trkpt lat="43.25849562395006" lon="10.877959776619164"><ele>417.0</ele><time>2026-03-27T14:55:56.999Z</time></trkpt><trkpt lat="43.258641112018665" lon="10.878075580750973"><ele>417.0</ele><time>2026-03-27T14:55:57.999Z</time></trkpt><trkpt lat="43.25878032737224" lon="10.878231483184896"><ele>417.0</ele><time>2026-03-27T14:55:58.999Z</time></trkpt><trkpt lat="43.25891824604313" lon="10.878411483985666"><ele>414.33333333333337</ele><time>2026-03-27T14:55:59.999Z</time></trkpt><trkpt lat="43.25906180161003" lon="10.878591442459461"><ele>411.6666666666667</ele><time>2026-03-27T14:56:00.999Z</time></trkpt><trkpt lat="43.259213073622256" lon="10.878757676622705"><ele>409.0</ele><time>2026-03-27T14:56:01.999Z</time></trkpt><trkpt lat="43.25936975235433" lon="10.878921488492818"><ele>409.0</ele><time>2026-03-27T14:56:02.999Z</time></trkpt><trkpt lat="43.259518030208255" lon="10.879075346488124"><ele>409.0</ele><time>2026-03-27T14:56:03.999Z</time></trkpt><trkpt lat="43.259657002390405" lon="10.879215455137876"><ele>409.0</ele><time>2026-03-27T14:56:04.999Z</time></trkpt><trkpt lat="43.25977716176223" lon="10.87936604967412"><ele>402.0</ele><time>2026-03-27T14:56:05.999Z</time></trkpt><trkpt lat="43.259859205937985" lon="10.879535998703977"><ele>395.0</ele><time>2026-03-27T14:56:06.999Z</time></trkpt><trkpt lat="43.259896883157595" lon="10.879730036450441"><ele>388.0</ele><time>2026-03-27T14:56:07.999Z</time></trkpt><trkpt lat="43.25985929955081" lon="10.879949165387528"><ele>387.33333333333337</ele><time>2026-03-27T14:56:08.999Z</time></trkpt><trkpt lat="43.25982154035753" lon="10.880171698517959"><ele>386.66666666666663</ele><time>2026-03-27T14:56:09.999Z</time></trkpt><trkpt lat="43.259821287994846" lon="10.880409102325132"><ele>386.0</ele><time>2026-03-27T14:56:10.999Z</time></trkpt><trkpt lat="43.259822066612465" lon="10.880663356067831"><ele>386.0</ele><time>2026-03-27T14:56:11.999Z</time></trkpt><trkpt lat="43.25989537860073" lon="10.880907766103764"><ele>386.0</ele><time>2026-03-27T14:56:12.999Z</time></trkpt><trkpt lat="43.25997255979702" lon="10.881149700149317"><ele>386.0</ele><time>2026-03-27T14:56:13.999Z</time></trkpt><trkpt lat="43.26003819580484" lon="10.881386320043834"><ele>386.0</ele><time>2026-03-27T14:56:14.999Z</time></trkpt><trkpt lat="43.26008830050463" lon="10.88161727456239"><ele>386.0</ele><time>2026-03-27T14:56:15.999Z</time></trkpt><trkpt lat="43.2601218549012" lon="10.881833692338425"><ele>386.0</ele><time>2026-03-27T14:56:16.999Z</time></trkpt><trkpt lat="43.26015753392457" lon="10.882017421535762"><ele>384.5</ele><time>2026-03-27T14:56:17.999Z</time></trkpt><trkpt lat="43.26022558800176" lon="10.882161366000238"><ele>383.0</ele><time>2026-03-27T14:56:19Z</time></trkpt><trkpt lat="43.260333053417504" lon="10.882304775858831"><ele>381.5</ele><time>2026-03-27T14:56:20Z</time></trkpt><trkpt lat="43.26047928383925" lon="10.882411534487629"><ele>380.0</ele><time>2026-03-27T14:56:21Z</time></trkpt><trkpt lat="43.26064360323621" lon="10.88248354908306"><ele>380.0</ele><time>2026-03-27T14:56:22Z</time></trkpt><trkpt lat="43.26080822815898" lon="10.882493135627204"><ele>380.0</ele><time>2026-03-27T14:56:23Z</time></trkpt><trkpt lat="43.26096898064962" lon="10.882442933554337"><ele>380.0</ele><time>2026-03-27T14:56:24Z</time></trkpt><trkpt lat="43.26111400936016" lon="10.88233352364364"><ele>380.0</ele><time>2026-03-27T14:56:25Z</time></trkpt><trkpt lat="43.26123553461064" lon="10.882177825861666"><ele>380.0</ele><time>2026-03-27T14:56:26Z</time></trkpt><trkpt lat="43.26135401947969" lon="10.88198716245167"><ele>380.0</ele><time>2026-03-27T14:56:27Z</time></trkpt><trkpt lat="43.26148810426978" lon="10.8818108891014"><ele>378.6666666666667</ele><time>2026-03-27T14:56:28Z</time></trkpt><trkpt lat="43.26163127271399" lon="10.881651308155616"><ele>377.3333333333333</ele><time>2026-03-27T14:56:29Z</time></trkpt><trkpt lat="43.26177520753799" lon="10.88149511984575"><ele>376.0</ele><time>2026-03-27T14:56:30Z</time></trkpt><trkpt lat="43.26193300040797" lon="10.881360287477406"><ele>376.0</ele><time>2026-03-27T14:56:31Z</time></trkpt><trkpt lat="43.26206239670682" lon="10.881181665978326"><ele>376.0</ele><time>2026-03-27T14:56:32Z</time></trkpt><trkpt lat="43.26216909999864" lon="10.8809847836473"><ele>376.0</ele><time>2026-03-27T14:56:33Z</time></trkpt><trkpt lat="43.26229452282485" lon="10.880810744881362"><ele>374.3333333333333</ele><time>2026-03-27T14:56:34Z</time></trkpt><trkpt lat="43.26242781982243" lon="10.880675306799233"><ele>372.6666666666667</ele><time>2026-03-27T14:56:35Z</time></trkpt><trkpt lat="43.26256809887984" lon="10.880580041854673"><ele>371.0</ele><time>2026-03-27T14:56:36Z</time></trkpt><trkpt lat="43.2627226720392" lon="10.880551166921842"><ele>371.0</ele><time>2026-03-27T14:56:37Z</time></trkpt><trkpt lat="43.26286874543572" lon="10.880555784982343"><ele>371.0</ele><time>2026-03-27T14:56:38Z</time></trkpt><trkpt lat="43.26299951182267" lon="10.880523518795771"><ele>371.0</ele><time>2026-03-27T14:56:39Z</time></trkpt><trkpt lat="43.26312150362848" lon="10.88041270798961"><ele>371.0</ele><time>2026-03-27T14:56:40Z</time></trkpt><trkpt lat="43.263222431628485" lon="10.880226433038207"><ele>370.0</ele><time>2026-03-27T14:56:41Z</time></trkpt><trkpt lat="43.26332011918552" lon="10.880009917386674"><ele>369.0</ele><time>2026-03-27T14:56:42Z</time></trkpt><trkpt lat="43.26344152264642" lon="10.879811256914032"><ele>368.0</ele><time>2026-03-27T14:56:43Z</time></trkpt><trkpt lat="43.26359109529551" lon="10.879646950480454"><ele>368.0</ele><time>2026-03-27T14:56:44Z</time></trkpt><trkpt lat="43.26374364179687" lon="10.879510320544542"><ele>368.0</ele><time>2026-03-27T14:56:45Z</time></trkpt><trkpt lat="43.26389098290272" lon="10.879386282330243"><ele>368.0</ele><time>2026-03-27T14:56:46Z</time></trkpt><trkpt lat="43.264020629242886" lon="10.879243846656973"><ele>367.33333333333337</ele><time>2026-03-27T14:56:47Z</time></trkpt><trkpt lat="43.264116726236" lon="10.87904428779914"><ele>366.6666666666667</ele><time>2026-03-27T14:56:48Z</time></trkpt><trkpt lat="43.26418435349892" lon="10.878809510365661"><ele>366.0</ele><time>2026-03-27T14:56:49Z</time></trkpt><trkpt lat="43.26425034245982" lon="10.878610693051728"><ele>366.0</ele><time>2026-03-27T14:56:50Z</time></trkpt><trkpt lat="43.26434593552418" lon="10.878436995200333"><ele>366.0</ele><time>2026-03-27T14:56:51Z</time></trkpt><trkpt lat="43.26446798458966" lon="10.878311047571174"><ele>366.0</ele><time>2026-03-27T14:56:52Z</time></trkpt><trkpt lat="43.2646230830387" lon="10.878217740994424"><ele>366.0</ele><time>2026-03-27T14:56:53Z</time></trkpt><trkpt lat="43.26479620550412" lon="10.878168291598106"><ele>366.0</ele><time>2026-03-27T14:56:54Z</time></trkpt><trkpt lat="43.26497388164904" lon="10.878132257937912"><ele>366.0</ele><time>2026-03-27T14:56:55Z</time></trkpt><trkpt lat="43.265156751121786" lon="10.878121321743482"><ele>366.0</ele><time>2026-03-27T14:56:56Z</time></trkpt><trkpt lat="43.265344360887084" lon="10.878152694448595"><ele>366.0</ele><time>2026-03-27T14:56:57Z</time></trkpt><trkpt lat="43.26553158790664" lon="10.878210938459969"><ele>366.0</ele><time>2026-03-27T14:56:58Z</time></trkpt><trkpt lat="43.26570620004718" lon="10.87827114059502"><ele>365.3333333333333</ele><time>2026-03-27T14:56:59Z</time></trkpt><trkpt lat="43.265882231350474" lon="10.878295510141893"><ele>364.66666666666663</ele><time>2026-03-27T14:57:00Z</time></trkpt><trkpt lat="43.26606157423089" lon="10.87826754702325"><ele>364.0</ele><time>2026-03-27T14:57:01Z</time></trkpt><trkpt lat="43.2662328713017" lon="10.878173621950948"><ele>364.0</ele><time>2026-03-27T14:57:02Z</time></trkpt><trkpt lat="43.266387217807114" lon="10.878049645203943"><ele>364.0</ele><time>2026-03-27T14:57:03Z</time></trkpt><trkpt lat="43.2665310584815" lon="10.87792680514893"><ele>364.0</ele><time>2026-03-27T14:57:04Z</time></trkpt><trkpt lat="43.266677732036186" lon="10.877832784199752"><ele>364.75</ele><time>2026-03-27T14:57:05Z</time></trkpt><trkpt lat="43.2668188087011" lon="10.877784058090455"><ele>365.5</ele><time>2026-03-27T14:57:06Z</time></trkpt><trkpt lat="43.266944393389295" lon="10.87779833968813"><ele>366.25</ele><time>2026-03-27T14:57:07Z</time></trkpt><trkpt lat="43.26708184052292" lon="10.87787549691444"><ele>367.0</ele><time>2026-03-27T14:57:08Z</time></trkpt><trkpt lat="43.26721317377386" lon="10.877994805895211"><ele>364.3333333333333</ele><time>2026-03-27T14:57:09Z</time></trkpt><trkpt lat="43.26735006877339" lon="10.878118793969453"><ele>361.6666666666667</ele><time>2026-03-27T14:57:10Z</time></trkpt><trkpt lat="43.26748054919789" lon="10.878254631444799"><ele>359.0</ele><time>2026-03-27T14:57:11Z</time></trkpt><trkpt lat="43.26759028620091" lon="10.878436669882756"><ele>359.0</ele><time>2026-03-27T14:57:12Z</time></trkpt><trkpt lat="43.267685319294515" lon="10.878646900924052"><ele>359.0</ele><time>2026-03-27T14:57:13Z</time></trkpt><trkpt lat="43.26778293891311" lon="10.878857069748694"><ele>359.0</ele><time>2026-03-27T14:57:14Z</time></trkpt><trkpt lat="43.26788999800141" lon="10.879036900147046"><ele>359.0</ele><time>2026-03-27T14:57:15Z</time></trkpt><trkpt lat="43.26800399561633" lon="10.8791929710435"><ele>359.0</ele><time>2026-03-27T14:57:16Z</time></trkpt><trkpt lat="43.268112472709504" lon="10.879347234833439"><ele>359.0</ele><time>2026-03-27T14:57:17Z</time></trkpt><trkpt lat="43.26820726796701" lon="10.879495114457606"><ele>354.0</ele><time>2026-03-27T14:57:18Z</time></trkpt><trkpt lat="43.268277347309294" lon="10.879629259770791"><ele>349.0</ele><time>2026-03-27T14:57:19Z</time></trkpt><trkpt lat="43.26830464264968" lon="10.879769426820896"><ele>344.0</ele><time>2026-03-27T14:57:20Z</time></trkpt><trkpt lat="43.26827432225426" lon="10.879937271078756"><ele>339.0</ele><time>2026-03-27T14:57:21Z</time></trkpt><trkpt lat="43.26820215249648" lon="10.880096869215695"><ele>337.75</ele><time>2026-03-27T14:57:22Z</time></trkpt><trkpt lat="43.26813936299128" lon="10.880271689310206"><ele>336.5</ele><time>2026-03-27T14:57:23Z</time></trkpt><trkpt lat="43.26809742646595" lon="10.880470904881202"><ele>335.25</ele><time>2026-03-27T14:57:24Z</time></trkpt><trkpt lat="43.268064687366305" lon="10.880669590469951"><ele>334.0</ele><time>2026-03-27T14:57:25Z</time></trkpt><trkpt lat="43.26803419095487" lon="10.880850490712497"><ele>335.75</ele><time>2026-03-27T14:57:26Z</time></trkpt><trkpt lat="43.26800011670417" lon="10.881029162074077"><ele>337.5</ele><time>2026-03-27T14:57:27Z</time></trkpt><trkpt lat="43.267944327066644" lon="10.88120349016578"><ele>339.25</ele><time>2026-03-27T14:57:28Z</time></trkpt><trkpt lat="43.26785724812744" lon="10.88137823208409"><ele>341.0</ele><time>2026-03-27T14:57:29Z</time></trkpt><trkpt lat="43.267743952852676" lon="10.881530426466767"><ele>341.0</ele><time>2026-03-27T14:57:30Z</time></trkpt><trkpt lat="43.26763744727315" lon="10.881672685267148"><ele>341.0</ele><time>2026-03-27T14:57:31Z</time></trkpt><trkpt lat="43.26754438481175" lon="10.881831370037618"><ele>341.0</ele><time>2026-03-27T14:57:32Z</time></trkpt><trkpt lat="43.26747115914123" lon="10.882024340568519"><ele>337.33333333333337</ele><time>2026-03-27T14:57:33Z</time></trkpt><trkpt lat="43.267421478112006" lon="10.882240326821517"><ele>333.6666666666667</ele><time>2026-03-27T14:57:34Z</time></trkpt><trkpt lat="43.267383700071775" lon="10.882470421023395"><ele>330.0</ele><time>2026-03-27T14:57:35Z</time></trkpt><trkpt lat="43.26733925237097" lon="10.882684538105542"><ele>329.5</ele><time>2026-03-27T14:57:36Z</time></trkpt><trkpt lat="43.26729115379396" lon="10.882886878987444"><ele>329.0</ele><time>2026-03-27T14:57:37Z</time></trkpt><trkpt lat="43.267249273151755" lon="10.883079158968716"><ele>328.5</ele><time>2026-03-27T14:57:38Z</time></trkpt><trkpt lat="43.26721997570267" lon="10.883246777340378"><ele>328.0</ele><time>2026-03-27T14:57:39Z</time></trkpt><trkpt lat="43.2672098994541" lon="10.883394317133748"><ele>328.79999999999995</ele><time>2026-03-27T14:57:40Z</time></trkpt><trkpt lat="43.26723877560348" lon="10.883521147247178"><ele>329.6</ele><time>2026-03-27T14:57:41Z</time></trkpt><trkpt lat="43.26729312487766" lon="10.883619776537147"><ele>330.4</ele><time>2026-03-27T14:57:42Z</time></trkpt><trkpt lat="43.267388389358686" lon="10.883666240671003"><ele>331.20000000000005</ele><time>2026-03-27T14:57:43Z</time></trkpt><trkpt lat="43.26748932863079" lon="10.883691178781893"><ele>332.0</ele><time>2026-03-27T14:57:43.999Z</time></trkpt><trkpt lat="43.267607371348895" lon="10.883728145961955"><ele>332.0</ele><time>2026-03-27T14:57:44.999Z</time></trkpt><trkpt lat="43.26772955438581" lon="10.883784310249073"><ele>332.0</ele><time>2026-03-27T14:57:45.999Z</time></trkpt><trkpt lat="43.2678531675309" lon="10.88386091422286"><ele>332.0</ele><time>2026-03-27T14:57:46.999Z</time></trkpt><trkpt lat="43.267978982834684" lon="10.883961685565232"><ele>332.0</ele><time>2026-03-27T14:57:47.999Z</time></trkpt><trkpt lat="43.26809679789347" lon="10.884091163526847"><ele>330.0</ele><time>2026-03-27T14:57:48.999Z</time></trkpt><trkpt lat="43.26821113990236" lon="10.884232548481185"><ele>328.0</ele><time>2026-03-27T14:57:49.999Z</time></trkpt><trkpt lat="43.26832902674855" lon="10.884379415310315"><ele>326.0</ele><time>2026-03-27T14:57:50.999Z</time></trkpt><trkpt lat="43.26844311987858" lon="10.884519883927888"><ele>326.0</ele><time>2026-03-27T14:57:51.999Z</time></trkpt><trkpt lat="43.26855036424912" lon="10.884653963753419"><ele>326.0</ele><time>2026-03-27T14:57:52.999Z</time></trkpt><trkpt lat="43.2686390059711" lon="10.884791292344834"><ele>326.0</ele><time>2026-03-27T14:57:53.999Z</time></trkpt><trkpt lat="43.26869558138458" lon="10.884931346689502"><ele>326.0</ele><time>2026-03-27T14:57:54.999Z</time></trkpt><trkpt lat="43.268712946742475" lon="10.885091849234733"><ele>326.75</ele><time>2026-03-27T14:57:55.999Z</time></trkpt><trkpt lat="43.26868917424256" lon="10.88525975422236"><ele>327.5</ele><time>2026-03-27T14:57:56.999Z</time></trkpt><trkpt lat="43.26866436769496" lon="10.885413011175867"><ele>328.25</ele><time>2026-03-27T14:57:57.999Z</time></trkpt><trkpt lat="43.268673085207745" lon="10.885569900349841"><ele>329.0</ele><time>2026-03-27T14:57:58.999Z</time></trkpt><trkpt lat="43.268718100837226" lon="10.885715002655667"><ele>329.0</ele><time>2026-03-27T14:57:59.999Z</time></trkpt><trkpt lat="43.2687928092546" lon="10.885840842872245"><ele>329.0</ele><time>2026-03-27T14:58:00.999Z</time></trkpt><trkpt lat="43.268897210515874" lon="10.885947666811024"><ele>329.0</ele><time>2026-03-27T14:58:01.999Z</time></trkpt><trkpt lat="43.26900335535528" lon="10.886037207616791"><ele>329.0</ele><time>2026-03-27T14:58:02.999Z</time></trkpt><trkpt lat="43.269111556739674" lon="10.886112270710166"><ele>326.4</ele><time>2026-03-27T14:58:03.999Z</time></trkpt><trkpt lat="43.26921403841157" lon="10.886186826060959"><ele>323.79999999999995</ele><time>2026-03-27T14:58:04.999Z</time></trkpt><trkpt lat="43.26929216950525" lon="10.886277670512671"><ele>321.20000000000005</ele><time>2026-03-27T14:58:05.999Z</time></trkpt><trkpt lat="43.26934143294176" lon="10.886402641563127"><ele>318.6</ele><time>2026-03-27T14:58:06.999Z</time></trkpt><trkpt lat="43.269353974626284" lon="10.886547190373378"><ele>316.0</ele><time>2026-03-27T14:58:07.999Z</time></trkpt><trkpt lat="43.26932036540184" lon="10.886699593795138"><ele>315.0</ele><time>2026-03-27T14:58:08.999Z</time></trkpt><trkpt lat="43.2692329918444" lon="10.886842670858428"><ele>314.0</ele><time>2026-03-27T14:58:09.999Z</time></trkpt><trkpt lat="43.269192597364324" lon="10.887024806124408"><ele>313.0</ele><time>2026-03-27T14:58:10.999Z</time></trkpt><trkpt lat="43.26915980989075" lon="10.887206086816304"><ele>312.0</ele><time>2026-03-27T14:58:11.999Z</time></trkpt><trkpt lat="43.26915440987862" lon="10.887396009234493"><ele>312.0</ele><time>2026-03-27T14:58:12.999Z</time></trkpt><trkpt lat="43.26917019474482" lon="10.887590913000157"><ele>312.0</ele><time>2026-03-27T14:58:13.999Z</time></trkpt><trkpt lat="43.26919452593745" lon="10.887778235795302"><ele>312.0</ele><time>2026-03-27T14:58:14.999Z</time></trkpt><trkpt lat="43.26922297508852" lon="10.887954860188184"><ele>312.0</ele><time>2026-03-27T14:58:15.999Z</time></trkpt><trkpt lat="43.26924588261023" lon="10.888125043348277"><ele>311.0</ele><time>2026-03-27T14:58:16.999Z</time></trkpt><trkpt lat="43.269236362972165" lon="10.888304152782018"><ele>310.0</ele><time>2026-03-27T14:58:17.999Z</time></trkpt><trkpt lat="43.269180551563935" lon="10.888467977294404"><ele>309.0</ele><time>2026-03-27T14:58:18.999Z</time></trkpt><trkpt lat="43.269139798618625" lon="10.888645836973259"><ele>308.0</ele><time>2026-03-27T14:58:19.999Z</time></trkpt><trkpt lat="43.269124572608916" lon="10.888841662568565"><ele>307.33333333333337</ele><time>2026-03-27T14:58:20.999Z</time></trkpt><trkpt lat="43.269159984875195" lon="10.889041599049353"><ele>306.6666666666667</ele><time>2026-03-27T14:58:21.999Z</time></trkpt><trkpt lat="43.26919674444647" lon="10.889244607486548"><ele>306.0</ele><time>2026-03-27T14:58:22.999Z</time></trkpt><trkpt lat="43.26923890123575" lon="10.88945208394185"><ele>305.0</ele><time>2026-03-27T14:58:23.999Z</time></trkpt><trkpt lat="43.26926907703136" lon="10.88967115205922"><ele>304.0</ele><time>2026-03-27T14:58:25Z</time></trkpt><trkpt lat="43.26929660433178" lon="10.889892434497106"><ele>303.0</ele><time>2026-03-27T14:58:26Z</time></trkpt><trkpt lat="43.26931446387554" lon="10.890115931470648"><ele>301.6666666666667</ele><time>2026-03-27T14:58:27Z</time></trkpt><trkpt lat="43.2693105665371" lon="10.890341225197629"><ele>300.33333333333337</ele><time>2026-03-27T14:58:28Z</time></trkpt><trkpt lat="43.269284608344705" lon="10.890569561213647"><ele>299.0</ele><time>2026-03-27T14:58:29Z</time></trkpt><trkpt lat="43.26924151980373" lon="10.890796680940547"><ele>295.6666666666667</ele><time>2026-03-27T14:58:30Z</time></trkpt><trkpt lat="43.269195531216816" lon="10.891019664345306"><ele>292.3333333333333</ele><time>2026-03-27T14:58:31Z</time></trkpt><trkpt lat="43.26915452348278" lon="10.891249063065645"><ele>289.0</ele><time>2026-03-27T14:58:32Z</time></trkpt><trkpt lat="43.26911128811978" lon="10.891464169038318"><ele>289.0</ele><time>2026-03-27T14:58:33Z</time></trkpt><trkpt lat="43.26906894901767" lon="10.891668878649492"><ele>289.0</ele><time>2026-03-27T14:58:34Z</time></trkpt><trkpt lat="43.26901302405391" lon="10.891855998736805"><ele>289.0</ele><time>2026-03-27T14:58:35Z</time></trkpt><trkpt lat="43.26893486870865" lon="10.89201139790876"><ele>289.0</ele><time>2026-03-27T14:58:36Z</time></trkpt><trkpt lat="43.26884384083936" lon="10.89212360863803"><ele>288.0</ele><time>2026-03-27T14:58:37Z</time></trkpt><trkpt lat="43.268784667047385" lon="10.892226218464469"><ele>287.0</ele><time>2026-03-27T14:58:38Z</time></trkpt><trkpt lat="43.26876631899934" lon="10.892349019503957"><ele>286.0</ele><time>2026-03-27T14:58:39Z</time></trkpt><trkpt lat="43.26877846546923" lon="10.892487073999927"><ele>285.0</ele><time>2026-03-27T14:58:40Z</time></trkpt><trkpt lat="43.268871442492355" lon="10.89261901502525"><ele>284.0</ele><time>2026-03-27T14:58:41Z</time></trkpt><trkpt lat="43.26899201403745" lon="10.892729675727026"><ele>284.0</ele><time>2026-03-27T14:58:42Z</time></trkpt><trkpt lat="43.26912461036817" lon="10.892844193877986"><ele>284.0</ele><time>2026-03-27T14:58:43Z</time></trkpt><trkpt lat="43.26926988599391" lon="10.892971168722756"><ele>284.0</ele><time>2026-03-27T14:58:44Z</time></trkpt><trkpt lat="43.26942093444257" lon="10.893102707044777"><ele>284.0</ele><time>2026-03-27T14:58:45Z</time></trkpt><trkpt lat="43.26957584322018" lon="10.893239811359912"><ele>284.0</ele><time>2026-03-27T14:58:46Z</time></trkpt><trkpt lat="43.26973911439052" lon="10.893374544975105"><ele>284.0</ele><time>2026-03-27T14:58:47Z</time></trkpt><trkpt lat="43.26989495835253" lon="10.893526551888067"><ele>282.33333333333337</ele><time>2026-03-27T14:58:48Z</time></trkpt><trkpt lat="43.270052828259566" lon="10.893665229274943"><ele>280.6666666666667</ele><time>2026-03-27T14:58:49Z</time></trkpt><trkpt lat="43.270211402882495" lon="10.893802772561045"><ele>279.0</ele><time>2026-03-27T14:58:50Z</time></trkpt><trkpt lat="43.27037236406753" lon="10.893922941793148"><ele>279.0</ele><time>2026-03-27T14:58:51Z</time></trkpt><trkpt lat="43.27053230841881" lon="10.894023385246708"><ele>279.0</ele><time>2026-03-27T14:58:52Z</time></trkpt><trkpt lat="43.270690877805045" lon="10.894092086259612"><ele>279.0</ele><time>2026-03-27T14:58:53Z</time></trkpt><trkpt lat="43.270855865681455" lon="10.894141107117083"><ele>280.3333333333333</ele><time>2026-03-27T14:58:54Z</time></trkpt><trkpt lat="43.27101961724302" lon="10.894182532815343"><ele>281.66666666666663</ele><time>2026-03-27T14:58:55Z</time></trkpt><trkpt lat="43.271182891814455" lon="10.8942251491337"><ele>283.0</ele><time>2026-03-27T14:58:56Z</time></trkpt><trkpt lat="43.27134407681998" lon="10.894270057317387"><ele>284.0</ele><time>2026-03-27T14:58:57Z</time></trkpt><trkpt lat="43.27150494075041" lon="10.894312138580096"><ele>285.0</ele><time>2026-03-27T14:58:58Z</time></trkpt><trkpt lat="43.2716640965282" lon="10.894342986676737"><ele>286.0</ele><time>2026-03-27T14:58:59Z</time></trkpt><trkpt lat="43.27182710720514" lon="10.894360360016544"><ele>286.0</ele><time>2026-03-27T14:59:00Z</time></trkpt><trkpt lat="43.271985431127476" lon="10.894354492244169"><ele>286.0</ele><time>2026-03-27T14:59:01Z</time></trkpt><trkpt lat="43.272147309531555" lon="10.894309784698292"><ele>286.0</ele><time>2026-03-27T14:59:02Z</time></trkpt><trkpt lat="43.27231053343048" lon="10.894235672961674"><ele>282.0</ele><time>2026-03-27T14:59:03Z</time></trkpt><trkpt lat="43.27247464959244" lon="10.89415402870142"><ele>278.0</ele><time>2026-03-27T14:59:04Z</time></trkpt><trkpt lat="43.27264860129158" lon="10.894074332214725"><ele>274.0</ele><time>2026-03-27T14:59:05Z</time></trkpt><trkpt lat="43.27282414525627" lon="10.894000266781292"><ele>274.0</ele><time>2026-03-27T14:59:06Z</time></trkpt><trkpt lat="43.27300013403182" lon="10.893925915495757"><ele>274.0</ele><time>2026-03-27T14:59:07Z</time></trkpt><trkpt lat="43.2731753226896" lon="10.893848840995611"><ele>274.0</ele><time>2026-03-27T14:59:08Z</time></trkpt><trkpt lat="43.27335050776149" lon="10.893771078699208"><ele>274.3333333333333</ele><time>2026-03-27T14:59:09Z</time></trkpt><trkpt lat="43.27353062932507" lon="10.893693782912212"><ele>274.6666666666667</ele><time>2026-03-27T14:59:10Z</time></trkpt><trkpt lat="43.273708257736004" lon="10.8936216980445"><ele>275.0</ele><time>2026-03-27T14:59:11Z</time></trkpt><trkpt lat="43.27388424310022" lon="10.893561155528939"><ele>277.0</ele><time>2026-03-27T14:59:12Z</time></trkpt><trkpt lat="43.27405959136473" lon="10.893519438249653"><ele>279.0</ele><time>2026-03-27T14:59:13Z</time></trkpt><trkpt lat="43.27423564945238" lon="10.893505694519341"><ele>281.0</ele><time>2026-03-27T14:59:14Z</time></trkpt><trkpt lat="43.274409599220014" lon="10.893536763873195"><ele>281.0</ele><time>2026-03-27T14:59:15Z</time></trkpt><trkpt lat="43.27458190614531" lon="10.893602744623877"><ele>281.0</ele><time>2026-03-27T14:59:16Z</time></trkpt><trkpt lat="43.27475106378251" lon="10.89368803482794"><ele>281.0</ele><time>2026-03-27T14:59:17Z</time></trkpt><trkpt lat="43.27492321614451" lon="10.893770132354714"><ele>281.0</ele><time>2026-03-27T14:59:18Z</time></trkpt><trkpt lat="43.27509539661273" lon="10.893856396491952"><ele>281.0</ele><time>2026-03-27T14:59:19Z</time></trkpt><trkpt lat="43.27526718750605" lon="10.893943074349922"><ele>281.0</ele><time>2026-03-27T14:59:20Z</time></trkpt><trkpt lat="43.27544444268856" lon="10.894026440211945"><ele>280.33333333333337</ele><time>2026-03-27T14:59:21Z</time></trkpt><trkpt lat="43.27562288773222" lon="10.894098780092024"><ele>279.6666666666667</ele><time>2026-03-27T14:59:22Z</time></trkpt><trkpt lat="43.27580906111363" lon="10.894171429725791"><ele>279.0</ele><time>2026-03-27T14:59:23Z</time></trkpt><trkpt lat="43.27599739250381" lon="10.894227079200254"><ele>279.0</ele><time>2026-03-27T14:59:24Z</time></trkpt><trkpt lat="43.27619031155125" lon="10.89425818019942"><ele>279.0</ele><time>2026-03-27T14:59:25Z</time></trkpt><trkpt lat="43.276384321475355" lon="10.894251739172512"><ele>279.0</ele><time>2026-03-27T14:59:26Z</time></trkpt><trkpt lat="43.27658103917111" lon="10.894222041016183"><ele>278.6666666666667</ele><time>2026-03-27T14:59:27Z</time></trkpt><trkpt lat="43.27677720621988" lon="10.894161438368966"><ele>278.33333333333337</ele><time>2026-03-27T14:59:28Z</time></trkpt><trkpt lat="43.27697085593728" lon="10.894089940536128"><ele>278.0</ele><time>2026-03-27T14:59:29Z</time></trkpt><trkpt lat="43.27716709867409" lon="10.894021146063762"><ele>279.0</ele><time>2026-03-27T14:59:30Z</time></trkpt><trkpt lat="43.27736100688851" lon="10.893949264656571"><ele>280.0</ele><time>2026-03-27T14:59:31Z</time></trkpt><trkpt lat="43.27755149013857" lon="10.893885913753092"><ele>281.0</ele><time>2026-03-27T14:59:32Z</time></trkpt><trkpt lat="43.27774311444502" lon="10.89382582953347"><ele>281.0</ele><time>2026-03-27T14:59:33Z</time></trkpt><trkpt lat="43.2779346796914" lon="10.893762304100266"><ele>281.0</ele><time>2026-03-27T14:59:34Z</time></trkpt><trkpt lat="43.2781257958461" lon="10.893696444764815"><ele>281.0</ele><time>2026-03-27T14:59:35Z</time></trkpt><trkpt lat="43.27831782873054" lon="10.893629560915194"><ele>280.33333333333337</ele><time>2026-03-27T14:59:36Z</time></trkpt><trkpt lat="43.27850807002003" lon="10.893564193639191"><ele>279.6666666666667</ele><time>2026-03-27T14:59:37Z</time></trkpt><trkpt lat="43.27870056920272" lon="10.893492116811199"><ele>279.0</ele><time>2026-03-27T14:59:38Z</time></trkpt><trkpt lat="43.27889070863066" lon="10.893400303950363"><ele>280.0</ele><time>2026-03-27T14:59:38.999Z</time></trkpt><trkpt lat="43.279072793885994" lon="10.89328547955823"><ele>281.0</ele><time>2026-03-27T14:59:39.999Z</time></trkpt><trkpt lat="43.27924624755486" lon="10.893144410834998"><ele>282.0</ele><time>2026-03-27T14:59:40.999Z</time></trkpt><trkpt lat="43.2794199371252" lon="10.893002343764739"><ele>282.0</ele><time>2026-03-27T14:59:41.999Z</time></trkpt><trkpt lat="43.27960112778255" lon="10.892879401900931"><ele>282.0</ele><time>2026-03-27T14:59:42.999Z</time></trkpt><trkpt lat="43.27978925267087" lon="10.892790307288001"><ele>282.0</ele><time>2026-03-27T14:59:43.999Z</time></trkpt><trkpt lat="43.27998499663871" lon="10.892742599514516"><ele>281.6666666666667</ele><time>2026-03-27T14:59:44.999Z</time></trkpt><trkpt lat="43.28018088407366" lon="10.892701322316995"><ele>281.33333333333337</ele><time>2026-03-27T14:59:45.999Z</time></trkpt><trkpt lat="43.280373822432736" lon="10.892648259270844"><ele>281.0</ele><time>2026-03-27T14:59:46.999Z</time></trkpt><trkpt lat="43.28056137092285" lon="10.89257322403319"><ele>285.0</ele><time>2026-03-27T14:59:47.999Z</time></trkpt><trkpt lat="43.28073212829691" lon="10.892455302224624"><ele>289.0</ele><time>2026-03-27T14:59:48.999Z</time></trkpt><trkpt lat="43.28088160925271" lon="10.892293802927568"><ele>293.0</ele><time>2026-03-27T14:59:49.999Z</time></trkpt><trkpt lat="43.28100259846911" lon="10.89208820543791"><ele>293.0</ele><time>2026-03-27T14:59:50.999Z</time></trkpt><trkpt lat="43.28111111561035" lon="10.891865658688355"><ele>293.0</ele><time>2026-03-27T14:59:51.999Z</time></trkpt><trkpt lat="43.281239439362984" lon="10.891662265109376"><ele>293.0</ele><time>2026-03-27T14:59:52.999Z</time></trkpt><trkpt lat="43.28139026268139" lon="10.89149142343843"><ele>294.33333333333337</ele><time>2026-03-27T14:59:53.999Z</time></trkpt><trkpt lat="43.281562935415586" lon="10.891365261561049"><ele>295.6666666666667</ele><time>2026-03-27T14:59:54.999Z</time></trkpt><trkpt lat="43.28174913491779" lon="10.891276601777038"><ele>297.0</ele><time>2026-03-27T14:59:55.999Z</time></trkpt><trkpt lat="43.28194037389242" lon="10.891213449914245"><ele>297.0</ele><time>2026-03-27T14:59:56.999Z</time></trkpt><trkpt lat="43.282130214775385" lon="10.891148477997726"><ele>297.0</ele><time>2026-03-27T14:59:57.999Z</time></trkpt><trkpt lat="43.282319090425744" lon="10.891078699070972"><ele>297.0</ele><time>2026-03-27T14:59:58.999Z</time></trkpt><trkpt lat="43.28250829338553" lon="10.89100645897051"><ele>298.0</ele><time>2026-03-27T14:59:59.999Z</time></trkpt><trkpt lat="43.282697240712416" lon="10.89093947835136"><ele>299.0</ele><time>2026-03-27T15:00:00.999Z</time></trkpt><trkpt lat="43.2828878084299" lon="10.890884095908296"><ele>300.0</ele><time>2026-03-27T15:00:01.999Z</time></trkpt><trkpt lat="43.28308297114647" lon="10.890859195608396"><ele>303.0</ele><time>2026-03-27T15:00:02.999Z</time></trkpt><trkpt lat="43.28328070304578" lon="10.8908587179022"><ele>306.0</ele><time>2026-03-27T15:00:03.999Z</time></trkpt><trkpt lat="43.28347557420144" lon="10.890890913971143"><ele>309.0</ele><time>2026-03-27T15:00:04.999Z</time></trkpt><trkpt lat="43.28366916150099" lon="10.890923885331281"><ele>308.0</ele><time>2026-03-27T15:00:05.999Z</time></trkpt><trkpt lat="43.28386549273097" lon="10.890954870299307"><ele>307.0</ele><time>2026-03-27T15:00:06.999Z</time></trkpt><trkpt lat="43.284063854584076" lon="10.890976410516531"><ele>306.0</ele><time>2026-03-27T15:00:07.999Z</time></trkpt><trkpt lat="43.284261815925234" lon="10.89097842725141"><ele>306.0</ele><time>2026-03-27T15:00:08.999Z</time></trkpt><trkpt lat="43.28446314903671" lon="10.89093591685433"><ele>306.0</ele><time>2026-03-27T15:00:09.999Z</time></trkpt><trkpt lat="43.28465956831264" lon="10.890860570757333"><ele>306.0</ele><time>2026-03-27T15:00:10.999Z</time></trkpt><trkpt lat="43.28485667146655" lon="10.89077498859419"><ele>308.6666666666667</ele><time>2026-03-27T15:00:11.999Z</time></trkpt><trkpt lat="43.28505618842943" lon="10.890695019428943"><ele>311.33333333333337</ele><time>2026-03-27T15:00:12.999Z</time></trkpt><trkpt lat="43.2852590241751" lon="10.890621012846552"><ele>314.0</ele><time>2026-03-27T15:00:13.999Z</time></trkpt><trkpt lat="43.28546160755758" lon="10.890543328121037"><ele>314.6666666666667</ele><time>2026-03-27T15:00:14.999Z</time></trkpt><trkpt lat="43.2856625991337" lon="10.890462348947999"><ele>315.3333333333333</ele><time>2026-03-27T15:00:15.999Z</time></trkpt><trkpt lat="43.28585689008426" lon="10.890358278766493"><ele>316.0</ele><time>2026-03-27T15:00:16.999Z</time></trkpt><trkpt lat="43.286042072424806" lon="10.890219543900413"><ele>317.66666666666663</ele><time>2026-03-27T15:00:17.999Z</time></trkpt><trkpt lat="43.28619563329794" lon="10.890046735721038"><ele>319.3333333333333</ele><time>2026-03-27T15:00:18.999Z</time></trkpt><trkpt lat="43.286316235976045" lon="10.889847946888704"><ele>321.0</ele><time>2026-03-27T15:00:19.999Z</time></trkpt><trkpt lat="43.286405627172265" lon="10.889607091622711"><ele>320.6666666666667</ele><time>2026-03-27T15:00:20.999Z</time></trkpt><trkpt lat="43.28645964979541" lon="10.889335883521973"><ele>320.33333333333337</ele><time>2026-03-27T15:00:21.999Z</time></trkpt><trkpt lat="43.28647962828529" lon="10.88905225236891"><ele>320.0</ele><time>2026-03-27T15:00:22.999Z</time></trkpt><trkpt lat="43.286450848882495" lon="10.888767646314845"><ele>320.0</ele><time>2026-03-27T15:00:23.999Z</time></trkpt><trkpt lat="43.2863748845821" lon="10.888515477154762"><ele>320.0</ele><time>2026-03-27T15:00:24.999Z</time></trkpt><trkpt lat="43.28625874455361" lon="10.888287617675504"><ele>320.0</ele><time>2026-03-27T15:00:25.999Z</time></trkpt><trkpt lat="43.28612398001529" lon="10.888080043536045"><ele>319.0</ele><time>2026-03-27T15:00:26.999Z</time></trkpt><trkpt lat="43.28601695965245" lon="10.887876161925924"><ele>318.0</ele><time>2026-03-27T15:00:27.999Z</time></trkpt><trkpt lat="43.28592686170147" lon="10.887655342856073"><ele>317.0</ele><time>2026-03-27T15:00:28.999Z</time></trkpt><trkpt lat="43.28587781608035" lon="10.887405853924093"><ele>319.0</ele><time>2026-03-27T15:00:29.999Z</time></trkpt><trkpt lat="43.2858702682114" lon="10.887147345930329"><ele>321.0</ele><time>2026-03-27T15:00:31Z</time></trkpt><trkpt lat="43.28589885150853" lon="10.886894875412626"><ele>323.0</ele><time>2026-03-27T15:00:32Z</time></trkpt><trkpt lat="43.28595221799369" lon="10.88665602391993"><ele>323.0</ele><time>2026-03-27T15:00:33Z</time></trkpt><trkpt lat="43.28603138349854" lon="10.8864507287701"><ele>323.0</ele><time>2026-03-27T15:00:34Z</time></trkpt><trkpt lat="43.286144681199744" lon="10.886252726786084"><ele>323.0</ele><time>2026-03-27T15:00:35Z</time></trkpt><trkpt lat="43.28627332893168" lon="10.886058639830088"><ele>322.6666666666667</ele><time>2026-03-27T15:00:36Z</time></trkpt><trkpt lat="43.28641340797895" lon="10.885861458896747"><ele>322.3333333333333</ele><time>2026-03-27T15:00:37Z</time></trkpt><trkpt lat="43.286557780201505" lon="10.885669658188723"><ele>322.0</ele><time>2026-03-27T15:00:38Z</time></trkpt><trkpt lat="43.28673069340901" lon="10.885518425604435"><ele>324.66666666666663</ele><time>2026-03-27T15:00:39Z</time></trkpt><trkpt lat="43.28690139885192" lon="10.885353506230702"><ele>327.3333333333333</ele><time>2026-03-27T15:00:40Z</time></trkpt><trkpt lat="43.28708292376867" lon="10.885213803392842"><ele>330.0</ele><time>2026-03-27T15:00:41Z</time></trkpt><trkpt lat="43.287262771813566" lon="10.88506881616283"><ele>330.0</ele><time>2026-03-27T15:00:42Z</time></trkpt><trkpt lat="43.28743430813271" lon="10.884929730271816"><ele>330.0</ele><time>2026-03-27T15:00:43Z</time></trkpt><trkpt lat="43.28756826176676" lon="10.884728118347846"><ele>330.0</ele><time>2026-03-27T15:00:44Z</time></trkpt><trkpt lat="43.28768175659171" lon="10.884529476846648"><ele>330.0</ele><time>2026-03-27T15:00:45Z</time></trkpt><trkpt lat="43.2877895627493" lon="10.884339900346644"><ele>330.0</ele><time>2026-03-27T15:00:46Z</time></trkpt><trkpt lat="43.287931923713984" lon="10.884213735911803"><ele>330.0</ele><time>2026-03-27T15:00:47Z</time></trkpt><trkpt lat="43.28810273583247" lon="10.88409157069873"><ele>328.6666666666667</ele><time>2026-03-27T15:00:48Z</time></trkpt><trkpt lat="43.28828028509153" lon="10.883953014312914"><ele>327.33333333333337</ele><time>2026-03-27T15:00:49Z</time></trkpt><trkpt lat="43.28843908621063" lon="10.883817262548538"><ele>326.0</ele><time>2026-03-27T15:00:50Z</time></trkpt><trkpt lat="43.28858310898706" lon="10.88365495909905"><ele>326.0</ele><time>2026-03-27T15:00:51Z</time></trkpt><trkpt lat="43.2886970661056" lon="10.883461137420204"><ele>326.0</ele><time>2026-03-27T15:00:52Z</time></trkpt><trkpt lat="43.28877932345121" lon="10.883230452446252"><ele>326.0</ele><time>2026-03-27T15:00:53Z</time></trkpt><trkpt lat="43.28882537064268" lon="10.882972049600328"><ele>323.0</ele><time>2026-03-27T15:00:54Z</time></trkpt><trkpt lat="43.288842802485654" lon="10.882717468784094"><ele>320.0</ele><time>2026-03-27T15:00:55Z</time></trkpt><trkpt lat="43.28884352727434" lon="10.882481317059325"><ele>317.0</ele><time>2026-03-27T15:00:56Z</time></trkpt><trkpt lat="43.28881858493129" lon="10.882259762350056"><ele>315.33333333333337</ele><time>2026-03-27T15:00:57Z</time></trkpt><trkpt lat="43.2887487221324" lon="10.882031737833767"><ele>313.6666666666667</ele><time>2026-03-27T15:00:58Z</time></trkpt><trkpt lat="43.288647521858664" lon="10.881791195505588"><ele>312.0</ele><time>2026-03-27T15:00:59Z</time></trkpt><trkpt lat="43.288561143912034" lon="10.881523791103406"><ele>312.0</ele><time>2026-03-27T15:01:00Z</time></trkpt><trkpt lat="43.28850270743138" lon="10.881237400448214"><ele>312.0</ele><time>2026-03-27T15:01:01Z</time></trkpt><trkpt lat="43.28846819879966" lon="10.880948108038908"><ele>312.0</ele><time>2026-03-27T15:01:02Z</time></trkpt><trkpt lat="43.288452209378086" lon="10.880673926980677"><ele>312.0</ele><time>2026-03-27T15:01:03Z</time></trkpt><trkpt lat="43.28845337947278" lon="10.880417629721906"><ele>312.0</ele><time>2026-03-27T15:01:04Z</time></trkpt><trkpt lat="43.288485986503396" lon="10.880162832552719"><ele>312.0</ele><time>2026-03-27T15:01:05Z</time></trkpt><trkpt lat="43.28853758962012" lon="10.879910599172383"><ele>313.0</ele><time>2026-03-27T15:01:06Z</time></trkpt><trkpt lat="43.28860234461748" lon="10.879653600318782"><ele>314.0</ele><time>2026-03-27T15:01:07Z</time></trkpt><trkpt lat="43.28870916157005" lon="10.879422481021994"><ele>315.0</ele><time>2026-03-27T15:01:08Z</time></trkpt><trkpt lat="43.28883212081857" lon="10.879194548369886"><ele>313.6666666666667</ele><time>2026-03-27T15:01:09Z</time></trkpt><trkpt lat="43.28896174211246" lon="10.878967498247123"><ele>312.33333333333337</ele><time>2026-03-27T15:01:10Z</time></trkpt><trkpt lat="43.289082959465226" lon="10.87872513248825"><ele>311.0</ele><time>2026-03-27T15:01:11Z</time></trkpt><trkpt lat="43.28921580745819" lon="10.87850101189583"><ele>312.33333333333337</ele><time>2026-03-27T15:01:12Z</time></trkpt><trkpt lat="43.28934329723556" lon="10.878275381703348"><ele>313.6666666666667</ele><time>2026-03-27T15:01:13Z</time></trkpt><trkpt lat="43.289471357310894" lon="10.878051123189769"><ele>315.0</ele><time>2026-03-27T15:01:14Z</time></trkpt><trkpt lat="43.28960113970698" lon="10.877829302862326"><ele>315.0</ele><time>2026-03-27T15:01:15Z</time></trkpt><trkpt lat="43.2897299372381" lon="10.87760599197445"><ele>315.0</ele><time>2026-03-27T15:01:16Z</time></trkpt><trkpt lat="43.2898557108307" lon="10.877383362827233"><ele>315.0</ele><time>2026-03-27T15:01:17Z</time></trkpt><trkpt lat="43.289979018471705" lon="10.87715761619262"><ele>315.0</ele><time>2026-03-27T15:01:18Z</time></trkpt><trkpt lat="43.29009356973228" lon="10.876937040495836"><ele>315.0</ele><time>2026-03-27T15:01:19Z</time></trkpt><trkpt lat="43.290222183430146" lon="10.876724740672087"><ele>315.0</ele><time>2026-03-27T15:01:20Z</time></trkpt><trkpt lat="43.290362199629506" lon="10.876517250375686"><ele>316.0</ele><time>2026-03-27T15:01:21Z</time></trkpt><trkpt lat="43.290519652854094" lon="10.876329735529636"><ele>317.0</ele><time>2026-03-27T15:01:22Z</time></trkpt><trkpt lat="43.29069125515694" lon="10.876168246005195"><ele>318.0</ele><time>2026-03-27T15:01:23Z</time></trkpt><trkpt lat="43.29088256062814" lon="10.876039146972953"><ele>318.6666666666667</ele><time>2026-03-27T15:01:24Z</time></trkpt><trkpt lat="43.291086073751075" lon="10.875945682519218"><ele>319.33333333333337</ele><time>2026-03-27T15:01:25Z</time></trkpt><trkpt lat="43.29129451713181" lon="10.87588040083632"><ele>320.0</ele><time>2026-03-27T15:01:26Z</time></trkpt><trkpt lat="43.29150086052892" lon="10.875820025004169"><ele>322.6666666666667</ele><time>2026-03-27T15:01:27Z</time></trkpt><trkpt lat="43.29170172757995" lon="10.875747893932825"><ele>325.3333333333333</ele><time>2026-03-27T15:01:28Z</time></trkpt><trkpt lat="43.29189522939686" lon="10.875648657431997"><ele>328.0</ele><time>2026-03-27T15:01:29Z</time></trkpt><trkpt lat="43.292086344013946" lon="10.875524129157283"><ele>328.0</ele><time>2026-03-27T15:01:30Z</time></trkpt><trkpt lat="43.292276420532865" lon="10.87537743379977"><ele>328.0</ele><time>2026-03-27T15:01:31Z</time></trkpt><trkpt lat="43.29246794558367" lon="10.875229555444713"><ele>328.0</ele><time>2026-03-27T15:01:32Z</time></trkpt><trkpt lat="43.29265790516863" lon="10.875078179001136"><ele>328.3333333333333</ele><time>2026-03-27T15:01:33Z</time></trkpt><trkpt lat="43.292848104417764" lon="10.87492583765379"><ele>328.6666666666667</ele><time>2026-03-27T15:01:34Z</time></trkpt><trkpt lat="43.293035542020384" lon="10.874772200421825"><ele>329.0</ele><time>2026-03-27T15:01:35Z</time></trkpt><trkpt lat="43.293224610692945" lon="10.874626761531447"><ele>329.0</ele><time>2026-03-27T15:01:36Z</time></trkpt><trkpt lat="43.29341163748846" lon="10.874499611072372"><ele>329.0</ele><time>2026-03-27T15:01:37Z</time></trkpt><trkpt lat="43.29360858974247" lon="10.87438329961537"><ele>329.0</ele><time>2026-03-27T15:01:38Z</time></trkpt><trkpt lat="43.29381251263362" lon="10.874294278645934"><ele>331.33333333333337</ele><time>2026-03-27T15:01:39Z</time></trkpt><trkpt lat="43.29401969707001" lon="10.874220140869038"><ele>333.6666666666667</ele><time>2026-03-27T15:01:39.999Z</time></trkpt><trkpt lat="43.294231231766894" lon="10.874155787249965"><ele>336.0</ele><time>2026-03-27T15:01:40.999Z</time></trkpt><trkpt lat="43.29444353866225" lon="10.874107690293059"><ele>336.0</ele><time>2026-03-27T15:01:41.999Z</time></trkpt><trkpt lat="43.29465467445142" lon="10.874067588598658"><ele>336.0</ele><time>2026-03-27T15:01:42.999Z</time></trkpt><trkpt lat="43.29486148068558" lon="10.87402304890391"><ele>336.0</ele><time>2026-03-27T15:01:43.999Z</time></trkpt><trkpt lat="43.29504349899347" lon="10.873983898970348"><ele>338.3333333333333</ele><time>2026-03-27T15:01:44.999Z</time></trkpt><trkpt lat="43.29520913706796" lon="10.873947624382971"><ele>340.66666666666663</ele><time>2026-03-27T15:01:45.999Z</time></trkpt><trkpt lat="43.295357799138486" lon="10.873916621151757"><ele>343.0</ele><time>2026-03-27T15:01:46.999Z</time></trkpt><trkpt lat="43.29548979655489" lon="10.873891103292959"><ele>344.2</ele><time>2026-03-27T15:01:47.999Z</time></trkpt><trkpt lat="43.2956018522728" lon="10.873877645462766"><ele>345.4</ele><time>2026-03-27T15:01:48.999Z</time></trkpt><trkpt lat="43.29569804982706" lon="10.873889397180456"><ele>346.59999999999997</ele><time>2026-03-27T15:01:49.999Z</time></trkpt><trkpt lat="43.29578095349538" lon="10.873937612982362"><ele>347.79999999999995</ele><time>2026-03-27T15:01:50.999Z</time></trkpt><trkpt lat="43.295858301739216" lon="10.873998269726483"><ele>349.0</ele><time>2026-03-27T15:01:51.999Z</time></trkpt><trkpt lat="43.29592642540806" lon="10.874054567022004"><ele>349.0</ele><time>2026-03-27T15:01:52.999Z</time></trkpt><trkpt lat="43.29599378915473" lon="10.874053885682542"><ele>349.0</ele><time>2026-03-27T15:01:53.999Z</time></trkpt><trkpt lat="43.296056606266134" lon="10.874159491213847"><ele>349.0</ele><time>2026-03-27T15:01:54.999Z</time></trkpt><trkpt lat="43.29614436987597" lon="10.87422880770954"><ele>349.0</ele><time>2026-03-27T15:01:55.999Z</time></trkpt><trkpt lat="43.296239232736724" lon="10.874303833042978"><ele>349.0</ele><time>2026-03-27T15:01:56.999Z</time></trkpt><trkpt lat="43.296343323533335" lon="10.874375892850162"><ele>347.75</ele><time>2026-03-27T15:01:57.999Z</time></trkpt><trkpt lat="43.29644583085177" lon="10.87443696984399"><ele>346.5</ele><time>2026-03-27T15:01:58.999Z</time></trkpt><trkpt lat="43.29656531682289" lon="10.874483181162457"><ele>345.25</ele><time>2026-03-27T15:01:59.999Z</time></trkpt><trkpt lat="43.29669510197394" lon="10.874518107741242"><ele>344.0</ele><time>2026-03-27T15:02:00.999Z</time></trkpt><trkpt lat="43.296831809238824" lon="10.874546277454723"><ele>344.0</ele><time>2026-03-27T15:02:01.999Z</time></trkpt><trkpt lat="43.296958685780574" lon="10.874576874260745"><ele>344.0</ele><time>2026-03-27T15:02:02.999Z</time></trkpt><trkpt lat="43.29707762751441" lon="10.874608566081285"><ele>344.0</ele><time>2026-03-27T15:02:03.999Z</time></trkpt><trkpt lat="43.29718935728709" lon="10.874639913868304"><ele>344.0</ele><time>2026-03-27T15:02:04.999Z</time></trkpt><trkpt lat="43.29728639412236" lon="10.874719140620158"><ele>346.79999999999995</ele><time>2026-03-27T15:02:05.999Z</time></trkpt><trkpt lat="43.2973571581196" lon="10.874816340990794"><ele>349.59999999999997</ele><time>2026-03-27T15:02:06.999Z</time></trkpt><trkpt lat="43.297449284802724" lon="10.874906918466571"><ele>352.4</ele><time>2026-03-27T15:02:07.999Z</time></trkpt><trkpt lat="43.29751729871276" lon="10.875013152028732"><ele>355.2</ele><time>2026-03-27T15:02:08.999Z</time></trkpt><trkpt lat="43.297530032424824" lon="10.875150346355229"><ele>358.0</ele><time>2026-03-27T15:02:09.999Z</time></trkpt><trkpt lat="43.297516219739364" lon="10.87528494654939"><ele>358.16666666666663</ele><time>2026-03-27T15:02:10.999Z</time></trkpt><trkpt lat="43.297510158522044" lon="10.87541767636806"><ele>358.3333333333333</ele><time>2026-03-27T15:02:11.999Z</time></trkpt><trkpt lat="43.29749546100385" lon="10.875560087632245"><ele>358.5</ele><time>2026-03-27T15:02:12.999Z</time></trkpt><trkpt lat="43.297495549045806" lon="10.875655257665114"><ele>358.6666666666667</ele><time>2026-03-27T15:02:13.999Z</time></trkpt><trkpt lat="43.29753457198445" lon="10.87573584309628"><ele>358.83333333333337</ele><time>2026-03-27T15:02:14.999Z</time></trkpt><trkpt lat="43.2975943245437" lon="10.875767798601128"><ele>359.0</ele><time>2026-03-27T15:02:15.999Z</time></trkpt><trkpt lat="43.29768536232958" lon="10.875654779932253"><ele>359.0</ele><time>2026-03-27T15:02:17.999Z</time></trkpt><trkpt lat="43.2977354299479" lon="10.87553774672856"><ele>359.0</ele><time>2026-03-27T15:02:26.999Z</time></trkpt><trkpt lat="43.29778028627231" lon="10.875474578692383"><ele>359.0</ele><time>2026-03-27T15:02:27.999Z</time></trkpt><trkpt lat="43.297861303425925" lon="10.875524381837952"><ele>359.0</ele><time>2026-03-27T15:02:29.999Z</time></trkpt><trkpt lat="43.297927129277916" lon="10.87557381174916"><ele>359.0</ele><time>2026-03-27T15:02:32.999Z</time></trkpt><trkpt lat="43.2979779990082" lon="10.875453846725595"><ele>359.0</ele><time>2026-03-27T15:02:34.999Z</time></trkpt><trkpt lat="43.298012649183306" lon="10.87536391373171"><ele>359.0</ele><time>2026-03-27T15:02:35.999Z</time></trkpt><trkpt lat="43.29806036397786" lon="10.87524007431013"><ele>359.0</ele><time>2026-03-27T15:02:37Z</time></trkpt><trkpt lat="43.298111720790764" lon="10.875091599963945"><ele>359.0</ele><time>2026-03-27T15:02:38Z</time></trkpt><trkpt lat="43.29816450620058" lon="10.874953724395503"><ele>359.0</ele><time>2026-03-27T15:02:39Z</time></trkpt><trkpt lat="43.29821958534873" lon="10.874823017849382"><ele>359.0</ele><time>2026-03-27T15:02:40Z</time></trkpt><trkpt lat="43.29828479330792" lon="10.874714644532169"><ele>360.4</ele><time>2026-03-27T15:02:41Z</time></trkpt><trkpt lat="43.29832809259735" lon="10.874600418650935"><ele>361.79999999999995</ele><time>2026-03-27T15:02:42Z</time></trkpt><trkpt lat="43.298386681814385" lon="10.87448974256169"><ele>363.20000000000005</ele><time>2026-03-27T15:02:43Z</time></trkpt><trkpt lat="43.29844840657176" lon="10.874373286783934"><ele>364.6</ele><time>2026-03-27T15:02:44Z</time></trkpt><trkpt lat="43.29852293566013" lon="10.874254183819676"><ele>366.0</ele><time>2026-03-27T15:02:45Z</time></trkpt><trkpt lat="43.2985951860794" lon="10.874144382347637"><ele>366.0</ele><time>2026-03-27T15:02:46Z</time></trkpt><trkpt lat="43.29866308400486" lon="10.87404486280041"><ele>366.0</ele><time>2026-03-27T15:02:47Z</time></trkpt><trkpt lat="43.29874053352155" lon="10.873970814118529"><ele>366.0</ele><time>2026-03-27T15:02:48Z</time></trkpt><trkpt lat="43.29879796384742" lon="10.873895607614914"><ele>366.0</ele><time>2026-03-27T15:02:49Z</time></trkpt><trkpt lat="43.29884207398806" lon="10.873832141132239"><ele>366.0</ele><time>2026-03-27T15:02:50Z</time></trkpt><trkpt lat="43.29893886643599" lon="10.873730139803994"><ele>366.8333333333333</ele><time>2026-03-27T15:02:52Z</time></trkpt><trkpt lat="43.29904244691227" lon="10.873707721470154"><ele>367.6666666666667</ele><time>2026-03-27T15:02:54Z</time></trkpt><trkpt lat="43.29910236295755" lon="10.873752446458854"><ele>368.5</ele><time>2026-03-27T15:02:56Z</time></trkpt><trkpt lat="43.29916240523957" lon="10.873782664972378"><ele>369.33333333333337</ele><time>2026-03-27T15:03:01Z</time></trkpt><trkpt lat="43.29926528303401" lon="10.873820770186846"><ele>370.1666666666667</ele><time>2026-03-27T15:03:04Z</time></trkpt><trkpt lat="43.29933012558691" lon="10.873824215065692"><ele>371.0</ele><time>2026-03-27T15:03:05Z</time></trkpt><trkpt lat="43.29944322687594" lon="10.873835451380968"><ele>371.0</ele><time>2026-03-27T15:03:07Z</time></trkpt><trkpt lat="43.29952299334749" lon="10.873813798030547"><ele>371.0</ele><time>2026-03-27T15:03:09Z</time></trkpt><trkpt lat="43.29958467159912" lon="10.873788228788767"><ele>371.0</ele><time>2026-03-27T15:03:11Z</time></trkpt><trkpt lat="43.29965807927131" lon="10.873744115173675"><ele>371.0</ele><time>2026-03-27T15:03:13Z</time></trkpt><trkpt lat="43.299732101610736" lon="10.873692609003605"><ele>371.0</ele><time>2026-03-27T15:03:15Z</time></trkpt><trkpt lat="43.29978879378231" lon="10.873653003935805"><ele>371.0</ele><time>2026-03-27T15:03:17Z</time></trkpt><trkpt lat="43.29984671475918" lon="10.873612232469899"><ele>371.0</ele><time>2026-03-27T15:03:20Z</time></trkpt><trkpt lat="43.29990594899525" lon="10.873582386478692"><ele>369.5</ele><time>2026-03-27T15:03:25Z</time></trkpt><trkpt lat="43.29996760961069" lon="10.873552118991359"><ele>368.0</ele><time>2026-03-27T15:05:18Z</time></trkpt><trkpt lat="43.300045212099704" lon="10.873615578710947"><ele>366.5</ele><time>2026-03-27T15:06:02.999Z</time></trkpt><trkpt lat="43.300038102133406" lon="10.873725307518095"><ele>365.0</ele><time>2026-03-27T15:06:04.999Z</time></trkpt><trkpt lat="43.300022935530805" lon="10.873825153099762"><ele>363.5</ele><time>2026-03-27T15:06:06.999Z</time></trkpt><trkpt lat="43.29994949303255" lon="10.873870138258438"><ele>362.0</ele><time>2026-03-27T15:06:07.999Z</time></trkpt><trkpt lat="43.29983532919243" lon="10.873969203288336"><ele>362.0</ele><time>2026-03-27T15:06:09.999Z</time></trkpt><trkpt lat="43.29977714033267" lon="10.874020051562306"><ele>362.0</ele><time>2026-03-27T15:06:10.999Z</time></trkpt><trkpt lat="43.29971912494959" lon="10.874089324860861"><ele>362.0</ele><time>2026-03-27T15:06:11.999Z</time></trkpt><trkpt lat="43.29965707889832" lon="10.874156246643613"><ele>362.0</ele><time>2026-03-27T15:06:12.999Z</time></trkpt><trkpt lat="43.29959852524331" lon="10.874219324264537"><ele>362.0</ele><time>2026-03-27T15:06:13.999Z</time></trkpt><trkpt lat="43.299528646132664" lon="10.874288088480707"><ele>362.0</ele><time>2026-03-27T15:06:14.999Z</time></trkpt><trkpt lat="43.29946038554748" lon="10.874338797783265"><ele>362.6666666666667</ele><time>2026-03-27T15:06:15.999Z</time></trkpt><trkpt lat="43.29940141444238" lon="10.874380497799061"><ele>363.33333333333337</ele><time>2026-03-27T15:06:16.999Z</time></trkpt><trkpt lat="43.299313259655435" lon="10.874471367712045"><ele>364.0</ele><time>2026-03-27T15:06:18.999Z</time></trkpt><trkpt lat="43.299259676565995" lon="10.874528589979397"><ele>364.6666666666667</ele><time>2026-03-27T15:06:19.999Z</time></trkpt><trkpt lat="43.299202549709946" lon="10.874590147748961"><ele>365.3333333333333</ele><time>2026-03-27T15:06:20.999Z</time></trkpt><trkpt lat="43.29912032767094" lon="10.874589293883712"><ele>366.0</ele><time>2026-03-27T15:06:21.999Z</time></trkpt><trkpt lat="43.29907061683871" lon="10.874642752242186"><ele>366.0</ele><time>2026-03-27T15:06:22.999Z</time></trkpt><trkpt lat="43.29901069427084" lon="10.874704950258073"><ele>366.0</ele><time>2026-03-27T15:06:23.999Z</time></trkpt><trkpt lat="43.2989548864565" lon="10.874771373872749"><ele>366.0</ele><time>2026-03-27T15:06:24.999Z</time></trkpt><trkpt lat="43.29886687895209" lon="10.874877086033901"><ele>366.0</ele><time>2026-03-27T15:06:26.999Z</time></trkpt><trkpt lat="43.2987984598255" lon="10.875006757033411"><ele>366.0</ele><time>2026-03-27T15:06:28.999Z</time></trkpt><trkpt lat="43.29874277574877" lon="10.875139381791868"><ele>366.3333333333333</ele><time>2026-03-27T15:06:30.999Z</time></trkpt><trkpt lat="43.2986884271466" lon="10.875275706822572"><ele>366.6666666666667</ele><time>2026-03-27T15:06:32.999Z</time></trkpt><trkpt lat="43.29864655192414" lon="10.875349017207375"><ele>367.0</ele><time>2026-03-27T15:06:33.999Z</time></trkpt><trkpt lat="43.29860285557914" lon="10.875436064059675"><ele>367.33333333333337</ele><time>2026-03-27T15:06:34.999Z</time></trkpt><trkpt lat="43.298564721502004" lon="10.87552279633892"><ele>367.6666666666667</ele><time>2026-03-27T15:06:35.999Z</time></trkpt><trkpt lat="43.29852144437863" lon="10.875655052594736"><ele>368.0</ele><time>2026-03-27T15:06:37.999Z</time></trkpt><trkpt lat="43.298465255134204" lon="10.875750374533347"><ele>368.0</ele><time>2026-03-27T15:06:39.999Z</time></trkpt><trkpt lat="43.298477943710196" lon="10.875836313210128"><ele>368.0</ele><time>2026-03-27T15:06:59Z</time></trkpt><trkpt lat="43.2985691776188" lon="10.875809812274083"><ele>368.0</ele><time>2026-03-27T15:07:04Z</time></trkpt><trkpt lat="43.29863504329803" lon="10.87584296981541"><ele>368.0</ele><time>2026-03-27T15:07:07Z</time></trkpt><trkpt lat="43.298727160418586" lon="10.875835196622635"><ele>368.0</ele><time>2026-03-27T15:07:10Z</time></trkpt><trkpt lat="43.298797654296436" lon="10.875777522678566"><ele>368.0</ele><time>2026-03-27T15:07:13Z</time></trkpt><trkpt lat="43.298864311283374" lon="10.875742124338604"><ele>368.0</ele><time>2026-03-27T15:07:17Z</time></trkpt><trkpt lat="43.298802995582115" lon="10.875704899148136"><ele>368.0</ele><time>2026-03-27T15:10:18Z</time></trkpt><trkpt lat="43.29884272844025" lon="10.875623722138162"><ele>368.0</ele><time>2026-03-27T15:10:27Z</time></trkpt><trkpt lat="43.29878774137257" lon="10.875675742984976"><ele>368.0</ele><time>2026-03-27T15:10:43.999Z</time></trkpt><trkpt lat="43.298718712581625" lon="10.875691406099822"><ele>368.0</ele><time>2026-03-27T15:10:54.999Z</time></trkpt><trkpt lat="43.29867118185064" lon="10.875751805098211"><ele>368.0</ele><time>2026-03-27T15:11:12.001Z</time></trkpt></trkseg></trk></gpx>